<?xml version="1.0" encoding="UTF-8" standalone="no" ?>
<gpx xmlns="http://www.topografix.com/GPX/1/1" xmlns:xsi="http://www.w3.org/2001/XMLSchema-instance" xsi:schemaLocation="http://www.topografix.com/GPX/1/1 http://www.topografix.com/GPX/1/1/gpx.xsd" version="1.1" creator="VisuGPX - https://www.visugpx.com">
  <metadata>
    <name>Vif - Sommet Pieu ou le Bémont</name>
  </metadata>
  <trk>
    <name><![CDATA[Chaque jour est un beau jour]]></name>
    <trkseg>
      <trkpt lat="45.05822" lon="5.67981">
        <ele>305.6</ele>
        <time>2021-01-16T13:11:39Z</time>
      </trkpt>
      <trkpt lat="45.05822" lon="5.67981">
        <ele>305.6</ele>
        <time>2021-01-16T13:11:47Z</time>
      </trkpt>
      <trkpt lat="45.05822" lon="5.67981">
        <ele>305.6</ele>
        <time>2021-01-16T13:11:48Z</time>
      </trkpt>
      <trkpt lat="45.05822" lon="5.67981">
        <ele>305.6</ele>
        <time>2021-01-16T13:11:49Z</time>
      </trkpt>
      <trkpt lat="45.05822" lon="5.67981">
        <ele>305.6</ele>
        <time>2021-01-16T13:11:50Z</time>
      </trkpt>
      <trkpt lat="45.05822" lon="5.67981">
        <ele>305.8</ele>
        <time>2021-01-16T13:11:51Z</time>
      </trkpt>
      <trkpt lat="45.05822" lon="5.67981">
        <ele>305.6</ele>
        <time>2021-01-16T13:11:52Z</time>
      </trkpt>
      <trkpt lat="45.05822" lon="5.67981">
        <ele>305.6</ele>
        <time>2021-01-16T13:11:53Z</time>
      </trkpt>
      <trkpt lat="45.05822" lon="5.67981">
        <ele>305.8</ele>
        <time>2021-01-16T13:11:54Z</time>
      </trkpt>
      <trkpt lat="45.05822" lon="5.67981">
        <ele>305.8</ele>
        <time>2021-01-16T13:11:55Z</time>
      </trkpt>
      <trkpt lat="45.05822" lon="5.67981">
        <ele>305.8</ele>
        <time>2021-01-16T13:11:56Z</time>
      </trkpt>
      <trkpt lat="45.05822" lon="5.67981">
        <ele>305.8</ele>
        <time>2021-01-16T13:11:57Z</time>
      </trkpt>
      <trkpt lat="45.05822" lon="5.67981">
        <ele>305.8</ele>
        <time>2021-01-16T13:11:58Z</time>
      </trkpt>
      <trkpt lat="45.05822" lon="5.67981">
        <ele>305.8</ele>
        <time>2021-01-16T13:11:59Z</time>
      </trkpt>
      <trkpt lat="45.05822" lon="5.67981">
        <ele>305.8</ele>
        <time>2021-01-16T13:12:00Z</time>
      </trkpt>
      <trkpt lat="45.05822" lon="5.67981">
        <ele>305.8</ele>
        <time>2021-01-16T13:12:01Z</time>
      </trkpt>
      <trkpt lat="45.05822" lon="5.67981">
        <ele>305.8</ele>
        <time>2021-01-16T13:12:02Z</time>
      </trkpt>
      <trkpt lat="45.05822" lon="5.67981">
        <ele>305.6</ele>
        <time>2021-01-16T13:12:03Z</time>
      </trkpt>
      <trkpt lat="45.05822" lon="5.67981">
        <ele>305.6</ele>
        <time>2021-01-16T13:12:04Z</time>
      </trkpt>
      <trkpt lat="45.05822" lon="5.67981">
        <ele>305.8</ele>
        <time>2021-01-16T13:12:05Z</time>
      </trkpt>
      <trkpt lat="45.05822" lon="5.67981">
        <ele>305.8</ele>
        <time>2021-01-16T13:12:06Z</time>
      </trkpt>
      <trkpt lat="45.05822" lon="5.67981">
        <ele>305.8</ele>
        <time>2021-01-16T13:12:07Z</time>
      </trkpt>
      <trkpt lat="45.05822" lon="5.67981">
        <ele>305.8</ele>
        <time>2021-01-16T13:12:08Z</time>
      </trkpt>
      <trkpt lat="45.05822" lon="5.67981">
        <ele>305.8</ele>
        <time>2021-01-16T13:12:09Z</time>
      </trkpt>
      <trkpt lat="45.05822" lon="5.67981">
        <ele>305.6</ele>
        <time>2021-01-16T13:12:10Z</time>
      </trkpt>
      <trkpt lat="45.05822" lon="5.67981">
        <ele>305.4</ele>
        <time>2021-01-16T13:12:11Z</time>
      </trkpt>
      <trkpt lat="45.05822" lon="5.67981">
        <ele>305.4</ele>
        <time>2021-01-16T13:12:12Z</time>
      </trkpt>
      <trkpt lat="45.05822" lon="5.67981">
        <ele>305.4</ele>
        <time>2021-01-16T13:12:13Z</time>
      </trkpt>
      <trkpt lat="45.05822" lon="5.67981">
        <ele>305.4</ele>
        <time>2021-01-16T13:12:14Z</time>
      </trkpt>
      <trkpt lat="45.05822" lon="5.67981">
        <ele>305.4</ele>
        <time>2021-01-16T13:12:15Z</time>
      </trkpt>
      <trkpt lat="45.05822" lon="5.67981">
        <ele>305.4</ele>
        <time>2021-01-16T13:12:16Z</time>
      </trkpt>
      <trkpt lat="45.05822" lon="5.67981">
        <ele>305.4</ele>
        <time>2021-01-16T13:12:17Z</time>
      </trkpt>
      <trkpt lat="45.05822" lon="5.67981">
        <ele>305.4</ele>
        <time>2021-01-16T13:12:18Z</time>
      </trkpt>
      <trkpt lat="45.05822" lon="5.67981">
        <ele>305.4</ele>
        <time>2021-01-16T13:12:19Z</time>
      </trkpt>
      <trkpt lat="45.05822" lon="5.67981">
        <ele>305.6</ele>
        <time>2021-01-16T13:12:20Z</time>
      </trkpt>
      <trkpt lat="45.05822" lon="5.67981">
        <ele>305.6</ele>
        <time>2021-01-16T13:12:21Z</time>
      </trkpt>
      <trkpt lat="45.05822" lon="5.67981">
        <ele>305.6</ele>
        <time>2021-01-16T13:12:22Z</time>
      </trkpt>
      <trkpt lat="45.05822" lon="5.67981">
        <ele>305.8</ele>
        <time>2021-01-16T13:12:23Z</time>
      </trkpt>
      <trkpt lat="45.05822" lon="5.67981">
        <ele>305.8</ele>
        <time>2021-01-16T13:12:24Z</time>
      </trkpt>
      <trkpt lat="45.05822" lon="5.67981">
        <ele>305.6</ele>
        <time>2021-01-16T13:12:25Z</time>
      </trkpt>
      <trkpt lat="45.05821" lon="5.67978">
        <ele>305.6</ele>
        <time>2021-01-16T13:12:26Z</time>
      </trkpt>
      <trkpt lat="45.05821" lon="5.67978">
        <ele>305.8</ele>
        <time>2021-01-16T13:12:27Z</time>
      </trkpt>
      <trkpt lat="45.05821" lon="5.67978">
        <ele>305.8</ele>
        <time>2021-01-16T13:12:28Z</time>
      </trkpt>
      <trkpt lat="45.05823" lon="5.67977">
        <ele>305.8</ele>
        <time>2021-01-16T13:12:29Z</time>
      </trkpt>
      <trkpt lat="45.05823" lon="5.67977">
        <ele>305.8</ele>
        <time>2021-01-16T13:12:30Z</time>
      </trkpt>
      <trkpt lat="45.05825" lon="5.67979">
        <ele>305.6</ele>
        <time>2021-01-16T13:12:31Z</time>
      </trkpt>
      <trkpt lat="45.05825" lon="5.67979">
        <ele>305.8</ele>
        <time>2021-01-16T13:12:32Z</time>
      </trkpt>
      <trkpt lat="45.05826" lon="5.67982">
        <ele>305.8</ele>
        <time>2021-01-16T13:12:33Z</time>
      </trkpt>
      <trkpt lat="45.05826" lon="5.67982">
        <ele>305.8</ele>
        <time>2021-01-16T13:12:34Z</time>
      </trkpt>
      <trkpt lat="45.05827" lon="5.67986">
        <ele>305.8</ele>
        <time>2021-01-16T13:12:35Z</time>
      </trkpt>
      <trkpt lat="45.05827" lon="5.67986">
        <ele>305.8</ele>
        <time>2021-01-16T13:12:36Z</time>
      </trkpt>
      <trkpt lat="45.05829" lon="5.67988">
        <ele>306</ele>
        <time>2021-01-16T13:12:37Z</time>
      </trkpt>
      <trkpt lat="45.05829" lon="5.67988">
        <ele>306</ele>
        <time>2021-01-16T13:12:38Z</time>
      </trkpt>
      <trkpt lat="45.05831" lon="5.67991">
        <ele>306.2</ele>
        <time>2021-01-16T13:12:39Z</time>
      </trkpt>
      <trkpt lat="45.05831" lon="5.67991">
        <ele>306.4</ele>
        <time>2021-01-16T13:12:40Z</time>
      </trkpt>
      <trkpt lat="45.05833" lon="5.67994">
        <ele>306.4</ele>
        <time>2021-01-16T13:12:41Z</time>
      </trkpt>
      <trkpt lat="45.05833" lon="5.67994">
        <ele>306.6</ele>
        <time>2021-01-16T13:12:42Z</time>
      </trkpt>
      <trkpt lat="45.05835" lon="5.67996">
        <ele>306.4</ele>
        <time>2021-01-16T13:12:43Z</time>
      </trkpt>
      <trkpt lat="45.05835" lon="5.67996">
        <ele>306.4</ele>
        <time>2021-01-16T13:12:44Z</time>
      </trkpt>
      <trkpt lat="45.05837" lon="5.67999">
        <ele>306.4</ele>
        <time>2021-01-16T13:12:45Z</time>
      </trkpt>
      <trkpt lat="45.05837" lon="5.67999">
        <ele>306.4</ele>
        <time>2021-01-16T13:12:46Z</time>
      </trkpt>
      <trkpt lat="45.05839" lon="5.68002">
        <ele>306.2</ele>
        <time>2021-01-16T13:12:47Z</time>
      </trkpt>
      <trkpt lat="45.05839" lon="5.68002">
        <ele>306.2</ele>
        <time>2021-01-16T13:12:48Z</time>
      </trkpt>
      <trkpt lat="45.0584" lon="5.68006">
        <ele>306.2</ele>
        <time>2021-01-16T13:12:49Z</time>
      </trkpt>
      <trkpt lat="45.0584" lon="5.68006">
        <ele>306.2</ele>
        <time>2021-01-16T13:12:50Z</time>
      </trkpt>
      <trkpt lat="45.05842" lon="5.68009">
        <ele>305.8</ele>
        <time>2021-01-16T13:12:51Z</time>
      </trkpt>
      <trkpt lat="45.05842" lon="5.68009">
        <ele>305.8</ele>
        <time>2021-01-16T13:12:52Z</time>
      </trkpt>
      <trkpt lat="45.05843" lon="5.68012">
        <ele>305.6</ele>
        <time>2021-01-16T13:12:53Z</time>
      </trkpt>
      <trkpt lat="45.05843" lon="5.68012">
        <ele>305.4</ele>
        <time>2021-01-16T13:12:54Z</time>
      </trkpt>
      <trkpt lat="45.05845" lon="5.68015">
        <ele>305.2</ele>
        <time>2021-01-16T13:12:55Z</time>
      </trkpt>
      <trkpt lat="45.05845" lon="5.68015">
        <ele>305.2</ele>
        <time>2021-01-16T13:12:56Z</time>
      </trkpt>
      <trkpt lat="45.05847" lon="5.68018">
        <ele>305.4</ele>
        <time>2021-01-16T13:12:57Z</time>
      </trkpt>
      <trkpt lat="45.05847" lon="5.68018">
        <ele>305.6</ele>
        <time>2021-01-16T13:12:58Z</time>
      </trkpt>
      <trkpt lat="45.05849" lon="5.68021">
        <ele>305.8</ele>
        <time>2021-01-16T13:12:59Z</time>
      </trkpt>
      <trkpt lat="45.05849" lon="5.68021">
        <ele>306</ele>
        <time>2021-01-16T13:13:00Z</time>
      </trkpt>
      <trkpt lat="45.05851" lon="5.68023">
        <ele>306</ele>
        <time>2021-01-16T13:13:01Z</time>
      </trkpt>
      <trkpt lat="45.05851" lon="5.68023">
        <ele>306</ele>
        <time>2021-01-16T13:13:02Z</time>
      </trkpt>
      <trkpt lat="45.05852" lon="5.68025">
        <ele>305.8</ele>
        <time>2021-01-16T13:13:03Z</time>
      </trkpt>
      <trkpt lat="45.05852" lon="5.68025">
        <ele>305.8</ele>
        <time>2021-01-16T13:13:04Z</time>
      </trkpt>
      <trkpt lat="45.05852" lon="5.68025">
        <ele>306</ele>
        <time>2021-01-16T13:13:05Z</time>
      </trkpt>
      <trkpt lat="45.05852" lon="5.68025">
        <ele>306.2</ele>
        <time>2021-01-16T13:13:06Z</time>
      </trkpt>
      <trkpt lat="45.05852" lon="5.68025">
        <ele>306.4</ele>
        <time>2021-01-16T13:13:07Z</time>
      </trkpt>
      <trkpt lat="45.05852" lon="5.68025">
        <ele>306.4</ele>
        <time>2021-01-16T13:13:08Z</time>
      </trkpt>
      <trkpt lat="45.05852" lon="5.68025">
        <ele>306.6</ele>
        <time>2021-01-16T13:13:09Z</time>
      </trkpt>
      <trkpt lat="45.05852" lon="5.68025">
        <ele>306.4</ele>
        <time>2021-01-16T13:13:10Z</time>
      </trkpt>
      <trkpt lat="45.0585" lon="5.68025">
        <ele>306.4</ele>
        <time>2021-01-16T13:13:11Z</time>
      </trkpt>
      <trkpt lat="45.0585" lon="5.68025">
        <ele>306.6</ele>
        <time>2021-01-16T13:13:12Z</time>
      </trkpt>
      <trkpt lat="45.05848" lon="5.68023">
        <ele>306.4</ele>
        <time>2021-01-16T13:13:13Z</time>
      </trkpt>
      <trkpt lat="45.05848" lon="5.68023">
        <ele>306.2</ele>
        <time>2021-01-16T13:13:14Z</time>
      </trkpt>
      <trkpt lat="45.05846" lon="5.6802">
        <ele>306.2</ele>
        <time>2021-01-16T13:13:15Z</time>
      </trkpt>
      <trkpt lat="45.05846" lon="5.6802">
        <ele>306</ele>
        <time>2021-01-16T13:13:16Z</time>
      </trkpt>
      <trkpt lat="45.05845" lon="5.68017">
        <ele>306.2</ele>
        <time>2021-01-16T13:13:17Z</time>
      </trkpt>
      <trkpt lat="45.05845" lon="5.68017">
        <ele>306</ele>
        <time>2021-01-16T13:13:18Z</time>
      </trkpt>
      <trkpt lat="45.05844" lon="5.68014">
        <ele>306</ele>
        <time>2021-01-16T13:13:19Z</time>
      </trkpt>
      <trkpt lat="45.05844" lon="5.68014">
        <ele>306</ele>
        <time>2021-01-16T13:13:20Z</time>
      </trkpt>
      <trkpt lat="45.05842" lon="5.68012">
        <ele>306</ele>
        <time>2021-01-16T13:13:21Z</time>
      </trkpt>
      <trkpt lat="45.05842" lon="5.68012">
        <ele>306</ele>
        <time>2021-01-16T13:13:22Z</time>
      </trkpt>
      <trkpt lat="45.0584" lon="5.68009">
        <ele>306</ele>
        <time>2021-01-16T13:13:23Z</time>
      </trkpt>
      <trkpt lat="45.05839" lon="5.68007">
        <ele>305.8</ele>
        <time>2021-01-16T13:13:24Z</time>
      </trkpt>
      <trkpt lat="45.05837" lon="5.68005">
        <ele>305.6</ele>
        <time>2021-01-16T13:13:25Z</time>
      </trkpt>
      <trkpt lat="45.05836" lon="5.68002">
        <ele>306</ele>
        <time>2021-01-16T13:13:26Z</time>
      </trkpt>
      <trkpt lat="45.05835" lon="5.67999">
        <ele>306.2</ele>
        <time>2021-01-16T13:13:27Z</time>
      </trkpt>
      <trkpt lat="45.05834" lon="5.67995">
        <ele>306.2</ele>
        <time>2021-01-16T13:13:28Z</time>
      </trkpt>
      <trkpt lat="45.05833" lon="5.67991">
        <ele>306.2</ele>
        <time>2021-01-16T13:13:29Z</time>
      </trkpt>
      <trkpt lat="45.05833" lon="5.67987">
        <ele>306.4</ele>
        <time>2021-01-16T13:13:30Z</time>
      </trkpt>
      <trkpt lat="45.05832" lon="5.67984">
        <ele>306.4</ele>
        <time>2021-01-16T13:13:31Z</time>
      </trkpt>
      <trkpt lat="45.05832" lon="5.67981">
        <ele>306.4</ele>
        <time>2021-01-16T13:13:32Z</time>
      </trkpt>
      <trkpt lat="45.05831" lon="5.67978">
        <ele>306.6</ele>
        <time>2021-01-16T13:13:33Z</time>
      </trkpt>
      <trkpt lat="45.05831" lon="5.67974">
        <ele>306.8</ele>
        <time>2021-01-16T13:13:34Z</time>
      </trkpt>
      <trkpt lat="45.0583" lon="5.67971">
        <ele>306.8</ele>
        <time>2021-01-16T13:13:35Z</time>
      </trkpt>
      <trkpt lat="45.0583" lon="5.67967">
        <ele>307</ele>
        <time>2021-01-16T13:13:36Z</time>
      </trkpt>
      <trkpt lat="45.0583" lon="5.67964">
        <ele>306.8</ele>
        <time>2021-01-16T13:13:37Z</time>
      </trkpt>
      <trkpt lat="45.0583" lon="5.67964">
        <ele>307</ele>
        <time>2021-01-16T13:13:38Z</time>
      </trkpt>
      <trkpt lat="45.05827" lon="5.6796">
        <ele>307</ele>
        <time>2021-01-16T13:13:39Z</time>
      </trkpt>
      <trkpt lat="45.05825" lon="5.67958">
        <ele>307</ele>
        <time>2021-01-16T13:13:40Z</time>
      </trkpt>
      <trkpt lat="45.05824" lon="5.67956">
        <ele>307</ele>
        <time>2021-01-16T13:13:41Z</time>
      </trkpt>
      <trkpt lat="45.05822" lon="5.67953">
        <ele>307</ele>
        <time>2021-01-16T13:13:42Z</time>
      </trkpt>
      <trkpt lat="45.0582" lon="5.67951">
        <ele>306.8</ele>
        <time>2021-01-16T13:13:43Z</time>
      </trkpt>
      <trkpt lat="45.05818" lon="5.67948">
        <ele>306.8</ele>
        <time>2021-01-16T13:13:44Z</time>
      </trkpt>
      <trkpt lat="45.05817" lon="5.67946">
        <ele>306.6</ele>
        <time>2021-01-16T13:13:45Z</time>
      </trkpt>
      <trkpt lat="45.05815" lon="5.67943">
        <ele>306.6</ele>
        <time>2021-01-16T13:13:46Z</time>
      </trkpt>
      <trkpt lat="45.05814" lon="5.6794">
        <ele>306.8</ele>
        <time>2021-01-16T13:13:47Z</time>
      </trkpt>
      <trkpt lat="45.05812" lon="5.67937">
        <ele>306.8</ele>
        <time>2021-01-16T13:13:48Z</time>
      </trkpt>
      <trkpt lat="45.0581" lon="5.67934">
        <ele>306.8</ele>
        <time>2021-01-16T13:13:49Z</time>
      </trkpt>
      <trkpt lat="45.05808" lon="5.67932">
        <ele>306.6</ele>
        <time>2021-01-16T13:13:50Z</time>
      </trkpt>
      <trkpt lat="45.05806" lon="5.67929">
        <ele>306.6</ele>
        <time>2021-01-16T13:13:51Z</time>
      </trkpt>
      <trkpt lat="45.05803" lon="5.67927">
        <ele>306.4</ele>
        <time>2021-01-16T13:13:52Z</time>
      </trkpt>
      <trkpt lat="45.05801" lon="5.67925">
        <ele>306.6</ele>
        <time>2021-01-16T13:13:53Z</time>
      </trkpt>
      <trkpt lat="45.05799" lon="5.67924">
        <ele>306.4</ele>
        <time>2021-01-16T13:13:54Z</time>
      </trkpt>
      <trkpt lat="45.05796" lon="5.67922">
        <ele>306.6</ele>
        <time>2021-01-16T13:13:55Z</time>
      </trkpt>
      <trkpt lat="45.05794" lon="5.67921">
        <ele>306.4</ele>
        <time>2021-01-16T13:13:56Z</time>
      </trkpt>
      <trkpt lat="45.05791" lon="5.67919">
        <ele>306.8</ele>
        <time>2021-01-16T13:13:57Z</time>
      </trkpt>
      <trkpt lat="45.05788" lon="5.67917">
        <ele>306.8</ele>
        <time>2021-01-16T13:13:58Z</time>
      </trkpt>
      <trkpt lat="45.05786" lon="5.67915">
        <ele>307.2</ele>
        <time>2021-01-16T13:13:59Z</time>
      </trkpt>
      <trkpt lat="45.05784" lon="5.67914">
        <ele>307.2</ele>
        <time>2021-01-16T13:14:00Z</time>
      </trkpt>
      <trkpt lat="45.05781" lon="5.67912">
        <ele>307.4</ele>
        <time>2021-01-16T13:14:01Z</time>
      </trkpt>
      <trkpt lat="45.05779" lon="5.6791">
        <ele>307.6</ele>
        <time>2021-01-16T13:14:02Z</time>
      </trkpt>
      <trkpt lat="45.05777" lon="5.67908">
        <ele>307.6</ele>
        <time>2021-01-16T13:14:03Z</time>
      </trkpt>
      <trkpt lat="45.05775" lon="5.67906">
        <ele>307.4</ele>
        <time>2021-01-16T13:14:04Z</time>
      </trkpt>
      <trkpt lat="45.05772" lon="5.67904">
        <ele>307.4</ele>
        <time>2021-01-16T13:14:05Z</time>
      </trkpt>
      <trkpt lat="45.0577" lon="5.67902">
        <ele>306.8</ele>
        <time>2021-01-16T13:14:06Z</time>
      </trkpt>
      <trkpt lat="45.05768" lon="5.67899">
        <ele>306.6</ele>
        <time>2021-01-16T13:14:07Z</time>
      </trkpt>
      <trkpt lat="45.05766" lon="5.67897">
        <ele>306.8</ele>
        <time>2021-01-16T13:14:08Z</time>
      </trkpt>
      <trkpt lat="45.05763" lon="5.67894">
        <ele>306.8</ele>
        <time>2021-01-16T13:14:09Z</time>
      </trkpt>
      <trkpt lat="45.05762" lon="5.67891">
        <ele>307</ele>
        <time>2021-01-16T13:14:10Z</time>
      </trkpt>
      <trkpt lat="45.0576" lon="5.67889">
        <ele>307</ele>
        <time>2021-01-16T13:14:11Z</time>
      </trkpt>
      <trkpt lat="45.05758" lon="5.67887">
        <ele>307.6</ele>
        <time>2021-01-16T13:14:12Z</time>
      </trkpt>
      <trkpt lat="45.05756" lon="5.67885">
        <ele>307.6</ele>
        <time>2021-01-16T13:14:13Z</time>
      </trkpt>
      <trkpt lat="45.05754" lon="5.67882">
        <ele>307.8</ele>
        <time>2021-01-16T13:14:14Z</time>
      </trkpt>
      <trkpt lat="45.05752" lon="5.6788">
        <ele>308</ele>
        <time>2021-01-16T13:14:15Z</time>
      </trkpt>
      <trkpt lat="45.0575" lon="5.67877">
        <ele>308.4</ele>
        <time>2021-01-16T13:14:16Z</time>
      </trkpt>
      <trkpt lat="45.05748" lon="5.67875">
        <ele>308.2</ele>
        <time>2021-01-16T13:14:17Z</time>
      </trkpt>
      <trkpt lat="45.05745" lon="5.67872">
        <ele>308.4</ele>
        <time>2021-01-16T13:14:18Z</time>
      </trkpt>
      <trkpt lat="45.05743" lon="5.6787">
        <ele>308.2</ele>
        <time>2021-01-16T13:14:19Z</time>
      </trkpt>
      <trkpt lat="45.05741" lon="5.67867">
        <ele>308.2</ele>
        <time>2021-01-16T13:14:20Z</time>
      </trkpt>
      <trkpt lat="45.05739" lon="5.67865">
        <ele>307.8</ele>
        <time>2021-01-16T13:14:21Z</time>
      </trkpt>
      <trkpt lat="45.05737" lon="5.67863">
        <ele>307.6</ele>
        <time>2021-01-16T13:14:22Z</time>
      </trkpt>
      <trkpt lat="45.05735" lon="5.6786">
        <ele>307.8</ele>
        <time>2021-01-16T13:14:23Z</time>
      </trkpt>
      <trkpt lat="45.05733" lon="5.67858">
        <ele>307.8</ele>
        <time>2021-01-16T13:14:24Z</time>
      </trkpt>
      <trkpt lat="45.05731" lon="5.67856">
        <ele>308</ele>
        <time>2021-01-16T13:14:25Z</time>
      </trkpt>
      <trkpt lat="45.0573" lon="5.67853">
        <ele>308</ele>
        <time>2021-01-16T13:14:26Z</time>
      </trkpt>
      <trkpt lat="45.05728" lon="5.6785">
        <ele>308.4</ele>
        <time>2021-01-16T13:14:27Z</time>
      </trkpt>
      <trkpt lat="45.05726" lon="5.67848">
        <ele>308.6</ele>
        <time>2021-01-16T13:14:28Z</time>
      </trkpt>
      <trkpt lat="45.05724" lon="5.67846">
        <ele>308.8</ele>
        <time>2021-01-16T13:14:29Z</time>
      </trkpt>
      <trkpt lat="45.05722" lon="5.67844">
        <ele>308.8</ele>
        <time>2021-01-16T13:14:30Z</time>
      </trkpt>
      <trkpt lat="45.0572" lon="5.67841">
        <ele>308.8</ele>
        <time>2021-01-16T13:14:31Z</time>
      </trkpt>
      <trkpt lat="45.05718" lon="5.67838">
        <ele>309</ele>
        <time>2021-01-16T13:14:32Z</time>
      </trkpt>
      <trkpt lat="45.05717" lon="5.67835">
        <ele>309</ele>
        <time>2021-01-16T13:14:33Z</time>
      </trkpt>
      <trkpt lat="45.05715" lon="5.67833">
        <ele>309</ele>
        <time>2021-01-16T13:14:34Z</time>
      </trkpt>
      <trkpt lat="45.05713" lon="5.67831">
        <ele>309</ele>
        <time>2021-01-16T13:14:35Z</time>
      </trkpt>
      <trkpt lat="45.0571" lon="5.67828">
        <ele>308.8</ele>
        <time>2021-01-16T13:14:36Z</time>
      </trkpt>
      <trkpt lat="45.05708" lon="5.67826">
        <ele>308.8</ele>
        <time>2021-01-16T13:14:37Z</time>
      </trkpt>
      <trkpt lat="45.05706" lon="5.67823">
        <ele>308.2</ele>
        <time>2021-01-16T13:14:38Z</time>
      </trkpt>
      <trkpt lat="45.05704" lon="5.67821">
        <ele>308</ele>
        <time>2021-01-16T13:14:39Z</time>
      </trkpt>
      <trkpt lat="45.05702" lon="5.67818">
        <ele>308</ele>
        <time>2021-01-16T13:14:40Z</time>
      </trkpt>
      <trkpt lat="45.057" lon="5.67816">
        <ele>308.2</ele>
        <time>2021-01-16T13:14:41Z</time>
      </trkpt>
      <trkpt lat="45.05698" lon="5.67814">
        <ele>308.4</ele>
        <time>2021-01-16T13:14:42Z</time>
      </trkpt>
      <trkpt lat="45.05696" lon="5.67812">
        <ele>308.4</ele>
        <time>2021-01-16T13:14:43Z</time>
      </trkpt>
      <trkpt lat="45.05694" lon="5.67809">
        <ele>308.8</ele>
        <time>2021-01-16T13:14:44Z</time>
      </trkpt>
      <trkpt lat="45.05692" lon="5.67806">
        <ele>308.8</ele>
        <time>2021-01-16T13:14:45Z</time>
      </trkpt>
      <trkpt lat="45.05689" lon="5.67804">
        <ele>309.2</ele>
        <time>2021-01-16T13:14:46Z</time>
      </trkpt>
      <trkpt lat="45.05687" lon="5.67801">
        <ele>309.2</ele>
        <time>2021-01-16T13:14:47Z</time>
      </trkpt>
      <trkpt lat="45.05685" lon="5.67798">
        <ele>309.4</ele>
        <time>2021-01-16T13:14:48Z</time>
      </trkpt>
      <trkpt lat="45.05683" lon="5.67796">
        <ele>309.4</ele>
        <time>2021-01-16T13:14:49Z</time>
      </trkpt>
      <trkpt lat="45.0568" lon="5.67793">
        <ele>309.4</ele>
        <time>2021-01-16T13:14:50Z</time>
      </trkpt>
      <trkpt lat="45.05679" lon="5.67791">
        <ele>309.2</ele>
        <time>2021-01-16T13:14:51Z</time>
      </trkpt>
      <trkpt lat="45.05677" lon="5.67787">
        <ele>309.2</ele>
        <time>2021-01-16T13:14:52Z</time>
      </trkpt>
      <trkpt lat="45.05675" lon="5.67784">
        <ele>308.8</ele>
        <time>2021-01-16T13:14:53Z</time>
      </trkpt>
      <trkpt lat="45.05673" lon="5.6778">
        <ele>308.4</ele>
        <time>2021-01-16T13:14:54Z</time>
      </trkpt>
      <trkpt lat="45.05672" lon="5.67777">
        <ele>308.4</ele>
        <time>2021-01-16T13:14:55Z</time>
      </trkpt>
      <trkpt lat="45.0567" lon="5.67774">
        <ele>308.2</ele>
        <time>2021-01-16T13:14:56Z</time>
      </trkpt>
      <trkpt lat="45.05668" lon="5.67771">
        <ele>308.6</ele>
        <time>2021-01-16T13:14:57Z</time>
      </trkpt>
      <trkpt lat="45.05666" lon="5.67768">
        <ele>308.4</ele>
        <time>2021-01-16T13:14:58Z</time>
      </trkpt>
      <trkpt lat="45.05665" lon="5.67765">
        <ele>308.8</ele>
        <time>2021-01-16T13:14:59Z</time>
      </trkpt>
      <trkpt lat="45.05663" lon="5.67763">
        <ele>308.8</ele>
        <time>2021-01-16T13:15:00Z</time>
      </trkpt>
      <trkpt lat="45.05661" lon="5.6776">
        <ele>309.2</ele>
        <time>2021-01-16T13:15:01Z</time>
      </trkpt>
      <trkpt lat="45.05659" lon="5.67757">
        <ele>309</ele>
        <time>2021-01-16T13:15:02Z</time>
      </trkpt>
      <trkpt lat="45.05657" lon="5.67754">
        <ele>309.4</ele>
        <time>2021-01-16T13:15:03Z</time>
      </trkpt>
      <trkpt lat="45.05656" lon="5.67751">
        <ele>309.2</ele>
        <time>2021-01-16T13:15:04Z</time>
      </trkpt>
      <trkpt lat="45.05654" lon="5.67747">
        <ele>309.6</ele>
        <time>2021-01-16T13:15:05Z</time>
      </trkpt>
      <trkpt lat="45.05652" lon="5.67744">
        <ele>309.4</ele>
        <time>2021-01-16T13:15:06Z</time>
      </trkpt>
      <trkpt lat="45.05651" lon="5.67741">
        <ele>309.8</ele>
        <time>2021-01-16T13:15:07Z</time>
      </trkpt>
      <trkpt lat="45.0565" lon="5.67737">
        <ele>309.6</ele>
        <time>2021-01-16T13:15:08Z</time>
      </trkpt>
      <trkpt lat="45.05649" lon="5.67734">
        <ele>309.8</ele>
        <time>2021-01-16T13:15:09Z</time>
      </trkpt>
      <trkpt lat="45.05648" lon="5.67731">
        <ele>309.6</ele>
        <time>2021-01-16T13:15:10Z</time>
      </trkpt>
      <trkpt lat="45.05648" lon="5.67731">
        <ele>309.8</ele>
        <time>2021-01-16T13:15:11Z</time>
      </trkpt>
      <trkpt lat="45.05647" lon="5.67728">
        <ele>309.8</ele>
        <time>2021-01-16T13:15:12Z</time>
      </trkpt>
      <trkpt lat="45.05646" lon="5.67726">
        <ele>309.8</ele>
        <time>2021-01-16T13:15:13Z</time>
      </trkpt>
      <trkpt lat="45.05645" lon="5.67723">
        <ele>309.8</ele>
        <time>2021-01-16T13:15:14Z</time>
      </trkpt>
      <trkpt lat="45.05644" lon="5.67718">
        <ele>310</ele>
        <time>2021-01-16T13:15:15Z</time>
      </trkpt>
      <trkpt lat="45.05643" lon="5.67717">
        <ele>310</ele>
        <time>2021-01-16T13:15:16Z</time>
      </trkpt>
      <trkpt lat="45.05642" lon="5.67714">
        <ele>310.2</ele>
        <time>2021-01-16T13:15:17Z</time>
      </trkpt>
      <trkpt lat="45.05641" lon="5.67711">
        <ele>310</ele>
        <time>2021-01-16T13:15:18Z</time>
      </trkpt>
      <trkpt lat="45.0564" lon="5.67708">
        <ele>310.2</ele>
        <time>2021-01-16T13:15:19Z</time>
      </trkpt>
      <trkpt lat="45.05639" lon="5.67704">
        <ele>310</ele>
        <time>2021-01-16T13:15:20Z</time>
      </trkpt>
      <trkpt lat="45.05638" lon="5.67701">
        <ele>310.4</ele>
        <time>2021-01-16T13:15:21Z</time>
      </trkpt>
      <trkpt lat="45.05636" lon="5.67697">
        <ele>310.2</ele>
        <time>2021-01-16T13:15:22Z</time>
      </trkpt>
      <trkpt lat="45.05635" lon="5.67693">
        <ele>310.2</ele>
        <time>2021-01-16T13:15:23Z</time>
      </trkpt>
      <trkpt lat="45.05634" lon="5.6769">
        <ele>310.2</ele>
        <time>2021-01-16T13:15:24Z</time>
      </trkpt>
      <trkpt lat="45.05632" lon="5.67686">
        <ele>310.2</ele>
        <time>2021-01-16T13:15:25Z</time>
      </trkpt>
      <trkpt lat="45.05631" lon="5.67682">
        <ele>310</ele>
        <time>2021-01-16T13:15:26Z</time>
      </trkpt>
      <trkpt lat="45.0563" lon="5.67678">
        <ele>310</ele>
        <time>2021-01-16T13:15:27Z</time>
      </trkpt>
      <trkpt lat="45.05629" lon="5.67675">
        <ele>310</ele>
        <time>2021-01-16T13:15:28Z</time>
      </trkpt>
      <trkpt lat="45.05629" lon="5.67675">
        <ele>310</ele>
        <time>2021-01-16T13:15:29Z</time>
      </trkpt>
      <trkpt lat="45.05629" lon="5.67672">
        <ele>310</ele>
        <time>2021-01-16T13:15:30Z</time>
      </trkpt>
      <trkpt lat="45.05629" lon="5.67672">
        <ele>310</ele>
        <time>2021-01-16T13:15:31Z</time>
      </trkpt>
      <trkpt lat="45.05629" lon="5.67672">
        <ele>310</ele>
        <time>2021-01-16T13:15:32Z</time>
      </trkpt>
      <trkpt lat="45.05629" lon="5.6767">
        <ele>310</ele>
        <time>2021-01-16T13:15:33Z</time>
      </trkpt>
      <trkpt lat="45.05629" lon="5.6767">
        <ele>310</ele>
        <time>2021-01-16T13:15:34Z</time>
      </trkpt>
      <trkpt lat="45.0563" lon="5.67667">
        <ele>310</ele>
        <time>2021-01-16T13:15:35Z</time>
      </trkpt>
      <trkpt lat="45.0563" lon="5.67664">
        <ele>310</ele>
        <time>2021-01-16T13:15:36Z</time>
      </trkpt>
      <trkpt lat="45.05631" lon="5.67661">
        <ele>310</ele>
        <time>2021-01-16T13:15:37Z</time>
      </trkpt>
      <trkpt lat="45.05631" lon="5.67658">
        <ele>310</ele>
        <time>2021-01-16T13:15:38Z</time>
      </trkpt>
      <trkpt lat="45.05631" lon="5.67654">
        <ele>310</ele>
        <time>2021-01-16T13:15:39Z</time>
      </trkpt>
      <trkpt lat="45.05631" lon="5.67651">
        <ele>310.2</ele>
        <time>2021-01-16T13:15:40Z</time>
      </trkpt>
      <trkpt lat="45.05631" lon="5.67647">
        <ele>310.2</ele>
        <time>2021-01-16T13:15:41Z</time>
      </trkpt>
      <trkpt lat="45.05631" lon="5.67643">
        <ele>310.2</ele>
        <time>2021-01-16T13:15:42Z</time>
      </trkpt>
      <trkpt lat="45.0563" lon="5.6764">
        <ele>309.8</ele>
        <time>2021-01-16T13:15:43Z</time>
      </trkpt>
      <trkpt lat="45.0563" lon="5.67636">
        <ele>310</ele>
        <time>2021-01-16T13:15:44Z</time>
      </trkpt>
      <trkpt lat="45.0563" lon="5.67632">
        <ele>309.6</ele>
        <time>2021-01-16T13:15:45Z</time>
      </trkpt>
      <trkpt lat="45.0563" lon="5.67628">
        <ele>309.4</ele>
        <time>2021-01-16T13:15:46Z</time>
      </trkpt>
      <trkpt lat="45.0563" lon="5.67624">
        <ele>309.2</ele>
        <time>2021-01-16T13:15:47Z</time>
      </trkpt>
      <trkpt lat="45.0563" lon="5.6762">
        <ele>309.2</ele>
        <time>2021-01-16T13:15:48Z</time>
      </trkpt>
      <trkpt lat="45.0563" lon="5.67616">
        <ele>309.2</ele>
        <time>2021-01-16T13:15:49Z</time>
      </trkpt>
      <trkpt lat="45.0563" lon="5.67612">
        <ele>309.2</ele>
        <time>2021-01-16T13:15:50Z</time>
      </trkpt>
      <trkpt lat="45.0563" lon="5.67609">
        <ele>309.6</ele>
        <time>2021-01-16T13:15:51Z</time>
      </trkpt>
      <trkpt lat="45.0563" lon="5.67605">
        <ele>309.6</ele>
        <time>2021-01-16T13:15:52Z</time>
      </trkpt>
      <trkpt lat="45.0563" lon="5.67601">
        <ele>310.2</ele>
        <time>2021-01-16T13:15:53Z</time>
      </trkpt>
      <trkpt lat="45.0563" lon="5.67597">
        <ele>310.2</ele>
        <time>2021-01-16T13:15:54Z</time>
      </trkpt>
      <trkpt lat="45.0563" lon="5.67593">
        <ele>310.6</ele>
        <time>2021-01-16T13:15:55Z</time>
      </trkpt>
      <trkpt lat="45.0563" lon="5.67589">
        <ele>310.4</ele>
        <time>2021-01-16T13:15:56Z</time>
      </trkpt>
      <trkpt lat="45.0563" lon="5.67585">
        <ele>310.4</ele>
        <time>2021-01-16T13:15:57Z</time>
      </trkpt>
      <trkpt lat="45.05629" lon="5.67582">
        <ele>310</ele>
        <time>2021-01-16T13:15:58Z</time>
      </trkpt>
      <trkpt lat="45.05629" lon="5.67578">
        <ele>310</ele>
        <time>2021-01-16T13:15:59Z</time>
      </trkpt>
      <trkpt lat="45.05629" lon="5.67574">
        <ele>309.6</ele>
        <time>2021-01-16T13:16:00Z</time>
      </trkpt>
      <trkpt lat="45.05629" lon="5.6757">
        <ele>309.6</ele>
        <time>2021-01-16T13:16:01Z</time>
      </trkpt>
      <trkpt lat="45.05629" lon="5.67565">
        <ele>309.8</ele>
        <time>2021-01-16T13:16:02Z</time>
      </trkpt>
      <trkpt lat="45.05629" lon="5.6756">
        <ele>309.8</ele>
        <time>2021-01-16T13:16:03Z</time>
      </trkpt>
      <trkpt lat="45.05629" lon="5.67557">
        <ele>310</ele>
        <time>2021-01-16T13:16:04Z</time>
      </trkpt>
      <trkpt lat="45.05628" lon="5.67553">
        <ele>310</ele>
        <time>2021-01-16T13:16:05Z</time>
      </trkpt>
      <trkpt lat="45.05628" lon="5.67549">
        <ele>310.2</ele>
        <time>2021-01-16T13:16:06Z</time>
      </trkpt>
      <trkpt lat="45.05627" lon="5.67545">
        <ele>310.2</ele>
        <time>2021-01-16T13:16:07Z</time>
      </trkpt>
      <trkpt lat="45.05627" lon="5.67541">
        <ele>310.6</ele>
        <time>2021-01-16T13:16:08Z</time>
      </trkpt>
      <trkpt lat="45.05627" lon="5.67537">
        <ele>310.4</ele>
        <time>2021-01-16T13:16:09Z</time>
      </trkpt>
      <trkpt lat="45.05627" lon="5.67533">
        <ele>310.6</ele>
        <time>2021-01-16T13:16:10Z</time>
      </trkpt>
      <trkpt lat="45.05627" lon="5.67529">
        <ele>310.4</ele>
        <time>2021-01-16T13:16:11Z</time>
      </trkpt>
      <trkpt lat="45.05627" lon="5.67524">
        <ele>310.4</ele>
        <time>2021-01-16T13:16:12Z</time>
      </trkpt>
      <trkpt lat="45.05627" lon="5.6752">
        <ele>310.2</ele>
        <time>2021-01-16T13:16:13Z</time>
      </trkpt>
      <trkpt lat="45.05626" lon="5.67516">
        <ele>310.2</ele>
        <time>2021-01-16T13:16:14Z</time>
      </trkpt>
      <trkpt lat="45.05627" lon="5.67511">
        <ele>309.8</ele>
        <time>2021-01-16T13:16:15Z</time>
      </trkpt>
      <trkpt lat="45.05626" lon="5.67508">
        <ele>309.8</ele>
        <time>2021-01-16T13:16:16Z</time>
      </trkpt>
      <trkpt lat="45.05626" lon="5.67503">
        <ele>309.6</ele>
        <time>2021-01-16T13:16:17Z</time>
      </trkpt>
      <trkpt lat="45.05626" lon="5.67499">
        <ele>309.4</ele>
        <time>2021-01-16T13:16:18Z</time>
      </trkpt>
      <trkpt lat="45.05625" lon="5.67494">
        <ele>309.8</ele>
        <time>2021-01-16T13:16:19Z</time>
      </trkpt>
      <trkpt lat="45.05625" lon="5.6749">
        <ele>309.8</ele>
        <time>2021-01-16T13:16:20Z</time>
      </trkpt>
      <trkpt lat="45.05625" lon="5.67486">
        <ele>310.2</ele>
        <time>2021-01-16T13:16:21Z</time>
      </trkpt>
      <trkpt lat="45.05625" lon="5.67482">
        <ele>310.2</ele>
        <time>2021-01-16T13:16:22Z</time>
      </trkpt>
      <trkpt lat="45.05625" lon="5.67478">
        <ele>310.2</ele>
        <time>2021-01-16T13:16:23Z</time>
      </trkpt>
      <trkpt lat="45.05625" lon="5.67474">
        <ele>310.4</ele>
        <time>2021-01-16T13:16:24Z</time>
      </trkpt>
      <trkpt lat="45.05625" lon="5.67471">
        <ele>310.6</ele>
        <time>2021-01-16T13:16:25Z</time>
      </trkpt>
      <trkpt lat="45.05625" lon="5.67467">
        <ele>310.6</ele>
        <time>2021-01-16T13:16:26Z</time>
      </trkpt>
      <trkpt lat="45.05625" lon="5.67463">
        <ele>311.2</ele>
        <time>2021-01-16T13:16:27Z</time>
      </trkpt>
      <trkpt lat="45.05625" lon="5.67459">
        <ele>310.6</ele>
        <time>2021-01-16T13:16:28Z</time>
      </trkpt>
      <trkpt lat="45.05625" lon="5.67454">
        <ele>310.6</ele>
        <time>2021-01-16T13:16:29Z</time>
      </trkpt>
      <trkpt lat="45.05624" lon="5.6745">
        <ele>310.2</ele>
        <time>2021-01-16T13:16:30Z</time>
      </trkpt>
      <trkpt lat="45.05624" lon="5.67442">
        <ele>310.2</ele>
        <time>2021-01-16T13:16:31Z</time>
      </trkpt>
      <trkpt lat="45.05624" lon="5.67442">
        <ele>310.2</ele>
        <time>2021-01-16T13:16:32Z</time>
      </trkpt>
      <trkpt lat="45.05622" lon="5.67438">
        <ele>310.2</ele>
        <time>2021-01-16T13:16:33Z</time>
      </trkpt>
      <trkpt lat="45.05621" lon="5.67434">
        <ele>310.2</ele>
        <time>2021-01-16T13:16:34Z</time>
      </trkpt>
      <trkpt lat="45.0562" lon="5.6743">
        <ele>310</ele>
        <time>2021-01-16T13:16:35Z</time>
      </trkpt>
      <trkpt lat="45.0562" lon="5.67426">
        <ele>310.2</ele>
        <time>2021-01-16T13:16:36Z</time>
      </trkpt>
      <trkpt lat="45.05618" lon="5.67419">
        <ele>310.2</ele>
        <time>2021-01-16T13:16:37Z</time>
      </trkpt>
      <trkpt lat="45.05618" lon="5.67419">
        <ele>310.4</ele>
        <time>2021-01-16T13:16:38Z</time>
      </trkpt>
      <trkpt lat="45.05618" lon="5.67415">
        <ele>310.4</ele>
        <time>2021-01-16T13:16:39Z</time>
      </trkpt>
      <trkpt lat="45.05617" lon="5.67412">
        <ele>310.6</ele>
        <time>2021-01-16T13:16:40Z</time>
      </trkpt>
      <trkpt lat="45.05617" lon="5.67408">
        <ele>310.8</ele>
        <time>2021-01-16T13:16:41Z</time>
      </trkpt>
      <trkpt lat="45.05616" lon="5.67405">
        <ele>311</ele>
        <time>2021-01-16T13:16:42Z</time>
      </trkpt>
      <trkpt lat="45.05615" lon="5.67401">
        <ele>310.8</ele>
        <time>2021-01-16T13:16:43Z</time>
      </trkpt>
      <trkpt lat="45.05614" lon="5.67399">
        <ele>311</ele>
        <time>2021-01-16T13:16:44Z</time>
      </trkpt>
      <trkpt lat="45.05613" lon="5.67396">
        <ele>311</ele>
        <time>2021-01-16T13:16:45Z</time>
      </trkpt>
      <trkpt lat="45.0561" lon="5.67393">
        <ele>311.2</ele>
        <time>2021-01-16T13:16:46Z</time>
      </trkpt>
      <trkpt lat="45.05609" lon="5.67391">
        <ele>311</ele>
        <time>2021-01-16T13:16:47Z</time>
      </trkpt>
      <trkpt lat="45.05608" lon="5.67389">
        <ele>311</ele>
        <time>2021-01-16T13:16:48Z</time>
      </trkpt>
      <trkpt lat="45.05606" lon="5.67386">
        <ele>310.8</ele>
        <time>2021-01-16T13:16:49Z</time>
      </trkpt>
      <trkpt lat="45.05605" lon="5.67383">
        <ele>310.8</ele>
        <time>2021-01-16T13:16:50Z</time>
      </trkpt>
      <trkpt lat="45.05602" lon="5.67381">
        <ele>310.6</ele>
        <time>2021-01-16T13:16:51Z</time>
      </trkpt>
      <trkpt lat="45.05601" lon="5.67378">
        <ele>310.4</ele>
        <time>2021-01-16T13:16:52Z</time>
      </trkpt>
      <trkpt lat="45.05597" lon="5.67374">
        <ele>310.2</ele>
        <time>2021-01-16T13:16:53Z</time>
      </trkpt>
      <trkpt lat="45.05597" lon="5.67374">
        <ele>310.2</ele>
        <time>2021-01-16T13:16:54Z</time>
      </trkpt>
      <trkpt lat="45.05595" lon="5.67371">
        <ele>310.2</ele>
        <time>2021-01-16T13:16:55Z</time>
      </trkpt>
      <trkpt lat="45.05593" lon="5.67369">
        <ele>310.2</ele>
        <time>2021-01-16T13:16:56Z</time>
      </trkpt>
      <trkpt lat="45.05591" lon="5.67366">
        <ele>310.2</ele>
        <time>2021-01-16T13:16:57Z</time>
      </trkpt>
      <trkpt lat="45.05589" lon="5.67364">
        <ele>310.4</ele>
        <time>2021-01-16T13:16:58Z</time>
      </trkpt>
      <trkpt lat="45.05587" lon="5.67361">
        <ele>310.6</ele>
        <time>2021-01-16T13:16:59Z</time>
      </trkpt>
      <trkpt lat="45.05584" lon="5.67359">
        <ele>310.8</ele>
        <time>2021-01-16T13:17:00Z</time>
      </trkpt>
      <trkpt lat="45.05582" lon="5.67356">
        <ele>311.2</ele>
        <time>2021-01-16T13:17:01Z</time>
      </trkpt>
      <trkpt lat="45.0558" lon="5.67353">
        <ele>311.2</ele>
        <time>2021-01-16T13:17:02Z</time>
      </trkpt>
      <trkpt lat="45.05578" lon="5.6735">
        <ele>311.4</ele>
        <time>2021-01-16T13:17:03Z</time>
      </trkpt>
      <trkpt lat="45.05577" lon="5.67347">
        <ele>311.6</ele>
        <time>2021-01-16T13:17:04Z</time>
      </trkpt>
      <trkpt lat="45.05573" lon="5.6734">
        <ele>311.6</ele>
        <time>2021-01-16T13:17:05Z</time>
      </trkpt>
      <trkpt lat="45.05573" lon="5.6734">
        <ele>311.6</ele>
        <time>2021-01-16T13:17:06Z</time>
      </trkpt>
      <trkpt lat="45.0557" lon="5.67337">
        <ele>311.6</ele>
        <time>2021-01-16T13:17:07Z</time>
      </trkpt>
      <trkpt lat="45.05567" lon="5.67334">
        <ele>311.6</ele>
        <time>2021-01-16T13:17:08Z</time>
      </trkpt>
      <trkpt lat="45.05564" lon="5.67331">
        <ele>311.6</ele>
        <time>2021-01-16T13:17:09Z</time>
      </trkpt>
      <trkpt lat="45.05561" lon="5.67328">
        <ele>311.2</ele>
        <time>2021-01-16T13:17:10Z</time>
      </trkpt>
      <trkpt lat="45.05559" lon="5.67326">
        <ele>311.2</ele>
        <time>2021-01-16T13:17:11Z</time>
      </trkpt>
      <trkpt lat="45.05558" lon="5.67323">
        <ele>310.8</ele>
        <time>2021-01-16T13:17:12Z</time>
      </trkpt>
      <trkpt lat="45.05557" lon="5.6732">
        <ele>310.6</ele>
        <time>2021-01-16T13:17:13Z</time>
      </trkpt>
      <trkpt lat="45.05556" lon="5.67313">
        <ele>310.6</ele>
        <time>2021-01-16T13:17:14Z</time>
      </trkpt>
      <trkpt lat="45.05556" lon="5.67309">
        <ele>310.4</ele>
        <time>2021-01-16T13:17:15Z</time>
      </trkpt>
      <trkpt lat="45.05555" lon="5.67306">
        <ele>310.6</ele>
        <time>2021-01-16T13:17:16Z</time>
      </trkpt>
      <trkpt lat="45.05555" lon="5.67306">
        <ele>310.6</ele>
        <time>2021-01-16T13:17:17Z</time>
      </trkpt>
      <trkpt lat="45.05555" lon="5.67302">
        <ele>311</ele>
        <time>2021-01-16T13:17:18Z</time>
      </trkpt>
      <trkpt lat="45.05554" lon="5.67299">
        <ele>311</ele>
        <time>2021-01-16T13:17:19Z</time>
      </trkpt>
      <trkpt lat="45.05554" lon="5.67295">
        <ele>311.4</ele>
        <time>2021-01-16T13:17:20Z</time>
      </trkpt>
      <trkpt lat="45.05555" lon="5.67291">
        <ele>311.4</ele>
        <time>2021-01-16T13:17:21Z</time>
      </trkpt>
      <trkpt lat="45.05555" lon="5.67287">
        <ele>311.8</ele>
        <time>2021-01-16T13:17:22Z</time>
      </trkpt>
      <trkpt lat="45.05556" lon="5.67281">
        <ele>311.6</ele>
        <time>2021-01-16T13:17:23Z</time>
      </trkpt>
      <trkpt lat="45.05556" lon="5.67281">
        <ele>311.6</ele>
        <time>2021-01-16T13:17:24Z</time>
      </trkpt>
      <trkpt lat="45.05558" lon="5.67278">
        <ele>311.4</ele>
        <time>2021-01-16T13:17:25Z</time>
      </trkpt>
      <trkpt lat="45.05559" lon="5.67275">
        <ele>311.6</ele>
        <time>2021-01-16T13:17:26Z</time>
      </trkpt>
      <trkpt lat="45.0556" lon="5.67271">
        <ele>311.6</ele>
        <time>2021-01-16T13:17:27Z</time>
      </trkpt>
      <trkpt lat="45.05561" lon="5.67268">
        <ele>311.6</ele>
        <time>2021-01-16T13:17:28Z</time>
      </trkpt>
      <trkpt lat="45.05562" lon="5.67262">
        <ele>311.4</ele>
        <time>2021-01-16T13:17:29Z</time>
      </trkpt>
      <trkpt lat="45.05563" lon="5.67258">
        <ele>311.4</ele>
        <time>2021-01-16T13:17:30Z</time>
      </trkpt>
      <trkpt lat="45.05564" lon="5.67255">
        <ele>311</ele>
        <time>2021-01-16T13:17:31Z</time>
      </trkpt>
      <trkpt lat="45.05564" lon="5.67255">
        <ele>311</ele>
        <time>2021-01-16T13:17:32Z</time>
      </trkpt>
      <trkpt lat="45.05565" lon="5.67251">
        <ele>311</ele>
        <time>2021-01-16T13:17:33Z</time>
      </trkpt>
      <trkpt lat="45.05566" lon="5.67248">
        <ele>310.8</ele>
        <time>2021-01-16T13:17:34Z</time>
      </trkpt>
      <trkpt lat="45.05568" lon="5.67244">
        <ele>311</ele>
        <time>2021-01-16T13:17:35Z</time>
      </trkpt>
      <trkpt lat="45.05569" lon="5.67239">
        <ele>311</ele>
        <time>2021-01-16T13:17:36Z</time>
      </trkpt>
      <trkpt lat="45.05571" lon="5.67234">
        <ele>311.2</ele>
        <time>2021-01-16T13:17:37Z</time>
      </trkpt>
      <trkpt lat="45.05574" lon="5.67223">
        <ele>311.4</ele>
        <time>2021-01-16T13:17:38Z</time>
      </trkpt>
      <trkpt lat="45.05575" lon="5.6722">
        <ele>311.4</ele>
        <time>2021-01-16T13:17:39Z</time>
      </trkpt>
      <trkpt lat="45.05577" lon="5.67212">
        <ele>311.6</ele>
        <time>2021-01-16T13:17:40Z</time>
      </trkpt>
      <trkpt lat="45.05578" lon="5.67209">
        <ele>311.6</ele>
        <time>2021-01-16T13:17:41Z</time>
      </trkpt>
      <trkpt lat="45.0558" lon="5.67207">
        <ele>311.8</ele>
        <time>2021-01-16T13:17:42Z</time>
      </trkpt>
      <trkpt lat="45.05582" lon="5.67202">
        <ele>312</ele>
        <time>2021-01-16T13:17:43Z</time>
      </trkpt>
      <trkpt lat="45.05583" lon="5.67201">
        <ele>312.2</ele>
        <time>2021-01-16T13:17:44Z</time>
      </trkpt>
      <trkpt lat="45.05586" lon="5.67199">
        <ele>312.4</ele>
        <time>2021-01-16T13:17:45Z</time>
      </trkpt>
      <trkpt lat="45.05588" lon="5.67197">
        <ele>312.2</ele>
        <time>2021-01-16T13:17:46Z</time>
      </trkpt>
      <trkpt lat="45.05591" lon="5.67197">
        <ele>312.2</ele>
        <time>2021-01-16T13:17:47Z</time>
      </trkpt>
      <trkpt lat="45.05594" lon="5.67197">
        <ele>311.8</ele>
        <time>2021-01-16T13:17:48Z</time>
      </trkpt>
      <trkpt lat="45.05597" lon="5.67197">
        <ele>311.8</ele>
        <time>2021-01-16T13:17:49Z</time>
      </trkpt>
      <trkpt lat="45.056" lon="5.67196">
        <ele>311.6</ele>
        <time>2021-01-16T13:17:50Z</time>
      </trkpt>
      <trkpt lat="45.05602" lon="5.67196">
        <ele>311.4</ele>
        <time>2021-01-16T13:17:51Z</time>
      </trkpt>
      <trkpt lat="45.05606" lon="5.67195">
        <ele>311.6</ele>
        <time>2021-01-16T13:17:52Z</time>
      </trkpt>
      <trkpt lat="45.05608" lon="5.67194">
        <ele>311.6</ele>
        <time>2021-01-16T13:17:53Z</time>
      </trkpt>
      <trkpt lat="45.05611" lon="5.67193">
        <ele>312</ele>
        <time>2021-01-16T13:17:54Z</time>
      </trkpt>
      <trkpt lat="45.05613" lon="5.67191">
        <ele>311.8</ele>
        <time>2021-01-16T13:17:55Z</time>
      </trkpt>
      <trkpt lat="45.05614" lon="5.67188">
        <ele>312.2</ele>
        <time>2021-01-16T13:17:56Z</time>
      </trkpt>
      <trkpt lat="45.05614" lon="5.67188">
        <ele>312.4</ele>
        <time>2021-01-16T13:17:57Z</time>
      </trkpt>
      <trkpt lat="45.05614" lon="5.67188">
        <ele>312.8</ele>
        <time>2021-01-16T13:17:58Z</time>
      </trkpt>
      <trkpt lat="45.05615" lon="5.67185">
        <ele>312.6</ele>
        <time>2021-01-16T13:17:59Z</time>
      </trkpt>
      <trkpt lat="45.05617" lon="5.67181">
        <ele>312.6</ele>
        <time>2021-01-16T13:18:00Z</time>
      </trkpt>
      <trkpt lat="45.05618" lon="5.67177">
        <ele>312.6</ele>
        <time>2021-01-16T13:18:01Z</time>
      </trkpt>
      <trkpt lat="45.05619" lon="5.67173">
        <ele>312.4</ele>
        <time>2021-01-16T13:18:02Z</time>
      </trkpt>
      <trkpt lat="45.0562" lon="5.67167">
        <ele>312.6</ele>
        <time>2021-01-16T13:18:03Z</time>
      </trkpt>
      <trkpt lat="45.05621" lon="5.67162">
        <ele>312.8</ele>
        <time>2021-01-16T13:18:04Z</time>
      </trkpt>
      <trkpt lat="45.05623" lon="5.67156">
        <ele>312.8</ele>
        <time>2021-01-16T13:18:05Z</time>
      </trkpt>
      <trkpt lat="45.05624" lon="5.6715">
        <ele>312.8</ele>
        <time>2021-01-16T13:18:06Z</time>
      </trkpt>
      <trkpt lat="45.05623" lon="5.67142">
        <ele>313</ele>
        <time>2021-01-16T13:18:07Z</time>
      </trkpt>
      <trkpt lat="45.05623" lon="5.67142">
        <ele>312.8</ele>
        <time>2021-01-16T13:18:08Z</time>
      </trkpt>
      <trkpt lat="45.05623" lon="5.67142">
        <ele>312.8</ele>
        <time>2021-01-16T13:18:09Z</time>
      </trkpt>
      <trkpt lat="45.05622" lon="5.67138">
        <ele>312.4</ele>
        <time>2021-01-16T13:18:10Z</time>
      </trkpt>
      <trkpt lat="45.0562" lon="5.67134">
        <ele>312.6</ele>
        <time>2021-01-16T13:18:11Z</time>
      </trkpt>
      <trkpt lat="45.05619" lon="5.67129">
        <ele>312.4</ele>
        <time>2021-01-16T13:18:12Z</time>
      </trkpt>
      <trkpt lat="45.05617" lon="5.67125">
        <ele>312.8</ele>
        <time>2021-01-16T13:18:13Z</time>
      </trkpt>
      <trkpt lat="45.05616" lon="5.67123">
        <ele>312.6</ele>
        <time>2021-01-16T13:18:14Z</time>
      </trkpt>
      <trkpt lat="45.05614" lon="5.6712">
        <ele>312.8</ele>
        <time>2021-01-16T13:18:15Z</time>
      </trkpt>
      <trkpt lat="45.05613" lon="5.67118">
        <ele>312.6</ele>
        <time>2021-01-16T13:18:16Z</time>
      </trkpt>
      <trkpt lat="45.05612" lon="5.67117">
        <ele>312.6</ele>
        <time>2021-01-16T13:18:17Z</time>
      </trkpt>
      <trkpt lat="45.05614" lon="5.67114">
        <ele>312.6</ele>
        <time>2021-01-16T13:18:18Z</time>
      </trkpt>
      <trkpt lat="45.05614" lon="5.67111">
        <ele>312.6</ele>
        <time>2021-01-16T13:18:19Z</time>
      </trkpt>
      <trkpt lat="45.05615" lon="5.67107">
        <ele>312</ele>
        <time>2021-01-16T13:18:20Z</time>
      </trkpt>
      <trkpt lat="45.05616" lon="5.67104">
        <ele>312</ele>
        <time>2021-01-16T13:18:21Z</time>
      </trkpt>
      <trkpt lat="45.05615" lon="5.67102">
        <ele>312</ele>
        <time>2021-01-16T13:18:22Z</time>
      </trkpt>
      <trkpt lat="45.05615" lon="5.671">
        <ele>311.8</ele>
        <time>2021-01-16T13:18:23Z</time>
      </trkpt>
      <trkpt lat="45.05614" lon="5.67097">
        <ele>312.2</ele>
        <time>2021-01-16T13:18:24Z</time>
      </trkpt>
      <trkpt lat="45.05612" lon="5.67089">
        <ele>312.2</ele>
        <time>2021-01-16T13:18:25Z</time>
      </trkpt>
      <trkpt lat="45.05612" lon="5.67089">
        <ele>312.6</ele>
        <time>2021-01-16T13:18:26Z</time>
      </trkpt>
      <trkpt lat="45.0561" lon="5.67085">
        <ele>312.6</ele>
        <time>2021-01-16T13:18:27Z</time>
      </trkpt>
      <trkpt lat="45.05608" lon="5.67082">
        <ele>313.2</ele>
        <time>2021-01-16T13:18:28Z</time>
      </trkpt>
      <trkpt lat="45.05607" lon="5.67078">
        <ele>313.2</ele>
        <time>2021-01-16T13:18:29Z</time>
      </trkpt>
      <trkpt lat="45.05606" lon="5.67075">
        <ele>313.4</ele>
        <time>2021-01-16T13:18:30Z</time>
      </trkpt>
      <trkpt lat="45.05605" lon="5.67072">
        <ele>313.2</ele>
        <time>2021-01-16T13:18:31Z</time>
      </trkpt>
      <trkpt lat="45.05601" lon="5.67066">
        <ele>313.6</ele>
        <time>2021-01-16T13:18:32Z</time>
      </trkpt>
      <trkpt lat="45.05601" lon="5.67066">
        <ele>313.4</ele>
        <time>2021-01-16T13:18:33Z</time>
      </trkpt>
      <trkpt lat="45.056" lon="5.67063">
        <ele>313.6</ele>
        <time>2021-01-16T13:18:34Z</time>
      </trkpt>
      <trkpt lat="45.05599" lon="5.6706">
        <ele>313.4</ele>
        <time>2021-01-16T13:18:35Z</time>
      </trkpt>
      <trkpt lat="45.05597" lon="5.67057">
        <ele>313.4</ele>
        <time>2021-01-16T13:18:36Z</time>
      </trkpt>
      <trkpt lat="45.05595" lon="5.67055">
        <ele>313</ele>
        <time>2021-01-16T13:18:37Z</time>
      </trkpt>
      <trkpt lat="45.05593" lon="5.67052">
        <ele>312.8</ele>
        <time>2021-01-16T13:18:38Z</time>
      </trkpt>
      <trkpt lat="45.05591" lon="5.67051">
        <ele>312.8</ele>
        <time>2021-01-16T13:18:39Z</time>
      </trkpt>
      <trkpt lat="45.05589" lon="5.67049">
        <ele>312.6</ele>
        <time>2021-01-16T13:18:40Z</time>
      </trkpt>
      <trkpt lat="45.05587" lon="5.67048">
        <ele>312.8</ele>
        <time>2021-01-16T13:18:41Z</time>
      </trkpt>
      <trkpt lat="45.05582" lon="5.67043">
        <ele>312.8</ele>
        <time>2021-01-16T13:18:42Z</time>
      </trkpt>
      <trkpt lat="45.05579" lon="5.67042">
        <ele>313</ele>
        <time>2021-01-16T13:18:43Z</time>
      </trkpt>
      <trkpt lat="45.05573" lon="5.6704">
        <ele>312.8</ele>
        <time>2021-01-16T13:18:44Z</time>
      </trkpt>
      <trkpt lat="45.05571" lon="5.6704">
        <ele>312.8</ele>
        <time>2021-01-16T13:18:45Z</time>
      </trkpt>
      <trkpt lat="45.05569" lon="5.67037">
        <ele>312.8</ele>
        <time>2021-01-16T13:18:46Z</time>
      </trkpt>
      <trkpt lat="45.05568" lon="5.67035">
        <ele>313.2</ele>
        <time>2021-01-16T13:18:47Z</time>
      </trkpt>
      <trkpt lat="45.05566" lon="5.67032">
        <ele>313.2</ele>
        <time>2021-01-16T13:18:48Z</time>
      </trkpt>
      <trkpt lat="45.05566" lon="5.67023">
        <ele>313.6</ele>
        <time>2021-01-16T13:18:49Z</time>
      </trkpt>
      <trkpt lat="45.05566" lon="5.67023">
        <ele>313.6</ele>
        <time>2021-01-16T13:18:50Z</time>
      </trkpt>
      <trkpt lat="45.05566" lon="5.67019">
        <ele>314</ele>
        <time>2021-01-16T13:18:51Z</time>
      </trkpt>
      <trkpt lat="45.05566" lon="5.67014">
        <ele>314</ele>
        <time>2021-01-16T13:18:52Z</time>
      </trkpt>
      <trkpt lat="45.05567" lon="5.6701">
        <ele>314.4</ele>
        <time>2021-01-16T13:18:53Z</time>
      </trkpt>
      <trkpt lat="45.05567" lon="5.67006">
        <ele>314.2</ele>
        <time>2021-01-16T13:18:54Z</time>
      </trkpt>
      <trkpt lat="45.05569" lon="5.66998">
        <ele>314.4</ele>
        <time>2021-01-16T13:18:55Z</time>
      </trkpt>
      <trkpt lat="45.05569" lon="5.66998">
        <ele>314.2</ele>
        <time>2021-01-16T13:18:56Z</time>
      </trkpt>
      <trkpt lat="45.0557" lon="5.66995">
        <ele>314.2</ele>
        <time>2021-01-16T13:18:57Z</time>
      </trkpt>
      <trkpt lat="45.05571" lon="5.66991">
        <ele>314</ele>
        <time>2021-01-16T13:18:58Z</time>
      </trkpt>
      <trkpt lat="45.05572" lon="5.66988">
        <ele>314</ele>
        <time>2021-01-16T13:18:59Z</time>
      </trkpt>
      <trkpt lat="45.05573" lon="5.66985">
        <ele>313.6</ele>
        <time>2021-01-16T13:19:00Z</time>
      </trkpt>
      <trkpt lat="45.05574" lon="5.66977">
        <ele>313.4</ele>
        <time>2021-01-16T13:19:01Z</time>
      </trkpt>
      <trkpt lat="45.05574" lon="5.66977">
        <ele>313.6</ele>
        <time>2021-01-16T13:19:02Z</time>
      </trkpt>
      <trkpt lat="45.05575" lon="5.66974">
        <ele>313.6</ele>
        <time>2021-01-16T13:19:03Z</time>
      </trkpt>
      <trkpt lat="45.05576" lon="5.6697">
        <ele>313.8</ele>
        <time>2021-01-16T13:19:04Z</time>
      </trkpt>
      <trkpt lat="45.05578" lon="5.66963">
        <ele>313.8</ele>
        <time>2021-01-16T13:19:05Z</time>
      </trkpt>
      <trkpt lat="45.0558" lon="5.66961">
        <ele>314</ele>
        <time>2021-01-16T13:19:06Z</time>
      </trkpt>
      <trkpt lat="45.05581" lon="5.66958">
        <ele>313.8</ele>
        <time>2021-01-16T13:19:07Z</time>
      </trkpt>
      <trkpt lat="45.05582" lon="5.66957">
        <ele>314</ele>
        <time>2021-01-16T13:19:08Z</time>
      </trkpt>
      <trkpt lat="45.05583" lon="5.66954">
        <ele>314</ele>
        <time>2021-01-16T13:19:09Z</time>
      </trkpt>
      <trkpt lat="45.05587" lon="5.66947">
        <ele>314.2</ele>
        <time>2021-01-16T13:19:10Z</time>
      </trkpt>
      <trkpt lat="45.05587" lon="5.66947">
        <ele>314.2</ele>
        <time>2021-01-16T13:19:11Z</time>
      </trkpt>
      <trkpt lat="45.05588" lon="5.66944">
        <ele>314.6</ele>
        <time>2021-01-16T13:19:12Z</time>
      </trkpt>
      <trkpt lat="45.05591" lon="5.66938">
        <ele>314.6</ele>
        <time>2021-01-16T13:19:13Z</time>
      </trkpt>
      <trkpt lat="45.05591" lon="5.66938">
        <ele>315</ele>
        <time>2021-01-16T13:19:14Z</time>
      </trkpt>
      <trkpt lat="45.05592" lon="5.66935">
        <ele>315</ele>
        <time>2021-01-16T13:19:15Z</time>
      </trkpt>
      <trkpt lat="45.05593" lon="5.66933">
        <ele>315.4</ele>
        <time>2021-01-16T13:19:16Z</time>
      </trkpt>
      <trkpt lat="45.05594" lon="5.66931">
        <ele>315.2</ele>
        <time>2021-01-16T13:19:17Z</time>
      </trkpt>
      <trkpt lat="45.05596" lon="5.66928">
        <ele>315.4</ele>
        <time>2021-01-16T13:19:18Z</time>
      </trkpt>
      <trkpt lat="45.05597" lon="5.66926">
        <ele>315.2</ele>
        <time>2021-01-16T13:19:19Z</time>
      </trkpt>
      <trkpt lat="45.05598" lon="5.66923">
        <ele>315.2</ele>
        <time>2021-01-16T13:19:20Z</time>
      </trkpt>
      <trkpt lat="45.05598" lon="5.6692">
        <ele>314.8</ele>
        <time>2021-01-16T13:19:21Z</time>
      </trkpt>
      <trkpt lat="45.05599" lon="5.66916">
        <ele>315</ele>
        <time>2021-01-16T13:19:22Z</time>
      </trkpt>
      <trkpt lat="45.056" lon="5.66913">
        <ele>314.8</ele>
        <time>2021-01-16T13:19:23Z</time>
      </trkpt>
      <trkpt lat="45.056" lon="5.66909">
        <ele>314.8</ele>
        <time>2021-01-16T13:19:24Z</time>
      </trkpt>
      <trkpt lat="45.05603" lon="5.66902">
        <ele>314.8</ele>
        <time>2021-01-16T13:19:25Z</time>
      </trkpt>
      <trkpt lat="45.05603" lon="5.66902">
        <ele>314.8</ele>
        <time>2021-01-16T13:19:26Z</time>
      </trkpt>
      <trkpt lat="45.05603" lon="5.66899">
        <ele>314.8</ele>
        <time>2021-01-16T13:19:27Z</time>
      </trkpt>
      <trkpt lat="45.05605" lon="5.66891">
        <ele>315</ele>
        <time>2021-01-16T13:19:28Z</time>
      </trkpt>
      <trkpt lat="45.05605" lon="5.66891">
        <ele>315</ele>
        <time>2021-01-16T13:19:29Z</time>
      </trkpt>
      <trkpt lat="45.05605" lon="5.66888">
        <ele>315</ele>
        <time>2021-01-16T13:19:30Z</time>
      </trkpt>
      <trkpt lat="45.05607" lon="5.66884">
        <ele>315.4</ele>
        <time>2021-01-16T13:19:31Z</time>
      </trkpt>
      <trkpt lat="45.05608" lon="5.66877">
        <ele>315.6</ele>
        <time>2021-01-16T13:19:32Z</time>
      </trkpt>
      <trkpt lat="45.05608" lon="5.66871">
        <ele>315.8</ele>
        <time>2021-01-16T13:19:33Z</time>
      </trkpt>
      <trkpt lat="45.05608" lon="5.66866">
        <ele>315.8</ele>
        <time>2021-01-16T13:19:34Z</time>
      </trkpt>
      <trkpt lat="45.05609" lon="5.6686">
        <ele>316</ele>
        <time>2021-01-16T13:19:35Z</time>
      </trkpt>
      <trkpt lat="45.05609" lon="5.66843">
        <ele>316</ele>
        <time>2021-01-16T13:19:36Z</time>
      </trkpt>
      <trkpt lat="45.05607" lon="5.6684">
        <ele>316.2</ele>
        <time>2021-01-16T13:19:37Z</time>
      </trkpt>
      <trkpt lat="45.05604" lon="5.66831">
        <ele>316.2</ele>
        <time>2021-01-16T13:19:38Z</time>
      </trkpt>
      <trkpt lat="45.05605" lon="5.66826">
        <ele>316.4</ele>
        <time>2021-01-16T13:19:39Z</time>
      </trkpt>
      <trkpt lat="45.05605" lon="5.66824">
        <ele>316.4</ele>
        <time>2021-01-16T13:19:40Z</time>
      </trkpt>
      <trkpt lat="45.05605" lon="5.66821">
        <ele>316.6</ele>
        <time>2021-01-16T13:19:41Z</time>
      </trkpt>
      <trkpt lat="45.05606" lon="5.66819">
        <ele>316.4</ele>
        <time>2021-01-16T13:19:42Z</time>
      </trkpt>
      <trkpt lat="45.05606" lon="5.66816">
        <ele>316.6</ele>
        <time>2021-01-16T13:19:43Z</time>
      </trkpt>
      <trkpt lat="45.05606" lon="5.66812">
        <ele>316.8</ele>
        <time>2021-01-16T13:19:44Z</time>
      </trkpt>
      <trkpt lat="45.05607" lon="5.66804">
        <ele>316.8</ele>
        <time>2021-01-16T13:19:45Z</time>
      </trkpt>
      <trkpt lat="45.05607" lon="5.668">
        <ele>316.6</ele>
        <time>2021-01-16T13:19:46Z</time>
      </trkpt>
      <trkpt lat="45.05607" lon="5.66796">
        <ele>316.6</ele>
        <time>2021-01-16T13:19:47Z</time>
      </trkpt>
      <trkpt lat="45.05607" lon="5.66796">
        <ele>316.8</ele>
        <time>2021-01-16T13:19:48Z</time>
      </trkpt>
      <trkpt lat="45.05607" lon="5.66792">
        <ele>316.6</ele>
        <time>2021-01-16T13:19:49Z</time>
      </trkpt>
      <trkpt lat="45.05607" lon="5.66789">
        <ele>316.8</ele>
        <time>2021-01-16T13:19:50Z</time>
      </trkpt>
      <trkpt lat="45.05607" lon="5.66785">
        <ele>316.8</ele>
        <time>2021-01-16T13:19:51Z</time>
      </trkpt>
      <trkpt lat="45.05606" lon="5.66781">
        <ele>317</ele>
        <time>2021-01-16T13:19:52Z</time>
      </trkpt>
      <trkpt lat="45.05606" lon="5.66773">
        <ele>317</ele>
        <time>2021-01-16T13:19:53Z</time>
      </trkpt>
      <trkpt lat="45.05606" lon="5.66773">
        <ele>317.2</ele>
        <time>2021-01-16T13:19:54Z</time>
      </trkpt>
      <trkpt lat="45.05606" lon="5.66769">
        <ele>317.2</ele>
        <time>2021-01-16T13:19:55Z</time>
      </trkpt>
      <trkpt lat="45.05606" lon="5.66765">
        <ele>317.4</ele>
        <time>2021-01-16T13:19:56Z</time>
      </trkpt>
      <trkpt lat="45.05607" lon="5.66757">
        <ele>317.2</ele>
        <time>2021-01-16T13:19:57Z</time>
      </trkpt>
      <trkpt lat="45.05607" lon="5.66757">
        <ele>317.4</ele>
        <time>2021-01-16T13:19:58Z</time>
      </trkpt>
      <trkpt lat="45.05608" lon="5.66754">
        <ele>317.2</ele>
        <time>2021-01-16T13:19:59Z</time>
      </trkpt>
      <trkpt lat="45.05609" lon="5.66749">
        <ele>317.2</ele>
        <time>2021-01-16T13:20:00Z</time>
      </trkpt>
      <trkpt lat="45.0561" lon="5.66747">
        <ele>317.2</ele>
        <time>2021-01-16T13:20:01Z</time>
      </trkpt>
      <trkpt lat="45.05611" lon="5.66745">
        <ele>317</ele>
        <time>2021-01-16T13:20:02Z</time>
      </trkpt>
      <trkpt lat="45.05613" lon="5.66743">
        <ele>316.6</ele>
        <time>2021-01-16T13:20:03Z</time>
      </trkpt>
      <trkpt lat="45.05615" lon="5.66743">
        <ele>316.4</ele>
        <time>2021-01-16T13:20:04Z</time>
      </trkpt>
      <trkpt lat="45.05617" lon="5.66742">
        <ele>316.6</ele>
        <time>2021-01-16T13:20:05Z</time>
      </trkpt>
      <trkpt lat="45.05622" lon="5.66743">
        <ele>316.6</ele>
        <time>2021-01-16T13:20:06Z</time>
      </trkpt>
      <trkpt lat="45.05624" lon="5.66743">
        <ele>316.2</ele>
        <time>2021-01-16T13:20:07Z</time>
      </trkpt>
      <trkpt lat="45.05624" lon="5.66743">
        <ele>316.2</ele>
        <time>2021-01-16T13:20:08Z</time>
      </trkpt>
      <trkpt lat="45.05627" lon="5.66743">
        <ele>315.8</ele>
        <time>2021-01-16T13:20:09Z</time>
      </trkpt>
      <trkpt lat="45.05633" lon="5.66744">
        <ele>315.6</ele>
        <time>2021-01-16T13:20:10Z</time>
      </trkpt>
      <trkpt lat="45.05633" lon="5.66744">
        <ele>315.6</ele>
        <time>2021-01-16T13:20:11Z</time>
      </trkpt>
      <trkpt lat="45.05635" lon="5.66744">
        <ele>315.6</ele>
        <time>2021-01-16T13:20:12Z</time>
      </trkpt>
      <trkpt lat="45.05639" lon="5.66744">
        <ele>315.4</ele>
        <time>2021-01-16T13:20:13Z</time>
      </trkpt>
      <trkpt lat="45.05641" lon="5.66743">
        <ele>315.6</ele>
        <time>2021-01-16T13:20:14Z</time>
      </trkpt>
      <trkpt lat="45.05645" lon="5.66743">
        <ele>315.6</ele>
        <time>2021-01-16T13:20:15Z</time>
      </trkpt>
      <trkpt lat="45.0565" lon="5.66743">
        <ele>315.4</ele>
        <time>2021-01-16T13:20:16Z</time>
      </trkpt>
      <trkpt lat="45.0565" lon="5.66743">
        <ele>315.4</ele>
        <time>2021-01-16T13:20:17Z</time>
      </trkpt>
      <trkpt lat="45.05653" lon="5.66743">
        <ele>315.2</ele>
        <time>2021-01-16T13:20:18Z</time>
      </trkpt>
      <trkpt lat="45.05656" lon="5.66742">
        <ele>315.4</ele>
        <time>2021-01-16T13:20:19Z</time>
      </trkpt>
      <trkpt lat="45.0566" lon="5.66739">
        <ele>315.4</ele>
        <time>2021-01-16T13:20:20Z</time>
      </trkpt>
      <trkpt lat="45.0566" lon="5.66739">
        <ele>315.4</ele>
        <time>2021-01-16T13:20:21Z</time>
      </trkpt>
      <trkpt lat="45.05662" lon="5.66737">
        <ele>315.4</ele>
        <time>2021-01-16T13:20:22Z</time>
      </trkpt>
      <trkpt lat="45.05664" lon="5.66736">
        <ele>315.4</ele>
        <time>2021-01-16T13:20:23Z</time>
      </trkpt>
      <trkpt lat="45.05665" lon="5.66735">
        <ele>315.2</ele>
        <time>2021-01-16T13:20:24Z</time>
      </trkpt>
      <trkpt lat="45.05668" lon="5.66738">
        <ele>315.6</ele>
        <time>2021-01-16T13:20:25Z</time>
      </trkpt>
      <trkpt lat="45.0567" lon="5.66741">
        <ele>315.4</ele>
        <time>2021-01-16T13:20:26Z</time>
      </trkpt>
      <trkpt lat="45.05672" lon="5.66744">
        <ele>315.6</ele>
        <time>2021-01-16T13:20:27Z</time>
      </trkpt>
      <trkpt lat="45.05672" lon="5.66744">
        <ele>315.8</ele>
        <time>2021-01-16T13:20:28Z</time>
      </trkpt>
      <trkpt lat="45.05672" lon="5.66744">
        <ele>315.8</ele>
        <time>2021-01-16T13:20:29Z</time>
      </trkpt>
      <trkpt lat="45.05672" lon="5.66744">
        <ele>315.8</ele>
        <time>2021-01-16T13:20:30Z</time>
      </trkpt>
      <trkpt lat="45.05673" lon="5.6674">
        <ele>316</ele>
        <time>2021-01-16T13:20:31Z</time>
      </trkpt>
      <trkpt lat="45.05673" lon="5.66739">
        <ele>316.2</ele>
        <time>2021-01-16T13:20:32Z</time>
      </trkpt>
      <trkpt lat="45.05674" lon="5.66738">
        <ele>316</ele>
        <time>2021-01-16T13:20:33Z</time>
      </trkpt>
      <trkpt lat="45.05674" lon="5.66737">
        <ele>316</ele>
        <time>2021-01-16T13:20:34Z</time>
      </trkpt>
      <trkpt lat="45.05674" lon="5.66736">
        <ele>316</ele>
        <time>2021-01-16T13:20:35Z</time>
      </trkpt>
      <trkpt lat="45.05674" lon="5.66734">
        <ele>316</ele>
        <time>2021-01-16T13:20:36Z</time>
      </trkpt>
      <trkpt lat="45.05675" lon="5.66733">
        <ele>316</ele>
        <time>2021-01-16T13:20:37Z</time>
      </trkpt>
      <trkpt lat="45.05675" lon="5.6673">
        <ele>316</ele>
        <time>2021-01-16T13:20:38Z</time>
      </trkpt>
      <trkpt lat="45.05675" lon="5.66727">
        <ele>316</ele>
        <time>2021-01-16T13:20:39Z</time>
      </trkpt>
      <trkpt lat="45.05675" lon="5.66724">
        <ele>315.8</ele>
        <time>2021-01-16T13:20:40Z</time>
      </trkpt>
      <trkpt lat="45.05674" lon="5.66721">
        <ele>316</ele>
        <time>2021-01-16T13:20:41Z</time>
      </trkpt>
      <trkpt lat="45.05674" lon="5.66713">
        <ele>316</ele>
        <time>2021-01-16T13:20:42Z</time>
      </trkpt>
      <trkpt lat="45.05675" lon="5.66711">
        <ele>316</ele>
        <time>2021-01-16T13:20:43Z</time>
      </trkpt>
      <trkpt lat="45.05676" lon="5.66705">
        <ele>316.2</ele>
        <time>2021-01-16T13:20:44Z</time>
      </trkpt>
      <trkpt lat="45.05677" lon="5.66702">
        <ele>316.2</ele>
        <time>2021-01-16T13:20:45Z</time>
      </trkpt>
      <trkpt lat="45.05677" lon="5.66699">
        <ele>316</ele>
        <time>2021-01-16T13:20:46Z</time>
      </trkpt>
      <trkpt lat="45.05678" lon="5.66696">
        <ele>316.4</ele>
        <time>2021-01-16T13:20:47Z</time>
      </trkpt>
      <trkpt lat="45.05679" lon="5.66692">
        <ele>316.4</ele>
        <time>2021-01-16T13:20:48Z</time>
      </trkpt>
      <trkpt lat="45.0568" lon="5.66688">
        <ele>316.8</ele>
        <time>2021-01-16T13:20:49Z</time>
      </trkpt>
      <trkpt lat="45.0568" lon="5.66685">
        <ele>316.8</ele>
        <time>2021-01-16T13:20:50Z</time>
      </trkpt>
      <trkpt lat="45.05684" lon="5.66679">
        <ele>317</ele>
        <time>2021-01-16T13:20:51Z</time>
      </trkpt>
      <trkpt lat="45.05685" lon="5.66675">
        <ele>316.8</ele>
        <time>2021-01-16T13:20:52Z</time>
      </trkpt>
      <trkpt lat="45.05686" lon="5.66672">
        <ele>317</ele>
        <time>2021-01-16T13:20:53Z</time>
      </trkpt>
      <trkpt lat="45.05686" lon="5.66672">
        <ele>316.6</ele>
        <time>2021-01-16T13:20:54Z</time>
      </trkpt>
      <trkpt lat="45.05687" lon="5.66669">
        <ele>316.6</ele>
        <time>2021-01-16T13:20:55Z</time>
      </trkpt>
      <trkpt lat="45.05689" lon="5.66666">
        <ele>316.8</ele>
        <time>2021-01-16T13:20:56Z</time>
      </trkpt>
      <trkpt lat="45.05691" lon="5.6666">
        <ele>316.8</ele>
        <time>2021-01-16T13:20:57Z</time>
      </trkpt>
      <trkpt lat="45.05691" lon="5.6666">
        <ele>317.2</ele>
        <time>2021-01-16T13:20:58Z</time>
      </trkpt>
      <trkpt lat="45.05692" lon="5.66657">
        <ele>317.4</ele>
        <time>2021-01-16T13:20:59Z</time>
      </trkpt>
      <trkpt lat="45.05694" lon="5.66654">
        <ele>317.8</ele>
        <time>2021-01-16T13:21:00Z</time>
      </trkpt>
      <trkpt lat="45.05695" lon="5.66652">
        <ele>318</ele>
        <time>2021-01-16T13:21:01Z</time>
      </trkpt>
      <trkpt lat="45.05698" lon="5.66646">
        <ele>318.2</ele>
        <time>2021-01-16T13:21:02Z</time>
      </trkpt>
      <trkpt lat="45.05698" lon="5.66645">
        <ele>318.4</ele>
        <time>2021-01-16T13:21:03Z</time>
      </trkpt>
      <trkpt lat="45.05699" lon="5.66643">
        <ele>318.6</ele>
        <time>2021-01-16T13:21:04Z</time>
      </trkpt>
      <trkpt lat="45.057" lon="5.66641">
        <ele>318.6</ele>
        <time>2021-01-16T13:21:05Z</time>
      </trkpt>
      <trkpt lat="45.05701" lon="5.66639">
        <ele>318.8</ele>
        <time>2021-01-16T13:21:06Z</time>
      </trkpt>
      <trkpt lat="45.05702" lon="5.66636">
        <ele>318.8</ele>
        <time>2021-01-16T13:21:07Z</time>
      </trkpt>
      <trkpt lat="45.05703" lon="5.66633">
        <ele>319</ele>
        <time>2021-01-16T13:21:08Z</time>
      </trkpt>
      <trkpt lat="45.05704" lon="5.6663">
        <ele>318.8</ele>
        <time>2021-01-16T13:21:09Z</time>
      </trkpt>
      <trkpt lat="45.05706" lon="5.66627">
        <ele>318.8</ele>
        <time>2021-01-16T13:21:10Z</time>
      </trkpt>
      <trkpt lat="45.05708" lon="5.66621">
        <ele>319</ele>
        <time>2021-01-16T13:21:11Z</time>
      </trkpt>
      <trkpt lat="45.0571" lon="5.66618">
        <ele>319</ele>
        <time>2021-01-16T13:21:12Z</time>
      </trkpt>
      <trkpt lat="45.05711" lon="5.66616">
        <ele>319.2</ele>
        <time>2021-01-16T13:21:13Z</time>
      </trkpt>
      <trkpt lat="45.05712" lon="5.66615">
        <ele>319.4</ele>
        <time>2021-01-16T13:21:14Z</time>
      </trkpt>
      <trkpt lat="45.05713" lon="5.66613">
        <ele>319.8</ele>
        <time>2021-01-16T13:21:15Z</time>
      </trkpt>
      <trkpt lat="45.05717" lon="5.66608">
        <ele>320</ele>
        <time>2021-01-16T13:21:16Z</time>
      </trkpt>
      <trkpt lat="45.05719" lon="5.66605">
        <ele>320.4</ele>
        <time>2021-01-16T13:21:17Z</time>
      </trkpt>
      <trkpt lat="45.05719" lon="5.66605">
        <ele>320.6</ele>
        <time>2021-01-16T13:21:18Z</time>
      </trkpt>
      <trkpt lat="45.05721" lon="5.66604">
        <ele>321</ele>
        <time>2021-01-16T13:21:19Z</time>
      </trkpt>
      <trkpt lat="45.05724" lon="5.66602">
        <ele>321.2</ele>
        <time>2021-01-16T13:21:20Z</time>
      </trkpt>
      <trkpt lat="45.05723" lon="5.66598">
        <ele>321.6</ele>
        <time>2021-01-16T13:21:21Z</time>
      </trkpt>
      <trkpt lat="45.05722" lon="5.66594">
        <ele>321.6</ele>
        <time>2021-01-16T13:21:22Z</time>
      </trkpt>
      <trkpt lat="45.0572" lon="5.66586">
        <ele>321.8</ele>
        <time>2021-01-16T13:21:23Z</time>
      </trkpt>
      <trkpt lat="45.0572" lon="5.66586">
        <ele>321.8</ele>
        <time>2021-01-16T13:21:24Z</time>
      </trkpt>
      <trkpt lat="45.0572" lon="5.66586">
        <ele>322</ele>
        <time>2021-01-16T13:21:25Z</time>
      </trkpt>
      <trkpt lat="45.0572" lon="5.66583">
        <ele>322.2</ele>
        <time>2021-01-16T13:21:26Z</time>
      </trkpt>
      <trkpt lat="45.05721" lon="5.66579">
        <ele>322.4</ele>
        <time>2021-01-16T13:21:27Z</time>
      </trkpt>
      <trkpt lat="45.05721" lon="5.66576">
        <ele>322.4</ele>
        <time>2021-01-16T13:21:28Z</time>
      </trkpt>
      <trkpt lat="45.05721" lon="5.66572">
        <ele>322.6</ele>
        <time>2021-01-16T13:21:29Z</time>
      </trkpt>
      <trkpt lat="45.05722" lon="5.66569">
        <ele>322.4</ele>
        <time>2021-01-16T13:21:30Z</time>
      </trkpt>
      <trkpt lat="45.05723" lon="5.66566">
        <ele>322.4</ele>
        <time>2021-01-16T13:21:31Z</time>
      </trkpt>
      <trkpt lat="45.05723" lon="5.66563">
        <ele>322.4</ele>
        <time>2021-01-16T13:21:32Z</time>
      </trkpt>
      <trkpt lat="45.05724" lon="5.66559">
        <ele>322.6</ele>
        <time>2021-01-16T13:21:33Z</time>
      </trkpt>
      <trkpt lat="45.05723" lon="5.66556">
        <ele>322.8</ele>
        <time>2021-01-16T13:21:34Z</time>
      </trkpt>
      <trkpt lat="45.05723" lon="5.66553">
        <ele>323</ele>
        <time>2021-01-16T13:21:35Z</time>
      </trkpt>
      <trkpt lat="45.05723" lon="5.6655">
        <ele>323.4</ele>
        <time>2021-01-16T13:21:36Z</time>
      </trkpt>
      <trkpt lat="45.05722" lon="5.66547">
        <ele>323.4</ele>
        <time>2021-01-16T13:21:37Z</time>
      </trkpt>
      <trkpt lat="45.05722" lon="5.66544">
        <ele>323.8</ele>
        <time>2021-01-16T13:21:38Z</time>
      </trkpt>
      <trkpt lat="45.05722" lon="5.66541">
        <ele>323.8</ele>
        <time>2021-01-16T13:21:39Z</time>
      </trkpt>
      <trkpt lat="45.05722" lon="5.66541">
        <ele>324.2</ele>
        <time>2021-01-16T13:21:40Z</time>
      </trkpt>
      <trkpt lat="45.05721" lon="5.66537">
        <ele>324.4</ele>
        <time>2021-01-16T13:21:41Z</time>
      </trkpt>
      <trkpt lat="45.05721" lon="5.66537">
        <ele>324.8</ele>
        <time>2021-01-16T13:21:42Z</time>
      </trkpt>
      <trkpt lat="45.05721" lon="5.66537">
        <ele>325</ele>
        <time>2021-01-16T13:21:43Z</time>
      </trkpt>
      <trkpt lat="45.0572" lon="5.66535">
        <ele>325.4</ele>
        <time>2021-01-16T13:21:44Z</time>
      </trkpt>
      <trkpt lat="45.0572" lon="5.66533">
        <ele>325.4</ele>
        <time>2021-01-16T13:21:45Z</time>
      </trkpt>
      <trkpt lat="45.05719" lon="5.66531">
        <ele>325.8</ele>
        <time>2021-01-16T13:21:46Z</time>
      </trkpt>
      <trkpt lat="45.05717" lon="5.66526">
        <ele>326</ele>
        <time>2021-01-16T13:21:47Z</time>
      </trkpt>
      <trkpt lat="45.05715" lon="5.66524">
        <ele>326.2</ele>
        <time>2021-01-16T13:21:48Z</time>
      </trkpt>
      <trkpt lat="45.05714" lon="5.66522">
        <ele>326.4</ele>
        <time>2021-01-16T13:21:49Z</time>
      </trkpt>
      <trkpt lat="45.05712" lon="5.6652">
        <ele>326.6</ele>
        <time>2021-01-16T13:21:50Z</time>
      </trkpt>
      <trkpt lat="45.0571" lon="5.66518">
        <ele>326.6</ele>
        <time>2021-01-16T13:21:51Z</time>
      </trkpt>
      <trkpt lat="45.05709" lon="5.66516">
        <ele>326.6</ele>
        <time>2021-01-16T13:21:52Z</time>
      </trkpt>
      <trkpt lat="45.05707" lon="5.66514">
        <ele>326.6</ele>
        <time>2021-01-16T13:21:53Z</time>
      </trkpt>
      <trkpt lat="45.05705" lon="5.66512">
        <ele>326.8</ele>
        <time>2021-01-16T13:21:54Z</time>
      </trkpt>
      <trkpt lat="45.05703" lon="5.66509">
        <ele>326.8</ele>
        <time>2021-01-16T13:21:55Z</time>
      </trkpt>
      <trkpt lat="45.05702" lon="5.66508">
        <ele>326.6</ele>
        <time>2021-01-16T13:21:56Z</time>
      </trkpt>
      <trkpt lat="45.057" lon="5.66506">
        <ele>326.8</ele>
        <time>2021-01-16T13:21:57Z</time>
      </trkpt>
      <trkpt lat="45.05699" lon="5.66504">
        <ele>326.8</ele>
        <time>2021-01-16T13:21:58Z</time>
      </trkpt>
      <trkpt lat="45.05694" lon="5.66498">
        <ele>327.2</ele>
        <time>2021-01-16T13:21:59Z</time>
      </trkpt>
      <trkpt lat="45.05694" lon="5.66498">
        <ele>327.2</ele>
        <time>2021-01-16T13:22:00Z</time>
      </trkpt>
      <trkpt lat="45.05693" lon="5.66496">
        <ele>328</ele>
        <time>2021-01-16T13:22:01Z</time>
      </trkpt>
      <trkpt lat="45.05691" lon="5.66495">
        <ele>328.8</ele>
        <time>2021-01-16T13:22:02Z</time>
      </trkpt>
      <trkpt lat="45.0569" lon="5.66493">
        <ele>329.2</ele>
        <time>2021-01-16T13:22:03Z</time>
      </trkpt>
      <trkpt lat="45.05688" lon="5.66491">
        <ele>329.6</ele>
        <time>2021-01-16T13:22:04Z</time>
      </trkpt>
      <trkpt lat="45.05687" lon="5.6649">
        <ele>329.8</ele>
        <time>2021-01-16T13:22:05Z</time>
      </trkpt>
      <trkpt lat="45.05685" lon="5.66487">
        <ele>329.8</ele>
        <time>2021-01-16T13:22:06Z</time>
      </trkpt>
      <trkpt lat="45.05684" lon="5.66485">
        <ele>330.2</ele>
        <time>2021-01-16T13:22:07Z</time>
      </trkpt>
      <trkpt lat="45.05682" lon="5.66483">
        <ele>330</ele>
        <time>2021-01-16T13:22:08Z</time>
      </trkpt>
      <trkpt lat="45.05681" lon="5.6648">
        <ele>330.6</ele>
        <time>2021-01-16T13:22:09Z</time>
      </trkpt>
      <trkpt lat="45.05679" lon="5.66478">
        <ele>330.6</ele>
        <time>2021-01-16T13:22:10Z</time>
      </trkpt>
      <trkpt lat="45.05677" lon="5.66475">
        <ele>330.8</ele>
        <time>2021-01-16T13:22:11Z</time>
      </trkpt>
      <trkpt lat="45.05675" lon="5.66473">
        <ele>331</ele>
        <time>2021-01-16T13:22:12Z</time>
      </trkpt>
      <trkpt lat="45.05673" lon="5.66471">
        <ele>331.4</ele>
        <time>2021-01-16T13:22:13Z</time>
      </trkpt>
      <trkpt lat="45.0567" lon="5.66468">
        <ele>331.4</ele>
        <time>2021-01-16T13:22:14Z</time>
      </trkpt>
      <trkpt lat="45.05669" lon="5.66466">
        <ele>331.8</ele>
        <time>2021-01-16T13:22:15Z</time>
      </trkpt>
      <trkpt lat="45.05667" lon="5.66464">
        <ele>332</ele>
        <time>2021-01-16T13:22:16Z</time>
      </trkpt>
      <trkpt lat="45.05665" lon="5.66462">
        <ele>332.2</ele>
        <time>2021-01-16T13:22:17Z</time>
      </trkpt>
      <trkpt lat="45.05663" lon="5.6646">
        <ele>332.4</ele>
        <time>2021-01-16T13:22:18Z</time>
      </trkpt>
      <trkpt lat="45.05654" lon="5.66454">
        <ele>333</ele>
        <time>2021-01-16T13:22:19Z</time>
      </trkpt>
      <trkpt lat="45.05654" lon="5.66454">
        <ele>333</ele>
        <time>2021-01-16T13:22:20Z</time>
      </trkpt>
      <trkpt lat="45.05654" lon="5.66454">
        <ele>333.4</ele>
        <time>2021-01-16T13:22:21Z</time>
      </trkpt>
      <trkpt lat="45.05654" lon="5.66454">
        <ele>333.2</ele>
        <time>2021-01-16T13:22:22Z</time>
      </trkpt>
      <trkpt lat="45.05652" lon="5.66453">
        <ele>333.6</ele>
        <time>2021-01-16T13:22:23Z</time>
      </trkpt>
      <trkpt lat="45.0565" lon="5.66452">
        <ele>333.6</ele>
        <time>2021-01-16T13:22:24Z</time>
      </trkpt>
      <trkpt lat="45.05648" lon="5.6645">
        <ele>333.8</ele>
        <time>2021-01-16T13:22:25Z</time>
      </trkpt>
      <trkpt lat="45.05646" lon="5.66449">
        <ele>334</ele>
        <time>2021-01-16T13:22:26Z</time>
      </trkpt>
      <trkpt lat="45.05644" lon="5.66448">
        <ele>334.6</ele>
        <time>2021-01-16T13:22:27Z</time>
      </trkpt>
      <trkpt lat="45.05643" lon="5.66446">
        <ele>334.6</ele>
        <time>2021-01-16T13:22:28Z</time>
      </trkpt>
      <trkpt lat="45.05642" lon="5.66445">
        <ele>334.8</ele>
        <time>2021-01-16T13:22:29Z</time>
      </trkpt>
      <trkpt lat="45.0564" lon="5.66443">
        <ele>334.8</ele>
        <time>2021-01-16T13:22:30Z</time>
      </trkpt>
      <trkpt lat="45.05639" lon="5.66442">
        <ele>335.2</ele>
        <time>2021-01-16T13:22:31Z</time>
      </trkpt>
      <trkpt lat="45.05638" lon="5.66441">
        <ele>335.4</ele>
        <time>2021-01-16T13:22:32Z</time>
      </trkpt>
      <trkpt lat="45.05637" lon="5.66439">
        <ele>335.8</ele>
        <time>2021-01-16T13:22:33Z</time>
      </trkpt>
      <trkpt lat="45.05636" lon="5.66437">
        <ele>336</ele>
        <time>2021-01-16T13:22:34Z</time>
      </trkpt>
      <trkpt lat="45.05636" lon="5.66435">
        <ele>336.4</ele>
        <time>2021-01-16T13:22:35Z</time>
      </trkpt>
      <trkpt lat="45.05635" lon="5.66434">
        <ele>336.4</ele>
        <time>2021-01-16T13:22:36Z</time>
      </trkpt>
      <trkpt lat="45.05634" lon="5.66432">
        <ele>336.8</ele>
        <time>2021-01-16T13:22:37Z</time>
      </trkpt>
      <trkpt lat="45.05633" lon="5.6643">
        <ele>337</ele>
        <time>2021-01-16T13:22:38Z</time>
      </trkpt>
      <trkpt lat="45.05633" lon="5.66428">
        <ele>337.4</ele>
        <time>2021-01-16T13:22:39Z</time>
      </trkpt>
      <trkpt lat="45.05631" lon="5.66427">
        <ele>337.4</ele>
        <time>2021-01-16T13:22:40Z</time>
      </trkpt>
      <trkpt lat="45.0563" lon="5.66425">
        <ele>337.8</ele>
        <time>2021-01-16T13:22:41Z</time>
      </trkpt>
      <trkpt lat="45.05629" lon="5.66423">
        <ele>338</ele>
        <time>2021-01-16T13:22:42Z</time>
      </trkpt>
      <trkpt lat="45.05628" lon="5.66422">
        <ele>338.4</ele>
        <time>2021-01-16T13:22:43Z</time>
      </trkpt>
      <trkpt lat="45.05627" lon="5.6642">
        <ele>338.4</ele>
        <time>2021-01-16T13:22:44Z</time>
      </trkpt>
      <trkpt lat="45.05626" lon="5.66419">
        <ele>338.8</ele>
        <time>2021-01-16T13:22:45Z</time>
      </trkpt>
      <trkpt lat="45.05625" lon="5.66417">
        <ele>339</ele>
        <time>2021-01-16T13:22:46Z</time>
      </trkpt>
      <trkpt lat="45.05624" lon="5.66415">
        <ele>339.2</ele>
        <time>2021-01-16T13:22:47Z</time>
      </trkpt>
      <trkpt lat="45.05622" lon="5.66413">
        <ele>339.4</ele>
        <time>2021-01-16T13:22:48Z</time>
      </trkpt>
      <trkpt lat="45.05621" lon="5.66411">
        <ele>339.8</ele>
        <time>2021-01-16T13:22:49Z</time>
      </trkpt>
      <trkpt lat="45.0562" lon="5.66409">
        <ele>340</ele>
        <time>2021-01-16T13:22:50Z</time>
      </trkpt>
      <trkpt lat="45.05619" lon="5.66407">
        <ele>340.4</ele>
        <time>2021-01-16T13:22:51Z</time>
      </trkpt>
      <trkpt lat="45.05617" lon="5.66406">
        <ele>340.6</ele>
        <time>2021-01-16T13:22:52Z</time>
      </trkpt>
      <trkpt lat="45.05614" lon="5.66405">
        <ele>341</ele>
        <time>2021-01-16T13:22:53Z</time>
      </trkpt>
      <trkpt lat="45.05612" lon="5.66404">
        <ele>341.2</ele>
        <time>2021-01-16T13:22:54Z</time>
      </trkpt>
      <trkpt lat="45.05609" lon="5.66402">
        <ele>341.4</ele>
        <time>2021-01-16T13:22:55Z</time>
      </trkpt>
      <trkpt lat="45.05606" lon="5.66401">
        <ele>341.6</ele>
        <time>2021-01-16T13:22:56Z</time>
      </trkpt>
      <trkpt lat="45.05604" lon="5.66399">
        <ele>341.8</ele>
        <time>2021-01-16T13:22:57Z</time>
      </trkpt>
      <trkpt lat="45.05601" lon="5.66398">
        <ele>342</ele>
        <time>2021-01-16T13:22:58Z</time>
      </trkpt>
      <trkpt lat="45.05598" lon="5.66396">
        <ele>342.4</ele>
        <time>2021-01-16T13:22:59Z</time>
      </trkpt>
      <trkpt lat="45.05595" lon="5.66395">
        <ele>342.6</ele>
        <time>2021-01-16T13:23:00Z</time>
      </trkpt>
      <trkpt lat="45.05592" lon="5.66388">
        <ele>342.8</ele>
        <time>2021-01-16T13:23:01Z</time>
      </trkpt>
      <trkpt lat="45.05592" lon="5.66388">
        <ele>343</ele>
        <time>2021-01-16T13:23:02Z</time>
      </trkpt>
      <trkpt lat="45.05592" lon="5.66388">
        <ele>343.4</ele>
        <time>2021-01-16T13:23:03Z</time>
      </trkpt>
      <trkpt lat="45.0559" lon="5.66387">
        <ele>343.6</ele>
        <time>2021-01-16T13:23:04Z</time>
      </trkpt>
      <trkpt lat="45.05589" lon="5.66385">
        <ele>344</ele>
        <time>2021-01-16T13:23:05Z</time>
      </trkpt>
      <trkpt lat="45.05587" lon="5.66384">
        <ele>344.2</ele>
        <time>2021-01-16T13:23:06Z</time>
      </trkpt>
      <trkpt lat="45.05586" lon="5.66382">
        <ele>344.6</ele>
        <time>2021-01-16T13:23:07Z</time>
      </trkpt>
      <trkpt lat="45.05585" lon="5.66381">
        <ele>344.6</ele>
        <time>2021-01-16T13:23:08Z</time>
      </trkpt>
      <trkpt lat="45.05583" lon="5.66379">
        <ele>345</ele>
        <time>2021-01-16T13:23:09Z</time>
      </trkpt>
      <trkpt lat="45.05582" lon="5.66379">
        <ele>345.4</ele>
        <time>2021-01-16T13:23:10Z</time>
      </trkpt>
      <trkpt lat="45.0558" lon="5.66379">
        <ele>345.8</ele>
        <time>2021-01-16T13:23:11Z</time>
      </trkpt>
      <trkpt lat="45.05578" lon="5.66379">
        <ele>346</ele>
        <time>2021-01-16T13:23:12Z</time>
      </trkpt>
      <trkpt lat="45.05577" lon="5.66378">
        <ele>346.6</ele>
        <time>2021-01-16T13:23:13Z</time>
      </trkpt>
      <trkpt lat="45.05575" lon="5.66378">
        <ele>346.4</ele>
        <time>2021-01-16T13:23:14Z</time>
      </trkpt>
      <trkpt lat="45.05573" lon="5.66378">
        <ele>347</ele>
        <time>2021-01-16T13:23:15Z</time>
      </trkpt>
      <trkpt lat="45.05572" lon="5.66378">
        <ele>347</ele>
        <time>2021-01-16T13:23:16Z</time>
      </trkpt>
      <trkpt lat="45.0557" lon="5.66377">
        <ele>347.4</ele>
        <time>2021-01-16T13:23:17Z</time>
      </trkpt>
      <trkpt lat="45.05569" lon="5.66377">
        <ele>347.6</ele>
        <time>2021-01-16T13:23:18Z</time>
      </trkpt>
      <trkpt lat="45.05567" lon="5.66376">
        <ele>348</ele>
        <time>2021-01-16T13:23:19Z</time>
      </trkpt>
      <trkpt lat="45.05565" lon="5.66376">
        <ele>348</ele>
        <time>2021-01-16T13:23:20Z</time>
      </trkpt>
      <trkpt lat="45.05564" lon="5.66375">
        <ele>348.4</ele>
        <time>2021-01-16T13:23:21Z</time>
      </trkpt>
      <trkpt lat="45.05561" lon="5.66374">
        <ele>348.6</ele>
        <time>2021-01-16T13:23:22Z</time>
      </trkpt>
      <trkpt lat="45.0556" lon="5.66373">
        <ele>349.2</ele>
        <time>2021-01-16T13:23:23Z</time>
      </trkpt>
      <trkpt lat="45.05559" lon="5.66372">
        <ele>349.4</ele>
        <time>2021-01-16T13:23:24Z</time>
      </trkpt>
      <trkpt lat="45.05559" lon="5.66372">
        <ele>349.8</ele>
        <time>2021-01-16T13:23:25Z</time>
      </trkpt>
      <trkpt lat="45.05558" lon="5.66371">
        <ele>349.8</ele>
        <time>2021-01-16T13:23:26Z</time>
      </trkpt>
      <trkpt lat="45.05557" lon="5.6637">
        <ele>350.4</ele>
        <time>2021-01-16T13:23:27Z</time>
      </trkpt>
      <trkpt lat="45.05556" lon="5.66369">
        <ele>350.4</ele>
        <time>2021-01-16T13:23:28Z</time>
      </trkpt>
      <trkpt lat="45.05555" lon="5.66368">
        <ele>351</ele>
        <time>2021-01-16T13:23:29Z</time>
      </trkpt>
      <trkpt lat="45.05554" lon="5.66367">
        <ele>351.2</ele>
        <time>2021-01-16T13:23:30Z</time>
      </trkpt>
      <trkpt lat="45.05553" lon="5.66366">
        <ele>351.8</ele>
        <time>2021-01-16T13:23:31Z</time>
      </trkpt>
      <trkpt lat="45.05552" lon="5.66366">
        <ele>352</ele>
        <time>2021-01-16T13:23:32Z</time>
      </trkpt>
      <trkpt lat="45.05552" lon="5.66365">
        <ele>352.4</ele>
        <time>2021-01-16T13:23:33Z</time>
      </trkpt>
      <trkpt lat="45.05551" lon="5.66364">
        <ele>352.6</ele>
        <time>2021-01-16T13:23:34Z</time>
      </trkpt>
      <trkpt lat="45.0555" lon="5.66363">
        <ele>353</ele>
        <time>2021-01-16T13:23:35Z</time>
      </trkpt>
      <trkpt lat="45.05549" lon="5.66362">
        <ele>353</ele>
        <time>2021-01-16T13:23:36Z</time>
      </trkpt>
      <trkpt lat="45.05548" lon="5.66361">
        <ele>353.4</ele>
        <time>2021-01-16T13:23:37Z</time>
      </trkpt>
      <trkpt lat="45.05547" lon="5.6636">
        <ele>353.4</ele>
        <time>2021-01-16T13:23:38Z</time>
      </trkpt>
      <trkpt lat="45.05546" lon="5.6636">
        <ele>353.8</ele>
        <time>2021-01-16T13:23:39Z</time>
      </trkpt>
      <trkpt lat="45.05545" lon="5.66359">
        <ele>354</ele>
        <time>2021-01-16T13:23:40Z</time>
      </trkpt>
      <trkpt lat="45.05545" lon="5.66358">
        <ele>354.2</ele>
        <time>2021-01-16T13:23:41Z</time>
      </trkpt>
      <trkpt lat="45.05544" lon="5.66357">
        <ele>354.2</ele>
        <time>2021-01-16T13:23:42Z</time>
      </trkpt>
      <trkpt lat="45.05543" lon="5.66356">
        <ele>354.6</ele>
        <time>2021-01-16T13:23:43Z</time>
      </trkpt>
      <trkpt lat="45.0554" lon="5.66353">
        <ele>354.6</ele>
        <time>2021-01-16T13:23:44Z</time>
      </trkpt>
      <trkpt lat="45.0554" lon="5.66353">
        <ele>355</ele>
        <time>2021-01-16T13:23:45Z</time>
      </trkpt>
      <trkpt lat="45.0554" lon="5.66353">
        <ele>355.2</ele>
        <time>2021-01-16T13:23:46Z</time>
      </trkpt>
      <trkpt lat="45.0554" lon="5.66353">
        <ele>355.6</ele>
        <time>2021-01-16T13:23:47Z</time>
      </trkpt>
      <trkpt lat="45.05539" lon="5.66351">
        <ele>355.8</ele>
        <time>2021-01-16T13:23:48Z</time>
      </trkpt>
      <trkpt lat="45.05537" lon="5.66348">
        <ele>356</ele>
        <time>2021-01-16T13:23:49Z</time>
      </trkpt>
      <trkpt lat="45.05536" lon="5.66345">
        <ele>356.2</ele>
        <time>2021-01-16T13:23:50Z</time>
      </trkpt>
      <trkpt lat="45.05534" lon="5.66342">
        <ele>356.6</ele>
        <time>2021-01-16T13:23:51Z</time>
      </trkpt>
      <trkpt lat="45.0553" lon="5.66341">
        <ele>356.8</ele>
        <time>2021-01-16T13:23:52Z</time>
      </trkpt>
      <trkpt lat="45.05525" lon="5.6634">
        <ele>357</ele>
        <time>2021-01-16T13:23:53Z</time>
      </trkpt>
      <trkpt lat="45.05518" lon="5.66328">
        <ele>357.2</ele>
        <time>2021-01-16T13:23:54Z</time>
      </trkpt>
      <trkpt lat="45.05512" lon="5.66317">
        <ele>357.6</ele>
        <time>2021-01-16T13:23:55Z</time>
      </trkpt>
      <trkpt lat="45.05512" lon="5.66317">
        <ele>357.8</ele>
        <time>2021-01-16T13:23:56Z</time>
      </trkpt>
      <trkpt lat="45.05509" lon="5.66315">
        <ele>358</ele>
        <time>2021-01-16T13:23:57Z</time>
      </trkpt>
      <trkpt lat="45.05507" lon="5.66314">
        <ele>358.4</ele>
        <time>2021-01-16T13:23:58Z</time>
      </trkpt>
      <trkpt lat="45.05505" lon="5.66313">
        <ele>358.6</ele>
        <time>2021-01-16T13:23:59Z</time>
      </trkpt>
      <trkpt lat="45.05503" lon="5.66311">
        <ele>358.6</ele>
        <time>2021-01-16T13:24:00Z</time>
      </trkpt>
      <trkpt lat="45.05501" lon="5.66309">
        <ele>358.6</ele>
        <time>2021-01-16T13:24:01Z</time>
      </trkpt>
      <trkpt lat="45.055" lon="5.66307">
        <ele>358.6</ele>
        <time>2021-01-16T13:24:02Z</time>
      </trkpt>
      <trkpt lat="45.05498" lon="5.66304">
        <ele>358.8</ele>
        <time>2021-01-16T13:24:03Z</time>
      </trkpt>
      <trkpt lat="45.05496" lon="5.66302">
        <ele>359</ele>
        <time>2021-01-16T13:24:04Z</time>
      </trkpt>
      <trkpt lat="45.05495" lon="5.66299">
        <ele>359.2</ele>
        <time>2021-01-16T13:24:05Z</time>
      </trkpt>
      <trkpt lat="45.05493" lon="5.66298">
        <ele>359.4</ele>
        <time>2021-01-16T13:24:06Z</time>
      </trkpt>
      <trkpt lat="45.05491" lon="5.66296">
        <ele>359.6</ele>
        <time>2021-01-16T13:24:07Z</time>
      </trkpt>
      <trkpt lat="45.05489" lon="5.66293">
        <ele>359.8</ele>
        <time>2021-01-16T13:24:08Z</time>
      </trkpt>
      <trkpt lat="45.05489" lon="5.66293">
        <ele>360</ele>
        <time>2021-01-16T13:24:09Z</time>
      </trkpt>
      <trkpt lat="45.05489" lon="5.66293">
        <ele>360.4</ele>
        <time>2021-01-16T13:24:10Z</time>
      </trkpt>
      <trkpt lat="45.05487" lon="5.66291">
        <ele>360.6</ele>
        <time>2021-01-16T13:24:11Z</time>
      </trkpt>
      <trkpt lat="45.05486" lon="5.66288">
        <ele>361.2</ele>
        <time>2021-01-16T13:24:12Z</time>
      </trkpt>
      <trkpt lat="45.05485" lon="5.66285">
        <ele>361.6</ele>
        <time>2021-01-16T13:24:13Z</time>
      </trkpt>
      <trkpt lat="45.05484" lon="5.66284">
        <ele>362.2</ele>
        <time>2021-01-16T13:24:14Z</time>
      </trkpt>
      <trkpt lat="45.05484" lon="5.66282">
        <ele>362.4</ele>
        <time>2021-01-16T13:24:15Z</time>
      </trkpt>
      <trkpt lat="45.05483" lon="5.66281">
        <ele>363</ele>
        <time>2021-01-16T13:24:16Z</time>
      </trkpt>
      <trkpt lat="45.05483" lon="5.6628">
        <ele>363.2</ele>
        <time>2021-01-16T13:24:17Z</time>
      </trkpt>
      <trkpt lat="45.05481" lon="5.66278">
        <ele>363.6</ele>
        <time>2021-01-16T13:24:18Z</time>
      </trkpt>
      <trkpt lat="45.05481" lon="5.66278">
        <ele>363.8</ele>
        <time>2021-01-16T13:24:19Z</time>
      </trkpt>
      <trkpt lat="45.05481" lon="5.66278">
        <ele>364.2</ele>
        <time>2021-01-16T13:24:20Z</time>
      </trkpt>
      <trkpt lat="45.0548" lon="5.66276">
        <ele>364.4</ele>
        <time>2021-01-16T13:24:21Z</time>
      </trkpt>
      <trkpt lat="45.0548" lon="5.66276">
        <ele>365</ele>
        <time>2021-01-16T13:24:22Z</time>
      </trkpt>
      <trkpt lat="45.0548" lon="5.66276">
        <ele>365.2</ele>
        <time>2021-01-16T13:24:23Z</time>
      </trkpt>
      <trkpt lat="45.05478" lon="5.66274">
        <ele>365.6</ele>
        <time>2021-01-16T13:24:24Z</time>
      </trkpt>
      <trkpt lat="45.05477" lon="5.66271">
        <ele>365.6</ele>
        <time>2021-01-16T13:24:25Z</time>
      </trkpt>
      <trkpt lat="45.05475" lon="5.66269">
        <ele>366</ele>
        <time>2021-01-16T13:24:26Z</time>
      </trkpt>
      <trkpt lat="45.05474" lon="5.66267">
        <ele>366</ele>
        <time>2021-01-16T13:24:27Z</time>
      </trkpt>
      <trkpt lat="45.05472" lon="5.66264">
        <ele>366.4</ele>
        <time>2021-01-16T13:24:28Z</time>
      </trkpt>
      <trkpt lat="45.05472" lon="5.66264">
        <ele>366.4</ele>
        <time>2021-01-16T13:24:29Z</time>
      </trkpt>
      <trkpt lat="45.05472" lon="5.66264">
        <ele>366.6</ele>
        <time>2021-01-16T13:24:30Z</time>
      </trkpt>
      <trkpt lat="45.05469" lon="5.66261">
        <ele>366.6</ele>
        <time>2021-01-16T13:24:31Z</time>
      </trkpt>
      <trkpt lat="45.05468" lon="5.6626">
        <ele>367</ele>
        <time>2021-01-16T13:24:32Z</time>
      </trkpt>
      <trkpt lat="45.05467" lon="5.66258">
        <ele>367</ele>
        <time>2021-01-16T13:24:33Z</time>
      </trkpt>
      <trkpt lat="45.05466" lon="5.66257">
        <ele>367.4</ele>
        <time>2021-01-16T13:24:34Z</time>
      </trkpt>
      <trkpt lat="45.05465" lon="5.66255">
        <ele>367.6</ele>
        <time>2021-01-16T13:24:35Z</time>
      </trkpt>
      <trkpt lat="45.05463" lon="5.66253">
        <ele>367.6</ele>
        <time>2021-01-16T13:24:36Z</time>
      </trkpt>
      <trkpt lat="45.05462" lon="5.66252">
        <ele>367.8</ele>
        <time>2021-01-16T13:24:37Z</time>
      </trkpt>
      <trkpt lat="45.05461" lon="5.66251">
        <ele>368</ele>
        <time>2021-01-16T13:24:38Z</time>
      </trkpt>
      <trkpt lat="45.0546" lon="5.66249">
        <ele>368.2</ele>
        <time>2021-01-16T13:24:39Z</time>
      </trkpt>
      <trkpt lat="45.05456" lon="5.66246">
        <ele>368.2</ele>
        <time>2021-01-16T13:24:40Z</time>
      </trkpt>
      <trkpt lat="45.05455" lon="5.66244">
        <ele>368.8</ele>
        <time>2021-01-16T13:24:41Z</time>
      </trkpt>
      <trkpt lat="45.05453" lon="5.66242">
        <ele>368.8</ele>
        <time>2021-01-16T13:24:42Z</time>
      </trkpt>
      <trkpt lat="45.05451" lon="5.6624">
        <ele>369.4</ele>
        <time>2021-01-16T13:24:43Z</time>
      </trkpt>
      <trkpt lat="45.05449" lon="5.66238">
        <ele>369.6</ele>
        <time>2021-01-16T13:24:44Z</time>
      </trkpt>
      <trkpt lat="45.05447" lon="5.66236">
        <ele>370</ele>
        <time>2021-01-16T13:24:45Z</time>
      </trkpt>
      <trkpt lat="45.05445" lon="5.66234">
        <ele>370.2</ele>
        <time>2021-01-16T13:24:46Z</time>
      </trkpt>
      <trkpt lat="45.05443" lon="5.66232">
        <ele>370.8</ele>
        <time>2021-01-16T13:24:47Z</time>
      </trkpt>
      <trkpt lat="45.05442" lon="5.66231">
        <ele>370.8</ele>
        <time>2021-01-16T13:24:48Z</time>
      </trkpt>
      <trkpt lat="45.05441" lon="5.6623">
        <ele>371.2</ele>
        <time>2021-01-16T13:24:49Z</time>
      </trkpt>
      <trkpt lat="45.05439" lon="5.66229">
        <ele>371.4</ele>
        <time>2021-01-16T13:24:50Z</time>
      </trkpt>
      <trkpt lat="45.05438" lon="5.66228">
        <ele>371.8</ele>
        <time>2021-01-16T13:24:51Z</time>
      </trkpt>
      <trkpt lat="45.05436" lon="5.66227">
        <ele>372.2</ele>
        <time>2021-01-16T13:24:52Z</time>
      </trkpt>
      <trkpt lat="45.05434" lon="5.66225">
        <ele>372.4</ele>
        <time>2021-01-16T13:24:53Z</time>
      </trkpt>
      <trkpt lat="45.05434" lon="5.66225">
        <ele>372.8</ele>
        <time>2021-01-16T13:24:54Z</time>
      </trkpt>
      <trkpt lat="45.05433" lon="5.66224">
        <ele>373.2</ele>
        <time>2021-01-16T13:24:55Z</time>
      </trkpt>
      <trkpt lat="45.05432" lon="5.66223">
        <ele>373.4</ele>
        <time>2021-01-16T13:24:56Z</time>
      </trkpt>
      <trkpt lat="45.05428" lon="5.66222">
        <ele>373.6</ele>
        <time>2021-01-16T13:24:57Z</time>
      </trkpt>
      <trkpt lat="45.05428" lon="5.66222">
        <ele>374</ele>
        <time>2021-01-16T13:24:58Z</time>
      </trkpt>
      <trkpt lat="45.05425" lon="5.6622">
        <ele>374.2</ele>
        <time>2021-01-16T13:24:59Z</time>
      </trkpt>
      <trkpt lat="45.05424" lon="5.66218">
        <ele>374.6</ele>
        <time>2021-01-16T13:25:00Z</time>
      </trkpt>
      <trkpt lat="45.05423" lon="5.66217">
        <ele>375.2</ele>
        <time>2021-01-16T13:25:01Z</time>
      </trkpt>
      <trkpt lat="45.05421" lon="5.66216">
        <ele>375.4</ele>
        <time>2021-01-16T13:25:02Z</time>
      </trkpt>
      <trkpt lat="45.0542" lon="5.66215">
        <ele>375.8</ele>
        <time>2021-01-16T13:25:03Z</time>
      </trkpt>
      <trkpt lat="45.05419" lon="5.66214">
        <ele>376</ele>
        <time>2021-01-16T13:25:04Z</time>
      </trkpt>
      <trkpt lat="45.05419" lon="5.66214">
        <ele>376.2</ele>
        <time>2021-01-16T13:25:05Z</time>
      </trkpt>
      <trkpt lat="45.05418" lon="5.66213">
        <ele>376.6</ele>
        <time>2021-01-16T13:25:06Z</time>
      </trkpt>
      <trkpt lat="45.05418" lon="5.66213">
        <ele>377</ele>
        <time>2021-01-16T13:25:07Z</time>
      </trkpt>
      <trkpt lat="45.05415" lon="5.66211">
        <ele>377</ele>
        <time>2021-01-16T13:25:08Z</time>
      </trkpt>
      <trkpt lat="45.05413" lon="5.6621">
        <ele>377.4</ele>
        <time>2021-01-16T13:25:09Z</time>
      </trkpt>
      <trkpt lat="45.05413" lon="5.6621">
        <ele>377.6</ele>
        <time>2021-01-16T13:25:10Z</time>
      </trkpt>
      <trkpt lat="45.05411" lon="5.66208">
        <ele>377.8</ele>
        <time>2021-01-16T13:25:11Z</time>
      </trkpt>
      <trkpt lat="45.05411" lon="5.66208">
        <ele>377.8</ele>
        <time>2021-01-16T13:25:12Z</time>
      </trkpt>
      <trkpt lat="45.05408" lon="5.66206">
        <ele>378.2</ele>
        <time>2021-01-16T13:25:13Z</time>
      </trkpt>
      <trkpt lat="45.05408" lon="5.66206">
        <ele>378.2</ele>
        <time>2021-01-16T13:25:14Z</time>
      </trkpt>
      <trkpt lat="45.05408" lon="5.66206">
        <ele>378.6</ele>
        <time>2021-01-16T13:25:15Z</time>
      </trkpt>
      <trkpt lat="45.05405" lon="5.66204">
        <ele>378.6</ele>
        <time>2021-01-16T13:25:16Z</time>
      </trkpt>
      <trkpt lat="45.05403" lon="5.66202">
        <ele>378.8</ele>
        <time>2021-01-16T13:25:17Z</time>
      </trkpt>
      <trkpt lat="45.054" lon="5.66201">
        <ele>379</ele>
        <time>2021-01-16T13:25:18Z</time>
      </trkpt>
      <trkpt lat="45.05399" lon="5.662">
        <ele>379.4</ele>
        <time>2021-01-16T13:25:19Z</time>
      </trkpt>
      <trkpt lat="45.05398" lon="5.662">
        <ele>379.8</ele>
        <time>2021-01-16T13:25:20Z</time>
      </trkpt>
      <trkpt lat="45.05397" lon="5.66199">
        <ele>380</ele>
        <time>2021-01-16T13:25:21Z</time>
      </trkpt>
      <trkpt lat="45.05395" lon="5.66198">
        <ele>380.2</ele>
        <time>2021-01-16T13:25:22Z</time>
      </trkpt>
      <trkpt lat="45.05394" lon="5.66197">
        <ele>380.6</ele>
        <time>2021-01-16T13:25:23Z</time>
      </trkpt>
      <trkpt lat="45.05394" lon="5.66197">
        <ele>380.8</ele>
        <time>2021-01-16T13:25:24Z</time>
      </trkpt>
      <trkpt lat="45.05391" lon="5.66195">
        <ele>381.2</ele>
        <time>2021-01-16T13:25:25Z</time>
      </trkpt>
      <trkpt lat="45.05388" lon="5.66192">
        <ele>381.4</ele>
        <time>2021-01-16T13:25:26Z</time>
      </trkpt>
      <trkpt lat="45.05388" lon="5.66192">
        <ele>381.8</ele>
        <time>2021-01-16T13:25:27Z</time>
      </trkpt>
      <trkpt lat="45.05385" lon="5.66189">
        <ele>382.2</ele>
        <time>2021-01-16T13:25:28Z</time>
      </trkpt>
      <trkpt lat="45.05385" lon="5.66189">
        <ele>382.6</ele>
        <time>2021-01-16T13:25:29Z</time>
      </trkpt>
      <trkpt lat="45.05382" lon="5.66186">
        <ele>383</ele>
        <time>2021-01-16T13:25:30Z</time>
      </trkpt>
      <trkpt lat="45.05382" lon="5.66186">
        <ele>383.4</ele>
        <time>2021-01-16T13:25:31Z</time>
      </trkpt>
      <trkpt lat="45.05382" lon="5.66186">
        <ele>384.2</ele>
        <time>2021-01-16T13:25:32Z</time>
      </trkpt>
      <trkpt lat="45.0538" lon="5.66183">
        <ele>384.4</ele>
        <time>2021-01-16T13:25:33Z</time>
      </trkpt>
      <trkpt lat="45.05379" lon="5.66179">
        <ele>385</ele>
        <time>2021-01-16T13:25:34Z</time>
      </trkpt>
      <trkpt lat="45.05379" lon="5.66179">
        <ele>385</ele>
        <time>2021-01-16T13:25:35Z</time>
      </trkpt>
      <trkpt lat="45.05379" lon="5.66179">
        <ele>385.6</ele>
        <time>2021-01-16T13:25:36Z</time>
      </trkpt>
      <trkpt lat="45.05378" lon="5.66176">
        <ele>385.6</ele>
        <time>2021-01-16T13:25:37Z</time>
      </trkpt>
      <trkpt lat="45.05378" lon="5.66176">
        <ele>386.2</ele>
        <time>2021-01-16T13:25:38Z</time>
      </trkpt>
      <trkpt lat="45.05377" lon="5.66173">
        <ele>386.4</ele>
        <time>2021-01-16T13:25:39Z</time>
      </trkpt>
      <trkpt lat="45.05375" lon="5.66171">
        <ele>386.6</ele>
        <time>2021-01-16T13:25:40Z</time>
      </trkpt>
      <trkpt lat="45.05374" lon="5.66169">
        <ele>387.2</ele>
        <time>2021-01-16T13:25:41Z</time>
      </trkpt>
      <trkpt lat="45.05373" lon="5.66167">
        <ele>387.6</ele>
        <time>2021-01-16T13:25:42Z</time>
      </trkpt>
      <trkpt lat="45.05369" lon="5.66161">
        <ele>388.2</ele>
        <time>2021-01-16T13:25:43Z</time>
      </trkpt>
      <trkpt lat="45.05369" lon="5.66161">
        <ele>388.4</ele>
        <time>2021-01-16T13:25:44Z</time>
      </trkpt>
      <trkpt lat="45.05369" lon="5.6616">
        <ele>388.8</ele>
        <time>2021-01-16T13:25:45Z</time>
      </trkpt>
      <trkpt lat="45.05369" lon="5.66159">
        <ele>389</ele>
        <time>2021-01-16T13:25:46Z</time>
      </trkpt>
      <trkpt lat="45.05369" lon="5.66157">
        <ele>389.2</ele>
        <time>2021-01-16T13:25:47Z</time>
      </trkpt>
      <trkpt lat="45.05369" lon="5.66156">
        <ele>389.4</ele>
        <time>2021-01-16T13:25:48Z</time>
      </trkpt>
      <trkpt lat="45.0537" lon="5.66155">
        <ele>389.8</ele>
        <time>2021-01-16T13:25:49Z</time>
      </trkpt>
      <trkpt lat="45.0537" lon="5.66154">
        <ele>389.8</ele>
        <time>2021-01-16T13:25:50Z</time>
      </trkpt>
      <trkpt lat="45.0537" lon="5.66152">
        <ele>390.2</ele>
        <time>2021-01-16T13:25:51Z</time>
      </trkpt>
      <trkpt lat="45.0537" lon="5.66151">
        <ele>390.6</ele>
        <time>2021-01-16T13:25:52Z</time>
      </trkpt>
      <trkpt lat="45.05371" lon="5.6615">
        <ele>391</ele>
        <time>2021-01-16T13:25:53Z</time>
      </trkpt>
      <trkpt lat="45.05371" lon="5.66149">
        <ele>391.6</ele>
        <time>2021-01-16T13:25:54Z</time>
      </trkpt>
      <trkpt lat="45.05372" lon="5.66148">
        <ele>391.8</ele>
        <time>2021-01-16T13:25:55Z</time>
      </trkpt>
      <trkpt lat="45.05373" lon="5.66147">
        <ele>392</ele>
        <time>2021-01-16T13:25:56Z</time>
      </trkpt>
      <trkpt lat="45.05374" lon="5.66146">
        <ele>392.4</ele>
        <time>2021-01-16T13:25:57Z</time>
      </trkpt>
      <trkpt lat="45.05375" lon="5.66145">
        <ele>392.8</ele>
        <time>2021-01-16T13:25:58Z</time>
      </trkpt>
      <trkpt lat="45.05376" lon="5.66144">
        <ele>393.2</ele>
        <time>2021-01-16T13:25:59Z</time>
      </trkpt>
      <trkpt lat="45.05377" lon="5.66143">
        <ele>393.4</ele>
        <time>2021-01-16T13:26:00Z</time>
      </trkpt>
      <trkpt lat="45.05378" lon="5.66142">
        <ele>394</ele>
        <time>2021-01-16T13:26:01Z</time>
      </trkpt>
      <trkpt lat="45.05379" lon="5.66141">
        <ele>394.2</ele>
        <time>2021-01-16T13:26:02Z</time>
      </trkpt>
      <trkpt lat="45.0538" lon="5.6614">
        <ele>394.6</ele>
        <time>2021-01-16T13:26:03Z</time>
      </trkpt>
      <trkpt lat="45.05381" lon="5.6614">
        <ele>394.8</ele>
        <time>2021-01-16T13:26:04Z</time>
      </trkpt>
      <trkpt lat="45.05382" lon="5.6614">
        <ele>395</ele>
        <time>2021-01-16T13:26:05Z</time>
      </trkpt>
      <trkpt lat="45.05383" lon="5.66139">
        <ele>395.2</ele>
        <time>2021-01-16T13:26:06Z</time>
      </trkpt>
      <trkpt lat="45.05384" lon="5.66139">
        <ele>395.4</ele>
        <time>2021-01-16T13:26:07Z</time>
      </trkpt>
      <trkpt lat="45.05385" lon="5.66139">
        <ele>395.6</ele>
        <time>2021-01-16T13:26:08Z</time>
      </trkpt>
      <trkpt lat="45.05386" lon="5.66138">
        <ele>395.8</ele>
        <time>2021-01-16T13:26:09Z</time>
      </trkpt>
      <trkpt lat="45.05387" lon="5.66138">
        <ele>396</ele>
        <time>2021-01-16T13:26:10Z</time>
      </trkpt>
      <trkpt lat="45.05388" lon="5.66138">
        <ele>396.2</ele>
        <time>2021-01-16T13:26:11Z</time>
      </trkpt>
      <trkpt lat="45.05389" lon="5.66138">
        <ele>396.4</ele>
        <time>2021-01-16T13:26:12Z</time>
      </trkpt>
      <trkpt lat="45.0539" lon="5.66137">
        <ele>396.6</ele>
        <time>2021-01-16T13:26:13Z</time>
      </trkpt>
      <trkpt lat="45.05391" lon="5.66136">
        <ele>396.8</ele>
        <time>2021-01-16T13:26:14Z</time>
      </trkpt>
      <trkpt lat="45.05392" lon="5.66136">
        <ele>397.2</ele>
        <time>2021-01-16T13:26:15Z</time>
      </trkpt>
      <trkpt lat="45.05393" lon="5.66135">
        <ele>397.4</ele>
        <time>2021-01-16T13:26:16Z</time>
      </trkpt>
      <trkpt lat="45.05394" lon="5.66135">
        <ele>397.6</ele>
        <time>2021-01-16T13:26:17Z</time>
      </trkpt>
      <trkpt lat="45.05395" lon="5.66134">
        <ele>398</ele>
        <time>2021-01-16T13:26:18Z</time>
      </trkpt>
      <trkpt lat="45.05396" lon="5.66133">
        <ele>398.2</ele>
        <time>2021-01-16T13:26:19Z</time>
      </trkpt>
      <trkpt lat="45.05397" lon="5.66133">
        <ele>398.2</ele>
        <time>2021-01-16T13:26:20Z</time>
      </trkpt>
      <trkpt lat="45.05398" lon="5.66132">
        <ele>398.6</ele>
        <time>2021-01-16T13:26:21Z</time>
      </trkpt>
      <trkpt lat="45.05399" lon="5.66131">
        <ele>398.8</ele>
        <time>2021-01-16T13:26:22Z</time>
      </trkpt>
      <trkpt lat="45.054" lon="5.66131">
        <ele>399.2</ele>
        <time>2021-01-16T13:26:23Z</time>
      </trkpt>
      <trkpt lat="45.05401" lon="5.6613">
        <ele>399.2</ele>
        <time>2021-01-16T13:26:24Z</time>
      </trkpt>
      <trkpt lat="45.05402" lon="5.66129">
        <ele>399.4</ele>
        <time>2021-01-16T13:26:25Z</time>
      </trkpt>
      <trkpt lat="45.05403" lon="5.66128">
        <ele>399.6</ele>
        <time>2021-01-16T13:26:26Z</time>
      </trkpt>
      <trkpt lat="45.05404" lon="5.66127">
        <ele>399.8</ele>
        <time>2021-01-16T13:26:27Z</time>
      </trkpt>
      <trkpt lat="45.05405" lon="5.66127">
        <ele>400</ele>
        <time>2021-01-16T13:26:28Z</time>
      </trkpt>
      <trkpt lat="45.05406" lon="5.66126">
        <ele>400.2</ele>
        <time>2021-01-16T13:26:29Z</time>
      </trkpt>
      <trkpt lat="45.05407" lon="5.66125">
        <ele>400.4</ele>
        <time>2021-01-16T13:26:30Z</time>
      </trkpt>
      <trkpt lat="45.05407" lon="5.66125">
        <ele>400.6</ele>
        <time>2021-01-16T13:26:31Z</time>
      </trkpt>
      <trkpt lat="45.05408" lon="5.66124">
        <ele>400.8</ele>
        <time>2021-01-16T13:26:32Z</time>
      </trkpt>
      <trkpt lat="45.05409" lon="5.66123">
        <ele>401</ele>
        <time>2021-01-16T13:26:33Z</time>
      </trkpt>
      <trkpt lat="45.0541" lon="5.66122">
        <ele>401.2</ele>
        <time>2021-01-16T13:26:34Z</time>
      </trkpt>
      <trkpt lat="45.0541" lon="5.66122">
        <ele>401.4</ele>
        <time>2021-01-16T13:26:35Z</time>
      </trkpt>
      <trkpt lat="45.05411" lon="5.66121">
        <ele>401.6</ele>
        <time>2021-01-16T13:26:36Z</time>
      </trkpt>
      <trkpt lat="45.05412" lon="5.6612">
        <ele>402</ele>
        <time>2021-01-16T13:26:37Z</time>
      </trkpt>
      <trkpt lat="45.05413" lon="5.6612">
        <ele>402.4</ele>
        <time>2021-01-16T13:26:38Z</time>
      </trkpt>
      <trkpt lat="45.05414" lon="5.6612">
        <ele>402.8</ele>
        <time>2021-01-16T13:26:39Z</time>
      </trkpt>
      <trkpt lat="45.05415" lon="5.66119">
        <ele>403</ele>
        <time>2021-01-16T13:26:40Z</time>
      </trkpt>
      <trkpt lat="45.05416" lon="5.66119">
        <ele>403.4</ele>
        <time>2021-01-16T13:26:41Z</time>
      </trkpt>
      <trkpt lat="45.05417" lon="5.66118">
        <ele>403.6</ele>
        <time>2021-01-16T13:26:42Z</time>
      </trkpt>
      <trkpt lat="45.05418" lon="5.66118">
        <ele>404</ele>
        <time>2021-01-16T13:26:43Z</time>
      </trkpt>
      <trkpt lat="45.0542" lon="5.66118">
        <ele>404.2</ele>
        <time>2021-01-16T13:26:44Z</time>
      </trkpt>
      <trkpt lat="45.05421" lon="5.66117">
        <ele>404.6</ele>
        <time>2021-01-16T13:26:45Z</time>
      </trkpt>
      <trkpt lat="45.05422" lon="5.66117">
        <ele>405</ele>
        <time>2021-01-16T13:26:46Z</time>
      </trkpt>
      <trkpt lat="45.05423" lon="5.66118">
        <ele>405.4</ele>
        <time>2021-01-16T13:26:47Z</time>
      </trkpt>
      <trkpt lat="45.05424" lon="5.66118">
        <ele>405.8</ele>
        <time>2021-01-16T13:26:48Z</time>
      </trkpt>
      <trkpt lat="45.05425" lon="5.66119">
        <ele>406.2</ele>
        <time>2021-01-16T13:26:49Z</time>
      </trkpt>
      <trkpt lat="45.05425" lon="5.6612">
        <ele>406.6</ele>
        <time>2021-01-16T13:26:50Z</time>
      </trkpt>
      <trkpt lat="45.05426" lon="5.66121">
        <ele>407</ele>
        <time>2021-01-16T13:26:51Z</time>
      </trkpt>
      <trkpt lat="45.05427" lon="5.66122">
        <ele>407.2</ele>
        <time>2021-01-16T13:26:52Z</time>
      </trkpt>
      <trkpt lat="45.05428" lon="5.66122">
        <ele>407.6</ele>
        <time>2021-01-16T13:26:53Z</time>
      </trkpt>
      <trkpt lat="45.05429" lon="5.66123">
        <ele>407.8</ele>
        <time>2021-01-16T13:26:54Z</time>
      </trkpt>
      <trkpt lat="45.0543" lon="5.66124">
        <ele>408.2</ele>
        <time>2021-01-16T13:26:55Z</time>
      </trkpt>
      <trkpt lat="45.05431" lon="5.66124">
        <ele>408.4</ele>
        <time>2021-01-16T13:26:56Z</time>
      </trkpt>
      <trkpt lat="45.05431" lon="5.66124">
        <ele>408.6</ele>
        <time>2021-01-16T13:26:57Z</time>
      </trkpt>
      <trkpt lat="45.05432" lon="5.66124">
        <ele>408.8</ele>
        <time>2021-01-16T13:26:58Z</time>
      </trkpt>
      <trkpt lat="45.05433" lon="5.66125">
        <ele>409</ele>
        <time>2021-01-16T13:26:59Z</time>
      </trkpt>
      <trkpt lat="45.05433" lon="5.66125">
        <ele>409.2</ele>
        <time>2021-01-16T13:27:00Z</time>
      </trkpt>
      <trkpt lat="45.05434" lon="5.66125">
        <ele>409.4</ele>
        <time>2021-01-16T13:27:01Z</time>
      </trkpt>
      <trkpt lat="45.05435" lon="5.66125">
        <ele>409.8</ele>
        <time>2021-01-16T13:27:02Z</time>
      </trkpt>
      <trkpt lat="45.05435" lon="5.66125">
        <ele>410</ele>
        <time>2021-01-16T13:27:03Z</time>
      </trkpt>
      <trkpt lat="45.05436" lon="5.66125">
        <ele>410.4</ele>
        <time>2021-01-16T13:27:04Z</time>
      </trkpt>
      <trkpt lat="45.05438" lon="5.66126">
        <ele>410.8</ele>
        <time>2021-01-16T13:27:05Z</time>
      </trkpt>
      <trkpt lat="45.05438" lon="5.66126">
        <ele>410.8</ele>
        <time>2021-01-16T13:27:06Z</time>
      </trkpt>
      <trkpt lat="45.05439" lon="5.66126">
        <ele>411.2</ele>
        <time>2021-01-16T13:27:07Z</time>
      </trkpt>
      <trkpt lat="45.0544" lon="5.66126">
        <ele>411.4</ele>
        <time>2021-01-16T13:27:08Z</time>
      </trkpt>
      <trkpt lat="45.05441" lon="5.66127">
        <ele>411.6</ele>
        <time>2021-01-16T13:27:09Z</time>
      </trkpt>
      <trkpt lat="45.05442" lon="5.66127">
        <ele>412</ele>
        <time>2021-01-16T13:27:10Z</time>
      </trkpt>
      <trkpt lat="45.05443" lon="5.66127">
        <ele>412.2</ele>
        <time>2021-01-16T13:27:11Z</time>
      </trkpt>
      <trkpt lat="45.05443" lon="5.66127">
        <ele>412.6</ele>
        <time>2021-01-16T13:27:12Z</time>
      </trkpt>
      <trkpt lat="45.05444" lon="5.66127">
        <ele>412.8</ele>
        <time>2021-01-16T13:27:13Z</time>
      </trkpt>
      <trkpt lat="45.05445" lon="5.66128">
        <ele>413</ele>
        <time>2021-01-16T13:27:14Z</time>
      </trkpt>
      <trkpt lat="45.05446" lon="5.66128">
        <ele>413.4</ele>
        <time>2021-01-16T13:27:15Z</time>
      </trkpt>
      <trkpt lat="45.05447" lon="5.66128">
        <ele>413.8</ele>
        <time>2021-01-16T13:27:16Z</time>
      </trkpt>
      <trkpt lat="45.05448" lon="5.66128">
        <ele>414</ele>
        <time>2021-01-16T13:27:17Z</time>
      </trkpt>
      <trkpt lat="45.05448" lon="5.66128">
        <ele>414.2</ele>
        <time>2021-01-16T13:27:18Z</time>
      </trkpt>
      <trkpt lat="45.05448" lon="5.66128">
        <ele>414.4</ele>
        <time>2021-01-16T13:27:19Z</time>
      </trkpt>
      <trkpt lat="45.05448" lon="5.66128">
        <ele>414.8</ele>
        <time>2021-01-16T13:27:20Z</time>
      </trkpt>
      <trkpt lat="45.05448" lon="5.66128">
        <ele>415.2</ele>
        <time>2021-01-16T13:27:21Z</time>
      </trkpt>
      <trkpt lat="45.05449" lon="5.66128">
        <ele>415.4</ele>
        <time>2021-01-16T13:27:22Z</time>
      </trkpt>
      <trkpt lat="45.0545" lon="5.66128">
        <ele>415.6</ele>
        <time>2021-01-16T13:27:23Z</time>
      </trkpt>
      <trkpt lat="45.05451" lon="5.66129">
        <ele>415.8</ele>
        <time>2021-01-16T13:27:24Z</time>
      </trkpt>
      <trkpt lat="45.05452" lon="5.66129">
        <ele>416.2</ele>
        <time>2021-01-16T13:27:25Z</time>
      </trkpt>
      <trkpt lat="45.05453" lon="5.66129">
        <ele>416.4</ele>
        <time>2021-01-16T13:27:26Z</time>
      </trkpt>
      <trkpt lat="45.05454" lon="5.6613">
        <ele>416.6</ele>
        <time>2021-01-16T13:27:27Z</time>
      </trkpt>
      <trkpt lat="45.05455" lon="5.6613">
        <ele>416.8</ele>
        <time>2021-01-16T13:27:28Z</time>
      </trkpt>
      <trkpt lat="45.05456" lon="5.66131">
        <ele>416.8</ele>
        <time>2021-01-16T13:27:29Z</time>
      </trkpt>
      <trkpt lat="45.05457" lon="5.66131">
        <ele>417.2</ele>
        <time>2021-01-16T13:27:30Z</time>
      </trkpt>
      <trkpt lat="45.05459" lon="5.66133">
        <ele>417.6</ele>
        <time>2021-01-16T13:27:31Z</time>
      </trkpt>
      <trkpt lat="45.05459" lon="5.66133">
        <ele>417.8</ele>
        <time>2021-01-16T13:27:32Z</time>
      </trkpt>
      <trkpt lat="45.05462" lon="5.66134">
        <ele>418.2</ele>
        <time>2021-01-16T13:27:33Z</time>
      </trkpt>
      <trkpt lat="45.05462" lon="5.66134">
        <ele>418.4</ele>
        <time>2021-01-16T13:27:34Z</time>
      </trkpt>
      <trkpt lat="45.05462" lon="5.66134">
        <ele>418.6</ele>
        <time>2021-01-16T13:27:35Z</time>
      </trkpt>
      <trkpt lat="45.05462" lon="5.66134">
        <ele>419</ele>
        <time>2021-01-16T13:27:36Z</time>
      </trkpt>
      <trkpt lat="45.05464" lon="5.66135">
        <ele>419.4</ele>
        <time>2021-01-16T13:27:37Z</time>
      </trkpt>
      <trkpt lat="45.05464" lon="5.66135">
        <ele>419.6</ele>
        <time>2021-01-16T13:27:38Z</time>
      </trkpt>
      <trkpt lat="45.05467" lon="5.66135">
        <ele>419.6</ele>
        <time>2021-01-16T13:27:39Z</time>
      </trkpt>
      <trkpt lat="45.05467" lon="5.66135">
        <ele>419.8</ele>
        <time>2021-01-16T13:27:40Z</time>
      </trkpt>
      <trkpt lat="45.05469" lon="5.66136">
        <ele>420</ele>
        <time>2021-01-16T13:27:41Z</time>
      </trkpt>
      <trkpt lat="45.05469" lon="5.66136">
        <ele>420.4</ele>
        <time>2021-01-16T13:27:42Z</time>
      </trkpt>
      <trkpt lat="45.05469" lon="5.66136">
        <ele>420.6</ele>
        <time>2021-01-16T13:27:43Z</time>
      </trkpt>
      <trkpt lat="45.05471" lon="5.66137">
        <ele>420.8</ele>
        <time>2021-01-16T13:27:44Z</time>
      </trkpt>
      <trkpt lat="45.05472" lon="5.66137">
        <ele>421.2</ele>
        <time>2021-01-16T13:27:45Z</time>
      </trkpt>
      <trkpt lat="45.05474" lon="5.66138">
        <ele>421.4</ele>
        <time>2021-01-16T13:27:46Z</time>
      </trkpt>
      <trkpt lat="45.05475" lon="5.66139">
        <ele>421.6</ele>
        <time>2021-01-16T13:27:47Z</time>
      </trkpt>
      <trkpt lat="45.05477" lon="5.66139">
        <ele>421.8</ele>
        <time>2021-01-16T13:27:48Z</time>
      </trkpt>
      <trkpt lat="45.05477" lon="5.66139">
        <ele>421.8</ele>
        <time>2021-01-16T13:27:49Z</time>
      </trkpt>
      <trkpt lat="45.05478" lon="5.6614">
        <ele>422.2</ele>
        <time>2021-01-16T13:27:50Z</time>
      </trkpt>
      <trkpt lat="45.05478" lon="5.6614">
        <ele>422.4</ele>
        <time>2021-01-16T13:27:51Z</time>
      </trkpt>
      <trkpt lat="45.0548" lon="5.66142">
        <ele>422.6</ele>
        <time>2021-01-16T13:27:52Z</time>
      </trkpt>
      <trkpt lat="45.0548" lon="5.66142">
        <ele>422.8</ele>
        <time>2021-01-16T13:27:53Z</time>
      </trkpt>
      <trkpt lat="45.05482" lon="5.66143">
        <ele>423.2</ele>
        <time>2021-01-16T13:27:54Z</time>
      </trkpt>
      <trkpt lat="45.05482" lon="5.66143">
        <ele>423.4</ele>
        <time>2021-01-16T13:27:55Z</time>
      </trkpt>
      <trkpt lat="45.05484" lon="5.66144">
        <ele>423.8</ele>
        <time>2021-01-16T13:27:56Z</time>
      </trkpt>
      <trkpt lat="45.05484" lon="5.66144">
        <ele>423.8</ele>
        <time>2021-01-16T13:27:57Z</time>
      </trkpt>
      <trkpt lat="45.05486" lon="5.66145">
        <ele>424</ele>
        <time>2021-01-16T13:27:58Z</time>
      </trkpt>
      <trkpt lat="45.05487" lon="5.66146">
        <ele>424.4</ele>
        <time>2021-01-16T13:27:59Z</time>
      </trkpt>
      <trkpt lat="45.05489" lon="5.66146">
        <ele>424.6</ele>
        <time>2021-01-16T13:28:00Z</time>
      </trkpt>
      <trkpt lat="45.0549" lon="5.66147">
        <ele>425</ele>
        <time>2021-01-16T13:28:01Z</time>
      </trkpt>
      <trkpt lat="45.05491" lon="5.66147">
        <ele>425</ele>
        <time>2021-01-16T13:28:02Z</time>
      </trkpt>
      <trkpt lat="45.05492" lon="5.66148">
        <ele>425.2</ele>
        <time>2021-01-16T13:28:03Z</time>
      </trkpt>
      <trkpt lat="45.05493" lon="5.66149">
        <ele>425.6</ele>
        <time>2021-01-16T13:28:04Z</time>
      </trkpt>
      <trkpt lat="45.05495" lon="5.66149">
        <ele>425.8</ele>
        <time>2021-01-16T13:28:05Z</time>
      </trkpt>
      <trkpt lat="45.05496" lon="5.6615">
        <ele>426.2</ele>
        <time>2021-01-16T13:28:06Z</time>
      </trkpt>
      <trkpt lat="45.05497" lon="5.6615">
        <ele>426.6</ele>
        <time>2021-01-16T13:28:07Z</time>
      </trkpt>
      <trkpt lat="45.05498" lon="5.66151">
        <ele>426.8</ele>
        <time>2021-01-16T13:28:08Z</time>
      </trkpt>
      <trkpt lat="45.055" lon="5.66151">
        <ele>427</ele>
        <time>2021-01-16T13:28:09Z</time>
      </trkpt>
      <trkpt lat="45.05501" lon="5.66152">
        <ele>427.4</ele>
        <time>2021-01-16T13:28:10Z</time>
      </trkpt>
      <trkpt lat="45.05502" lon="5.66153">
        <ele>427.8</ele>
        <time>2021-01-16T13:28:11Z</time>
      </trkpt>
      <trkpt lat="45.05503" lon="5.66153">
        <ele>428</ele>
        <time>2021-01-16T13:28:12Z</time>
      </trkpt>
      <trkpt lat="45.05504" lon="5.66154">
        <ele>428.2</ele>
        <time>2021-01-16T13:28:13Z</time>
      </trkpt>
      <trkpt lat="45.05506" lon="5.66154">
        <ele>428.4</ele>
        <time>2021-01-16T13:28:14Z</time>
      </trkpt>
      <trkpt lat="45.05507" lon="5.66155">
        <ele>428.8</ele>
        <time>2021-01-16T13:28:15Z</time>
      </trkpt>
      <trkpt lat="45.05508" lon="5.66155">
        <ele>428.8</ele>
        <time>2021-01-16T13:28:16Z</time>
      </trkpt>
      <trkpt lat="45.05509" lon="5.66156">
        <ele>428.8</ele>
        <time>2021-01-16T13:28:17Z</time>
      </trkpt>
      <trkpt lat="45.0551" lon="5.66156">
        <ele>429</ele>
        <time>2021-01-16T13:28:18Z</time>
      </trkpt>
      <trkpt lat="45.05511" lon="5.66157">
        <ele>429.2</ele>
        <time>2021-01-16T13:28:19Z</time>
      </trkpt>
      <trkpt lat="45.05511" lon="5.66157">
        <ele>429.6</ele>
        <time>2021-01-16T13:28:20Z</time>
      </trkpt>
      <trkpt lat="45.05511" lon="5.66157">
        <ele>429.8</ele>
        <time>2021-01-16T13:28:21Z</time>
      </trkpt>
      <trkpt lat="45.05512" lon="5.66158">
        <ele>429.8</ele>
        <time>2021-01-16T13:28:22Z</time>
      </trkpt>
      <trkpt lat="45.05514" lon="5.66159">
        <ele>430</ele>
        <time>2021-01-16T13:28:23Z</time>
      </trkpt>
      <trkpt lat="45.05516" lon="5.6616">
        <ele>430.4</ele>
        <time>2021-01-16T13:28:24Z</time>
      </trkpt>
      <trkpt lat="45.05518" lon="5.66161">
        <ele>430.8</ele>
        <time>2021-01-16T13:28:25Z</time>
      </trkpt>
      <trkpt lat="45.0552" lon="5.66161">
        <ele>431</ele>
        <time>2021-01-16T13:28:26Z</time>
      </trkpt>
      <trkpt lat="45.05522" lon="5.66161">
        <ele>431.2</ele>
        <time>2021-01-16T13:28:27Z</time>
      </trkpt>
      <trkpt lat="45.05523" lon="5.6616">
        <ele>431</ele>
        <time>2021-01-16T13:28:28Z</time>
      </trkpt>
      <trkpt lat="45.05524" lon="5.6616">
        <ele>431</ele>
        <time>2021-01-16T13:28:29Z</time>
      </trkpt>
      <trkpt lat="45.05525" lon="5.6616">
        <ele>431.2</ele>
        <time>2021-01-16T13:28:30Z</time>
      </trkpt>
      <trkpt lat="45.05526" lon="5.6616">
        <ele>431.2</ele>
        <time>2021-01-16T13:28:31Z</time>
      </trkpt>
      <trkpt lat="45.05526" lon="5.6616">
        <ele>431.2</ele>
        <time>2021-01-16T13:28:32Z</time>
      </trkpt>
      <trkpt lat="45.05526" lon="5.6616">
        <ele>431.4</ele>
        <time>2021-01-16T13:28:33Z</time>
      </trkpt>
      <trkpt lat="45.05527" lon="5.6616">
        <ele>431.6</ele>
        <time>2021-01-16T13:28:34Z</time>
      </trkpt>
      <trkpt lat="45.05528" lon="5.6616">
        <ele>432</ele>
        <time>2021-01-16T13:28:35Z</time>
      </trkpt>
      <trkpt lat="45.05529" lon="5.6616">
        <ele>432.2</ele>
        <time>2021-01-16T13:28:36Z</time>
      </trkpt>
      <trkpt lat="45.0553" lon="5.6616">
        <ele>432.6</ele>
        <time>2021-01-16T13:28:37Z</time>
      </trkpt>
      <trkpt lat="45.05532" lon="5.66163">
        <ele>432.8</ele>
        <time>2021-01-16T13:28:38Z</time>
      </trkpt>
      <trkpt lat="45.05532" lon="5.66163">
        <ele>433.2</ele>
        <time>2021-01-16T13:28:39Z</time>
      </trkpt>
      <trkpt lat="45.05533" lon="5.66164">
        <ele>433.4</ele>
        <time>2021-01-16T13:28:40Z</time>
      </trkpt>
      <trkpt lat="45.05535" lon="5.66165">
        <ele>433.8</ele>
        <time>2021-01-16T13:28:41Z</time>
      </trkpt>
      <trkpt lat="45.05537" lon="5.66166">
        <ele>434</ele>
        <time>2021-01-16T13:28:42Z</time>
      </trkpt>
      <trkpt lat="45.05538" lon="5.66167">
        <ele>434.2</ele>
        <time>2021-01-16T13:28:43Z</time>
      </trkpt>
      <trkpt lat="45.0554" lon="5.66168">
        <ele>434.4</ele>
        <time>2021-01-16T13:28:44Z</time>
      </trkpt>
      <trkpt lat="45.05542" lon="5.66169">
        <ele>434.6</ele>
        <time>2021-01-16T13:28:45Z</time>
      </trkpt>
      <trkpt lat="45.05544" lon="5.6617">
        <ele>434.8</ele>
        <time>2021-01-16T13:28:46Z</time>
      </trkpt>
      <trkpt lat="45.05547" lon="5.66171">
        <ele>435</ele>
        <time>2021-01-16T13:28:47Z</time>
      </trkpt>
      <trkpt lat="45.05548" lon="5.66172">
        <ele>434.8</ele>
        <time>2021-01-16T13:28:48Z</time>
      </trkpt>
      <trkpt lat="45.0555" lon="5.66173">
        <ele>434.8</ele>
        <time>2021-01-16T13:28:49Z</time>
      </trkpt>
      <trkpt lat="45.05552" lon="5.66174">
        <ele>434.8</ele>
        <time>2021-01-16T13:28:50Z</time>
      </trkpt>
      <trkpt lat="45.05558" lon="5.66178">
        <ele>434.6</ele>
        <time>2021-01-16T13:28:51Z</time>
      </trkpt>
      <trkpt lat="45.0556" lon="5.6618">
        <ele>434.8</ele>
        <time>2021-01-16T13:28:52Z</time>
      </trkpt>
      <trkpt lat="45.05564" lon="5.66184">
        <ele>434.6</ele>
        <time>2021-01-16T13:28:53Z</time>
      </trkpt>
      <trkpt lat="45.05568" lon="5.66187">
        <ele>434.6</ele>
        <time>2021-01-16T13:28:54Z</time>
      </trkpt>
      <trkpt lat="45.05571" lon="5.6619">
        <ele>434.8</ele>
        <time>2021-01-16T13:28:55Z</time>
      </trkpt>
      <trkpt lat="45.05573" lon="5.66191">
        <ele>435</ele>
        <time>2021-01-16T13:28:56Z</time>
      </trkpt>
      <trkpt lat="45.05576" lon="5.66193">
        <ele>434.6</ele>
        <time>2021-01-16T13:28:57Z</time>
      </trkpt>
      <trkpt lat="45.05576" lon="5.66193">
        <ele>434.6</ele>
        <time>2021-01-16T13:28:58Z</time>
      </trkpt>
      <trkpt lat="45.05578" lon="5.66195">
        <ele>433.8</ele>
        <time>2021-01-16T13:28:59Z</time>
      </trkpt>
      <trkpt lat="45.05581" lon="5.66197">
        <ele>434</ele>
        <time>2021-01-16T13:29:00Z</time>
      </trkpt>
      <trkpt lat="45.05586" lon="5.662">
        <ele>433.8</ele>
        <time>2021-01-16T13:29:01Z</time>
      </trkpt>
      <trkpt lat="45.05586" lon="5.662">
        <ele>433.8</ele>
        <time>2021-01-16T13:29:02Z</time>
      </trkpt>
      <trkpt lat="45.05589" lon="5.66203">
        <ele>434</ele>
        <time>2021-01-16T13:29:03Z</time>
      </trkpt>
      <trkpt lat="45.05592" lon="5.66205">
        <ele>434</ele>
        <time>2021-01-16T13:29:04Z</time>
      </trkpt>
      <trkpt lat="45.05594" lon="5.66207">
        <ele>434.2</ele>
        <time>2021-01-16T13:29:05Z</time>
      </trkpt>
      <trkpt lat="45.05597" lon="5.6621">
        <ele>434.2</ele>
        <time>2021-01-16T13:29:06Z</time>
      </trkpt>
      <trkpt lat="45.05599" lon="5.66212">
        <ele>434.8</ele>
        <time>2021-01-16T13:29:07Z</time>
      </trkpt>
      <trkpt lat="45.05603" lon="5.66216">
        <ele>434.6</ele>
        <time>2021-01-16T13:29:08Z</time>
      </trkpt>
      <trkpt lat="45.05605" lon="5.66216">
        <ele>434.8</ele>
        <time>2021-01-16T13:29:09Z</time>
      </trkpt>
      <trkpt lat="45.05607" lon="5.66218">
        <ele>434.8</ele>
        <time>2021-01-16T13:29:10Z</time>
      </trkpt>
      <trkpt lat="45.05612" lon="5.66221">
        <ele>435.2</ele>
        <time>2021-01-16T13:29:11Z</time>
      </trkpt>
      <trkpt lat="45.05612" lon="5.66221">
        <ele>435</ele>
        <time>2021-01-16T13:29:12Z</time>
      </trkpt>
      <trkpt lat="45.05615" lon="5.66222">
        <ele>434.8</ele>
        <time>2021-01-16T13:29:13Z</time>
      </trkpt>
      <trkpt lat="45.05618" lon="5.66224">
        <ele>434.8</ele>
        <time>2021-01-16T13:29:14Z</time>
      </trkpt>
      <trkpt lat="45.0562" lon="5.66225">
        <ele>435</ele>
        <time>2021-01-16T13:29:15Z</time>
      </trkpt>
      <trkpt lat="45.05623" lon="5.66227">
        <ele>435.4</ele>
        <time>2021-01-16T13:29:16Z</time>
      </trkpt>
      <trkpt lat="45.05624" lon="5.66227">
        <ele>435.6</ele>
        <time>2021-01-16T13:29:17Z</time>
      </trkpt>
      <trkpt lat="45.05625" lon="5.66228">
        <ele>436.2</ele>
        <time>2021-01-16T13:29:18Z</time>
      </trkpt>
      <trkpt lat="45.05625" lon="5.66228">
        <ele>436.4</ele>
        <time>2021-01-16T13:29:19Z</time>
      </trkpt>
      <trkpt lat="45.05627" lon="5.66229">
        <ele>436.8</ele>
        <time>2021-01-16T13:29:20Z</time>
      </trkpt>
      <trkpt lat="45.0563" lon="5.66229">
        <ele>436.8</ele>
        <time>2021-01-16T13:29:21Z</time>
      </trkpt>
      <trkpt lat="45.05633" lon="5.6623">
        <ele>437.2</ele>
        <time>2021-01-16T13:29:22Z</time>
      </trkpt>
      <trkpt lat="45.05636" lon="5.66231">
        <ele>437</ele>
        <time>2021-01-16T13:29:23Z</time>
      </trkpt>
      <trkpt lat="45.05638" lon="5.66231">
        <ele>437.2</ele>
        <time>2021-01-16T13:29:24Z</time>
      </trkpt>
      <trkpt lat="45.0564" lon="5.66231">
        <ele>437.4</ele>
        <time>2021-01-16T13:29:25Z</time>
      </trkpt>
      <trkpt lat="45.05641" lon="5.66231">
        <ele>437.6</ele>
        <time>2021-01-16T13:29:26Z</time>
      </trkpt>
      <trkpt lat="45.05642" lon="5.66231">
        <ele>438</ele>
        <time>2021-01-16T13:29:27Z</time>
      </trkpt>
      <trkpt lat="45.05643" lon="5.66231">
        <ele>438</ele>
        <time>2021-01-16T13:29:28Z</time>
      </trkpt>
      <trkpt lat="45.05643" lon="5.66231">
        <ele>438.4</ele>
        <time>2021-01-16T13:29:29Z</time>
      </trkpt>
      <trkpt lat="45.05643" lon="5.66231">
        <ele>439</ele>
        <time>2021-01-16T13:29:30Z</time>
      </trkpt>
      <trkpt lat="45.05645" lon="5.66231">
        <ele>439</ele>
        <time>2021-01-16T13:29:31Z</time>
      </trkpt>
      <trkpt lat="45.05646" lon="5.66231">
        <ele>439.4</ele>
        <time>2021-01-16T13:29:32Z</time>
      </trkpt>
      <trkpt lat="45.05647" lon="5.66231">
        <ele>439.8</ele>
        <time>2021-01-16T13:29:33Z</time>
      </trkpt>
      <trkpt lat="45.05648" lon="5.66231">
        <ele>440.6</ele>
        <time>2021-01-16T13:29:34Z</time>
      </trkpt>
      <trkpt lat="45.05648" lon="5.66231">
        <ele>440.8</ele>
        <time>2021-01-16T13:29:35Z</time>
      </trkpt>
      <trkpt lat="45.05648" lon="5.66231">
        <ele>440.8</ele>
        <time>2021-01-16T13:29:36Z</time>
      </trkpt>
      <trkpt lat="45.05651" lon="5.66231">
        <ele>441</ele>
        <time>2021-01-16T13:29:37Z</time>
      </trkpt>
      <trkpt lat="45.05652" lon="5.66231">
        <ele>441.4</ele>
        <time>2021-01-16T13:29:38Z</time>
      </trkpt>
      <trkpt lat="45.05653" lon="5.66231">
        <ele>441.6</ele>
        <time>2021-01-16T13:29:39Z</time>
      </trkpt>
      <trkpt lat="45.05653" lon="5.6623">
        <ele>442</ele>
        <time>2021-01-16T13:29:40Z</time>
      </trkpt>
      <trkpt lat="45.05654" lon="5.6623">
        <ele>442.2</ele>
        <time>2021-01-16T13:29:41Z</time>
      </trkpt>
      <trkpt lat="45.05655" lon="5.6623">
        <ele>442.6</ele>
        <time>2021-01-16T13:29:42Z</time>
      </trkpt>
      <trkpt lat="45.05655" lon="5.6623">
        <ele>442.8</ele>
        <time>2021-01-16T13:29:43Z</time>
      </trkpt>
      <trkpt lat="45.05655" lon="5.6623">
        <ele>443</ele>
        <time>2021-01-16T13:29:44Z</time>
      </trkpt>
      <trkpt lat="45.05656" lon="5.66229">
        <ele>443.4</ele>
        <time>2021-01-16T13:29:45Z</time>
      </trkpt>
      <trkpt lat="45.05657" lon="5.66228">
        <ele>443.8</ele>
        <time>2021-01-16T13:29:46Z</time>
      </trkpt>
      <trkpt lat="45.05658" lon="5.66226">
        <ele>444.2</ele>
        <time>2021-01-16T13:29:47Z</time>
      </trkpt>
      <trkpt lat="45.05659" lon="5.66225">
        <ele>444.6</ele>
        <time>2021-01-16T13:29:48Z</time>
      </trkpt>
      <trkpt lat="45.05659" lon="5.66225">
        <ele>444.8</ele>
        <time>2021-01-16T13:29:49Z</time>
      </trkpt>
      <trkpt lat="45.05659" lon="5.66225">
        <ele>445.2</ele>
        <time>2021-01-16T13:29:50Z</time>
      </trkpt>
      <trkpt lat="45.05661" lon="5.66224">
        <ele>445.6</ele>
        <time>2021-01-16T13:29:51Z</time>
      </trkpt>
      <trkpt lat="45.05661" lon="5.66224">
        <ele>446</ele>
        <time>2021-01-16T13:29:52Z</time>
      </trkpt>
      <trkpt lat="45.05661" lon="5.66224">
        <ele>446.2</ele>
        <time>2021-01-16T13:29:53Z</time>
      </trkpt>
      <trkpt lat="45.05663" lon="5.66223">
        <ele>446.4</ele>
        <time>2021-01-16T13:29:54Z</time>
      </trkpt>
      <trkpt lat="45.05664" lon="5.66221">
        <ele>446.8</ele>
        <time>2021-01-16T13:29:55Z</time>
      </trkpt>
      <trkpt lat="45.05666" lon="5.6622">
        <ele>447</ele>
        <time>2021-01-16T13:29:56Z</time>
      </trkpt>
      <trkpt lat="45.05667" lon="5.66219">
        <ele>447.4</ele>
        <time>2021-01-16T13:29:57Z</time>
      </trkpt>
      <trkpt lat="45.05669" lon="5.66218">
        <ele>447.8</ele>
        <time>2021-01-16T13:29:58Z</time>
      </trkpt>
      <trkpt lat="45.0567" lon="5.66216">
        <ele>448.2</ele>
        <time>2021-01-16T13:29:59Z</time>
      </trkpt>
      <trkpt lat="45.05671" lon="5.66215">
        <ele>448.2</ele>
        <time>2021-01-16T13:30:00Z</time>
      </trkpt>
      <trkpt lat="45.05673" lon="5.66214">
        <ele>448.6</ele>
        <time>2021-01-16T13:30:01Z</time>
      </trkpt>
      <trkpt lat="45.05674" lon="5.66213">
        <ele>449</ele>
        <time>2021-01-16T13:30:02Z</time>
      </trkpt>
      <trkpt lat="45.05682" lon="5.66205">
        <ele>449.4</ele>
        <time>2021-01-16T13:30:03Z</time>
      </trkpt>
      <trkpt lat="45.05685" lon="5.66201">
        <ele>449.8</ele>
        <time>2021-01-16T13:30:04Z</time>
      </trkpt>
      <trkpt lat="45.05685" lon="5.66201">
        <ele>450</ele>
        <time>2021-01-16T13:30:05Z</time>
      </trkpt>
      <trkpt lat="45.05685" lon="5.66201">
        <ele>450.2</ele>
        <time>2021-01-16T13:30:06Z</time>
      </trkpt>
      <trkpt lat="45.05687" lon="5.662">
        <ele>450.4</ele>
        <time>2021-01-16T13:30:07Z</time>
      </trkpt>
      <trkpt lat="45.05689" lon="5.66198">
        <ele>450.8</ele>
        <time>2021-01-16T13:30:08Z</time>
      </trkpt>
      <trkpt lat="45.05691" lon="5.66196">
        <ele>451</ele>
        <time>2021-01-16T13:30:09Z</time>
      </trkpt>
      <trkpt lat="45.05693" lon="5.66195">
        <ele>451.2</ele>
        <time>2021-01-16T13:30:10Z</time>
      </trkpt>
      <trkpt lat="45.05695" lon="5.66193">
        <ele>451.8</ele>
        <time>2021-01-16T13:30:11Z</time>
      </trkpt>
      <trkpt lat="45.05696" lon="5.66192">
        <ele>452</ele>
        <time>2021-01-16T13:30:12Z</time>
      </trkpt>
      <trkpt lat="45.05698" lon="5.66191">
        <ele>452.2</ele>
        <time>2021-01-16T13:30:13Z</time>
      </trkpt>
      <trkpt lat="45.05699" lon="5.6619">
        <ele>452.4</ele>
        <time>2021-01-16T13:30:14Z</time>
      </trkpt>
      <trkpt lat="45.057" lon="5.66189">
        <ele>452.6</ele>
        <time>2021-01-16T13:30:15Z</time>
      </trkpt>
      <trkpt lat="45.05702" lon="5.66188">
        <ele>452.8</ele>
        <time>2021-01-16T13:30:16Z</time>
      </trkpt>
      <trkpt lat="45.05703" lon="5.66187">
        <ele>453.2</ele>
        <time>2021-01-16T13:30:17Z</time>
      </trkpt>
      <trkpt lat="45.05705" lon="5.66186">
        <ele>453.4</ele>
        <time>2021-01-16T13:30:18Z</time>
      </trkpt>
      <trkpt lat="45.05706" lon="5.66186">
        <ele>453.4</ele>
        <time>2021-01-16T13:30:19Z</time>
      </trkpt>
      <trkpt lat="45.05708" lon="5.66186">
        <ele>453.8</ele>
        <time>2021-01-16T13:30:20Z</time>
      </trkpt>
      <trkpt lat="45.05709" lon="5.66185">
        <ele>454</ele>
        <time>2021-01-16T13:30:21Z</time>
      </trkpt>
      <trkpt lat="45.05711" lon="5.66185">
        <ele>454.2</ele>
        <time>2021-01-16T13:30:22Z</time>
      </trkpt>
      <trkpt lat="45.05712" lon="5.66184">
        <ele>454.4</ele>
        <time>2021-01-16T13:30:23Z</time>
      </trkpt>
      <trkpt lat="45.05713" lon="5.66184">
        <ele>454.8</ele>
        <time>2021-01-16T13:30:24Z</time>
      </trkpt>
      <trkpt lat="45.05715" lon="5.66184">
        <ele>455</ele>
        <time>2021-01-16T13:30:25Z</time>
      </trkpt>
      <trkpt lat="45.05716" lon="5.66184">
        <ele>455.2</ele>
        <time>2021-01-16T13:30:26Z</time>
      </trkpt>
      <trkpt lat="45.05717" lon="5.66184">
        <ele>455.6</ele>
        <time>2021-01-16T13:30:27Z</time>
      </trkpt>
      <trkpt lat="45.05718" lon="5.66184">
        <ele>456</ele>
        <time>2021-01-16T13:30:28Z</time>
      </trkpt>
      <trkpt lat="45.0572" lon="5.66183">
        <ele>456.2</ele>
        <time>2021-01-16T13:30:29Z</time>
      </trkpt>
      <trkpt lat="45.05721" lon="5.66183">
        <ele>456.6</ele>
        <time>2021-01-16T13:30:30Z</time>
      </trkpt>
      <trkpt lat="45.05722" lon="5.66183">
        <ele>456.8</ele>
        <time>2021-01-16T13:30:31Z</time>
      </trkpt>
      <trkpt lat="45.05723" lon="5.66183">
        <ele>457</ele>
        <time>2021-01-16T13:30:32Z</time>
      </trkpt>
      <trkpt lat="45.05724" lon="5.66182">
        <ele>457.4</ele>
        <time>2021-01-16T13:30:33Z</time>
      </trkpt>
      <trkpt lat="45.05726" lon="5.66181">
        <ele>457.6</ele>
        <time>2021-01-16T13:30:34Z</time>
      </trkpt>
      <trkpt lat="45.05727" lon="5.66181">
        <ele>458</ele>
        <time>2021-01-16T13:30:35Z</time>
      </trkpt>
      <trkpt lat="45.05728" lon="5.6618">
        <ele>458.4</ele>
        <time>2021-01-16T13:30:36Z</time>
      </trkpt>
      <trkpt lat="45.0573" lon="5.66179">
        <ele>458.8</ele>
        <time>2021-01-16T13:30:37Z</time>
      </trkpt>
      <trkpt lat="45.05731" lon="5.66178">
        <ele>459</ele>
        <time>2021-01-16T13:30:38Z</time>
      </trkpt>
      <trkpt lat="45.05732" lon="5.66177">
        <ele>459.2</ele>
        <time>2021-01-16T13:30:39Z</time>
      </trkpt>
      <trkpt lat="45.05734" lon="5.66178">
        <ele>459.6</ele>
        <time>2021-01-16T13:30:40Z</time>
      </trkpt>
      <trkpt lat="45.05736" lon="5.66178">
        <ele>459.8</ele>
        <time>2021-01-16T13:30:41Z</time>
      </trkpt>
      <trkpt lat="45.05737" lon="5.66179">
        <ele>460.2</ele>
        <time>2021-01-16T13:30:42Z</time>
      </trkpt>
      <trkpt lat="45.05739" lon="5.6618">
        <ele>460.4</ele>
        <time>2021-01-16T13:30:43Z</time>
      </trkpt>
      <trkpt lat="45.05741" lon="5.6618">
        <ele>460.8</ele>
        <time>2021-01-16T13:30:44Z</time>
      </trkpt>
      <trkpt lat="45.05742" lon="5.66181">
        <ele>461</ele>
        <time>2021-01-16T13:30:45Z</time>
      </trkpt>
      <trkpt lat="45.05744" lon="5.66181">
        <ele>461.2</ele>
        <time>2021-01-16T13:30:46Z</time>
      </trkpt>
      <trkpt lat="45.05745" lon="5.66182">
        <ele>461.4</ele>
        <time>2021-01-16T13:30:47Z</time>
      </trkpt>
      <trkpt lat="45.05746" lon="5.66182">
        <ele>461.8</ele>
        <time>2021-01-16T13:30:48Z</time>
      </trkpt>
      <trkpt lat="45.05747" lon="5.66183">
        <ele>462</ele>
        <time>2021-01-16T13:30:49Z</time>
      </trkpt>
      <trkpt lat="45.05749" lon="5.66183">
        <ele>462.2</ele>
        <time>2021-01-16T13:30:50Z</time>
      </trkpt>
      <trkpt lat="45.0575" lon="5.66184">
        <ele>462.4</ele>
        <time>2021-01-16T13:30:51Z</time>
      </trkpt>
      <trkpt lat="45.05751" lon="5.66185">
        <ele>462.8</ele>
        <time>2021-01-16T13:30:52Z</time>
      </trkpt>
      <trkpt lat="45.05754" lon="5.66183">
        <ele>463</ele>
        <time>2021-01-16T13:30:53Z</time>
      </trkpt>
      <trkpt lat="45.05754" lon="5.66183">
        <ele>463.4</ele>
        <time>2021-01-16T13:30:54Z</time>
      </trkpt>
      <trkpt lat="45.05754" lon="5.66183">
        <ele>463.6</ele>
        <time>2021-01-16T13:30:55Z</time>
      </trkpt>
      <trkpt lat="45.05754" lon="5.66183">
        <ele>463.8</ele>
        <time>2021-01-16T13:30:56Z</time>
      </trkpt>
      <trkpt lat="45.05753" lon="5.66181">
        <ele>464.2</ele>
        <time>2021-01-16T13:30:57Z</time>
      </trkpt>
      <trkpt lat="45.05753" lon="5.6618">
        <ele>464.4</ele>
        <time>2021-01-16T13:30:58Z</time>
      </trkpt>
      <trkpt lat="45.05752" lon="5.66178">
        <ele>464.6</ele>
        <time>2021-01-16T13:30:59Z</time>
      </trkpt>
      <trkpt lat="45.05751" lon="5.66176">
        <ele>465</ele>
        <time>2021-01-16T13:31:00Z</time>
      </trkpt>
      <trkpt lat="45.0575" lon="5.66174">
        <ele>465.4</ele>
        <time>2021-01-16T13:31:01Z</time>
      </trkpt>
      <trkpt lat="45.0575" lon="5.66173">
        <ele>465.6</ele>
        <time>2021-01-16T13:31:02Z</time>
      </trkpt>
      <trkpt lat="45.05749" lon="5.66171">
        <ele>465.8</ele>
        <time>2021-01-16T13:31:03Z</time>
      </trkpt>
      <trkpt lat="45.05749" lon="5.66171">
        <ele>466</ele>
        <time>2021-01-16T13:31:04Z</time>
      </trkpt>
      <trkpt lat="45.05749" lon="5.66171">
        <ele>466.4</ele>
        <time>2021-01-16T13:31:05Z</time>
      </trkpt>
      <trkpt lat="45.05747" lon="5.6617">
        <ele>466.6</ele>
        <time>2021-01-16T13:31:06Z</time>
      </trkpt>
      <trkpt lat="45.05745" lon="5.66169">
        <ele>466.6</ele>
        <time>2021-01-16T13:31:07Z</time>
      </trkpt>
      <trkpt lat="45.05742" lon="5.66169">
        <ele>467</ele>
        <time>2021-01-16T13:31:08Z</time>
      </trkpt>
      <trkpt lat="45.0574" lon="5.66168">
        <ele>467.4</ele>
        <time>2021-01-16T13:31:09Z</time>
      </trkpt>
      <trkpt lat="45.05738" lon="5.66167">
        <ele>467.6</ele>
        <time>2021-01-16T13:31:10Z</time>
      </trkpt>
      <trkpt lat="45.05735" lon="5.66167">
        <ele>468</ele>
        <time>2021-01-16T13:31:11Z</time>
      </trkpt>
      <trkpt lat="45.05734" lon="5.66166">
        <ele>468.2</ele>
        <time>2021-01-16T13:31:12Z</time>
      </trkpt>
      <trkpt lat="45.05733" lon="5.66166">
        <ele>468.4</ele>
        <time>2021-01-16T13:31:13Z</time>
      </trkpt>
      <trkpt lat="45.05732" lon="5.66166">
        <ele>468.8</ele>
        <time>2021-01-16T13:31:14Z</time>
      </trkpt>
      <trkpt lat="45.05731" lon="5.66166">
        <ele>469</ele>
        <time>2021-01-16T13:31:15Z</time>
      </trkpt>
      <trkpt lat="45.0573" lon="5.66166">
        <ele>469.2</ele>
        <time>2021-01-16T13:31:16Z</time>
      </trkpt>
      <trkpt lat="45.05729" lon="5.66166">
        <ele>469.4</ele>
        <time>2021-01-16T13:31:17Z</time>
      </trkpt>
      <trkpt lat="45.05729" lon="5.66166">
        <ele>469.6</ele>
        <time>2021-01-16T13:31:18Z</time>
      </trkpt>
      <trkpt lat="45.05729" lon="5.66166">
        <ele>469.8</ele>
        <time>2021-01-16T13:31:19Z</time>
      </trkpt>
      <trkpt lat="45.05728" lon="5.66163">
        <ele>469.8</ele>
        <time>2021-01-16T13:31:20Z</time>
      </trkpt>
      <trkpt lat="45.05727" lon="5.66162">
        <ele>470</ele>
        <time>2021-01-16T13:31:21Z</time>
      </trkpt>
      <trkpt lat="45.05726" lon="5.66162">
        <ele>470.4</ele>
        <time>2021-01-16T13:31:22Z</time>
      </trkpt>
      <trkpt lat="45.05726" lon="5.66161">
        <ele>470.4</ele>
        <time>2021-01-16T13:31:23Z</time>
      </trkpt>
      <trkpt lat="45.05725" lon="5.66161">
        <ele>470.6</ele>
        <time>2021-01-16T13:31:24Z</time>
      </trkpt>
      <trkpt lat="45.05724" lon="5.66161">
        <ele>471</ele>
        <time>2021-01-16T13:31:25Z</time>
      </trkpt>
      <trkpt lat="45.05724" lon="5.6616">
        <ele>471.2</ele>
        <time>2021-01-16T13:31:26Z</time>
      </trkpt>
      <trkpt lat="45.05723" lon="5.6616">
        <ele>471.4</ele>
        <time>2021-01-16T13:31:27Z</time>
      </trkpt>
      <trkpt lat="45.05722" lon="5.66159">
        <ele>471.6</ele>
        <time>2021-01-16T13:31:28Z</time>
      </trkpt>
      <trkpt lat="45.05722" lon="5.66159">
        <ele>471.8</ele>
        <time>2021-01-16T13:31:29Z</time>
      </trkpt>
      <trkpt lat="45.05721" lon="5.66158">
        <ele>472</ele>
        <time>2021-01-16T13:31:30Z</time>
      </trkpt>
      <trkpt lat="45.0572" lon="5.66158">
        <ele>472.2</ele>
        <time>2021-01-16T13:31:31Z</time>
      </trkpt>
      <trkpt lat="45.0572" lon="5.66158">
        <ele>472.4</ele>
        <time>2021-01-16T13:31:32Z</time>
      </trkpt>
      <trkpt lat="45.05719" lon="5.66157">
        <ele>472.4</ele>
        <time>2021-01-16T13:31:33Z</time>
      </trkpt>
      <trkpt lat="45.05718" lon="5.66157">
        <ele>472.8</ele>
        <time>2021-01-16T13:31:34Z</time>
      </trkpt>
      <trkpt lat="45.05718" lon="5.66156">
        <ele>473</ele>
        <time>2021-01-16T13:31:35Z</time>
      </trkpt>
      <trkpt lat="45.05717" lon="5.66156">
        <ele>473</ele>
        <time>2021-01-16T13:31:36Z</time>
      </trkpt>
      <trkpt lat="45.05716" lon="5.66155">
        <ele>473.4</ele>
        <time>2021-01-16T13:31:37Z</time>
      </trkpt>
      <trkpt lat="45.05715" lon="5.66155">
        <ele>473.6</ele>
        <time>2021-01-16T13:31:38Z</time>
      </trkpt>
      <trkpt lat="45.05715" lon="5.66154">
        <ele>474.2</ele>
        <time>2021-01-16T13:31:39Z</time>
      </trkpt>
      <trkpt lat="45.05714" lon="5.66154">
        <ele>474.4</ele>
        <time>2021-01-16T13:31:40Z</time>
      </trkpt>
      <trkpt lat="45.05714" lon="5.66154">
        <ele>474.6</ele>
        <time>2021-01-16T13:31:41Z</time>
      </trkpt>
      <trkpt lat="45.05714" lon="5.66154">
        <ele>474.8</ele>
        <time>2021-01-16T13:31:42Z</time>
      </trkpt>
      <trkpt lat="45.05712" lon="5.66152">
        <ele>475</ele>
        <time>2021-01-16T13:31:43Z</time>
      </trkpt>
      <trkpt lat="45.05712" lon="5.66152">
        <ele>475</ele>
        <time>2021-01-16T13:31:44Z</time>
      </trkpt>
      <trkpt lat="45.05712" lon="5.66152">
        <ele>475.2</ele>
        <time>2021-01-16T13:31:45Z</time>
      </trkpt>
      <trkpt lat="45.05712" lon="5.66152">
        <ele>475.4</ele>
        <time>2021-01-16T13:31:46Z</time>
      </trkpt>
      <trkpt lat="45.05712" lon="5.66152">
        <ele>475.6</ele>
        <time>2021-01-16T13:31:47Z</time>
      </trkpt>
      <trkpt lat="45.05712" lon="5.66152">
        <ele>475.8</ele>
        <time>2021-01-16T13:31:48Z</time>
      </trkpt>
      <trkpt lat="45.05712" lon="5.66152">
        <ele>476.2</ele>
        <time>2021-01-16T13:31:49Z</time>
      </trkpt>
      <trkpt lat="45.05712" lon="5.66152">
        <ele>476.4</ele>
        <time>2021-01-16T13:31:50Z</time>
      </trkpt>
      <trkpt lat="45.05712" lon="5.66152">
        <ele>476.8</ele>
        <time>2021-01-16T13:31:51Z</time>
      </trkpt>
      <trkpt lat="45.05712" lon="5.66152">
        <ele>477</ele>
        <time>2021-01-16T13:31:52Z</time>
      </trkpt>
      <trkpt lat="45.05709" lon="5.66149">
        <ele>477.4</ele>
        <time>2021-01-16T13:31:53Z</time>
      </trkpt>
      <trkpt lat="45.05709" lon="5.66149">
        <ele>477.8</ele>
        <time>2021-01-16T13:31:54Z</time>
      </trkpt>
      <trkpt lat="45.05708" lon="5.6615">
        <ele>478</ele>
        <time>2021-01-16T13:31:55Z</time>
      </trkpt>
      <trkpt lat="45.05707" lon="5.6615">
        <ele>478.4</ele>
        <time>2021-01-16T13:31:56Z</time>
      </trkpt>
      <trkpt lat="45.05707" lon="5.6615">
        <ele>478.6</ele>
        <time>2021-01-16T13:31:57Z</time>
      </trkpt>
      <trkpt lat="45.05706" lon="5.6615">
        <ele>479</ele>
        <time>2021-01-16T13:31:58Z</time>
      </trkpt>
      <trkpt lat="45.05705" lon="5.66151">
        <ele>479.2</ele>
        <time>2021-01-16T13:31:59Z</time>
      </trkpt>
      <trkpt lat="45.05705" lon="5.66151">
        <ele>479.4</ele>
        <time>2021-01-16T13:32:00Z</time>
      </trkpt>
      <trkpt lat="45.05703" lon="5.66152">
        <ele>479.4</ele>
        <time>2021-01-16T13:32:01Z</time>
      </trkpt>
      <trkpt lat="45.05703" lon="5.66152">
        <ele>479.8</ele>
        <time>2021-01-16T13:32:02Z</time>
      </trkpt>
      <trkpt lat="45.05703" lon="5.66152">
        <ele>480</ele>
        <time>2021-01-16T13:32:03Z</time>
      </trkpt>
      <trkpt lat="45.05701" lon="5.66151">
        <ele>480</ele>
        <time>2021-01-16T13:32:04Z</time>
      </trkpt>
      <trkpt lat="45.05698" lon="5.6615">
        <ele>480.4</ele>
        <time>2021-01-16T13:32:05Z</time>
      </trkpt>
      <trkpt lat="45.05695" lon="5.66149">
        <ele>480.6</ele>
        <time>2021-01-16T13:32:06Z</time>
      </trkpt>
      <trkpt lat="45.05693" lon="5.66148">
        <ele>480.8</ele>
        <time>2021-01-16T13:32:07Z</time>
      </trkpt>
      <trkpt lat="45.0569" lon="5.66147">
        <ele>480.8</ele>
        <time>2021-01-16T13:32:08Z</time>
      </trkpt>
      <trkpt lat="45.05685" lon="5.66146">
        <ele>481.4</ele>
        <time>2021-01-16T13:32:09Z</time>
      </trkpt>
      <trkpt lat="45.05685" lon="5.66146">
        <ele>481.6</ele>
        <time>2021-01-16T13:32:10Z</time>
      </trkpt>
      <trkpt lat="45.05683" lon="5.66146">
        <ele>482.2</ele>
        <time>2021-01-16T13:32:11Z</time>
      </trkpt>
      <trkpt lat="45.0568" lon="5.66145">
        <ele>482.4</ele>
        <time>2021-01-16T13:32:12Z</time>
      </trkpt>
      <trkpt lat="45.05677" lon="5.66144">
        <ele>483</ele>
        <time>2021-01-16T13:32:13Z</time>
      </trkpt>
      <trkpt lat="45.05671" lon="5.66142">
        <ele>483.2</ele>
        <time>2021-01-16T13:32:14Z</time>
      </trkpt>
      <trkpt lat="45.05668" lon="5.66141">
        <ele>483.6</ele>
        <time>2021-01-16T13:32:15Z</time>
      </trkpt>
      <trkpt lat="45.05666" lon="5.66141">
        <ele>483.6</ele>
        <time>2021-01-16T13:32:16Z</time>
      </trkpt>
      <trkpt lat="45.05664" lon="5.6614">
        <ele>483.6</ele>
        <time>2021-01-16T13:32:17Z</time>
      </trkpt>
      <trkpt lat="45.05662" lon="5.66139">
        <ele>483.2</ele>
        <time>2021-01-16T13:32:18Z</time>
      </trkpt>
      <trkpt lat="45.0566" lon="5.66138">
        <ele>483.2</ele>
        <time>2021-01-16T13:32:19Z</time>
      </trkpt>
      <trkpt lat="45.05658" lon="5.66137">
        <ele>483.4</ele>
        <time>2021-01-16T13:32:20Z</time>
      </trkpt>
      <trkpt lat="45.05656" lon="5.66136">
        <ele>483.4</ele>
        <time>2021-01-16T13:32:21Z</time>
      </trkpt>
      <trkpt lat="45.05656" lon="5.66136">
        <ele>483.8</ele>
        <time>2021-01-16T13:32:22Z</time>
      </trkpt>
      <trkpt lat="45.05654" lon="5.66135">
        <ele>484</ele>
        <time>2021-01-16T13:32:23Z</time>
      </trkpt>
      <trkpt lat="45.05651" lon="5.66134">
        <ele>484.6</ele>
        <time>2021-01-16T13:32:24Z</time>
      </trkpt>
      <trkpt lat="45.05648" lon="5.66133">
        <ele>484.6</ele>
        <time>2021-01-16T13:32:25Z</time>
      </trkpt>
      <trkpt lat="45.05645" lon="5.66132">
        <ele>485</ele>
        <time>2021-01-16T13:32:26Z</time>
      </trkpt>
      <trkpt lat="45.05644" lon="5.66132">
        <ele>485.2</ele>
        <time>2021-01-16T13:32:27Z</time>
      </trkpt>
      <trkpt lat="45.05643" lon="5.66131">
        <ele>485.6</ele>
        <time>2021-01-16T13:32:28Z</time>
      </trkpt>
      <trkpt lat="45.05642" lon="5.66131">
        <ele>485.6</ele>
        <time>2021-01-16T13:32:29Z</time>
      </trkpt>
      <trkpt lat="45.05638" lon="5.66128">
        <ele>486</ele>
        <time>2021-01-16T13:32:30Z</time>
      </trkpt>
      <trkpt lat="45.05636" lon="5.66126">
        <ele>485.8</ele>
        <time>2021-01-16T13:32:31Z</time>
      </trkpt>
      <trkpt lat="45.05634" lon="5.66124">
        <ele>485.8</ele>
        <time>2021-01-16T13:32:32Z</time>
      </trkpt>
      <trkpt lat="45.05632" lon="5.66122">
        <ele>486</ele>
        <time>2021-01-16T13:32:33Z</time>
      </trkpt>
      <trkpt lat="45.05631" lon="5.66121">
        <ele>486.2</ele>
        <time>2021-01-16T13:32:34Z</time>
      </trkpt>
      <trkpt lat="45.0563" lon="5.6612">
        <ele>486.6</ele>
        <time>2021-01-16T13:32:35Z</time>
      </trkpt>
      <trkpt lat="45.05629" lon="5.66119">
        <ele>486.8</ele>
        <time>2021-01-16T13:32:36Z</time>
      </trkpt>
      <trkpt lat="45.05627" lon="5.66118">
        <ele>487.4</ele>
        <time>2021-01-16T13:32:37Z</time>
      </trkpt>
      <trkpt lat="45.05625" lon="5.66117">
        <ele>487.8</ele>
        <time>2021-01-16T13:32:38Z</time>
      </trkpt>
      <trkpt lat="45.05621" lon="5.66114">
        <ele>488.6</ele>
        <time>2021-01-16T13:32:39Z</time>
      </trkpt>
      <trkpt lat="45.05621" lon="5.66114">
        <ele>488.6</ele>
        <time>2021-01-16T13:32:40Z</time>
      </trkpt>
      <trkpt lat="45.05619" lon="5.66113">
        <ele>489</ele>
        <time>2021-01-16T13:32:41Z</time>
      </trkpt>
      <trkpt lat="45.05619" lon="5.66113">
        <ele>489.2</ele>
        <time>2021-01-16T13:32:42Z</time>
      </trkpt>
      <trkpt lat="45.05617" lon="5.66112">
        <ele>489.2</ele>
        <time>2021-01-16T13:32:43Z</time>
      </trkpt>
      <trkpt lat="45.05617" lon="5.66112">
        <ele>489.2</ele>
        <time>2021-01-16T13:32:44Z</time>
      </trkpt>
      <trkpt lat="45.05616" lon="5.6611">
        <ele>489.6</ele>
        <time>2021-01-16T13:32:45Z</time>
      </trkpt>
      <trkpt lat="45.05615" lon="5.66109">
        <ele>490</ele>
        <time>2021-01-16T13:32:46Z</time>
      </trkpt>
      <trkpt lat="45.05614" lon="5.66108">
        <ele>490.4</ele>
        <time>2021-01-16T13:32:47Z</time>
      </trkpt>
      <trkpt lat="45.05613" lon="5.66106">
        <ele>490.6</ele>
        <time>2021-01-16T13:32:48Z</time>
      </trkpt>
      <trkpt lat="45.05611" lon="5.66102">
        <ele>491</ele>
        <time>2021-01-16T13:32:49Z</time>
      </trkpt>
      <trkpt lat="45.05609" lon="5.661">
        <ele>491.2</ele>
        <time>2021-01-16T13:32:50Z</time>
      </trkpt>
      <trkpt lat="45.05608" lon="5.66098">
        <ele>491.4</ele>
        <time>2021-01-16T13:32:51Z</time>
      </trkpt>
      <trkpt lat="45.05607" lon="5.66098">
        <ele>491.6</ele>
        <time>2021-01-16T13:32:52Z</time>
      </trkpt>
      <trkpt lat="45.05606" lon="5.66097">
        <ele>492</ele>
        <time>2021-01-16T13:32:53Z</time>
      </trkpt>
      <trkpt lat="45.05605" lon="5.66096">
        <ele>492.4</ele>
        <time>2021-01-16T13:32:54Z</time>
      </trkpt>
      <trkpt lat="45.05604" lon="5.66095">
        <ele>492.6</ele>
        <time>2021-01-16T13:32:55Z</time>
      </trkpt>
      <trkpt lat="45.05604" lon="5.66095">
        <ele>492.8</ele>
        <time>2021-01-16T13:32:56Z</time>
      </trkpt>
      <trkpt lat="45.05602" lon="5.66094">
        <ele>493.2</ele>
        <time>2021-01-16T13:32:57Z</time>
      </trkpt>
      <trkpt lat="45.05602" lon="5.66094">
        <ele>493.4</ele>
        <time>2021-01-16T13:32:58Z</time>
      </trkpt>
      <trkpt lat="45.056" lon="5.66092">
        <ele>493.8</ele>
        <time>2021-01-16T13:32:59Z</time>
      </trkpt>
      <trkpt lat="45.05597" lon="5.6609">
        <ele>494</ele>
        <time>2021-01-16T13:33:00Z</time>
      </trkpt>
      <trkpt lat="45.05594" lon="5.66088">
        <ele>494.4</ele>
        <time>2021-01-16T13:33:01Z</time>
      </trkpt>
      <trkpt lat="45.05593" lon="5.66086">
        <ele>494.6</ele>
        <time>2021-01-16T13:33:02Z</time>
      </trkpt>
      <trkpt lat="45.05592" lon="5.66085">
        <ele>494.8</ele>
        <time>2021-01-16T13:33:03Z</time>
      </trkpt>
      <trkpt lat="45.0559" lon="5.66083">
        <ele>495</ele>
        <time>2021-01-16T13:33:04Z</time>
      </trkpt>
      <trkpt lat="45.05589" lon="5.66082">
        <ele>495.2</ele>
        <time>2021-01-16T13:33:05Z</time>
      </trkpt>
      <trkpt lat="45.05589" lon="5.66082">
        <ele>495.4</ele>
        <time>2021-01-16T13:33:06Z</time>
      </trkpt>
      <trkpt lat="45.05588" lon="5.66081">
        <ele>495.8</ele>
        <time>2021-01-16T13:33:07Z</time>
      </trkpt>
      <trkpt lat="45.05588" lon="5.66081">
        <ele>496</ele>
        <time>2021-01-16T13:33:08Z</time>
      </trkpt>
      <trkpt lat="45.05586" lon="5.6608">
        <ele>496.2</ele>
        <time>2021-01-16T13:33:09Z</time>
      </trkpt>
      <trkpt lat="45.05586" lon="5.6608">
        <ele>496.4</ele>
        <time>2021-01-16T13:33:10Z</time>
      </trkpt>
      <trkpt lat="45.05586" lon="5.6608">
        <ele>496.6</ele>
        <time>2021-01-16T13:33:11Z</time>
      </trkpt>
      <trkpt lat="45.05585" lon="5.66078">
        <ele>497</ele>
        <time>2021-01-16T13:33:12Z</time>
      </trkpt>
      <trkpt lat="45.05583" lon="5.66077">
        <ele>497.2</ele>
        <time>2021-01-16T13:33:13Z</time>
      </trkpt>
      <trkpt lat="45.05582" lon="5.66076">
        <ele>497.6</ele>
        <time>2021-01-16T13:33:14Z</time>
      </trkpt>
      <trkpt lat="45.05581" lon="5.66074">
        <ele>497.8</ele>
        <time>2021-01-16T13:33:15Z</time>
      </trkpt>
      <trkpt lat="45.0558" lon="5.66073">
        <ele>498.2</ele>
        <time>2021-01-16T13:33:16Z</time>
      </trkpt>
      <trkpt lat="45.0558" lon="5.66073">
        <ele>498.6</ele>
        <time>2021-01-16T13:33:17Z</time>
      </trkpt>
      <trkpt lat="45.05578" lon="5.66069">
        <ele>498.8</ele>
        <time>2021-01-16T13:33:18Z</time>
      </trkpt>
      <trkpt lat="45.05578" lon="5.66069">
        <ele>499</ele>
        <time>2021-01-16T13:33:19Z</time>
      </trkpt>
      <trkpt lat="45.05575" lon="5.66066">
        <ele>499.2</ele>
        <time>2021-01-16T13:33:20Z</time>
      </trkpt>
      <trkpt lat="45.05572" lon="5.66063">
        <ele>499.6</ele>
        <time>2021-01-16T13:33:21Z</time>
      </trkpt>
      <trkpt lat="45.05572" lon="5.66063">
        <ele>499.8</ele>
        <time>2021-01-16T13:33:22Z</time>
      </trkpt>
      <trkpt lat="45.0557" lon="5.66061">
        <ele>500</ele>
        <time>2021-01-16T13:33:23Z</time>
      </trkpt>
      <trkpt lat="45.05567" lon="5.66059">
        <ele>500.2</ele>
        <time>2021-01-16T13:33:24Z</time>
      </trkpt>
      <trkpt lat="45.05567" lon="5.66059">
        <ele>500.6</ele>
        <time>2021-01-16T13:33:25Z</time>
      </trkpt>
      <trkpt lat="45.05565" lon="5.66058">
        <ele>501</ele>
        <time>2021-01-16T13:33:26Z</time>
      </trkpt>
      <trkpt lat="45.05565" lon="5.66058">
        <ele>501</ele>
        <time>2021-01-16T13:33:27Z</time>
      </trkpt>
      <trkpt lat="45.05565" lon="5.66058">
        <ele>501.2</ele>
        <time>2021-01-16T13:33:28Z</time>
      </trkpt>
      <trkpt lat="45.05565" lon="5.66058">
        <ele>501.2</ele>
        <time>2021-01-16T13:33:29Z</time>
      </trkpt>
      <trkpt lat="45.05564" lon="5.66055">
        <ele>501.4</ele>
        <time>2021-01-16T13:33:30Z</time>
      </trkpt>
      <trkpt lat="45.05564" lon="5.66055">
        <ele>501.8</ele>
        <time>2021-01-16T13:33:31Z</time>
      </trkpt>
      <trkpt lat="45.05562" lon="5.66054">
        <ele>502.2</ele>
        <time>2021-01-16T13:33:32Z</time>
      </trkpt>
      <trkpt lat="45.0556" lon="5.66052">
        <ele>502.4</ele>
        <time>2021-01-16T13:33:33Z</time>
      </trkpt>
      <trkpt lat="45.0556" lon="5.66052">
        <ele>502.8</ele>
        <time>2021-01-16T13:33:34Z</time>
      </trkpt>
      <trkpt lat="45.0556" lon="5.66052">
        <ele>502.8</ele>
        <time>2021-01-16T13:33:35Z</time>
      </trkpt>
      <trkpt lat="45.05558" lon="5.6605">
        <ele>503</ele>
        <time>2021-01-16T13:33:36Z</time>
      </trkpt>
      <trkpt lat="45.05554" lon="5.66047">
        <ele>503.2</ele>
        <time>2021-01-16T13:33:37Z</time>
      </trkpt>
      <trkpt lat="45.05554" lon="5.66047">
        <ele>503.4</ele>
        <time>2021-01-16T13:33:38Z</time>
      </trkpt>
      <trkpt lat="45.05553" lon="5.66046">
        <ele>503.6</ele>
        <time>2021-01-16T13:33:39Z</time>
      </trkpt>
      <trkpt lat="45.05551" lon="5.66044">
        <ele>503.8</ele>
        <time>2021-01-16T13:33:40Z</time>
      </trkpt>
      <trkpt lat="45.0555" lon="5.66043">
        <ele>504</ele>
        <time>2021-01-16T13:33:41Z</time>
      </trkpt>
      <trkpt lat="45.05549" lon="5.66042">
        <ele>504.4</ele>
        <time>2021-01-16T13:33:42Z</time>
      </trkpt>
      <trkpt lat="45.05549" lon="5.66042">
        <ele>504.6</ele>
        <time>2021-01-16T13:33:43Z</time>
      </trkpt>
      <trkpt lat="45.05549" lon="5.66042">
        <ele>505</ele>
        <time>2021-01-16T13:33:44Z</time>
      </trkpt>
      <trkpt lat="45.05547" lon="5.66039">
        <ele>505.4</ele>
        <time>2021-01-16T13:33:45Z</time>
      </trkpt>
      <trkpt lat="45.05545" lon="5.66037">
        <ele>505.6</ele>
        <time>2021-01-16T13:33:46Z</time>
      </trkpt>
      <trkpt lat="45.05544" lon="5.66035">
        <ele>505.8</ele>
        <time>2021-01-16T13:33:47Z</time>
      </trkpt>
      <trkpt lat="45.05542" lon="5.66033">
        <ele>506</ele>
        <time>2021-01-16T13:33:48Z</time>
      </trkpt>
      <trkpt lat="45.05541" lon="5.66031">
        <ele>506.4</ele>
        <time>2021-01-16T13:33:49Z</time>
      </trkpt>
      <trkpt lat="45.05539" lon="5.66029">
        <ele>506.6</ele>
        <time>2021-01-16T13:33:50Z</time>
      </trkpt>
      <trkpt lat="45.05536" lon="5.66027">
        <ele>506.8</ele>
        <time>2021-01-16T13:33:51Z</time>
      </trkpt>
      <trkpt lat="45.05536" lon="5.66027">
        <ele>507.2</ele>
        <time>2021-01-16T13:33:52Z</time>
      </trkpt>
      <trkpt lat="45.05533" lon="5.66025">
        <ele>507.4</ele>
        <time>2021-01-16T13:33:53Z</time>
      </trkpt>
      <trkpt lat="45.05533" lon="5.66025">
        <ele>507.8</ele>
        <time>2021-01-16T13:33:54Z</time>
      </trkpt>
      <trkpt lat="45.05532" lon="5.66023">
        <ele>508</ele>
        <time>2021-01-16T13:33:55Z</time>
      </trkpt>
      <trkpt lat="45.05528" lon="5.6602">
        <ele>508.4</ele>
        <time>2021-01-16T13:33:56Z</time>
      </trkpt>
      <trkpt lat="45.05528" lon="5.6602">
        <ele>508.8</ele>
        <time>2021-01-16T13:33:57Z</time>
      </trkpt>
      <trkpt lat="45.05528" lon="5.6602">
        <ele>509.2</ele>
        <time>2021-01-16T13:33:58Z</time>
      </trkpt>
      <trkpt lat="45.05526" lon="5.66017">
        <ele>509.4</ele>
        <time>2021-01-16T13:33:59Z</time>
      </trkpt>
      <trkpt lat="45.05526" lon="5.66017">
        <ele>509.6</ele>
        <time>2021-01-16T13:34:00Z</time>
      </trkpt>
      <trkpt lat="45.05526" lon="5.66017">
        <ele>510</ele>
        <time>2021-01-16T13:34:01Z</time>
      </trkpt>
      <trkpt lat="45.05524" lon="5.66014">
        <ele>510</ele>
        <time>2021-01-16T13:34:02Z</time>
      </trkpt>
      <trkpt lat="45.05524" lon="5.66014">
        <ele>510.2</ele>
        <time>2021-01-16T13:34:03Z</time>
      </trkpt>
      <trkpt lat="45.05521" lon="5.66012">
        <ele>510</ele>
        <time>2021-01-16T13:34:04Z</time>
      </trkpt>
      <trkpt lat="45.05521" lon="5.66012">
        <ele>510</ele>
        <time>2021-01-16T13:34:05Z</time>
      </trkpt>
      <trkpt lat="45.05519" lon="5.6601">
        <ele>510.2</ele>
        <time>2021-01-16T13:34:06Z</time>
      </trkpt>
      <trkpt lat="45.05517" lon="5.66008">
        <ele>510.6</ele>
        <time>2021-01-16T13:34:07Z</time>
      </trkpt>
      <trkpt lat="45.05516" lon="5.66007">
        <ele>510.8</ele>
        <time>2021-01-16T13:34:08Z</time>
      </trkpt>
      <trkpt lat="45.05514" lon="5.66005">
        <ele>511.2</ele>
        <time>2021-01-16T13:34:09Z</time>
      </trkpt>
      <trkpt lat="45.05513" lon="5.66003">
        <ele>511.4</ele>
        <time>2021-01-16T13:34:10Z</time>
      </trkpt>
      <trkpt lat="45.05511" lon="5.66">
        <ele>511.8</ele>
        <time>2021-01-16T13:34:11Z</time>
      </trkpt>
      <trkpt lat="45.05509" lon="5.65997">
        <ele>511.6</ele>
        <time>2021-01-16T13:34:12Z</time>
      </trkpt>
      <trkpt lat="45.05507" lon="5.65995">
        <ele>512</ele>
        <time>2021-01-16T13:34:13Z</time>
      </trkpt>
      <trkpt lat="45.05506" lon="5.65993">
        <ele>511.8</ele>
        <time>2021-01-16T13:34:14Z</time>
      </trkpt>
      <trkpt lat="45.05506" lon="5.65993">
        <ele>512</ele>
        <time>2021-01-16T13:34:15Z</time>
      </trkpt>
      <trkpt lat="45.05505" lon="5.65991">
        <ele>512</ele>
        <time>2021-01-16T13:34:16Z</time>
      </trkpt>
      <trkpt lat="45.05503" lon="5.65987">
        <ele>512</ele>
        <time>2021-01-16T13:34:17Z</time>
      </trkpt>
      <trkpt lat="45.05501" lon="5.65985">
        <ele>512</ele>
        <time>2021-01-16T13:34:18Z</time>
      </trkpt>
      <trkpt lat="45.05501" lon="5.65985">
        <ele>512.2</ele>
        <time>2021-01-16T13:34:19Z</time>
      </trkpt>
      <trkpt lat="45.05501" lon="5.65985">
        <ele>512.6</ele>
        <time>2021-01-16T13:34:20Z</time>
      </trkpt>
      <trkpt lat="45.05499" lon="5.65981">
        <ele>512.6</ele>
        <time>2021-01-16T13:34:21Z</time>
      </trkpt>
      <trkpt lat="45.05498" lon="5.65978">
        <ele>513</ele>
        <time>2021-01-16T13:34:22Z</time>
      </trkpt>
      <trkpt lat="45.05498" lon="5.65978">
        <ele>513.2</ele>
        <time>2021-01-16T13:34:23Z</time>
      </trkpt>
      <trkpt lat="45.05498" lon="5.65978">
        <ele>513.8</ele>
        <time>2021-01-16T13:34:24Z</time>
      </trkpt>
      <trkpt lat="45.05498" lon="5.65978">
        <ele>514</ele>
        <time>2021-01-16T13:34:25Z</time>
      </trkpt>
      <trkpt lat="45.05496" lon="5.65974">
        <ele>514.4</ele>
        <time>2021-01-16T13:34:26Z</time>
      </trkpt>
      <trkpt lat="45.05495" lon="5.65971">
        <ele>514.2</ele>
        <time>2021-01-16T13:34:27Z</time>
      </trkpt>
      <trkpt lat="45.05493" lon="5.65968">
        <ele>514.4</ele>
        <time>2021-01-16T13:34:28Z</time>
      </trkpt>
      <trkpt lat="45.05492" lon="5.65965">
        <ele>514.4</ele>
        <time>2021-01-16T13:34:29Z</time>
      </trkpt>
      <trkpt lat="45.0549" lon="5.65962">
        <ele>514.6</ele>
        <time>2021-01-16T13:34:30Z</time>
      </trkpt>
      <trkpt lat="45.05488" lon="5.65959">
        <ele>515</ele>
        <time>2021-01-16T13:34:31Z</time>
      </trkpt>
      <trkpt lat="45.05486" lon="5.65956">
        <ele>515</ele>
        <time>2021-01-16T13:34:32Z</time>
      </trkpt>
      <trkpt lat="45.05485" lon="5.65955">
        <ele>515.8</ele>
        <time>2021-01-16T13:34:33Z</time>
      </trkpt>
      <trkpt lat="45.05485" lon="5.65955">
        <ele>516</ele>
        <time>2021-01-16T13:34:34Z</time>
      </trkpt>
      <trkpt lat="45.05484" lon="5.65954">
        <ele>516.6</ele>
        <time>2021-01-16T13:34:35Z</time>
      </trkpt>
      <trkpt lat="45.05484" lon="5.65954">
        <ele>517</ele>
        <time>2021-01-16T13:34:36Z</time>
      </trkpt>
      <trkpt lat="45.05482" lon="5.65951">
        <ele>517.6</ele>
        <time>2021-01-16T13:34:37Z</time>
      </trkpt>
      <trkpt lat="45.05482" lon="5.65951">
        <ele>517.8</ele>
        <time>2021-01-16T13:34:38Z</time>
      </trkpt>
      <trkpt lat="45.0548" lon="5.65948">
        <ele>518.2</ele>
        <time>2021-01-16T13:34:39Z</time>
      </trkpt>
      <trkpt lat="45.05478" lon="5.65946">
        <ele>518.2</ele>
        <time>2021-01-16T13:34:40Z</time>
      </trkpt>
      <trkpt lat="45.05477" lon="5.65944">
        <ele>518.6</ele>
        <time>2021-01-16T13:34:41Z</time>
      </trkpt>
      <trkpt lat="45.05474" lon="5.65941">
        <ele>518.6</ele>
        <time>2021-01-16T13:34:42Z</time>
      </trkpt>
      <trkpt lat="45.05474" lon="5.65941">
        <ele>518.6</ele>
        <time>2021-01-16T13:34:43Z</time>
      </trkpt>
      <trkpt lat="45.05472" lon="5.65938">
        <ele>518.8</ele>
        <time>2021-01-16T13:34:44Z</time>
      </trkpt>
      <trkpt lat="45.05472" lon="5.65938">
        <ele>519.2</ele>
        <time>2021-01-16T13:34:45Z</time>
      </trkpt>
      <trkpt lat="45.05471" lon="5.65936">
        <ele>519.6</ele>
        <time>2021-01-16T13:34:46Z</time>
      </trkpt>
      <trkpt lat="45.05471" lon="5.65936">
        <ele>519.8</ele>
        <time>2021-01-16T13:34:47Z</time>
      </trkpt>
      <trkpt lat="45.05471" lon="5.65936">
        <ele>520.2</ele>
        <time>2021-01-16T13:34:48Z</time>
      </trkpt>
      <trkpt lat="45.05471" lon="5.65936">
        <ele>520.4</ele>
        <time>2021-01-16T13:34:49Z</time>
      </trkpt>
      <trkpt lat="45.05469" lon="5.65934">
        <ele>521</ele>
        <time>2021-01-16T13:34:50Z</time>
      </trkpt>
      <trkpt lat="45.05467" lon="5.65932">
        <ele>521.4</ele>
        <time>2021-01-16T13:34:51Z</time>
      </trkpt>
      <trkpt lat="45.05465" lon="5.65931">
        <ele>521.6</ele>
        <time>2021-01-16T13:34:52Z</time>
      </trkpt>
      <trkpt lat="45.05463" lon="5.65929">
        <ele>521.8</ele>
        <time>2021-01-16T13:34:53Z</time>
      </trkpt>
      <trkpt lat="45.05461" lon="5.65928">
        <ele>522.2</ele>
        <time>2021-01-16T13:34:54Z</time>
      </trkpt>
      <trkpt lat="45.05459" lon="5.65926">
        <ele>522.6</ele>
        <time>2021-01-16T13:34:55Z</time>
      </trkpt>
      <trkpt lat="45.05459" lon="5.65926">
        <ele>523</ele>
        <time>2021-01-16T13:34:56Z</time>
      </trkpt>
      <trkpt lat="45.05457" lon="5.65925">
        <ele>523.2</ele>
        <time>2021-01-16T13:34:57Z</time>
      </trkpt>
      <trkpt lat="45.05457" lon="5.65925">
        <ele>523.4</ele>
        <time>2021-01-16T13:34:58Z</time>
      </trkpt>
      <trkpt lat="45.05457" lon="5.65925">
        <ele>523.4</ele>
        <time>2021-01-16T13:34:59Z</time>
      </trkpt>
      <trkpt lat="45.05457" lon="5.65925">
        <ele>524</ele>
        <time>2021-01-16T13:35:00Z</time>
      </trkpt>
      <trkpt lat="45.05457" lon="5.65925">
        <ele>524.2</ele>
        <time>2021-01-16T13:35:01Z</time>
      </trkpt>
      <trkpt lat="45.05454" lon="5.65925">
        <ele>524.4</ele>
        <time>2021-01-16T13:35:02Z</time>
      </trkpt>
      <trkpt lat="45.05453" lon="5.6592">
        <ele>525</ele>
        <time>2021-01-16T13:35:03Z</time>
      </trkpt>
      <trkpt lat="45.05452" lon="5.65916">
        <ele>525.2</ele>
        <time>2021-01-16T13:35:04Z</time>
      </trkpt>
      <trkpt lat="45.05451" lon="5.65912">
        <ele>525.6</ele>
        <time>2021-01-16T13:35:05Z</time>
      </trkpt>
      <trkpt lat="45.05447" lon="5.659">
        <ele>525.8</ele>
        <time>2021-01-16T13:35:06Z</time>
      </trkpt>
      <trkpt lat="45.05445" lon="5.65889">
        <ele>526</ele>
        <time>2021-01-16T13:35:07Z</time>
      </trkpt>
      <trkpt lat="45.05442" lon="5.6589">
        <ele>526.2</ele>
        <time>2021-01-16T13:35:08Z</time>
      </trkpt>
      <trkpt lat="45.05439" lon="5.65891">
        <ele>526.6</ele>
        <time>2021-01-16T13:35:09Z</time>
      </trkpt>
      <trkpt lat="45.05432" lon="5.65892">
        <ele>527</ele>
        <time>2021-01-16T13:35:10Z</time>
      </trkpt>
      <trkpt lat="45.05432" lon="5.65892">
        <ele>527.2</ele>
        <time>2021-01-16T13:35:11Z</time>
      </trkpt>
      <trkpt lat="45.05431" lon="5.65891">
        <ele>527.6</ele>
        <time>2021-01-16T13:35:12Z</time>
      </trkpt>
      <trkpt lat="45.0543" lon="5.6589">
        <ele>527.8</ele>
        <time>2021-01-16T13:35:13Z</time>
      </trkpt>
      <trkpt lat="45.05428" lon="5.65889">
        <ele>528</ele>
        <time>2021-01-16T13:35:14Z</time>
      </trkpt>
      <trkpt lat="45.05427" lon="5.65888">
        <ele>528.2</ele>
        <time>2021-01-16T13:35:15Z</time>
      </trkpt>
      <trkpt lat="45.05426" lon="5.65887">
        <ele>528.6</ele>
        <time>2021-01-16T13:35:16Z</time>
      </trkpt>
      <trkpt lat="45.05424" lon="5.65886">
        <ele>528.8</ele>
        <time>2021-01-16T13:35:17Z</time>
      </trkpt>
      <trkpt lat="45.05423" lon="5.65885">
        <ele>529</ele>
        <time>2021-01-16T13:35:18Z</time>
      </trkpt>
      <trkpt lat="45.05421" lon="5.65883">
        <ele>529.2</ele>
        <time>2021-01-16T13:35:19Z</time>
      </trkpt>
      <trkpt lat="45.05421" lon="5.65883">
        <ele>529.4</ele>
        <time>2021-01-16T13:35:20Z</time>
      </trkpt>
      <trkpt lat="45.05419" lon="5.65881">
        <ele>529.6</ele>
        <time>2021-01-16T13:35:21Z</time>
      </trkpt>
      <trkpt lat="45.05419" lon="5.65881">
        <ele>529.8</ele>
        <time>2021-01-16T13:35:22Z</time>
      </trkpt>
      <trkpt lat="45.05417" lon="5.6588">
        <ele>530</ele>
        <time>2021-01-16T13:35:23Z</time>
      </trkpt>
      <trkpt lat="45.05417" lon="5.6588">
        <ele>530.4</ele>
        <time>2021-01-16T13:35:24Z</time>
      </trkpt>
      <trkpt lat="45.05414" lon="5.65877">
        <ele>530.6</ele>
        <time>2021-01-16T13:35:25Z</time>
      </trkpt>
      <trkpt lat="45.05413" lon="5.65876">
        <ele>530.8</ele>
        <time>2021-01-16T13:35:26Z</time>
      </trkpt>
      <trkpt lat="45.05411" lon="5.65875">
        <ele>530.8</ele>
        <time>2021-01-16T13:35:27Z</time>
      </trkpt>
      <trkpt lat="45.0541" lon="5.65874">
        <ele>531.2</ele>
        <time>2021-01-16T13:35:28Z</time>
      </trkpt>
      <trkpt lat="45.0541" lon="5.65874">
        <ele>531.4</ele>
        <time>2021-01-16T13:35:29Z</time>
      </trkpt>
      <trkpt lat="45.0541" lon="5.65874">
        <ele>531.6</ele>
        <time>2021-01-16T13:35:30Z</time>
      </trkpt>
      <trkpt lat="45.05409" lon="5.65871">
        <ele>532</ele>
        <time>2021-01-16T13:35:31Z</time>
      </trkpt>
      <trkpt lat="45.05409" lon="5.65871">
        <ele>532.4</ele>
        <time>2021-01-16T13:35:32Z</time>
      </trkpt>
      <trkpt lat="45.05409" lon="5.65871">
        <ele>533</ele>
        <time>2021-01-16T13:35:33Z</time>
      </trkpt>
      <trkpt lat="45.05409" lon="5.65871">
        <ele>533.2</ele>
        <time>2021-01-16T13:35:34Z</time>
      </trkpt>
      <trkpt lat="45.05406" lon="5.65868">
        <ele>533.4</ele>
        <time>2021-01-16T13:35:35Z</time>
      </trkpt>
      <trkpt lat="45.05406" lon="5.65868">
        <ele>533.8</ele>
        <time>2021-01-16T13:35:36Z</time>
      </trkpt>
      <trkpt lat="45.05406" lon="5.65868">
        <ele>534.2</ele>
        <time>2021-01-16T13:35:37Z</time>
      </trkpt>
      <trkpt lat="45.05406" lon="5.65868">
        <ele>534.4</ele>
        <time>2021-01-16T13:35:38Z</time>
      </trkpt>
      <trkpt lat="45.05406" lon="5.65866">
        <ele>534.6</ele>
        <time>2021-01-16T13:35:39Z</time>
      </trkpt>
      <trkpt lat="45.05405" lon="5.65865">
        <ele>535</ele>
        <time>2021-01-16T13:35:40Z</time>
      </trkpt>
      <trkpt lat="45.05404" lon="5.65864">
        <ele>535.2</ele>
        <time>2021-01-16T13:35:41Z</time>
      </trkpt>
      <trkpt lat="45.05403" lon="5.65863">
        <ele>535.6</ele>
        <time>2021-01-16T13:35:42Z</time>
      </trkpt>
      <trkpt lat="45.05402" lon="5.65861">
        <ele>535.8</ele>
        <time>2021-01-16T13:35:43Z</time>
      </trkpt>
      <trkpt lat="45.05401" lon="5.6586">
        <ele>536</ele>
        <time>2021-01-16T13:35:44Z</time>
      </trkpt>
      <trkpt lat="45.054" lon="5.65859">
        <ele>536.4</ele>
        <time>2021-01-16T13:35:45Z</time>
      </trkpt>
      <trkpt lat="45.054" lon="5.65858">
        <ele>536.6</ele>
        <time>2021-01-16T13:35:46Z</time>
      </trkpt>
      <trkpt lat="45.05399" lon="5.65857">
        <ele>536.6</ele>
        <time>2021-01-16T13:35:47Z</time>
      </trkpt>
      <trkpt lat="45.05398" lon="5.65857">
        <ele>536.8</ele>
        <time>2021-01-16T13:35:48Z</time>
      </trkpt>
      <trkpt lat="45.05397" lon="5.65857">
        <ele>537.2</ele>
        <time>2021-01-16T13:35:49Z</time>
      </trkpt>
      <trkpt lat="45.05396" lon="5.65856">
        <ele>537.4</ele>
        <time>2021-01-16T13:35:50Z</time>
      </trkpt>
      <trkpt lat="45.05395" lon="5.65856">
        <ele>537.8</ele>
        <time>2021-01-16T13:35:51Z</time>
      </trkpt>
      <trkpt lat="45.05395" lon="5.65856">
        <ele>538</ele>
        <time>2021-01-16T13:35:52Z</time>
      </trkpt>
      <trkpt lat="45.05395" lon="5.65856">
        <ele>538.4</ele>
        <time>2021-01-16T13:35:53Z</time>
      </trkpt>
      <trkpt lat="45.05392" lon="5.65855">
        <ele>538.8</ele>
        <time>2021-01-16T13:35:54Z</time>
      </trkpt>
      <trkpt lat="45.05392" lon="5.65855">
        <ele>539.2</ele>
        <time>2021-01-16T13:35:55Z</time>
      </trkpt>
      <trkpt lat="45.0539" lon="5.65854">
        <ele>539.4</ele>
        <time>2021-01-16T13:35:56Z</time>
      </trkpt>
      <trkpt lat="45.0539" lon="5.65854">
        <ele>539.8</ele>
        <time>2021-01-16T13:35:57Z</time>
      </trkpt>
      <trkpt lat="45.0539" lon="5.65854">
        <ele>540</ele>
        <time>2021-01-16T13:35:58Z</time>
      </trkpt>
      <trkpt lat="45.0539" lon="5.65854">
        <ele>540.2</ele>
        <time>2021-01-16T13:35:59Z</time>
      </trkpt>
      <trkpt lat="45.05389" lon="5.65852">
        <ele>540.4</ele>
        <time>2021-01-16T13:36:00Z</time>
      </trkpt>
      <trkpt lat="45.05389" lon="5.65852">
        <ele>540.6</ele>
        <time>2021-01-16T13:36:01Z</time>
      </trkpt>
      <trkpt lat="45.05389" lon="5.65852">
        <ele>540.8</ele>
        <time>2021-01-16T13:36:02Z</time>
      </trkpt>
      <trkpt lat="45.05389" lon="5.65852">
        <ele>541</ele>
        <time>2021-01-16T13:36:03Z</time>
      </trkpt>
      <trkpt lat="45.05387" lon="5.65849">
        <ele>541.4</ele>
        <time>2021-01-16T13:36:04Z</time>
      </trkpt>
      <trkpt lat="45.05387" lon="5.65849">
        <ele>541.8</ele>
        <time>2021-01-16T13:36:05Z</time>
      </trkpt>
      <trkpt lat="45.05385" lon="5.65847">
        <ele>542</ele>
        <time>2021-01-16T13:36:06Z</time>
      </trkpt>
      <trkpt lat="45.05385" lon="5.65847">
        <ele>542.4</ele>
        <time>2021-01-16T13:36:07Z</time>
      </trkpt>
      <trkpt lat="45.05383" lon="5.65845">
        <ele>542.8</ele>
        <time>2021-01-16T13:36:08Z</time>
      </trkpt>
      <trkpt lat="45.05383" lon="5.65845">
        <ele>543.2</ele>
        <time>2021-01-16T13:36:09Z</time>
      </trkpt>
      <trkpt lat="45.05383" lon="5.65845">
        <ele>543.4</ele>
        <time>2021-01-16T13:36:10Z</time>
      </trkpt>
      <trkpt lat="45.05383" lon="5.65845">
        <ele>543.6</ele>
        <time>2021-01-16T13:36:11Z</time>
      </trkpt>
      <trkpt lat="45.05382" lon="5.65842">
        <ele>543.8</ele>
        <time>2021-01-16T13:36:12Z</time>
      </trkpt>
      <trkpt lat="45.05382" lon="5.65842">
        <ele>544</ele>
        <time>2021-01-16T13:36:13Z</time>
      </trkpt>
      <trkpt lat="45.0538" lon="5.65841">
        <ele>544.2</ele>
        <time>2021-01-16T13:36:14Z</time>
      </trkpt>
      <trkpt lat="45.0538" lon="5.65841">
        <ele>544.2</ele>
        <time>2021-01-16T13:36:15Z</time>
      </trkpt>
      <trkpt lat="45.0538" lon="5.65841">
        <ele>544.6</ele>
        <time>2021-01-16T13:36:16Z</time>
      </trkpt>
      <trkpt lat="45.0538" lon="5.65841">
        <ele>544.8</ele>
        <time>2021-01-16T13:36:17Z</time>
      </trkpt>
      <trkpt lat="45.0538" lon="5.65841">
        <ele>545.2</ele>
        <time>2021-01-16T13:36:18Z</time>
      </trkpt>
      <trkpt lat="45.05377" lon="5.65839">
        <ele>545.4</ele>
        <time>2021-01-16T13:36:19Z</time>
      </trkpt>
      <trkpt lat="45.05377" lon="5.65839">
        <ele>545.8</ele>
        <time>2021-01-16T13:36:20Z</time>
      </trkpt>
      <trkpt lat="45.05377" lon="5.65839">
        <ele>546</ele>
        <time>2021-01-16T13:36:21Z</time>
      </trkpt>
      <trkpt lat="45.05377" lon="5.65839">
        <ele>546.4</ele>
        <time>2021-01-16T13:36:22Z</time>
      </trkpt>
      <trkpt lat="45.05377" lon="5.65839">
        <ele>546.6</ele>
        <time>2021-01-16T13:36:23Z</time>
      </trkpt>
      <trkpt lat="45.05375" lon="5.65839">
        <ele>547</ele>
        <time>2021-01-16T13:36:24Z</time>
      </trkpt>
      <trkpt lat="45.05375" lon="5.65839">
        <ele>547.4</ele>
        <time>2021-01-16T13:36:25Z</time>
      </trkpt>
      <trkpt lat="45.05375" lon="5.65839">
        <ele>547.8</ele>
        <time>2021-01-16T13:36:26Z</time>
      </trkpt>
      <trkpt lat="45.05373" lon="5.65838">
        <ele>548.2</ele>
        <time>2021-01-16T13:36:27Z</time>
      </trkpt>
      <trkpt lat="45.05373" lon="5.65838">
        <ele>548.4</ele>
        <time>2021-01-16T13:36:28Z</time>
      </trkpt>
      <trkpt lat="45.05373" lon="5.65838">
        <ele>548.6</ele>
        <time>2021-01-16T13:36:29Z</time>
      </trkpt>
      <trkpt lat="45.05371" lon="5.65837">
        <ele>549</ele>
        <time>2021-01-16T13:36:30Z</time>
      </trkpt>
      <trkpt lat="45.05371" lon="5.65837">
        <ele>549.4</ele>
        <time>2021-01-16T13:36:31Z</time>
      </trkpt>
      <trkpt lat="45.05369" lon="5.65835">
        <ele>549.8</ele>
        <time>2021-01-16T13:36:32Z</time>
      </trkpt>
      <trkpt lat="45.05369" lon="5.65835">
        <ele>550.2</ele>
        <time>2021-01-16T13:36:33Z</time>
      </trkpt>
      <trkpt lat="45.05369" lon="5.65835">
        <ele>550.4</ele>
        <time>2021-01-16T13:36:34Z</time>
      </trkpt>
      <trkpt lat="45.05369" lon="5.65835">
        <ele>550.6</ele>
        <time>2021-01-16T13:36:35Z</time>
      </trkpt>
      <trkpt lat="45.05366" lon="5.65832">
        <ele>550.8</ele>
        <time>2021-01-16T13:36:36Z</time>
      </trkpt>
      <trkpt lat="45.05366" lon="5.65832">
        <ele>551.2</ele>
        <time>2021-01-16T13:36:37Z</time>
      </trkpt>
      <trkpt lat="45.05365" lon="5.65831">
        <ele>551.4</ele>
        <time>2021-01-16T13:36:38Z</time>
      </trkpt>
      <trkpt lat="45.05365" lon="5.65831">
        <ele>551.8</ele>
        <time>2021-01-16T13:36:39Z</time>
      </trkpt>
      <trkpt lat="45.05365" lon="5.65831">
        <ele>552.2</ele>
        <time>2021-01-16T13:36:40Z</time>
      </trkpt>
      <trkpt lat="45.05363" lon="5.65828">
        <ele>552.4</ele>
        <time>2021-01-16T13:36:41Z</time>
      </trkpt>
      <trkpt lat="45.05363" lon="5.65828">
        <ele>552.6</ele>
        <time>2021-01-16T13:36:42Z</time>
      </trkpt>
      <trkpt lat="45.05361" lon="5.65828">
        <ele>553</ele>
        <time>2021-01-16T13:36:43Z</time>
      </trkpt>
      <trkpt lat="45.0536" lon="5.65828">
        <ele>553.2</ele>
        <time>2021-01-16T13:36:44Z</time>
      </trkpt>
      <trkpt lat="45.05358" lon="5.65827">
        <ele>553.2</ele>
        <time>2021-01-16T13:36:45Z</time>
      </trkpt>
      <trkpt lat="45.05357" lon="5.65827">
        <ele>553.4</ele>
        <time>2021-01-16T13:36:46Z</time>
      </trkpt>
      <trkpt lat="45.05355" lon="5.65826">
        <ele>553.8</ele>
        <time>2021-01-16T13:36:47Z</time>
      </trkpt>
      <trkpt lat="45.05355" lon="5.65826">
        <ele>554.2</ele>
        <time>2021-01-16T13:36:48Z</time>
      </trkpt>
      <trkpt lat="45.05355" lon="5.65826">
        <ele>554.4</ele>
        <time>2021-01-16T13:36:49Z</time>
      </trkpt>
      <trkpt lat="45.05353" lon="5.65825">
        <ele>554.8</ele>
        <time>2021-01-16T13:36:50Z</time>
      </trkpt>
      <trkpt lat="45.05353" lon="5.65825">
        <ele>555</ele>
        <time>2021-01-16T13:36:51Z</time>
      </trkpt>
      <trkpt lat="45.05351" lon="5.65824">
        <ele>555.2</ele>
        <time>2021-01-16T13:36:52Z</time>
      </trkpt>
      <trkpt lat="45.05351" lon="5.65824">
        <ele>555.4</ele>
        <time>2021-01-16T13:36:53Z</time>
      </trkpt>
      <trkpt lat="45.05351" lon="5.65824">
        <ele>555.8</ele>
        <time>2021-01-16T13:36:54Z</time>
      </trkpt>
      <trkpt lat="45.05351" lon="5.65824">
        <ele>556.2</ele>
        <time>2021-01-16T13:36:55Z</time>
      </trkpt>
      <trkpt lat="45.05349" lon="5.6582">
        <ele>556.6</ele>
        <time>2021-01-16T13:36:56Z</time>
      </trkpt>
      <trkpt lat="45.05347" lon="5.65817">
        <ele>557</ele>
        <time>2021-01-16T13:36:57Z</time>
      </trkpt>
      <trkpt lat="45.05346" lon="5.65814">
        <ele>557.4</ele>
        <time>2021-01-16T13:36:58Z</time>
      </trkpt>
      <trkpt lat="45.05345" lon="5.65812">
        <ele>558.2</ele>
        <time>2021-01-16T13:36:59Z</time>
      </trkpt>
      <trkpt lat="45.05344" lon="5.65809">
        <ele>558.4</ele>
        <time>2021-01-16T13:37:00Z</time>
      </trkpt>
      <trkpt lat="45.05342" lon="5.65807">
        <ele>558.8</ele>
        <time>2021-01-16T13:37:01Z</time>
      </trkpt>
      <trkpt lat="45.05341" lon="5.65804">
        <ele>559</ele>
        <time>2021-01-16T13:37:02Z</time>
      </trkpt>
      <trkpt lat="45.0534" lon="5.65802">
        <ele>559.6</ele>
        <time>2021-01-16T13:37:03Z</time>
      </trkpt>
      <trkpt lat="45.05339" lon="5.65799">
        <ele>559.8</ele>
        <time>2021-01-16T13:37:04Z</time>
      </trkpt>
      <trkpt lat="45.05338" lon="5.65796">
        <ele>560.2</ele>
        <time>2021-01-16T13:37:05Z</time>
      </trkpt>
      <trkpt lat="45.05337" lon="5.65795">
        <ele>560.4</ele>
        <time>2021-01-16T13:37:06Z</time>
      </trkpt>
      <trkpt lat="45.05337" lon="5.65794">
        <ele>560.8</ele>
        <time>2021-01-16T13:37:07Z</time>
      </trkpt>
      <trkpt lat="45.05336" lon="5.65793">
        <ele>561</ele>
        <time>2021-01-16T13:37:08Z</time>
      </trkpt>
      <trkpt lat="45.05336" lon="5.65793">
        <ele>561.4</ele>
        <time>2021-01-16T13:37:09Z</time>
      </trkpt>
      <trkpt lat="45.05334" lon="5.6579">
        <ele>561.4</ele>
        <time>2021-01-16T13:37:10Z</time>
      </trkpt>
      <trkpt lat="45.05332" lon="5.65786">
        <ele>561.8</ele>
        <time>2021-01-16T13:37:11Z</time>
      </trkpt>
      <trkpt lat="45.05332" lon="5.65786">
        <ele>562</ele>
        <time>2021-01-16T13:37:12Z</time>
      </trkpt>
      <trkpt lat="45.05329" lon="5.65783">
        <ele>562.4</ele>
        <time>2021-01-16T13:37:13Z</time>
      </trkpt>
      <trkpt lat="45.05329" lon="5.65783">
        <ele>562.4</ele>
        <time>2021-01-16T13:37:14Z</time>
      </trkpt>
      <trkpt lat="45.05328" lon="5.65781">
        <ele>562.6</ele>
        <time>2021-01-16T13:37:15Z</time>
      </trkpt>
      <trkpt lat="45.05326" lon="5.65779">
        <ele>562.8</ele>
        <time>2021-01-16T13:37:16Z</time>
      </trkpt>
      <trkpt lat="45.05325" lon="5.65777">
        <ele>563.4</ele>
        <time>2021-01-16T13:37:17Z</time>
      </trkpt>
      <trkpt lat="45.05323" lon="5.65774">
        <ele>563.4</ele>
        <time>2021-01-16T13:37:18Z</time>
      </trkpt>
      <trkpt lat="45.05322" lon="5.65772">
        <ele>563.8</ele>
        <time>2021-01-16T13:37:19Z</time>
      </trkpt>
      <trkpt lat="45.0532" lon="5.6577">
        <ele>563.8</ele>
        <time>2021-01-16T13:37:20Z</time>
      </trkpt>
      <trkpt lat="45.0532" lon="5.65769">
        <ele>564.2</ele>
        <time>2021-01-16T13:37:21Z</time>
      </trkpt>
      <trkpt lat="45.05319" lon="5.65768">
        <ele>564.4</ele>
        <time>2021-01-16T13:37:22Z</time>
      </trkpt>
      <trkpt lat="45.05317" lon="5.65764">
        <ele>564.6</ele>
        <time>2021-01-16T13:37:23Z</time>
      </trkpt>
      <trkpt lat="45.05317" lon="5.65764">
        <ele>564.6</ele>
        <time>2021-01-16T13:37:24Z</time>
      </trkpt>
      <trkpt lat="45.05315" lon="5.65761">
        <ele>564.8</ele>
        <time>2021-01-16T13:37:25Z</time>
      </trkpt>
      <trkpt lat="45.05315" lon="5.65761">
        <ele>564.8</ele>
        <time>2021-01-16T13:37:26Z</time>
      </trkpt>
      <trkpt lat="45.05315" lon="5.65761">
        <ele>565</ele>
        <time>2021-01-16T13:37:27Z</time>
      </trkpt>
      <trkpt lat="45.05313" lon="5.65757">
        <ele>565.2</ele>
        <time>2021-01-16T13:37:28Z</time>
      </trkpt>
      <trkpt lat="45.05313" lon="5.65757">
        <ele>565.6</ele>
        <time>2021-01-16T13:37:29Z</time>
      </trkpt>
      <trkpt lat="45.05311" lon="5.65753">
        <ele>566</ele>
        <time>2021-01-16T13:37:30Z</time>
      </trkpt>
      <trkpt lat="45.05311" lon="5.65753">
        <ele>566.4</ele>
        <time>2021-01-16T13:37:31Z</time>
      </trkpt>
      <trkpt lat="45.0531" lon="5.65751">
        <ele>566.6</ele>
        <time>2021-01-16T13:37:32Z</time>
      </trkpt>
      <trkpt lat="45.05308" lon="5.65749">
        <ele>567</ele>
        <time>2021-01-16T13:37:33Z</time>
      </trkpt>
      <trkpt lat="45.05307" lon="5.65747">
        <ele>567.4</ele>
        <time>2021-01-16T13:37:34Z</time>
      </trkpt>
      <trkpt lat="45.05306" lon="5.65746">
        <ele>567.6</ele>
        <time>2021-01-16T13:37:35Z</time>
      </trkpt>
      <trkpt lat="45.05305" lon="5.65746">
        <ele>568</ele>
        <time>2021-01-16T13:37:36Z</time>
      </trkpt>
      <trkpt lat="45.05304" lon="5.65745">
        <ele>568.4</ele>
        <time>2021-01-16T13:37:37Z</time>
      </trkpt>
      <trkpt lat="45.05304" lon="5.65745">
        <ele>568.8</ele>
        <time>2021-01-16T13:37:38Z</time>
      </trkpt>
      <trkpt lat="45.05302" lon="5.65743">
        <ele>569</ele>
        <time>2021-01-16T13:37:39Z</time>
      </trkpt>
      <trkpt lat="45.053" lon="5.65742">
        <ele>569.6</ele>
        <time>2021-01-16T13:37:40Z</time>
      </trkpt>
      <trkpt lat="45.053" lon="5.65742">
        <ele>569.8</ele>
        <time>2021-01-16T13:37:41Z</time>
      </trkpt>
      <trkpt lat="45.053" lon="5.65742">
        <ele>570.4</ele>
        <time>2021-01-16T13:37:42Z</time>
      </trkpt>
      <trkpt lat="45.05297" lon="5.65742">
        <ele>570.6</ele>
        <time>2021-01-16T13:37:43Z</time>
      </trkpt>
      <trkpt lat="45.05294" lon="5.6574">
        <ele>571.2</ele>
        <time>2021-01-16T13:37:44Z</time>
      </trkpt>
      <trkpt lat="45.05294" lon="5.6574">
        <ele>571.2</ele>
        <time>2021-01-16T13:37:45Z</time>
      </trkpt>
      <trkpt lat="45.05294" lon="5.6574">
        <ele>571.8</ele>
        <time>2021-01-16T13:37:46Z</time>
      </trkpt>
      <trkpt lat="45.05292" lon="5.65737">
        <ele>572</ele>
        <time>2021-01-16T13:37:47Z</time>
      </trkpt>
      <trkpt lat="45.05292" lon="5.65737">
        <ele>572.6</ele>
        <time>2021-01-16T13:37:48Z</time>
      </trkpt>
      <trkpt lat="45.0529" lon="5.65734">
        <ele>572.8</ele>
        <time>2021-01-16T13:37:49Z</time>
      </trkpt>
      <trkpt lat="45.0529" lon="5.65734">
        <ele>573.2</ele>
        <time>2021-01-16T13:37:50Z</time>
      </trkpt>
      <trkpt lat="45.05288" lon="5.65731">
        <ele>573.4</ele>
        <time>2021-01-16T13:37:51Z</time>
      </trkpt>
      <trkpt lat="45.05288" lon="5.65731">
        <ele>574</ele>
        <time>2021-01-16T13:37:52Z</time>
      </trkpt>
      <trkpt lat="45.05287" lon="5.65727">
        <ele>574.2</ele>
        <time>2021-01-16T13:37:53Z</time>
      </trkpt>
      <trkpt lat="45.05286" lon="5.65725">
        <ele>574.6</ele>
        <time>2021-01-16T13:37:54Z</time>
      </trkpt>
      <trkpt lat="45.05285" lon="5.65722">
        <ele>574.6</ele>
        <time>2021-01-16T13:37:55Z</time>
      </trkpt>
      <trkpt lat="45.05284" lon="5.65719">
        <ele>575</ele>
        <time>2021-01-16T13:37:56Z</time>
      </trkpt>
      <trkpt lat="45.05284" lon="5.65719">
        <ele>575</ele>
        <time>2021-01-16T13:37:57Z</time>
      </trkpt>
      <trkpt lat="45.05284" lon="5.65718">
        <ele>575.4</ele>
        <time>2021-01-16T13:37:58Z</time>
      </trkpt>
      <trkpt lat="45.05282" lon="5.65713">
        <ele>575.4</ele>
        <time>2021-01-16T13:37:59Z</time>
      </trkpt>
      <trkpt lat="45.05282" lon="5.65713">
        <ele>575.8</ele>
        <time>2021-01-16T13:38:00Z</time>
      </trkpt>
      <trkpt lat="45.0528" lon="5.6571">
        <ele>575.6</ele>
        <time>2021-01-16T13:38:01Z</time>
      </trkpt>
      <trkpt lat="45.05278" lon="5.65707">
        <ele>576</ele>
        <time>2021-01-16T13:38:02Z</time>
      </trkpt>
      <trkpt lat="45.05277" lon="5.65704">
        <ele>576.2</ele>
        <time>2021-01-16T13:38:03Z</time>
      </trkpt>
      <trkpt lat="45.05276" lon="5.65701">
        <ele>576.2</ele>
        <time>2021-01-16T13:38:04Z</time>
      </trkpt>
      <trkpt lat="45.05276" lon="5.657">
        <ele>576.4</ele>
        <time>2021-01-16T13:38:05Z</time>
      </trkpt>
      <trkpt lat="45.05275" lon="5.65698">
        <ele>576.6</ele>
        <time>2021-01-16T13:38:06Z</time>
      </trkpt>
      <trkpt lat="45.05275" lon="5.65698">
        <ele>576.8</ele>
        <time>2021-01-16T13:38:07Z</time>
      </trkpt>
      <trkpt lat="45.05274" lon="5.65694">
        <ele>577</ele>
        <time>2021-01-16T13:38:08Z</time>
      </trkpt>
      <trkpt lat="45.05273" lon="5.65691">
        <ele>577.2</ele>
        <time>2021-01-16T13:38:09Z</time>
      </trkpt>
      <trkpt lat="45.05273" lon="5.65688">
        <ele>577.4</ele>
        <time>2021-01-16T13:38:10Z</time>
      </trkpt>
      <trkpt lat="45.05272" lon="5.65685">
        <ele>578</ele>
        <time>2021-01-16T13:38:11Z</time>
      </trkpt>
      <trkpt lat="45.05271" lon="5.65684">
        <ele>578.4</ele>
        <time>2021-01-16T13:38:12Z</time>
      </trkpt>
      <trkpt lat="45.05271" lon="5.65682">
        <ele>578.8</ele>
        <time>2021-01-16T13:38:13Z</time>
      </trkpt>
      <trkpt lat="45.0527" lon="5.65681">
        <ele>578.8</ele>
        <time>2021-01-16T13:38:14Z</time>
      </trkpt>
      <trkpt lat="45.05269" lon="5.65679">
        <ele>579</ele>
        <time>2021-01-16T13:38:15Z</time>
      </trkpt>
      <trkpt lat="45.05269" lon="5.65678">
        <ele>579.4</ele>
        <time>2021-01-16T13:38:16Z</time>
      </trkpt>
      <trkpt lat="45.05269" lon="5.65678">
        <ele>579.6</ele>
        <time>2021-01-16T13:38:17Z</time>
      </trkpt>
      <trkpt lat="45.05266" lon="5.65675">
        <ele>579.8</ele>
        <time>2021-01-16T13:38:18Z</time>
      </trkpt>
      <trkpt lat="45.05266" lon="5.65675">
        <ele>580.2</ele>
        <time>2021-01-16T13:38:19Z</time>
      </trkpt>
      <trkpt lat="45.05264" lon="5.65672">
        <ele>580.4</ele>
        <time>2021-01-16T13:38:20Z</time>
      </trkpt>
      <trkpt lat="45.05263" lon="5.6567">
        <ele>580.8</ele>
        <time>2021-01-16T13:38:21Z</time>
      </trkpt>
      <trkpt lat="45.05262" lon="5.65668">
        <ele>581</ele>
        <time>2021-01-16T13:38:22Z</time>
      </trkpt>
      <trkpt lat="45.05261" lon="5.65667">
        <ele>581.4</ele>
        <time>2021-01-16T13:38:23Z</time>
      </trkpt>
      <trkpt lat="45.05256" lon="5.65662">
        <ele>581.4</ele>
        <time>2021-01-16T13:38:24Z</time>
      </trkpt>
      <trkpt lat="45.05251" lon="5.65657">
        <ele>582</ele>
        <time>2021-01-16T13:38:25Z</time>
      </trkpt>
      <trkpt lat="45.05246" lon="5.65652">
        <ele>582.4</ele>
        <time>2021-01-16T13:38:26Z</time>
      </trkpt>
      <trkpt lat="45.05231" lon="5.65638">
        <ele>583</ele>
        <time>2021-01-16T13:38:27Z</time>
      </trkpt>
      <trkpt lat="45.0523" lon="5.65636">
        <ele>583.2</ele>
        <time>2021-01-16T13:38:28Z</time>
      </trkpt>
      <trkpt lat="45.05225" lon="5.65629">
        <ele>583.8</ele>
        <time>2021-01-16T13:38:29Z</time>
      </trkpt>
      <trkpt lat="45.05225" lon="5.65629">
        <ele>584.2</ele>
        <time>2021-01-16T13:38:30Z</time>
      </trkpt>
      <trkpt lat="45.05224" lon="5.65628">
        <ele>584.8</ele>
        <time>2021-01-16T13:38:31Z</time>
      </trkpt>
      <trkpt lat="45.05222" lon="5.65627">
        <ele>585</ele>
        <time>2021-01-16T13:38:32Z</time>
      </trkpt>
      <trkpt lat="45.0522" lon="5.65626">
        <ele>585.4</ele>
        <time>2021-01-16T13:38:33Z</time>
      </trkpt>
      <trkpt lat="45.05218" lon="5.65625">
        <ele>585.4</ele>
        <time>2021-01-16T13:38:34Z</time>
      </trkpt>
      <trkpt lat="45.05217" lon="5.65624">
        <ele>585.8</ele>
        <time>2021-01-16T13:38:35Z</time>
      </trkpt>
      <trkpt lat="45.05215" lon="5.65624">
        <ele>586</ele>
        <time>2021-01-16T13:38:36Z</time>
      </trkpt>
      <trkpt lat="45.05212" lon="5.65625">
        <ele>586.6</ele>
        <time>2021-01-16T13:38:37Z</time>
      </trkpt>
      <trkpt lat="45.0521" lon="5.65625">
        <ele>586.6</ele>
        <time>2021-01-16T13:38:38Z</time>
      </trkpt>
      <trkpt lat="45.05208" lon="5.65626">
        <ele>587.2</ele>
        <time>2021-01-16T13:38:39Z</time>
      </trkpt>
      <trkpt lat="45.05206" lon="5.65627">
        <ele>587.4</ele>
        <time>2021-01-16T13:38:40Z</time>
      </trkpt>
      <trkpt lat="45.05204" lon="5.65627">
        <ele>587.8</ele>
        <time>2021-01-16T13:38:41Z</time>
      </trkpt>
      <trkpt lat="45.05202" lon="5.65628">
        <ele>588</ele>
        <time>2021-01-16T13:38:42Z</time>
      </trkpt>
      <trkpt lat="45.05201" lon="5.65628">
        <ele>588.6</ele>
        <time>2021-01-16T13:38:43Z</time>
      </trkpt>
      <trkpt lat="45.05199" lon="5.65628">
        <ele>589</ele>
        <time>2021-01-16T13:38:44Z</time>
      </trkpt>
      <trkpt lat="45.05197" lon="5.65629">
        <ele>589.6</ele>
        <time>2021-01-16T13:38:45Z</time>
      </trkpt>
      <trkpt lat="45.05195" lon="5.65629">
        <ele>589.8</ele>
        <time>2021-01-16T13:38:46Z</time>
      </trkpt>
      <trkpt lat="45.05193" lon="5.65629">
        <ele>590</ele>
        <time>2021-01-16T13:38:47Z</time>
      </trkpt>
      <trkpt lat="45.05193" lon="5.65629">
        <ele>590.4</ele>
        <time>2021-01-16T13:38:48Z</time>
      </trkpt>
      <trkpt lat="45.05193" lon="5.65629">
        <ele>590.8</ele>
        <time>2021-01-16T13:38:49Z</time>
      </trkpt>
      <trkpt lat="45.05191" lon="5.65629">
        <ele>591</ele>
        <time>2021-01-16T13:38:50Z</time>
      </trkpt>
      <trkpt lat="45.05191" lon="5.65629">
        <ele>591.4</ele>
        <time>2021-01-16T13:38:51Z</time>
      </trkpt>
      <trkpt lat="45.05189" lon="5.65627">
        <ele>591.8</ele>
        <time>2021-01-16T13:38:52Z</time>
      </trkpt>
      <trkpt lat="45.05189" lon="5.65627">
        <ele>592</ele>
        <time>2021-01-16T13:38:53Z</time>
      </trkpt>
      <trkpt lat="45.05189" lon="5.65627">
        <ele>592.2</ele>
        <time>2021-01-16T13:38:54Z</time>
      </trkpt>
      <trkpt lat="45.05187" lon="5.65624">
        <ele>592.8</ele>
        <time>2021-01-16T13:38:55Z</time>
      </trkpt>
      <trkpt lat="45.05187" lon="5.65624">
        <ele>593</ele>
        <time>2021-01-16T13:38:56Z</time>
      </trkpt>
      <trkpt lat="45.05186" lon="5.65621">
        <ele>593.4</ele>
        <time>2021-01-16T13:38:57Z</time>
      </trkpt>
      <trkpt lat="45.05186" lon="5.65621">
        <ele>593.4</ele>
        <time>2021-01-16T13:38:58Z</time>
      </trkpt>
      <trkpt lat="45.05184" lon="5.65618">
        <ele>594</ele>
        <time>2021-01-16T13:38:59Z</time>
      </trkpt>
      <trkpt lat="45.05184" lon="5.65618">
        <ele>594</ele>
        <time>2021-01-16T13:39:00Z</time>
      </trkpt>
      <trkpt lat="45.05184" lon="5.65618">
        <ele>594.4</ele>
        <time>2021-01-16T13:39:01Z</time>
      </trkpt>
      <trkpt lat="45.05183" lon="5.65617">
        <ele>594.6</ele>
        <time>2021-01-16T13:39:02Z</time>
      </trkpt>
      <trkpt lat="45.05183" lon="5.65616">
        <ele>595</ele>
        <time>2021-01-16T13:39:03Z</time>
      </trkpt>
      <trkpt lat="45.05182" lon="5.65615">
        <ele>595.2</ele>
        <time>2021-01-16T13:39:04Z</time>
      </trkpt>
      <trkpt lat="45.05181" lon="5.65614">
        <ele>595.4</ele>
        <time>2021-01-16T13:39:05Z</time>
      </trkpt>
      <trkpt lat="45.05179" lon="5.65611">
        <ele>595.4</ele>
        <time>2021-01-16T13:39:06Z</time>
      </trkpt>
      <trkpt lat="45.05177" lon="5.65609">
        <ele>595.8</ele>
        <time>2021-01-16T13:39:07Z</time>
      </trkpt>
      <trkpt lat="45.05177" lon="5.65609">
        <ele>596</ele>
        <time>2021-01-16T13:39:08Z</time>
      </trkpt>
      <trkpt lat="45.05176" lon="5.65606">
        <ele>596.2</ele>
        <time>2021-01-16T13:39:09Z</time>
      </trkpt>
      <trkpt lat="45.05176" lon="5.65606">
        <ele>596.4</ele>
        <time>2021-01-16T13:39:10Z</time>
      </trkpt>
      <trkpt lat="45.05176" lon="5.65606">
        <ele>596.8</ele>
        <time>2021-01-16T13:39:11Z</time>
      </trkpt>
      <trkpt lat="45.05174" lon="5.65603">
        <ele>597.2</ele>
        <time>2021-01-16T13:39:12Z</time>
      </trkpt>
      <trkpt lat="45.05174" lon="5.65603">
        <ele>597.4</ele>
        <time>2021-01-16T13:39:13Z</time>
      </trkpt>
      <trkpt lat="45.05174" lon="5.65603">
        <ele>597.6</ele>
        <time>2021-01-16T13:39:14Z</time>
      </trkpt>
      <trkpt lat="45.05173" lon="5.65601">
        <ele>598</ele>
        <time>2021-01-16T13:39:15Z</time>
      </trkpt>
      <trkpt lat="45.05172" lon="5.65599">
        <ele>598.6</ele>
        <time>2021-01-16T13:39:16Z</time>
      </trkpt>
      <trkpt lat="45.0517" lon="5.65597">
        <ele>598.8</ele>
        <time>2021-01-16T13:39:17Z</time>
      </trkpt>
      <trkpt lat="45.05169" lon="5.65595">
        <ele>599.2</ele>
        <time>2021-01-16T13:39:18Z</time>
      </trkpt>
      <trkpt lat="45.05167" lon="5.65593">
        <ele>599.4</ele>
        <time>2021-01-16T13:39:19Z</time>
      </trkpt>
      <trkpt lat="45.05167" lon="5.65593">
        <ele>600</ele>
        <time>2021-01-16T13:39:20Z</time>
      </trkpt>
      <trkpt lat="45.05165" lon="5.65591">
        <ele>600.4</ele>
        <time>2021-01-16T13:39:21Z</time>
      </trkpt>
      <trkpt lat="45.05165" lon="5.65591">
        <ele>600.8</ele>
        <time>2021-01-16T13:39:22Z</time>
      </trkpt>
      <trkpt lat="45.05162" lon="5.65589">
        <ele>600.8</ele>
        <time>2021-01-16T13:39:23Z</time>
      </trkpt>
      <trkpt lat="45.05162" lon="5.65589">
        <ele>601.2</ele>
        <time>2021-01-16T13:39:24Z</time>
      </trkpt>
      <trkpt lat="45.05162" lon="5.65589">
        <ele>601.2</ele>
        <time>2021-01-16T13:39:25Z</time>
      </trkpt>
      <trkpt lat="45.05162" lon="5.65589">
        <ele>601.6</ele>
        <time>2021-01-16T13:39:26Z</time>
      </trkpt>
      <trkpt lat="45.05161" lon="5.65587">
        <ele>601.6</ele>
        <time>2021-01-16T13:39:27Z</time>
      </trkpt>
      <trkpt lat="45.0516" lon="5.65586">
        <ele>601.8</ele>
        <time>2021-01-16T13:39:28Z</time>
      </trkpt>
      <trkpt lat="45.05158" lon="5.65584">
        <ele>601.8</ele>
        <time>2021-01-16T13:39:29Z</time>
      </trkpt>
      <trkpt lat="45.05157" lon="5.65583">
        <ele>602.2</ele>
        <time>2021-01-16T13:39:30Z</time>
      </trkpt>
      <trkpt lat="45.05156" lon="5.65582">
        <ele>602.4</ele>
        <time>2021-01-16T13:39:31Z</time>
      </trkpt>
      <trkpt lat="45.05154" lon="5.6558">
        <ele>602.8</ele>
        <time>2021-01-16T13:39:32Z</time>
      </trkpt>
      <trkpt lat="45.05154" lon="5.6558">
        <ele>602.8</ele>
        <time>2021-01-16T13:39:33Z</time>
      </trkpt>
      <trkpt lat="45.05154" lon="5.6558">
        <ele>603.4</ele>
        <time>2021-01-16T13:39:34Z</time>
      </trkpt>
      <trkpt lat="45.05152" lon="5.65578">
        <ele>603.6</ele>
        <time>2021-01-16T13:39:35Z</time>
      </trkpt>
      <trkpt lat="45.05152" lon="5.65578">
        <ele>604.2</ele>
        <time>2021-01-16T13:39:36Z</time>
      </trkpt>
      <trkpt lat="45.0515" lon="5.65577">
        <ele>604.4</ele>
        <time>2021-01-16T13:39:37Z</time>
      </trkpt>
      <trkpt lat="45.0515" lon="5.65577">
        <ele>604.8</ele>
        <time>2021-01-16T13:39:38Z</time>
      </trkpt>
      <trkpt lat="45.0515" lon="5.65577">
        <ele>604.8</ele>
        <time>2021-01-16T13:39:39Z</time>
      </trkpt>
      <trkpt lat="45.0515" lon="5.65577">
        <ele>605.2</ele>
        <time>2021-01-16T13:39:40Z</time>
      </trkpt>
      <trkpt lat="45.05147" lon="5.65576">
        <ele>605.2</ele>
        <time>2021-01-16T13:39:41Z</time>
      </trkpt>
      <trkpt lat="45.05147" lon="5.65576">
        <ele>605.8</ele>
        <time>2021-01-16T13:39:42Z</time>
      </trkpt>
      <trkpt lat="45.05147" lon="5.65576">
        <ele>605.8</ele>
        <time>2021-01-16T13:39:43Z</time>
      </trkpt>
      <trkpt lat="45.05145" lon="5.65575">
        <ele>606.2</ele>
        <time>2021-01-16T13:39:44Z</time>
      </trkpt>
      <trkpt lat="45.05143" lon="5.65575">
        <ele>606.2</ele>
        <time>2021-01-16T13:39:45Z</time>
      </trkpt>
      <trkpt lat="45.05141" lon="5.65575">
        <ele>606.4</ele>
        <time>2021-01-16T13:39:46Z</time>
      </trkpt>
      <trkpt lat="45.05139" lon="5.65574">
        <ele>606.8</ele>
        <time>2021-01-16T13:39:47Z</time>
      </trkpt>
      <trkpt lat="45.05139" lon="5.65574">
        <ele>607</ele>
        <time>2021-01-16T13:39:48Z</time>
      </trkpt>
      <trkpt lat="45.05139" lon="5.65574">
        <ele>607.2</ele>
        <time>2021-01-16T13:39:49Z</time>
      </trkpt>
      <trkpt lat="45.05137" lon="5.65573">
        <ele>607.6</ele>
        <time>2021-01-16T13:39:50Z</time>
      </trkpt>
      <trkpt lat="45.05137" lon="5.65573">
        <ele>607.6</ele>
        <time>2021-01-16T13:39:51Z</time>
      </trkpt>
      <trkpt lat="45.05137" lon="5.65573">
        <ele>608</ele>
        <time>2021-01-16T13:39:52Z</time>
      </trkpt>
      <trkpt lat="45.05137" lon="5.65573">
        <ele>608.2</ele>
        <time>2021-01-16T13:39:53Z</time>
      </trkpt>
      <trkpt lat="45.05135" lon="5.65573">
        <ele>608.4</ele>
        <time>2021-01-16T13:39:54Z</time>
      </trkpt>
      <trkpt lat="45.05134" lon="5.65573">
        <ele>608.6</ele>
        <time>2021-01-16T13:39:55Z</time>
      </trkpt>
      <trkpt lat="45.05132" lon="5.65573">
        <ele>609</ele>
        <time>2021-01-16T13:39:56Z</time>
      </trkpt>
      <trkpt lat="45.05131" lon="5.65573">
        <ele>608.8</ele>
        <time>2021-01-16T13:39:57Z</time>
      </trkpt>
      <trkpt lat="45.05129" lon="5.65574">
        <ele>609.2</ele>
        <time>2021-01-16T13:39:58Z</time>
      </trkpt>
      <trkpt lat="45.05127" lon="5.65574">
        <ele>609.4</ele>
        <time>2021-01-16T13:39:59Z</time>
      </trkpt>
      <trkpt lat="45.05125" lon="5.65574">
        <ele>609.8</ele>
        <time>2021-01-16T13:40:01Z</time>
      </trkpt>
      <trkpt lat="45.05125" lon="5.65574">
        <ele>610.2</ele>
        <time>2021-01-16T13:40:02Z</time>
      </trkpt>
      <trkpt lat="45.05122" lon="5.65574">
        <ele>610.4</ele>
        <time>2021-01-16T13:40:03Z</time>
      </trkpt>
      <trkpt lat="45.05121" lon="5.65575">
        <ele>610.8</ele>
        <time>2021-01-16T13:40:04Z</time>
      </trkpt>
      <trkpt lat="45.0512" lon="5.65575">
        <ele>611</ele>
        <time>2021-01-16T13:40:05Z</time>
      </trkpt>
      <trkpt lat="45.05118" lon="5.65575">
        <ele>611.4</ele>
        <time>2021-01-16T13:40:06Z</time>
      </trkpt>
      <trkpt lat="45.05118" lon="5.65575">
        <ele>611.4</ele>
        <time>2021-01-16T13:40:07Z</time>
      </trkpt>
      <trkpt lat="45.05118" lon="5.65575">
        <ele>611.8</ele>
        <time>2021-01-16T13:40:08Z</time>
      </trkpt>
      <trkpt lat="45.05117" lon="5.65575">
        <ele>612</ele>
        <time>2021-01-16T13:40:09Z</time>
      </trkpt>
      <trkpt lat="45.05115" lon="5.65575">
        <ele>612.2</ele>
        <time>2021-01-16T13:40:10Z</time>
      </trkpt>
      <trkpt lat="45.05113" lon="5.65575">
        <ele>612.4</ele>
        <time>2021-01-16T13:40:11Z</time>
      </trkpt>
      <trkpt lat="45.05111" lon="5.65576">
        <ele>612.4</ele>
        <time>2021-01-16T13:40:12Z</time>
      </trkpt>
      <trkpt lat="45.05109" lon="5.65576">
        <ele>613</ele>
        <time>2021-01-16T13:40:13Z</time>
      </trkpt>
      <trkpt lat="45.05108" lon="5.65576">
        <ele>613.2</ele>
        <time>2021-01-16T13:40:14Z</time>
      </trkpt>
      <trkpt lat="45.05107" lon="5.65576">
        <ele>613.6</ele>
        <time>2021-01-16T13:40:15Z</time>
      </trkpt>
      <trkpt lat="45.05106" lon="5.65577">
        <ele>614</ele>
        <time>2021-01-16T13:40:16Z</time>
      </trkpt>
      <trkpt lat="45.05105" lon="5.65577">
        <ele>614.8</ele>
        <time>2021-01-16T13:40:17Z</time>
      </trkpt>
      <trkpt lat="45.05105" lon="5.65577">
        <ele>615</ele>
        <time>2021-01-16T13:40:18Z</time>
      </trkpt>
      <trkpt lat="45.05105" lon="5.65577">
        <ele>615.8</ele>
        <time>2021-01-16T13:40:19Z</time>
      </trkpt>
      <trkpt lat="45.05102" lon="5.65579">
        <ele>616.2</ele>
        <time>2021-01-16T13:40:20Z</time>
      </trkpt>
      <trkpt lat="45.051" lon="5.65579">
        <ele>616.6</ele>
        <time>2021-01-16T13:40:21Z</time>
      </trkpt>
      <trkpt lat="45.051" lon="5.65579">
        <ele>617</ele>
        <time>2021-01-16T13:40:22Z</time>
      </trkpt>
      <trkpt lat="45.05097" lon="5.65578">
        <ele>617.2</ele>
        <time>2021-01-16T13:40:23Z</time>
      </trkpt>
      <trkpt lat="45.05094" lon="5.65574">
        <ele>617.4</ele>
        <time>2021-01-16T13:40:24Z</time>
      </trkpt>
      <trkpt lat="45.05091" lon="5.65569">
        <ele>617.6</ele>
        <time>2021-01-16T13:40:25Z</time>
      </trkpt>
      <trkpt lat="45.05089" lon="5.65565">
        <ele>617.8</ele>
        <time>2021-01-16T13:40:26Z</time>
      </trkpt>
      <trkpt lat="45.05081" lon="5.65553">
        <ele>618.2</ele>
        <time>2021-01-16T13:40:27Z</time>
      </trkpt>
      <trkpt lat="45.05078" lon="5.65552">
        <ele>618.6</ele>
        <time>2021-01-16T13:40:28Z</time>
      </trkpt>
      <trkpt lat="45.05074" lon="5.65551">
        <ele>619</ele>
        <time>2021-01-16T13:40:29Z</time>
      </trkpt>
      <trkpt lat="45.05072" lon="5.6555">
        <ele>619.2</ele>
        <time>2021-01-16T13:40:30Z</time>
      </trkpt>
      <trkpt lat="45.0507" lon="5.65549">
        <ele>619.6</ele>
        <time>2021-01-16T13:40:31Z</time>
      </trkpt>
      <trkpt lat="45.05069" lon="5.65548">
        <ele>620</ele>
        <time>2021-01-16T13:40:32Z</time>
      </trkpt>
      <trkpt lat="45.05068" lon="5.65547">
        <ele>620.2</ele>
        <time>2021-01-16T13:40:33Z</time>
      </trkpt>
      <trkpt lat="45.05068" lon="5.65546">
        <ele>620.4</ele>
        <time>2021-01-16T13:40:34Z</time>
      </trkpt>
      <trkpt lat="45.05068" lon="5.65546">
        <ele>620.4</ele>
        <time>2021-01-16T13:40:35Z</time>
      </trkpt>
      <trkpt lat="45.05066" lon="5.65543">
        <ele>620.8</ele>
        <time>2021-01-16T13:40:36Z</time>
      </trkpt>
      <trkpt lat="45.05066" lon="5.65543">
        <ele>621</ele>
        <time>2021-01-16T13:40:37Z</time>
      </trkpt>
      <trkpt lat="45.05064" lon="5.65541">
        <ele>621.2</ele>
        <time>2021-01-16T13:40:38Z</time>
      </trkpt>
      <trkpt lat="45.05064" lon="5.65541">
        <ele>621.4</ele>
        <time>2021-01-16T13:40:39Z</time>
      </trkpt>
      <trkpt lat="45.05064" lon="5.65541">
        <ele>621.6</ele>
        <time>2021-01-16T13:40:40Z</time>
      </trkpt>
      <trkpt lat="45.05061" lon="5.65539">
        <ele>621.8</ele>
        <time>2021-01-16T13:40:41Z</time>
      </trkpt>
      <trkpt lat="45.05061" lon="5.65539">
        <ele>622</ele>
        <time>2021-01-16T13:40:42Z</time>
      </trkpt>
      <trkpt lat="45.0506" lon="5.65537">
        <ele>622.2</ele>
        <time>2021-01-16T13:40:43Z</time>
      </trkpt>
      <trkpt lat="45.05058" lon="5.65535">
        <ele>622.4</ele>
        <time>2021-01-16T13:40:44Z</time>
      </trkpt>
      <trkpt lat="45.05058" lon="5.65535">
        <ele>622.6</ele>
        <time>2021-01-16T13:40:45Z</time>
      </trkpt>
      <trkpt lat="45.05058" lon="5.65535">
        <ele>623.2</ele>
        <time>2021-01-16T13:40:46Z</time>
      </trkpt>
      <trkpt lat="45.05056" lon="5.65533">
        <ele>623.8</ele>
        <time>2021-01-16T13:40:47Z</time>
      </trkpt>
      <trkpt lat="45.05056" lon="5.65533">
        <ele>624</ele>
        <time>2021-01-16T13:40:48Z</time>
      </trkpt>
      <trkpt lat="45.05056" lon="5.65533">
        <ele>624</ele>
        <time>2021-01-16T13:40:49Z</time>
      </trkpt>
      <trkpt lat="45.05055" lon="5.65531">
        <ele>624</ele>
        <time>2021-01-16T13:40:50Z</time>
      </trkpt>
      <trkpt lat="45.05055" lon="5.65531">
        <ele>624.2</ele>
        <time>2021-01-16T13:40:51Z</time>
      </trkpt>
      <trkpt lat="45.05055" lon="5.65531">
        <ele>624.6</ele>
        <time>2021-01-16T13:40:52Z</time>
      </trkpt>
      <trkpt lat="45.05055" lon="5.65531">
        <ele>625</ele>
        <time>2021-01-16T13:40:53Z</time>
      </trkpt>
      <trkpt lat="45.05053" lon="5.6553">
        <ele>625.2</ele>
        <time>2021-01-16T13:40:54Z</time>
      </trkpt>
      <trkpt lat="45.05053" lon="5.6553">
        <ele>625.6</ele>
        <time>2021-01-16T13:40:55Z</time>
      </trkpt>
      <trkpt lat="45.05053" lon="5.6553">
        <ele>626</ele>
        <time>2021-01-16T13:40:56Z</time>
      </trkpt>
      <trkpt lat="45.05053" lon="5.65527">
        <ele>626.4</ele>
        <time>2021-01-16T13:40:57Z</time>
      </trkpt>
      <trkpt lat="45.05053" lon="5.65527">
        <ele>626.6</ele>
        <time>2021-01-16T13:40:58Z</time>
      </trkpt>
      <trkpt lat="45.05053" lon="5.65527">
        <ele>627</ele>
        <time>2021-01-16T13:40:59Z</time>
      </trkpt>
      <trkpt lat="45.05052" lon="5.65526">
        <ele>627.4</ele>
        <time>2021-01-16T13:41:00Z</time>
      </trkpt>
      <trkpt lat="45.05052" lon="5.65524">
        <ele>627.8</ele>
        <time>2021-01-16T13:41:01Z</time>
      </trkpt>
      <trkpt lat="45.05052" lon="5.65523">
        <ele>628.2</ele>
        <time>2021-01-16T13:41:02Z</time>
      </trkpt>
      <trkpt lat="45.05051" lon="5.65521">
        <ele>628.4</ele>
        <time>2021-01-16T13:41:03Z</time>
      </trkpt>
      <trkpt lat="45.0505" lon="5.65518">
        <ele>628.8</ele>
        <time>2021-01-16T13:41:04Z</time>
      </trkpt>
      <trkpt lat="45.05048" lon="5.65516">
        <ele>629</ele>
        <time>2021-01-16T13:41:05Z</time>
      </trkpt>
      <trkpt lat="45.05048" lon="5.65516">
        <ele>629.2</ele>
        <time>2021-01-16T13:41:06Z</time>
      </trkpt>
      <trkpt lat="45.05048" lon="5.65516">
        <ele>629.6</ele>
        <time>2021-01-16T13:41:07Z</time>
      </trkpt>
      <trkpt lat="45.05046" lon="5.65514">
        <ele>629.8</ele>
        <time>2021-01-16T13:41:08Z</time>
      </trkpt>
      <trkpt lat="45.05046" lon="5.65514">
        <ele>630.2</ele>
        <time>2021-01-16T13:41:09Z</time>
      </trkpt>
      <trkpt lat="45.05046" lon="5.65514">
        <ele>630.6</ele>
        <time>2021-01-16T13:41:10Z</time>
      </trkpt>
      <trkpt lat="45.05046" lon="5.65514">
        <ele>631</ele>
        <time>2021-01-16T13:41:11Z</time>
      </trkpt>
      <trkpt lat="45.05046" lon="5.65514">
        <ele>631.4</ele>
        <time>2021-01-16T13:41:12Z</time>
      </trkpt>
      <trkpt lat="45.05044" lon="5.65513">
        <ele>631.8</ele>
        <time>2021-01-16T13:41:13Z</time>
      </trkpt>
      <trkpt lat="45.05044" lon="5.65513">
        <ele>632</ele>
        <time>2021-01-16T13:41:14Z</time>
      </trkpt>
      <trkpt lat="45.05044" lon="5.65513">
        <ele>632.4</ele>
        <time>2021-01-16T13:41:15Z</time>
      </trkpt>
      <trkpt lat="45.05044" lon="5.65513">
        <ele>632.6</ele>
        <time>2021-01-16T13:41:16Z</time>
      </trkpt>
      <trkpt lat="45.05041" lon="5.65511">
        <ele>632.8</ele>
        <time>2021-01-16T13:41:17Z</time>
      </trkpt>
      <trkpt lat="45.05041" lon="5.65511">
        <ele>633.2</ele>
        <time>2021-01-16T13:41:18Z</time>
      </trkpt>
      <trkpt lat="45.05041" lon="5.65511">
        <ele>633.4</ele>
        <time>2021-01-16T13:41:19Z</time>
      </trkpt>
      <trkpt lat="45.05041" lon="5.65511">
        <ele>633.8</ele>
        <time>2021-01-16T13:41:20Z</time>
      </trkpt>
      <trkpt lat="45.05041" lon="5.65511">
        <ele>633.8</ele>
        <time>2021-01-16T13:41:21Z</time>
      </trkpt>
      <trkpt lat="45.0504" lon="5.6551">
        <ele>634</ele>
        <time>2021-01-16T13:41:22Z</time>
      </trkpt>
      <trkpt lat="45.05039" lon="5.65509">
        <ele>634.2</ele>
        <time>2021-01-16T13:41:23Z</time>
      </trkpt>
      <trkpt lat="45.05039" lon="5.65508">
        <ele>634.6</ele>
        <time>2021-01-16T13:41:24Z</time>
      </trkpt>
      <trkpt lat="45.05038" lon="5.65507">
        <ele>635</ele>
        <time>2021-01-16T13:41:25Z</time>
      </trkpt>
      <trkpt lat="45.05038" lon="5.65506">
        <ele>635.2</ele>
        <time>2021-01-16T13:41:26Z</time>
      </trkpt>
      <trkpt lat="45.05037" lon="5.65506">
        <ele>635.4</ele>
        <time>2021-01-16T13:41:27Z</time>
      </trkpt>
      <trkpt lat="45.05037" lon="5.65506">
        <ele>635.4</ele>
        <time>2021-01-16T13:41:28Z</time>
      </trkpt>
      <trkpt lat="45.05036" lon="5.65504">
        <ele>635.8</ele>
        <time>2021-01-16T13:41:29Z</time>
      </trkpt>
      <trkpt lat="45.05036" lon="5.65504">
        <ele>636</ele>
        <time>2021-01-16T13:41:30Z</time>
      </trkpt>
      <trkpt lat="45.05036" lon="5.65504">
        <ele>636.4</ele>
        <time>2021-01-16T13:41:31Z</time>
      </trkpt>
      <trkpt lat="45.05035" lon="5.65502">
        <ele>636.8</ele>
        <time>2021-01-16T13:41:32Z</time>
      </trkpt>
      <trkpt lat="45.05035" lon="5.65502">
        <ele>637</ele>
        <time>2021-01-16T13:41:33Z</time>
      </trkpt>
      <trkpt lat="45.05033" lon="5.65499">
        <ele>637.2</ele>
        <time>2021-01-16T13:41:34Z</time>
      </trkpt>
      <trkpt lat="45.05033" lon="5.65499">
        <ele>637.4</ele>
        <time>2021-01-16T13:41:35Z</time>
      </trkpt>
      <trkpt lat="45.05033" lon="5.65499">
        <ele>637.6</ele>
        <time>2021-01-16T13:41:36Z</time>
      </trkpt>
      <trkpt lat="45.05033" lon="5.65499">
        <ele>638</ele>
        <time>2021-01-16T13:41:37Z</time>
      </trkpt>
      <trkpt lat="45.05032" lon="5.65497">
        <ele>638.4</ele>
        <time>2021-01-16T13:41:38Z</time>
      </trkpt>
      <trkpt lat="45.05032" lon="5.65497">
        <ele>638.6</ele>
        <time>2021-01-16T13:41:39Z</time>
      </trkpt>
      <trkpt lat="45.05032" lon="5.65497">
        <ele>638.8</ele>
        <time>2021-01-16T13:41:40Z</time>
      </trkpt>
      <trkpt lat="45.05031" lon="5.65494">
        <ele>639</ele>
        <time>2021-01-16T13:41:41Z</time>
      </trkpt>
      <trkpt lat="45.05031" lon="5.65494">
        <ele>639.2</ele>
        <time>2021-01-16T13:41:42Z</time>
      </trkpt>
      <trkpt lat="45.05031" lon="5.65494">
        <ele>639.6</ele>
        <time>2021-01-16T13:41:43Z</time>
      </trkpt>
      <trkpt lat="45.05029" lon="5.65492">
        <ele>640</ele>
        <time>2021-01-16T13:41:44Z</time>
      </trkpt>
      <trkpt lat="45.05029" lon="5.65492">
        <ele>640.4</ele>
        <time>2021-01-16T13:41:45Z</time>
      </trkpt>
      <trkpt lat="45.05029" lon="5.65492">
        <ele>640.6</ele>
        <time>2021-01-16T13:41:46Z</time>
      </trkpt>
      <trkpt lat="45.05029" lon="5.65492">
        <ele>640.8</ele>
        <time>2021-01-16T13:41:47Z</time>
      </trkpt>
      <trkpt lat="45.05027" lon="5.65488">
        <ele>641.2</ele>
        <time>2021-01-16T13:41:48Z</time>
      </trkpt>
      <trkpt lat="45.05027" lon="5.65488">
        <ele>641.4</ele>
        <time>2021-01-16T13:41:49Z</time>
      </trkpt>
      <trkpt lat="45.05027" lon="5.65488">
        <ele>641.8</ele>
        <time>2021-01-16T13:41:50Z</time>
      </trkpt>
      <trkpt lat="45.05026" lon="5.65486">
        <ele>642.2</ele>
        <time>2021-01-16T13:41:51Z</time>
      </trkpt>
      <trkpt lat="45.05026" lon="5.65486">
        <ele>642.4</ele>
        <time>2021-01-16T13:41:52Z</time>
      </trkpt>
      <trkpt lat="45.05026" lon="5.65486">
        <ele>642.8</ele>
        <time>2021-01-16T13:41:53Z</time>
      </trkpt>
      <trkpt lat="45.05023" lon="5.65485">
        <ele>643</ele>
        <time>2021-01-16T13:41:54Z</time>
      </trkpt>
      <trkpt lat="45.05023" lon="5.65485">
        <ele>643.4</ele>
        <time>2021-01-16T13:41:55Z</time>
      </trkpt>
      <trkpt lat="45.05023" lon="5.65485">
        <ele>643.4</ele>
        <time>2021-01-16T13:41:56Z</time>
      </trkpt>
      <trkpt lat="45.05021" lon="5.65485">
        <ele>643.6</ele>
        <time>2021-01-16T13:41:57Z</time>
      </trkpt>
      <trkpt lat="45.05019" lon="5.65485">
        <ele>643.6</ele>
        <time>2021-01-16T13:41:58Z</time>
      </trkpt>
      <trkpt lat="45.05019" lon="5.65485">
        <ele>643.8</ele>
        <time>2021-01-16T13:41:59Z</time>
      </trkpt>
      <trkpt lat="45.05019" lon="5.65485">
        <ele>643.8</ele>
        <time>2021-01-16T13:42:00Z</time>
      </trkpt>
      <trkpt lat="45.05019" lon="5.65485">
        <ele>644</ele>
        <time>2021-01-16T13:42:01Z</time>
      </trkpt>
      <trkpt lat="45.05017" lon="5.65483">
        <ele>644</ele>
        <time>2021-01-16T13:42:02Z</time>
      </trkpt>
      <trkpt lat="45.05017" lon="5.65483">
        <ele>644.4</ele>
        <time>2021-01-16T13:42:03Z</time>
      </trkpt>
      <trkpt lat="45.05015" lon="5.65482">
        <ele>644.6</ele>
        <time>2021-01-16T13:42:04Z</time>
      </trkpt>
      <trkpt lat="45.05015" lon="5.65482">
        <ele>644.8</ele>
        <time>2021-01-16T13:42:05Z</time>
      </trkpt>
      <trkpt lat="45.05015" lon="5.65482">
        <ele>645</ele>
        <time>2021-01-16T13:42:06Z</time>
      </trkpt>
      <trkpt lat="45.05015" lon="5.65482">
        <ele>645.2</ele>
        <time>2021-01-16T13:42:07Z</time>
      </trkpt>
      <trkpt lat="45.05015" lon="5.65482">
        <ele>645.4</ele>
        <time>2021-01-16T13:42:08Z</time>
      </trkpt>
      <trkpt lat="45.05015" lon="5.65482">
        <ele>645.4</ele>
        <time>2021-01-16T13:42:09Z</time>
      </trkpt>
      <trkpt lat="45.05012" lon="5.6548">
        <ele>645.6</ele>
        <time>2021-01-16T13:42:10Z</time>
      </trkpt>
      <trkpt lat="45.05012" lon="5.6548">
        <ele>645.8</ele>
        <time>2021-01-16T13:42:11Z</time>
      </trkpt>
      <trkpt lat="45.05012" lon="5.6548">
        <ele>646.2</ele>
        <time>2021-01-16T13:42:12Z</time>
      </trkpt>
      <trkpt lat="45.0501" lon="5.65477">
        <ele>646.4</ele>
        <time>2021-01-16T13:42:13Z</time>
      </trkpt>
      <trkpt lat="45.0501" lon="5.65477">
        <ele>646.8</ele>
        <time>2021-01-16T13:42:14Z</time>
      </trkpt>
      <trkpt lat="45.0501" lon="5.65477">
        <ele>647.2</ele>
        <time>2021-01-16T13:42:15Z</time>
      </trkpt>
      <trkpt lat="45.05009" lon="5.65475">
        <ele>647.4</ele>
        <time>2021-01-16T13:42:16Z</time>
      </trkpt>
      <trkpt lat="45.05009" lon="5.65474">
        <ele>648</ele>
        <time>2021-01-16T13:42:17Z</time>
      </trkpt>
      <trkpt lat="45.05008" lon="5.65473">
        <ele>648.4</ele>
        <time>2021-01-16T13:42:18Z</time>
      </trkpt>
      <trkpt lat="45.05008" lon="5.65473">
        <ele>648.8</ele>
        <time>2021-01-16T13:42:19Z</time>
      </trkpt>
      <trkpt lat="45.05007" lon="5.65472">
        <ele>649</ele>
        <time>2021-01-16T13:42:20Z</time>
      </trkpt>
      <trkpt lat="45.05007" lon="5.65471">
        <ele>649.4</ele>
        <time>2021-01-16T13:42:21Z</time>
      </trkpt>
      <trkpt lat="45.05007" lon="5.6547">
        <ele>649.8</ele>
        <time>2021-01-16T13:42:22Z</time>
      </trkpt>
      <trkpt lat="45.05007" lon="5.6547">
        <ele>650</ele>
        <time>2021-01-16T13:42:23Z</time>
      </trkpt>
      <trkpt lat="45.05006" lon="5.65468">
        <ele>650.2</ele>
        <time>2021-01-16T13:42:24Z</time>
      </trkpt>
      <trkpt lat="45.05006" lon="5.65468">
        <ele>650.6</ele>
        <time>2021-01-16T13:42:25Z</time>
      </trkpt>
      <trkpt lat="45.05005" lon="5.65465">
        <ele>651</ele>
        <time>2021-01-16T13:42:26Z</time>
      </trkpt>
      <trkpt lat="45.05003" lon="5.65464">
        <ele>651.2</ele>
        <time>2021-01-16T13:42:27Z</time>
      </trkpt>
      <trkpt lat="45.05001" lon="5.65462">
        <ele>651.6</ele>
        <time>2021-01-16T13:42:28Z</time>
      </trkpt>
      <trkpt lat="45.04999" lon="5.6546">
        <ele>652</ele>
        <time>2021-01-16T13:42:29Z</time>
      </trkpt>
      <trkpt lat="45.04993" lon="5.65454">
        <ele>652.2</ele>
        <time>2021-01-16T13:42:30Z</time>
      </trkpt>
      <trkpt lat="45.04991" lon="5.65454">
        <ele>652.2</ele>
        <time>2021-01-16T13:42:31Z</time>
      </trkpt>
      <trkpt lat="45.04986" lon="5.65453">
        <ele>652.6</ele>
        <time>2021-01-16T13:42:32Z</time>
      </trkpt>
      <trkpt lat="45.04986" lon="5.65453">
        <ele>652.8</ele>
        <time>2021-01-16T13:42:33Z</time>
      </trkpt>
      <trkpt lat="45.04986" lon="5.65453">
        <ele>652.6</ele>
        <time>2021-01-16T13:42:34Z</time>
      </trkpt>
      <trkpt lat="45.04986" lon="5.65453">
        <ele>652.8</ele>
        <time>2021-01-16T13:42:35Z</time>
      </trkpt>
      <trkpt lat="45.04986" lon="5.65453">
        <ele>652.8</ele>
        <time>2021-01-16T13:42:36Z</time>
      </trkpt>
      <trkpt lat="45.04986" lon="5.65453">
        <ele>653</ele>
        <time>2021-01-16T13:42:37Z</time>
      </trkpt>
      <trkpt lat="45.04986" lon="5.65453">
        <ele>653.2</ele>
        <time>2021-01-16T13:42:38Z</time>
      </trkpt>
      <trkpt lat="45.04986" lon="5.65453">
        <ele>653.4</ele>
        <time>2021-01-16T13:42:39Z</time>
      </trkpt>
      <trkpt lat="45.04986" lon="5.65453">
        <ele>653.8</ele>
        <time>2021-01-16T13:42:40Z</time>
      </trkpt>
      <trkpt lat="45.04986" lon="5.65453">
        <ele>654.2</ele>
        <time>2021-01-16T13:42:41Z</time>
      </trkpt>
      <trkpt lat="45.04986" lon="5.65453">
        <ele>654.6</ele>
        <time>2021-01-16T13:42:42Z</time>
      </trkpt>
      <trkpt lat="45.04986" lon="5.65453">
        <ele>654.8</ele>
        <time>2021-01-16T13:42:43Z</time>
      </trkpt>
      <trkpt lat="45.04986" lon="5.65453">
        <ele>655.2</ele>
        <time>2021-01-16T13:42:44Z</time>
      </trkpt>
      <trkpt lat="45.04986" lon="5.65453">
        <ele>655.6</ele>
        <time>2021-01-16T13:42:45Z</time>
      </trkpt>
      <trkpt lat="45.04988" lon="5.65451">
        <ele>655.8</ele>
        <time>2021-01-16T13:42:46Z</time>
      </trkpt>
      <trkpt lat="45.04988" lon="5.65451">
        <ele>656.4</ele>
        <time>2021-01-16T13:42:47Z</time>
      </trkpt>
      <trkpt lat="45.04988" lon="5.65451">
        <ele>656.6</ele>
        <time>2021-01-16T13:42:48Z</time>
      </trkpt>
      <trkpt lat="45.04988" lon="5.65451">
        <ele>656.6</ele>
        <time>2021-01-16T13:42:49Z</time>
      </trkpt>
      <trkpt lat="45.04988" lon="5.65451">
        <ele>656.8</ele>
        <time>2021-01-16T13:42:50Z</time>
      </trkpt>
      <trkpt lat="45.04988" lon="5.65451">
        <ele>657.2</ele>
        <time>2021-01-16T13:42:51Z</time>
      </trkpt>
      <trkpt lat="45.04991" lon="5.65454">
        <ele>657.8</ele>
        <time>2021-01-16T13:42:52Z</time>
      </trkpt>
      <trkpt lat="45.04992" lon="5.65454">
        <ele>658.2</ele>
        <time>2021-01-16T13:42:53Z</time>
      </trkpt>
      <trkpt lat="45.04992" lon="5.65455">
        <ele>658.6</ele>
        <time>2021-01-16T13:42:54Z</time>
      </trkpt>
      <trkpt lat="45.04993" lon="5.65455">
        <ele>659.2</ele>
        <time>2021-01-16T13:42:55Z</time>
      </trkpt>
      <trkpt lat="45.04994" lon="5.65456">
        <ele>659.4</ele>
        <time>2021-01-16T13:42:56Z</time>
      </trkpt>
      <trkpt lat="45.04994" lon="5.65456">
        <ele>659.6</ele>
        <time>2021-01-16T13:42:57Z</time>
      </trkpt>
      <trkpt lat="45.04994" lon="5.65456">
        <ele>659.6</ele>
        <time>2021-01-16T13:42:58Z</time>
      </trkpt>
      <trkpt lat="45.04994" lon="5.65456">
        <ele>659.8</ele>
        <time>2021-01-16T13:42:59Z</time>
      </trkpt>
      <trkpt lat="45.04994" lon="5.65456">
        <ele>660.2</ele>
        <time>2021-01-16T13:43:00Z</time>
      </trkpt>
      <trkpt lat="45.04997" lon="5.65457">
        <ele>660.4</ele>
        <time>2021-01-16T13:43:01Z</time>
      </trkpt>
      <trkpt lat="45.04998" lon="5.65457">
        <ele>660.8</ele>
        <time>2021-01-16T13:43:02Z</time>
      </trkpt>
      <trkpt lat="45.05" lon="5.65457">
        <ele>661.2</ele>
        <time>2021-01-16T13:43:03Z</time>
      </trkpt>
      <trkpt lat="45.05001" lon="5.65456">
        <ele>661.2</ele>
        <time>2021-01-16T13:43:04Z</time>
      </trkpt>
      <trkpt lat="45.05002" lon="5.65456">
        <ele>661.8</ele>
        <time>2021-01-16T13:43:05Z</time>
      </trkpt>
      <trkpt lat="45.05003" lon="5.65456">
        <ele>662.2</ele>
        <time>2021-01-16T13:43:06Z</time>
      </trkpt>
      <trkpt lat="45.05005" lon="5.65455">
        <ele>662.6</ele>
        <time>2021-01-16T13:43:07Z</time>
      </trkpt>
      <trkpt lat="45.05006" lon="5.65455">
        <ele>662.8</ele>
        <time>2021-01-16T13:43:08Z</time>
      </trkpt>
      <trkpt lat="45.05007" lon="5.65455">
        <ele>663.2</ele>
        <time>2021-01-16T13:43:09Z</time>
      </trkpt>
      <trkpt lat="45.05008" lon="5.65454">
        <ele>663.6</ele>
        <time>2021-01-16T13:43:10Z</time>
      </trkpt>
      <trkpt lat="45.0501" lon="5.65454">
        <ele>663.6</ele>
        <time>2021-01-16T13:43:11Z</time>
      </trkpt>
      <trkpt lat="45.05011" lon="5.65454">
        <ele>663.6</ele>
        <time>2021-01-16T13:43:12Z</time>
      </trkpt>
      <trkpt lat="45.05012" lon="5.65453">
        <ele>663.8</ele>
        <time>2021-01-16T13:43:13Z</time>
      </trkpt>
      <trkpt lat="45.05013" lon="5.65453">
        <ele>663.8</ele>
        <time>2021-01-16T13:43:14Z</time>
      </trkpt>
      <trkpt lat="45.05015" lon="5.65453">
        <ele>664</ele>
        <time>2021-01-16T13:43:15Z</time>
      </trkpt>
      <trkpt lat="45.05016" lon="5.65452">
        <ele>664</ele>
        <time>2021-01-16T13:43:16Z</time>
      </trkpt>
      <trkpt lat="45.05017" lon="5.65452">
        <ele>664.2</ele>
        <time>2021-01-16T13:43:17Z</time>
      </trkpt>
      <trkpt lat="45.05019" lon="5.65452">
        <ele>664.4</ele>
        <time>2021-01-16T13:43:18Z</time>
      </trkpt>
      <trkpt lat="45.0502" lon="5.65451">
        <ele>664.8</ele>
        <time>2021-01-16T13:43:19Z</time>
      </trkpt>
      <trkpt lat="45.05021" lon="5.65451">
        <ele>665.2</ele>
        <time>2021-01-16T13:43:20Z</time>
      </trkpt>
      <trkpt lat="45.05022" lon="5.65451">
        <ele>665.6</ele>
        <time>2021-01-16T13:43:21Z</time>
      </trkpt>
      <trkpt lat="45.05024" lon="5.6545">
        <ele>665.8</ele>
        <time>2021-01-16T13:43:22Z</time>
      </trkpt>
      <trkpt lat="45.05025" lon="5.6545">
        <ele>666</ele>
        <time>2021-01-16T13:43:23Z</time>
      </trkpt>
      <trkpt lat="45.05026" lon="5.6545">
        <ele>666.2</ele>
        <time>2021-01-16T13:43:24Z</time>
      </trkpt>
      <trkpt lat="45.05027" lon="5.65449">
        <ele>666.6</ele>
        <time>2021-01-16T13:43:25Z</time>
      </trkpt>
      <trkpt lat="45.05029" lon="5.65449">
        <ele>667</ele>
        <time>2021-01-16T13:43:26Z</time>
      </trkpt>
      <trkpt lat="45.0503" lon="5.65449">
        <ele>667.4</ele>
        <time>2021-01-16T13:43:27Z</time>
      </trkpt>
      <trkpt lat="45.05031" lon="5.65448">
        <ele>667.8</ele>
        <time>2021-01-16T13:43:28Z</time>
      </trkpt>
      <trkpt lat="45.05032" lon="5.65448">
        <ele>668.2</ele>
        <time>2021-01-16T13:43:29Z</time>
      </trkpt>
      <trkpt lat="45.05034" lon="5.65448">
        <ele>668.4</ele>
        <time>2021-01-16T13:43:30Z</time>
      </trkpt>
      <trkpt lat="45.05035" lon="5.65447">
        <ele>668.6</ele>
        <time>2021-01-16T13:43:31Z</time>
      </trkpt>
      <trkpt lat="45.05036" lon="5.65447">
        <ele>669</ele>
        <time>2021-01-16T13:43:32Z</time>
      </trkpt>
      <trkpt lat="45.05037" lon="5.65447">
        <ele>669.4</ele>
        <time>2021-01-16T13:43:33Z</time>
      </trkpt>
      <trkpt lat="45.05039" lon="5.65446">
        <ele>669.6</ele>
        <time>2021-01-16T13:43:34Z</time>
      </trkpt>
      <trkpt lat="45.0504" lon="5.65446">
        <ele>669.8</ele>
        <time>2021-01-16T13:43:35Z</time>
      </trkpt>
      <trkpt lat="45.05041" lon="5.65446">
        <ele>669.8</ele>
        <time>2021-01-16T13:43:36Z</time>
      </trkpt>
      <trkpt lat="45.05043" lon="5.65445">
        <ele>670.2</ele>
        <time>2021-01-16T13:43:37Z</time>
      </trkpt>
      <trkpt lat="45.05044" lon="5.65445">
        <ele>670.4</ele>
        <time>2021-01-16T13:43:38Z</time>
      </trkpt>
      <trkpt lat="45.05045" lon="5.65445">
        <ele>670.6</ele>
        <time>2021-01-16T13:43:39Z</time>
      </trkpt>
      <trkpt lat="45.05046" lon="5.65444">
        <ele>671</ele>
        <time>2021-01-16T13:43:40Z</time>
      </trkpt>
      <trkpt lat="45.05048" lon="5.65444">
        <ele>671.2</ele>
        <time>2021-01-16T13:43:41Z</time>
      </trkpt>
      <trkpt lat="45.05049" lon="5.65444">
        <ele>671.6</ele>
        <time>2021-01-16T13:43:42Z</time>
      </trkpt>
      <trkpt lat="45.0505" lon="5.65443">
        <ele>672</ele>
        <time>2021-01-16T13:43:43Z</time>
      </trkpt>
      <trkpt lat="45.05051" lon="5.65443">
        <ele>672.2</ele>
        <time>2021-01-16T13:43:44Z</time>
      </trkpt>
      <trkpt lat="45.05051" lon="5.65443">
        <ele>672.6</ele>
        <time>2021-01-16T13:43:45Z</time>
      </trkpt>
      <trkpt lat="45.05051" lon="5.65443">
        <ele>672.8</ele>
        <time>2021-01-16T13:43:46Z</time>
      </trkpt>
      <trkpt lat="45.05051" lon="5.65443">
        <ele>673.4</ele>
        <time>2021-01-16T13:43:47Z</time>
      </trkpt>
      <trkpt lat="45.05052" lon="5.65442">
        <ele>673.8</ele>
        <time>2021-01-16T13:43:48Z</time>
      </trkpt>
      <trkpt lat="45.05053" lon="5.65441">
        <ele>673.8</ele>
        <time>2021-01-16T13:43:49Z</time>
      </trkpt>
      <trkpt lat="45.05054" lon="5.6544">
        <ele>673.8</ele>
        <time>2021-01-16T13:43:50Z</time>
      </trkpt>
      <trkpt lat="45.05055" lon="5.65438">
        <ele>674.2</ele>
        <time>2021-01-16T13:43:51Z</time>
      </trkpt>
      <trkpt lat="45.05056" lon="5.65437">
        <ele>674.4</ele>
        <time>2021-01-16T13:43:52Z</time>
      </trkpt>
      <trkpt lat="45.05057" lon="5.65436">
        <ele>674.8</ele>
        <time>2021-01-16T13:43:53Z</time>
      </trkpt>
      <trkpt lat="45.05058" lon="5.65435">
        <ele>675.2</ele>
        <time>2021-01-16T13:43:54Z</time>
      </trkpt>
      <trkpt lat="45.05059" lon="5.65434">
        <ele>675.6</ele>
        <time>2021-01-16T13:43:55Z</time>
      </trkpt>
      <trkpt lat="45.0506" lon="5.65431">
        <ele>675.6</ele>
        <time>2021-01-16T13:43:56Z</time>
      </trkpt>
      <trkpt lat="45.0506" lon="5.65431">
        <ele>675.8</ele>
        <time>2021-01-16T13:43:57Z</time>
      </trkpt>
      <trkpt lat="45.0506" lon="5.65431">
        <ele>676</ele>
        <time>2021-01-16T13:43:58Z</time>
      </trkpt>
      <trkpt lat="45.05061" lon="5.65431">
        <ele>676.2</ele>
        <time>2021-01-16T13:43:59Z</time>
      </trkpt>
      <trkpt lat="45.05061" lon="5.6543">
        <ele>676.2</ele>
        <time>2021-01-16T13:44:00Z</time>
      </trkpt>
      <trkpt lat="45.05062" lon="5.65429">
        <ele>676.2</ele>
        <time>2021-01-16T13:44:01Z</time>
      </trkpt>
      <trkpt lat="45.05062" lon="5.65428">
        <ele>676.2</ele>
        <time>2021-01-16T13:44:02Z</time>
      </trkpt>
      <trkpt lat="45.05063" lon="5.65428">
        <ele>676.4</ele>
        <time>2021-01-16T13:44:03Z</time>
      </trkpt>
      <trkpt lat="45.05063" lon="5.65427">
        <ele>676.8</ele>
        <time>2021-01-16T13:44:04Z</time>
      </trkpt>
      <trkpt lat="45.05064" lon="5.65426">
        <ele>676.8</ele>
        <time>2021-01-16T13:44:05Z</time>
      </trkpt>
      <trkpt lat="45.05065" lon="5.65425">
        <ele>677</ele>
        <time>2021-01-16T13:44:06Z</time>
      </trkpt>
      <trkpt lat="45.05065" lon="5.65425">
        <ele>677</ele>
        <time>2021-01-16T13:44:07Z</time>
      </trkpt>
      <trkpt lat="45.05066" lon="5.65424">
        <ele>677</ele>
        <time>2021-01-16T13:44:08Z</time>
      </trkpt>
      <trkpt lat="45.05066" lon="5.65423">
        <ele>677.2</ele>
        <time>2021-01-16T13:44:09Z</time>
      </trkpt>
      <trkpt lat="45.05066" lon="5.65423">
        <ele>677.4</ele>
        <time>2021-01-16T13:44:10Z</time>
      </trkpt>
      <trkpt lat="45.05066" lon="5.65423">
        <ele>677.6</ele>
        <time>2021-01-16T13:44:11Z</time>
      </trkpt>
      <trkpt lat="45.05066" lon="5.65423">
        <ele>678</ele>
        <time>2021-01-16T13:44:12Z</time>
      </trkpt>
      <trkpt lat="45.05069" lon="5.65422">
        <ele>678</ele>
        <time>2021-01-16T13:44:13Z</time>
      </trkpt>
      <trkpt lat="45.0507" lon="5.65418">
        <ele>678</ele>
        <time>2021-01-16T13:44:14Z</time>
      </trkpt>
      <trkpt lat="45.05072" lon="5.65414">
        <ele>678</ele>
        <time>2021-01-16T13:44:15Z</time>
      </trkpt>
      <trkpt lat="45.05075" lon="5.65406">
        <ele>678.2</ele>
        <time>2021-01-16T13:44:16Z</time>
      </trkpt>
      <trkpt lat="45.05076" lon="5.65404">
        <ele>678.6</ele>
        <time>2021-01-16T13:44:17Z</time>
      </trkpt>
      <trkpt lat="45.05077" lon="5.65402">
        <ele>678.8</ele>
        <time>2021-01-16T13:44:18Z</time>
      </trkpt>
      <trkpt lat="45.05081" lon="5.65396">
        <ele>679</ele>
        <time>2021-01-16T13:44:19Z</time>
      </trkpt>
      <trkpt lat="45.05081" lon="5.65396">
        <ele>679.2</ele>
        <time>2021-01-16T13:44:20Z</time>
      </trkpt>
      <trkpt lat="45.05081" lon="5.65396">
        <ele>679.4</ele>
        <time>2021-01-16T13:44:21Z</time>
      </trkpt>
      <trkpt lat="45.05082" lon="5.65394">
        <ele>679.8</ele>
        <time>2021-01-16T13:44:22Z</time>
      </trkpt>
      <trkpt lat="45.05083" lon="5.65391">
        <ele>679.8</ele>
        <time>2021-01-16T13:44:23Z</time>
      </trkpt>
      <trkpt lat="45.05084" lon="5.65389">
        <ele>680</ele>
        <time>2021-01-16T13:44:24Z</time>
      </trkpt>
      <trkpt lat="45.05085" lon="5.65387">
        <ele>680</ele>
        <time>2021-01-16T13:44:25Z</time>
      </trkpt>
      <trkpt lat="45.05086" lon="5.65385">
        <ele>680.4</ele>
        <time>2021-01-16T13:44:26Z</time>
      </trkpt>
      <trkpt lat="45.05086" lon="5.65383">
        <ele>680.4</ele>
        <time>2021-01-16T13:44:27Z</time>
      </trkpt>
      <trkpt lat="45.05086" lon="5.65381">
        <ele>680.6</ele>
        <time>2021-01-16T13:44:28Z</time>
      </trkpt>
      <trkpt lat="45.05086" lon="5.65379">
        <ele>680.8</ele>
        <time>2021-01-16T13:44:29Z</time>
      </trkpt>
      <trkpt lat="45.05086" lon="5.65378">
        <ele>681</ele>
        <time>2021-01-16T13:44:30Z</time>
      </trkpt>
      <trkpt lat="45.05085" lon="5.65376">
        <ele>681.2</ele>
        <time>2021-01-16T13:44:31Z</time>
      </trkpt>
      <trkpt lat="45.05084" lon="5.65375">
        <ele>681.4</ele>
        <time>2021-01-16T13:44:32Z</time>
      </trkpt>
      <trkpt lat="45.05083" lon="5.65374">
        <ele>681.6</ele>
        <time>2021-01-16T13:44:33Z</time>
      </trkpt>
      <trkpt lat="45.05083" lon="5.65372">
        <ele>682</ele>
        <time>2021-01-16T13:44:34Z</time>
      </trkpt>
      <trkpt lat="45.05082" lon="5.65371">
        <ele>682.4</ele>
        <time>2021-01-16T13:44:35Z</time>
      </trkpt>
      <trkpt lat="45.05081" lon="5.65369">
        <ele>682.8</ele>
        <time>2021-01-16T13:44:36Z</time>
      </trkpt>
      <trkpt lat="45.0508" lon="5.65368">
        <ele>683.2</ele>
        <time>2021-01-16T13:44:37Z</time>
      </trkpt>
      <trkpt lat="45.0508" lon="5.65367">
        <ele>683.6</ele>
        <time>2021-01-16T13:44:38Z</time>
      </trkpt>
      <trkpt lat="45.05079" lon="5.65366">
        <ele>684</ele>
        <time>2021-01-16T13:44:39Z</time>
      </trkpt>
      <trkpt lat="45.05078" lon="5.65365">
        <ele>684.2</ele>
        <time>2021-01-16T13:44:40Z</time>
      </trkpt>
      <trkpt lat="45.05078" lon="5.65364">
        <ele>684.6</ele>
        <time>2021-01-16T13:44:41Z</time>
      </trkpt>
      <trkpt lat="45.05077" lon="5.65363">
        <ele>685</ele>
        <time>2021-01-16T13:44:42Z</time>
      </trkpt>
      <trkpt lat="45.05077" lon="5.65362">
        <ele>685.2</ele>
        <time>2021-01-16T13:44:43Z</time>
      </trkpt>
      <trkpt lat="45.05076" lon="5.65361">
        <ele>685.6</ele>
        <time>2021-01-16T13:44:44Z</time>
      </trkpt>
      <trkpt lat="45.05076" lon="5.6536">
        <ele>685.6</ele>
        <time>2021-01-16T13:44:45Z</time>
      </trkpt>
      <trkpt lat="45.05075" lon="5.65359">
        <ele>686</ele>
        <time>2021-01-16T13:44:46Z</time>
      </trkpt>
      <trkpt lat="45.05075" lon="5.65358">
        <ele>686.6</ele>
        <time>2021-01-16T13:44:47Z</time>
      </trkpt>
      <trkpt lat="45.05074" lon="5.65357">
        <ele>687</ele>
        <time>2021-01-16T13:44:48Z</time>
      </trkpt>
      <trkpt lat="45.05073" lon="5.65356">
        <ele>687</ele>
        <time>2021-01-16T13:44:49Z</time>
      </trkpt>
      <trkpt lat="45.05073" lon="5.65355">
        <ele>687.2</ele>
        <time>2021-01-16T13:44:50Z</time>
      </trkpt>
      <trkpt lat="45.05072" lon="5.65353">
        <ele>687.6</ele>
        <time>2021-01-16T13:44:51Z</time>
      </trkpt>
      <trkpt lat="45.05072" lon="5.65352">
        <ele>687.8</ele>
        <time>2021-01-16T13:44:52Z</time>
      </trkpt>
      <trkpt lat="45.05071" lon="5.65351">
        <ele>688.2</ele>
        <time>2021-01-16T13:44:53Z</time>
      </trkpt>
      <trkpt lat="45.05071" lon="5.65349">
        <ele>688.6</ele>
        <time>2021-01-16T13:44:54Z</time>
      </trkpt>
      <trkpt lat="45.0507" lon="5.65348">
        <ele>689</ele>
        <time>2021-01-16T13:44:55Z</time>
      </trkpt>
      <trkpt lat="45.0507" lon="5.65347">
        <ele>689.4</ele>
        <time>2021-01-16T13:44:56Z</time>
      </trkpt>
      <trkpt lat="45.05069" lon="5.65345">
        <ele>689.6</ele>
        <time>2021-01-16T13:44:57Z</time>
      </trkpt>
      <trkpt lat="45.05069" lon="5.65344">
        <ele>690</ele>
        <time>2021-01-16T13:44:58Z</time>
      </trkpt>
      <trkpt lat="45.05066" lon="5.65342">
        <ele>690.2</ele>
        <time>2021-01-16T13:44:59Z</time>
      </trkpt>
      <trkpt lat="45.05066" lon="5.65342">
        <ele>690.4</ele>
        <time>2021-01-16T13:45:00Z</time>
      </trkpt>
      <trkpt lat="45.05066" lon="5.65342">
        <ele>690.8</ele>
        <time>2021-01-16T13:45:01Z</time>
      </trkpt>
      <trkpt lat="45.05064" lon="5.65341">
        <ele>691.2</ele>
        <time>2021-01-16T13:45:02Z</time>
      </trkpt>
      <trkpt lat="45.05064" lon="5.65341">
        <ele>691.4</ele>
        <time>2021-01-16T13:45:03Z</time>
      </trkpt>
      <trkpt lat="45.05064" lon="5.65341">
        <ele>691.8</ele>
        <time>2021-01-16T13:45:04Z</time>
      </trkpt>
      <trkpt lat="45.05062" lon="5.6534">
        <ele>692.2</ele>
        <time>2021-01-16T13:45:05Z</time>
      </trkpt>
      <trkpt lat="45.05062" lon="5.6534">
        <ele>692.4</ele>
        <time>2021-01-16T13:45:06Z</time>
      </trkpt>
      <trkpt lat="45.05062" lon="5.6534">
        <ele>692.8</ele>
        <time>2021-01-16T13:45:07Z</time>
      </trkpt>
      <trkpt lat="45.05062" lon="5.6534">
        <ele>693</ele>
        <time>2021-01-16T13:45:08Z</time>
      </trkpt>
      <trkpt lat="45.0506" lon="5.65338">
        <ele>693.4</ele>
        <time>2021-01-16T13:45:09Z</time>
      </trkpt>
      <trkpt lat="45.0506" lon="5.65338">
        <ele>693.6</ele>
        <time>2021-01-16T13:45:10Z</time>
      </trkpt>
      <trkpt lat="45.0506" lon="5.65338">
        <ele>693.8</ele>
        <time>2021-01-16T13:45:11Z</time>
      </trkpt>
      <trkpt lat="45.0506" lon="5.65338">
        <ele>694.4</ele>
        <time>2021-01-16T13:45:12Z</time>
      </trkpt>
      <trkpt lat="45.0506" lon="5.65338">
        <ele>694.6</ele>
        <time>2021-01-16T13:45:13Z</time>
      </trkpt>
      <trkpt lat="45.05057" lon="5.65336">
        <ele>695</ele>
        <time>2021-01-16T13:45:14Z</time>
      </trkpt>
      <trkpt lat="45.05057" lon="5.65336">
        <ele>695.4</ele>
        <time>2021-01-16T13:45:15Z</time>
      </trkpt>
      <trkpt lat="45.05057" lon="5.65336">
        <ele>695.6</ele>
        <time>2021-01-16T13:45:16Z</time>
      </trkpt>
      <trkpt lat="45.05055" lon="5.65334">
        <ele>695.8</ele>
        <time>2021-01-16T13:45:17Z</time>
      </trkpt>
      <trkpt lat="45.05055" lon="5.65334">
        <ele>696.2</ele>
        <time>2021-01-16T13:45:18Z</time>
      </trkpt>
      <trkpt lat="45.05053" lon="5.65332">
        <ele>696.4</ele>
        <time>2021-01-16T13:45:19Z</time>
      </trkpt>
      <trkpt lat="45.05053" lon="5.65332">
        <ele>696.6</ele>
        <time>2021-01-16T13:45:20Z</time>
      </trkpt>
      <trkpt lat="45.05053" lon="5.65332">
        <ele>696.8</ele>
        <time>2021-01-16T13:45:21Z</time>
      </trkpt>
      <trkpt lat="45.05052" lon="5.6533">
        <ele>697</ele>
        <time>2021-01-16T13:45:22Z</time>
      </trkpt>
      <trkpt lat="45.05052" lon="5.65329">
        <ele>697.4</ele>
        <time>2021-01-16T13:45:23Z</time>
      </trkpt>
      <trkpt lat="45.05051" lon="5.65327">
        <ele>697.6</ele>
        <time>2021-01-16T13:45:24Z</time>
      </trkpt>
      <trkpt lat="45.0505" lon="5.65326">
        <ele>697.6</ele>
        <time>2021-01-16T13:45:25Z</time>
      </trkpt>
      <trkpt lat="45.05049" lon="5.65324">
        <ele>698</ele>
        <time>2021-01-16T13:45:26Z</time>
      </trkpt>
      <trkpt lat="45.05049" lon="5.65322">
        <ele>698.2</ele>
        <time>2021-01-16T13:45:27Z</time>
      </trkpt>
      <trkpt lat="45.05048" lon="5.65321">
        <ele>698.4</ele>
        <time>2021-01-16T13:45:28Z</time>
      </trkpt>
      <trkpt lat="45.05047" lon="5.6532">
        <ele>698.8</ele>
        <time>2021-01-16T13:45:29Z</time>
      </trkpt>
      <trkpt lat="45.05046" lon="5.65319">
        <ele>699.4</ele>
        <time>2021-01-16T13:45:30Z</time>
      </trkpt>
      <trkpt lat="45.05045" lon="5.65317">
        <ele>699.6</ele>
        <time>2021-01-16T13:45:31Z</time>
      </trkpt>
      <trkpt lat="45.05045" lon="5.65316">
        <ele>699.8</ele>
        <time>2021-01-16T13:45:32Z</time>
      </trkpt>
      <trkpt lat="45.05044" lon="5.65315">
        <ele>700.2</ele>
        <time>2021-01-16T13:45:33Z</time>
      </trkpt>
      <trkpt lat="45.05043" lon="5.65314">
        <ele>700.4</ele>
        <time>2021-01-16T13:45:34Z</time>
      </trkpt>
      <trkpt lat="45.05042" lon="5.65313">
        <ele>700.6</ele>
        <time>2021-01-16T13:45:35Z</time>
      </trkpt>
      <trkpt lat="45.05041" lon="5.65312">
        <ele>700.8</ele>
        <time>2021-01-16T13:45:36Z</time>
      </trkpt>
      <trkpt lat="45.0504" lon="5.65311">
        <ele>701</ele>
        <time>2021-01-16T13:45:37Z</time>
      </trkpt>
      <trkpt lat="45.05038" lon="5.65311">
        <ele>701.2</ele>
        <time>2021-01-16T13:45:38Z</time>
      </trkpt>
      <trkpt lat="45.05036" lon="5.6531">
        <ele>701.6</ele>
        <time>2021-01-16T13:45:39Z</time>
      </trkpt>
      <trkpt lat="45.05035" lon="5.6531">
        <ele>702</ele>
        <time>2021-01-16T13:45:40Z</time>
      </trkpt>
      <trkpt lat="45.05033" lon="5.65309">
        <ele>702.6</ele>
        <time>2021-01-16T13:45:41Z</time>
      </trkpt>
      <trkpt lat="45.05031" lon="5.65308">
        <ele>702.8</ele>
        <time>2021-01-16T13:45:42Z</time>
      </trkpt>
      <trkpt lat="45.0503" lon="5.65308">
        <ele>703.2</ele>
        <time>2021-01-16T13:45:43Z</time>
      </trkpt>
      <trkpt lat="45.05029" lon="5.65307">
        <ele>703.4</ele>
        <time>2021-01-16T13:45:44Z</time>
      </trkpt>
      <trkpt lat="45.05028" lon="5.65307">
        <ele>703.6</ele>
        <time>2021-01-16T13:45:45Z</time>
      </trkpt>
      <trkpt lat="45.05027" lon="5.65306">
        <ele>704</ele>
        <time>2021-01-16T13:45:46Z</time>
      </trkpt>
      <trkpt lat="45.05026" lon="5.65306">
        <ele>704.2</ele>
        <time>2021-01-16T13:45:47Z</time>
      </trkpt>
      <trkpt lat="45.05025" lon="5.65305">
        <ele>704.4</ele>
        <time>2021-01-16T13:45:48Z</time>
      </trkpt>
      <trkpt lat="45.05024" lon="5.65305">
        <ele>704.8</ele>
        <time>2021-01-16T13:45:49Z</time>
      </trkpt>
      <trkpt lat="45.05023" lon="5.65304">
        <ele>705.2</ele>
        <time>2021-01-16T13:45:50Z</time>
      </trkpt>
      <trkpt lat="45.05022" lon="5.65303">
        <ele>705.4</ele>
        <time>2021-01-16T13:45:51Z</time>
      </trkpt>
      <trkpt lat="45.05022" lon="5.65303">
        <ele>705.8</ele>
        <time>2021-01-16T13:45:52Z</time>
      </trkpt>
      <trkpt lat="45.05022" lon="5.65302">
        <ele>706</ele>
        <time>2021-01-16T13:45:53Z</time>
      </trkpt>
      <trkpt lat="45.05021" lon="5.65302">
        <ele>706.4</ele>
        <time>2021-01-16T13:45:54Z</time>
      </trkpt>
      <trkpt lat="45.05021" lon="5.65301">
        <ele>706.6</ele>
        <time>2021-01-16T13:45:55Z</time>
      </trkpt>
      <trkpt lat="45.0502" lon="5.653">
        <ele>706.8</ele>
        <time>2021-01-16T13:45:56Z</time>
      </trkpt>
      <trkpt lat="45.0502" lon="5.653">
        <ele>707.2</ele>
        <time>2021-01-16T13:45:57Z</time>
      </trkpt>
      <trkpt lat="45.05019" lon="5.65299">
        <ele>707.4</ele>
        <time>2021-01-16T13:45:58Z</time>
      </trkpt>
      <trkpt lat="45.05019" lon="5.65298">
        <ele>707.8</ele>
        <time>2021-01-16T13:45:59Z</time>
      </trkpt>
      <trkpt lat="45.05019" lon="5.65298">
        <ele>708</ele>
        <time>2021-01-16T13:46:00Z</time>
      </trkpt>
      <trkpt lat="45.05018" lon="5.65297">
        <ele>708.2</ele>
        <time>2021-01-16T13:46:01Z</time>
      </trkpt>
      <trkpt lat="45.05018" lon="5.65297">
        <ele>708.4</ele>
        <time>2021-01-16T13:46:02Z</time>
      </trkpt>
      <trkpt lat="45.05017" lon="5.65296">
        <ele>708.4</ele>
        <time>2021-01-16T13:46:03Z</time>
      </trkpt>
      <trkpt lat="45.05017" lon="5.65295">
        <ele>708.6</ele>
        <time>2021-01-16T13:46:04Z</time>
      </trkpt>
      <trkpt lat="45.05017" lon="5.65295">
        <ele>708.8</ele>
        <time>2021-01-16T13:46:05Z</time>
      </trkpt>
      <trkpt lat="45.05016" lon="5.65294">
        <ele>709.2</ele>
        <time>2021-01-16T13:46:06Z</time>
      </trkpt>
      <trkpt lat="45.05015" lon="5.65293">
        <ele>709.4</ele>
        <time>2021-01-16T13:46:07Z</time>
      </trkpt>
      <trkpt lat="45.05015" lon="5.65292">
        <ele>709.4</ele>
        <time>2021-01-16T13:46:08Z</time>
      </trkpt>
      <trkpt lat="45.05014" lon="5.65291">
        <ele>709.8</ele>
        <time>2021-01-16T13:46:09Z</time>
      </trkpt>
      <trkpt lat="45.05014" lon="5.6529">
        <ele>710</ele>
        <time>2021-01-16T13:46:10Z</time>
      </trkpt>
      <trkpt lat="45.05013" lon="5.65289">
        <ele>710</ele>
        <time>2021-01-16T13:46:11Z</time>
      </trkpt>
      <trkpt lat="45.05012" lon="5.65288">
        <ele>710.4</ele>
        <time>2021-01-16T13:46:12Z</time>
      </trkpt>
      <trkpt lat="45.05012" lon="5.65287">
        <ele>710.6</ele>
        <time>2021-01-16T13:46:13Z</time>
      </trkpt>
      <trkpt lat="45.05011" lon="5.65286">
        <ele>711</ele>
        <time>2021-01-16T13:46:14Z</time>
      </trkpt>
      <trkpt lat="45.05011" lon="5.65285">
        <ele>711.2</ele>
        <time>2021-01-16T13:46:15Z</time>
      </trkpt>
      <trkpt lat="45.0501" lon="5.65284">
        <ele>711.6</ele>
        <time>2021-01-16T13:46:16Z</time>
      </trkpt>
      <trkpt lat="45.0501" lon="5.65283">
        <ele>711.8</ele>
        <time>2021-01-16T13:46:17Z</time>
      </trkpt>
      <trkpt lat="45.05009" lon="5.65282">
        <ele>712.2</ele>
        <time>2021-01-16T13:46:18Z</time>
      </trkpt>
      <trkpt lat="45.05009" lon="5.65282">
        <ele>712.6</ele>
        <time>2021-01-16T13:46:19Z</time>
      </trkpt>
      <trkpt lat="45.05008" lon="5.65281">
        <ele>713</ele>
        <time>2021-01-16T13:46:20Z</time>
      </trkpt>
      <trkpt lat="45.05008" lon="5.6528">
        <ele>713.2</ele>
        <time>2021-01-16T13:46:21Z</time>
      </trkpt>
      <trkpt lat="45.05007" lon="5.65279">
        <ele>713.6</ele>
        <time>2021-01-16T13:46:22Z</time>
      </trkpt>
      <trkpt lat="45.05006" lon="5.65279">
        <ele>714</ele>
        <time>2021-01-16T13:46:23Z</time>
      </trkpt>
      <trkpt lat="45.05006" lon="5.65278">
        <ele>714.2</ele>
        <time>2021-01-16T13:46:24Z</time>
      </trkpt>
      <trkpt lat="45.05005" lon="5.65277">
        <ele>714.4</ele>
        <time>2021-01-16T13:46:25Z</time>
      </trkpt>
      <trkpt lat="45.05005" lon="5.65276">
        <ele>714.8</ele>
        <time>2021-01-16T13:46:26Z</time>
      </trkpt>
      <trkpt lat="45.05004" lon="5.65275">
        <ele>715</ele>
        <time>2021-01-16T13:46:27Z</time>
      </trkpt>
      <trkpt lat="45.05004" lon="5.65275">
        <ele>715.2</ele>
        <time>2021-01-16T13:46:28Z</time>
      </trkpt>
      <trkpt lat="45.05003" lon="5.65274">
        <ele>715.6</ele>
        <time>2021-01-16T13:46:29Z</time>
      </trkpt>
      <trkpt lat="45.05002" lon="5.65274">
        <ele>716</ele>
        <time>2021-01-16T13:46:30Z</time>
      </trkpt>
      <trkpt lat="45.05002" lon="5.65273">
        <ele>716.2</ele>
        <time>2021-01-16T13:46:31Z</time>
      </trkpt>
      <trkpt lat="45.05001" lon="5.65273">
        <ele>716.4</ele>
        <time>2021-01-16T13:46:32Z</time>
      </trkpt>
      <trkpt lat="45.05" lon="5.65272">
        <ele>716.6</ele>
        <time>2021-01-16T13:46:33Z</time>
      </trkpt>
      <trkpt lat="45.05" lon="5.65271">
        <ele>716.8</ele>
        <time>2021-01-16T13:46:34Z</time>
      </trkpt>
      <trkpt lat="45.04999" lon="5.65271">
        <ele>717.2</ele>
        <time>2021-01-16T13:46:35Z</time>
      </trkpt>
      <trkpt lat="45.04998" lon="5.6527">
        <ele>717.6</ele>
        <time>2021-01-16T13:46:36Z</time>
      </trkpt>
      <trkpt lat="45.04998" lon="5.6527">
        <ele>717.8</ele>
        <time>2021-01-16T13:46:37Z</time>
      </trkpt>
      <trkpt lat="45.04997" lon="5.65269">
        <ele>718.2</ele>
        <time>2021-01-16T13:46:38Z</time>
      </trkpt>
      <trkpt lat="45.04996" lon="5.65268">
        <ele>718.4</ele>
        <time>2021-01-16T13:46:39Z</time>
      </trkpt>
      <trkpt lat="45.04995" lon="5.65267">
        <ele>718.6</ele>
        <time>2021-01-16T13:46:40Z</time>
      </trkpt>
      <trkpt lat="45.04994" lon="5.65266">
        <ele>718.6</ele>
        <time>2021-01-16T13:46:41Z</time>
      </trkpt>
      <trkpt lat="45.04993" lon="5.65266">
        <ele>719</ele>
        <time>2021-01-16T13:46:42Z</time>
      </trkpt>
      <trkpt lat="45.04992" lon="5.65265">
        <ele>719.2</ele>
        <time>2021-01-16T13:46:43Z</time>
      </trkpt>
      <trkpt lat="45.04991" lon="5.65264">
        <ele>719.6</ele>
        <time>2021-01-16T13:46:44Z</time>
      </trkpt>
      <trkpt lat="45.0499" lon="5.65263">
        <ele>719.8</ele>
        <time>2021-01-16T13:46:45Z</time>
      </trkpt>
      <trkpt lat="45.0499" lon="5.65263">
        <ele>720</ele>
        <time>2021-01-16T13:46:46Z</time>
      </trkpt>
      <trkpt lat="45.04989" lon="5.65262">
        <ele>720.4</ele>
        <time>2021-01-16T13:46:47Z</time>
      </trkpt>
      <trkpt lat="45.04989" lon="5.65261">
        <ele>720.6</ele>
        <time>2021-01-16T13:46:48Z</time>
      </trkpt>
      <trkpt lat="45.04988" lon="5.6526">
        <ele>720.8</ele>
        <time>2021-01-16T13:46:49Z</time>
      </trkpt>
      <trkpt lat="45.04988" lon="5.6526">
        <ele>721</ele>
        <time>2021-01-16T13:46:50Z</time>
      </trkpt>
      <trkpt lat="45.04987" lon="5.65259">
        <ele>721.2</ele>
        <time>2021-01-16T13:46:51Z</time>
      </trkpt>
      <trkpt lat="45.04987" lon="5.65258">
        <ele>721.6</ele>
        <time>2021-01-16T13:46:52Z</time>
      </trkpt>
      <trkpt lat="45.04986" lon="5.65258">
        <ele>722</ele>
        <time>2021-01-16T13:46:53Z</time>
      </trkpt>
      <trkpt lat="45.04986" lon="5.65257">
        <ele>722.4</ele>
        <time>2021-01-16T13:46:54Z</time>
      </trkpt>
      <trkpt lat="45.04985" lon="5.65256">
        <ele>722.6</ele>
        <time>2021-01-16T13:46:55Z</time>
      </trkpt>
      <trkpt lat="45.04985" lon="5.65255">
        <ele>722.8</ele>
        <time>2021-01-16T13:46:56Z</time>
      </trkpt>
      <trkpt lat="45.04984" lon="5.65255">
        <ele>723</ele>
        <time>2021-01-16T13:46:57Z</time>
      </trkpt>
      <trkpt lat="45.04984" lon="5.65254">
        <ele>723.2</ele>
        <time>2021-01-16T13:46:58Z</time>
      </trkpt>
      <trkpt lat="45.04983" lon="5.65253">
        <ele>723.4</ele>
        <time>2021-01-16T13:46:59Z</time>
      </trkpt>
      <trkpt lat="45.04982" lon="5.65252">
        <ele>723.4</ele>
        <time>2021-01-16T13:47:00Z</time>
      </trkpt>
      <trkpt lat="45.04982" lon="5.65251">
        <ele>723.6</ele>
        <time>2021-01-16T13:47:01Z</time>
      </trkpt>
      <trkpt lat="45.04981" lon="5.6525">
        <ele>723.8</ele>
        <time>2021-01-16T13:47:02Z</time>
      </trkpt>
      <trkpt lat="45.04981" lon="5.65249">
        <ele>724.2</ele>
        <time>2021-01-16T13:47:03Z</time>
      </trkpt>
      <trkpt lat="45.0498" lon="5.65248">
        <ele>724.6</ele>
        <time>2021-01-16T13:47:04Z</time>
      </trkpt>
      <trkpt lat="45.04979" lon="5.65247">
        <ele>725</ele>
        <time>2021-01-16T13:47:05Z</time>
      </trkpt>
      <trkpt lat="45.04979" lon="5.65247">
        <ele>725.4</ele>
        <time>2021-01-16T13:47:06Z</time>
      </trkpt>
      <trkpt lat="45.04978" lon="5.65246">
        <ele>725.4</ele>
        <time>2021-01-16T13:47:07Z</time>
      </trkpt>
      <trkpt lat="45.04977" lon="5.65245">
        <ele>725.8</ele>
        <time>2021-01-16T13:47:08Z</time>
      </trkpt>
      <trkpt lat="45.04977" lon="5.65244">
        <ele>726</ele>
        <time>2021-01-16T13:47:09Z</time>
      </trkpt>
      <trkpt lat="45.04976" lon="5.65243">
        <ele>726.4</ele>
        <time>2021-01-16T13:47:10Z</time>
      </trkpt>
      <trkpt lat="45.04975" lon="5.65243">
        <ele>726.4</ele>
        <time>2021-01-16T13:47:11Z</time>
      </trkpt>
      <trkpt lat="45.04974" lon="5.65242">
        <ele>726.8</ele>
        <time>2021-01-16T13:47:12Z</time>
      </trkpt>
      <trkpt lat="45.04973" lon="5.65241">
        <ele>727.2</ele>
        <time>2021-01-16T13:47:13Z</time>
      </trkpt>
      <trkpt lat="45.04972" lon="5.65241">
        <ele>727.4</ele>
        <time>2021-01-16T13:47:14Z</time>
      </trkpt>
      <trkpt lat="45.04971" lon="5.6524">
        <ele>727.8</ele>
        <time>2021-01-16T13:47:15Z</time>
      </trkpt>
      <trkpt lat="45.0497" lon="5.6524">
        <ele>728</ele>
        <time>2021-01-16T13:47:16Z</time>
      </trkpt>
      <trkpt lat="45.04969" lon="5.65239">
        <ele>728.4</ele>
        <time>2021-01-16T13:47:17Z</time>
      </trkpt>
      <trkpt lat="45.04968" lon="5.65239">
        <ele>728.6</ele>
        <time>2021-01-16T13:47:18Z</time>
      </trkpt>
      <trkpt lat="45.04966" lon="5.65236">
        <ele>729</ele>
        <time>2021-01-16T13:47:19Z</time>
      </trkpt>
      <trkpt lat="45.04964" lon="5.65233">
        <ele>729.2</ele>
        <time>2021-01-16T13:47:20Z</time>
      </trkpt>
      <trkpt lat="45.04962" lon="5.6523">
        <ele>729.6</ele>
        <time>2021-01-16T13:47:21Z</time>
      </trkpt>
      <trkpt lat="45.04961" lon="5.65227">
        <ele>729.8</ele>
        <time>2021-01-16T13:47:22Z</time>
      </trkpt>
      <trkpt lat="45.04959" lon="5.65224">
        <ele>730</ele>
        <time>2021-01-16T13:47:23Z</time>
      </trkpt>
      <trkpt lat="45.04957" lon="5.65221">
        <ele>730</ele>
        <time>2021-01-16T13:47:24Z</time>
      </trkpt>
      <trkpt lat="45.04955" lon="5.65219">
        <ele>730</ele>
        <time>2021-01-16T13:47:25Z</time>
      </trkpt>
      <trkpt lat="45.04953" lon="5.65216">
        <ele>730</ele>
        <time>2021-01-16T13:47:26Z</time>
      </trkpt>
      <trkpt lat="45.04951" lon="5.65213">
        <ele>730</ele>
        <time>2021-01-16T13:47:27Z</time>
      </trkpt>
      <trkpt lat="45.04945" lon="5.65213">
        <ele>730.2</ele>
        <time>2021-01-16T13:47:28Z</time>
      </trkpt>
      <trkpt lat="45.04945" lon="5.65213">
        <ele>730.4</ele>
        <time>2021-01-16T13:47:29Z</time>
      </trkpt>
      <trkpt lat="45.04945" lon="5.65213">
        <ele>730.8</ele>
        <time>2021-01-16T13:47:30Z</time>
      </trkpt>
      <trkpt lat="45.04942" lon="5.65213">
        <ele>731</ele>
        <time>2021-01-16T13:47:31Z</time>
      </trkpt>
      <trkpt lat="45.0494" lon="5.65212">
        <ele>731.2</ele>
        <time>2021-01-16T13:47:32Z</time>
      </trkpt>
      <trkpt lat="45.04938" lon="5.65212">
        <ele>731.4</ele>
        <time>2021-01-16T13:47:33Z</time>
      </trkpt>
      <trkpt lat="45.04936" lon="5.65212">
        <ele>731.6</ele>
        <time>2021-01-16T13:47:34Z</time>
      </trkpt>
      <trkpt lat="45.04934" lon="5.65212">
        <ele>731.8</ele>
        <time>2021-01-16T13:47:35Z</time>
      </trkpt>
      <trkpt lat="45.04934" lon="5.65211">
        <ele>731.8</ele>
        <time>2021-01-16T13:47:36Z</time>
      </trkpt>
      <trkpt lat="45.04933" lon="5.6521">
        <ele>732</ele>
        <time>2021-01-16T13:47:37Z</time>
      </trkpt>
      <trkpt lat="45.04933" lon="5.65209">
        <ele>732.4</ele>
        <time>2021-01-16T13:47:38Z</time>
      </trkpt>
      <trkpt lat="45.04933" lon="5.65209">
        <ele>732.4</ele>
        <time>2021-01-16T13:47:39Z</time>
      </trkpt>
      <trkpt lat="45.04932" lon="5.65208">
        <ele>732.6</ele>
        <time>2021-01-16T13:47:40Z</time>
      </trkpt>
      <trkpt lat="45.04932" lon="5.65207">
        <ele>733</ele>
        <time>2021-01-16T13:47:41Z</time>
      </trkpt>
      <trkpt lat="45.04931" lon="5.65206">
        <ele>733.2</ele>
        <time>2021-01-16T13:47:42Z</time>
      </trkpt>
      <trkpt lat="45.04931" lon="5.65205">
        <ele>733.6</ele>
        <time>2021-01-16T13:47:43Z</time>
      </trkpt>
      <trkpt lat="45.04931" lon="5.65205">
        <ele>734</ele>
        <time>2021-01-16T13:47:44Z</time>
      </trkpt>
      <trkpt lat="45.0493" lon="5.65204">
        <ele>734.2</ele>
        <time>2021-01-16T13:47:45Z</time>
      </trkpt>
      <trkpt lat="45.0493" lon="5.65203">
        <ele>734.4</ele>
        <time>2021-01-16T13:47:46Z</time>
      </trkpt>
      <trkpt lat="45.0493" lon="5.65202">
        <ele>734.6</ele>
        <time>2021-01-16T13:47:47Z</time>
      </trkpt>
      <trkpt lat="45.04929" lon="5.65201">
        <ele>734.8</ele>
        <time>2021-01-16T13:47:48Z</time>
      </trkpt>
      <trkpt lat="45.04929" lon="5.65201">
        <ele>735</ele>
        <time>2021-01-16T13:47:49Z</time>
      </trkpt>
      <trkpt lat="45.04928" lon="5.65199">
        <ele>735.4</ele>
        <time>2021-01-16T13:47:50Z</time>
      </trkpt>
      <trkpt lat="45.04928" lon="5.65197">
        <ele>735.6</ele>
        <time>2021-01-16T13:47:51Z</time>
      </trkpt>
      <trkpt lat="45.04927" lon="5.65195">
        <ele>735.8</ele>
        <time>2021-01-16T13:47:52Z</time>
      </trkpt>
      <trkpt lat="45.04927" lon="5.65193">
        <ele>736.2</ele>
        <time>2021-01-16T13:47:53Z</time>
      </trkpt>
      <trkpt lat="45.04926" lon="5.65191">
        <ele>736.4</ele>
        <time>2021-01-16T13:47:54Z</time>
      </trkpt>
      <trkpt lat="45.04926" lon="5.65189">
        <ele>736.6</ele>
        <time>2021-01-16T13:47:55Z</time>
      </trkpt>
      <trkpt lat="45.04925" lon="5.65187">
        <ele>737</ele>
        <time>2021-01-16T13:47:56Z</time>
      </trkpt>
      <trkpt lat="45.04925" lon="5.65185">
        <ele>737.4</ele>
        <time>2021-01-16T13:47:57Z</time>
      </trkpt>
      <trkpt lat="45.04924" lon="5.65183">
        <ele>737.6</ele>
        <time>2021-01-16T13:47:58Z</time>
      </trkpt>
      <trkpt lat="45.04924" lon="5.65181">
        <ele>737.8</ele>
        <time>2021-01-16T13:47:59Z</time>
      </trkpt>
      <trkpt lat="45.04923" lon="5.65179">
        <ele>738.2</ele>
        <time>2021-01-16T13:48:00Z</time>
      </trkpt>
      <trkpt lat="45.04922" lon="5.65177">
        <ele>738.4</ele>
        <time>2021-01-16T13:48:01Z</time>
      </trkpt>
      <trkpt lat="45.04922" lon="5.65175">
        <ele>738.6</ele>
        <time>2021-01-16T13:48:02Z</time>
      </trkpt>
      <trkpt lat="45.04922" lon="5.65174">
        <ele>738.6</ele>
        <time>2021-01-16T13:48:03Z</time>
      </trkpt>
      <trkpt lat="45.04921" lon="5.65172">
        <ele>739</ele>
        <time>2021-01-16T13:48:04Z</time>
      </trkpt>
      <trkpt lat="45.04921" lon="5.65171">
        <ele>739.2</ele>
        <time>2021-01-16T13:48:05Z</time>
      </trkpt>
      <trkpt lat="45.04921" lon="5.65169">
        <ele>739.4</ele>
        <time>2021-01-16T13:48:06Z</time>
      </trkpt>
      <trkpt lat="45.0492" lon="5.65167">
        <ele>739.6</ele>
        <time>2021-01-16T13:48:07Z</time>
      </trkpt>
      <trkpt lat="45.0492" lon="5.65166">
        <ele>740</ele>
        <time>2021-01-16T13:48:08Z</time>
      </trkpt>
      <trkpt lat="45.0492" lon="5.65164">
        <ele>740.2</ele>
        <time>2021-01-16T13:48:09Z</time>
      </trkpt>
      <trkpt lat="45.04919" lon="5.65163">
        <ele>740.6</ele>
        <time>2021-01-16T13:48:10Z</time>
      </trkpt>
      <trkpt lat="45.04919" lon="5.65163">
        <ele>741</ele>
        <time>2021-01-16T13:48:11Z</time>
      </trkpt>
      <trkpt lat="45.04918" lon="5.6516">
        <ele>741.4</ele>
        <time>2021-01-16T13:48:12Z</time>
      </trkpt>
      <trkpt lat="45.04918" lon="5.65159">
        <ele>741.8</ele>
        <time>2021-01-16T13:48:13Z</time>
      </trkpt>
      <trkpt lat="45.04917" lon="5.65158">
        <ele>742.2</ele>
        <time>2021-01-16T13:48:14Z</time>
      </trkpt>
      <trkpt lat="45.04917" lon="5.65156">
        <ele>742.4</ele>
        <time>2021-01-16T13:48:15Z</time>
      </trkpt>
      <trkpt lat="45.04916" lon="5.65155">
        <ele>742.8</ele>
        <time>2021-01-16T13:48:16Z</time>
      </trkpt>
      <trkpt lat="45.04916" lon="5.65154">
        <ele>743.2</ele>
        <time>2021-01-16T13:48:17Z</time>
      </trkpt>
      <trkpt lat="45.04915" lon="5.65153">
        <ele>743.4</ele>
        <time>2021-01-16T13:48:18Z</time>
      </trkpt>
      <trkpt lat="45.04914" lon="5.65151">
        <ele>743.8</ele>
        <time>2021-01-16T13:48:19Z</time>
      </trkpt>
      <trkpt lat="45.04914" lon="5.6515">
        <ele>744</ele>
        <time>2021-01-16T13:48:20Z</time>
      </trkpt>
      <trkpt lat="45.04913" lon="5.65149">
        <ele>744.4</ele>
        <time>2021-01-16T13:48:21Z</time>
      </trkpt>
      <trkpt lat="45.04913" lon="5.65148">
        <ele>744.6</ele>
        <time>2021-01-16T13:48:22Z</time>
      </trkpt>
      <trkpt lat="45.04912" lon="5.65146">
        <ele>744.6</ele>
        <time>2021-01-16T13:48:23Z</time>
      </trkpt>
      <trkpt lat="45.04911" lon="5.65145">
        <ele>745</ele>
        <time>2021-01-16T13:48:24Z</time>
      </trkpt>
      <trkpt lat="45.04911" lon="5.65144">
        <ele>745.2</ele>
        <time>2021-01-16T13:48:25Z</time>
      </trkpt>
      <trkpt lat="45.0491" lon="5.65143">
        <ele>745.4</ele>
        <time>2021-01-16T13:48:26Z</time>
      </trkpt>
      <trkpt lat="45.0491" lon="5.65141">
        <ele>745.6</ele>
        <time>2021-01-16T13:48:27Z</time>
      </trkpt>
      <trkpt lat="45.04909" lon="5.6514">
        <ele>745.6</ele>
        <time>2021-01-16T13:48:28Z</time>
      </trkpt>
      <trkpt lat="45.04909" lon="5.65139">
        <ele>746</ele>
        <time>2021-01-16T13:48:29Z</time>
      </trkpt>
      <trkpt lat="45.04908" lon="5.65138">
        <ele>746.4</ele>
        <time>2021-01-16T13:48:30Z</time>
      </trkpt>
      <trkpt lat="45.04907" lon="5.65136">
        <ele>746.6</ele>
        <time>2021-01-16T13:48:31Z</time>
      </trkpt>
      <trkpt lat="45.04907" lon="5.65135">
        <ele>747</ele>
        <time>2021-01-16T13:48:32Z</time>
      </trkpt>
      <trkpt lat="45.04906" lon="5.65134">
        <ele>747.4</ele>
        <time>2021-01-16T13:48:33Z</time>
      </trkpt>
      <trkpt lat="45.04906" lon="5.65133">
        <ele>747.6</ele>
        <time>2021-01-16T13:48:34Z</time>
      </trkpt>
      <trkpt lat="45.04905" lon="5.65132">
        <ele>747.8</ele>
        <time>2021-01-16T13:48:35Z</time>
      </trkpt>
      <trkpt lat="45.04904" lon="5.65131">
        <ele>748</ele>
        <time>2021-01-16T13:48:36Z</time>
      </trkpt>
      <trkpt lat="45.04904" lon="5.65131">
        <ele>748.2</ele>
        <time>2021-01-16T13:48:37Z</time>
      </trkpt>
      <trkpt lat="45.04903" lon="5.65127">
        <ele>748.4</ele>
        <time>2021-01-16T13:48:38Z</time>
      </trkpt>
      <trkpt lat="45.04903" lon="5.65127">
        <ele>748.6</ele>
        <time>2021-01-16T13:48:39Z</time>
      </trkpt>
      <trkpt lat="45.04902" lon="5.65124">
        <ele>748.8</ele>
        <time>2021-01-16T13:48:40Z</time>
      </trkpt>
      <trkpt lat="45.04902" lon="5.65124">
        <ele>749</ele>
        <time>2021-01-16T13:48:41Z</time>
      </trkpt>
      <trkpt lat="45.04902" lon="5.65124">
        <ele>749.2</ele>
        <time>2021-01-16T13:48:42Z</time>
      </trkpt>
      <trkpt lat="45.04902" lon="5.65124">
        <ele>749.8</ele>
        <time>2021-01-16T13:48:43Z</time>
      </trkpt>
      <trkpt lat="45.04901" lon="5.65121">
        <ele>750</ele>
        <time>2021-01-16T13:48:44Z</time>
      </trkpt>
      <trkpt lat="45.04901" lon="5.65121">
        <ele>750.4</ele>
        <time>2021-01-16T13:48:45Z</time>
      </trkpt>
      <trkpt lat="45.04901" lon="5.65121">
        <ele>750.8</ele>
        <time>2021-01-16T13:48:46Z</time>
      </trkpt>
      <trkpt lat="45.04901" lon="5.65121">
        <ele>751.2</ele>
        <time>2021-01-16T13:48:47Z</time>
      </trkpt>
      <trkpt lat="45.04901" lon="5.65121">
        <ele>751.6</ele>
        <time>2021-01-16T13:48:48Z</time>
      </trkpt>
      <trkpt lat="45.04901" lon="5.65121">
        <ele>751.6</ele>
        <time>2021-01-16T13:48:49Z</time>
      </trkpt>
      <trkpt lat="45.04901" lon="5.65121">
        <ele>751.8</ele>
        <time>2021-01-16T13:48:50Z</time>
      </trkpt>
      <trkpt lat="45.04899" lon="5.65118">
        <ele>751.8</ele>
        <time>2021-01-16T13:48:51Z</time>
      </trkpt>
      <trkpt lat="45.04899" lon="5.65118">
        <ele>752</ele>
        <time>2021-01-16T13:48:52Z</time>
      </trkpt>
      <trkpt lat="45.04899" lon="5.65118">
        <ele>752.4</ele>
        <time>2021-01-16T13:48:53Z</time>
      </trkpt>
      <trkpt lat="45.04898" lon="5.65117">
        <ele>752.6</ele>
        <time>2021-01-16T13:48:54Z</time>
      </trkpt>
      <trkpt lat="45.04897" lon="5.65116">
        <ele>752.8</ele>
        <time>2021-01-16T13:48:55Z</time>
      </trkpt>
      <trkpt lat="45.04896" lon="5.65114">
        <ele>753</ele>
        <time>2021-01-16T13:48:56Z</time>
      </trkpt>
      <trkpt lat="45.04895" lon="5.65113">
        <ele>753.2</ele>
        <time>2021-01-16T13:48:57Z</time>
      </trkpt>
      <trkpt lat="45.04894" lon="5.65112">
        <ele>753.4</ele>
        <time>2021-01-16T13:48:58Z</time>
      </trkpt>
      <trkpt lat="45.04894" lon="5.65112">
        <ele>753.8</ele>
        <time>2021-01-16T13:48:59Z</time>
      </trkpt>
      <trkpt lat="45.04892" lon="5.65109">
        <ele>754</ele>
        <time>2021-01-16T13:49:00Z</time>
      </trkpt>
      <trkpt lat="45.04892" lon="5.65109">
        <ele>754.4</ele>
        <time>2021-01-16T13:49:01Z</time>
      </trkpt>
      <trkpt lat="45.0489" lon="5.65106">
        <ele>754.8</ele>
        <time>2021-01-16T13:49:02Z</time>
      </trkpt>
      <trkpt lat="45.0489" lon="5.65106">
        <ele>755</ele>
        <time>2021-01-16T13:49:03Z</time>
      </trkpt>
      <trkpt lat="45.04888" lon="5.65104">
        <ele>755.2</ele>
        <time>2021-01-16T13:49:04Z</time>
      </trkpt>
      <trkpt lat="45.04888" lon="5.65103">
        <ele>755.4</ele>
        <time>2021-01-16T13:49:05Z</time>
      </trkpt>
      <trkpt lat="45.04888" lon="5.65102">
        <ele>755.6</ele>
        <time>2021-01-16T13:49:06Z</time>
      </trkpt>
      <trkpt lat="45.04887" lon="5.65102">
        <ele>756</ele>
        <time>2021-01-16T13:49:07Z</time>
      </trkpt>
      <trkpt lat="45.04887" lon="5.65101">
        <ele>756.4</ele>
        <time>2021-01-16T13:49:08Z</time>
      </trkpt>
      <trkpt lat="45.04887" lon="5.651">
        <ele>756.6</ele>
        <time>2021-01-16T13:49:09Z</time>
      </trkpt>
      <trkpt lat="45.04886" lon="5.65099">
        <ele>756.8</ele>
        <time>2021-01-16T13:49:10Z</time>
      </trkpt>
      <trkpt lat="45.04886" lon="5.65099">
        <ele>757.2</ele>
        <time>2021-01-16T13:49:11Z</time>
      </trkpt>
      <trkpt lat="45.04886" lon="5.65099">
        <ele>757.6</ele>
        <time>2021-01-16T13:49:12Z</time>
      </trkpt>
      <trkpt lat="45.04885" lon="5.65097">
        <ele>757.8</ele>
        <time>2021-01-16T13:49:13Z</time>
      </trkpt>
      <trkpt lat="45.04885" lon="5.65097">
        <ele>758.2</ele>
        <time>2021-01-16T13:49:14Z</time>
      </trkpt>
      <trkpt lat="45.04885" lon="5.65097">
        <ele>758.4</ele>
        <time>2021-01-16T13:49:15Z</time>
      </trkpt>
      <trkpt lat="45.04885" lon="5.65097">
        <ele>759</ele>
        <time>2021-01-16T13:49:16Z</time>
      </trkpt>
      <trkpt lat="45.04884" lon="5.65095">
        <ele>759.2</ele>
        <time>2021-01-16T13:49:17Z</time>
      </trkpt>
      <trkpt lat="45.04884" lon="5.65095">
        <ele>759.4</ele>
        <time>2021-01-16T13:49:18Z</time>
      </trkpt>
      <trkpt lat="45.04884" lon="5.65095">
        <ele>759.6</ele>
        <time>2021-01-16T13:49:19Z</time>
      </trkpt>
      <trkpt lat="45.04882" lon="5.65094">
        <ele>759.8</ele>
        <time>2021-01-16T13:49:20Z</time>
      </trkpt>
      <trkpt lat="45.04882" lon="5.65094">
        <ele>760</ele>
        <time>2021-01-16T13:49:21Z</time>
      </trkpt>
      <trkpt lat="45.04882" lon="5.65094">
        <ele>760.4</ele>
        <time>2021-01-16T13:49:22Z</time>
      </trkpt>
      <trkpt lat="45.04882" lon="5.65094">
        <ele>760.6</ele>
        <time>2021-01-16T13:49:23Z</time>
      </trkpt>
      <trkpt lat="45.04882" lon="5.65094">
        <ele>760.8</ele>
        <time>2021-01-16T13:49:24Z</time>
      </trkpt>
      <trkpt lat="45.0488" lon="5.65093">
        <ele>760.8</ele>
        <time>2021-01-16T13:49:25Z</time>
      </trkpt>
      <trkpt lat="45.04878" lon="5.65093">
        <ele>761</ele>
        <time>2021-01-16T13:49:26Z</time>
      </trkpt>
      <trkpt lat="45.04878" lon="5.65093">
        <ele>761.2</ele>
        <time>2021-01-16T13:49:27Z</time>
      </trkpt>
      <trkpt lat="45.04878" lon="5.65093">
        <ele>761.6</ele>
        <time>2021-01-16T13:49:28Z</time>
      </trkpt>
      <trkpt lat="45.04878" lon="5.65093">
        <ele>761.6</ele>
        <time>2021-01-16T13:49:29Z</time>
      </trkpt>
      <trkpt lat="45.04876" lon="5.65093">
        <ele>761.8</ele>
        <time>2021-01-16T13:49:30Z</time>
      </trkpt>
      <trkpt lat="45.04875" lon="5.65093">
        <ele>761.8</ele>
        <time>2021-01-16T13:49:31Z</time>
      </trkpt>
      <trkpt lat="45.04873" lon="5.65093">
        <ele>761.8</ele>
        <time>2021-01-16T13:49:32Z</time>
      </trkpt>
      <trkpt lat="45.04872" lon="5.65093">
        <ele>762</ele>
        <time>2021-01-16T13:49:33Z</time>
      </trkpt>
      <trkpt lat="45.0487" lon="5.65093">
        <ele>762.2</ele>
        <time>2021-01-16T13:49:34Z</time>
      </trkpt>
      <trkpt lat="45.0487" lon="5.65093">
        <ele>762.4</ele>
        <time>2021-01-16T13:49:35Z</time>
      </trkpt>
      <trkpt lat="45.04867" lon="5.65095">
        <ele>762.6</ele>
        <time>2021-01-16T13:49:36Z</time>
      </trkpt>
      <trkpt lat="45.04867" lon="5.65095">
        <ele>763</ele>
        <time>2021-01-16T13:49:37Z</time>
      </trkpt>
      <trkpt lat="45.04867" lon="5.65095">
        <ele>763</ele>
        <time>2021-01-16T13:49:38Z</time>
      </trkpt>
      <trkpt lat="45.04866" lon="5.65096">
        <ele>763.2</ele>
        <time>2021-01-16T13:49:39Z</time>
      </trkpt>
      <trkpt lat="45.04866" lon="5.65096">
        <ele>763.4</ele>
        <time>2021-01-16T13:49:40Z</time>
      </trkpt>
      <trkpt lat="45.04866" lon="5.65096">
        <ele>763.6</ele>
        <time>2021-01-16T13:49:41Z</time>
      </trkpt>
      <trkpt lat="45.04864" lon="5.65097">
        <ele>764</ele>
        <time>2021-01-16T13:49:42Z</time>
      </trkpt>
      <trkpt lat="45.04864" lon="5.65097">
        <ele>764.4</ele>
        <time>2021-01-16T13:49:43Z</time>
      </trkpt>
      <trkpt lat="45.04864" lon="5.65097">
        <ele>764.6</ele>
        <time>2021-01-16T13:49:44Z</time>
      </trkpt>
      <trkpt lat="45.04864" lon="5.65097">
        <ele>765</ele>
        <time>2021-01-16T13:49:45Z</time>
      </trkpt>
      <trkpt lat="45.04864" lon="5.65097">
        <ele>765.2</ele>
        <time>2021-01-16T13:49:46Z</time>
      </trkpt>
      <trkpt lat="45.04861" lon="5.65095">
        <ele>765.6</ele>
        <time>2021-01-16T13:49:47Z</time>
      </trkpt>
      <trkpt lat="45.04861" lon="5.65095">
        <ele>766</ele>
        <time>2021-01-16T13:49:48Z</time>
      </trkpt>
      <trkpt lat="45.04861" lon="5.65095">
        <ele>766.2</ele>
        <time>2021-01-16T13:49:49Z</time>
      </trkpt>
      <trkpt lat="45.04859" lon="5.65094">
        <ele>766.2</ele>
        <time>2021-01-16T13:49:50Z</time>
      </trkpt>
      <trkpt lat="45.04859" lon="5.65094">
        <ele>766.2</ele>
        <time>2021-01-16T13:49:51Z</time>
      </trkpt>
      <trkpt lat="45.04859" lon="5.65094">
        <ele>766.6</ele>
        <time>2021-01-16T13:49:52Z</time>
      </trkpt>
      <trkpt lat="45.04857" lon="5.65092">
        <ele>767</ele>
        <time>2021-01-16T13:49:53Z</time>
      </trkpt>
      <trkpt lat="45.04857" lon="5.65092">
        <ele>767.2</ele>
        <time>2021-01-16T13:49:54Z</time>
      </trkpt>
      <trkpt lat="45.04857" lon="5.65092">
        <ele>767.4</ele>
        <time>2021-01-16T13:49:55Z</time>
      </trkpt>
      <trkpt lat="45.04857" lon="5.65092">
        <ele>767.6</ele>
        <time>2021-01-16T13:49:56Z</time>
      </trkpt>
      <trkpt lat="45.04855" lon="5.6509">
        <ele>767.8</ele>
        <time>2021-01-16T13:49:57Z</time>
      </trkpt>
      <trkpt lat="45.04855" lon="5.6509">
        <ele>768.2</ele>
        <time>2021-01-16T13:49:58Z</time>
      </trkpt>
      <trkpt lat="45.04853" lon="5.65088">
        <ele>768.2</ele>
        <time>2021-01-16T13:49:59Z</time>
      </trkpt>
      <trkpt lat="45.04853" lon="5.65088">
        <ele>768.6</ele>
        <time>2021-01-16T13:50:01Z</time>
      </trkpt>
      <trkpt lat="45.04852" lon="5.65087">
        <ele>768.8</ele>
        <time>2021-01-16T13:50:02Z</time>
      </trkpt>
      <trkpt lat="45.04852" lon="5.65087">
        <ele>769</ele>
        <time>2021-01-16T13:50:03Z</time>
      </trkpt>
      <trkpt lat="45.0485" lon="5.65086">
        <ele>769.2</ele>
        <time>2021-01-16T13:50:04Z</time>
      </trkpt>
      <trkpt lat="45.0485" lon="5.65086">
        <ele>769.4</ele>
        <time>2021-01-16T13:50:05Z</time>
      </trkpt>
      <trkpt lat="45.04848" lon="5.65085">
        <ele>769.6</ele>
        <time>2021-01-16T13:50:06Z</time>
      </trkpt>
      <trkpt lat="45.04848" lon="5.65085">
        <ele>770</ele>
        <time>2021-01-16T13:50:07Z</time>
      </trkpt>
      <trkpt lat="45.04846" lon="5.65083">
        <ele>770.4</ele>
        <time>2021-01-16T13:50:08Z</time>
      </trkpt>
      <trkpt lat="45.04846" lon="5.65083">
        <ele>770.6</ele>
        <time>2021-01-16T13:50:09Z</time>
      </trkpt>
      <trkpt lat="45.04846" lon="5.65083">
        <ele>770.6</ele>
        <time>2021-01-16T13:50:10Z</time>
      </trkpt>
      <trkpt lat="45.04844" lon="5.65081">
        <ele>770.6</ele>
        <time>2021-01-16T13:50:11Z</time>
      </trkpt>
      <trkpt lat="45.04844" lon="5.65081">
        <ele>771</ele>
        <time>2021-01-16T13:50:12Z</time>
      </trkpt>
      <trkpt lat="45.04842" lon="5.65079">
        <ele>771.2</ele>
        <time>2021-01-16T13:50:13Z</time>
      </trkpt>
      <trkpt lat="45.04842" lon="5.65079">
        <ele>771.6</ele>
        <time>2021-01-16T13:50:14Z</time>
      </trkpt>
      <trkpt lat="45.04841" lon="5.65077">
        <ele>771.8</ele>
        <time>2021-01-16T13:50:15Z</time>
      </trkpt>
      <trkpt lat="45.04841" lon="5.65077">
        <ele>772.2</ele>
        <time>2021-01-16T13:50:16Z</time>
      </trkpt>
      <trkpt lat="45.0484" lon="5.65075">
        <ele>772.2</ele>
        <time>2021-01-16T13:50:17Z</time>
      </trkpt>
      <trkpt lat="45.0484" lon="5.65075">
        <ele>772.6</ele>
        <time>2021-01-16T13:50:18Z</time>
      </trkpt>
      <trkpt lat="45.0484" lon="5.65075">
        <ele>773</ele>
        <time>2021-01-16T13:50:19Z</time>
      </trkpt>
      <trkpt lat="45.04838" lon="5.65072">
        <ele>773.2</ele>
        <time>2021-01-16T13:50:20Z</time>
      </trkpt>
      <trkpt lat="45.04837" lon="5.6507">
        <ele>773.6</ele>
        <time>2021-01-16T13:50:21Z</time>
      </trkpt>
      <trkpt lat="45.04837" lon="5.6507">
        <ele>774</ele>
        <time>2021-01-16T13:50:22Z</time>
      </trkpt>
      <trkpt lat="45.04837" lon="5.6507">
        <ele>774.2</ele>
        <time>2021-01-16T13:50:23Z</time>
      </trkpt>
      <trkpt lat="45.04837" lon="5.6507">
        <ele>774.4</ele>
        <time>2021-01-16T13:50:24Z</time>
      </trkpt>
      <trkpt lat="45.04835" lon="5.65068">
        <ele>774.8</ele>
        <time>2021-01-16T13:50:25Z</time>
      </trkpt>
      <trkpt lat="45.04835" lon="5.65068">
        <ele>775</ele>
        <time>2021-01-16T13:50:26Z</time>
      </trkpt>
      <trkpt lat="45.04835" lon="5.65068">
        <ele>775.4</ele>
        <time>2021-01-16T13:50:27Z</time>
      </trkpt>
      <trkpt lat="45.04833" lon="5.65066">
        <ele>775.6</ele>
        <time>2021-01-16T13:50:28Z</time>
      </trkpt>
      <trkpt lat="45.04833" lon="5.65066">
        <ele>775.8</ele>
        <time>2021-01-16T13:50:29Z</time>
      </trkpt>
      <trkpt lat="45.04832" lon="5.65063">
        <ele>776.2</ele>
        <time>2021-01-16T13:50:30Z</time>
      </trkpt>
      <trkpt lat="45.04832" lon="5.65063">
        <ele>776.4</ele>
        <time>2021-01-16T13:50:31Z</time>
      </trkpt>
      <trkpt lat="45.0483" lon="5.6506">
        <ele>776.6</ele>
        <time>2021-01-16T13:50:32Z</time>
      </trkpt>
      <trkpt lat="45.0483" lon="5.6506">
        <ele>777</ele>
        <time>2021-01-16T13:50:33Z</time>
      </trkpt>
      <trkpt lat="45.04828" lon="5.65058">
        <ele>777.4</ele>
        <time>2021-01-16T13:50:34Z</time>
      </trkpt>
      <trkpt lat="45.04826" lon="5.65056">
        <ele>777.2</ele>
        <time>2021-01-16T13:50:35Z</time>
      </trkpt>
      <trkpt lat="45.04824" lon="5.65053">
        <ele>777</ele>
        <time>2021-01-16T13:50:36Z</time>
      </trkpt>
      <trkpt lat="45.04823" lon="5.65051">
        <ele>777</ele>
        <time>2021-01-16T13:50:37Z</time>
      </trkpt>
      <trkpt lat="45.04821" lon="5.65049">
        <ele>777</ele>
        <time>2021-01-16T13:50:38Z</time>
      </trkpt>
      <trkpt lat="45.04818" lon="5.65045">
        <ele>777.4</ele>
        <time>2021-01-16T13:50:39Z</time>
      </trkpt>
      <trkpt lat="45.04818" lon="5.65045">
        <ele>777.2</ele>
        <time>2021-01-16T13:50:40Z</time>
      </trkpt>
      <trkpt lat="45.04818" lon="5.65045">
        <ele>777.8</ele>
        <time>2021-01-16T13:50:41Z</time>
      </trkpt>
      <trkpt lat="45.04816" lon="5.65042">
        <ele>778</ele>
        <time>2021-01-16T13:50:42Z</time>
      </trkpt>
      <trkpt lat="45.04816" lon="5.65042">
        <ele>778.6</ele>
        <time>2021-01-16T13:50:43Z</time>
      </trkpt>
      <trkpt lat="45.04813" lon="5.6504">
        <ele>778.8</ele>
        <time>2021-01-16T13:50:44Z</time>
      </trkpt>
      <trkpt lat="45.04811" lon="5.65037">
        <ele>779.4</ele>
        <time>2021-01-16T13:50:45Z</time>
      </trkpt>
      <trkpt lat="45.04811" lon="5.65037">
        <ele>779.6</ele>
        <time>2021-01-16T13:50:46Z</time>
      </trkpt>
      <trkpt lat="45.04808" lon="5.65035">
        <ele>780</ele>
        <time>2021-01-16T13:50:47Z</time>
      </trkpt>
      <trkpt lat="45.04808" lon="5.65035">
        <ele>780.4</ele>
        <time>2021-01-16T13:50:48Z</time>
      </trkpt>
      <trkpt lat="45.04808" lon="5.65035">
        <ele>781</ele>
        <time>2021-01-16T13:50:49Z</time>
      </trkpt>
      <trkpt lat="45.04805" lon="5.65032">
        <ele>781</ele>
        <time>2021-01-16T13:50:50Z</time>
      </trkpt>
      <trkpt lat="45.04805" lon="5.65032">
        <ele>781.6</ele>
        <time>2021-01-16T13:50:51Z</time>
      </trkpt>
      <trkpt lat="45.04802" lon="5.6503">
        <ele>781.8</ele>
        <time>2021-01-16T13:50:52Z</time>
      </trkpt>
      <trkpt lat="45.04802" lon="5.6503">
        <ele>782.2</ele>
        <time>2021-01-16T13:50:53Z</time>
      </trkpt>
      <trkpt lat="45.048" lon="5.65027">
        <ele>782.6</ele>
        <time>2021-01-16T13:50:54Z</time>
      </trkpt>
      <trkpt lat="45.04799" lon="5.65021">
        <ele>783</ele>
        <time>2021-01-16T13:50:55Z</time>
      </trkpt>
      <trkpt lat="45.04798" lon="5.65015">
        <ele>783</ele>
        <time>2021-01-16T13:50:56Z</time>
      </trkpt>
      <trkpt lat="45.04796" lon="5.65002">
        <ele>783.4</ele>
        <time>2021-01-16T13:50:57Z</time>
      </trkpt>
      <trkpt lat="45.04794" lon="5.64991">
        <ele>783.4</ele>
        <time>2021-01-16T13:50:58Z</time>
      </trkpt>
      <trkpt lat="45.0479" lon="5.64991">
        <ele>783.2</ele>
        <time>2021-01-16T13:50:59Z</time>
      </trkpt>
      <trkpt lat="45.04787" lon="5.64991">
        <ele>783.4</ele>
        <time>2021-01-16T13:51:00Z</time>
      </trkpt>
      <trkpt lat="45.04781" lon="5.64991">
        <ele>783.4</ele>
        <time>2021-01-16T13:51:01Z</time>
      </trkpt>
      <trkpt lat="45.04781" lon="5.64991">
        <ele>783.6</ele>
        <time>2021-01-16T13:51:02Z</time>
      </trkpt>
      <trkpt lat="45.04779" lon="5.6499">
        <ele>783.8</ele>
        <time>2021-01-16T13:51:03Z</time>
      </trkpt>
      <trkpt lat="45.04777" lon="5.64988">
        <ele>784.2</ele>
        <time>2021-01-16T13:51:04Z</time>
      </trkpt>
      <trkpt lat="45.04774" lon="5.64987">
        <ele>784.2</ele>
        <time>2021-01-16T13:51:05Z</time>
      </trkpt>
      <trkpt lat="45.04772" lon="5.64986">
        <ele>784.6</ele>
        <time>2021-01-16T13:51:06Z</time>
      </trkpt>
      <trkpt lat="45.0477" lon="5.64982">
        <ele>784.8</ele>
        <time>2021-01-16T13:51:07Z</time>
      </trkpt>
      <trkpt lat="45.0477" lon="5.64982">
        <ele>785</ele>
        <time>2021-01-16T13:51:08Z</time>
      </trkpt>
      <trkpt lat="45.04768" lon="5.6498">
        <ele>785.2</ele>
        <time>2021-01-16T13:51:09Z</time>
      </trkpt>
      <trkpt lat="45.04768" lon="5.6498">
        <ele>785.4</ele>
        <time>2021-01-16T13:51:10Z</time>
      </trkpt>
      <trkpt lat="45.04768" lon="5.6498">
        <ele>785.6</ele>
        <time>2021-01-16T13:51:11Z</time>
      </trkpt>
      <trkpt lat="45.04765" lon="5.6498">
        <ele>785.4</ele>
        <time>2021-01-16T13:51:12Z</time>
      </trkpt>
      <trkpt lat="45.04765" lon="5.6498">
        <ele>785.6</ele>
        <time>2021-01-16T13:51:13Z</time>
      </trkpt>
      <trkpt lat="45.04765" lon="5.6498">
        <ele>785.6</ele>
        <time>2021-01-16T13:51:14Z</time>
      </trkpt>
      <trkpt lat="45.04765" lon="5.6498">
        <ele>785.8</ele>
        <time>2021-01-16T13:51:15Z</time>
      </trkpt>
      <trkpt lat="45.04765" lon="5.6498">
        <ele>785.6</ele>
        <time>2021-01-16T13:51:16Z</time>
      </trkpt>
      <trkpt lat="45.04763" lon="5.6498">
        <ele>785.6</ele>
        <time>2021-01-16T13:51:17Z</time>
      </trkpt>
      <trkpt lat="45.04763" lon="5.6498">
        <ele>785.6</ele>
        <time>2021-01-16T13:51:18Z</time>
      </trkpt>
      <trkpt lat="45.04763" lon="5.6498">
        <ele>785.8</ele>
        <time>2021-01-16T13:51:19Z</time>
      </trkpt>
      <trkpt lat="45.04763" lon="5.6498">
        <ele>785.8</ele>
        <time>2021-01-16T13:51:20Z</time>
      </trkpt>
      <trkpt lat="45.04763" lon="5.6498">
        <ele>785.8</ele>
        <time>2021-01-16T13:51:21Z</time>
      </trkpt>
      <trkpt lat="45.04763" lon="5.6498">
        <ele>785.8</ele>
        <time>2021-01-16T13:51:22Z</time>
      </trkpt>
      <trkpt lat="45.04763" lon="5.6498">
        <ele>785.8</ele>
        <time>2021-01-16T13:51:23Z</time>
      </trkpt>
      <trkpt lat="45.04761" lon="5.64981">
        <ele>785.8</ele>
        <time>2021-01-16T13:51:24Z</time>
      </trkpt>
      <trkpt lat="45.04761" lon="5.64981">
        <ele>785.8</ele>
        <time>2021-01-16T13:51:25Z</time>
      </trkpt>
      <trkpt lat="45.04761" lon="5.64981">
        <ele>785.6</ele>
        <time>2021-01-16T13:51:26Z</time>
      </trkpt>
      <trkpt lat="45.04761" lon="5.64981">
        <ele>785.6</ele>
        <time>2021-01-16T13:51:27Z</time>
      </trkpt>
      <trkpt lat="45.04761" lon="5.64981">
        <ele>785.4</ele>
        <time>2021-01-16T13:51:28Z</time>
      </trkpt>
      <trkpt lat="45.04759" lon="5.64981">
        <ele>785.6</ele>
        <time>2021-01-16T13:51:29Z</time>
      </trkpt>
      <trkpt lat="45.04759" lon="5.64981">
        <ele>785.6</ele>
        <time>2021-01-16T13:51:30Z</time>
      </trkpt>
      <trkpt lat="45.04759" lon="5.64981">
        <ele>785.4</ele>
        <time>2021-01-16T13:51:31Z</time>
      </trkpt>
      <trkpt lat="45.04759" lon="5.64981">
        <ele>785.4</ele>
        <time>2021-01-16T13:51:32Z</time>
      </trkpt>
      <trkpt lat="45.04759" lon="5.64981">
        <ele>785.4</ele>
        <time>2021-01-16T13:51:33Z</time>
      </trkpt>
      <trkpt lat="45.04759" lon="5.64981">
        <ele>785.4</ele>
        <time>2021-01-16T13:51:34Z</time>
      </trkpt>
      <trkpt lat="45.04759" lon="5.64981">
        <ele>785.4</ele>
        <time>2021-01-16T13:51:35Z</time>
      </trkpt>
      <trkpt lat="45.04759" lon="5.64981">
        <ele>785.4</ele>
        <time>2021-01-16T13:51:36Z</time>
      </trkpt>
      <trkpt lat="45.04759" lon="5.64981">
        <ele>785.6</ele>
        <time>2021-01-16T13:51:37Z</time>
      </trkpt>
      <trkpt lat="45.04759" lon="5.64981">
        <ele>785.4</ele>
        <time>2021-01-16T13:51:38Z</time>
      </trkpt>
      <trkpt lat="45.04759" lon="5.64981">
        <ele>785.4</ele>
        <time>2021-01-16T13:51:39Z</time>
      </trkpt>
      <trkpt lat="45.04759" lon="5.64981">
        <ele>785.2</ele>
        <time>2021-01-16T13:51:40Z</time>
      </trkpt>
      <trkpt lat="45.04759" lon="5.64981">
        <ele>785.2</ele>
        <time>2021-01-16T13:51:41Z</time>
      </trkpt>
      <trkpt lat="45.04759" lon="5.64981">
        <ele>785</ele>
        <time>2021-01-16T13:51:42Z</time>
      </trkpt>
      <trkpt lat="45.04759" lon="5.64981">
        <ele>785</ele>
        <time>2021-01-16T13:51:43Z</time>
      </trkpt>
      <trkpt lat="45.04759" lon="5.64981">
        <ele>785</ele>
        <time>2021-01-16T13:51:44Z</time>
      </trkpt>
      <trkpt lat="45.04759" lon="5.64981">
        <ele>785</ele>
        <time>2021-01-16T13:51:45Z</time>
      </trkpt>
      <trkpt lat="45.04759" lon="5.64981">
        <ele>785</ele>
        <time>2021-01-16T13:51:46Z</time>
      </trkpt>
      <trkpt lat="45.04759" lon="5.64981">
        <ele>785</ele>
        <time>2021-01-16T13:51:47Z</time>
      </trkpt>
      <trkpt lat="45.04759" lon="5.64981">
        <ele>785</ele>
        <time>2021-01-16T13:51:48Z</time>
      </trkpt>
      <trkpt lat="45.04759" lon="5.64981">
        <ele>784.8</ele>
        <time>2021-01-16T13:51:49Z</time>
      </trkpt>
      <trkpt lat="45.04759" lon="5.64981">
        <ele>784.8</ele>
        <time>2021-01-16T13:51:50Z</time>
      </trkpt>
      <trkpt lat="45.04759" lon="5.64981">
        <ele>784.8</ele>
        <time>2021-01-16T13:51:51Z</time>
      </trkpt>
      <trkpt lat="45.04759" lon="5.64981">
        <ele>784.6</ele>
        <time>2021-01-16T13:51:52Z</time>
      </trkpt>
      <trkpt lat="45.04759" lon="5.64981">
        <ele>784.6</ele>
        <time>2021-01-16T13:51:53Z</time>
      </trkpt>
      <trkpt lat="45.04759" lon="5.64981">
        <ele>784.6</ele>
        <time>2021-01-16T13:51:54Z</time>
      </trkpt>
      <trkpt lat="45.04759" lon="5.64979">
        <ele>784.4</ele>
        <time>2021-01-16T13:51:55Z</time>
      </trkpt>
      <trkpt lat="45.0476" lon="5.64976">
        <ele>784.8</ele>
        <time>2021-01-16T13:51:56Z</time>
      </trkpt>
      <trkpt lat="45.04761" lon="5.64973">
        <ele>785.4</ele>
        <time>2021-01-16T13:51:57Z</time>
      </trkpt>
      <trkpt lat="45.04762" lon="5.6497">
        <ele>785.4</ele>
        <time>2021-01-16T13:51:58Z</time>
      </trkpt>
      <trkpt lat="45.04764" lon="5.64962">
        <ele>785.2</ele>
        <time>2021-01-16T13:51:59Z</time>
      </trkpt>
      <trkpt lat="45.04765" lon="5.6496">
        <ele>785.4</ele>
        <time>2021-01-16T13:52:00Z</time>
      </trkpt>
      <trkpt lat="45.04765" lon="5.64959">
        <ele>785.4</ele>
        <time>2021-01-16T13:52:01Z</time>
      </trkpt>
      <trkpt lat="45.04765" lon="5.64957">
        <ele>785.6</ele>
        <time>2021-01-16T13:52:02Z</time>
      </trkpt>
      <trkpt lat="45.04766" lon="5.64956">
        <ele>785.6</ele>
        <time>2021-01-16T13:52:03Z</time>
      </trkpt>
      <trkpt lat="45.04766" lon="5.64954">
        <ele>785.6</ele>
        <time>2021-01-16T13:52:04Z</time>
      </trkpt>
      <trkpt lat="45.04766" lon="5.64953">
        <ele>785.6</ele>
        <time>2021-01-16T13:52:05Z</time>
      </trkpt>
      <trkpt lat="45.04767" lon="5.64951">
        <ele>785.6</ele>
        <time>2021-01-16T13:52:06Z</time>
      </trkpt>
      <trkpt lat="45.04767" lon="5.64949">
        <ele>785.6</ele>
        <time>2021-01-16T13:52:07Z</time>
      </trkpt>
      <trkpt lat="45.04767" lon="5.64948">
        <ele>785.6</ele>
        <time>2021-01-16T13:52:08Z</time>
      </trkpt>
      <trkpt lat="45.04768" lon="5.64946">
        <ele>785.6</ele>
        <time>2021-01-16T13:52:09Z</time>
      </trkpt>
      <trkpt lat="45.04768" lon="5.64945">
        <ele>785.6</ele>
        <time>2021-01-16T13:52:10Z</time>
      </trkpt>
      <trkpt lat="45.04768" lon="5.64943">
        <ele>785.4</ele>
        <time>2021-01-16T13:52:11Z</time>
      </trkpt>
      <trkpt lat="45.04769" lon="5.64942">
        <ele>785.6</ele>
        <time>2021-01-16T13:52:12Z</time>
      </trkpt>
      <trkpt lat="45.04769" lon="5.6494">
        <ele>785.6</ele>
        <time>2021-01-16T13:52:13Z</time>
      </trkpt>
      <trkpt lat="45.04769" lon="5.64938">
        <ele>785.4</ele>
        <time>2021-01-16T13:52:14Z</time>
      </trkpt>
      <trkpt lat="45.0477" lon="5.64937">
        <ele>785.4</ele>
        <time>2021-01-16T13:52:15Z</time>
      </trkpt>
      <trkpt lat="45.0477" lon="5.64935">
        <ele>785.6</ele>
        <time>2021-01-16T13:52:16Z</time>
      </trkpt>
      <trkpt lat="45.0477" lon="5.64934">
        <ele>785.8</ele>
        <time>2021-01-16T13:52:17Z</time>
      </trkpt>
      <trkpt lat="45.04771" lon="5.64932">
        <ele>786.2</ele>
        <time>2021-01-16T13:52:18Z</time>
      </trkpt>
      <trkpt lat="45.04771" lon="5.64931">
        <ele>786.8</ele>
        <time>2021-01-16T13:52:19Z</time>
      </trkpt>
      <trkpt lat="45.04771" lon="5.64929">
        <ele>787</ele>
        <time>2021-01-16T13:52:20Z</time>
      </trkpt>
      <trkpt lat="45.04772" lon="5.64927">
        <ele>787.8</ele>
        <time>2021-01-16T13:52:21Z</time>
      </trkpt>
      <trkpt lat="45.04771" lon="5.64926">
        <ele>788</ele>
        <time>2021-01-16T13:52:22Z</time>
      </trkpt>
      <trkpt lat="45.04771" lon="5.64924">
        <ele>788.6</ele>
        <time>2021-01-16T13:52:23Z</time>
      </trkpt>
      <trkpt lat="45.0477" lon="5.64921">
        <ele>788.6</ele>
        <time>2021-01-16T13:52:24Z</time>
      </trkpt>
      <trkpt lat="45.0477" lon="5.64918">
        <ele>788.8</ele>
        <time>2021-01-16T13:52:25Z</time>
      </trkpt>
      <trkpt lat="45.04769" lon="5.64915">
        <ele>788.4</ele>
        <time>2021-01-16T13:52:26Z</time>
      </trkpt>
      <trkpt lat="45.04768" lon="5.64912">
        <ele>788.6</ele>
        <time>2021-01-16T13:52:27Z</time>
      </trkpt>
      <trkpt lat="45.04766" lon="5.6491">
        <ele>788.8</ele>
        <time>2021-01-16T13:52:28Z</time>
      </trkpt>
      <trkpt lat="45.04764" lon="5.64908">
        <ele>788.8</ele>
        <time>2021-01-16T13:52:29Z</time>
      </trkpt>
      <trkpt lat="45.04762" lon="5.64904">
        <ele>789.2</ele>
        <time>2021-01-16T13:52:30Z</time>
      </trkpt>
      <trkpt lat="45.04761" lon="5.64903">
        <ele>789.2</ele>
        <time>2021-01-16T13:52:31Z</time>
      </trkpt>
      <trkpt lat="45.04759" lon="5.64902">
        <ele>789.8</ele>
        <time>2021-01-16T13:52:32Z</time>
      </trkpt>
      <trkpt lat="45.04755" lon="5.64898">
        <ele>790</ele>
        <time>2021-01-16T13:52:33Z</time>
      </trkpt>
      <trkpt lat="45.04754" lon="5.64896">
        <ele>790.4</ele>
        <time>2021-01-16T13:52:34Z</time>
      </trkpt>
      <trkpt lat="45.04752" lon="5.64894">
        <ele>790.4</ele>
        <time>2021-01-16T13:52:35Z</time>
      </trkpt>
      <trkpt lat="45.0475" lon="5.64892">
        <ele>790.6</ele>
        <time>2021-01-16T13:52:36Z</time>
      </trkpt>
      <trkpt lat="45.04749" lon="5.6489">
        <ele>790.4</ele>
        <time>2021-01-16T13:52:37Z</time>
      </trkpt>
      <trkpt lat="45.04748" lon="5.64889">
        <ele>790.4</ele>
        <time>2021-01-16T13:52:38Z</time>
      </trkpt>
      <trkpt lat="45.04747" lon="5.64887">
        <ele>790.2</ele>
        <time>2021-01-16T13:52:39Z</time>
      </trkpt>
      <trkpt lat="45.04745" lon="5.64884">
        <ele>790.2</ele>
        <time>2021-01-16T13:52:40Z</time>
      </trkpt>
      <trkpt lat="45.04742" lon="5.6488">
        <ele>790.6</ele>
        <time>2021-01-16T13:52:41Z</time>
      </trkpt>
      <trkpt lat="45.04741" lon="5.64877">
        <ele>790.4</ele>
        <time>2021-01-16T13:52:42Z</time>
      </trkpt>
      <trkpt lat="45.0474" lon="5.64875">
        <ele>791</ele>
        <time>2021-01-16T13:52:43Z</time>
      </trkpt>
      <trkpt lat="45.0474" lon="5.64875">
        <ele>791.2</ele>
        <time>2021-01-16T13:52:44Z</time>
      </trkpt>
      <trkpt lat="45.04739" lon="5.64873">
        <ele>791.6</ele>
        <time>2021-01-16T13:52:45Z</time>
      </trkpt>
      <trkpt lat="45.04738" lon="5.6487">
        <ele>791.4</ele>
        <time>2021-01-16T13:52:46Z</time>
      </trkpt>
      <trkpt lat="45.04737" lon="5.64867">
        <ele>791.4</ele>
        <time>2021-01-16T13:52:47Z</time>
      </trkpt>
      <trkpt lat="45.04735" lon="5.64864">
        <ele>791.2</ele>
        <time>2021-01-16T13:52:48Z</time>
      </trkpt>
      <trkpt lat="45.04734" lon="5.6486">
        <ele>791.4</ele>
        <time>2021-01-16T13:52:49Z</time>
      </trkpt>
      <trkpt lat="45.04734" lon="5.64859">
        <ele>791.6</ele>
        <time>2021-01-16T13:52:50Z</time>
      </trkpt>
      <trkpt lat="45.04734" lon="5.64857">
        <ele>791.6</ele>
        <time>2021-01-16T13:52:51Z</time>
      </trkpt>
      <trkpt lat="45.04734" lon="5.64854">
        <ele>792.2</ele>
        <time>2021-01-16T13:52:52Z</time>
      </trkpt>
      <trkpt lat="45.04733" lon="5.64852">
        <ele>792.8</ele>
        <time>2021-01-16T13:52:53Z</time>
      </trkpt>
      <trkpt lat="45.04733" lon="5.64852">
        <ele>793.4</ele>
        <time>2021-01-16T13:52:54Z</time>
      </trkpt>
      <trkpt lat="45.04733" lon="5.64847">
        <ele>793.6</ele>
        <time>2021-01-16T13:52:55Z</time>
      </trkpt>
      <trkpt lat="45.04733" lon="5.64847">
        <ele>794</ele>
        <time>2021-01-16T13:52:56Z</time>
      </trkpt>
      <trkpt lat="45.04732" lon="5.64843">
        <ele>793.8</ele>
        <time>2021-01-16T13:52:57Z</time>
      </trkpt>
      <trkpt lat="45.04732" lon="5.64839">
        <ele>794</ele>
        <time>2021-01-16T13:52:58Z</time>
      </trkpt>
      <trkpt lat="45.04732" lon="5.64839">
        <ele>794.2</ele>
        <time>2021-01-16T13:52:59Z</time>
      </trkpt>
      <trkpt lat="45.04732" lon="5.64839">
        <ele>794.2</ele>
        <time>2021-01-16T13:53:00Z</time>
      </trkpt>
      <trkpt lat="45.04732" lon="5.64835">
        <ele>794.8</ele>
        <time>2021-01-16T13:53:01Z</time>
      </trkpt>
      <trkpt lat="45.04732" lon="5.64835">
        <ele>795.4</ele>
        <time>2021-01-16T13:53:02Z</time>
      </trkpt>
      <trkpt lat="45.04731" lon="5.64831">
        <ele>795.8</ele>
        <time>2021-01-16T13:53:03Z</time>
      </trkpt>
      <trkpt lat="45.04731" lon="5.64831">
        <ele>796</ele>
        <time>2021-01-16T13:53:04Z</time>
      </trkpt>
      <trkpt lat="45.0473" lon="5.64827">
        <ele>796.4</ele>
        <time>2021-01-16T13:53:05Z</time>
      </trkpt>
      <trkpt lat="45.0473" lon="5.64827">
        <ele>796.6</ele>
        <time>2021-01-16T13:53:06Z</time>
      </trkpt>
      <trkpt lat="45.04729" lon="5.64822">
        <ele>797</ele>
        <time>2021-01-16T13:53:07Z</time>
      </trkpt>
      <trkpt lat="45.04728" lon="5.64819">
        <ele>797</ele>
        <time>2021-01-16T13:53:08Z</time>
      </trkpt>
      <trkpt lat="45.04727" lon="5.64814">
        <ele>797</ele>
        <time>2021-01-16T13:53:09Z</time>
      </trkpt>
      <trkpt lat="45.04727" lon="5.64814">
        <ele>797</ele>
        <time>2021-01-16T13:53:10Z</time>
      </trkpt>
      <trkpt lat="45.04726" lon="5.64812">
        <ele>797.2</ele>
        <time>2021-01-16T13:53:11Z</time>
      </trkpt>
      <trkpt lat="45.04725" lon="5.64806">
        <ele>797.4</ele>
        <time>2021-01-16T13:53:12Z</time>
      </trkpt>
      <trkpt lat="45.04724" lon="5.64803">
        <ele>797.4</ele>
        <time>2021-01-16T13:53:13Z</time>
      </trkpt>
      <trkpt lat="45.04722" lon="5.64801">
        <ele>797.8</ele>
        <time>2021-01-16T13:53:14Z</time>
      </trkpt>
      <trkpt lat="45.04721" lon="5.64799">
        <ele>798</ele>
        <time>2021-01-16T13:53:15Z</time>
      </trkpt>
      <trkpt lat="45.0472" lon="5.64796">
        <ele>798.4</ele>
        <time>2021-01-16T13:53:16Z</time>
      </trkpt>
      <trkpt lat="45.04719" lon="5.64795">
        <ele>798.4</ele>
        <time>2021-01-16T13:53:17Z</time>
      </trkpt>
      <trkpt lat="45.04718" lon="5.64793">
        <ele>798.6</ele>
        <time>2021-01-16T13:53:18Z</time>
      </trkpt>
      <trkpt lat="45.04717" lon="5.64792">
        <ele>798.6</ele>
        <time>2021-01-16T13:53:19Z</time>
      </trkpt>
      <trkpt lat="45.04716" lon="5.6479">
        <ele>799.2</ele>
        <time>2021-01-16T13:53:20Z</time>
      </trkpt>
      <trkpt lat="45.04715" lon="5.64788">
        <ele>799.4</ele>
        <time>2021-01-16T13:53:21Z</time>
      </trkpt>
      <trkpt lat="45.04713" lon="5.64786">
        <ele>799.8</ele>
        <time>2021-01-16T13:53:22Z</time>
      </trkpt>
      <trkpt lat="45.04713" lon="5.64784">
        <ele>799.6</ele>
        <time>2021-01-16T13:53:23Z</time>
      </trkpt>
      <trkpt lat="45.04713" lon="5.64781">
        <ele>799.6</ele>
        <time>2021-01-16T13:53:24Z</time>
      </trkpt>
      <trkpt lat="45.04712" lon="5.64779">
        <ele>799.6</ele>
        <time>2021-01-16T13:53:25Z</time>
      </trkpt>
      <trkpt lat="45.04712" lon="5.64777">
        <ele>799.6</ele>
        <time>2021-01-16T13:53:26Z</time>
      </trkpt>
      <trkpt lat="45.0471" lon="5.64773">
        <ele>800</ele>
        <time>2021-01-16T13:53:27Z</time>
      </trkpt>
      <trkpt lat="45.0471" lon="5.64771">
        <ele>800.2</ele>
        <time>2021-01-16T13:53:28Z</time>
      </trkpt>
      <trkpt lat="45.0471" lon="5.64769">
        <ele>800.6</ele>
        <time>2021-01-16T13:53:29Z</time>
      </trkpt>
      <trkpt lat="45.04709" lon="5.64767">
        <ele>801</ele>
        <time>2021-01-16T13:53:30Z</time>
      </trkpt>
      <trkpt lat="45.04709" lon="5.64765">
        <ele>801.4</ele>
        <time>2021-01-16T13:53:31Z</time>
      </trkpt>
      <trkpt lat="45.04709" lon="5.64764">
        <ele>801.6</ele>
        <time>2021-01-16T13:53:32Z</time>
      </trkpt>
      <trkpt lat="45.04708" lon="5.64762">
        <ele>802</ele>
        <time>2021-01-16T13:53:33Z</time>
      </trkpt>
      <trkpt lat="45.04708" lon="5.64762">
        <ele>802</ele>
        <time>2021-01-16T13:53:34Z</time>
      </trkpt>
      <trkpt lat="45.04708" lon="5.64758">
        <ele>802.2</ele>
        <time>2021-01-16T13:53:35Z</time>
      </trkpt>
      <trkpt lat="45.04708" lon="5.64758">
        <ele>802.2</ele>
        <time>2021-01-16T13:53:36Z</time>
      </trkpt>
      <trkpt lat="45.04707" lon="5.64754">
        <ele>802.4</ele>
        <time>2021-01-16T13:53:37Z</time>
      </trkpt>
      <trkpt lat="45.04707" lon="5.64754">
        <ele>802.6</ele>
        <time>2021-01-16T13:53:38Z</time>
      </trkpt>
      <trkpt lat="45.04706" lon="5.64751">
        <ele>802.8</ele>
        <time>2021-01-16T13:53:39Z</time>
      </trkpt>
      <trkpt lat="45.04704" lon="5.64747">
        <ele>803.2</ele>
        <time>2021-01-16T13:53:40Z</time>
      </trkpt>
      <trkpt lat="45.04703" lon="5.64744">
        <ele>803.6</ele>
        <time>2021-01-16T13:53:41Z</time>
      </trkpt>
      <trkpt lat="45.04701" lon="5.64741">
        <ele>803.8</ele>
        <time>2021-01-16T13:53:42Z</time>
      </trkpt>
      <trkpt lat="45.04695" lon="5.64731">
        <ele>804.2</ele>
        <time>2021-01-16T13:53:43Z</time>
      </trkpt>
      <trkpt lat="45.04695" lon="5.64731">
        <ele>804.2</ele>
        <time>2021-01-16T13:53:44Z</time>
      </trkpt>
      <trkpt lat="45.04695" lon="5.64731">
        <ele>804.4</ele>
        <time>2021-01-16T13:53:45Z</time>
      </trkpt>
      <trkpt lat="45.04695" lon="5.64731">
        <ele>804.6</ele>
        <time>2021-01-16T13:53:46Z</time>
      </trkpt>
      <trkpt lat="45.04694" lon="5.64731">
        <ele>804.8</ele>
        <time>2021-01-16T13:53:47Z</time>
      </trkpt>
      <trkpt lat="45.04693" lon="5.64731">
        <ele>804.8</ele>
        <time>2021-01-16T13:53:48Z</time>
      </trkpt>
      <trkpt lat="45.04692" lon="5.64731">
        <ele>804.8</ele>
        <time>2021-01-16T13:53:49Z</time>
      </trkpt>
      <trkpt lat="45.04691" lon="5.64731">
        <ele>804.8</ele>
        <time>2021-01-16T13:53:50Z</time>
      </trkpt>
      <trkpt lat="45.0469" lon="5.64731">
        <ele>804.8</ele>
        <time>2021-01-16T13:53:51Z</time>
      </trkpt>
      <trkpt lat="45.04689" lon="5.6473">
        <ele>804.6</ele>
        <time>2021-01-16T13:53:52Z</time>
      </trkpt>
      <trkpt lat="45.04689" lon="5.6473">
        <ele>804.4</ele>
        <time>2021-01-16T13:53:53Z</time>
      </trkpt>
      <trkpt lat="45.04688" lon="5.6473">
        <ele>804.4</ele>
        <time>2021-01-16T13:53:54Z</time>
      </trkpt>
      <trkpt lat="45.04687" lon="5.6473">
        <ele>804.4</ele>
        <time>2021-01-16T13:53:55Z</time>
      </trkpt>
      <trkpt lat="45.04686" lon="5.6473">
        <ele>804.4</ele>
        <time>2021-01-16T13:53:56Z</time>
      </trkpt>
      <trkpt lat="45.04686" lon="5.6473">
        <ele>804.6</ele>
        <time>2021-01-16T13:53:57Z</time>
      </trkpt>
      <trkpt lat="45.04686" lon="5.6473">
        <ele>804.4</ele>
        <time>2021-01-16T13:53:58Z</time>
      </trkpt>
      <trkpt lat="45.04686" lon="5.6473">
        <ele>804.6</ele>
        <time>2021-01-16T13:53:59Z</time>
      </trkpt>
      <trkpt lat="45.04686" lon="5.6473">
        <ele>804.6</ele>
        <time>2021-01-16T13:54:00Z</time>
      </trkpt>
      <trkpt lat="45.04685" lon="5.64731">
        <ele>804.6</ele>
        <time>2021-01-16T13:54:01Z</time>
      </trkpt>
      <trkpt lat="45.04685" lon="5.64731">
        <ele>804.8</ele>
        <time>2021-01-16T13:54:02Z</time>
      </trkpt>
      <trkpt lat="45.04685" lon="5.64731">
        <ele>804.8</ele>
        <time>2021-01-16T13:54:03Z</time>
      </trkpt>
      <trkpt lat="45.04685" lon="5.64731">
        <ele>804.6</ele>
        <time>2021-01-16T13:54:07Z</time>
      </trkpt>
      <trkpt lat="45.04685" lon="5.64731">
        <ele>804.6</ele>
        <time>2021-01-16T13:54:08Z</time>
      </trkpt>
      <trkpt lat="45.04685" lon="5.64731">
        <ele>804.4</ele>
        <time>2021-01-16T13:54:09Z</time>
      </trkpt>
      <trkpt lat="45.04685" lon="5.64731">
        <ele>804.4</ele>
        <time>2021-01-16T13:54:10Z</time>
      </trkpt>
      <trkpt lat="45.04685" lon="5.64731">
        <ele>804.2</ele>
        <time>2021-01-16T13:54:11Z</time>
      </trkpt>
      <trkpt lat="45.04684" lon="5.64731">
        <ele>804.2</ele>
        <time>2021-01-16T13:54:12Z</time>
      </trkpt>
      <trkpt lat="45.04684" lon="5.64731">
        <ele>804.2</ele>
        <time>2021-01-16T13:54:13Z</time>
      </trkpt>
      <trkpt lat="45.04684" lon="5.64732">
        <ele>804.2</ele>
        <time>2021-01-16T13:54:14Z</time>
      </trkpt>
      <trkpt lat="45.04684" lon="5.64732">
        <ele>804.2</ele>
        <time>2021-01-16T13:54:15Z</time>
      </trkpt>
      <trkpt lat="45.04684" lon="5.64732">
        <ele>804</ele>
        <time>2021-01-16T13:54:16Z</time>
      </trkpt>
      <trkpt lat="45.04684" lon="5.64732">
        <ele>804.2</ele>
        <time>2021-01-16T13:54:17Z</time>
      </trkpt>
      <trkpt lat="45.04684" lon="5.64732">
        <ele>804.2</ele>
        <time>2021-01-16T13:54:18Z</time>
      </trkpt>
      <trkpt lat="45.04683" lon="5.64732">
        <ele>804.2</ele>
        <time>2021-01-16T13:54:19Z</time>
      </trkpt>
      <trkpt lat="45.04683" lon="5.64732">
        <ele>804</ele>
        <time>2021-01-16T13:54:20Z</time>
      </trkpt>
      <trkpt lat="45.04683" lon="5.64732">
        <ele>804.2</ele>
        <time>2021-01-16T13:54:21Z</time>
      </trkpt>
      <trkpt lat="45.04683" lon="5.64732">
        <ele>804.2</ele>
        <time>2021-01-16T13:54:22Z</time>
      </trkpt>
      <trkpt lat="45.04683" lon="5.64733">
        <ele>804.2</ele>
        <time>2021-01-16T13:54:23Z</time>
      </trkpt>
      <trkpt lat="45.04683" lon="5.64733">
        <ele>804.4</ele>
        <time>2021-01-16T13:54:24Z</time>
      </trkpt>
      <trkpt lat="45.04683" lon="5.64733">
        <ele>804.4</ele>
        <time>2021-01-16T13:54:25Z</time>
      </trkpt>
      <trkpt lat="45.04683" lon="5.64733">
        <ele>804.4</ele>
        <time>2021-01-16T13:54:26Z</time>
      </trkpt>
      <trkpt lat="45.04682" lon="5.64733">
        <ele>804.4</ele>
        <time>2021-01-16T13:54:27Z</time>
      </trkpt>
      <trkpt lat="45.04682" lon="5.64733">
        <ele>804.6</ele>
        <time>2021-01-16T13:54:28Z</time>
      </trkpt>
      <trkpt lat="45.04682" lon="5.64733">
        <ele>804.4</ele>
        <time>2021-01-16T13:54:29Z</time>
      </trkpt>
      <trkpt lat="45.04682" lon="5.64733">
        <ele>804.4</ele>
        <time>2021-01-16T13:54:30Z</time>
      </trkpt>
      <trkpt lat="45.04682" lon="5.64733">
        <ele>804.2</ele>
        <time>2021-01-16T13:54:31Z</time>
      </trkpt>
      <trkpt lat="45.04682" lon="5.64733">
        <ele>804.2</ele>
        <time>2021-01-16T13:54:32Z</time>
      </trkpt>
      <trkpt lat="45.04682" lon="5.64734">
        <ele>804.2</ele>
        <time>2021-01-16T13:54:33Z</time>
      </trkpt>
      <trkpt lat="45.04682" lon="5.64734">
        <ele>804</ele>
        <time>2021-01-16T13:54:34Z</time>
      </trkpt>
      <trkpt lat="45.04681" lon="5.64734">
        <ele>804</ele>
        <time>2021-01-16T13:54:35Z</time>
      </trkpt>
      <trkpt lat="45.04681" lon="5.64733">
        <ele>804</ele>
        <time>2021-01-16T13:54:36Z</time>
      </trkpt>
      <trkpt lat="45.04681" lon="5.64733">
        <ele>804</ele>
        <time>2021-01-16T13:54:37Z</time>
      </trkpt>
      <trkpt lat="45.04681" lon="5.64732">
        <ele>804</ele>
        <time>2021-01-16T13:54:38Z</time>
      </trkpt>
      <trkpt lat="45.04681" lon="5.64732">
        <ele>804</ele>
        <time>2021-01-16T13:54:39Z</time>
      </trkpt>
      <trkpt lat="45.0468" lon="5.64731">
        <ele>804</ele>
        <time>2021-01-16T13:54:40Z</time>
      </trkpt>
      <trkpt lat="45.0468" lon="5.64731">
        <ele>804</ele>
        <time>2021-01-16T13:54:41Z</time>
      </trkpt>
      <trkpt lat="45.0468" lon="5.6473">
        <ele>804</ele>
        <time>2021-01-16T13:54:42Z</time>
      </trkpt>
      <trkpt lat="45.0468" lon="5.6473">
        <ele>804</ele>
        <time>2021-01-16T13:54:43Z</time>
      </trkpt>
      <trkpt lat="45.0468" lon="5.64729">
        <ele>804</ele>
        <time>2021-01-16T13:54:44Z</time>
      </trkpt>
      <trkpt lat="45.04679" lon="5.64729">
        <ele>804</ele>
        <time>2021-01-16T13:54:45Z</time>
      </trkpt>
      <trkpt lat="45.04679" lon="5.64728">
        <ele>804</ele>
        <time>2021-01-16T13:54:46Z</time>
      </trkpt>
      <trkpt lat="45.04679" lon="5.64728">
        <ele>804</ele>
        <time>2021-01-16T13:54:47Z</time>
      </trkpt>
      <trkpt lat="45.04679" lon="5.64727">
        <ele>804</ele>
        <time>2021-01-16T13:54:48Z</time>
      </trkpt>
      <trkpt lat="45.04678" lon="5.64727">
        <ele>804</ele>
        <time>2021-01-16T13:54:49Z</time>
      </trkpt>
      <trkpt lat="45.04678" lon="5.64726">
        <ele>804</ele>
        <time>2021-01-16T13:54:50Z</time>
      </trkpt>
      <trkpt lat="45.04678" lon="5.64726">
        <ele>804</ele>
        <time>2021-01-16T13:54:51Z</time>
      </trkpt>
      <trkpt lat="45.04678" lon="5.64725">
        <ele>803.8</ele>
        <time>2021-01-16T13:54:52Z</time>
      </trkpt>
      <trkpt lat="45.04678" lon="5.64724">
        <ele>803.6</ele>
        <time>2021-01-16T13:54:53Z</time>
      </trkpt>
      <trkpt lat="45.04677" lon="5.64724">
        <ele>803.4</ele>
        <time>2021-01-16T13:54:54Z</time>
      </trkpt>
      <trkpt lat="45.04677" lon="5.64723">
        <ele>803.4</ele>
        <time>2021-01-16T13:54:55Z</time>
      </trkpt>
      <trkpt lat="45.04677" lon="5.64723">
        <ele>802.8</ele>
        <time>2021-01-16T13:54:56Z</time>
      </trkpt>
      <trkpt lat="45.04677" lon="5.64722">
        <ele>803</ele>
        <time>2021-01-16T13:54:57Z</time>
      </trkpt>
      <trkpt lat="45.04677" lon="5.64722">
        <ele>803.4</ele>
        <time>2021-01-16T13:54:58Z</time>
      </trkpt>
      <trkpt lat="45.04676" lon="5.64721">
        <ele>803.8</ele>
        <time>2021-01-16T13:54:59Z</time>
      </trkpt>
      <trkpt lat="45.04676" lon="5.64721">
        <ele>804</ele>
        <time>2021-01-16T13:55:00Z</time>
      </trkpt>
      <trkpt lat="45.04676" lon="5.6472">
        <ele>804.2</ele>
        <time>2021-01-16T13:55:01Z</time>
      </trkpt>
      <trkpt lat="45.04676" lon="5.6472">
        <ele>804.4</ele>
        <time>2021-01-16T13:55:02Z</time>
      </trkpt>
      <trkpt lat="45.04675" lon="5.64719">
        <ele>804.6</ele>
        <time>2021-01-16T13:55:03Z</time>
      </trkpt>
      <trkpt lat="45.04674" lon="5.64719">
        <ele>804.8</ele>
        <time>2021-01-16T13:55:04Z</time>
      </trkpt>
      <trkpt lat="45.04673" lon="5.64719">
        <ele>805</ele>
        <time>2021-01-16T13:55:05Z</time>
      </trkpt>
      <trkpt lat="45.04672" lon="5.64718">
        <ele>805.2</ele>
        <time>2021-01-16T13:55:06Z</time>
      </trkpt>
      <trkpt lat="45.04671" lon="5.64718">
        <ele>805.4</ele>
        <time>2021-01-16T13:55:07Z</time>
      </trkpt>
      <trkpt lat="45.0467" lon="5.64718">
        <ele>805.6</ele>
        <time>2021-01-16T13:55:08Z</time>
      </trkpt>
      <trkpt lat="45.04669" lon="5.64717">
        <ele>805.8</ele>
        <time>2021-01-16T13:55:09Z</time>
      </trkpt>
      <trkpt lat="45.04667" lon="5.64717">
        <ele>806</ele>
        <time>2021-01-16T13:55:10Z</time>
      </trkpt>
      <trkpt lat="45.04666" lon="5.64717">
        <ele>806.2</ele>
        <time>2021-01-16T13:55:11Z</time>
      </trkpt>
      <trkpt lat="45.04665" lon="5.64718">
        <ele>806.4</ele>
        <time>2021-01-16T13:55:12Z</time>
      </trkpt>
      <trkpt lat="45.04663" lon="5.6472">
        <ele>806.4</ele>
        <time>2021-01-16T13:55:13Z</time>
      </trkpt>
      <trkpt lat="45.04662" lon="5.64722">
        <ele>806.8</ele>
        <time>2021-01-16T13:55:14Z</time>
      </trkpt>
      <trkpt lat="45.0466" lon="5.64724">
        <ele>806.8</ele>
        <time>2021-01-16T13:55:15Z</time>
      </trkpt>
      <trkpt lat="45.04659" lon="5.64726">
        <ele>806.8</ele>
        <time>2021-01-16T13:55:16Z</time>
      </trkpt>
      <trkpt lat="45.04657" lon="5.64727">
        <ele>806.8</ele>
        <time>2021-01-16T13:55:17Z</time>
      </trkpt>
      <trkpt lat="45.04655" lon="5.64728">
        <ele>807</ele>
        <time>2021-01-16T13:55:18Z</time>
      </trkpt>
      <trkpt lat="45.04654" lon="5.64729">
        <ele>807.4</ele>
        <time>2021-01-16T13:55:19Z</time>
      </trkpt>
      <trkpt lat="45.04652" lon="5.6473">
        <ele>807.8</ele>
        <time>2021-01-16T13:55:20Z</time>
      </trkpt>
      <trkpt lat="45.0465" lon="5.64732">
        <ele>808.4</ele>
        <time>2021-01-16T13:55:21Z</time>
      </trkpt>
      <trkpt lat="45.04647" lon="5.64733">
        <ele>808.8</ele>
        <time>2021-01-16T13:55:22Z</time>
      </trkpt>
      <trkpt lat="45.04645" lon="5.64734">
        <ele>809.4</ele>
        <time>2021-01-16T13:55:23Z</time>
      </trkpt>
      <trkpt lat="45.04643" lon="5.64735">
        <ele>809.6</ele>
        <time>2021-01-16T13:55:24Z</time>
      </trkpt>
      <trkpt lat="45.04641" lon="5.64735">
        <ele>810</ele>
        <time>2021-01-16T13:55:25Z</time>
      </trkpt>
      <trkpt lat="45.04639" lon="5.64736">
        <ele>810.2</ele>
        <time>2021-01-16T13:55:26Z</time>
      </trkpt>
      <trkpt lat="45.04637" lon="5.64735">
        <ele>810.4</ele>
        <time>2021-01-16T13:55:27Z</time>
      </trkpt>
      <trkpt lat="45.04636" lon="5.64734">
        <ele>810.4</ele>
        <time>2021-01-16T13:55:28Z</time>
      </trkpt>
      <trkpt lat="45.04634" lon="5.64733">
        <ele>810.6</ele>
        <time>2021-01-16T13:55:29Z</time>
      </trkpt>
      <trkpt lat="45.04633" lon="5.64732">
        <ele>810.8</ele>
        <time>2021-01-16T13:55:30Z</time>
      </trkpt>
      <trkpt lat="45.04632" lon="5.64732">
        <ele>811</ele>
        <time>2021-01-16T13:55:31Z</time>
      </trkpt>
      <trkpt lat="45.0463" lon="5.64731">
        <ele>811.4</ele>
        <time>2021-01-16T13:55:32Z</time>
      </trkpt>
      <trkpt lat="45.04629" lon="5.64729">
        <ele>811.8</ele>
        <time>2021-01-16T13:55:33Z</time>
      </trkpt>
      <trkpt lat="45.04628" lon="5.64727">
        <ele>812.2</ele>
        <time>2021-01-16T13:55:34Z</time>
      </trkpt>
      <trkpt lat="45.04628" lon="5.64727">
        <ele>812.4</ele>
        <time>2021-01-16T13:55:35Z</time>
      </trkpt>
      <trkpt lat="45.04628" lon="5.64727">
        <ele>812.8</ele>
        <time>2021-01-16T13:55:36Z</time>
      </trkpt>
      <trkpt lat="45.04626" lon="5.64723">
        <ele>813</ele>
        <time>2021-01-16T13:55:37Z</time>
      </trkpt>
      <trkpt lat="45.04626" lon="5.64723">
        <ele>813.4</ele>
        <time>2021-01-16T13:55:38Z</time>
      </trkpt>
      <trkpt lat="45.04625" lon="5.6472">
        <ele>813.8</ele>
        <time>2021-01-16T13:55:39Z</time>
      </trkpt>
      <trkpt lat="45.04625" lon="5.6472">
        <ele>814</ele>
        <time>2021-01-16T13:55:40Z</time>
      </trkpt>
      <trkpt lat="45.04625" lon="5.6472">
        <ele>814.6</ele>
        <time>2021-01-16T13:55:41Z</time>
      </trkpt>
      <trkpt lat="45.04622" lon="5.64718">
        <ele>814.6</ele>
        <time>2021-01-16T13:55:42Z</time>
      </trkpt>
      <trkpt lat="45.04622" lon="5.64718">
        <ele>814.8</ele>
        <time>2021-01-16T13:55:43Z</time>
      </trkpt>
      <trkpt lat="45.04622" lon="5.64718">
        <ele>814.8</ele>
        <time>2021-01-16T13:55:44Z</time>
      </trkpt>
      <trkpt lat="45.04622" lon="5.64718">
        <ele>815</ele>
        <time>2021-01-16T13:55:45Z</time>
      </trkpt>
      <trkpt lat="45.0462" lon="5.64715">
        <ele>815.2</ele>
        <time>2021-01-16T13:55:46Z</time>
      </trkpt>
      <trkpt lat="45.0462" lon="5.64715">
        <ele>815.6</ele>
        <time>2021-01-16T13:55:47Z</time>
      </trkpt>
      <trkpt lat="45.0462" lon="5.64715">
        <ele>816</ele>
        <time>2021-01-16T13:55:48Z</time>
      </trkpt>
      <trkpt lat="45.0462" lon="5.64715">
        <ele>816.2</ele>
        <time>2021-01-16T13:55:49Z</time>
      </trkpt>
      <trkpt lat="45.04619" lon="5.64713">
        <ele>816.6</ele>
        <time>2021-01-16T13:55:50Z</time>
      </trkpt>
      <trkpt lat="45.04619" lon="5.64713">
        <ele>816.8</ele>
        <time>2021-01-16T13:55:51Z</time>
      </trkpt>
      <trkpt lat="45.04619" lon="5.64713">
        <ele>817.2</ele>
        <time>2021-01-16T13:55:52Z</time>
      </trkpt>
      <trkpt lat="45.04619" lon="5.64713">
        <ele>817.6</ele>
        <time>2021-01-16T13:55:53Z</time>
      </trkpt>
      <trkpt lat="45.04619" lon="5.64713">
        <ele>817.8</ele>
        <time>2021-01-16T13:55:54Z</time>
      </trkpt>
      <trkpt lat="45.04616" lon="5.64711">
        <ele>818</ele>
        <time>2021-01-16T13:55:55Z</time>
      </trkpt>
      <trkpt lat="45.04615" lon="5.64709">
        <ele>818.4</ele>
        <time>2021-01-16T13:55:56Z</time>
      </trkpt>
      <trkpt lat="45.04613" lon="5.64708">
        <ele>818.6</ele>
        <time>2021-01-16T13:55:57Z</time>
      </trkpt>
      <trkpt lat="45.04612" lon="5.64707">
        <ele>818.8</ele>
        <time>2021-01-16T13:55:58Z</time>
      </trkpt>
      <trkpt lat="45.04611" lon="5.64706">
        <ele>819</ele>
        <time>2021-01-16T13:55:59Z</time>
      </trkpt>
      <trkpt lat="45.0461" lon="5.64705">
        <ele>819.2</ele>
        <time>2021-01-16T13:56:00Z</time>
      </trkpt>
      <trkpt lat="45.0461" lon="5.64705">
        <ele>819.2</ele>
        <time>2021-01-16T13:56:01Z</time>
      </trkpt>
      <trkpt lat="45.04608" lon="5.64703">
        <ele>819.6</ele>
        <time>2021-01-16T13:56:02Z</time>
      </trkpt>
      <trkpt lat="45.04606" lon="5.64701">
        <ele>819.8</ele>
        <time>2021-01-16T13:56:03Z</time>
      </trkpt>
      <trkpt lat="45.04605" lon="5.64699">
        <ele>820</ele>
        <time>2021-01-16T13:56:04Z</time>
      </trkpt>
      <trkpt lat="45.04603" lon="5.64697">
        <ele>820.4</ele>
        <time>2021-01-16T13:56:05Z</time>
      </trkpt>
      <trkpt lat="45.04602" lon="5.64695">
        <ele>820.6</ele>
        <time>2021-01-16T13:56:06Z</time>
      </trkpt>
      <trkpt lat="45.04601" lon="5.64694">
        <ele>820.8</ele>
        <time>2021-01-16T13:56:07Z</time>
      </trkpt>
      <trkpt lat="45.046" lon="5.64692">
        <ele>821</ele>
        <time>2021-01-16T13:56:08Z</time>
      </trkpt>
      <trkpt lat="45.04598" lon="5.64687">
        <ele>821.4</ele>
        <time>2021-01-16T13:56:09Z</time>
      </trkpt>
      <trkpt lat="45.04598" lon="5.64687">
        <ele>821.8</ele>
        <time>2021-01-16T13:56:10Z</time>
      </trkpt>
      <trkpt lat="45.04598" lon="5.64687">
        <ele>822</ele>
        <time>2021-01-16T13:56:11Z</time>
      </trkpt>
      <trkpt lat="45.04596" lon="5.64684">
        <ele>822.4</ele>
        <time>2021-01-16T13:56:12Z</time>
      </trkpt>
      <trkpt lat="45.04593" lon="5.64681">
        <ele>822.6</ele>
        <time>2021-01-16T13:56:13Z</time>
      </trkpt>
      <trkpt lat="45.04592" lon="5.64679">
        <ele>822.8</ele>
        <time>2021-01-16T13:56:14Z</time>
      </trkpt>
      <trkpt lat="45.04592" lon="5.64679">
        <ele>823.2</ele>
        <time>2021-01-16T13:56:15Z</time>
      </trkpt>
      <trkpt lat="45.0459" lon="5.64676">
        <ele>823.6</ele>
        <time>2021-01-16T13:56:16Z</time>
      </trkpt>
      <trkpt lat="45.0459" lon="5.64676">
        <ele>823.8</ele>
        <time>2021-01-16T13:56:17Z</time>
      </trkpt>
      <trkpt lat="45.0459" lon="5.64676">
        <ele>823.8</ele>
        <time>2021-01-16T13:56:18Z</time>
      </trkpt>
      <trkpt lat="45.0459" lon="5.64676">
        <ele>824</ele>
        <time>2021-01-16T13:56:19Z</time>
      </trkpt>
      <trkpt lat="45.04587" lon="5.64673">
        <ele>824.4</ele>
        <time>2021-01-16T13:56:20Z</time>
      </trkpt>
      <trkpt lat="45.04587" lon="5.64673">
        <ele>824.6</ele>
        <time>2021-01-16T13:56:21Z</time>
      </trkpt>
      <trkpt lat="45.04587" lon="5.64673">
        <ele>824.8</ele>
        <time>2021-01-16T13:56:22Z</time>
      </trkpt>
      <trkpt lat="45.04587" lon="5.64673">
        <ele>825</ele>
        <time>2021-01-16T13:56:23Z</time>
      </trkpt>
      <trkpt lat="45.04585" lon="5.64672">
        <ele>825.4</ele>
        <time>2021-01-16T13:56:24Z</time>
      </trkpt>
      <trkpt lat="45.04585" lon="5.64672">
        <ele>825.4</ele>
        <time>2021-01-16T13:56:25Z</time>
      </trkpt>
      <trkpt lat="45.04585" lon="5.64672">
        <ele>825.6</ele>
        <time>2021-01-16T13:56:26Z</time>
      </trkpt>
      <trkpt lat="45.04583" lon="5.6467">
        <ele>825.8</ele>
        <time>2021-01-16T13:56:27Z</time>
      </trkpt>
      <trkpt lat="45.04583" lon="5.6467">
        <ele>826</ele>
        <time>2021-01-16T13:56:28Z</time>
      </trkpt>
      <trkpt lat="45.04582" lon="5.64669">
        <ele>826.4</ele>
        <time>2021-01-16T13:56:29Z</time>
      </trkpt>
      <trkpt lat="45.04582" lon="5.64669">
        <ele>826.6</ele>
        <time>2021-01-16T13:56:30Z</time>
      </trkpt>
      <trkpt lat="45.04582" lon="5.64669">
        <ele>826.8</ele>
        <time>2021-01-16T13:56:31Z</time>
      </trkpt>
      <trkpt lat="45.0458" lon="5.64667">
        <ele>827.2</ele>
        <time>2021-01-16T13:56:32Z</time>
      </trkpt>
      <trkpt lat="45.0458" lon="5.64667">
        <ele>827.6</ele>
        <time>2021-01-16T13:56:33Z</time>
      </trkpt>
      <trkpt lat="45.0458" lon="5.64667">
        <ele>827.8</ele>
        <time>2021-01-16T13:56:34Z</time>
      </trkpt>
      <trkpt lat="45.0458" lon="5.64667">
        <ele>828</ele>
        <time>2021-01-16T13:56:35Z</time>
      </trkpt>
      <trkpt lat="45.04578" lon="5.64664">
        <ele>828.2</ele>
        <time>2021-01-16T13:56:36Z</time>
      </trkpt>
      <trkpt lat="45.04578" lon="5.64664">
        <ele>828.4</ele>
        <time>2021-01-16T13:56:37Z</time>
      </trkpt>
      <trkpt lat="45.04578" lon="5.64664">
        <ele>828.6</ele>
        <time>2021-01-16T13:56:38Z</time>
      </trkpt>
      <trkpt lat="45.04578" lon="5.64664">
        <ele>828.8</ele>
        <time>2021-01-16T13:56:39Z</time>
      </trkpt>
      <trkpt lat="45.04578" lon="5.64664">
        <ele>829.2</ele>
        <time>2021-01-16T13:56:40Z</time>
      </trkpt>
      <trkpt lat="45.04578" lon="5.64664">
        <ele>829.6</ele>
        <time>2021-01-16T13:56:41Z</time>
      </trkpt>
      <trkpt lat="45.04576" lon="5.64662">
        <ele>830</ele>
        <time>2021-01-16T13:56:42Z</time>
      </trkpt>
      <trkpt lat="45.04576" lon="5.64662">
        <ele>830.4</ele>
        <time>2021-01-16T13:56:43Z</time>
      </trkpt>
      <trkpt lat="45.04574" lon="5.6466">
        <ele>830.6</ele>
        <time>2021-01-16T13:56:44Z</time>
      </trkpt>
      <trkpt lat="45.04572" lon="5.64658">
        <ele>830.8</ele>
        <time>2021-01-16T13:56:45Z</time>
      </trkpt>
      <trkpt lat="45.04571" lon="5.64656">
        <ele>831.2</ele>
        <time>2021-01-16T13:56:46Z</time>
      </trkpt>
      <trkpt lat="45.04569" lon="5.64653">
        <ele>831.6</ele>
        <time>2021-01-16T13:56:47Z</time>
      </trkpt>
      <trkpt lat="45.04564" lon="5.64646">
        <ele>832</ele>
        <time>2021-01-16T13:56:48Z</time>
      </trkpt>
      <trkpt lat="45.04564" lon="5.64646">
        <ele>832.4</ele>
        <time>2021-01-16T13:56:49Z</time>
      </trkpt>
      <trkpt lat="45.04563" lon="5.64645">
        <ele>832.6</ele>
        <time>2021-01-16T13:56:50Z</time>
      </trkpt>
      <trkpt lat="45.04561" lon="5.64644">
        <ele>833</ele>
        <time>2021-01-16T13:56:51Z</time>
      </trkpt>
      <trkpt lat="45.04559" lon="5.64643">
        <ele>833.4</ele>
        <time>2021-01-16T13:56:52Z</time>
      </trkpt>
      <trkpt lat="45.04558" lon="5.64642">
        <ele>833.8</ele>
        <time>2021-01-16T13:56:53Z</time>
      </trkpt>
      <trkpt lat="45.04556" lon="5.64641">
        <ele>833.6</ele>
        <time>2021-01-16T13:56:54Z</time>
      </trkpt>
      <trkpt lat="45.04552" lon="5.64641">
        <ele>833.2</ele>
        <time>2021-01-16T13:56:55Z</time>
      </trkpt>
      <trkpt lat="45.04549" lon="5.64641">
        <ele>833.2</ele>
        <time>2021-01-16T13:56:56Z</time>
      </trkpt>
      <trkpt lat="45.04545" lon="5.6464">
        <ele>833.2</ele>
        <time>2021-01-16T13:56:57Z</time>
      </trkpt>
      <trkpt lat="45.04542" lon="5.6464">
        <ele>833.2</ele>
        <time>2021-01-16T13:56:58Z</time>
      </trkpt>
      <trkpt lat="45.04539" lon="5.64641">
        <ele>833.4</ele>
        <time>2021-01-16T13:56:59Z</time>
      </trkpt>
      <trkpt lat="45.04539" lon="5.64641">
        <ele>833.6</ele>
        <time>2021-01-16T13:57:00Z</time>
      </trkpt>
      <trkpt lat="45.04539" lon="5.64641">
        <ele>833.8</ele>
        <time>2021-01-16T13:57:01Z</time>
      </trkpt>
      <trkpt lat="45.04537" lon="5.64641">
        <ele>834.2</ele>
        <time>2021-01-16T13:57:02Z</time>
      </trkpt>
      <trkpt lat="45.04537" lon="5.64641">
        <ele>834.4</ele>
        <time>2021-01-16T13:57:03Z</time>
      </trkpt>
      <trkpt lat="45.04537" lon="5.64641">
        <ele>834.6</ele>
        <time>2021-01-16T13:57:04Z</time>
      </trkpt>
      <trkpt lat="45.04535" lon="5.6464">
        <ele>834.8</ele>
        <time>2021-01-16T13:57:05Z</time>
      </trkpt>
      <trkpt lat="45.04534" lon="5.64638">
        <ele>834.8</ele>
        <time>2021-01-16T13:57:06Z</time>
      </trkpt>
      <trkpt lat="45.04532" lon="5.64637">
        <ele>835</ele>
        <time>2021-01-16T13:57:07Z</time>
      </trkpt>
      <trkpt lat="45.04531" lon="5.64635">
        <ele>835.2</ele>
        <time>2021-01-16T13:57:08Z</time>
      </trkpt>
      <trkpt lat="45.0453" lon="5.64633">
        <ele>835.2</ele>
        <time>2021-01-16T13:57:09Z</time>
      </trkpt>
      <trkpt lat="45.04528" lon="5.64633">
        <ele>835.4</ele>
        <time>2021-01-16T13:57:10Z</time>
      </trkpt>
      <trkpt lat="45.04527" lon="5.64633">
        <ele>835.4</ele>
        <time>2021-01-16T13:57:11Z</time>
      </trkpt>
      <trkpt lat="45.04525" lon="5.64633">
        <ele>835.4</ele>
        <time>2021-01-16T13:57:12Z</time>
      </trkpt>
      <trkpt lat="45.04524" lon="5.64633">
        <ele>835.4</ele>
        <time>2021-01-16T13:57:13Z</time>
      </trkpt>
      <trkpt lat="45.04523" lon="5.64633">
        <ele>835.6</ele>
        <time>2021-01-16T13:57:14Z</time>
      </trkpt>
      <trkpt lat="45.04521" lon="5.64633">
        <ele>835.6</ele>
        <time>2021-01-16T13:57:15Z</time>
      </trkpt>
      <trkpt lat="45.0452" lon="5.64633">
        <ele>835.6</ele>
        <time>2021-01-16T13:57:16Z</time>
      </trkpt>
      <trkpt lat="45.04519" lon="5.64633">
        <ele>835.6</ele>
        <time>2021-01-16T13:57:17Z</time>
      </trkpt>
      <trkpt lat="45.04518" lon="5.64632">
        <ele>835.6</ele>
        <time>2021-01-16T13:57:18Z</time>
      </trkpt>
      <trkpt lat="45.04517" lon="5.64631">
        <ele>835.6</ele>
        <time>2021-01-16T13:57:19Z</time>
      </trkpt>
      <trkpt lat="45.04517" lon="5.6463">
        <ele>835.8</ele>
        <time>2021-01-16T13:57:20Z</time>
      </trkpt>
      <trkpt lat="45.04516" lon="5.6463">
        <ele>835.8</ele>
        <time>2021-01-16T13:57:21Z</time>
      </trkpt>
      <trkpt lat="45.04515" lon="5.64629">
        <ele>835.8</ele>
        <time>2021-01-16T13:57:22Z</time>
      </trkpt>
      <trkpt lat="45.04514" lon="5.64628">
        <ele>835.8</ele>
        <time>2021-01-16T13:57:23Z</time>
      </trkpt>
      <trkpt lat="45.04514" lon="5.64627">
        <ele>836</ele>
        <time>2021-01-16T13:57:24Z</time>
      </trkpt>
      <trkpt lat="45.04513" lon="5.64627">
        <ele>836</ele>
        <time>2021-01-16T13:57:25Z</time>
      </trkpt>
      <trkpt lat="45.04512" lon="5.64626">
        <ele>835.8</ele>
        <time>2021-01-16T13:57:26Z</time>
      </trkpt>
      <trkpt lat="45.04511" lon="5.64625">
        <ele>835.8</ele>
        <time>2021-01-16T13:57:27Z</time>
      </trkpt>
      <trkpt lat="45.0451" lon="5.64625">
        <ele>835.8</ele>
        <time>2021-01-16T13:57:28Z</time>
      </trkpt>
      <trkpt lat="45.04508" lon="5.64625">
        <ele>835.8</ele>
        <time>2021-01-16T13:57:29Z</time>
      </trkpt>
      <trkpt lat="45.04507" lon="5.64624">
        <ele>835.8</ele>
        <time>2021-01-16T13:57:30Z</time>
      </trkpt>
      <trkpt lat="45.04505" lon="5.64624">
        <ele>836</ele>
        <time>2021-01-16T13:57:31Z</time>
      </trkpt>
      <trkpt lat="45.04504" lon="5.64624">
        <ele>836</ele>
        <time>2021-01-16T13:57:32Z</time>
      </trkpt>
      <trkpt lat="45.04502" lon="5.64624">
        <ele>836</ele>
        <time>2021-01-16T13:57:33Z</time>
      </trkpt>
      <trkpt lat="45.04501" lon="5.64624">
        <ele>836</ele>
        <time>2021-01-16T13:57:34Z</time>
      </trkpt>
      <trkpt lat="45.04499" lon="5.64623">
        <ele>835.8</ele>
        <time>2021-01-16T13:57:35Z</time>
      </trkpt>
      <trkpt lat="45.04498" lon="5.64621">
        <ele>835.8</ele>
        <time>2021-01-16T13:57:36Z</time>
      </trkpt>
      <trkpt lat="45.04497" lon="5.64618">
        <ele>835.6</ele>
        <time>2021-01-16T13:57:37Z</time>
      </trkpt>
      <trkpt lat="45.04496" lon="5.64615">
        <ele>835.6</ele>
        <time>2021-01-16T13:57:38Z</time>
      </trkpt>
      <trkpt lat="45.04495" lon="5.64613">
        <ele>835.6</ele>
        <time>2021-01-16T13:57:39Z</time>
      </trkpt>
      <trkpt lat="45.04495" lon="5.6461">
        <ele>835.6</ele>
        <time>2021-01-16T13:57:40Z</time>
      </trkpt>
      <trkpt lat="45.04494" lon="5.64607">
        <ele>835.6</ele>
        <time>2021-01-16T13:57:41Z</time>
      </trkpt>
      <trkpt lat="45.04492" lon="5.64606">
        <ele>835.8</ele>
        <time>2021-01-16T13:57:42Z</time>
      </trkpt>
      <trkpt lat="45.04492" lon="5.64606">
        <ele>835.6</ele>
        <time>2021-01-16T13:57:43Z</time>
      </trkpt>
      <trkpt lat="45.0449" lon="5.64604">
        <ele>835.6</ele>
        <time>2021-01-16T13:57:44Z</time>
      </trkpt>
      <trkpt lat="45.0449" lon="5.64604">
        <ele>835.4</ele>
        <time>2021-01-16T13:57:45Z</time>
      </trkpt>
      <trkpt lat="45.04487" lon="5.64603">
        <ele>835.2</ele>
        <time>2021-01-16T13:57:46Z</time>
      </trkpt>
      <trkpt lat="45.04485" lon="5.64602">
        <ele>835.2</ele>
        <time>2021-01-16T13:57:47Z</time>
      </trkpt>
      <trkpt lat="45.04484" lon="5.64602">
        <ele>835.4</ele>
        <time>2021-01-16T13:57:48Z</time>
      </trkpt>
      <trkpt lat="45.04482" lon="5.64601">
        <ele>835.6</ele>
        <time>2021-01-16T13:57:49Z</time>
      </trkpt>
      <trkpt lat="45.04476" lon="5.64599">
        <ele>835.6</ele>
        <time>2021-01-16T13:57:50Z</time>
      </trkpt>
      <trkpt lat="45.04476" lon="5.64599">
        <ele>835.6</ele>
        <time>2021-01-16T13:57:51Z</time>
      </trkpt>
      <trkpt lat="45.04476" lon="5.64599">
        <ele>835.6</ele>
        <time>2021-01-16T13:57:52Z</time>
      </trkpt>
      <trkpt lat="45.04476" lon="5.64598">
        <ele>835.6</ele>
        <time>2021-01-16T13:57:53Z</time>
      </trkpt>
      <trkpt lat="45.04475" lon="5.64596">
        <ele>835.6</ele>
        <time>2021-01-16T13:57:54Z</time>
      </trkpt>
      <trkpt lat="45.04475" lon="5.64595">
        <ele>835.8</ele>
        <time>2021-01-16T13:57:55Z</time>
      </trkpt>
      <trkpt lat="45.04475" lon="5.64593">
        <ele>835.8</ele>
        <time>2021-01-16T13:57:56Z</time>
      </trkpt>
      <trkpt lat="45.04474" lon="5.64591">
        <ele>836</ele>
        <time>2021-01-16T13:57:57Z</time>
      </trkpt>
      <trkpt lat="45.04474" lon="5.6459">
        <ele>836.2</ele>
        <time>2021-01-16T13:57:58Z</time>
      </trkpt>
      <trkpt lat="45.04474" lon="5.64588">
        <ele>836.2</ele>
        <time>2021-01-16T13:57:59Z</time>
      </trkpt>
      <trkpt lat="45.04473" lon="5.64587">
        <ele>836.2</ele>
        <time>2021-01-16T13:58:00Z</time>
      </trkpt>
      <trkpt lat="45.04473" lon="5.64586">
        <ele>836</ele>
        <time>2021-01-16T13:58:01Z</time>
      </trkpt>
      <trkpt lat="45.04472" lon="5.64584">
        <ele>836.2</ele>
        <time>2021-01-16T13:58:02Z</time>
      </trkpt>
      <trkpt lat="45.04471" lon="5.64583">
        <ele>836.2</ele>
        <time>2021-01-16T13:58:03Z</time>
      </trkpt>
      <trkpt lat="45.04471" lon="5.64582">
        <ele>836.4</ele>
        <time>2021-01-16T13:58:04Z</time>
      </trkpt>
      <trkpt lat="45.0447" lon="5.6458">
        <ele>836.4</ele>
        <time>2021-01-16T13:58:05Z</time>
      </trkpt>
      <trkpt lat="45.0447" lon="5.64579">
        <ele>836.2</ele>
        <time>2021-01-16T13:58:06Z</time>
      </trkpt>
      <trkpt lat="45.04469" lon="5.64578">
        <ele>836.4</ele>
        <time>2021-01-16T13:58:07Z</time>
      </trkpt>
      <trkpt lat="45.04468" lon="5.64576">
        <ele>836.6</ele>
        <time>2021-01-16T13:58:08Z</time>
      </trkpt>
      <trkpt lat="45.04468" lon="5.64575">
        <ele>836.8</ele>
        <time>2021-01-16T13:58:09Z</time>
      </trkpt>
      <trkpt lat="45.04467" lon="5.64574">
        <ele>836.8</ele>
        <time>2021-01-16T13:58:10Z</time>
      </trkpt>
      <trkpt lat="45.04467" lon="5.64572">
        <ele>836.8</ele>
        <time>2021-01-16T13:58:11Z</time>
      </trkpt>
      <trkpt lat="45.04466" lon="5.64571">
        <ele>836.8</ele>
        <time>2021-01-16T13:58:12Z</time>
      </trkpt>
      <trkpt lat="45.04465" lon="5.6457">
        <ele>836.8</ele>
        <time>2021-01-16T13:58:13Z</time>
      </trkpt>
      <trkpt lat="45.04465" lon="5.64568">
        <ele>837</ele>
        <time>2021-01-16T13:58:14Z</time>
      </trkpt>
      <trkpt lat="45.04464" lon="5.64567">
        <ele>837.2</ele>
        <time>2021-01-16T13:58:15Z</time>
      </trkpt>
      <trkpt lat="45.04464" lon="5.64565">
        <ele>837.2</ele>
        <time>2021-01-16T13:58:16Z</time>
      </trkpt>
      <trkpt lat="45.04463" lon="5.64564">
        <ele>837.2</ele>
        <time>2021-01-16T13:58:17Z</time>
      </trkpt>
      <trkpt lat="45.04462" lon="5.64562">
        <ele>837</ele>
        <time>2021-01-16T13:58:18Z</time>
      </trkpt>
      <trkpt lat="45.04462" lon="5.64559">
        <ele>837</ele>
        <time>2021-01-16T13:58:19Z</time>
      </trkpt>
      <trkpt lat="45.04461" lon="5.64556">
        <ele>837.2</ele>
        <time>2021-01-16T13:58:20Z</time>
      </trkpt>
      <trkpt lat="45.0446" lon="5.64554">
        <ele>837.2</ele>
        <time>2021-01-16T13:58:21Z</time>
      </trkpt>
      <trkpt lat="45.0446" lon="5.64551">
        <ele>837.2</ele>
        <time>2021-01-16T13:58:22Z</time>
      </trkpt>
      <trkpt lat="45.04459" lon="5.64549">
        <ele>837.4</ele>
        <time>2021-01-16T13:58:23Z</time>
      </trkpt>
      <trkpt lat="45.04459" lon="5.64546">
        <ele>837.4</ele>
        <time>2021-01-16T13:58:24Z</time>
      </trkpt>
      <trkpt lat="45.04459" lon="5.64546">
        <ele>837</ele>
        <time>2021-01-16T13:58:25Z</time>
      </trkpt>
      <trkpt lat="45.04457" lon="5.64542">
        <ele>837</ele>
        <time>2021-01-16T13:58:26Z</time>
      </trkpt>
      <trkpt lat="45.04457" lon="5.64542">
        <ele>837</ele>
        <time>2021-01-16T13:58:27Z</time>
      </trkpt>
      <trkpt lat="45.04457" lon="5.64542">
        <ele>836.8</ele>
        <time>2021-01-16T13:58:28Z</time>
      </trkpt>
      <trkpt lat="45.04454" lon="5.64541">
        <ele>836.8</ele>
        <time>2021-01-16T13:58:29Z</time>
      </trkpt>
      <trkpt lat="45.04454" lon="5.64541">
        <ele>836.6</ele>
        <time>2021-01-16T13:58:30Z</time>
      </trkpt>
      <trkpt lat="45.04453" lon="5.64538">
        <ele>836.8</ele>
        <time>2021-01-16T13:58:31Z</time>
      </trkpt>
      <trkpt lat="45.04452" lon="5.64536">
        <ele>836.8</ele>
        <time>2021-01-16T13:58:32Z</time>
      </trkpt>
      <trkpt lat="45.04451" lon="5.64533">
        <ele>836.4</ele>
        <time>2021-01-16T13:58:33Z</time>
      </trkpt>
      <trkpt lat="45.0445" lon="5.64528">
        <ele>836.2</ele>
        <time>2021-01-16T13:58:34Z</time>
      </trkpt>
      <trkpt lat="45.04449" lon="5.64523">
        <ele>836.2</ele>
        <time>2021-01-16T13:58:35Z</time>
      </trkpt>
      <trkpt lat="45.04448" lon="5.64522">
        <ele>836</ele>
        <time>2021-01-16T13:58:36Z</time>
      </trkpt>
      <trkpt lat="45.04448" lon="5.6452">
        <ele>836</ele>
        <time>2021-01-16T13:58:37Z</time>
      </trkpt>
      <trkpt lat="45.04447" lon="5.64514">
        <ele>836</ele>
        <time>2021-01-16T13:58:38Z</time>
      </trkpt>
      <trkpt lat="45.04447" lon="5.64514">
        <ele>836.2</ele>
        <time>2021-01-16T13:58:39Z</time>
      </trkpt>
      <trkpt lat="45.04446" lon="5.64511">
        <ele>836</ele>
        <time>2021-01-16T13:58:40Z</time>
      </trkpt>
      <trkpt lat="45.04445" lon="5.64505">
        <ele>836.2</ele>
        <time>2021-01-16T13:58:41Z</time>
      </trkpt>
      <trkpt lat="45.04445" lon="5.64505">
        <ele>836</ele>
        <time>2021-01-16T13:58:42Z</time>
      </trkpt>
      <trkpt lat="45.04444" lon="5.64502">
        <ele>836</ele>
        <time>2021-01-16T13:58:43Z</time>
      </trkpt>
      <trkpt lat="45.04443" lon="5.64497">
        <ele>835.4</ele>
        <time>2021-01-16T13:58:44Z</time>
      </trkpt>
      <trkpt lat="45.04443" lon="5.64497">
        <ele>835.2</ele>
        <time>2021-01-16T13:58:45Z</time>
      </trkpt>
      <trkpt lat="45.04443" lon="5.64497">
        <ele>834.4</ele>
        <time>2021-01-16T13:58:46Z</time>
      </trkpt>
      <trkpt lat="45.04445" lon="5.64493">
        <ele>834.2</ele>
        <time>2021-01-16T13:58:47Z</time>
      </trkpt>
      <trkpt lat="45.04446" lon="5.6449">
        <ele>833.6</ele>
        <time>2021-01-16T13:58:48Z</time>
      </trkpt>
      <trkpt lat="45.04446" lon="5.64487">
        <ele>833.8</ele>
        <time>2021-01-16T13:58:49Z</time>
      </trkpt>
      <trkpt lat="45.04447" lon="5.64483">
        <ele>833.6</ele>
        <time>2021-01-16T13:58:50Z</time>
      </trkpt>
      <trkpt lat="45.0445" lon="5.64474">
        <ele>833.8</ele>
        <time>2021-01-16T13:58:51Z</time>
      </trkpt>
      <trkpt lat="45.0445" lon="5.64474">
        <ele>833.6</ele>
        <time>2021-01-16T13:58:52Z</time>
      </trkpt>
      <trkpt lat="45.04451" lon="5.6447">
        <ele>833.6</ele>
        <time>2021-01-16T13:58:53Z</time>
      </trkpt>
      <trkpt lat="45.04451" lon="5.64466">
        <ele>833.4</ele>
        <time>2021-01-16T13:58:54Z</time>
      </trkpt>
      <trkpt lat="45.04451" lon="5.64463">
        <ele>833.4</ele>
        <time>2021-01-16T13:58:55Z</time>
      </trkpt>
      <trkpt lat="45.04451" lon="5.64459">
        <ele>833.4</ele>
        <time>2021-01-16T13:58:56Z</time>
      </trkpt>
      <trkpt lat="45.04451" lon="5.64456">
        <ele>833.2</ele>
        <time>2021-01-16T13:58:57Z</time>
      </trkpt>
      <trkpt lat="45.04452" lon="5.64454">
        <ele>833.2</ele>
        <time>2021-01-16T13:58:58Z</time>
      </trkpt>
      <trkpt lat="45.04452" lon="5.64452">
        <ele>833.2</ele>
        <time>2021-01-16T13:58:59Z</time>
      </trkpt>
      <trkpt lat="45.04452" lon="5.64449">
        <ele>832.8</ele>
        <time>2021-01-16T13:59:00Z</time>
      </trkpt>
      <trkpt lat="45.04453" lon="5.64447">
        <ele>832.4</ele>
        <time>2021-01-16T13:59:01Z</time>
      </trkpt>
      <trkpt lat="45.04453" lon="5.64445">
        <ele>832.4</ele>
        <time>2021-01-16T13:59:02Z</time>
      </trkpt>
      <trkpt lat="45.04453" lon="5.64444">
        <ele>832.4</ele>
        <time>2021-01-16T13:59:03Z</time>
      </trkpt>
      <trkpt lat="45.04452" lon="5.64444">
        <ele>832.4</ele>
        <time>2021-01-16T13:59:04Z</time>
      </trkpt>
      <trkpt lat="45.04452" lon="5.64443">
        <ele>832.6</ele>
        <time>2021-01-16T13:59:05Z</time>
      </trkpt>
      <trkpt lat="45.04451" lon="5.64443">
        <ele>832.8</ele>
        <time>2021-01-16T13:59:06Z</time>
      </trkpt>
      <trkpt lat="45.04451" lon="5.64442">
        <ele>833</ele>
        <time>2021-01-16T13:59:07Z</time>
      </trkpt>
      <trkpt lat="45.04451" lon="5.64442">
        <ele>833.2</ele>
        <time>2021-01-16T13:59:08Z</time>
      </trkpt>
      <trkpt lat="45.0445" lon="5.64441">
        <ele>833.4</ele>
        <time>2021-01-16T13:59:09Z</time>
      </trkpt>
      <trkpt lat="45.0445" lon="5.64441">
        <ele>833.8</ele>
        <time>2021-01-16T13:59:10Z</time>
      </trkpt>
      <trkpt lat="45.04449" lon="5.64441">
        <ele>834</ele>
        <time>2021-01-16T13:59:11Z</time>
      </trkpt>
      <trkpt lat="45.04449" lon="5.6444">
        <ele>834.2</ele>
        <time>2021-01-16T13:59:12Z</time>
      </trkpt>
      <trkpt lat="45.04449" lon="5.6444">
        <ele>834.8</ele>
        <time>2021-01-16T13:59:13Z</time>
      </trkpt>
      <trkpt lat="45.04448" lon="5.64439">
        <ele>835</ele>
        <time>2021-01-16T13:59:14Z</time>
      </trkpt>
      <trkpt lat="45.04448" lon="5.64439">
        <ele>835.2</ele>
        <time>2021-01-16T13:59:15Z</time>
      </trkpt>
      <trkpt lat="45.04447" lon="5.64438">
        <ele>835.4</ele>
        <time>2021-01-16T13:59:16Z</time>
      </trkpt>
      <trkpt lat="45.04447" lon="5.64438">
        <ele>835.6</ele>
        <time>2021-01-16T13:59:17Z</time>
      </trkpt>
      <trkpt lat="45.04447" lon="5.64437">
        <ele>835.8</ele>
        <time>2021-01-16T13:59:18Z</time>
      </trkpt>
      <trkpt lat="45.04446" lon="5.64437">
        <ele>836</ele>
        <time>2021-01-16T13:59:19Z</time>
      </trkpt>
      <trkpt lat="45.04446" lon="5.64437">
        <ele>836.2</ele>
        <time>2021-01-16T13:59:20Z</time>
      </trkpt>
      <trkpt lat="45.04443" lon="5.64437">
        <ele>836.4</ele>
        <time>2021-01-16T13:59:21Z</time>
      </trkpt>
      <trkpt lat="45.04441" lon="5.64437">
        <ele>836.4</ele>
        <time>2021-01-16T13:59:22Z</time>
      </trkpt>
      <trkpt lat="45.04439" lon="5.64437">
        <ele>836</ele>
        <time>2021-01-16T13:59:23Z</time>
      </trkpt>
      <trkpt lat="45.04436" lon="5.64438">
        <ele>835.6</ele>
        <time>2021-01-16T13:59:24Z</time>
      </trkpt>
      <trkpt lat="45.04434" lon="5.64438">
        <ele>835.4</ele>
        <time>2021-01-16T13:59:25Z</time>
      </trkpt>
      <trkpt lat="45.04432" lon="5.64439">
        <ele>834.8</ele>
        <time>2021-01-16T13:59:26Z</time>
      </trkpt>
      <trkpt lat="45.0443" lon="5.6444">
        <ele>834.6</ele>
        <time>2021-01-16T13:59:27Z</time>
      </trkpt>
      <trkpt lat="45.04427" lon="5.64441">
        <ele>834.2</ele>
        <time>2021-01-16T13:59:28Z</time>
      </trkpt>
      <trkpt lat="45.04426" lon="5.64442">
        <ele>834.2</ele>
        <time>2021-01-16T13:59:29Z</time>
      </trkpt>
      <trkpt lat="45.04424" lon="5.64442">
        <ele>833.8</ele>
        <time>2021-01-16T13:59:30Z</time>
      </trkpt>
      <trkpt lat="45.04422" lon="5.64443">
        <ele>833.6</ele>
        <time>2021-01-16T13:59:31Z</time>
      </trkpt>
      <trkpt lat="45.0442" lon="5.64444">
        <ele>833.6</ele>
        <time>2021-01-16T13:59:32Z</time>
      </trkpt>
      <trkpt lat="45.04419" lon="5.64445">
        <ele>834</ele>
        <time>2021-01-16T13:59:33Z</time>
      </trkpt>
      <trkpt lat="45.04415" lon="5.64444">
        <ele>834.2</ele>
        <time>2021-01-16T13:59:34Z</time>
      </trkpt>
      <trkpt lat="45.04412" lon="5.64443">
        <ele>834.2</ele>
        <time>2021-01-16T13:59:35Z</time>
      </trkpt>
      <trkpt lat="45.0441" lon="5.64443">
        <ele>834</ele>
        <time>2021-01-16T13:59:36Z</time>
      </trkpt>
      <trkpt lat="45.04408" lon="5.64442">
        <ele>833.6</ele>
        <time>2021-01-16T13:59:37Z</time>
      </trkpt>
      <trkpt lat="45.04405" lon="5.64442">
        <ele>833.6</ele>
        <time>2021-01-16T13:59:38Z</time>
      </trkpt>
      <trkpt lat="45.04403" lon="5.64441">
        <ele>833.4</ele>
        <time>2021-01-16T13:59:39Z</time>
      </trkpt>
      <trkpt lat="45.04401" lon="5.64441">
        <ele>833.4</ele>
        <time>2021-01-16T13:59:40Z</time>
      </trkpt>
      <trkpt lat="45.04398" lon="5.6444">
        <ele>832.4</ele>
        <time>2021-01-16T13:59:41Z</time>
      </trkpt>
      <trkpt lat="45.04398" lon="5.6444">
        <ele>831.4</ele>
        <time>2021-01-16T13:59:42Z</time>
      </trkpt>
      <trkpt lat="45.04398" lon="5.6444">
        <ele>831.2</ele>
        <time>2021-01-16T13:59:43Z</time>
      </trkpt>
      <trkpt lat="45.04398" lon="5.6444">
        <ele>831.4</ele>
        <time>2021-01-16T13:59:44Z</time>
      </trkpt>
      <trkpt lat="45.04396" lon="5.64439">
        <ele>831.2</ele>
        <time>2021-01-16T13:59:45Z</time>
      </trkpt>
      <trkpt lat="45.04393" lon="5.64439">
        <ele>831</ele>
        <time>2021-01-16T13:59:46Z</time>
      </trkpt>
      <trkpt lat="45.0439" lon="5.64438">
        <ele>830.8</ele>
        <time>2021-01-16T13:59:47Z</time>
      </trkpt>
      <trkpt lat="45.04387" lon="5.64437">
        <ele>830.8</ele>
        <time>2021-01-16T13:59:48Z</time>
      </trkpt>
      <trkpt lat="45.04385" lon="5.64436">
        <ele>831</ele>
        <time>2021-01-16T13:59:49Z</time>
      </trkpt>
      <trkpt lat="45.04381" lon="5.64434">
        <ele>831.2</ele>
        <time>2021-01-16T13:59:50Z</time>
      </trkpt>
      <trkpt lat="45.0438" lon="5.64434">
        <ele>832</ele>
        <time>2021-01-16T13:59:51Z</time>
      </trkpt>
      <trkpt lat="45.0438" lon="5.64434">
        <ele>832.2</ele>
        <time>2021-01-16T13:59:52Z</time>
      </trkpt>
      <trkpt lat="45.04379" lon="5.64434">
        <ele>832.8</ele>
        <time>2021-01-16T13:59:53Z</time>
      </trkpt>
      <trkpt lat="45.04379" lon="5.64434">
        <ele>833</ele>
        <time>2021-01-16T13:59:54Z</time>
      </trkpt>
      <trkpt lat="45.04377" lon="5.64432">
        <ele>833.4</ele>
        <time>2021-01-16T13:59:55Z</time>
      </trkpt>
      <trkpt lat="45.04376" lon="5.64431">
        <ele>833.2</ele>
        <time>2021-01-16T13:59:56Z</time>
      </trkpt>
      <trkpt lat="45.04374" lon="5.6443">
        <ele>833.2</ele>
        <time>2021-01-16T13:59:57Z</time>
      </trkpt>
      <trkpt lat="45.04372" lon="5.64428">
        <ele>833.4</ele>
        <time>2021-01-16T13:59:58Z</time>
      </trkpt>
      <trkpt lat="45.0437" lon="5.64427">
        <ele>833.6</ele>
        <time>2021-01-16T13:59:59Z</time>
      </trkpt>
      <trkpt lat="45.04362" lon="5.64416">
        <ele>834.8</ele>
        <time>2021-01-16T14:00:01Z</time>
      </trkpt>
      <trkpt lat="45.04362" lon="5.64415">
        <ele>835.2</ele>
        <time>2021-01-16T14:00:02Z</time>
      </trkpt>
      <trkpt lat="45.04362" lon="5.64415">
        <ele>835</ele>
        <time>2021-01-16T14:00:03Z</time>
      </trkpt>
      <trkpt lat="45.04361" lon="5.64414">
        <ele>835.4</ele>
        <time>2021-01-16T14:00:04Z</time>
      </trkpt>
      <trkpt lat="45.04361" lon="5.64414">
        <ele>835.2</ele>
        <time>2021-01-16T14:00:05Z</time>
      </trkpt>
      <trkpt lat="45.04359" lon="5.64411">
        <ele>835.2</ele>
        <time>2021-01-16T14:00:06Z</time>
      </trkpt>
      <trkpt lat="45.04356" lon="5.64407">
        <ele>834.6</ele>
        <time>2021-01-16T14:00:07Z</time>
      </trkpt>
      <trkpt lat="45.04353" lon="5.64404">
        <ele>834.4</ele>
        <time>2021-01-16T14:00:08Z</time>
      </trkpt>
      <trkpt lat="45.04351" lon="5.644">
        <ele>833.8</ele>
        <time>2021-01-16T14:00:09Z</time>
      </trkpt>
      <trkpt lat="45.04348" lon="5.64397">
        <ele>833.4</ele>
        <time>2021-01-16T14:00:10Z</time>
      </trkpt>
      <trkpt lat="45.04348" lon="5.64397">
        <ele>833</ele>
        <time>2021-01-16T14:00:11Z</time>
      </trkpt>
      <trkpt lat="45.04348" lon="5.64397">
        <ele>833</ele>
        <time>2021-01-16T14:00:12Z</time>
      </trkpt>
      <trkpt lat="45.04345" lon="5.64396">
        <ele>832.6</ele>
        <time>2021-01-16T14:00:13Z</time>
      </trkpt>
      <trkpt lat="45.04343" lon="5.64396">
        <ele>832.6</ele>
        <time>2021-01-16T14:00:14Z</time>
      </trkpt>
      <trkpt lat="45.0434" lon="5.64395">
        <ele>832.4</ele>
        <time>2021-01-16T14:00:15Z</time>
      </trkpt>
      <trkpt lat="45.04337" lon="5.64395">
        <ele>832.6</ele>
        <time>2021-01-16T14:00:16Z</time>
      </trkpt>
      <trkpt lat="45.04327" lon="5.64394">
        <ele>832.4</ele>
        <time>2021-01-16T14:00:17Z</time>
      </trkpt>
      <trkpt lat="45.04325" lon="5.64394">
        <ele>832.8</ele>
        <time>2021-01-16T14:00:18Z</time>
      </trkpt>
      <trkpt lat="45.04324" lon="5.64394">
        <ele>832.2</ele>
        <time>2021-01-16T14:00:19Z</time>
      </trkpt>
      <trkpt lat="45.04323" lon="5.64394">
        <ele>832</ele>
        <time>2021-01-16T14:00:20Z</time>
      </trkpt>
      <trkpt lat="45.04321" lon="5.64394">
        <ele>831.8</ele>
        <time>2021-01-16T14:00:21Z</time>
      </trkpt>
      <trkpt lat="45.0432" lon="5.64394">
        <ele>831.6</ele>
        <time>2021-01-16T14:00:22Z</time>
      </trkpt>
      <trkpt lat="45.04319" lon="5.64394">
        <ele>832</ele>
        <time>2021-01-16T14:00:23Z</time>
      </trkpt>
      <trkpt lat="45.04318" lon="5.64394">
        <ele>832</ele>
        <time>2021-01-16T14:00:24Z</time>
      </trkpt>
      <trkpt lat="45.04317" lon="5.64395">
        <ele>832.2</ele>
        <time>2021-01-16T14:00:25Z</time>
      </trkpt>
      <trkpt lat="45.04316" lon="5.64395">
        <ele>832.6</ele>
        <time>2021-01-16T14:00:26Z</time>
      </trkpt>
      <trkpt lat="45.04315" lon="5.64395">
        <ele>832.8</ele>
        <time>2021-01-16T14:00:27Z</time>
      </trkpt>
      <trkpt lat="45.04309" lon="5.64382">
        <ele>833</ele>
        <time>2021-01-16T14:00:28Z</time>
      </trkpt>
      <trkpt lat="45.04303" lon="5.64369">
        <ele>833.4</ele>
        <time>2021-01-16T14:00:30Z</time>
      </trkpt>
      <trkpt lat="45.04303" lon="5.64365">
        <ele>834</ele>
        <time>2021-01-16T14:00:31Z</time>
      </trkpt>
      <trkpt lat="45.04302" lon="5.64362">
        <ele>834.2</ele>
        <time>2021-01-16T14:00:32Z</time>
      </trkpt>
      <trkpt lat="45.04299" lon="5.64347">
        <ele>834.4</ele>
        <time>2021-01-16T14:00:33Z</time>
      </trkpt>
      <trkpt lat="45.04298" lon="5.64339">
        <ele>834.6</ele>
        <time>2021-01-16T14:00:34Z</time>
      </trkpt>
      <trkpt lat="45.04296" lon="5.64339">
        <ele>835</ele>
        <time>2021-01-16T14:00:35Z</time>
      </trkpt>
      <trkpt lat="45.04295" lon="5.64339">
        <ele>835.2</ele>
        <time>2021-01-16T14:00:36Z</time>
      </trkpt>
      <trkpt lat="45.04293" lon="5.64339">
        <ele>835.4</ele>
        <time>2021-01-16T14:00:37Z</time>
      </trkpt>
      <trkpt lat="45.04292" lon="5.64339">
        <ele>835.6</ele>
        <time>2021-01-16T14:00:38Z</time>
      </trkpt>
      <trkpt lat="45.0429" lon="5.64339">
        <ele>835.8</ele>
        <time>2021-01-16T14:00:39Z</time>
      </trkpt>
      <trkpt lat="45.04289" lon="5.64339">
        <ele>835.8</ele>
        <time>2021-01-16T14:00:40Z</time>
      </trkpt>
      <trkpt lat="45.04288" lon="5.64339">
        <ele>836</ele>
        <time>2021-01-16T14:00:41Z</time>
      </trkpt>
      <trkpt lat="45.04286" lon="5.64339">
        <ele>836</ele>
        <time>2021-01-16T14:00:42Z</time>
      </trkpt>
      <trkpt lat="45.04285" lon="5.64339">
        <ele>835.6</ele>
        <time>2021-01-16T14:00:43Z</time>
      </trkpt>
      <trkpt lat="45.04283" lon="5.64339">
        <ele>835.6</ele>
        <time>2021-01-16T14:00:44Z</time>
      </trkpt>
      <trkpt lat="45.04282" lon="5.64339">
        <ele>836</ele>
        <time>2021-01-16T14:00:45Z</time>
      </trkpt>
      <trkpt lat="45.0428" lon="5.64339">
        <ele>835.8</ele>
        <time>2021-01-16T14:00:46Z</time>
      </trkpt>
      <trkpt lat="45.04279" lon="5.64339">
        <ele>835.6</ele>
        <time>2021-01-16T14:00:47Z</time>
      </trkpt>
      <trkpt lat="45.04277" lon="5.64339">
        <ele>835.6</ele>
        <time>2021-01-16T14:00:48Z</time>
      </trkpt>
      <trkpt lat="45.04276" lon="5.64339">
        <ele>835.8</ele>
        <time>2021-01-16T14:00:49Z</time>
      </trkpt>
      <trkpt lat="45.04274" lon="5.64339">
        <ele>835.8</ele>
        <time>2021-01-16T14:00:50Z</time>
      </trkpt>
      <trkpt lat="45.04273" lon="5.64339">
        <ele>836.2</ele>
        <time>2021-01-16T14:00:51Z</time>
      </trkpt>
      <trkpt lat="45.04271" lon="5.64339">
        <ele>836</ele>
        <time>2021-01-16T14:00:52Z</time>
      </trkpt>
      <trkpt lat="45.04268" lon="5.6434">
        <ele>836.4</ele>
        <time>2021-01-16T14:00:53Z</time>
      </trkpt>
      <trkpt lat="45.04265" lon="5.64342">
        <ele>836</ele>
        <time>2021-01-16T14:00:54Z</time>
      </trkpt>
      <trkpt lat="45.04263" lon="5.64342">
        <ele>836.2</ele>
        <time>2021-01-16T14:00:55Z</time>
      </trkpt>
      <trkpt lat="45.04261" lon="5.64342">
        <ele>835.8</ele>
        <time>2021-01-16T14:00:56Z</time>
      </trkpt>
      <trkpt lat="45.04259" lon="5.64343">
        <ele>835.6</ele>
        <time>2021-01-16T14:00:57Z</time>
      </trkpt>
      <trkpt lat="45.04254" lon="5.64344">
        <ele>835</ele>
        <time>2021-01-16T14:00:58Z</time>
      </trkpt>
      <trkpt lat="45.04253" lon="5.64345">
        <ele>834.8</ele>
        <time>2021-01-16T14:00:59Z</time>
      </trkpt>
      <trkpt lat="45.04251" lon="5.64345">
        <ele>834.2</ele>
        <time>2021-01-16T14:01:00Z</time>
      </trkpt>
      <trkpt lat="45.0425" lon="5.64346">
        <ele>834</ele>
        <time>2021-01-16T14:01:01Z</time>
      </trkpt>
      <trkpt lat="45.04247" lon="5.64347">
        <ele>834</ele>
        <time>2021-01-16T14:01:02Z</time>
      </trkpt>
      <trkpt lat="45.04243" lon="5.64349">
        <ele>833.8</ele>
        <time>2021-01-16T14:01:03Z</time>
      </trkpt>
      <trkpt lat="45.0424" lon="5.64351">
        <ele>834</ele>
        <time>2021-01-16T14:01:04Z</time>
      </trkpt>
      <trkpt lat="45.04236" lon="5.64353">
        <ele>833.8</ele>
        <time>2021-01-16T14:01:05Z</time>
      </trkpt>
      <trkpt lat="45.04232" lon="5.64355">
        <ele>834.2</ele>
        <time>2021-01-16T14:01:06Z</time>
      </trkpt>
      <trkpt lat="45.0423" lon="5.64356">
        <ele>833.8</ele>
        <time>2021-01-16T14:01:07Z</time>
      </trkpt>
      <trkpt lat="45.04228" lon="5.64356">
        <ele>834.2</ele>
        <time>2021-01-16T14:01:08Z</time>
      </trkpt>
      <trkpt lat="45.04226" lon="5.64357">
        <ele>833.8</ele>
        <time>2021-01-16T14:01:09Z</time>
      </trkpt>
      <trkpt lat="45.04222" lon="5.64357">
        <ele>833.8</ele>
        <time>2021-01-16T14:01:10Z</time>
      </trkpt>
      <trkpt lat="45.04219" lon="5.64357">
        <ele>833</ele>
        <time>2021-01-16T14:01:11Z</time>
      </trkpt>
      <trkpt lat="45.04216" lon="5.64356">
        <ele>832.6</ele>
        <time>2021-01-16T14:01:12Z</time>
      </trkpt>
      <trkpt lat="45.04212" lon="5.64357">
        <ele>832.2</ele>
        <time>2021-01-16T14:01:13Z</time>
      </trkpt>
      <trkpt lat="45.04209" lon="5.64358">
        <ele>831.8</ele>
        <time>2021-01-16T14:01:14Z</time>
      </trkpt>
      <trkpt lat="45.04206" lon="5.64359">
        <ele>831.6</ele>
        <time>2021-01-16T14:01:15Z</time>
      </trkpt>
      <trkpt lat="45.04203" lon="5.64361">
        <ele>831.6</ele>
        <time>2021-01-16T14:01:16Z</time>
      </trkpt>
      <trkpt lat="45.04201" lon="5.64363">
        <ele>831.8</ele>
        <time>2021-01-16T14:01:17Z</time>
      </trkpt>
      <trkpt lat="45.04198" lon="5.64365">
        <ele>831.8</ele>
        <time>2021-01-16T14:01:18Z</time>
      </trkpt>
      <trkpt lat="45.04197" lon="5.64365">
        <ele>832.2</ele>
        <time>2021-01-16T14:01:19Z</time>
      </trkpt>
      <trkpt lat="45.04195" lon="5.64366">
        <ele>832.2</ele>
        <time>2021-01-16T14:01:20Z</time>
      </trkpt>
      <trkpt lat="45.04194" lon="5.64367">
        <ele>832.4</ele>
        <time>2021-01-16T14:01:21Z</time>
      </trkpt>
      <trkpt lat="45.04189" lon="5.64366">
        <ele>832.2</ele>
        <time>2021-01-16T14:01:22Z</time>
      </trkpt>
      <trkpt lat="45.04182" lon="5.64366">
        <ele>832.4</ele>
        <time>2021-01-16T14:01:23Z</time>
      </trkpt>
      <trkpt lat="45.04181" lon="5.64366">
        <ele>831.4</ele>
        <time>2021-01-16T14:01:24Z</time>
      </trkpt>
      <trkpt lat="45.04181" lon="5.64366">
        <ele>831.2</ele>
        <time>2021-01-16T14:01:25Z</time>
      </trkpt>
      <trkpt lat="45.04178" lon="5.64366">
        <ele>831.2</ele>
        <time>2021-01-16T14:01:26Z</time>
      </trkpt>
      <trkpt lat="45.04176" lon="5.64366">
        <ele>831.2</ele>
        <time>2021-01-16T14:01:27Z</time>
      </trkpt>
      <trkpt lat="45.04173" lon="5.64366">
        <ele>831.4</ele>
        <time>2021-01-16T14:01:28Z</time>
      </trkpt>
      <trkpt lat="45.04169" lon="5.64366">
        <ele>831.2</ele>
        <time>2021-01-16T14:01:29Z</time>
      </trkpt>
      <trkpt lat="45.04164" lon="5.64366">
        <ele>831.6</ele>
        <time>2021-01-16T14:01:30Z</time>
      </trkpt>
      <trkpt lat="45.04161" lon="5.64366">
        <ele>831.6</ele>
        <time>2021-01-16T14:01:31Z</time>
      </trkpt>
      <trkpt lat="45.04159" lon="5.64366">
        <ele>831.8</ele>
        <time>2021-01-16T14:01:32Z</time>
      </trkpt>
      <trkpt lat="45.04158" lon="5.64366">
        <ele>831.8</ele>
        <time>2021-01-16T14:01:33Z</time>
      </trkpt>
      <trkpt lat="45.04156" lon="5.64366">
        <ele>832</ele>
        <time>2021-01-16T14:01:34Z</time>
      </trkpt>
      <trkpt lat="45.04154" lon="5.64366">
        <ele>831.4</ele>
        <time>2021-01-16T14:01:35Z</time>
      </trkpt>
      <trkpt lat="45.04147" lon="5.64366">
        <ele>831.4</ele>
        <time>2021-01-16T14:01:36Z</time>
      </trkpt>
      <trkpt lat="45.04145" lon="5.64366">
        <ele>831</ele>
        <time>2021-01-16T14:01:37Z</time>
      </trkpt>
      <trkpt lat="45.04143" lon="5.64366">
        <ele>830.8</ele>
        <time>2021-01-16T14:01:38Z</time>
      </trkpt>
      <trkpt lat="45.04142" lon="5.64366">
        <ele>831</ele>
        <time>2021-01-16T14:01:39Z</time>
      </trkpt>
      <trkpt lat="45.0414" lon="5.64366">
        <ele>831</ele>
        <time>2021-01-16T14:01:40Z</time>
      </trkpt>
      <trkpt lat="45.04135" lon="5.64365">
        <ele>831.4</ele>
        <time>2021-01-16T14:01:41Z</time>
      </trkpt>
      <trkpt lat="45.04134" lon="5.64365">
        <ele>831.4</ele>
        <time>2021-01-16T14:01:42Z</time>
      </trkpt>
      <trkpt lat="45.04132" lon="5.64365">
        <ele>831.2</ele>
        <time>2021-01-16T14:01:43Z</time>
      </trkpt>
      <trkpt lat="45.04131" lon="5.64365">
        <ele>831</ele>
        <time>2021-01-16T14:01:44Z</time>
      </trkpt>
      <trkpt lat="45.04127" lon="5.64365">
        <ele>831.2</ele>
        <time>2021-01-16T14:01:45Z</time>
      </trkpt>
      <trkpt lat="45.04125" lon="5.64365">
        <ele>831.8</ele>
        <time>2021-01-16T14:01:46Z</time>
      </trkpt>
      <trkpt lat="45.04125" lon="5.64365">
        <ele>832</ele>
        <time>2021-01-16T14:01:47Z</time>
      </trkpt>
      <trkpt lat="45.04123" lon="5.64365">
        <ele>832.8</ele>
        <time>2021-01-16T14:01:48Z</time>
      </trkpt>
      <trkpt lat="45.04121" lon="5.64365">
        <ele>832.8</ele>
        <time>2021-01-16T14:01:49Z</time>
      </trkpt>
      <trkpt lat="45.04119" lon="5.64364">
        <ele>833</ele>
        <time>2021-01-16T14:01:50Z</time>
      </trkpt>
      <trkpt lat="45.04118" lon="5.64363">
        <ele>833</ele>
        <time>2021-01-16T14:01:51Z</time>
      </trkpt>
      <trkpt lat="45.04116" lon="5.64363">
        <ele>833</ele>
        <time>2021-01-16T14:01:52Z</time>
      </trkpt>
      <trkpt lat="45.04114" lon="5.64362">
        <ele>833.6</ele>
        <time>2021-01-16T14:01:53Z</time>
      </trkpt>
      <trkpt lat="45.04113" lon="5.64361">
        <ele>833.8</ele>
        <time>2021-01-16T14:01:54Z</time>
      </trkpt>
      <trkpt lat="45.04113" lon="5.6436">
        <ele>834.4</ele>
        <time>2021-01-16T14:01:55Z</time>
      </trkpt>
      <trkpt lat="45.04111" lon="5.64359">
        <ele>834.6</ele>
        <time>2021-01-16T14:01:56Z</time>
      </trkpt>
      <trkpt lat="45.04111" lon="5.64359">
        <ele>835.2</ele>
        <time>2021-01-16T14:01:57Z</time>
      </trkpt>
      <trkpt lat="45.04111" lon="5.64359">
        <ele>835.4</ele>
        <time>2021-01-16T14:01:58Z</time>
      </trkpt>
      <trkpt lat="45.0411" lon="5.64357">
        <ele>835.8</ele>
        <time>2021-01-16T14:01:59Z</time>
      </trkpt>
      <trkpt lat="45.0411" lon="5.64357">
        <ele>836</ele>
        <time>2021-01-16T14:02:00Z</time>
      </trkpt>
      <trkpt lat="45.0411" lon="5.64357">
        <ele>836.2</ele>
        <time>2021-01-16T14:02:01Z</time>
      </trkpt>
      <trkpt lat="45.0411" lon="5.64357">
        <ele>836.4</ele>
        <time>2021-01-16T14:02:02Z</time>
      </trkpt>
      <trkpt lat="45.04108" lon="5.64355">
        <ele>836.6</ele>
        <time>2021-01-16T14:02:03Z</time>
      </trkpt>
      <trkpt lat="45.04108" lon="5.64355">
        <ele>836.8</ele>
        <time>2021-01-16T14:02:04Z</time>
      </trkpt>
      <trkpt lat="45.04108" lon="5.64355">
        <ele>837.2</ele>
        <time>2021-01-16T14:02:05Z</time>
      </trkpt>
      <trkpt lat="45.04106" lon="5.64353">
        <ele>837.4</ele>
        <time>2021-01-16T14:02:06Z</time>
      </trkpt>
      <trkpt lat="45.04106" lon="5.64353">
        <ele>837.6</ele>
        <time>2021-01-16T14:02:07Z</time>
      </trkpt>
      <trkpt lat="45.04106" lon="5.64353">
        <ele>837.8</ele>
        <time>2021-01-16T14:02:08Z</time>
      </trkpt>
      <trkpt lat="45.04104" lon="5.64352">
        <ele>838</ele>
        <time>2021-01-16T14:02:09Z</time>
      </trkpt>
      <trkpt lat="45.04104" lon="5.64352">
        <ele>838.4</ele>
        <time>2021-01-16T14:02:10Z</time>
      </trkpt>
      <trkpt lat="45.04104" lon="5.64352">
        <ele>838.8</ele>
        <time>2021-01-16T14:02:11Z</time>
      </trkpt>
      <trkpt lat="45.04102" lon="5.6435">
        <ele>839.2</ele>
        <time>2021-01-16T14:02:12Z</time>
      </trkpt>
      <trkpt lat="45.04102" lon="5.6435">
        <ele>839.6</ele>
        <time>2021-01-16T14:02:13Z</time>
      </trkpt>
      <trkpt lat="45.04102" lon="5.6435">
        <ele>840</ele>
        <time>2021-01-16T14:02:14Z</time>
      </trkpt>
      <trkpt lat="45.04102" lon="5.6435">
        <ele>840.2</ele>
        <time>2021-01-16T14:02:15Z</time>
      </trkpt>
      <trkpt lat="45.041" lon="5.64347">
        <ele>840.2</ele>
        <time>2021-01-16T14:02:16Z</time>
      </trkpt>
      <trkpt lat="45.04098" lon="5.64345">
        <ele>840.4</ele>
        <time>2021-01-16T14:02:17Z</time>
      </trkpt>
      <trkpt lat="45.04097" lon="5.64342">
        <ele>840.4</ele>
        <time>2021-01-16T14:02:18Z</time>
      </trkpt>
      <trkpt lat="45.04095" lon="5.64339">
        <ele>840.6</ele>
        <time>2021-01-16T14:02:19Z</time>
      </trkpt>
      <trkpt lat="45.04093" lon="5.64337">
        <ele>840.6</ele>
        <time>2021-01-16T14:02:20Z</time>
      </trkpt>
      <trkpt lat="45.04092" lon="5.64335">
        <ele>840.8</ele>
        <time>2021-01-16T14:02:21Z</time>
      </trkpt>
      <trkpt lat="45.0409" lon="5.64332">
        <ele>841.2</ele>
        <time>2021-01-16T14:02:22Z</time>
      </trkpt>
      <trkpt lat="45.04089" lon="5.64331">
        <ele>841.4</ele>
        <time>2021-01-16T14:02:23Z</time>
      </trkpt>
      <trkpt lat="45.04087" lon="5.64329">
        <ele>841.4</ele>
        <time>2021-01-16T14:02:24Z</time>
      </trkpt>
      <trkpt lat="45.04086" lon="5.64327">
        <ele>841.6</ele>
        <time>2021-01-16T14:02:25Z</time>
      </trkpt>
      <trkpt lat="45.04084" lon="5.64324">
        <ele>842.2</ele>
        <time>2021-01-16T14:02:26Z</time>
      </trkpt>
      <trkpt lat="45.04083" lon="5.64322">
        <ele>842</ele>
        <time>2021-01-16T14:02:27Z</time>
      </trkpt>
      <trkpt lat="45.04081" lon="5.6432">
        <ele>842.2</ele>
        <time>2021-01-16T14:02:28Z</time>
      </trkpt>
      <trkpt lat="45.0408" lon="5.6432">
        <ele>842.6</ele>
        <time>2021-01-16T14:02:29Z</time>
      </trkpt>
      <trkpt lat="45.0408" lon="5.64319">
        <ele>843</ele>
        <time>2021-01-16T14:02:30Z</time>
      </trkpt>
      <trkpt lat="45.04076" lon="5.64316">
        <ele>843.4</ele>
        <time>2021-01-16T14:02:31Z</time>
      </trkpt>
      <trkpt lat="45.04074" lon="5.64314">
        <ele>843.6</ele>
        <time>2021-01-16T14:02:32Z</time>
      </trkpt>
      <trkpt lat="45.04072" lon="5.64313">
        <ele>844.2</ele>
        <time>2021-01-16T14:02:33Z</time>
      </trkpt>
      <trkpt lat="45.0407" lon="5.64312">
        <ele>844.6</ele>
        <time>2021-01-16T14:02:34Z</time>
      </trkpt>
      <trkpt lat="45.04068" lon="5.64311">
        <ele>845</ele>
        <time>2021-01-16T14:02:35Z</time>
      </trkpt>
      <trkpt lat="45.04066" lon="5.64309">
        <ele>845.4</ele>
        <time>2021-01-16T14:02:36Z</time>
      </trkpt>
      <trkpt lat="45.04063" lon="5.64308">
        <ele>845.8</ele>
        <time>2021-01-16T14:02:37Z</time>
      </trkpt>
      <trkpt lat="45.04061" lon="5.64307">
        <ele>846</ele>
        <time>2021-01-16T14:02:38Z</time>
      </trkpt>
      <trkpt lat="45.04059" lon="5.64304">
        <ele>846.4</ele>
        <time>2021-01-16T14:02:39Z</time>
      </trkpt>
      <trkpt lat="45.04059" lon="5.64304">
        <ele>846.4</ele>
        <time>2021-01-16T14:02:40Z</time>
      </trkpt>
      <trkpt lat="45.04058" lon="5.64302">
        <ele>847</ele>
        <time>2021-01-16T14:02:41Z</time>
      </trkpt>
      <trkpt lat="45.04054" lon="5.64298">
        <ele>847</ele>
        <time>2021-01-16T14:02:42Z</time>
      </trkpt>
      <trkpt lat="45.04053" lon="5.64295">
        <ele>847.4</ele>
        <time>2021-01-16T14:02:43Z</time>
      </trkpt>
      <trkpt lat="45.04051" lon="5.64293">
        <ele>847.2</ele>
        <time>2021-01-16T14:02:44Z</time>
      </trkpt>
      <trkpt lat="45.04051" lon="5.6429">
        <ele>847</ele>
        <time>2021-01-16T14:02:45Z</time>
      </trkpt>
      <trkpt lat="45.0405" lon="5.64287">
        <ele>847</ele>
        <time>2021-01-16T14:02:46Z</time>
      </trkpt>
      <trkpt lat="45.04049" lon="5.64284">
        <ele>847</ele>
        <time>2021-01-16T14:02:47Z</time>
      </trkpt>
      <trkpt lat="45.04049" lon="5.64284">
        <ele>847.2</ele>
        <time>2021-01-16T14:02:48Z</time>
      </trkpt>
      <trkpt lat="45.04047" lon="5.64282">
        <ele>847.4</ele>
        <time>2021-01-16T14:02:49Z</time>
      </trkpt>
      <trkpt lat="45.04046" lon="5.64279">
        <ele>847.8</ele>
        <time>2021-01-16T14:02:50Z</time>
      </trkpt>
      <trkpt lat="45.04045" lon="5.64277">
        <ele>848</ele>
        <time>2021-01-16T14:02:51Z</time>
      </trkpt>
      <trkpt lat="45.04045" lon="5.64277">
        <ele>848.6</ele>
        <time>2021-01-16T14:02:52Z</time>
      </trkpt>
      <trkpt lat="45.04044" lon="5.64273">
        <ele>849</ele>
        <time>2021-01-16T14:02:53Z</time>
      </trkpt>
      <trkpt lat="45.04044" lon="5.64273">
        <ele>849.4</ele>
        <time>2021-01-16T14:02:54Z</time>
      </trkpt>
      <trkpt lat="45.04042" lon="5.64268">
        <ele>849.4</ele>
        <time>2021-01-16T14:02:55Z</time>
      </trkpt>
      <trkpt lat="45.04042" lon="5.64268">
        <ele>849.8</ele>
        <time>2021-01-16T14:02:56Z</time>
      </trkpt>
      <trkpt lat="45.04042" lon="5.64268">
        <ele>849.6</ele>
        <time>2021-01-16T14:02:57Z</time>
      </trkpt>
      <trkpt lat="45.04041" lon="5.64265">
        <ele>849.8</ele>
        <time>2021-01-16T14:02:58Z</time>
      </trkpt>
      <trkpt lat="45.04039" lon="5.64261">
        <ele>849.8</ele>
        <time>2021-01-16T14:02:59Z</time>
      </trkpt>
      <trkpt lat="45.04038" lon="5.64257">
        <ele>850</ele>
        <time>2021-01-16T14:03:00Z</time>
      </trkpt>
      <trkpt lat="45.04036" lon="5.64253">
        <ele>850.6</ele>
        <time>2021-01-16T14:03:01Z</time>
      </trkpt>
      <trkpt lat="45.04036" lon="5.64253">
        <ele>850.6</ele>
        <time>2021-01-16T14:03:02Z</time>
      </trkpt>
      <trkpt lat="45.04035" lon="5.64249">
        <ele>851.2</ele>
        <time>2021-01-16T14:03:03Z</time>
      </trkpt>
      <trkpt lat="45.04034" lon="5.64247">
        <ele>851.4</ele>
        <time>2021-01-16T14:03:04Z</time>
      </trkpt>
      <trkpt lat="45.04034" lon="5.64246">
        <ele>852.2</ele>
        <time>2021-01-16T14:03:05Z</time>
      </trkpt>
      <trkpt lat="45.04033" lon="5.64244">
        <ele>852.6</ele>
        <time>2021-01-16T14:03:06Z</time>
      </trkpt>
      <trkpt lat="45.04033" lon="5.64244">
        <ele>853.4</ele>
        <time>2021-01-16T14:03:07Z</time>
      </trkpt>
      <trkpt lat="45.04033" lon="5.64244">
        <ele>853.2</ele>
        <time>2021-01-16T14:03:08Z</time>
      </trkpt>
      <trkpt lat="45.04032" lon="5.6424">
        <ele>853.4</ele>
        <time>2021-01-16T14:03:09Z</time>
      </trkpt>
      <trkpt lat="45.04032" lon="5.6424">
        <ele>853.6</ele>
        <time>2021-01-16T14:03:10Z</time>
      </trkpt>
      <trkpt lat="45.0403" lon="5.64237">
        <ele>854</ele>
        <time>2021-01-16T14:03:11Z</time>
      </trkpt>
      <trkpt lat="45.0403" lon="5.64237">
        <ele>854.2</ele>
        <time>2021-01-16T14:03:12Z</time>
      </trkpt>
      <trkpt lat="45.04027" lon="5.64235">
        <ele>854.2</ele>
        <time>2021-01-16T14:03:13Z</time>
      </trkpt>
      <trkpt lat="45.04026" lon="5.64233">
        <ele>854.4</ele>
        <time>2021-01-16T14:03:14Z</time>
      </trkpt>
      <trkpt lat="45.04024" lon="5.64232">
        <ele>854.8</ele>
        <time>2021-01-16T14:03:15Z</time>
      </trkpt>
      <trkpt lat="45.04022" lon="5.6423">
        <ele>854.8</ele>
        <time>2021-01-16T14:03:16Z</time>
      </trkpt>
      <trkpt lat="45.04022" lon="5.6423">
        <ele>855</ele>
        <time>2021-01-16T14:03:17Z</time>
      </trkpt>
      <trkpt lat="45.04022" lon="5.6423">
        <ele>854.8</ele>
        <time>2021-01-16T14:03:18Z</time>
      </trkpt>
      <trkpt lat="45.0402" lon="5.64227">
        <ele>855</ele>
        <time>2021-01-16T14:03:19Z</time>
      </trkpt>
      <trkpt lat="45.0402" lon="5.64227">
        <ele>855</ele>
        <time>2021-01-16T14:03:20Z</time>
      </trkpt>
      <trkpt lat="45.04018" lon="5.64224">
        <ele>855</ele>
        <time>2021-01-16T14:03:21Z</time>
      </trkpt>
      <trkpt lat="45.04018" lon="5.64224">
        <ele>855.6</ele>
        <time>2021-01-16T14:03:22Z</time>
      </trkpt>
      <trkpt lat="45.04015" lon="5.64221">
        <ele>855.8</ele>
        <time>2021-01-16T14:03:23Z</time>
      </trkpt>
      <trkpt lat="45.04014" lon="5.64219">
        <ele>856.2</ele>
        <time>2021-01-16T14:03:24Z</time>
      </trkpt>
      <trkpt lat="45.04012" lon="5.64215">
        <ele>856.4</ele>
        <time>2021-01-16T14:03:25Z</time>
      </trkpt>
      <trkpt lat="45.04011" lon="5.64211">
        <ele>856.8</ele>
        <time>2021-01-16T14:03:26Z</time>
      </trkpt>
      <trkpt lat="45.04009" lon="5.64207">
        <ele>857</ele>
        <time>2021-01-16T14:03:27Z</time>
      </trkpt>
      <trkpt lat="45.04004" lon="5.64195">
        <ele>857.2</ele>
        <time>2021-01-16T14:03:28Z</time>
      </trkpt>
      <trkpt lat="45.04003" lon="5.64192">
        <ele>857.2</ele>
        <time>2021-01-16T14:03:29Z</time>
      </trkpt>
      <trkpt lat="45.03997" lon="5.64181">
        <ele>857.2</ele>
        <time>2021-01-16T14:03:30Z</time>
      </trkpt>
      <trkpt lat="45.03995" lon="5.64178">
        <ele>857.4</ele>
        <time>2021-01-16T14:03:31Z</time>
      </trkpt>
      <trkpt lat="45.03992" lon="5.64173">
        <ele>857.4</ele>
        <time>2021-01-16T14:03:32Z</time>
      </trkpt>
      <trkpt lat="45.03992" lon="5.64173">
        <ele>857.6</ele>
        <time>2021-01-16T14:03:33Z</time>
      </trkpt>
      <trkpt lat="45.03991" lon="5.64172">
        <ele>857.8</ele>
        <time>2021-01-16T14:03:34Z</time>
      </trkpt>
      <trkpt lat="45.03989" lon="5.6417">
        <ele>857.8</ele>
        <time>2021-01-16T14:03:35Z</time>
      </trkpt>
      <trkpt lat="45.03988" lon="5.64169">
        <ele>858.2</ele>
        <time>2021-01-16T14:03:36Z</time>
      </trkpt>
      <trkpt lat="45.03986" lon="5.64167">
        <ele>858.4</ele>
        <time>2021-01-16T14:03:37Z</time>
      </trkpt>
      <trkpt lat="45.03984" lon="5.64166">
        <ele>858.6</ele>
        <time>2021-01-16T14:03:38Z</time>
      </trkpt>
      <trkpt lat="45.03983" lon="5.64164">
        <ele>859</ele>
        <time>2021-01-16T14:03:39Z</time>
      </trkpt>
      <trkpt lat="45.0398" lon="5.64166">
        <ele>859.2</ele>
        <time>2021-01-16T14:03:40Z</time>
      </trkpt>
      <trkpt lat="45.03978" lon="5.64166">
        <ele>859.4</ele>
        <time>2021-01-16T14:03:41Z</time>
      </trkpt>
      <trkpt lat="45.03976" lon="5.64166">
        <ele>859.8</ele>
        <time>2021-01-16T14:03:42Z</time>
      </trkpt>
      <trkpt lat="45.03975" lon="5.64167">
        <ele>860</ele>
        <time>2021-01-16T14:03:43Z</time>
      </trkpt>
      <trkpt lat="45.03975" lon="5.64167">
        <ele>860.2</ele>
        <time>2021-01-16T14:03:44Z</time>
      </trkpt>
      <trkpt lat="45.03973" lon="5.64166">
        <ele>860.2</ele>
        <time>2021-01-16T14:03:45Z</time>
      </trkpt>
      <trkpt lat="45.03973" lon="5.64166">
        <ele>860.4</ele>
        <time>2021-01-16T14:03:46Z</time>
      </trkpt>
      <trkpt lat="45.0397" lon="5.64164">
        <ele>860.6</ele>
        <time>2021-01-16T14:03:47Z</time>
      </trkpt>
      <trkpt lat="45.03967" lon="5.64161">
        <ele>860.8</ele>
        <time>2021-01-16T14:03:48Z</time>
      </trkpt>
      <trkpt lat="45.03967" lon="5.64161">
        <ele>861.2</ele>
        <time>2021-01-16T14:03:49Z</time>
      </trkpt>
      <trkpt lat="45.03966" lon="5.64159">
        <ele>861.4</ele>
        <time>2021-01-16T14:03:50Z</time>
      </trkpt>
      <trkpt lat="45.03966" lon="5.64159">
        <ele>861.8</ele>
        <time>2021-01-16T14:03:51Z</time>
      </trkpt>
      <trkpt lat="45.03966" lon="5.64159">
        <ele>862</ele>
        <time>2021-01-16T14:03:52Z</time>
      </trkpt>
      <trkpt lat="45.03964" lon="5.64157">
        <ele>862</ele>
        <time>2021-01-16T14:03:53Z</time>
      </trkpt>
      <trkpt lat="45.03964" lon="5.64157">
        <ele>862.2</ele>
        <time>2021-01-16T14:03:54Z</time>
      </trkpt>
      <trkpt lat="45.03964" lon="5.64157">
        <ele>862.4</ele>
        <time>2021-01-16T14:03:55Z</time>
      </trkpt>
      <trkpt lat="45.03964" lon="5.64157">
        <ele>862.6</ele>
        <time>2021-01-16T14:03:56Z</time>
      </trkpt>
      <trkpt lat="45.03963" lon="5.64155">
        <ele>862.8</ele>
        <time>2021-01-16T14:03:57Z</time>
      </trkpt>
      <trkpt lat="45.03963" lon="5.64155">
        <ele>863</ele>
        <time>2021-01-16T14:03:58Z</time>
      </trkpt>
      <trkpt lat="45.03963" lon="5.64155">
        <ele>863.2</ele>
        <time>2021-01-16T14:03:59Z</time>
      </trkpt>
      <trkpt lat="45.03963" lon="5.64155">
        <ele>863.4</ele>
        <time>2021-01-16T14:04:00Z</time>
      </trkpt>
      <trkpt lat="45.03962" lon="5.64152">
        <ele>863.8</ele>
        <time>2021-01-16T14:04:01Z</time>
      </trkpt>
      <trkpt lat="45.03962" lon="5.64152">
        <ele>864</ele>
        <time>2021-01-16T14:04:02Z</time>
      </trkpt>
      <trkpt lat="45.03962" lon="5.64152">
        <ele>864.2</ele>
        <time>2021-01-16T14:04:03Z</time>
      </trkpt>
      <trkpt lat="45.03962" lon="5.64152">
        <ele>864.6</ele>
        <time>2021-01-16T14:04:04Z</time>
      </trkpt>
      <trkpt lat="45.03961" lon="5.6415">
        <ele>865</ele>
        <time>2021-01-16T14:04:05Z</time>
      </trkpt>
      <trkpt lat="45.0396" lon="5.64147">
        <ele>865.2</ele>
        <time>2021-01-16T14:04:06Z</time>
      </trkpt>
      <trkpt lat="45.0396" lon="5.64147">
        <ele>865.2</ele>
        <time>2021-01-16T14:04:07Z</time>
      </trkpt>
      <trkpt lat="45.0396" lon="5.64147">
        <ele>865.8</ele>
        <time>2021-01-16T14:04:08Z</time>
      </trkpt>
      <trkpt lat="45.0396" lon="5.64147">
        <ele>866.2</ele>
        <time>2021-01-16T14:04:09Z</time>
      </trkpt>
      <trkpt lat="45.0396" lon="5.64146">
        <ele>866.6</ele>
        <time>2021-01-16T14:04:10Z</time>
      </trkpt>
      <trkpt lat="45.03959" lon="5.64145">
        <ele>867</ele>
        <time>2021-01-16T14:04:11Z</time>
      </trkpt>
      <trkpt lat="45.03959" lon="5.64143">
        <ele>867.6</ele>
        <time>2021-01-16T14:04:12Z</time>
      </trkpt>
      <trkpt lat="45.03958" lon="5.64142">
        <ele>867.8</ele>
        <time>2021-01-16T14:04:13Z</time>
      </trkpt>
      <trkpt lat="45.03957" lon="5.64139">
        <ele>868.2</ele>
        <time>2021-01-16T14:04:14Z</time>
      </trkpt>
      <trkpt lat="45.03956" lon="5.64136">
        <ele>868.2</ele>
        <time>2021-01-16T14:04:15Z</time>
      </trkpt>
      <trkpt lat="45.03956" lon="5.64136">
        <ele>868.4</ele>
        <time>2021-01-16T14:04:16Z</time>
      </trkpt>
      <trkpt lat="45.03956" lon="5.64136">
        <ele>868.6</ele>
        <time>2021-01-16T14:04:17Z</time>
      </trkpt>
      <trkpt lat="45.03955" lon="5.64134">
        <ele>868.6</ele>
        <time>2021-01-16T14:04:18Z</time>
      </trkpt>
      <trkpt lat="45.03955" lon="5.64134">
        <ele>868.8</ele>
        <time>2021-01-16T14:04:19Z</time>
      </trkpt>
      <trkpt lat="45.03955" lon="5.64134">
        <ele>868.8</ele>
        <time>2021-01-16T14:04:20Z</time>
      </trkpt>
      <trkpt lat="45.03955" lon="5.64134">
        <ele>869</ele>
        <time>2021-01-16T14:04:21Z</time>
      </trkpt>
      <trkpt lat="45.03953" lon="5.64131">
        <ele>869.2</ele>
        <time>2021-01-16T14:04:22Z</time>
      </trkpt>
      <trkpt lat="45.03953" lon="5.64131">
        <ele>869.2</ele>
        <time>2021-01-16T14:04:23Z</time>
      </trkpt>
      <trkpt lat="45.03952" lon="5.6413">
        <ele>869</ele>
        <time>2021-01-16T14:04:24Z</time>
      </trkpt>
      <trkpt lat="45.03951" lon="5.64129">
        <ele>869.2</ele>
        <time>2021-01-16T14:04:25Z</time>
      </trkpt>
      <trkpt lat="45.0395" lon="5.64128">
        <ele>869.2</ele>
        <time>2021-01-16T14:04:26Z</time>
      </trkpt>
      <trkpt lat="45.03949" lon="5.64125">
        <ele>869.2</ele>
        <time>2021-01-16T14:04:27Z</time>
      </trkpt>
      <trkpt lat="45.03949" lon="5.64125">
        <ele>869.4</ele>
        <time>2021-01-16T14:04:28Z</time>
      </trkpt>
      <trkpt lat="45.03948" lon="5.64121">
        <ele>869.6</ele>
        <time>2021-01-16T14:04:29Z</time>
      </trkpt>
      <trkpt lat="45.03948" lon="5.64121">
        <ele>869.6</ele>
        <time>2021-01-16T14:04:30Z</time>
      </trkpt>
      <trkpt lat="45.03948" lon="5.64121">
        <ele>869.8</ele>
        <time>2021-01-16T14:04:31Z</time>
      </trkpt>
      <trkpt lat="45.03947" lon="5.64118">
        <ele>870</ele>
        <time>2021-01-16T14:04:32Z</time>
      </trkpt>
      <trkpt lat="45.03947" lon="5.64118">
        <ele>870.4</ele>
        <time>2021-01-16T14:04:33Z</time>
      </trkpt>
      <trkpt lat="45.03946" lon="5.64115">
        <ele>870.8</ele>
        <time>2021-01-16T14:04:34Z</time>
      </trkpt>
      <trkpt lat="45.03946" lon="5.64115">
        <ele>871.2</ele>
        <time>2021-01-16T14:04:35Z</time>
      </trkpt>
      <trkpt lat="45.03945" lon="5.64111">
        <ele>871.4</ele>
        <time>2021-01-16T14:04:36Z</time>
      </trkpt>
      <trkpt lat="45.03945" lon="5.64111">
        <ele>871.6</ele>
        <time>2021-01-16T14:04:37Z</time>
      </trkpt>
      <trkpt lat="45.03943" lon="5.64107">
        <ele>871.8</ele>
        <time>2021-01-16T14:04:38Z</time>
      </trkpt>
      <trkpt lat="45.03942" lon="5.64105">
        <ele>872</ele>
        <time>2021-01-16T14:04:39Z</time>
      </trkpt>
      <trkpt lat="45.03942" lon="5.64105">
        <ele>872.2</ele>
        <time>2021-01-16T14:04:40Z</time>
      </trkpt>
      <trkpt lat="45.03942" lon="5.64105">
        <ele>872.4</ele>
        <time>2021-01-16T14:04:41Z</time>
      </trkpt>
      <trkpt lat="45.03941" lon="5.64101">
        <ele>872.6</ele>
        <time>2021-01-16T14:04:42Z</time>
      </trkpt>
      <trkpt lat="45.03941" lon="5.64099">
        <ele>872.8</ele>
        <time>2021-01-16T14:04:43Z</time>
      </trkpt>
      <trkpt lat="45.0394" lon="5.64098">
        <ele>873</ele>
        <time>2021-01-16T14:04:44Z</time>
      </trkpt>
      <trkpt lat="45.0394" lon="5.64097">
        <ele>873.4</ele>
        <time>2021-01-16T14:04:45Z</time>
      </trkpt>
      <trkpt lat="45.03939" lon="5.64096">
        <ele>873.6</ele>
        <time>2021-01-16T14:04:46Z</time>
      </trkpt>
      <trkpt lat="45.03939" lon="5.64096">
        <ele>873.8</ele>
        <time>2021-01-16T14:04:47Z</time>
      </trkpt>
      <trkpt lat="45.03939" lon="5.64093">
        <ele>874</ele>
        <time>2021-01-16T14:04:48Z</time>
      </trkpt>
      <trkpt lat="45.03938" lon="5.64092">
        <ele>874.6</ele>
        <time>2021-01-16T14:04:49Z</time>
      </trkpt>
      <trkpt lat="45.03937" lon="5.6409">
        <ele>874.8</ele>
        <time>2021-01-16T14:04:50Z</time>
      </trkpt>
      <trkpt lat="45.03936" lon="5.64089">
        <ele>874.8</ele>
        <time>2021-01-16T14:04:51Z</time>
      </trkpt>
      <trkpt lat="45.03935" lon="5.64087">
        <ele>874.8</ele>
        <time>2021-01-16T14:04:52Z</time>
      </trkpt>
      <trkpt lat="45.03934" lon="5.64085">
        <ele>875</ele>
        <time>2021-01-16T14:04:53Z</time>
      </trkpt>
      <trkpt lat="45.03933" lon="5.64084">
        <ele>875.2</ele>
        <time>2021-01-16T14:04:54Z</time>
      </trkpt>
      <trkpt lat="45.03933" lon="5.64083">
        <ele>875.4</ele>
        <time>2021-01-16T14:04:55Z</time>
      </trkpt>
      <trkpt lat="45.03932" lon="5.64082">
        <ele>875.8</ele>
        <time>2021-01-16T14:04:56Z</time>
      </trkpt>
      <trkpt lat="45.03932" lon="5.64082">
        <ele>876</ele>
        <time>2021-01-16T14:04:57Z</time>
      </trkpt>
      <trkpt lat="45.03931" lon="5.64079">
        <ele>876</ele>
        <time>2021-01-16T14:04:58Z</time>
      </trkpt>
      <trkpt lat="45.03931" lon="5.64079">
        <ele>876.2</ele>
        <time>2021-01-16T14:04:59Z</time>
      </trkpt>
      <trkpt lat="45.03931" lon="5.64079">
        <ele>876.4</ele>
        <time>2021-01-16T14:05:00Z</time>
      </trkpt>
      <trkpt lat="45.03931" lon="5.64076">
        <ele>876.8</ele>
        <time>2021-01-16T14:05:01Z</time>
      </trkpt>
      <trkpt lat="45.03929" lon="5.64074">
        <ele>877</ele>
        <time>2021-01-16T14:05:02Z</time>
      </trkpt>
      <trkpt lat="45.03929" lon="5.64074">
        <ele>877.2</ele>
        <time>2021-01-16T14:05:03Z</time>
      </trkpt>
      <trkpt lat="45.03929" lon="5.64074">
        <ele>877.2</ele>
        <time>2021-01-16T14:05:04Z</time>
      </trkpt>
      <trkpt lat="45.03927" lon="5.64072">
        <ele>877.4</ele>
        <time>2021-01-16T14:05:05Z</time>
      </trkpt>
      <trkpt lat="45.03926" lon="5.6407">
        <ele>877.4</ele>
        <time>2021-01-16T14:05:06Z</time>
      </trkpt>
      <trkpt lat="45.03925" lon="5.64069">
        <ele>877.4</ele>
        <time>2021-01-16T14:05:07Z</time>
      </trkpt>
      <trkpt lat="45.03923" lon="5.64067">
        <ele>877.8</ele>
        <time>2021-01-16T14:05:08Z</time>
      </trkpt>
      <trkpt lat="45.03923" lon="5.64066">
        <ele>878</ele>
        <time>2021-01-16T14:05:09Z</time>
      </trkpt>
      <trkpt lat="45.03923" lon="5.64065">
        <ele>878.2</ele>
        <time>2021-01-16T14:05:10Z</time>
      </trkpt>
      <trkpt lat="45.03923" lon="5.64065">
        <ele>878.4</ele>
        <time>2021-01-16T14:05:11Z</time>
      </trkpt>
      <trkpt lat="45.03923" lon="5.64065">
        <ele>878.6</ele>
        <time>2021-01-16T14:05:12Z</time>
      </trkpt>
      <trkpt lat="45.03922" lon="5.64062">
        <ele>878.8</ele>
        <time>2021-01-16T14:05:13Z</time>
      </trkpt>
      <trkpt lat="45.03922" lon="5.64062">
        <ele>879</ele>
        <time>2021-01-16T14:05:14Z</time>
      </trkpt>
      <trkpt lat="45.03922" lon="5.64062">
        <ele>879.2</ele>
        <time>2021-01-16T14:05:15Z</time>
      </trkpt>
      <trkpt lat="45.0392" lon="5.6406">
        <ele>879.4</ele>
        <time>2021-01-16T14:05:16Z</time>
      </trkpt>
      <trkpt lat="45.0392" lon="5.6406">
        <ele>879.6</ele>
        <time>2021-01-16T14:05:17Z</time>
      </trkpt>
      <trkpt lat="45.0392" lon="5.6406">
        <ele>880</ele>
        <time>2021-01-16T14:05:18Z</time>
      </trkpt>
      <trkpt lat="45.0392" lon="5.6406">
        <ele>880.2</ele>
        <time>2021-01-16T14:05:19Z</time>
      </trkpt>
      <trkpt lat="45.0392" lon="5.6406">
        <ele>880.4</ele>
        <time>2021-01-16T14:05:20Z</time>
      </trkpt>
      <trkpt lat="45.03918" lon="5.6406">
        <ele>880.8</ele>
        <time>2021-01-16T14:05:21Z</time>
      </trkpt>
      <trkpt lat="45.03917" lon="5.6406">
        <ele>881.2</ele>
        <time>2021-01-16T14:05:22Z</time>
      </trkpt>
      <trkpt lat="45.03917" lon="5.6406">
        <ele>881.8</ele>
        <time>2021-01-16T14:05:23Z</time>
      </trkpt>
      <trkpt lat="45.03916" lon="5.6406">
        <ele>881.8</ele>
        <time>2021-01-16T14:05:24Z</time>
      </trkpt>
      <trkpt lat="45.03915" lon="5.6406">
        <ele>882</ele>
        <time>2021-01-16T14:05:25Z</time>
      </trkpt>
      <trkpt lat="45.03915" lon="5.6406">
        <ele>882.2</ele>
        <time>2021-01-16T14:05:26Z</time>
      </trkpt>
      <trkpt lat="45.03914" lon="5.6406">
        <ele>882.4</ele>
        <time>2021-01-16T14:05:27Z</time>
      </trkpt>
      <trkpt lat="45.03914" lon="5.6406">
        <ele>882.6</ele>
        <time>2021-01-16T14:05:28Z</time>
      </trkpt>
      <trkpt lat="45.03914" lon="5.6406">
        <ele>882.6</ele>
        <time>2021-01-16T14:05:29Z</time>
      </trkpt>
      <trkpt lat="45.03914" lon="5.6406">
        <ele>883</ele>
        <time>2021-01-16T14:05:30Z</time>
      </trkpt>
      <trkpt lat="45.03913" lon="5.6406">
        <ele>883.2</ele>
        <time>2021-01-16T14:05:31Z</time>
      </trkpt>
      <trkpt lat="45.03912" lon="5.64059">
        <ele>883.4</ele>
        <time>2021-01-16T14:05:32Z</time>
      </trkpt>
      <trkpt lat="45.03911" lon="5.64059">
        <ele>883.6</ele>
        <time>2021-01-16T14:05:33Z</time>
      </trkpt>
      <trkpt lat="45.0391" lon="5.64059">
        <ele>883.8</ele>
        <time>2021-01-16T14:05:34Z</time>
      </trkpt>
      <trkpt lat="45.03908" lon="5.64058">
        <ele>884.2</ele>
        <time>2021-01-16T14:05:35Z</time>
      </trkpt>
      <trkpt lat="45.03907" lon="5.64058">
        <ele>884.4</ele>
        <time>2021-01-16T14:05:36Z</time>
      </trkpt>
      <trkpt lat="45.03906" lon="5.64056">
        <ele>884.6</ele>
        <time>2021-01-16T14:05:37Z</time>
      </trkpt>
      <trkpt lat="45.03904" lon="5.64055">
        <ele>885</ele>
        <time>2021-01-16T14:05:38Z</time>
      </trkpt>
      <trkpt lat="45.03903" lon="5.64053">
        <ele>885.2</ele>
        <time>2021-01-16T14:05:39Z</time>
      </trkpt>
      <trkpt lat="45.03901" lon="5.64052">
        <ele>885.2</ele>
        <time>2021-01-16T14:05:40Z</time>
      </trkpt>
      <trkpt lat="45.039" lon="5.64051">
        <ele>885.6</ele>
        <time>2021-01-16T14:05:41Z</time>
      </trkpt>
      <trkpt lat="45.03898" lon="5.64049">
        <ele>886</ele>
        <time>2021-01-16T14:05:42Z</time>
      </trkpt>
      <trkpt lat="45.03898" lon="5.64049">
        <ele>886.2</ele>
        <time>2021-01-16T14:05:43Z</time>
      </trkpt>
      <trkpt lat="45.03898" lon="5.64049">
        <ele>886.6</ele>
        <time>2021-01-16T14:05:44Z</time>
      </trkpt>
      <trkpt lat="45.03897" lon="5.64048">
        <ele>887</ele>
        <time>2021-01-16T14:05:45Z</time>
      </trkpt>
      <trkpt lat="45.03896" lon="5.64047">
        <ele>887.4</ele>
        <time>2021-01-16T14:05:46Z</time>
      </trkpt>
      <trkpt lat="45.03894" lon="5.64045">
        <ele>887.4</ele>
        <time>2021-01-16T14:05:47Z</time>
      </trkpt>
      <trkpt lat="45.03893" lon="5.64044">
        <ele>887.6</ele>
        <time>2021-01-16T14:05:48Z</time>
      </trkpt>
      <trkpt lat="45.03893" lon="5.64044">
        <ele>887.8</ele>
        <time>2021-01-16T14:05:49Z</time>
      </trkpt>
      <trkpt lat="45.03893" lon="5.64044">
        <ele>888</ele>
        <time>2021-01-16T14:05:50Z</time>
      </trkpt>
      <trkpt lat="45.03891" lon="5.64043">
        <ele>888.2</ele>
        <time>2021-01-16T14:05:51Z</time>
      </trkpt>
      <trkpt lat="45.03891" lon="5.64043">
        <ele>888.4</ele>
        <time>2021-01-16T14:05:52Z</time>
      </trkpt>
      <trkpt lat="45.03891" lon="5.64043">
        <ele>888.6</ele>
        <time>2021-01-16T14:05:53Z</time>
      </trkpt>
      <trkpt lat="45.0389" lon="5.64042">
        <ele>889</ele>
        <time>2021-01-16T14:05:54Z</time>
      </trkpt>
      <trkpt lat="45.03889" lon="5.64041">
        <ele>889.2</ele>
        <time>2021-01-16T14:05:55Z</time>
      </trkpt>
      <trkpt lat="45.03888" lon="5.64041">
        <ele>889.6</ele>
        <time>2021-01-16T14:05:56Z</time>
      </trkpt>
      <trkpt lat="45.03887" lon="5.6404">
        <ele>890</ele>
        <time>2021-01-16T14:05:57Z</time>
      </trkpt>
      <trkpt lat="45.03885" lon="5.6404">
        <ele>890.2</ele>
        <time>2021-01-16T14:05:58Z</time>
      </trkpt>
      <trkpt lat="45.03884" lon="5.64039">
        <ele>890.4</ele>
        <time>2021-01-16T14:05:59Z</time>
      </trkpt>
      <trkpt lat="45.03883" lon="5.64039">
        <ele>890.6</ele>
        <time>2021-01-16T14:06:00Z</time>
      </trkpt>
      <trkpt lat="45.03882" lon="5.64038">
        <ele>890.8</ele>
        <time>2021-01-16T14:06:01Z</time>
      </trkpt>
      <trkpt lat="45.0388" lon="5.64037">
        <ele>891</ele>
        <time>2021-01-16T14:06:02Z</time>
      </trkpt>
      <trkpt lat="45.0388" lon="5.64037">
        <ele>891.2</ele>
        <time>2021-01-16T14:06:03Z</time>
      </trkpt>
      <trkpt lat="45.03878" lon="5.64036">
        <ele>891.2</ele>
        <time>2021-01-16T14:06:04Z</time>
      </trkpt>
      <trkpt lat="45.03878" lon="5.64036">
        <ele>891.6</ele>
        <time>2021-01-16T14:06:05Z</time>
      </trkpt>
      <trkpt lat="45.03878" lon="5.64036">
        <ele>891.8</ele>
        <time>2021-01-16T14:06:06Z</time>
      </trkpt>
      <trkpt lat="45.03877" lon="5.64036">
        <ele>892</ele>
        <time>2021-01-16T14:06:07Z</time>
      </trkpt>
      <trkpt lat="45.03876" lon="5.64035">
        <ele>892.2</ele>
        <time>2021-01-16T14:06:08Z</time>
      </trkpt>
      <trkpt lat="45.03875" lon="5.64034">
        <ele>892.2</ele>
        <time>2021-01-16T14:06:09Z</time>
      </trkpt>
      <trkpt lat="45.03874" lon="5.64033">
        <ele>892.4</ele>
        <time>2021-01-16T14:06:10Z</time>
      </trkpt>
      <trkpt lat="45.03873" lon="5.64033">
        <ele>893</ele>
        <time>2021-01-16T14:06:11Z</time>
      </trkpt>
      <trkpt lat="45.0387" lon="5.64032">
        <ele>893.2</ele>
        <time>2021-01-16T14:06:12Z</time>
      </trkpt>
      <trkpt lat="45.03868" lon="5.64031">
        <ele>893.6</ele>
        <time>2021-01-16T14:06:13Z</time>
      </trkpt>
      <trkpt lat="45.03866" lon="5.6403">
        <ele>893.6</ele>
        <time>2021-01-16T14:06:14Z</time>
      </trkpt>
      <trkpt lat="45.03863" lon="5.64028">
        <ele>893.6</ele>
        <time>2021-01-16T14:06:15Z</time>
      </trkpt>
      <trkpt lat="45.03861" lon="5.64028">
        <ele>893.6</ele>
        <time>2021-01-16T14:06:16Z</time>
      </trkpt>
      <trkpt lat="45.03859" lon="5.64027">
        <ele>893.8</ele>
        <time>2021-01-16T14:06:17Z</time>
      </trkpt>
      <trkpt lat="45.03857" lon="5.64027">
        <ele>893.8</ele>
        <time>2021-01-16T14:06:18Z</time>
      </trkpt>
      <trkpt lat="45.03856" lon="5.64027">
        <ele>893.8</ele>
        <time>2021-01-16T14:06:19Z</time>
      </trkpt>
      <trkpt lat="45.03855" lon="5.64027">
        <ele>894.2</ele>
        <time>2021-01-16T14:06:20Z</time>
      </trkpt>
      <trkpt lat="45.03855" lon="5.64027">
        <ele>894.2</ele>
        <time>2021-01-16T14:06:21Z</time>
      </trkpt>
      <trkpt lat="45.03851" lon="5.64028">
        <ele>894.4</ele>
        <time>2021-01-16T14:06:22Z</time>
      </trkpt>
      <trkpt lat="45.0385" lon="5.64028">
        <ele>894.6</ele>
        <time>2021-01-16T14:06:23Z</time>
      </trkpt>
      <trkpt lat="45.03848" lon="5.64029">
        <ele>895.2</ele>
        <time>2021-01-16T14:06:24Z</time>
      </trkpt>
      <trkpt lat="45.03845" lon="5.64029">
        <ele>895.2</ele>
        <time>2021-01-16T14:06:25Z</time>
      </trkpt>
      <trkpt lat="45.03842" lon="5.6403">
        <ele>896</ele>
        <time>2021-01-16T14:06:26Z</time>
      </trkpt>
      <trkpt lat="45.03839" lon="5.64031">
        <ele>896</ele>
        <time>2021-01-16T14:06:27Z</time>
      </trkpt>
      <trkpt lat="45.03838" lon="5.64031">
        <ele>896.4</ele>
        <time>2021-01-16T14:06:28Z</time>
      </trkpt>
      <trkpt lat="45.03836" lon="5.64031">
        <ele>896.6</ele>
        <time>2021-01-16T14:06:29Z</time>
      </trkpt>
      <trkpt lat="45.03832" lon="5.64031">
        <ele>896.8</ele>
        <time>2021-01-16T14:06:30Z</time>
      </trkpt>
      <trkpt lat="45.03829" lon="5.6403">
        <ele>896.4</ele>
        <time>2021-01-16T14:06:31Z</time>
      </trkpt>
      <trkpt lat="45.03827" lon="5.6403">
        <ele>896.8</ele>
        <time>2021-01-16T14:06:32Z</time>
      </trkpt>
      <trkpt lat="45.03827" lon="5.6403">
        <ele>896.6</ele>
        <time>2021-01-16T14:06:33Z</time>
      </trkpt>
      <trkpt lat="45.03824" lon="5.64029">
        <ele>896.6</ele>
        <time>2021-01-16T14:06:34Z</time>
      </trkpt>
      <trkpt lat="45.03822" lon="5.64028">
        <ele>896.4</ele>
        <time>2021-01-16T14:06:35Z</time>
      </trkpt>
      <trkpt lat="45.03818" lon="5.64027">
        <ele>896.4</ele>
        <time>2021-01-16T14:06:36Z</time>
      </trkpt>
      <trkpt lat="45.03815" lon="5.64027">
        <ele>896.6</ele>
        <time>2021-01-16T14:06:37Z</time>
      </trkpt>
      <trkpt lat="45.03813" lon="5.64027">
        <ele>896.6</ele>
        <time>2021-01-16T14:06:38Z</time>
      </trkpt>
      <trkpt lat="45.03811" lon="5.64026">
        <ele>896.8</ele>
        <time>2021-01-16T14:06:39Z</time>
      </trkpt>
      <trkpt lat="45.03809" lon="5.64026">
        <ele>896.8</ele>
        <time>2021-01-16T14:06:40Z</time>
      </trkpt>
      <trkpt lat="45.03807" lon="5.64026">
        <ele>897.2</ele>
        <time>2021-01-16T14:06:41Z</time>
      </trkpt>
      <trkpt lat="45.03806" lon="5.64026">
        <ele>897.4</ele>
        <time>2021-01-16T14:06:42Z</time>
      </trkpt>
      <trkpt lat="45.03801" lon="5.64027">
        <ele>897.8</ele>
        <time>2021-01-16T14:06:43Z</time>
      </trkpt>
      <trkpt lat="45.03798" lon="5.64028">
        <ele>898</ele>
        <time>2021-01-16T14:06:44Z</time>
      </trkpt>
      <trkpt lat="45.03795" lon="5.64028">
        <ele>898.2</ele>
        <time>2021-01-16T14:06:45Z</time>
      </trkpt>
      <trkpt lat="45.03792" lon="5.64028">
        <ele>898.2</ele>
        <time>2021-01-16T14:06:46Z</time>
      </trkpt>
      <trkpt lat="45.03789" lon="5.64028">
        <ele>898.4</ele>
        <time>2021-01-16T14:06:47Z</time>
      </trkpt>
      <trkpt lat="45.03786" lon="5.64028">
        <ele>898</ele>
        <time>2021-01-16T14:06:48Z</time>
      </trkpt>
      <trkpt lat="45.03784" lon="5.64028">
        <ele>898</ele>
        <time>2021-01-16T14:06:49Z</time>
      </trkpt>
      <trkpt lat="45.03782" lon="5.64028">
        <ele>897.4</ele>
        <time>2021-01-16T14:06:50Z</time>
      </trkpt>
      <trkpt lat="45.03782" lon="5.64028">
        <ele>897.2</ele>
        <time>2021-01-16T14:06:51Z</time>
      </trkpt>
      <trkpt lat="45.0378" lon="5.64028">
        <ele>897.4</ele>
        <time>2021-01-16T14:06:52Z</time>
      </trkpt>
      <trkpt lat="45.03776" lon="5.64028">
        <ele>897.8</ele>
        <time>2021-01-16T14:06:53Z</time>
      </trkpt>
      <trkpt lat="45.03774" lon="5.64028">
        <ele>898.2</ele>
        <time>2021-01-16T14:06:54Z</time>
      </trkpt>
      <trkpt lat="45.03773" lon="5.64028">
        <ele>898.4</ele>
        <time>2021-01-16T14:06:55Z</time>
      </trkpt>
      <trkpt lat="45.03772" lon="5.64028">
        <ele>898.6</ele>
        <time>2021-01-16T14:06:56Z</time>
      </trkpt>
      <trkpt lat="45.03768" lon="5.64028">
        <ele>898.6</ele>
        <time>2021-01-16T14:06:57Z</time>
      </trkpt>
      <trkpt lat="45.03765" lon="5.64027">
        <ele>899</ele>
        <time>2021-01-16T14:06:58Z</time>
      </trkpt>
      <trkpt lat="45.03762" lon="5.64027">
        <ele>899.6</ele>
        <time>2021-01-16T14:06:59Z</time>
      </trkpt>
      <trkpt lat="45.0376" lon="5.64027">
        <ele>899.6</ele>
        <time>2021-01-16T14:07:00Z</time>
      </trkpt>
      <trkpt lat="45.03757" lon="5.64026">
        <ele>900.2</ele>
        <time>2021-01-16T14:07:01Z</time>
      </trkpt>
      <trkpt lat="45.03757" lon="5.64026">
        <ele>900.4</ele>
        <time>2021-01-16T14:07:02Z</time>
      </trkpt>
      <trkpt lat="45.03754" lon="5.64025">
        <ele>900.8</ele>
        <time>2021-01-16T14:07:03Z</time>
      </trkpt>
      <trkpt lat="45.0375" lon="5.64025">
        <ele>900.6</ele>
        <time>2021-01-16T14:07:04Z</time>
      </trkpt>
      <trkpt lat="45.03749" lon="5.64024">
        <ele>900.8</ele>
        <time>2021-01-16T14:07:05Z</time>
      </trkpt>
      <trkpt lat="45.03747" lon="5.64024">
        <ele>900.6</ele>
        <time>2021-01-16T14:07:06Z</time>
      </trkpt>
      <trkpt lat="45.03743" lon="5.64023">
        <ele>900.6</ele>
        <time>2021-01-16T14:07:07Z</time>
      </trkpt>
      <trkpt lat="45.03741" lon="5.64022">
        <ele>900.4</ele>
        <time>2021-01-16T14:07:08Z</time>
      </trkpt>
      <trkpt lat="45.03739" lon="5.64021">
        <ele>900.6</ele>
        <time>2021-01-16T14:07:09Z</time>
      </trkpt>
      <trkpt lat="45.03739" lon="5.64021">
        <ele>899.8</ele>
        <time>2021-01-16T14:07:10Z</time>
      </trkpt>
      <trkpt lat="45.03736" lon="5.6402">
        <ele>899.6</ele>
        <time>2021-01-16T14:07:11Z</time>
      </trkpt>
      <trkpt lat="45.03734" lon="5.64018">
        <ele>899</ele>
        <time>2021-01-16T14:07:12Z</time>
      </trkpt>
      <trkpt lat="45.03731" lon="5.64017">
        <ele>898.6</ele>
        <time>2021-01-16T14:07:13Z</time>
      </trkpt>
      <trkpt lat="45.03728" lon="5.64015">
        <ele>898.2</ele>
        <time>2021-01-16T14:07:14Z</time>
      </trkpt>
      <trkpt lat="45.03725" lon="5.64012">
        <ele>898</ele>
        <time>2021-01-16T14:07:15Z</time>
      </trkpt>
      <trkpt lat="45.03721" lon="5.6401">
        <ele>897.6</ele>
        <time>2021-01-16T14:07:16Z</time>
      </trkpt>
      <trkpt lat="45.03717" lon="5.64008">
        <ele>897.4</ele>
        <time>2021-01-16T14:07:17Z</time>
      </trkpt>
      <trkpt lat="45.03714" lon="5.64006">
        <ele>897</ele>
        <time>2021-01-16T14:07:18Z</time>
      </trkpt>
      <trkpt lat="45.03711" lon="5.64004">
        <ele>897.2</ele>
        <time>2021-01-16T14:07:19Z</time>
      </trkpt>
      <trkpt lat="45.03709" lon="5.64001">
        <ele>896.6</ele>
        <time>2021-01-16T14:07:20Z</time>
      </trkpt>
      <trkpt lat="45.03706" lon="5.63999">
        <ele>896.8</ele>
        <time>2021-01-16T14:07:21Z</time>
      </trkpt>
      <trkpt lat="45.03704" lon="5.63996">
        <ele>896.4</ele>
        <time>2021-01-16T14:07:22Z</time>
      </trkpt>
      <trkpt lat="45.03704" lon="5.63996">
        <ele>896.6</ele>
        <time>2021-01-16T14:07:23Z</time>
      </trkpt>
      <trkpt lat="45.03702" lon="5.63994">
        <ele>896.6</ele>
        <time>2021-01-16T14:07:24Z</time>
      </trkpt>
      <trkpt lat="45.037" lon="5.63992">
        <ele>896.6</ele>
        <time>2021-01-16T14:07:25Z</time>
      </trkpt>
      <trkpt lat="45.03696" lon="5.63988">
        <ele>896.6</ele>
        <time>2021-01-16T14:07:26Z</time>
      </trkpt>
      <trkpt lat="45.03694" lon="5.63986">
        <ele>896.4</ele>
        <time>2021-01-16T14:07:27Z</time>
      </trkpt>
      <trkpt lat="45.03694" lon="5.63986">
        <ele>896.6</ele>
        <time>2021-01-16T14:07:28Z</time>
      </trkpt>
      <trkpt lat="45.03692" lon="5.63984">
        <ele>896.4</ele>
        <time>2021-01-16T14:07:29Z</time>
      </trkpt>
      <trkpt lat="45.03687" lon="5.63981">
        <ele>896.6</ele>
        <time>2021-01-16T14:07:30Z</time>
      </trkpt>
      <trkpt lat="45.03685" lon="5.63979">
        <ele>896.4</ele>
        <time>2021-01-16T14:07:31Z</time>
      </trkpt>
      <trkpt lat="45.03682" lon="5.63977">
        <ele>896.2</ele>
        <time>2021-01-16T14:07:32Z</time>
      </trkpt>
      <trkpt lat="45.0368" lon="5.63976">
        <ele>895.8</ele>
        <time>2021-01-16T14:07:33Z</time>
      </trkpt>
      <trkpt lat="45.03678" lon="5.63975">
        <ele>895.8</ele>
        <time>2021-01-16T14:07:34Z</time>
      </trkpt>
      <trkpt lat="45.03675" lon="5.63974">
        <ele>895.4</ele>
        <time>2021-01-16T14:07:35Z</time>
      </trkpt>
      <trkpt lat="45.03675" lon="5.63974">
        <ele>895.6</ele>
        <time>2021-01-16T14:07:36Z</time>
      </trkpt>
      <trkpt lat="45.03673" lon="5.63973">
        <ele>895.4</ele>
        <time>2021-01-16T14:07:37Z</time>
      </trkpt>
      <trkpt lat="45.03668" lon="5.63971">
        <ele>895.2</ele>
        <time>2021-01-16T14:07:38Z</time>
      </trkpt>
      <trkpt lat="45.03666" lon="5.63968">
        <ele>894.8</ele>
        <time>2021-01-16T14:07:39Z</time>
      </trkpt>
      <trkpt lat="45.03666" lon="5.63968">
        <ele>894.8</ele>
        <time>2021-01-16T14:07:40Z</time>
      </trkpt>
      <trkpt lat="45.03664" lon="5.63966">
        <ele>894.2</ele>
        <time>2021-01-16T14:07:41Z</time>
      </trkpt>
      <trkpt lat="45.03662" lon="5.63964">
        <ele>893.6</ele>
        <time>2021-01-16T14:07:42Z</time>
      </trkpt>
      <trkpt lat="45.0366" lon="5.63962">
        <ele>893.2</ele>
        <time>2021-01-16T14:07:43Z</time>
      </trkpt>
      <trkpt lat="45.03658" lon="5.63959">
        <ele>893.2</ele>
        <time>2021-01-16T14:07:44Z</time>
      </trkpt>
      <trkpt lat="45.03653" lon="5.63956">
        <ele>892.8</ele>
        <time>2021-01-16T14:07:45Z</time>
      </trkpt>
      <trkpt lat="45.03651" lon="5.63953">
        <ele>892.8</ele>
        <time>2021-01-16T14:07:46Z</time>
      </trkpt>
      <trkpt lat="45.03649" lon="5.63951">
        <ele>892.8</ele>
        <time>2021-01-16T14:07:47Z</time>
      </trkpt>
      <trkpt lat="45.03647" lon="5.63948">
        <ele>892.2</ele>
        <time>2021-01-16T14:07:48Z</time>
      </trkpt>
      <trkpt lat="45.03647" lon="5.63948">
        <ele>892</ele>
        <time>2021-01-16T14:07:49Z</time>
      </trkpt>
      <trkpt lat="45.03645" lon="5.63945">
        <ele>891.8</ele>
        <time>2021-01-16T14:07:50Z</time>
      </trkpt>
      <trkpt lat="45.0364" lon="5.6394">
        <ele>891.6</ele>
        <time>2021-01-16T14:07:51Z</time>
      </trkpt>
      <trkpt lat="45.0364" lon="5.6394">
        <ele>891.4</ele>
        <time>2021-01-16T14:07:52Z</time>
      </trkpt>
      <trkpt lat="45.03638" lon="5.63937">
        <ele>891.4</ele>
        <time>2021-01-16T14:07:53Z</time>
      </trkpt>
      <trkpt lat="45.03634" lon="5.63933">
        <ele>891.2</ele>
        <time>2021-01-16T14:07:54Z</time>
      </trkpt>
      <trkpt lat="45.03632" lon="5.6393">
        <ele>891.4</ele>
        <time>2021-01-16T14:07:55Z</time>
      </trkpt>
      <trkpt lat="45.03629" lon="5.63928">
        <ele>891</ele>
        <time>2021-01-16T14:07:56Z</time>
      </trkpt>
      <trkpt lat="45.03627" lon="5.63926">
        <ele>891.2</ele>
        <time>2021-01-16T14:07:57Z</time>
      </trkpt>
      <trkpt lat="45.03624" lon="5.63925">
        <ele>891.2</ele>
        <time>2021-01-16T14:07:58Z</time>
      </trkpt>
      <trkpt lat="45.03622" lon="5.63923">
        <ele>891.4</ele>
        <time>2021-01-16T14:07:59Z</time>
      </trkpt>
      <trkpt lat="45.03619" lon="5.63922">
        <ele>891.2</ele>
        <time>2021-01-16T14:08:00Z</time>
      </trkpt>
      <trkpt lat="45.03616" lon="5.6392">
        <ele>891.4</ele>
        <time>2021-01-16T14:08:01Z</time>
      </trkpt>
      <trkpt lat="45.03616" lon="5.6392">
        <ele>891.2</ele>
        <time>2021-01-16T14:08:02Z</time>
      </trkpt>
      <trkpt lat="45.03614" lon="5.63918">
        <ele>891.4</ele>
        <time>2021-01-16T14:08:03Z</time>
      </trkpt>
      <trkpt lat="45.03608" lon="5.63915">
        <ele>891.2</ele>
        <time>2021-01-16T14:08:04Z</time>
      </trkpt>
      <trkpt lat="45.03606" lon="5.63914">
        <ele>891</ele>
        <time>2021-01-16T14:08:05Z</time>
      </trkpt>
      <trkpt lat="45.03604" lon="5.63912">
        <ele>890.8</ele>
        <time>2021-01-16T14:08:06Z</time>
      </trkpt>
      <trkpt lat="45.03604" lon="5.63912">
        <ele>890.8</ele>
        <time>2021-01-16T14:08:07Z</time>
      </trkpt>
      <trkpt lat="45.03602" lon="5.63911">
        <ele>891</ele>
        <time>2021-01-16T14:08:08Z</time>
      </trkpt>
      <trkpt lat="45.03597" lon="5.63908">
        <ele>890.8</ele>
        <time>2021-01-16T14:08:09Z</time>
      </trkpt>
      <trkpt lat="45.03597" lon="5.63908">
        <ele>891</ele>
        <time>2021-01-16T14:08:10Z</time>
      </trkpt>
      <trkpt lat="45.03594" lon="5.63907">
        <ele>891</ele>
        <time>2021-01-16T14:08:11Z</time>
      </trkpt>
      <trkpt lat="45.03592" lon="5.63905">
        <ele>891</ele>
        <time>2021-01-16T14:08:12Z</time>
      </trkpt>
      <trkpt lat="45.0359" lon="5.63904">
        <ele>891</ele>
        <time>2021-01-16T14:08:13Z</time>
      </trkpt>
      <trkpt lat="45.03588" lon="5.63902">
        <ele>891.4</ele>
        <time>2021-01-16T14:08:14Z</time>
      </trkpt>
      <trkpt lat="45.03583" lon="5.639">
        <ele>891.2</ele>
        <time>2021-01-16T14:08:15Z</time>
      </trkpt>
      <trkpt lat="45.03583" lon="5.639">
        <ele>891.6</ele>
        <time>2021-01-16T14:08:16Z</time>
      </trkpt>
      <trkpt lat="45.03581" lon="5.63898">
        <ele>891.8</ele>
        <time>2021-01-16T14:08:17Z</time>
      </trkpt>
      <trkpt lat="45.03579" lon="5.63897">
        <ele>892</ele>
        <time>2021-01-16T14:08:18Z</time>
      </trkpt>
      <trkpt lat="45.03577" lon="5.63896">
        <ele>891.8</ele>
        <time>2021-01-16T14:08:19Z</time>
      </trkpt>
      <trkpt lat="45.03577" lon="5.63896">
        <ele>892</ele>
        <time>2021-01-16T14:08:20Z</time>
      </trkpt>
      <trkpt lat="45.03574" lon="5.63894">
        <ele>891.8</ele>
        <time>2021-01-16T14:08:21Z</time>
      </trkpt>
      <trkpt lat="45.03568" lon="5.63891">
        <ele>891.8</ele>
        <time>2021-01-16T14:08:22Z</time>
      </trkpt>
      <trkpt lat="45.03563" lon="5.63888">
        <ele>891.8</ele>
        <time>2021-01-16T14:08:23Z</time>
      </trkpt>
      <trkpt lat="45.03551" lon="5.63883">
        <ele>891.6</ele>
        <time>2021-01-16T14:08:24Z</time>
      </trkpt>
      <trkpt lat="45.03551" lon="5.63883">
        <ele>891.6</ele>
        <time>2021-01-16T14:08:25Z</time>
      </trkpt>
      <trkpt lat="45.0355" lon="5.63882">
        <ele>891.8</ele>
        <time>2021-01-16T14:08:26Z</time>
      </trkpt>
      <trkpt lat="45.03548" lon="5.63881">
        <ele>891.8</ele>
        <time>2021-01-16T14:08:27Z</time>
      </trkpt>
      <trkpt lat="45.03546" lon="5.63879">
        <ele>891.8</ele>
        <time>2021-01-16T14:08:28Z</time>
      </trkpt>
      <trkpt lat="45.03544" lon="5.63878">
        <ele>891.8</ele>
        <time>2021-01-16T14:08:29Z</time>
      </trkpt>
      <trkpt lat="45.03542" lon="5.63877">
        <ele>891.6</ele>
        <time>2021-01-16T14:08:30Z</time>
      </trkpt>
      <trkpt lat="45.0354" lon="5.63875">
        <ele>891.4</ele>
        <time>2021-01-16T14:08:31Z</time>
      </trkpt>
      <trkpt lat="45.03539" lon="5.63872">
        <ele>891</ele>
        <time>2021-01-16T14:08:32Z</time>
      </trkpt>
      <trkpt lat="45.03534" lon="5.63868">
        <ele>891</ele>
        <time>2021-01-16T14:08:33Z</time>
      </trkpt>
      <trkpt lat="45.03532" lon="5.63868">
        <ele>890.6</ele>
        <time>2021-01-16T14:08:34Z</time>
      </trkpt>
      <trkpt lat="45.03529" lon="5.63867">
        <ele>890.6</ele>
        <time>2021-01-16T14:08:35Z</time>
      </trkpt>
      <trkpt lat="45.03526" lon="5.63867">
        <ele>890</ele>
        <time>2021-01-16T14:08:36Z</time>
      </trkpt>
      <trkpt lat="45.03526" lon="5.63867">
        <ele>889.8</ele>
        <time>2021-01-16T14:08:37Z</time>
      </trkpt>
      <trkpt lat="45.03523" lon="5.63866">
        <ele>889.4</ele>
        <time>2021-01-16T14:08:38Z</time>
      </trkpt>
      <trkpt lat="45.0352" lon="5.63863">
        <ele>889.6</ele>
        <time>2021-01-16T14:08:39Z</time>
      </trkpt>
      <trkpt lat="45.03516" lon="5.63861">
        <ele>889</ele>
        <time>2021-01-16T14:08:40Z</time>
      </trkpt>
      <trkpt lat="45.03515" lon="5.6386">
        <ele>889.2</ele>
        <time>2021-01-16T14:08:41Z</time>
      </trkpt>
      <trkpt lat="45.03514" lon="5.63859">
        <ele>888.6</ele>
        <time>2021-01-16T14:08:42Z</time>
      </trkpt>
      <trkpt lat="45.03512" lon="5.63857">
        <ele>888.6</ele>
        <time>2021-01-16T14:08:43Z</time>
      </trkpt>
      <trkpt lat="45.03507" lon="5.63853">
        <ele>888</ele>
        <time>2021-01-16T14:08:44Z</time>
      </trkpt>
      <trkpt lat="45.03506" lon="5.63852">
        <ele>888</ele>
        <time>2021-01-16T14:08:45Z</time>
      </trkpt>
      <trkpt lat="45.03506" lon="5.63852">
        <ele>887.6</ele>
        <time>2021-01-16T14:08:46Z</time>
      </trkpt>
      <trkpt lat="45.03503" lon="5.6385">
        <ele>887.2</ele>
        <time>2021-01-16T14:08:47Z</time>
      </trkpt>
      <trkpt lat="45.03503" lon="5.6385">
        <ele>887.2</ele>
        <time>2021-01-16T14:08:48Z</time>
      </trkpt>
      <trkpt lat="45.03501" lon="5.63848">
        <ele>887.2</ele>
        <time>2021-01-16T14:08:49Z</time>
      </trkpt>
      <trkpt lat="45.03497" lon="5.63846">
        <ele>887.6</ele>
        <time>2021-01-16T14:08:50Z</time>
      </trkpt>
      <trkpt lat="45.03495" lon="5.63845">
        <ele>887.6</ele>
        <time>2021-01-16T14:08:51Z</time>
      </trkpt>
      <trkpt lat="45.03494" lon="5.63844">
        <ele>888</ele>
        <time>2021-01-16T14:08:52Z</time>
      </trkpt>
      <trkpt lat="45.03493" lon="5.63844">
        <ele>888.2</ele>
        <time>2021-01-16T14:08:53Z</time>
      </trkpt>
      <trkpt lat="45.03493" lon="5.6384">
        <ele>888.6</ele>
        <time>2021-01-16T14:08:54Z</time>
      </trkpt>
      <trkpt lat="45.03493" lon="5.6384">
        <ele>888.4</ele>
        <time>2021-01-16T14:08:55Z</time>
      </trkpt>
      <trkpt lat="45.03493" lon="5.63836">
        <ele>888.6</ele>
        <time>2021-01-16T14:08:56Z</time>
      </trkpt>
      <trkpt lat="45.03493" lon="5.63836">
        <ele>888.6</ele>
        <time>2021-01-16T14:08:57Z</time>
      </trkpt>
      <trkpt lat="45.03493" lon="5.63836">
        <ele>888.8</ele>
        <time>2021-01-16T14:08:58Z</time>
      </trkpt>
      <trkpt lat="45.03494" lon="5.63832">
        <ele>888.4</ele>
        <time>2021-01-16T14:08:59Z</time>
      </trkpt>
      <trkpt lat="45.03496" lon="5.63829">
        <ele>888.6</ele>
        <time>2021-01-16T14:09:00Z</time>
      </trkpt>
      <trkpt lat="45.03496" lon="5.63829">
        <ele>888.6</ele>
        <time>2021-01-16T14:09:01Z</time>
      </trkpt>
      <trkpt lat="45.03496" lon="5.63829">
        <ele>888.4</ele>
        <time>2021-01-16T14:09:02Z</time>
      </trkpt>
      <trkpt lat="45.03498" lon="5.63826">
        <ele>889</ele>
        <time>2021-01-16T14:09:03Z</time>
      </trkpt>
      <trkpt lat="45.03499" lon="5.63822">
        <ele>889</ele>
        <time>2021-01-16T14:09:04Z</time>
      </trkpt>
      <trkpt lat="45.03499" lon="5.63822">
        <ele>889.4</ele>
        <time>2021-01-16T14:09:05Z</time>
      </trkpt>
      <trkpt lat="45.035" lon="5.63819">
        <ele>889.4</ele>
        <time>2021-01-16T14:09:06Z</time>
      </trkpt>
      <trkpt lat="45.035" lon="5.63819">
        <ele>889.8</ele>
        <time>2021-01-16T14:09:07Z</time>
      </trkpt>
      <trkpt lat="45.035" lon="5.63819">
        <ele>889.4</ele>
        <time>2021-01-16T14:09:08Z</time>
      </trkpt>
      <trkpt lat="45.035" lon="5.63816">
        <ele>889.6</ele>
        <time>2021-01-16T14:09:09Z</time>
      </trkpt>
      <trkpt lat="45.03501" lon="5.63813">
        <ele>889.8</ele>
        <time>2021-01-16T14:09:10Z</time>
      </trkpt>
      <trkpt lat="45.03501" lon="5.63813">
        <ele>890</ele>
        <time>2021-01-16T14:09:11Z</time>
      </trkpt>
      <trkpt lat="45.03501" lon="5.63813">
        <ele>890.2</ele>
        <time>2021-01-16T14:09:12Z</time>
      </trkpt>
      <trkpt lat="45.03501" lon="5.63813">
        <ele>890.4</ele>
        <time>2021-01-16T14:09:13Z</time>
      </trkpt>
      <trkpt lat="45.03501" lon="5.63813">
        <ele>890.6</ele>
        <time>2021-01-16T14:09:14Z</time>
      </trkpt>
      <trkpt lat="45.03501" lon="5.63813">
        <ele>890.6</ele>
        <time>2021-01-16T14:09:15Z</time>
      </trkpt>
      <trkpt lat="45.03501" lon="5.6381">
        <ele>890.6</ele>
        <time>2021-01-16T14:09:16Z</time>
      </trkpt>
      <trkpt lat="45.03501" lon="5.6381">
        <ele>890.4</ele>
        <time>2021-01-16T14:09:17Z</time>
      </trkpt>
      <trkpt lat="45.03501" lon="5.6381">
        <ele>890.6</ele>
        <time>2021-01-16T14:09:18Z</time>
      </trkpt>
      <trkpt lat="45.03501" lon="5.6381">
        <ele>890.6</ele>
        <time>2021-01-16T14:09:19Z</time>
      </trkpt>
      <trkpt lat="45.03501" lon="5.6381">
        <ele>890.8</ele>
        <time>2021-01-16T14:09:20Z</time>
      </trkpt>
      <trkpt lat="45.035" lon="5.63808">
        <ele>890.8</ele>
        <time>2021-01-16T14:09:21Z</time>
      </trkpt>
      <trkpt lat="45.035" lon="5.63808">
        <ele>890.8</ele>
        <time>2021-01-16T14:09:22Z</time>
      </trkpt>
      <trkpt lat="45.035" lon="5.63808">
        <ele>890.6</ele>
        <time>2021-01-16T14:09:23Z</time>
      </trkpt>
      <trkpt lat="45.035" lon="5.63808">
        <ele>890.6</ele>
        <time>2021-01-16T14:09:24Z</time>
      </trkpt>
      <trkpt lat="45.03499" lon="5.63804">
        <ele>890.8</ele>
        <time>2021-01-16T14:09:25Z</time>
      </trkpt>
      <trkpt lat="45.03499" lon="5.63804">
        <ele>890.8</ele>
        <time>2021-01-16T14:09:26Z</time>
      </trkpt>
      <trkpt lat="45.03499" lon="5.63804">
        <ele>890.8</ele>
        <time>2021-01-16T14:09:27Z</time>
      </trkpt>
      <trkpt lat="45.03498" lon="5.63802">
        <ele>890.8</ele>
        <time>2021-01-16T14:09:28Z</time>
      </trkpt>
      <trkpt lat="45.03498" lon="5.63802">
        <ele>891.2</ele>
        <time>2021-01-16T14:09:29Z</time>
      </trkpt>
      <trkpt lat="45.03498" lon="5.63802">
        <ele>891.2</ele>
        <time>2021-01-16T14:09:30Z</time>
      </trkpt>
      <trkpt lat="45.03497" lon="5.63799">
        <ele>891.2</ele>
        <time>2021-01-16T14:09:31Z</time>
      </trkpt>
      <trkpt lat="45.03497" lon="5.63799">
        <ele>891.2</ele>
        <time>2021-01-16T14:09:32Z</time>
      </trkpt>
      <trkpt lat="45.03497" lon="5.63799">
        <ele>891.4</ele>
        <time>2021-01-16T14:09:33Z</time>
      </trkpt>
      <trkpt lat="45.03496" lon="5.63795">
        <ele>891.4</ele>
        <time>2021-01-16T14:09:34Z</time>
      </trkpt>
      <trkpt lat="45.03495" lon="5.63793">
        <ele>891.4</ele>
        <time>2021-01-16T14:09:35Z</time>
      </trkpt>
      <trkpt lat="45.03495" lon="5.63793">
        <ele>891.4</ele>
        <time>2021-01-16T14:09:36Z</time>
      </trkpt>
      <trkpt lat="45.03495" lon="5.63793">
        <ele>891.4</ele>
        <time>2021-01-16T14:09:37Z</time>
      </trkpt>
      <trkpt lat="45.03493" lon="5.63791">
        <ele>891.6</ele>
        <time>2021-01-16T14:09:38Z</time>
      </trkpt>
      <trkpt lat="45.0349" lon="5.63786">
        <ele>891.6</ele>
        <time>2021-01-16T14:09:39Z</time>
      </trkpt>
      <trkpt lat="45.03487" lon="5.63781">
        <ele>891.6</ele>
        <time>2021-01-16T14:09:40Z</time>
      </trkpt>
      <trkpt lat="45.03481" lon="5.63771">
        <ele>891.6</ele>
        <time>2021-01-16T14:09:41Z</time>
      </trkpt>
      <trkpt lat="45.03481" lon="5.63771">
        <ele>891.6</ele>
        <time>2021-01-16T14:09:42Z</time>
      </trkpt>
      <trkpt lat="45.03481" lon="5.63771">
        <ele>891.6</ele>
        <time>2021-01-16T14:09:43Z</time>
      </trkpt>
      <trkpt lat="45.03479" lon="5.63769">
        <ele>891.6</ele>
        <time>2021-01-16T14:09:44Z</time>
      </trkpt>
      <trkpt lat="45.03478" lon="5.63768">
        <ele>891.8</ele>
        <time>2021-01-16T14:09:45Z</time>
      </trkpt>
      <trkpt lat="45.03477" lon="5.63766">
        <ele>891.8</ele>
        <time>2021-01-16T14:09:46Z</time>
      </trkpt>
      <trkpt lat="45.03476" lon="5.63764">
        <ele>891.6</ele>
        <time>2021-01-16T14:09:47Z</time>
      </trkpt>
      <trkpt lat="45.03475" lon="5.63763">
        <ele>891.6</ele>
        <time>2021-01-16T14:09:48Z</time>
      </trkpt>
      <trkpt lat="45.03475" lon="5.63763">
        <ele>891.6</ele>
        <time>2021-01-16T14:09:49Z</time>
      </trkpt>
      <trkpt lat="45.03476" lon="5.63765">
        <ele>891.6</ele>
        <time>2021-01-16T14:09:50Z</time>
      </trkpt>
      <trkpt lat="45.03476" lon="5.63765">
        <ele>891.6</ele>
        <time>2021-01-16T14:09:51Z</time>
      </trkpt>
      <trkpt lat="45.03476" lon="5.63765">
        <ele>891.4</ele>
        <time>2021-01-16T14:09:52Z</time>
      </trkpt>
      <trkpt lat="45.03476" lon="5.63765">
        <ele>891.4</ele>
        <time>2021-01-16T14:09:53Z</time>
      </trkpt>
      <trkpt lat="45.03477" lon="5.63766">
        <ele>891.4</ele>
        <time>2021-01-16T14:09:54Z</time>
      </trkpt>
      <trkpt lat="45.03479" lon="5.63767">
        <ele>891.4</ele>
        <time>2021-01-16T14:09:55Z</time>
      </trkpt>
      <trkpt lat="45.0348" lon="5.63768">
        <ele>891.4</ele>
        <time>2021-01-16T14:09:56Z</time>
      </trkpt>
      <trkpt lat="45.03482" lon="5.63769">
        <ele>891.6</ele>
        <time>2021-01-16T14:09:57Z</time>
      </trkpt>
      <trkpt lat="45.03483" lon="5.6377">
        <ele>891.6</ele>
        <time>2021-01-16T14:09:58Z</time>
      </trkpt>
      <trkpt lat="45.03484" lon="5.63771">
        <ele>891.6</ele>
        <time>2021-01-16T14:09:59Z</time>
      </trkpt>
      <trkpt lat="45.03486" lon="5.63773">
        <ele>891.8</ele>
        <time>2021-01-16T14:10:01Z</time>
      </trkpt>
      <trkpt lat="45.03488" lon="5.63774">
        <ele>891.8</ele>
        <time>2021-01-16T14:10:02Z</time>
      </trkpt>
      <trkpt lat="45.0349" lon="5.63776">
        <ele>891.6</ele>
        <time>2021-01-16T14:10:03Z</time>
      </trkpt>
      <trkpt lat="45.03492" lon="5.63777">
        <ele>891.6</ele>
        <time>2021-01-16T14:10:04Z</time>
      </trkpt>
      <trkpt lat="45.03496" lon="5.63779">
        <ele>891.8</ele>
        <time>2021-01-16T14:10:05Z</time>
      </trkpt>
      <trkpt lat="45.03496" lon="5.63779">
        <ele>891.6</ele>
        <time>2021-01-16T14:10:06Z</time>
      </trkpt>
      <trkpt lat="45.03498" lon="5.63779">
        <ele>891.8</ele>
        <time>2021-01-16T14:10:07Z</time>
      </trkpt>
      <trkpt lat="45.03498" lon="5.63779">
        <ele>891.4</ele>
        <time>2021-01-16T14:10:08Z</time>
      </trkpt>
      <trkpt lat="45.03498" lon="5.63779">
        <ele>891.6</ele>
        <time>2021-01-16T14:10:09Z</time>
      </trkpt>
      <trkpt lat="45.03502" lon="5.6378">
        <ele>891</ele>
        <time>2021-01-16T14:10:10Z</time>
      </trkpt>
      <trkpt lat="45.03505" lon="5.6378">
        <ele>891.2</ele>
        <time>2021-01-16T14:10:11Z</time>
      </trkpt>
      <trkpt lat="45.03509" lon="5.63781">
        <ele>890.8</ele>
        <time>2021-01-16T14:10:12Z</time>
      </trkpt>
      <trkpt lat="45.03512" lon="5.63782">
        <ele>890.4</ele>
        <time>2021-01-16T14:10:13Z</time>
      </trkpt>
      <trkpt lat="45.03512" lon="5.63782">
        <ele>890.6</ele>
        <time>2021-01-16T14:10:14Z</time>
      </trkpt>
      <trkpt lat="45.03514" lon="5.63783">
        <ele>890.6</ele>
        <time>2021-01-16T14:10:15Z</time>
      </trkpt>
      <trkpt lat="45.03517" lon="5.63784">
        <ele>891</ele>
        <time>2021-01-16T14:10:16Z</time>
      </trkpt>
      <trkpt lat="45.0352" lon="5.63785">
        <ele>890.8</ele>
        <time>2021-01-16T14:10:17Z</time>
      </trkpt>
      <trkpt lat="45.03522" lon="5.63785">
        <ele>891</ele>
        <time>2021-01-16T14:10:18Z</time>
      </trkpt>
      <trkpt lat="45.03522" lon="5.63785">
        <ele>890.4</ele>
        <time>2021-01-16T14:10:19Z</time>
      </trkpt>
      <trkpt lat="45.03524" lon="5.63786">
        <ele>890.4</ele>
        <time>2021-01-16T14:10:20Z</time>
      </trkpt>
      <trkpt lat="45.03526" lon="5.63786">
        <ele>890.8</ele>
        <time>2021-01-16T14:10:21Z</time>
      </trkpt>
      <trkpt lat="45.03528" lon="5.63787">
        <ele>891</ele>
        <time>2021-01-16T14:10:22Z</time>
      </trkpt>
      <trkpt lat="45.03529" lon="5.63787">
        <ele>891.6</ele>
        <time>2021-01-16T14:10:23Z</time>
      </trkpt>
      <trkpt lat="45.0353" lon="5.63787">
        <ele>891.8</ele>
        <time>2021-01-16T14:10:24Z</time>
      </trkpt>
      <trkpt lat="45.03531" lon="5.63787">
        <ele>892.6</ele>
        <time>2021-01-16T14:10:25Z</time>
      </trkpt>
      <trkpt lat="45.03531" lon="5.63787">
        <ele>892.6</ele>
        <time>2021-01-16T14:10:26Z</time>
      </trkpt>
      <trkpt lat="45.03533" lon="5.63786">
        <ele>892.8</ele>
        <time>2021-01-16T14:10:27Z</time>
      </trkpt>
      <trkpt lat="45.03533" lon="5.63786">
        <ele>892.8</ele>
        <time>2021-01-16T14:10:28Z</time>
      </trkpt>
      <trkpt lat="45.03535" lon="5.63787">
        <ele>893.2</ele>
        <time>2021-01-16T14:10:29Z</time>
      </trkpt>
      <trkpt lat="45.03535" lon="5.63787">
        <ele>893.2</ele>
        <time>2021-01-16T14:10:30Z</time>
      </trkpt>
      <trkpt lat="45.03535" lon="5.63787">
        <ele>893.2</ele>
        <time>2021-01-16T14:10:31Z</time>
      </trkpt>
      <trkpt lat="45.03538" lon="5.63789">
        <ele>893.2</ele>
        <time>2021-01-16T14:10:32Z</time>
      </trkpt>
      <trkpt lat="45.03541" lon="5.63791">
        <ele>893.2</ele>
        <time>2021-01-16T14:10:33Z</time>
      </trkpt>
      <trkpt lat="45.03544" lon="5.63793">
        <ele>893.2</ele>
        <time>2021-01-16T14:10:34Z</time>
      </trkpt>
      <trkpt lat="45.03547" lon="5.63795">
        <ele>893.4</ele>
        <time>2021-01-16T14:10:35Z</time>
      </trkpt>
      <trkpt lat="45.0355" lon="5.63797">
        <ele>893.4</ele>
        <time>2021-01-16T14:10:36Z</time>
      </trkpt>
      <trkpt lat="45.03551" lon="5.63798">
        <ele>893.4</ele>
        <time>2021-01-16T14:10:37Z</time>
      </trkpt>
      <trkpt lat="45.03552" lon="5.63799">
        <ele>893.4</ele>
        <time>2021-01-16T14:10:38Z</time>
      </trkpt>
      <trkpt lat="45.03553" lon="5.63799">
        <ele>893.6</ele>
        <time>2021-01-16T14:10:39Z</time>
      </trkpt>
      <trkpt lat="45.03554" lon="5.638">
        <ele>893.8</ele>
        <time>2021-01-16T14:10:40Z</time>
      </trkpt>
      <trkpt lat="45.03554" lon="5.638">
        <ele>893.8</ele>
        <time>2021-01-16T14:10:41Z</time>
      </trkpt>
      <trkpt lat="45.03555" lon="5.638">
        <ele>893.6</ele>
        <time>2021-01-16T14:10:42Z</time>
      </trkpt>
      <trkpt lat="45.03556" lon="5.63801">
        <ele>893.6</ele>
        <time>2021-01-16T14:10:43Z</time>
      </trkpt>
      <trkpt lat="45.03557" lon="5.63801">
        <ele>893.4</ele>
        <time>2021-01-16T14:10:44Z</time>
      </trkpt>
      <trkpt lat="45.03558" lon="5.63802">
        <ele>893.2</ele>
        <time>2021-01-16T14:10:45Z</time>
      </trkpt>
      <trkpt lat="45.03558" lon="5.63802">
        <ele>893.2</ele>
        <time>2021-01-16T14:10:46Z</time>
      </trkpt>
      <trkpt lat="45.03559" lon="5.63802">
        <ele>893</ele>
        <time>2021-01-16T14:10:47Z</time>
      </trkpt>
      <trkpt lat="45.0356" lon="5.63803">
        <ele>892.8</ele>
        <time>2021-01-16T14:10:48Z</time>
      </trkpt>
      <trkpt lat="45.03561" lon="5.63803">
        <ele>892.6</ele>
        <time>2021-01-16T14:10:49Z</time>
      </trkpt>
      <trkpt lat="45.03562" lon="5.63804">
        <ele>892.4</ele>
        <time>2021-01-16T14:10:50Z</time>
      </trkpt>
      <trkpt lat="45.03562" lon="5.63804">
        <ele>892.4</ele>
        <time>2021-01-16T14:10:51Z</time>
      </trkpt>
      <trkpt lat="45.03563" lon="5.63804">
        <ele>892.2</ele>
        <time>2021-01-16T14:10:52Z</time>
      </trkpt>
      <trkpt lat="45.03564" lon="5.63805">
        <ele>892.2</ele>
        <time>2021-01-16T14:10:53Z</time>
      </trkpt>
      <trkpt lat="45.03565" lon="5.63805">
        <ele>892.2</ele>
        <time>2021-01-16T14:10:54Z</time>
      </trkpt>
      <trkpt lat="45.03566" lon="5.63806">
        <ele>892</ele>
        <time>2021-01-16T14:10:55Z</time>
      </trkpt>
      <trkpt lat="45.03566" lon="5.63806">
        <ele>892</ele>
        <time>2021-01-16T14:10:56Z</time>
      </trkpt>
      <trkpt lat="45.03567" lon="5.63806">
        <ele>892</ele>
        <time>2021-01-16T14:10:57Z</time>
      </trkpt>
      <trkpt lat="45.03568" lon="5.63807">
        <ele>892</ele>
        <time>2021-01-16T14:10:58Z</time>
      </trkpt>
      <trkpt lat="45.03569" lon="5.63807">
        <ele>891.8</ele>
        <time>2021-01-16T14:10:59Z</time>
      </trkpt>
      <trkpt lat="45.0357" lon="5.63808">
        <ele>891.6</ele>
        <time>2021-01-16T14:11:00Z</time>
      </trkpt>
      <trkpt lat="45.0357" lon="5.63808">
        <ele>891.4</ele>
        <time>2021-01-16T14:11:01Z</time>
      </trkpt>
      <trkpt lat="45.0357" lon="5.63808">
        <ele>891.4</ele>
        <time>2021-01-16T14:11:02Z</time>
      </trkpt>
      <trkpt lat="45.0357" lon="5.63808">
        <ele>891.4</ele>
        <time>2021-01-16T14:11:03Z</time>
      </trkpt>
      <trkpt lat="45.0357" lon="5.63808">
        <ele>891.6</ele>
        <time>2021-01-16T14:11:04Z</time>
      </trkpt>
      <trkpt lat="45.0357" lon="5.63808">
        <ele>891.6</ele>
        <time>2021-01-16T14:11:05Z</time>
      </trkpt>
      <trkpt lat="45.0357" lon="5.63808">
        <ele>891.6</ele>
        <time>2021-01-16T14:11:06Z</time>
      </trkpt>
      <trkpt lat="45.0357" lon="5.63811">
        <ele>891.6</ele>
        <time>2021-01-16T14:11:07Z</time>
      </trkpt>
      <trkpt lat="45.0357" lon="5.63811">
        <ele>891.8</ele>
        <time>2021-01-16T14:11:08Z</time>
      </trkpt>
      <trkpt lat="45.0357" lon="5.63811">
        <ele>892</ele>
        <time>2021-01-16T14:11:09Z</time>
      </trkpt>
      <trkpt lat="45.0357" lon="5.63811">
        <ele>892</ele>
        <time>2021-01-16T14:11:10Z</time>
      </trkpt>
      <trkpt lat="45.03571" lon="5.63812">
        <ele>892.2</ele>
        <time>2021-01-16T14:11:11Z</time>
      </trkpt>
      <trkpt lat="45.03571" lon="5.63813">
        <ele>892</ele>
        <time>2021-01-16T14:11:12Z</time>
      </trkpt>
      <trkpt lat="45.03572" lon="5.63813">
        <ele>892.2</ele>
        <time>2021-01-16T14:11:13Z</time>
      </trkpt>
      <trkpt lat="45.03572" lon="5.63814">
        <ele>892.2</ele>
        <time>2021-01-16T14:11:14Z</time>
      </trkpt>
      <trkpt lat="45.03573" lon="5.63815">
        <ele>892.2</ele>
        <time>2021-01-16T14:11:15Z</time>
      </trkpt>
      <trkpt lat="45.03573" lon="5.63816">
        <ele>892.4</ele>
        <time>2021-01-16T14:11:16Z</time>
      </trkpt>
      <trkpt lat="45.03573" lon="5.63816">
        <ele>892.4</ele>
        <time>2021-01-16T14:11:17Z</time>
      </trkpt>
      <trkpt lat="45.03574" lon="5.63817">
        <ele>892.2</ele>
        <time>2021-01-16T14:11:18Z</time>
      </trkpt>
      <trkpt lat="45.03574" lon="5.63818">
        <ele>892.4</ele>
        <time>2021-01-16T14:11:19Z</time>
      </trkpt>
      <trkpt lat="45.03575" lon="5.63818">
        <ele>892.4</ele>
        <time>2021-01-16T14:11:20Z</time>
      </trkpt>
      <trkpt lat="45.03575" lon="5.63819">
        <ele>892.4</ele>
        <time>2021-01-16T14:11:21Z</time>
      </trkpt>
      <trkpt lat="45.03576" lon="5.6382">
        <ele>892.4</ele>
        <time>2021-01-16T14:11:22Z</time>
      </trkpt>
      <trkpt lat="45.03576" lon="5.6382">
        <ele>892.4</ele>
        <time>2021-01-16T14:11:23Z</time>
      </trkpt>
      <trkpt lat="45.03576" lon="5.6382">
        <ele>892.4</ele>
        <time>2021-01-16T14:11:24Z</time>
      </trkpt>
      <trkpt lat="45.03576" lon="5.6382">
        <ele>892.4</ele>
        <time>2021-01-16T14:11:25Z</time>
      </trkpt>
      <trkpt lat="45.03576" lon="5.6382">
        <ele>892.4</ele>
        <time>2021-01-16T14:11:26Z</time>
      </trkpt>
      <trkpt lat="45.03578" lon="5.63821">
        <ele>892.4</ele>
        <time>2021-01-16T14:11:27Z</time>
      </trkpt>
      <trkpt lat="45.03579" lon="5.63821">
        <ele>892.4</ele>
        <time>2021-01-16T14:11:28Z</time>
      </trkpt>
      <trkpt lat="45.0358" lon="5.63822">
        <ele>892.2</ele>
        <time>2021-01-16T14:11:29Z</time>
      </trkpt>
      <trkpt lat="45.03582" lon="5.63823">
        <ele>892.2</ele>
        <time>2021-01-16T14:11:30Z</time>
      </trkpt>
      <trkpt lat="45.03583" lon="5.63823">
        <ele>892.4</ele>
        <time>2021-01-16T14:11:31Z</time>
      </trkpt>
      <trkpt lat="45.03585" lon="5.63824">
        <ele>892.6</ele>
        <time>2021-01-16T14:11:32Z</time>
      </trkpt>
      <trkpt lat="45.03586" lon="5.63824">
        <ele>892.8</ele>
        <time>2021-01-16T14:11:33Z</time>
      </trkpt>
      <trkpt lat="45.03586" lon="5.63824">
        <ele>892.8</ele>
        <time>2021-01-16T14:11:34Z</time>
      </trkpt>
      <trkpt lat="45.03587" lon="5.63824">
        <ele>893</ele>
        <time>2021-01-16T14:11:35Z</time>
      </trkpt>
      <trkpt lat="45.03588" lon="5.63824">
        <ele>893</ele>
        <time>2021-01-16T14:11:36Z</time>
      </trkpt>
      <trkpt lat="45.03589" lon="5.63824">
        <ele>893.4</ele>
        <time>2021-01-16T14:11:37Z</time>
      </trkpt>
      <trkpt lat="45.03589" lon="5.63824">
        <ele>893.6</ele>
        <time>2021-01-16T14:11:38Z</time>
      </trkpt>
      <trkpt lat="45.0359" lon="5.63824">
        <ele>893.6</ele>
        <time>2021-01-16T14:11:39Z</time>
      </trkpt>
      <trkpt lat="45.03591" lon="5.63824">
        <ele>893.8</ele>
        <time>2021-01-16T14:11:40Z</time>
      </trkpt>
      <trkpt lat="45.03592" lon="5.63824">
        <ele>893.8</ele>
        <time>2021-01-16T14:11:41Z</time>
      </trkpt>
      <trkpt lat="45.03593" lon="5.63823">
        <ele>894.2</ele>
        <time>2021-01-16T14:11:42Z</time>
      </trkpt>
      <trkpt lat="45.03594" lon="5.63823">
        <ele>894.4</ele>
        <time>2021-01-16T14:11:43Z</time>
      </trkpt>
      <trkpt lat="45.03595" lon="5.63823">
        <ele>894.4</ele>
        <time>2021-01-16T14:11:44Z</time>
      </trkpt>
      <trkpt lat="45.03595" lon="5.63823">
        <ele>894.6</ele>
        <time>2021-01-16T14:11:45Z</time>
      </trkpt>
      <trkpt lat="45.03597" lon="5.63822">
        <ele>894.8</ele>
        <time>2021-01-16T14:11:46Z</time>
      </trkpt>
      <trkpt lat="45.03597" lon="5.63822">
        <ele>895.2</ele>
        <time>2021-01-16T14:11:47Z</time>
      </trkpt>
      <trkpt lat="45.03597" lon="5.63822">
        <ele>895.4</ele>
        <time>2021-01-16T14:11:48Z</time>
      </trkpt>
      <trkpt lat="45.03599" lon="5.63822">
        <ele>895.6</ele>
        <time>2021-01-16T14:11:49Z</time>
      </trkpt>
      <trkpt lat="45.03599" lon="5.63822">
        <ele>895.8</ele>
        <time>2021-01-16T14:11:50Z</time>
      </trkpt>
      <trkpt lat="45.03599" lon="5.63822">
        <ele>896</ele>
        <time>2021-01-16T14:11:51Z</time>
      </trkpt>
      <trkpt lat="45.03601" lon="5.63823">
        <ele>896.2</ele>
        <time>2021-01-16T14:11:52Z</time>
      </trkpt>
      <trkpt lat="45.03601" lon="5.63823">
        <ele>896.8</ele>
        <time>2021-01-16T14:11:53Z</time>
      </trkpt>
      <trkpt lat="45.03601" lon="5.63823">
        <ele>897</ele>
        <time>2021-01-16T14:11:54Z</time>
      </trkpt>
      <trkpt lat="45.03603" lon="5.63823">
        <ele>897.4</ele>
        <time>2021-01-16T14:11:55Z</time>
      </trkpt>
      <trkpt lat="45.03603" lon="5.63823">
        <ele>897.8</ele>
        <time>2021-01-16T14:11:56Z</time>
      </trkpt>
      <trkpt lat="45.03603" lon="5.63823">
        <ele>898</ele>
        <time>2021-01-16T14:11:57Z</time>
      </trkpt>
      <trkpt lat="45.03603" lon="5.63823">
        <ele>898.4</ele>
        <time>2021-01-16T14:11:58Z</time>
      </trkpt>
      <trkpt lat="45.03605" lon="5.63823">
        <ele>898.8</ele>
        <time>2021-01-16T14:11:59Z</time>
      </trkpt>
      <trkpt lat="45.03605" lon="5.63823">
        <ele>899</ele>
        <time>2021-01-16T14:12:00Z</time>
      </trkpt>
      <trkpt lat="45.03605" lon="5.63823">
        <ele>899.2</ele>
        <time>2021-01-16T14:12:01Z</time>
      </trkpt>
      <trkpt lat="45.03605" lon="5.63823">
        <ele>899.6</ele>
        <time>2021-01-16T14:12:02Z</time>
      </trkpt>
      <trkpt lat="45.03608" lon="5.63824">
        <ele>900</ele>
        <time>2021-01-16T14:12:03Z</time>
      </trkpt>
      <trkpt lat="45.03608" lon="5.63824">
        <ele>900.2</ele>
        <time>2021-01-16T14:12:04Z</time>
      </trkpt>
      <trkpt lat="45.03608" lon="5.63824">
        <ele>900.4</ele>
        <time>2021-01-16T14:12:05Z</time>
      </trkpt>
      <trkpt lat="45.03609" lon="5.63824">
        <ele>901</ele>
        <time>2021-01-16T14:12:06Z</time>
      </trkpt>
      <trkpt lat="45.03609" lon="5.63824">
        <ele>901.2</ele>
        <time>2021-01-16T14:12:07Z</time>
      </trkpt>
      <trkpt lat="45.03609" lon="5.63824">
        <ele>901.6</ele>
        <time>2021-01-16T14:12:08Z</time>
      </trkpt>
      <trkpt lat="45.03609" lon="5.63824">
        <ele>902</ele>
        <time>2021-01-16T14:12:09Z</time>
      </trkpt>
      <trkpt lat="45.03612" lon="5.63824">
        <ele>902.4</ele>
        <time>2021-01-16T14:12:10Z</time>
      </trkpt>
      <trkpt lat="45.03612" lon="5.63824">
        <ele>902.6</ele>
        <time>2021-01-16T14:12:11Z</time>
      </trkpt>
      <trkpt lat="45.03612" lon="5.63824">
        <ele>903</ele>
        <time>2021-01-16T14:12:12Z</time>
      </trkpt>
      <trkpt lat="45.03613" lon="5.63822">
        <ele>903.2</ele>
        <time>2021-01-16T14:12:13Z</time>
      </trkpt>
      <trkpt lat="45.03613" lon="5.63822">
        <ele>903.6</ele>
        <time>2021-01-16T14:12:14Z</time>
      </trkpt>
      <trkpt lat="45.03613" lon="5.63822">
        <ele>903.8</ele>
        <time>2021-01-16T14:12:15Z</time>
      </trkpt>
      <trkpt lat="45.03613" lon="5.63822">
        <ele>904.2</ele>
        <time>2021-01-16T14:12:16Z</time>
      </trkpt>
      <trkpt lat="45.03616" lon="5.63821">
        <ele>904.4</ele>
        <time>2021-01-16T14:12:17Z</time>
      </trkpt>
      <trkpt lat="45.03616" lon="5.63821">
        <ele>904.6</ele>
        <time>2021-01-16T14:12:18Z</time>
      </trkpt>
      <trkpt lat="45.03616" lon="5.63821">
        <ele>904.8</ele>
        <time>2021-01-16T14:12:19Z</time>
      </trkpt>
      <trkpt lat="45.03618" lon="5.6382">
        <ele>904.8</ele>
        <time>2021-01-16T14:12:20Z</time>
      </trkpt>
      <trkpt lat="45.03618" lon="5.6382">
        <ele>905.2</ele>
        <time>2021-01-16T14:12:21Z</time>
      </trkpt>
      <trkpt lat="45.0362" lon="5.63818">
        <ele>905.4</ele>
        <time>2021-01-16T14:12:22Z</time>
      </trkpt>
      <trkpt lat="45.03622" lon="5.63819">
        <ele>905.6</ele>
        <time>2021-01-16T14:12:23Z</time>
      </trkpt>
      <trkpt lat="45.03622" lon="5.63819">
        <ele>905.6</ele>
        <time>2021-01-16T14:12:24Z</time>
      </trkpt>
      <trkpt lat="45.03622" lon="5.63819">
        <ele>905.8</ele>
        <time>2021-01-16T14:12:25Z</time>
      </trkpt>
      <trkpt lat="45.03625" lon="5.63819">
        <ele>906</ele>
        <time>2021-01-16T14:12:26Z</time>
      </trkpt>
      <trkpt lat="45.03625" lon="5.63819">
        <ele>906.2</ele>
        <time>2021-01-16T14:12:27Z</time>
      </trkpt>
      <trkpt lat="45.03625" lon="5.63819">
        <ele>906.4</ele>
        <time>2021-01-16T14:12:28Z</time>
      </trkpt>
      <trkpt lat="45.03627" lon="5.63819">
        <ele>906.8</ele>
        <time>2021-01-16T14:12:29Z</time>
      </trkpt>
      <trkpt lat="45.03629" lon="5.63818">
        <ele>906.8</ele>
        <time>2021-01-16T14:12:30Z</time>
      </trkpt>
      <trkpt lat="45.03632" lon="5.63817">
        <ele>907.2</ele>
        <time>2021-01-16T14:12:31Z</time>
      </trkpt>
      <trkpt lat="45.03634" lon="5.63816">
        <ele>907.4</ele>
        <time>2021-01-16T14:12:32Z</time>
      </trkpt>
      <trkpt lat="45.03635" lon="5.63815">
        <ele>907.6</ele>
        <time>2021-01-16T14:12:33Z</time>
      </trkpt>
      <trkpt lat="45.03636" lon="5.63815">
        <ele>907.8</ele>
        <time>2021-01-16T14:12:34Z</time>
      </trkpt>
      <trkpt lat="45.03637" lon="5.63815">
        <ele>908.2</ele>
        <time>2021-01-16T14:12:35Z</time>
      </trkpt>
      <trkpt lat="45.03638" lon="5.63814">
        <ele>908.6</ele>
        <time>2021-01-16T14:12:36Z</time>
      </trkpt>
      <trkpt lat="45.0364" lon="5.63814">
        <ele>908.8</ele>
        <time>2021-01-16T14:12:37Z</time>
      </trkpt>
      <trkpt lat="45.03641" lon="5.63813">
        <ele>909</ele>
        <time>2021-01-16T14:12:38Z</time>
      </trkpt>
      <trkpt lat="45.03641" lon="5.63813">
        <ele>909.4</ele>
        <time>2021-01-16T14:12:39Z</time>
      </trkpt>
      <trkpt lat="45.03643" lon="5.63813">
        <ele>909.6</ele>
        <time>2021-01-16T14:12:40Z</time>
      </trkpt>
      <trkpt lat="45.03643" lon="5.63813">
        <ele>909.8</ele>
        <time>2021-01-16T14:12:41Z</time>
      </trkpt>
      <trkpt lat="45.03643" lon="5.63813">
        <ele>910</ele>
        <time>2021-01-16T14:12:42Z</time>
      </trkpt>
      <trkpt lat="45.03644" lon="5.63812">
        <ele>910.2</ele>
        <time>2021-01-16T14:12:43Z</time>
      </trkpt>
      <trkpt lat="45.03645" lon="5.63812">
        <ele>910.2</ele>
        <time>2021-01-16T14:12:44Z</time>
      </trkpt>
      <trkpt lat="45.03646" lon="5.63811">
        <ele>910.6</ele>
        <time>2021-01-16T14:12:45Z</time>
      </trkpt>
      <trkpt lat="45.03646" lon="5.63811">
        <ele>911</ele>
        <time>2021-01-16T14:12:46Z</time>
      </trkpt>
      <trkpt lat="45.03647" lon="5.6381">
        <ele>911</ele>
        <time>2021-01-16T14:12:47Z</time>
      </trkpt>
      <trkpt lat="45.03648" lon="5.63809">
        <ele>911.2</ele>
        <time>2021-01-16T14:12:48Z</time>
      </trkpt>
      <trkpt lat="45.03649" lon="5.63807">
        <ele>911.4</ele>
        <time>2021-01-16T14:12:49Z</time>
      </trkpt>
      <trkpt lat="45.03649" lon="5.63807">
        <ele>911.8</ele>
        <time>2021-01-16T14:12:50Z</time>
      </trkpt>
      <trkpt lat="45.03649" lon="5.63807">
        <ele>912</ele>
        <time>2021-01-16T14:12:51Z</time>
      </trkpt>
      <trkpt lat="45.03649" lon="5.63807">
        <ele>912.4</ele>
        <time>2021-01-16T14:12:52Z</time>
      </trkpt>
      <trkpt lat="45.03652" lon="5.63807">
        <ele>912.6</ele>
        <time>2021-01-16T14:12:53Z</time>
      </trkpt>
      <trkpt lat="45.03652" lon="5.63807">
        <ele>912.6</ele>
        <time>2021-01-16T14:12:54Z</time>
      </trkpt>
      <trkpt lat="45.03652" lon="5.63807">
        <ele>912.8</ele>
        <time>2021-01-16T14:12:55Z</time>
      </trkpt>
      <trkpt lat="45.03652" lon="5.63807">
        <ele>913</ele>
        <time>2021-01-16T14:12:56Z</time>
      </trkpt>
      <trkpt lat="45.03652" lon="5.63807">
        <ele>913.2</ele>
        <time>2021-01-16T14:12:57Z</time>
      </trkpt>
      <trkpt lat="45.03654" lon="5.63806">
        <ele>913.4</ele>
        <time>2021-01-16T14:12:58Z</time>
      </trkpt>
      <trkpt lat="45.03654" lon="5.63806">
        <ele>913.4</ele>
        <time>2021-01-16T14:12:59Z</time>
      </trkpt>
      <trkpt lat="45.03654" lon="5.63806">
        <ele>913.6</ele>
        <time>2021-01-16T14:13:00Z</time>
      </trkpt>
      <trkpt lat="45.03654" lon="5.63806">
        <ele>913.6</ele>
        <time>2021-01-16T14:13:01Z</time>
      </trkpt>
      <trkpt lat="45.03654" lon="5.63806">
        <ele>913.6</ele>
        <time>2021-01-16T14:13:02Z</time>
      </trkpt>
      <trkpt lat="45.03654" lon="5.63806">
        <ele>913.4</ele>
        <time>2021-01-16T14:13:03Z</time>
      </trkpt>
      <trkpt lat="45.03654" lon="5.63806">
        <ele>913.4</ele>
        <time>2021-01-16T14:13:04Z</time>
      </trkpt>
      <trkpt lat="45.03654" lon="5.63806">
        <ele>913.4</ele>
        <time>2021-01-16T14:13:05Z</time>
      </trkpt>
      <trkpt lat="45.03654" lon="5.63806">
        <ele>913.2</ele>
        <time>2021-01-16T14:13:06Z</time>
      </trkpt>
      <trkpt lat="45.03656" lon="5.63808">
        <ele>913.4</ele>
        <time>2021-01-16T14:13:07Z</time>
      </trkpt>
      <trkpt lat="45.03656" lon="5.63808">
        <ele>913.6</ele>
        <time>2021-01-16T14:13:08Z</time>
      </trkpt>
      <trkpt lat="45.03656" lon="5.63808">
        <ele>913.8</ele>
        <time>2021-01-16T14:13:09Z</time>
      </trkpt>
      <trkpt lat="45.03656" lon="5.63808">
        <ele>914</ele>
        <time>2021-01-16T14:13:10Z</time>
      </trkpt>
      <trkpt lat="45.03658" lon="5.63808">
        <ele>914</ele>
        <time>2021-01-16T14:13:11Z</time>
      </trkpt>
      <trkpt lat="45.03658" lon="5.63808">
        <ele>914.4</ele>
        <time>2021-01-16T14:13:12Z</time>
      </trkpt>
      <trkpt lat="45.03658" lon="5.63808">
        <ele>914.6</ele>
        <time>2021-01-16T14:13:13Z</time>
      </trkpt>
      <trkpt lat="45.03659" lon="5.6381">
        <ele>914.6</ele>
        <time>2021-01-16T14:13:14Z</time>
      </trkpt>
      <trkpt lat="45.03659" lon="5.6381">
        <ele>915</ele>
        <time>2021-01-16T14:13:15Z</time>
      </trkpt>
      <trkpt lat="45.03661" lon="5.63812">
        <ele>915.2</ele>
        <time>2021-01-16T14:13:16Z</time>
      </trkpt>
      <trkpt lat="45.03661" lon="5.63812">
        <ele>915.6</ele>
        <time>2021-01-16T14:13:17Z</time>
      </trkpt>
      <trkpt lat="45.03663" lon="5.63813">
        <ele>915.8</ele>
        <time>2021-01-16T14:13:18Z</time>
      </trkpt>
      <trkpt lat="45.03663" lon="5.63813">
        <ele>916</ele>
        <time>2021-01-16T14:13:19Z</time>
      </trkpt>
      <trkpt lat="45.03663" lon="5.63813">
        <ele>916.4</ele>
        <time>2021-01-16T14:13:20Z</time>
      </trkpt>
      <trkpt lat="45.03663" lon="5.63813">
        <ele>916.6</ele>
        <time>2021-01-16T14:13:21Z</time>
      </trkpt>
      <trkpt lat="45.03665" lon="5.63814">
        <ele>916.6</ele>
        <time>2021-01-16T14:13:22Z</time>
      </trkpt>
      <trkpt lat="45.03665" lon="5.63814">
        <ele>916.8</ele>
        <time>2021-01-16T14:13:23Z</time>
      </trkpt>
      <trkpt lat="45.03665" lon="5.63814">
        <ele>917.4</ele>
        <time>2021-01-16T14:13:24Z</time>
      </trkpt>
      <trkpt lat="45.03667" lon="5.63816">
        <ele>917.8</ele>
        <time>2021-01-16T14:13:25Z</time>
      </trkpt>
      <trkpt lat="45.03667" lon="5.63816">
        <ele>918</ele>
        <time>2021-01-16T14:13:26Z</time>
      </trkpt>
      <trkpt lat="45.03667" lon="5.63816">
        <ele>918.4</ele>
        <time>2021-01-16T14:13:27Z</time>
      </trkpt>
      <trkpt lat="45.03667" lon="5.63816">
        <ele>918.8</ele>
        <time>2021-01-16T14:13:28Z</time>
      </trkpt>
      <trkpt lat="45.0367" lon="5.63815">
        <ele>919</ele>
        <time>2021-01-16T14:13:29Z</time>
      </trkpt>
      <trkpt lat="45.0367" lon="5.63815">
        <ele>919.4</ele>
        <time>2021-01-16T14:13:30Z</time>
      </trkpt>
      <trkpt lat="45.03672" lon="5.63815">
        <ele>919.8</ele>
        <time>2021-01-16T14:13:31Z</time>
      </trkpt>
      <trkpt lat="45.03672" lon="5.63815">
        <ele>920</ele>
        <time>2021-01-16T14:13:32Z</time>
      </trkpt>
      <trkpt lat="45.03672" lon="5.63815">
        <ele>920.6</ele>
        <time>2021-01-16T14:13:33Z</time>
      </trkpt>
      <trkpt lat="45.03672" lon="5.63815">
        <ele>921</ele>
        <time>2021-01-16T14:13:34Z</time>
      </trkpt>
      <trkpt lat="45.03672" lon="5.63815">
        <ele>921.4</ele>
        <time>2021-01-16T14:13:35Z</time>
      </trkpt>
      <trkpt lat="45.03672" lon="5.63815">
        <ele>921.8</ele>
        <time>2021-01-16T14:13:36Z</time>
      </trkpt>
      <trkpt lat="45.03674" lon="5.63814">
        <ele>922</ele>
        <time>2021-01-16T14:13:37Z</time>
      </trkpt>
      <trkpt lat="45.03674" lon="5.63814">
        <ele>922.4</ele>
        <time>2021-01-16T14:13:38Z</time>
      </trkpt>
      <trkpt lat="45.03674" lon="5.63814">
        <ele>922.6</ele>
        <time>2021-01-16T14:13:39Z</time>
      </trkpt>
      <trkpt lat="45.03674" lon="5.63814">
        <ele>923</ele>
        <time>2021-01-16T14:13:40Z</time>
      </trkpt>
      <trkpt lat="45.03674" lon="5.63814">
        <ele>923.4</ele>
        <time>2021-01-16T14:13:41Z</time>
      </trkpt>
      <trkpt lat="45.03674" lon="5.63814">
        <ele>923.6</ele>
        <time>2021-01-16T14:13:42Z</time>
      </trkpt>
      <trkpt lat="45.03676" lon="5.63813">
        <ele>924</ele>
        <time>2021-01-16T14:13:43Z</time>
      </trkpt>
      <trkpt lat="45.03676" lon="5.63813">
        <ele>924.4</ele>
        <time>2021-01-16T14:13:44Z</time>
      </trkpt>
      <trkpt lat="45.03676" lon="5.63813">
        <ele>924.6</ele>
        <time>2021-01-16T14:13:45Z</time>
      </trkpt>
      <trkpt lat="45.03676" lon="5.63813">
        <ele>925</ele>
        <time>2021-01-16T14:13:46Z</time>
      </trkpt>
      <trkpt lat="45.03677" lon="5.63813">
        <ele>925.2</ele>
        <time>2021-01-16T14:13:47Z</time>
      </trkpt>
      <trkpt lat="45.03677" lon="5.63813">
        <ele>925.6</ele>
        <time>2021-01-16T14:13:48Z</time>
      </trkpt>
      <trkpt lat="45.03677" lon="5.63813">
        <ele>926</ele>
        <time>2021-01-16T14:13:49Z</time>
      </trkpt>
      <trkpt lat="45.03679" lon="5.63811">
        <ele>926.4</ele>
        <time>2021-01-16T14:13:50Z</time>
      </trkpt>
      <trkpt lat="45.03679" lon="5.63811">
        <ele>926.6</ele>
        <time>2021-01-16T14:13:51Z</time>
      </trkpt>
      <trkpt lat="45.03679" lon="5.63811">
        <ele>927</ele>
        <time>2021-01-16T14:13:52Z</time>
      </trkpt>
      <trkpt lat="45.03682" lon="5.6381">
        <ele>927.4</ele>
        <time>2021-01-16T14:13:53Z</time>
      </trkpt>
      <trkpt lat="45.03682" lon="5.6381">
        <ele>927.6</ele>
        <time>2021-01-16T14:13:54Z</time>
      </trkpt>
      <trkpt lat="45.03684" lon="5.63809">
        <ele>928</ele>
        <time>2021-01-16T14:13:55Z</time>
      </trkpt>
      <trkpt lat="45.03684" lon="5.63809">
        <ele>928.4</ele>
        <time>2021-01-16T14:13:56Z</time>
      </trkpt>
      <trkpt lat="45.03684" lon="5.63809">
        <ele>928.6</ele>
        <time>2021-01-16T14:13:57Z</time>
      </trkpt>
      <trkpt lat="45.03684" lon="5.63809">
        <ele>928.6</ele>
        <time>2021-01-16T14:13:58Z</time>
      </trkpt>
      <trkpt lat="45.03684" lon="5.63809">
        <ele>929.2</ele>
        <time>2021-01-16T14:13:59Z</time>
      </trkpt>
      <trkpt lat="45.03685" lon="5.63809">
        <ele>929.4</ele>
        <time>2021-01-16T14:14:00Z</time>
      </trkpt>
      <trkpt lat="45.03685" lon="5.63809">
        <ele>929.6</ele>
        <time>2021-01-16T14:14:01Z</time>
      </trkpt>
      <trkpt lat="45.03685" lon="5.63809">
        <ele>929.8</ele>
        <time>2021-01-16T14:14:02Z</time>
      </trkpt>
      <trkpt lat="45.03685" lon="5.63809">
        <ele>930</ele>
        <time>2021-01-16T14:14:03Z</time>
      </trkpt>
      <trkpt lat="45.03688" lon="5.63809">
        <ele>930.2</ele>
        <time>2021-01-16T14:14:04Z</time>
      </trkpt>
      <trkpt lat="45.03688" lon="5.63809">
        <ele>930.4</ele>
        <time>2021-01-16T14:14:05Z</time>
      </trkpt>
      <trkpt lat="45.03688" lon="5.63809">
        <ele>930.8</ele>
        <time>2021-01-16T14:14:06Z</time>
      </trkpt>
      <trkpt lat="45.03691" lon="5.6381">
        <ele>931.2</ele>
        <time>2021-01-16T14:14:07Z</time>
      </trkpt>
      <trkpt lat="45.03691" lon="5.6381">
        <ele>931.6</ele>
        <time>2021-01-16T14:14:08Z</time>
      </trkpt>
      <trkpt lat="45.03691" lon="5.6381">
        <ele>932</ele>
        <time>2021-01-16T14:14:09Z</time>
      </trkpt>
      <trkpt lat="45.03693" lon="5.63809">
        <ele>932.4</ele>
        <time>2021-01-16T14:14:10Z</time>
      </trkpt>
      <trkpt lat="45.03693" lon="5.63809">
        <ele>932.6</ele>
        <time>2021-01-16T14:14:11Z</time>
      </trkpt>
      <trkpt lat="45.03693" lon="5.63809">
        <ele>932.6</ele>
        <time>2021-01-16T14:14:12Z</time>
      </trkpt>
      <trkpt lat="45.03694" lon="5.63809">
        <ele>932.8</ele>
        <time>2021-01-16T14:14:13Z</time>
      </trkpt>
      <trkpt lat="45.03694" lon="5.63809">
        <ele>933.2</ele>
        <time>2021-01-16T14:14:14Z</time>
      </trkpt>
      <trkpt lat="45.03694" lon="5.63809">
        <ele>933.6</ele>
        <time>2021-01-16T14:14:15Z</time>
      </trkpt>
      <trkpt lat="45.03694" lon="5.63809">
        <ele>934</ele>
        <time>2021-01-16T14:14:16Z</time>
      </trkpt>
      <trkpt lat="45.03694" lon="5.63809">
        <ele>934.2</ele>
        <time>2021-01-16T14:14:17Z</time>
      </trkpt>
      <trkpt lat="45.03694" lon="5.63809">
        <ele>934.4</ele>
        <time>2021-01-16T14:14:18Z</time>
      </trkpt>
      <trkpt lat="45.03694" lon="5.63809">
        <ele>934.8</ele>
        <time>2021-01-16T14:14:19Z</time>
      </trkpt>
      <trkpt lat="45.03697" lon="5.63811">
        <ele>935</ele>
        <time>2021-01-16T14:14:20Z</time>
      </trkpt>
      <trkpt lat="45.03698" lon="5.6381">
        <ele>935</ele>
        <time>2021-01-16T14:14:21Z</time>
      </trkpt>
      <trkpt lat="45.03698" lon="5.6381">
        <ele>935.4</ele>
        <time>2021-01-16T14:14:22Z</time>
      </trkpt>
      <trkpt lat="45.03698" lon="5.6381">
        <ele>935.4</ele>
        <time>2021-01-16T14:14:23Z</time>
      </trkpt>
      <trkpt lat="45.03698" lon="5.6381">
        <ele>935.8</ele>
        <time>2021-01-16T14:14:24Z</time>
      </trkpt>
      <trkpt lat="45.03701" lon="5.63809">
        <ele>936</ele>
        <time>2021-01-16T14:14:25Z</time>
      </trkpt>
      <trkpt lat="45.03701" lon="5.63809">
        <ele>936.2</ele>
        <time>2021-01-16T14:14:26Z</time>
      </trkpt>
      <trkpt lat="45.03701" lon="5.63809">
        <ele>936.4</ele>
        <time>2021-01-16T14:14:27Z</time>
      </trkpt>
      <trkpt lat="45.03701" lon="5.63809">
        <ele>936.4</ele>
        <time>2021-01-16T14:14:28Z</time>
      </trkpt>
      <trkpt lat="45.03703" lon="5.63808">
        <ele>936.6</ele>
        <time>2021-01-16T14:14:29Z</time>
      </trkpt>
      <trkpt lat="45.03705" lon="5.63808">
        <ele>936.8</ele>
        <time>2021-01-16T14:14:30Z</time>
      </trkpt>
      <trkpt lat="45.03705" lon="5.63808">
        <ele>937</ele>
        <time>2021-01-16T14:14:31Z</time>
      </trkpt>
      <trkpt lat="45.03705" lon="5.63808">
        <ele>937.2</ele>
        <time>2021-01-16T14:14:32Z</time>
      </trkpt>
      <trkpt lat="45.03707" lon="5.63809">
        <ele>937.4</ele>
        <time>2021-01-16T14:14:33Z</time>
      </trkpt>
      <trkpt lat="45.03709" lon="5.63809">
        <ele>937.2</ele>
        <time>2021-01-16T14:14:34Z</time>
      </trkpt>
      <trkpt lat="45.03709" lon="5.63809">
        <ele>937.4</ele>
        <time>2021-01-16T14:14:35Z</time>
      </trkpt>
      <trkpt lat="45.03709" lon="5.63809">
        <ele>937.8</ele>
        <time>2021-01-16T14:14:36Z</time>
      </trkpt>
      <trkpt lat="45.03711" lon="5.63808">
        <ele>937.8</ele>
        <time>2021-01-16T14:14:37Z</time>
      </trkpt>
      <trkpt lat="45.03711" lon="5.63808">
        <ele>938.2</ele>
        <time>2021-01-16T14:14:38Z</time>
      </trkpt>
      <trkpt lat="45.03713" lon="5.63807">
        <ele>938.2</ele>
        <time>2021-01-16T14:14:39Z</time>
      </trkpt>
      <trkpt lat="45.03713" lon="5.63807">
        <ele>938.2</ele>
        <time>2021-01-16T14:14:40Z</time>
      </trkpt>
      <trkpt lat="45.03713" lon="5.63807">
        <ele>938</ele>
        <time>2021-01-16T14:14:41Z</time>
      </trkpt>
      <trkpt lat="45.03713" lon="5.63807">
        <ele>938.6</ele>
        <time>2021-01-16T14:14:42Z</time>
      </trkpt>
      <trkpt lat="45.03716" lon="5.63807">
        <ele>938.6</ele>
        <time>2021-01-16T14:14:43Z</time>
      </trkpt>
      <trkpt lat="45.03716" lon="5.63807">
        <ele>939.2</ele>
        <time>2021-01-16T14:14:44Z</time>
      </trkpt>
      <trkpt lat="45.03718" lon="5.63809">
        <ele>939.2</ele>
        <time>2021-01-16T14:14:45Z</time>
      </trkpt>
      <trkpt lat="45.03719" lon="5.6381">
        <ele>939.4</ele>
        <time>2021-01-16T14:14:46Z</time>
      </trkpt>
      <trkpt lat="45.03721" lon="5.63811">
        <ele>939.2</ele>
        <time>2021-01-16T14:14:47Z</time>
      </trkpt>
      <trkpt lat="45.03722" lon="5.63813">
        <ele>939.4</ele>
        <time>2021-01-16T14:14:48Z</time>
      </trkpt>
      <trkpt lat="45.03723" lon="5.63813">
        <ele>939.4</ele>
        <time>2021-01-16T14:14:49Z</time>
      </trkpt>
      <trkpt lat="45.03723" lon="5.63813">
        <ele>939.6</ele>
        <time>2021-01-16T14:14:50Z</time>
      </trkpt>
      <trkpt lat="45.03724" lon="5.63814">
        <ele>939.8</ele>
        <time>2021-01-16T14:14:51Z</time>
      </trkpt>
      <trkpt lat="45.03726" lon="5.63814">
        <ele>940</ele>
        <time>2021-01-16T14:14:52Z</time>
      </trkpt>
      <trkpt lat="45.03726" lon="5.63814">
        <ele>940.4</ele>
        <time>2021-01-16T14:14:53Z</time>
      </trkpt>
      <trkpt lat="45.03726" lon="5.63814">
        <ele>940.6</ele>
        <time>2021-01-16T14:14:54Z</time>
      </trkpt>
      <trkpt lat="45.03729" lon="5.63816">
        <ele>941</ele>
        <time>2021-01-16T14:14:55Z</time>
      </trkpt>
      <trkpt lat="45.03729" lon="5.63816">
        <ele>941</ele>
        <time>2021-01-16T14:14:56Z</time>
      </trkpt>
      <trkpt lat="45.0373" lon="5.63816">
        <ele>941.6</ele>
        <time>2021-01-16T14:14:57Z</time>
      </trkpt>
      <trkpt lat="45.0373" lon="5.63816">
        <ele>941.8</ele>
        <time>2021-01-16T14:14:58Z</time>
      </trkpt>
      <trkpt lat="45.0373" lon="5.63816">
        <ele>942.4</ele>
        <time>2021-01-16T14:14:59Z</time>
      </trkpt>
      <trkpt lat="45.03733" lon="5.63816">
        <ele>942.6</ele>
        <time>2021-01-16T14:15:00Z</time>
      </trkpt>
      <trkpt lat="45.03733" lon="5.63816">
        <ele>943</ele>
        <time>2021-01-16T14:15:01Z</time>
      </trkpt>
      <trkpt lat="45.03735" lon="5.63816">
        <ele>943</ele>
        <time>2021-01-16T14:15:02Z</time>
      </trkpt>
      <trkpt lat="45.03735" lon="5.63816">
        <ele>943.6</ele>
        <time>2021-01-16T14:15:03Z</time>
      </trkpt>
      <trkpt lat="45.03738" lon="5.63816">
        <ele>943.6</ele>
        <time>2021-01-16T14:15:04Z</time>
      </trkpt>
      <trkpt lat="45.0374" lon="5.63817">
        <ele>944.2</ele>
        <time>2021-01-16T14:15:05Z</time>
      </trkpt>
      <trkpt lat="45.0374" lon="5.63817">
        <ele>944.2</ele>
        <time>2021-01-16T14:15:06Z</time>
      </trkpt>
      <trkpt lat="45.0374" lon="5.63817">
        <ele>944.8</ele>
        <time>2021-01-16T14:15:07Z</time>
      </trkpt>
      <trkpt lat="45.03742" lon="5.63817">
        <ele>944.8</ele>
        <time>2021-01-16T14:15:08Z</time>
      </trkpt>
      <trkpt lat="45.03742" lon="5.63817">
        <ele>945</ele>
        <time>2021-01-16T14:15:09Z</time>
      </trkpt>
      <trkpt lat="45.03742" lon="5.63817">
        <ele>945.2</ele>
        <time>2021-01-16T14:15:10Z</time>
      </trkpt>
      <trkpt lat="45.03745" lon="5.63817">
        <ele>945.2</ele>
        <time>2021-01-16T14:15:11Z</time>
      </trkpt>
      <trkpt lat="45.03745" lon="5.63817">
        <ele>945.2</ele>
        <time>2021-01-16T14:15:12Z</time>
      </trkpt>
      <trkpt lat="45.03747" lon="5.63817">
        <ele>945.6</ele>
        <time>2021-01-16T14:15:13Z</time>
      </trkpt>
      <trkpt lat="45.03749" lon="5.63817">
        <ele>946</ele>
        <time>2021-01-16T14:15:14Z</time>
      </trkpt>
      <trkpt lat="45.03749" lon="5.63817">
        <ele>946.4</ele>
        <time>2021-01-16T14:15:15Z</time>
      </trkpt>
      <trkpt lat="45.03749" lon="5.63817">
        <ele>946.6</ele>
        <time>2021-01-16T14:15:16Z</time>
      </trkpt>
      <trkpt lat="45.03752" lon="5.63817">
        <ele>946.8</ele>
        <time>2021-01-16T14:15:17Z</time>
      </trkpt>
      <trkpt lat="45.03752" lon="5.63817">
        <ele>947.2</ele>
        <time>2021-01-16T14:15:18Z</time>
      </trkpt>
      <trkpt lat="45.03752" lon="5.63817">
        <ele>947.4</ele>
        <time>2021-01-16T14:15:19Z</time>
      </trkpt>
      <trkpt lat="45.03754" lon="5.63817">
        <ele>947.4</ele>
        <time>2021-01-16T14:15:20Z</time>
      </trkpt>
      <trkpt lat="45.03754" lon="5.63817">
        <ele>947.6</ele>
        <time>2021-01-16T14:15:21Z</time>
      </trkpt>
      <trkpt lat="45.03754" lon="5.63817">
        <ele>948</ele>
        <time>2021-01-16T14:15:22Z</time>
      </trkpt>
      <trkpt lat="45.03756" lon="5.63817">
        <ele>948.4</ele>
        <time>2021-01-16T14:15:23Z</time>
      </trkpt>
      <trkpt lat="45.03756" lon="5.63817">
        <ele>948.6</ele>
        <time>2021-01-16T14:15:24Z</time>
      </trkpt>
      <trkpt lat="45.03756" lon="5.63817">
        <ele>949</ele>
        <time>2021-01-16T14:15:25Z</time>
      </trkpt>
      <trkpt lat="45.03758" lon="5.63817">
        <ele>949.2</ele>
        <time>2021-01-16T14:15:26Z</time>
      </trkpt>
      <trkpt lat="45.03758" lon="5.63817">
        <ele>949.6</ele>
        <time>2021-01-16T14:15:27Z</time>
      </trkpt>
      <trkpt lat="45.03758" lon="5.63817">
        <ele>949.8</ele>
        <time>2021-01-16T14:15:28Z</time>
      </trkpt>
      <trkpt lat="45.0376" lon="5.63817">
        <ele>950</ele>
        <time>2021-01-16T14:15:29Z</time>
      </trkpt>
      <trkpt lat="45.0376" lon="5.63817">
        <ele>950.4</ele>
        <time>2021-01-16T14:15:30Z</time>
      </trkpt>
      <trkpt lat="45.0376" lon="5.63817">
        <ele>950.6</ele>
        <time>2021-01-16T14:15:31Z</time>
      </trkpt>
      <trkpt lat="45.0376" lon="5.63817">
        <ele>951</ele>
        <time>2021-01-16T14:15:32Z</time>
      </trkpt>
      <trkpt lat="45.0376" lon="5.63817">
        <ele>951.2</ele>
        <time>2021-01-16T14:15:33Z</time>
      </trkpt>
      <trkpt lat="45.03762" lon="5.63817">
        <ele>951.4</ele>
        <time>2021-01-16T14:15:34Z</time>
      </trkpt>
      <trkpt lat="45.03762" lon="5.63817">
        <ele>951.8</ele>
        <time>2021-01-16T14:15:35Z</time>
      </trkpt>
      <trkpt lat="45.03762" lon="5.63817">
        <ele>952.2</ele>
        <time>2021-01-16T14:15:36Z</time>
      </trkpt>
      <trkpt lat="45.03762" lon="5.63817">
        <ele>952.4</ele>
        <time>2021-01-16T14:15:37Z</time>
      </trkpt>
      <trkpt lat="45.03762" lon="5.63817">
        <ele>952.4</ele>
        <time>2021-01-16T14:15:38Z</time>
      </trkpt>
      <trkpt lat="45.03762" lon="5.63817">
        <ele>952.8</ele>
        <time>2021-01-16T14:15:39Z</time>
      </trkpt>
      <trkpt lat="45.03764" lon="5.63816">
        <ele>953.2</ele>
        <time>2021-01-16T14:15:40Z</time>
      </trkpt>
      <trkpt lat="45.03764" lon="5.63816">
        <ele>953.8</ele>
        <time>2021-01-16T14:15:41Z</time>
      </trkpt>
      <trkpt lat="45.03764" lon="5.63816">
        <ele>953.8</ele>
        <time>2021-01-16T14:15:42Z</time>
      </trkpt>
      <trkpt lat="45.03766" lon="5.63814">
        <ele>953.8</ele>
        <time>2021-01-16T14:15:43Z</time>
      </trkpt>
      <trkpt lat="45.03766" lon="5.63814">
        <ele>954</ele>
        <time>2021-01-16T14:15:44Z</time>
      </trkpt>
      <trkpt lat="45.03766" lon="5.63814">
        <ele>954.4</ele>
        <time>2021-01-16T14:15:45Z</time>
      </trkpt>
      <trkpt lat="45.03766" lon="5.63814">
        <ele>954.6</ele>
        <time>2021-01-16T14:15:46Z</time>
      </trkpt>
      <trkpt lat="45.03768" lon="5.63814">
        <ele>955</ele>
        <time>2021-01-16T14:15:47Z</time>
      </trkpt>
      <trkpt lat="45.03768" lon="5.63814">
        <ele>955.4</ele>
        <time>2021-01-16T14:15:48Z</time>
      </trkpt>
      <trkpt lat="45.03768" lon="5.63814">
        <ele>955.8</ele>
        <time>2021-01-16T14:15:49Z</time>
      </trkpt>
      <trkpt lat="45.03768" lon="5.63814">
        <ele>956</ele>
        <time>2021-01-16T14:15:50Z</time>
      </trkpt>
      <trkpt lat="45.03768" lon="5.63814">
        <ele>956.2</ele>
        <time>2021-01-16T14:15:51Z</time>
      </trkpt>
      <trkpt lat="45.03768" lon="5.63814">
        <ele>956.2</ele>
        <time>2021-01-16T14:15:52Z</time>
      </trkpt>
      <trkpt lat="45.03771" lon="5.63814">
        <ele>956.4</ele>
        <time>2021-01-16T14:15:53Z</time>
      </trkpt>
      <trkpt lat="45.03777" lon="5.63815">
        <ele>956.6</ele>
        <time>2021-01-16T14:15:54Z</time>
      </trkpt>
      <trkpt lat="45.03783" lon="5.63817">
        <ele>956.8</ele>
        <time>2021-01-16T14:15:55Z</time>
      </trkpt>
      <trkpt lat="45.03789" lon="5.63819">
        <ele>957.2</ele>
        <time>2021-01-16T14:15:56Z</time>
      </trkpt>
      <trkpt lat="45.03806" lon="5.63824">
        <ele>957.6</ele>
        <time>2021-01-16T14:15:57Z</time>
      </trkpt>
      <trkpt lat="45.03812" lon="5.63826">
        <ele>957.8</ele>
        <time>2021-01-16T14:15:58Z</time>
      </trkpt>
      <trkpt lat="45.03819" lon="5.63827">
        <ele>958.2</ele>
        <time>2021-01-16T14:15:59Z</time>
      </trkpt>
      <trkpt lat="45.03819" lon="5.63827">
        <ele>958.6</ele>
        <time>2021-01-16T14:16:00Z</time>
      </trkpt>
      <trkpt lat="45.03819" lon="5.63827">
        <ele>958.8</ele>
        <time>2021-01-16T14:16:01Z</time>
      </trkpt>
      <trkpt lat="45.03821" lon="5.63827">
        <ele>959</ele>
        <time>2021-01-16T14:16:02Z</time>
      </trkpt>
      <trkpt lat="45.03822" lon="5.63826">
        <ele>959</ele>
        <time>2021-01-16T14:16:03Z</time>
      </trkpt>
      <trkpt lat="45.03824" lon="5.63825">
        <ele>959.4</ele>
        <time>2021-01-16T14:16:04Z</time>
      </trkpt>
      <trkpt lat="45.03826" lon="5.63825">
        <ele>959.6</ele>
        <time>2021-01-16T14:16:05Z</time>
      </trkpt>
      <trkpt lat="45.03828" lon="5.63824">
        <ele>960</ele>
        <time>2021-01-16T14:16:06Z</time>
      </trkpt>
      <trkpt lat="45.03829" lon="5.63823">
        <ele>960.2</ele>
        <time>2021-01-16T14:16:07Z</time>
      </trkpt>
      <trkpt lat="45.0383" lon="5.63822">
        <ele>960.4</ele>
        <time>2021-01-16T14:16:08Z</time>
      </trkpt>
      <trkpt lat="45.03832" lon="5.63822">
        <ele>960.6</ele>
        <time>2021-01-16T14:16:09Z</time>
      </trkpt>
      <trkpt lat="45.03833" lon="5.63821">
        <ele>960.8</ele>
        <time>2021-01-16T14:16:10Z</time>
      </trkpt>
      <trkpt lat="45.03834" lon="5.6382">
        <ele>961</ele>
        <time>2021-01-16T14:16:11Z</time>
      </trkpt>
      <trkpt lat="45.03836" lon="5.63819">
        <ele>961.2</ele>
        <time>2021-01-16T14:16:12Z</time>
      </trkpt>
      <trkpt lat="45.03837" lon="5.63818">
        <ele>961.4</ele>
        <time>2021-01-16T14:16:13Z</time>
      </trkpt>
      <trkpt lat="45.03838" lon="5.63817">
        <ele>961.8</ele>
        <time>2021-01-16T14:16:14Z</time>
      </trkpt>
      <trkpt lat="45.03839" lon="5.63817">
        <ele>962.2</ele>
        <time>2021-01-16T14:16:15Z</time>
      </trkpt>
      <trkpt lat="45.0384" lon="5.63816">
        <ele>962.4</ele>
        <time>2021-01-16T14:16:16Z</time>
      </trkpt>
      <trkpt lat="45.03841" lon="5.63816">
        <ele>962.8</ele>
        <time>2021-01-16T14:16:17Z</time>
      </trkpt>
      <trkpt lat="45.03842" lon="5.63815">
        <ele>962.8</ele>
        <time>2021-01-16T14:16:18Z</time>
      </trkpt>
      <trkpt lat="45.03843" lon="5.63815">
        <ele>963.2</ele>
        <time>2021-01-16T14:16:19Z</time>
      </trkpt>
      <trkpt lat="45.03844" lon="5.63814">
        <ele>963.4</ele>
        <time>2021-01-16T14:16:20Z</time>
      </trkpt>
      <trkpt lat="45.03845" lon="5.63814">
        <ele>964</ele>
        <time>2021-01-16T14:16:21Z</time>
      </trkpt>
      <trkpt lat="45.03846" lon="5.63813">
        <ele>964.2</ele>
        <time>2021-01-16T14:16:22Z</time>
      </trkpt>
      <trkpt lat="45.03846" lon="5.63813">
        <ele>964.4</ele>
        <time>2021-01-16T14:16:23Z</time>
      </trkpt>
      <trkpt lat="45.03848" lon="5.63812">
        <ele>964.6</ele>
        <time>2021-01-16T14:16:24Z</time>
      </trkpt>
      <trkpt lat="45.03848" lon="5.63812">
        <ele>965</ele>
        <time>2021-01-16T14:16:25Z</time>
      </trkpt>
      <trkpt lat="45.03851" lon="5.63812">
        <ele>965</ele>
        <time>2021-01-16T14:16:26Z</time>
      </trkpt>
      <trkpt lat="45.03853" lon="5.63812">
        <ele>965</ele>
        <time>2021-01-16T14:16:27Z</time>
      </trkpt>
      <trkpt lat="45.03856" lon="5.63812">
        <ele>965.2</ele>
        <time>2021-01-16T14:16:28Z</time>
      </trkpt>
      <trkpt lat="45.03856" lon="5.63812">
        <ele>965.6</ele>
        <time>2021-01-16T14:16:29Z</time>
      </trkpt>
      <trkpt lat="45.03858" lon="5.63811">
        <ele>965.8</ele>
        <time>2021-01-16T14:16:30Z</time>
      </trkpt>
      <trkpt lat="45.0386" lon="5.63809">
        <ele>966</ele>
        <time>2021-01-16T14:16:31Z</time>
      </trkpt>
      <trkpt lat="45.0386" lon="5.63809">
        <ele>966</ele>
        <time>2021-01-16T14:16:32Z</time>
      </trkpt>
      <trkpt lat="45.0386" lon="5.63809">
        <ele>966.4</ele>
        <time>2021-01-16T14:16:33Z</time>
      </trkpt>
      <trkpt lat="45.03862" lon="5.63808">
        <ele>966.8</ele>
        <time>2021-01-16T14:16:34Z</time>
      </trkpt>
      <trkpt lat="45.03862" lon="5.63808">
        <ele>967</ele>
        <time>2021-01-16T14:16:35Z</time>
      </trkpt>
      <trkpt lat="45.03865" lon="5.63808">
        <ele>967.6</ele>
        <time>2021-01-16T14:16:36Z</time>
      </trkpt>
      <trkpt lat="45.03867" lon="5.63807">
        <ele>967.8</ele>
        <time>2021-01-16T14:16:37Z</time>
      </trkpt>
      <trkpt lat="45.03867" lon="5.63807">
        <ele>968.2</ele>
        <time>2021-01-16T14:16:38Z</time>
      </trkpt>
      <trkpt lat="45.03867" lon="5.63807">
        <ele>968.4</ele>
        <time>2021-01-16T14:16:39Z</time>
      </trkpt>
      <trkpt lat="45.0387" lon="5.63806">
        <ele>968.6</ele>
        <time>2021-01-16T14:16:40Z</time>
      </trkpt>
      <trkpt lat="45.0387" lon="5.63806">
        <ele>968.8</ele>
        <time>2021-01-16T14:16:41Z</time>
      </trkpt>
      <trkpt lat="45.03871" lon="5.63806">
        <ele>969</ele>
        <time>2021-01-16T14:16:42Z</time>
      </trkpt>
      <trkpt lat="45.03871" lon="5.63806">
        <ele>969.2</ele>
        <time>2021-01-16T14:16:43Z</time>
      </trkpt>
      <trkpt lat="45.03871" lon="5.63806">
        <ele>969.4</ele>
        <time>2021-01-16T14:16:44Z</time>
      </trkpt>
      <trkpt lat="45.03874" lon="5.63805">
        <ele>969.6</ele>
        <time>2021-01-16T14:16:45Z</time>
      </trkpt>
      <trkpt lat="45.03874" lon="5.63805">
        <ele>969.8</ele>
        <time>2021-01-16T14:16:46Z</time>
      </trkpt>
      <trkpt lat="45.03876" lon="5.63805">
        <ele>970</ele>
        <time>2021-01-16T14:16:47Z</time>
      </trkpt>
      <trkpt lat="45.03876" lon="5.63805">
        <ele>970.4</ele>
        <time>2021-01-16T14:16:48Z</time>
      </trkpt>
      <trkpt lat="45.03876" lon="5.63805">
        <ele>970.6</ele>
        <time>2021-01-16T14:16:49Z</time>
      </trkpt>
      <trkpt lat="45.03876" lon="5.63805">
        <ele>971</ele>
        <time>2021-01-16T14:16:50Z</time>
      </trkpt>
      <trkpt lat="45.03878" lon="5.63806">
        <ele>971.2</ele>
        <time>2021-01-16T14:16:51Z</time>
      </trkpt>
      <trkpt lat="45.03878" lon="5.63806">
        <ele>971.4</ele>
        <time>2021-01-16T14:16:52Z</time>
      </trkpt>
      <trkpt lat="45.03878" lon="5.63806">
        <ele>971.8</ele>
        <time>2021-01-16T14:16:53Z</time>
      </trkpt>
      <trkpt lat="45.03879" lon="5.63808">
        <ele>971.6</ele>
        <time>2021-01-16T14:16:54Z</time>
      </trkpt>
      <trkpt lat="45.03879" lon="5.63808">
        <ele>971.8</ele>
        <time>2021-01-16T14:16:55Z</time>
      </trkpt>
      <trkpt lat="45.03879" lon="5.63808">
        <ele>971.8</ele>
        <time>2021-01-16T14:16:56Z</time>
      </trkpt>
      <trkpt lat="45.03879" lon="5.63808">
        <ele>972</ele>
        <time>2021-01-16T14:16:57Z</time>
      </trkpt>
      <trkpt lat="45.03879" lon="5.63808">
        <ele>972.4</ele>
        <time>2021-01-16T14:16:58Z</time>
      </trkpt>
      <trkpt lat="45.03881" lon="5.63808">
        <ele>972.6</ele>
        <time>2021-01-16T14:16:59Z</time>
      </trkpt>
      <trkpt lat="45.03881" lon="5.63808">
        <ele>972.8</ele>
        <time>2021-01-16T14:17:00Z</time>
      </trkpt>
      <trkpt lat="45.03881" lon="5.63808">
        <ele>973</ele>
        <time>2021-01-16T14:17:01Z</time>
      </trkpt>
      <trkpt lat="45.03881" lon="5.63808">
        <ele>973.4</ele>
        <time>2021-01-16T14:17:02Z</time>
      </trkpt>
      <trkpt lat="45.03881" lon="5.63808">
        <ele>973.6</ele>
        <time>2021-01-16T14:17:03Z</time>
      </trkpt>
      <trkpt lat="45.03881" lon="5.63808">
        <ele>973.8</ele>
        <time>2021-01-16T14:17:04Z</time>
      </trkpt>
      <trkpt lat="45.03883" lon="5.63807">
        <ele>974.2</ele>
        <time>2021-01-16T14:17:05Z</time>
      </trkpt>
      <trkpt lat="45.03883" lon="5.63807">
        <ele>974.4</ele>
        <time>2021-01-16T14:17:06Z</time>
      </trkpt>
      <trkpt lat="45.03883" lon="5.63807">
        <ele>974.8</ele>
        <time>2021-01-16T14:17:07Z</time>
      </trkpt>
      <trkpt lat="45.03884" lon="5.63806">
        <ele>975.2</ele>
        <time>2021-01-16T14:17:08Z</time>
      </trkpt>
      <trkpt lat="45.03885" lon="5.63806">
        <ele>975.4</ele>
        <time>2021-01-16T14:17:09Z</time>
      </trkpt>
      <trkpt lat="45.03886" lon="5.63805">
        <ele>975.6</ele>
        <time>2021-01-16T14:17:10Z</time>
      </trkpt>
      <trkpt lat="45.03887" lon="5.63804">
        <ele>975.8</ele>
        <time>2021-01-16T14:17:11Z</time>
      </trkpt>
      <trkpt lat="45.03888" lon="5.63804">
        <ele>975.8</ele>
        <time>2021-01-16T14:17:12Z</time>
      </trkpt>
      <trkpt lat="45.03889" lon="5.63803">
        <ele>976.2</ele>
        <time>2021-01-16T14:17:13Z</time>
      </trkpt>
      <trkpt lat="45.0389" lon="5.63802">
        <ele>976.4</ele>
        <time>2021-01-16T14:17:14Z</time>
      </trkpt>
      <trkpt lat="45.0389" lon="5.63802">
        <ele>976.8</ele>
        <time>2021-01-16T14:17:15Z</time>
      </trkpt>
      <trkpt lat="45.03891" lon="5.63801">
        <ele>977</ele>
        <time>2021-01-16T14:17:16Z</time>
      </trkpt>
      <trkpt lat="45.03892" lon="5.638">
        <ele>977.4</ele>
        <time>2021-01-16T14:17:17Z</time>
      </trkpt>
      <trkpt lat="45.03893" lon="5.638">
        <ele>977.6</ele>
        <time>2021-01-16T14:17:18Z</time>
      </trkpt>
      <trkpt lat="45.03894" lon="5.638">
        <ele>978.2</ele>
        <time>2021-01-16T14:17:19Z</time>
      </trkpt>
      <trkpt lat="45.03894" lon="5.63799">
        <ele>978.4</ele>
        <time>2021-01-16T14:17:20Z</time>
      </trkpt>
      <trkpt lat="45.03895" lon="5.63799">
        <ele>978.8</ele>
        <time>2021-01-16T14:17:21Z</time>
      </trkpt>
      <trkpt lat="45.03896" lon="5.63798">
        <ele>979</ele>
        <time>2021-01-16T14:17:22Z</time>
      </trkpt>
      <trkpt lat="45.03897" lon="5.63798">
        <ele>979.4</ele>
        <time>2021-01-16T14:17:23Z</time>
      </trkpt>
      <trkpt lat="45.03897" lon="5.63798">
        <ele>979.4</ele>
        <time>2021-01-16T14:17:24Z</time>
      </trkpt>
      <trkpt lat="45.03898" lon="5.63797">
        <ele>979.6</ele>
        <time>2021-01-16T14:17:25Z</time>
      </trkpt>
      <trkpt lat="45.03899" lon="5.63797">
        <ele>980</ele>
        <time>2021-01-16T14:17:26Z</time>
      </trkpt>
      <trkpt lat="45.03899" lon="5.63797">
        <ele>980.2</ele>
        <time>2021-01-16T14:17:27Z</time>
      </trkpt>
      <trkpt lat="45.039" lon="5.63796">
        <ele>980.2</ele>
        <time>2021-01-16T14:17:28Z</time>
      </trkpt>
      <trkpt lat="45.03901" lon="5.63796">
        <ele>980.6</ele>
        <time>2021-01-16T14:17:29Z</time>
      </trkpt>
      <trkpt lat="45.03902" lon="5.63795">
        <ele>980.6</ele>
        <time>2021-01-16T14:17:30Z</time>
      </trkpt>
      <trkpt lat="45.03902" lon="5.63795">
        <ele>981</ele>
        <time>2021-01-16T14:17:31Z</time>
      </trkpt>
      <trkpt lat="45.03903" lon="5.63795">
        <ele>981.2</ele>
        <time>2021-01-16T14:17:32Z</time>
      </trkpt>
      <trkpt lat="45.03904" lon="5.63795">
        <ele>981.6</ele>
        <time>2021-01-16T14:17:33Z</time>
      </trkpt>
      <trkpt lat="45.03905" lon="5.63794">
        <ele>981.8</ele>
        <time>2021-01-16T14:17:34Z</time>
      </trkpt>
      <trkpt lat="45.03905" lon="5.63794">
        <ele>982</ele>
        <time>2021-01-16T14:17:35Z</time>
      </trkpt>
      <trkpt lat="45.03906" lon="5.63794">
        <ele>982.2</ele>
        <time>2021-01-16T14:17:36Z</time>
      </trkpt>
      <trkpt lat="45.03907" lon="5.63793">
        <ele>982.4</ele>
        <time>2021-01-16T14:17:37Z</time>
      </trkpt>
      <trkpt lat="45.03907" lon="5.63793">
        <ele>982.8</ele>
        <time>2021-01-16T14:17:38Z</time>
      </trkpt>
      <trkpt lat="45.03908" lon="5.63793">
        <ele>983</ele>
        <time>2021-01-16T14:17:39Z</time>
      </trkpt>
      <trkpt lat="45.03909" lon="5.63793">
        <ele>983.2</ele>
        <time>2021-01-16T14:17:40Z</time>
      </trkpt>
      <trkpt lat="45.0391" lon="5.63792">
        <ele>983.4</ele>
        <time>2021-01-16T14:17:41Z</time>
      </trkpt>
      <trkpt lat="45.0391" lon="5.63792">
        <ele>983.6</ele>
        <time>2021-01-16T14:17:42Z</time>
      </trkpt>
      <trkpt lat="45.03913" lon="5.6379">
        <ele>983.6</ele>
        <time>2021-01-16T14:17:43Z</time>
      </trkpt>
      <trkpt lat="45.03913" lon="5.6379">
        <ele>983.8</ele>
        <time>2021-01-16T14:17:44Z</time>
      </trkpt>
      <trkpt lat="45.03913" lon="5.6379">
        <ele>984</ele>
        <time>2021-01-16T14:17:45Z</time>
      </trkpt>
      <trkpt lat="45.03913" lon="5.6379">
        <ele>984.2</ele>
        <time>2021-01-16T14:17:46Z</time>
      </trkpt>
      <trkpt lat="45.03915" lon="5.63788">
        <ele>984.8</ele>
        <time>2021-01-16T14:17:47Z</time>
      </trkpt>
      <trkpt lat="45.03915" lon="5.63788">
        <ele>985.2</ele>
        <time>2021-01-16T14:17:48Z</time>
      </trkpt>
      <trkpt lat="45.03915" lon="5.63788">
        <ele>985.6</ele>
        <time>2021-01-16T14:17:49Z</time>
      </trkpt>
      <trkpt lat="45.03915" lon="5.63788">
        <ele>986</ele>
        <time>2021-01-16T14:17:50Z</time>
      </trkpt>
      <trkpt lat="45.03915" lon="5.63788">
        <ele>986</ele>
        <time>2021-01-16T14:17:51Z</time>
      </trkpt>
      <trkpt lat="45.03917" lon="5.63786">
        <ele>986</ele>
        <time>2021-01-16T14:17:52Z</time>
      </trkpt>
      <trkpt lat="45.03917" lon="5.63786">
        <ele>986.2</ele>
        <time>2021-01-16T14:17:53Z</time>
      </trkpt>
      <trkpt lat="45.03917" lon="5.63786">
        <ele>986</ele>
        <time>2021-01-16T14:17:54Z</time>
      </trkpt>
      <trkpt lat="45.03917" lon="5.63786">
        <ele>986.2</ele>
        <time>2021-01-16T14:17:55Z</time>
      </trkpt>
      <trkpt lat="45.03917" lon="5.63786">
        <ele>986.2</ele>
        <time>2021-01-16T14:17:56Z</time>
      </trkpt>
      <trkpt lat="45.03919" lon="5.63783">
        <ele>986.6</ele>
        <time>2021-01-16T14:17:57Z</time>
      </trkpt>
      <trkpt lat="45.03919" lon="5.63783">
        <ele>986.8</ele>
        <time>2021-01-16T14:17:58Z</time>
      </trkpt>
      <trkpt lat="45.03919" lon="5.63783">
        <ele>987</ele>
        <time>2021-01-16T14:17:59Z</time>
      </trkpt>
      <trkpt lat="45.03922" lon="5.63782">
        <ele>987.2</ele>
        <time>2021-01-16T14:18:00Z</time>
      </trkpt>
      <trkpt lat="45.03922" lon="5.63782">
        <ele>987.6</ele>
        <time>2021-01-16T14:18:01Z</time>
      </trkpt>
      <trkpt lat="45.03922" lon="5.63782">
        <ele>987.8</ele>
        <time>2021-01-16T14:18:02Z</time>
      </trkpt>
      <trkpt lat="45.03922" lon="5.63782">
        <ele>987.8</ele>
        <time>2021-01-16T14:18:03Z</time>
      </trkpt>
      <trkpt lat="45.03925" lon="5.63781">
        <ele>988.2</ele>
        <time>2021-01-16T14:18:04Z</time>
      </trkpt>
      <trkpt lat="45.03925" lon="5.63781">
        <ele>988.4</ele>
        <time>2021-01-16T14:18:05Z</time>
      </trkpt>
      <trkpt lat="45.03925" lon="5.63781">
        <ele>988.6</ele>
        <time>2021-01-16T14:18:06Z</time>
      </trkpt>
      <trkpt lat="45.03927" lon="5.6378">
        <ele>989.2</ele>
        <time>2021-01-16T14:18:07Z</time>
      </trkpt>
      <trkpt lat="45.03927" lon="5.6378">
        <ele>989.4</ele>
        <time>2021-01-16T14:18:08Z</time>
      </trkpt>
      <trkpt lat="45.03927" lon="5.6378">
        <ele>989.4</ele>
        <time>2021-01-16T14:18:09Z</time>
      </trkpt>
      <trkpt lat="45.03929" lon="5.63779">
        <ele>989.6</ele>
        <time>2021-01-16T14:18:10Z</time>
      </trkpt>
      <trkpt lat="45.03929" lon="5.63779">
        <ele>990</ele>
        <time>2021-01-16T14:18:11Z</time>
      </trkpt>
      <trkpt lat="45.03931" lon="5.63778">
        <ele>990.2</ele>
        <time>2021-01-16T14:18:12Z</time>
      </trkpt>
      <trkpt lat="45.03931" lon="5.63778">
        <ele>990.6</ele>
        <time>2021-01-16T14:18:13Z</time>
      </trkpt>
      <trkpt lat="45.03931" lon="5.63778">
        <ele>991</ele>
        <time>2021-01-16T14:18:14Z</time>
      </trkpt>
      <trkpt lat="45.03933" lon="5.63776">
        <ele>991</ele>
        <time>2021-01-16T14:18:15Z</time>
      </trkpt>
      <trkpt lat="45.03933" lon="5.63776">
        <ele>991.2</ele>
        <time>2021-01-16T14:18:16Z</time>
      </trkpt>
      <trkpt lat="45.03933" lon="5.63776">
        <ele>991.6</ele>
        <time>2021-01-16T14:18:17Z</time>
      </trkpt>
      <trkpt lat="45.03933" lon="5.63776">
        <ele>991.8</ele>
        <time>2021-01-16T14:18:18Z</time>
      </trkpt>
      <trkpt lat="45.03933" lon="5.63776">
        <ele>992</ele>
        <time>2021-01-16T14:18:19Z</time>
      </trkpt>
      <trkpt lat="45.03935" lon="5.63775">
        <ele>992.4</ele>
        <time>2021-01-16T14:18:20Z</time>
      </trkpt>
      <trkpt lat="45.03935" lon="5.63775">
        <ele>992.4</ele>
        <time>2021-01-16T14:18:21Z</time>
      </trkpt>
      <trkpt lat="45.03935" lon="5.63775">
        <ele>992.6</ele>
        <time>2021-01-16T14:18:22Z</time>
      </trkpt>
      <trkpt lat="45.03935" lon="5.63775">
        <ele>992.8</ele>
        <time>2021-01-16T14:18:23Z</time>
      </trkpt>
      <trkpt lat="45.03935" lon="5.63775">
        <ele>993</ele>
        <time>2021-01-16T14:18:24Z</time>
      </trkpt>
      <trkpt lat="45.03937" lon="5.63775">
        <ele>993.2</ele>
        <time>2021-01-16T14:18:25Z</time>
      </trkpt>
      <trkpt lat="45.03937" lon="5.63775">
        <ele>993.4</ele>
        <time>2021-01-16T14:18:26Z</time>
      </trkpt>
      <trkpt lat="45.03937" lon="5.63775">
        <ele>993.6</ele>
        <time>2021-01-16T14:18:27Z</time>
      </trkpt>
      <trkpt lat="45.03939" lon="5.63776">
        <ele>994.2</ele>
        <time>2021-01-16T14:18:28Z</time>
      </trkpt>
      <trkpt lat="45.03939" lon="5.63776">
        <ele>994.8</ele>
        <time>2021-01-16T14:18:29Z</time>
      </trkpt>
      <trkpt lat="45.03941" lon="5.63777">
        <ele>995</ele>
        <time>2021-01-16T14:18:30Z</time>
      </trkpt>
      <trkpt lat="45.03941" lon="5.63777">
        <ele>995.4</ele>
        <time>2021-01-16T14:18:31Z</time>
      </trkpt>
      <trkpt lat="45.03944" lon="5.63777">
        <ele>995.4</ele>
        <time>2021-01-16T14:18:32Z</time>
      </trkpt>
      <trkpt lat="45.03944" lon="5.63777">
        <ele>995.6</ele>
        <time>2021-01-16T14:18:33Z</time>
      </trkpt>
      <trkpt lat="45.03946" lon="5.63778">
        <ele>995.8</ele>
        <time>2021-01-16T14:18:34Z</time>
      </trkpt>
      <trkpt lat="45.03946" lon="5.63778">
        <ele>996</ele>
        <time>2021-01-16T14:18:35Z</time>
      </trkpt>
      <trkpt lat="45.03946" lon="5.63778">
        <ele>996.2</ele>
        <time>2021-01-16T14:18:36Z</time>
      </trkpt>
      <trkpt lat="45.03946" lon="5.63778">
        <ele>996.4</ele>
        <time>2021-01-16T14:18:37Z</time>
      </trkpt>
      <trkpt lat="45.03946" lon="5.63778">
        <ele>996.8</ele>
        <time>2021-01-16T14:18:38Z</time>
      </trkpt>
      <trkpt lat="45.03948" lon="5.63777">
        <ele>997</ele>
        <time>2021-01-16T14:18:39Z</time>
      </trkpt>
      <trkpt lat="45.03948" lon="5.63777">
        <ele>997.4</ele>
        <time>2021-01-16T14:18:40Z</time>
      </trkpt>
      <trkpt lat="45.03948" lon="5.63777">
        <ele>997.6</ele>
        <time>2021-01-16T14:18:41Z</time>
      </trkpt>
      <trkpt lat="45.03949" lon="5.63777">
        <ele>997.8</ele>
        <time>2021-01-16T14:18:42Z</time>
      </trkpt>
      <trkpt lat="45.03949" lon="5.63777">
        <ele>998.2</ele>
        <time>2021-01-16T14:18:43Z</time>
      </trkpt>
      <trkpt lat="45.0395" lon="5.63777">
        <ele>998.4</ele>
        <time>2021-01-16T14:18:44Z</time>
      </trkpt>
      <trkpt lat="45.03951" lon="5.63777">
        <ele>998.6</ele>
        <time>2021-01-16T14:18:45Z</time>
      </trkpt>
      <trkpt lat="45.03952" lon="5.63777">
        <ele>998.8</ele>
        <time>2021-01-16T14:18:46Z</time>
      </trkpt>
      <trkpt lat="45.03953" lon="5.63777">
        <ele>999</ele>
        <time>2021-01-16T14:18:47Z</time>
      </trkpt>
      <trkpt lat="45.03953" lon="5.63777">
        <ele>999.4</ele>
        <time>2021-01-16T14:18:48Z</time>
      </trkpt>
      <trkpt lat="45.03954" lon="5.63777">
        <ele>999.2</ele>
        <time>2021-01-16T14:18:49Z</time>
      </trkpt>
      <trkpt lat="45.03955" lon="5.63777">
        <ele>999.6</ele>
        <time>2021-01-16T14:18:50Z</time>
      </trkpt>
      <trkpt lat="45.03956" lon="5.63776">
        <ele>999.8</ele>
        <time>2021-01-16T14:18:51Z</time>
      </trkpt>
      <trkpt lat="45.03956" lon="5.63776">
        <ele>1000</ele>
        <time>2021-01-16T14:18:52Z</time>
      </trkpt>
      <trkpt lat="45.03957" lon="5.63776">
        <ele>1000.2</ele>
        <time>2021-01-16T14:18:53Z</time>
      </trkpt>
      <trkpt lat="45.03957" lon="5.63776">
        <ele>1000.6</ele>
        <time>2021-01-16T14:18:54Z</time>
      </trkpt>
      <trkpt lat="45.03959" lon="5.63777">
        <ele>1000.8</ele>
        <time>2021-01-16T14:18:55Z</time>
      </trkpt>
      <trkpt lat="45.03959" lon="5.63777">
        <ele>1001</ele>
        <time>2021-01-16T14:18:56Z</time>
      </trkpt>
      <trkpt lat="45.03962" lon="5.63777">
        <ele>1001.2</ele>
        <time>2021-01-16T14:18:57Z</time>
      </trkpt>
      <trkpt lat="45.03962" lon="5.63777">
        <ele>1001.4</ele>
        <time>2021-01-16T14:18:58Z</time>
      </trkpt>
      <trkpt lat="45.03964" lon="5.63777">
        <ele>1001.8</ele>
        <time>2021-01-16T14:18:59Z</time>
      </trkpt>
      <trkpt lat="45.03964" lon="5.63777">
        <ele>1002</ele>
        <time>2021-01-16T14:19:00Z</time>
      </trkpt>
      <trkpt lat="45.03964" lon="5.63777">
        <ele>1002</ele>
        <time>2021-01-16T14:19:01Z</time>
      </trkpt>
      <trkpt lat="45.03968" lon="5.63776">
        <ele>1002.4</ele>
        <time>2021-01-16T14:19:02Z</time>
      </trkpt>
      <trkpt lat="45.03968" lon="5.63776">
        <ele>1002.6</ele>
        <time>2021-01-16T14:19:03Z</time>
      </trkpt>
      <trkpt lat="45.03968" lon="5.63776">
        <ele>1003</ele>
        <time>2021-01-16T14:19:04Z</time>
      </trkpt>
      <trkpt lat="45.03971" lon="5.63776">
        <ele>1003.2</ele>
        <time>2021-01-16T14:19:05Z</time>
      </trkpt>
      <trkpt lat="45.03971" lon="5.63776">
        <ele>1003.4</ele>
        <time>2021-01-16T14:19:06Z</time>
      </trkpt>
      <trkpt lat="45.03971" lon="5.63776">
        <ele>1003.6</ele>
        <time>2021-01-16T14:19:07Z</time>
      </trkpt>
      <trkpt lat="45.03971" lon="5.63776">
        <ele>1003.8</ele>
        <time>2021-01-16T14:19:08Z</time>
      </trkpt>
      <trkpt lat="45.03973" lon="5.63777">
        <ele>1004</ele>
        <time>2021-01-16T14:19:09Z</time>
      </trkpt>
      <trkpt lat="45.03973" lon="5.63777">
        <ele>1004.4</ele>
        <time>2021-01-16T14:19:10Z</time>
      </trkpt>
      <trkpt lat="45.03973" lon="5.63777">
        <ele>1004.6</ele>
        <time>2021-01-16T14:19:11Z</time>
      </trkpt>
      <trkpt lat="45.03973" lon="5.63777">
        <ele>1004.8</ele>
        <time>2021-01-16T14:19:12Z</time>
      </trkpt>
      <trkpt lat="45.03973" lon="5.63777">
        <ele>1005</ele>
        <time>2021-01-16T14:19:13Z</time>
      </trkpt>
      <trkpt lat="45.03975" lon="5.63777">
        <ele>1005.2</ele>
        <time>2021-01-16T14:19:14Z</time>
      </trkpt>
      <trkpt lat="45.03975" lon="5.63777">
        <ele>1005.4</ele>
        <time>2021-01-16T14:19:15Z</time>
      </trkpt>
      <trkpt lat="45.03975" lon="5.63777">
        <ele>1005.6</ele>
        <time>2021-01-16T14:19:16Z</time>
      </trkpt>
      <trkpt lat="45.03975" lon="5.63777">
        <ele>1006</ele>
        <time>2021-01-16T14:19:17Z</time>
      </trkpt>
      <trkpt lat="45.03978" lon="5.63776">
        <ele>1006.2</ele>
        <time>2021-01-16T14:19:18Z</time>
      </trkpt>
      <trkpt lat="45.03978" lon="5.63776">
        <ele>1006.6</ele>
        <time>2021-01-16T14:19:19Z</time>
      </trkpt>
      <trkpt lat="45.03978" lon="5.63776">
        <ele>1006.8</ele>
        <time>2021-01-16T14:19:20Z</time>
      </trkpt>
      <trkpt lat="45.03978" lon="5.63776">
        <ele>1007</ele>
        <time>2021-01-16T14:19:21Z</time>
      </trkpt>
      <trkpt lat="45.03978" lon="5.63776">
        <ele>1007.4</ele>
        <time>2021-01-16T14:19:22Z</time>
      </trkpt>
      <trkpt lat="45.03978" lon="5.63776">
        <ele>1007.6</ele>
        <time>2021-01-16T14:19:23Z</time>
      </trkpt>
      <trkpt lat="45.03978" lon="5.63776">
        <ele>1007.8</ele>
        <time>2021-01-16T14:19:24Z</time>
      </trkpt>
      <trkpt lat="45.03978" lon="5.63776">
        <ele>1008.2</ele>
        <time>2021-01-16T14:19:25Z</time>
      </trkpt>
      <trkpt lat="45.03978" lon="5.63776">
        <ele>1008.4</ele>
        <time>2021-01-16T14:19:26Z</time>
      </trkpt>
      <trkpt lat="45.03979" lon="5.63774">
        <ele>1008.4</ele>
        <time>2021-01-16T14:19:27Z</time>
      </trkpt>
      <trkpt lat="45.0398" lon="5.63774">
        <ele>1008.8</ele>
        <time>2021-01-16T14:19:28Z</time>
      </trkpt>
      <trkpt lat="45.03982" lon="5.63773">
        <ele>1008.8</ele>
        <time>2021-01-16T14:19:29Z</time>
      </trkpt>
      <trkpt lat="45.03983" lon="5.63773">
        <ele>1009</ele>
        <time>2021-01-16T14:19:30Z</time>
      </trkpt>
      <trkpt lat="45.03984" lon="5.63772">
        <ele>1009.2</ele>
        <time>2021-01-16T14:19:31Z</time>
      </trkpt>
      <trkpt lat="45.03985" lon="5.63772">
        <ele>1009.6</ele>
        <time>2021-01-16T14:19:32Z</time>
      </trkpt>
      <trkpt lat="45.03986" lon="5.63771">
        <ele>1009.8</ele>
        <time>2021-01-16T14:19:33Z</time>
      </trkpt>
      <trkpt lat="45.03987" lon="5.63771">
        <ele>1010</ele>
        <time>2021-01-16T14:19:34Z</time>
      </trkpt>
      <trkpt lat="45.03988" lon="5.63771">
        <ele>1010.4</ele>
        <time>2021-01-16T14:19:35Z</time>
      </trkpt>
      <trkpt lat="45.03989" lon="5.6377">
        <ele>1010.6</ele>
        <time>2021-01-16T14:19:36Z</time>
      </trkpt>
      <trkpt lat="45.03991" lon="5.6377">
        <ele>1011</ele>
        <time>2021-01-16T14:19:37Z</time>
      </trkpt>
      <trkpt lat="45.03992" lon="5.63769">
        <ele>1011.2</ele>
        <time>2021-01-16T14:19:38Z</time>
      </trkpt>
      <trkpt lat="45.03993" lon="5.63769">
        <ele>1011.4</ele>
        <time>2021-01-16T14:19:39Z</time>
      </trkpt>
      <trkpt lat="45.03994" lon="5.63768">
        <ele>1011.8</ele>
        <time>2021-01-16T14:19:40Z</time>
      </trkpt>
      <trkpt lat="45.03995" lon="5.63768">
        <ele>1011.8</ele>
        <time>2021-01-16T14:19:41Z</time>
      </trkpt>
      <trkpt lat="45.03996" lon="5.63768">
        <ele>1012.2</ele>
        <time>2021-01-16T14:19:42Z</time>
      </trkpt>
      <trkpt lat="45.03997" lon="5.63767">
        <ele>1012.6</ele>
        <time>2021-01-16T14:19:43Z</time>
      </trkpt>
      <trkpt lat="45.03998" lon="5.63767">
        <ele>1012.8</ele>
        <time>2021-01-16T14:19:44Z</time>
      </trkpt>
      <trkpt lat="45.04" lon="5.63766">
        <ele>1013</ele>
        <time>2021-01-16T14:19:45Z</time>
      </trkpt>
      <trkpt lat="45.04" lon="5.63766">
        <ele>1013.2</ele>
        <time>2021-01-16T14:19:46Z</time>
      </trkpt>
      <trkpt lat="45.04" lon="5.63766">
        <ele>1013.4</ele>
        <time>2021-01-16T14:19:47Z</time>
      </trkpt>
      <trkpt lat="45.04001" lon="5.63765">
        <ele>1013.6</ele>
        <time>2021-01-16T14:19:48Z</time>
      </trkpt>
      <trkpt lat="45.04001" lon="5.63765">
        <ele>1014</ele>
        <time>2021-01-16T14:19:49Z</time>
      </trkpt>
      <trkpt lat="45.04001" lon="5.63765">
        <ele>1014.2</ele>
        <time>2021-01-16T14:19:50Z</time>
      </trkpt>
      <trkpt lat="45.04002" lon="5.63764">
        <ele>1014.2</ele>
        <time>2021-01-16T14:19:51Z</time>
      </trkpt>
      <trkpt lat="45.04002" lon="5.63764">
        <ele>1014.4</ele>
        <time>2021-01-16T14:19:52Z</time>
      </trkpt>
      <trkpt lat="45.04002" lon="5.63763">
        <ele>1014.4</ele>
        <time>2021-01-16T14:19:53Z</time>
      </trkpt>
      <trkpt lat="45.04003" lon="5.63763">
        <ele>1014.6</ele>
        <time>2021-01-16T14:19:54Z</time>
      </trkpt>
      <trkpt lat="45.04003" lon="5.63763">
        <ele>1014.8</ele>
        <time>2021-01-16T14:19:55Z</time>
      </trkpt>
      <trkpt lat="45.04003" lon="5.63762">
        <ele>1015</ele>
        <time>2021-01-16T14:19:56Z</time>
      </trkpt>
      <trkpt lat="45.04004" lon="5.63762">
        <ele>1015.4</ele>
        <time>2021-01-16T14:19:57Z</time>
      </trkpt>
      <trkpt lat="45.04004" lon="5.63762">
        <ele>1015.4</ele>
        <time>2021-01-16T14:19:58Z</time>
      </trkpt>
      <trkpt lat="45.04008" lon="5.63757">
        <ele>1015.8</ele>
        <time>2021-01-16T14:19:59Z</time>
      </trkpt>
      <trkpt lat="45.04008" lon="5.63757">
        <ele>1016</ele>
        <time>2021-01-16T14:20:01Z</time>
      </trkpt>
      <trkpt lat="45.04008" lon="5.63757">
        <ele>1016.2</ele>
        <time>2021-01-16T14:20:02Z</time>
      </trkpt>
      <trkpt lat="45.04009" lon="5.63757">
        <ele>1016.4</ele>
        <time>2021-01-16T14:20:03Z</time>
      </trkpt>
      <trkpt lat="45.04009" lon="5.63757">
        <ele>1016.4</ele>
        <time>2021-01-16T14:20:04Z</time>
      </trkpt>
      <trkpt lat="45.04009" lon="5.63757">
        <ele>1016.6</ele>
        <time>2021-01-16T14:20:05Z</time>
      </trkpt>
      <trkpt lat="45.0401" lon="5.63758">
        <ele>1016.8</ele>
        <time>2021-01-16T14:20:06Z</time>
      </trkpt>
      <trkpt lat="45.0401" lon="5.63758">
        <ele>1016.6</ele>
        <time>2021-01-16T14:20:07Z</time>
      </trkpt>
      <trkpt lat="45.0401" lon="5.63758">
        <ele>1016.4</ele>
        <time>2021-01-16T14:20:08Z</time>
      </trkpt>
      <trkpt lat="45.0401" lon="5.63758">
        <ele>1016.2</ele>
        <time>2021-01-16T14:20:09Z</time>
      </trkpt>
      <trkpt lat="45.04011" lon="5.63758">
        <ele>1016.2</ele>
        <time>2021-01-16T14:20:10Z</time>
      </trkpt>
      <trkpt lat="45.04011" lon="5.63758">
        <ele>1016.2</ele>
        <time>2021-01-16T14:20:11Z</time>
      </trkpt>
      <trkpt lat="45.04011" lon="5.63758">
        <ele>1016.2</ele>
        <time>2021-01-16T14:20:12Z</time>
      </trkpt>
      <trkpt lat="45.04012" lon="5.63758">
        <ele>1016.2</ele>
        <time>2021-01-16T14:20:13Z</time>
      </trkpt>
      <trkpt lat="45.04012" lon="5.63758">
        <ele>1016</ele>
        <time>2021-01-16T14:20:14Z</time>
      </trkpt>
      <trkpt lat="45.04012" lon="5.63758">
        <ele>1015.8</ele>
        <time>2021-01-16T14:20:15Z</time>
      </trkpt>
      <trkpt lat="45.04013" lon="5.63758">
        <ele>1015.6</ele>
        <time>2021-01-16T14:20:16Z</time>
      </trkpt>
      <trkpt lat="45.04013" lon="5.63758">
        <ele>1015.6</ele>
        <time>2021-01-16T14:20:17Z</time>
      </trkpt>
      <trkpt lat="45.04013" lon="5.63758">
        <ele>1015.6</ele>
        <time>2021-01-16T14:20:18Z</time>
      </trkpt>
      <trkpt lat="45.04013" lon="5.63758">
        <ele>1015.6</ele>
        <time>2021-01-16T14:20:19Z</time>
      </trkpt>
      <trkpt lat="45.04014" lon="5.63758">
        <ele>1015.8</ele>
        <time>2021-01-16T14:20:20Z</time>
      </trkpt>
      <trkpt lat="45.04014" lon="5.63758">
        <ele>1016</ele>
        <time>2021-01-16T14:20:21Z</time>
      </trkpt>
      <trkpt lat="45.04014" lon="5.63758">
        <ele>1016.4</ele>
        <time>2021-01-16T14:20:22Z</time>
      </trkpt>
      <trkpt lat="45.04015" lon="5.63758">
        <ele>1016.6</ele>
        <time>2021-01-16T14:20:23Z</time>
      </trkpt>
      <trkpt lat="45.04017" lon="5.63757">
        <ele>1017</ele>
        <time>2021-01-16T14:20:24Z</time>
      </trkpt>
      <trkpt lat="45.04018" lon="5.63756">
        <ele>1017.4</ele>
        <time>2021-01-16T14:20:26Z</time>
      </trkpt>
      <trkpt lat="45.04019" lon="5.63756">
        <ele>1017.6</ele>
        <time>2021-01-16T14:20:27Z</time>
      </trkpt>
      <trkpt lat="45.0402" lon="5.63755">
        <ele>1018</ele>
        <time>2021-01-16T14:20:28Z</time>
      </trkpt>
      <trkpt lat="45.04021" lon="5.63754">
        <ele>1018.2</ele>
        <time>2021-01-16T14:20:29Z</time>
      </trkpt>
      <trkpt lat="45.04023" lon="5.63754">
        <ele>1018.6</ele>
        <time>2021-01-16T14:20:30Z</time>
      </trkpt>
      <trkpt lat="45.04024" lon="5.63753">
        <ele>1018.8</ele>
        <time>2021-01-16T14:20:31Z</time>
      </trkpt>
      <trkpt lat="45.04026" lon="5.63753">
        <ele>1019</ele>
        <time>2021-01-16T14:20:32Z</time>
      </trkpt>
      <trkpt lat="45.04027" lon="5.63752">
        <ele>1019.2</ele>
        <time>2021-01-16T14:20:33Z</time>
      </trkpt>
      <trkpt lat="45.04029" lon="5.63752">
        <ele>1019.6</ele>
        <time>2021-01-16T14:20:34Z</time>
      </trkpt>
      <trkpt lat="45.0403" lon="5.63752">
        <ele>1019.8</ele>
        <time>2021-01-16T14:20:35Z</time>
      </trkpt>
      <trkpt lat="45.04032" lon="5.63751">
        <ele>1020.2</ele>
        <time>2021-01-16T14:20:36Z</time>
      </trkpt>
      <trkpt lat="45.04032" lon="5.63751">
        <ele>1020.4</ele>
        <time>2021-01-16T14:20:37Z</time>
      </trkpt>
      <trkpt lat="45.04033" lon="5.63751">
        <ele>1020.8</ele>
        <time>2021-01-16T14:20:38Z</time>
      </trkpt>
      <trkpt lat="45.04033" lon="5.63752">
        <ele>1021.2</ele>
        <time>2021-01-16T14:20:39Z</time>
      </trkpt>
      <trkpt lat="45.04034" lon="5.63752">
        <ele>1021.4</ele>
        <time>2021-01-16T14:20:40Z</time>
      </trkpt>
      <trkpt lat="45.04035" lon="5.63752">
        <ele>1021.6</ele>
        <time>2021-01-16T14:20:41Z</time>
      </trkpt>
      <trkpt lat="45.04035" lon="5.63752">
        <ele>1022</ele>
        <time>2021-01-16T14:20:42Z</time>
      </trkpt>
      <trkpt lat="45.04036" lon="5.63752">
        <ele>1022.2</ele>
        <time>2021-01-16T14:20:43Z</time>
      </trkpt>
      <trkpt lat="45.04037" lon="5.63752">
        <ele>1022.4</ele>
        <time>2021-01-16T14:20:44Z</time>
      </trkpt>
      <trkpt lat="45.04037" lon="5.63753">
        <ele>1022.8</ele>
        <time>2021-01-16T14:20:45Z</time>
      </trkpt>
      <trkpt lat="45.04038" lon="5.63753">
        <ele>1023</ele>
        <time>2021-01-16T14:20:46Z</time>
      </trkpt>
      <trkpt lat="45.04039" lon="5.63753">
        <ele>1023.4</ele>
        <time>2021-01-16T14:20:47Z</time>
      </trkpt>
      <trkpt lat="45.04039" lon="5.63753">
        <ele>1023.6</ele>
        <time>2021-01-16T14:20:48Z</time>
      </trkpt>
      <trkpt lat="45.0404" lon="5.63753">
        <ele>1024</ele>
        <time>2021-01-16T14:20:49Z</time>
      </trkpt>
      <trkpt lat="45.0404" lon="5.63753">
        <ele>1024.4</ele>
        <time>2021-01-16T14:20:50Z</time>
      </trkpt>
      <trkpt lat="45.04041" lon="5.63753">
        <ele>1024.6</ele>
        <time>2021-01-16T14:20:51Z</time>
      </trkpt>
      <trkpt lat="45.04041" lon="5.63752">
        <ele>1024.6</ele>
        <time>2021-01-16T14:20:52Z</time>
      </trkpt>
      <trkpt lat="45.04042" lon="5.63751">
        <ele>1025</ele>
        <time>2021-01-16T14:20:53Z</time>
      </trkpt>
      <trkpt lat="45.04043" lon="5.63751">
        <ele>1025.2</ele>
        <time>2021-01-16T14:20:54Z</time>
      </trkpt>
      <trkpt lat="45.04043" lon="5.6375">
        <ele>1025.4</ele>
        <time>2021-01-16T14:20:55Z</time>
      </trkpt>
      <trkpt lat="45.04044" lon="5.63749">
        <ele>1025.6</ele>
        <time>2021-01-16T14:20:56Z</time>
      </trkpt>
      <trkpt lat="45.04044" lon="5.63749">
        <ele>1025.8</ele>
        <time>2021-01-16T14:20:57Z</time>
      </trkpt>
      <trkpt lat="45.04045" lon="5.63748">
        <ele>1026</ele>
        <time>2021-01-16T14:20:58Z</time>
      </trkpt>
      <trkpt lat="45.04045" lon="5.63748">
        <ele>1026.2</ele>
        <time>2021-01-16T14:20:59Z</time>
      </trkpt>
      <trkpt lat="45.04046" lon="5.63747">
        <ele>1026.6</ele>
        <time>2021-01-16T14:21:00Z</time>
      </trkpt>
      <trkpt lat="45.04046" lon="5.63746">
        <ele>1027</ele>
        <time>2021-01-16T14:21:01Z</time>
      </trkpt>
      <trkpt lat="45.04047" lon="5.63746">
        <ele>1027.2</ele>
        <time>2021-01-16T14:21:02Z</time>
      </trkpt>
      <trkpt lat="45.04047" lon="5.63745">
        <ele>1027.6</ele>
        <time>2021-01-16T14:21:03Z</time>
      </trkpt>
      <trkpt lat="45.04048" lon="5.63744">
        <ele>1028</ele>
        <time>2021-01-16T14:21:04Z</time>
      </trkpt>
      <trkpt lat="45.04048" lon="5.63744">
        <ele>1028.2</ele>
        <time>2021-01-16T14:21:05Z</time>
      </trkpt>
      <trkpt lat="45.04049" lon="5.63743">
        <ele>1028.6</ele>
        <time>2021-01-16T14:21:06Z</time>
      </trkpt>
      <trkpt lat="45.04049" lon="5.63743">
        <ele>1028.8</ele>
        <time>2021-01-16T14:21:07Z</time>
      </trkpt>
      <trkpt lat="45.0405" lon="5.63743">
        <ele>1029</ele>
        <time>2021-01-16T14:21:08Z</time>
      </trkpt>
      <trkpt lat="45.0405" lon="5.63743">
        <ele>1029.2</ele>
        <time>2021-01-16T14:21:09Z</time>
      </trkpt>
      <trkpt lat="45.04051" lon="5.63742">
        <ele>1029.4</ele>
        <time>2021-01-16T14:21:10Z</time>
      </trkpt>
      <trkpt lat="45.04051" lon="5.63742">
        <ele>1029.6</ele>
        <time>2021-01-16T14:21:11Z</time>
      </trkpt>
      <trkpt lat="45.04052" lon="5.63742">
        <ele>1029.8</ele>
        <time>2021-01-16T14:21:12Z</time>
      </trkpt>
      <trkpt lat="45.04052" lon="5.63742">
        <ele>1030</ele>
        <time>2021-01-16T14:21:13Z</time>
      </trkpt>
      <trkpt lat="45.04053" lon="5.63741">
        <ele>1030.4</ele>
        <time>2021-01-16T14:21:14Z</time>
      </trkpt>
      <trkpt lat="45.04053" lon="5.63741">
        <ele>1030.8</ele>
        <time>2021-01-16T14:21:15Z</time>
      </trkpt>
      <trkpt lat="45.04054" lon="5.63741">
        <ele>1031</ele>
        <time>2021-01-16T14:21:16Z</time>
      </trkpt>
      <trkpt lat="45.04054" lon="5.63741">
        <ele>1031.4</ele>
        <time>2021-01-16T14:21:17Z</time>
      </trkpt>
      <trkpt lat="45.04055" lon="5.6374">
        <ele>1031.4</ele>
        <time>2021-01-16T14:21:18Z</time>
      </trkpt>
      <trkpt lat="45.04055" lon="5.6374">
        <ele>1031.6</ele>
        <time>2021-01-16T14:21:19Z</time>
      </trkpt>
      <trkpt lat="45.04056" lon="5.6374">
        <ele>1032</ele>
        <time>2021-01-16T14:21:20Z</time>
      </trkpt>
      <trkpt lat="45.04056" lon="5.6374">
        <ele>1032.2</ele>
        <time>2021-01-16T14:21:21Z</time>
      </trkpt>
      <trkpt lat="45.04057" lon="5.63739">
        <ele>1032.4</ele>
        <time>2021-01-16T14:21:22Z</time>
      </trkpt>
      <trkpt lat="45.04058" lon="5.6374">
        <ele>1032.8</ele>
        <time>2021-01-16T14:21:23Z</time>
      </trkpt>
      <trkpt lat="45.04058" lon="5.6374">
        <ele>1033</ele>
        <time>2021-01-16T14:21:24Z</time>
      </trkpt>
      <trkpt lat="45.04059" lon="5.6374">
        <ele>1033.2</ele>
        <time>2021-01-16T14:21:25Z</time>
      </trkpt>
      <trkpt lat="45.0406" lon="5.63741">
        <ele>1033.4</ele>
        <time>2021-01-16T14:21:26Z</time>
      </trkpt>
      <trkpt lat="45.04061" lon="5.63741">
        <ele>1033.6</ele>
        <time>2021-01-16T14:21:27Z</time>
      </trkpt>
      <trkpt lat="45.04061" lon="5.63741">
        <ele>1034</ele>
        <time>2021-01-16T14:21:28Z</time>
      </trkpt>
      <trkpt lat="45.04062" lon="5.63741">
        <ele>1034.6</ele>
        <time>2021-01-16T14:21:29Z</time>
      </trkpt>
      <trkpt lat="45.04063" lon="5.63742">
        <ele>1034.8</ele>
        <time>2021-01-16T14:21:30Z</time>
      </trkpt>
      <trkpt lat="45.04063" lon="5.63742">
        <ele>1035</ele>
        <time>2021-01-16T14:21:31Z</time>
      </trkpt>
      <trkpt lat="45.04064" lon="5.63742">
        <ele>1035.2</ele>
        <time>2021-01-16T14:21:32Z</time>
      </trkpt>
      <trkpt lat="45.04065" lon="5.63742">
        <ele>1035.4</ele>
        <time>2021-01-16T14:21:33Z</time>
      </trkpt>
      <trkpt lat="45.04066" lon="5.63743">
        <ele>1035.6</ele>
        <time>2021-01-16T14:21:34Z</time>
      </trkpt>
      <trkpt lat="45.04066" lon="5.63743">
        <ele>1035.8</ele>
        <time>2021-01-16T14:21:35Z</time>
      </trkpt>
      <trkpt lat="45.04067" lon="5.63743">
        <ele>1036</ele>
        <time>2021-01-16T14:21:36Z</time>
      </trkpt>
      <trkpt lat="45.04068" lon="5.63743">
        <ele>1036.2</ele>
        <time>2021-01-16T14:21:37Z</time>
      </trkpt>
      <trkpt lat="45.04069" lon="5.63743">
        <ele>1036.2</ele>
        <time>2021-01-16T14:21:38Z</time>
      </trkpt>
      <trkpt lat="45.0407" lon="5.63743">
        <ele>1036.4</ele>
        <time>2021-01-16T14:21:39Z</time>
      </trkpt>
      <trkpt lat="45.04071" lon="5.63743">
        <ele>1036.8</ele>
        <time>2021-01-16T14:21:40Z</time>
      </trkpt>
      <trkpt lat="45.04072" lon="5.63743">
        <ele>1037</ele>
        <time>2021-01-16T14:21:41Z</time>
      </trkpt>
      <trkpt lat="45.04073" lon="5.63744">
        <ele>1037.4</ele>
        <time>2021-01-16T14:21:42Z</time>
      </trkpt>
      <trkpt lat="45.04074" lon="5.63744">
        <ele>1037.6</ele>
        <time>2021-01-16T14:21:43Z</time>
      </trkpt>
      <trkpt lat="45.04075" lon="5.63744">
        <ele>1037.8</ele>
        <time>2021-01-16T14:21:44Z</time>
      </trkpt>
      <trkpt lat="45.04076" lon="5.63744">
        <ele>1038.2</ele>
        <time>2021-01-16T14:21:45Z</time>
      </trkpt>
      <trkpt lat="45.04077" lon="5.63744">
        <ele>1038.2</ele>
        <time>2021-01-16T14:21:46Z</time>
      </trkpt>
      <trkpt lat="45.04078" lon="5.63743">
        <ele>1038.2</ele>
        <time>2021-01-16T14:21:47Z</time>
      </trkpt>
      <trkpt lat="45.04078" lon="5.63743">
        <ele>1038.4</ele>
        <time>2021-01-16T14:21:48Z</time>
      </trkpt>
      <trkpt lat="45.04079" lon="5.63743">
        <ele>1038.4</ele>
        <time>2021-01-16T14:21:49Z</time>
      </trkpt>
      <trkpt lat="45.0408" lon="5.63743">
        <ele>1038.6</ele>
        <time>2021-01-16T14:21:50Z</time>
      </trkpt>
      <trkpt lat="45.04081" lon="5.63742">
        <ele>1038.8</ele>
        <time>2021-01-16T14:21:51Z</time>
      </trkpt>
      <trkpt lat="45.04081" lon="5.63742">
        <ele>1039</ele>
        <time>2021-01-16T14:21:52Z</time>
      </trkpt>
      <trkpt lat="45.04082" lon="5.63742">
        <ele>1039.2</ele>
        <time>2021-01-16T14:21:53Z</time>
      </trkpt>
      <trkpt lat="45.04083" lon="5.63742">
        <ele>1039.4</ele>
        <time>2021-01-16T14:21:54Z</time>
      </trkpt>
      <trkpt lat="45.04084" lon="5.63742">
        <ele>1039.6</ele>
        <time>2021-01-16T14:21:55Z</time>
      </trkpt>
      <trkpt lat="45.04085" lon="5.63741">
        <ele>1039.8</ele>
        <time>2021-01-16T14:21:56Z</time>
      </trkpt>
      <trkpt lat="45.04085" lon="5.63741">
        <ele>1040.2</ele>
        <time>2021-01-16T14:21:57Z</time>
      </trkpt>
      <trkpt lat="45.04086" lon="5.63741">
        <ele>1040.4</ele>
        <time>2021-01-16T14:21:58Z</time>
      </trkpt>
      <trkpt lat="45.04087" lon="5.63741">
        <ele>1040.4</ele>
        <time>2021-01-16T14:21:59Z</time>
      </trkpt>
      <trkpt lat="45.04088" lon="5.63741">
        <ele>1040.8</ele>
        <time>2021-01-16T14:22:00Z</time>
      </trkpt>
      <trkpt lat="45.04088" lon="5.6374">
        <ele>1040.8</ele>
        <time>2021-01-16T14:22:01Z</time>
      </trkpt>
      <trkpt lat="45.04089" lon="5.6374">
        <ele>1041.2</ele>
        <time>2021-01-16T14:22:02Z</time>
      </trkpt>
      <trkpt lat="45.0409" lon="5.6374">
        <ele>1041.4</ele>
        <time>2021-01-16T14:22:03Z</time>
      </trkpt>
      <trkpt lat="45.04091" lon="5.6374">
        <ele>1041.6</ele>
        <time>2021-01-16T14:22:04Z</time>
      </trkpt>
      <trkpt lat="45.04091" lon="5.6374">
        <ele>1041.8</ele>
        <time>2021-01-16T14:22:05Z</time>
      </trkpt>
      <trkpt lat="45.04092" lon="5.6374">
        <ele>1041.8</ele>
        <time>2021-01-16T14:22:06Z</time>
      </trkpt>
      <trkpt lat="45.04093" lon="5.63739">
        <ele>1042</ele>
        <time>2021-01-16T14:22:07Z</time>
      </trkpt>
      <trkpt lat="45.04094" lon="5.63739">
        <ele>1042.2</ele>
        <time>2021-01-16T14:22:08Z</time>
      </trkpt>
      <trkpt lat="45.04095" lon="5.63739">
        <ele>1042.4</ele>
        <time>2021-01-16T14:22:09Z</time>
      </trkpt>
      <trkpt lat="45.04096" lon="5.63739">
        <ele>1042.6</ele>
        <time>2021-01-16T14:22:10Z</time>
      </trkpt>
      <trkpt lat="45.04096" lon="5.63738">
        <ele>1043</ele>
        <time>2021-01-16T14:22:11Z</time>
      </trkpt>
      <trkpt lat="45.04097" lon="5.63738">
        <ele>1043</ele>
        <time>2021-01-16T14:22:12Z</time>
      </trkpt>
      <trkpt lat="45.04098" lon="5.63737">
        <ele>1043.4</ele>
        <time>2021-01-16T14:22:13Z</time>
      </trkpt>
      <trkpt lat="45.04099" lon="5.63737">
        <ele>1043.8</ele>
        <time>2021-01-16T14:22:14Z</time>
      </trkpt>
      <trkpt lat="45.041" lon="5.63736">
        <ele>1044</ele>
        <time>2021-01-16T14:22:15Z</time>
      </trkpt>
      <trkpt lat="45.04101" lon="5.63736">
        <ele>1044.4</ele>
        <time>2021-01-16T14:22:16Z</time>
      </trkpt>
      <trkpt lat="45.04102" lon="5.63735">
        <ele>1044.8</ele>
        <time>2021-01-16T14:22:17Z</time>
      </trkpt>
      <trkpt lat="45.04103" lon="5.63735">
        <ele>1045.2</ele>
        <time>2021-01-16T14:22:18Z</time>
      </trkpt>
      <trkpt lat="45.04104" lon="5.63734">
        <ele>1045.4</ele>
        <time>2021-01-16T14:22:19Z</time>
      </trkpt>
      <trkpt lat="45.04105" lon="5.63734">
        <ele>1045.6</ele>
        <time>2021-01-16T14:22:20Z</time>
      </trkpt>
      <trkpt lat="45.04106" lon="5.63733">
        <ele>1045.8</ele>
        <time>2021-01-16T14:22:21Z</time>
      </trkpt>
      <trkpt lat="45.04107" lon="5.63732">
        <ele>1046</ele>
        <time>2021-01-16T14:22:22Z</time>
      </trkpt>
      <trkpt lat="45.04108" lon="5.63731">
        <ele>1046.4</ele>
        <time>2021-01-16T14:22:23Z</time>
      </trkpt>
      <trkpt lat="45.04109" lon="5.63731">
        <ele>1046.6</ele>
        <time>2021-01-16T14:22:24Z</time>
      </trkpt>
      <trkpt lat="45.0411" lon="5.6373">
        <ele>1046.6</ele>
        <time>2021-01-16T14:22:25Z</time>
      </trkpt>
      <trkpt lat="45.04111" lon="5.63729">
        <ele>1047</ele>
        <time>2021-01-16T14:22:26Z</time>
      </trkpt>
      <trkpt lat="45.04112" lon="5.63728">
        <ele>1047.2</ele>
        <time>2021-01-16T14:22:27Z</time>
      </trkpt>
      <trkpt lat="45.04113" lon="5.63728">
        <ele>1047.2</ele>
        <time>2021-01-16T14:22:28Z</time>
      </trkpt>
      <trkpt lat="45.04114" lon="5.63728">
        <ele>1047.6</ele>
        <time>2021-01-16T14:22:29Z</time>
      </trkpt>
      <trkpt lat="45.04115" lon="5.63728">
        <ele>1047.6</ele>
        <time>2021-01-16T14:22:30Z</time>
      </trkpt>
      <trkpt lat="45.04116" lon="5.63727">
        <ele>1048</ele>
        <time>2021-01-16T14:22:31Z</time>
      </trkpt>
      <trkpt lat="45.04116" lon="5.63727">
        <ele>1048.2</ele>
        <time>2021-01-16T14:22:32Z</time>
      </trkpt>
      <trkpt lat="45.04117" lon="5.63727">
        <ele>1048.6</ele>
        <time>2021-01-16T14:22:33Z</time>
      </trkpt>
      <trkpt lat="45.04118" lon="5.63727">
        <ele>1048.8</ele>
        <time>2021-01-16T14:22:34Z</time>
      </trkpt>
      <trkpt lat="45.04119" lon="5.63727">
        <ele>1049</ele>
        <time>2021-01-16T14:22:35Z</time>
      </trkpt>
      <trkpt lat="45.0412" lon="5.63726">
        <ele>1049.2</ele>
        <time>2021-01-16T14:22:36Z</time>
      </trkpt>
      <trkpt lat="45.0412" lon="5.63726">
        <ele>1049.4</ele>
        <time>2021-01-16T14:22:37Z</time>
      </trkpt>
      <trkpt lat="45.04121" lon="5.63726">
        <ele>1049.6</ele>
        <time>2021-01-16T14:22:38Z</time>
      </trkpt>
      <trkpt lat="45.04122" lon="5.63726">
        <ele>1049.8</ele>
        <time>2021-01-16T14:22:39Z</time>
      </trkpt>
      <trkpt lat="45.04123" lon="5.63726">
        <ele>1050</ele>
        <time>2021-01-16T14:22:40Z</time>
      </trkpt>
      <trkpt lat="45.04123" lon="5.63725">
        <ele>1050.2</ele>
        <time>2021-01-16T14:22:41Z</time>
      </trkpt>
      <trkpt lat="45.04124" lon="5.63725">
        <ele>1050.6</ele>
        <time>2021-01-16T14:22:42Z</time>
      </trkpt>
      <trkpt lat="45.04124" lon="5.63725">
        <ele>1050.8</ele>
        <time>2021-01-16T14:22:43Z</time>
      </trkpt>
      <trkpt lat="45.04125" lon="5.63724">
        <ele>1051.2</ele>
        <time>2021-01-16T14:22:44Z</time>
      </trkpt>
      <trkpt lat="45.04126" lon="5.63724">
        <ele>1051.2</ele>
        <time>2021-01-16T14:22:45Z</time>
      </trkpt>
      <trkpt lat="45.04126" lon="5.63724">
        <ele>1051.6</ele>
        <time>2021-01-16T14:22:46Z</time>
      </trkpt>
      <trkpt lat="45.04127" lon="5.63723">
        <ele>1051.8</ele>
        <time>2021-01-16T14:22:47Z</time>
      </trkpt>
      <trkpt lat="45.04127" lon="5.63723">
        <ele>1052</ele>
        <time>2021-01-16T14:22:48Z</time>
      </trkpt>
      <trkpt lat="45.04128" lon="5.63723">
        <ele>1052.4</ele>
        <time>2021-01-16T14:22:49Z</time>
      </trkpt>
      <trkpt lat="45.04129" lon="5.63722">
        <ele>1052.6</ele>
        <time>2021-01-16T14:22:50Z</time>
      </trkpt>
      <trkpt lat="45.04129" lon="5.63722">
        <ele>1053</ele>
        <time>2021-01-16T14:22:51Z</time>
      </trkpt>
      <trkpt lat="45.0413" lon="5.63722">
        <ele>1053.2</ele>
        <time>2021-01-16T14:22:52Z</time>
      </trkpt>
      <trkpt lat="45.0413" lon="5.63721">
        <ele>1053.4</ele>
        <time>2021-01-16T14:22:53Z</time>
      </trkpt>
      <trkpt lat="45.04132" lon="5.6372">
        <ele>1053.6</ele>
        <time>2021-01-16T14:22:54Z</time>
      </trkpt>
      <trkpt lat="45.04133" lon="5.63719">
        <ele>1053.8</ele>
        <time>2021-01-16T14:22:55Z</time>
      </trkpt>
      <trkpt lat="45.04134" lon="5.63718">
        <ele>1054.2</ele>
        <time>2021-01-16T14:22:56Z</time>
      </trkpt>
      <trkpt lat="45.04135" lon="5.63717">
        <ele>1054.4</ele>
        <time>2021-01-16T14:22:57Z</time>
      </trkpt>
      <trkpt lat="45.04136" lon="5.63716">
        <ele>1054.4</ele>
        <time>2021-01-16T14:22:58Z</time>
      </trkpt>
      <trkpt lat="45.04137" lon="5.63715">
        <ele>1054.8</ele>
        <time>2021-01-16T14:22:59Z</time>
      </trkpt>
      <trkpt lat="45.04138" lon="5.63714">
        <ele>1055.2</ele>
        <time>2021-01-16T14:23:00Z</time>
      </trkpt>
      <trkpt lat="45.04139" lon="5.63714">
        <ele>1055.4</ele>
        <time>2021-01-16T14:23:01Z</time>
      </trkpt>
      <trkpt lat="45.0414" lon="5.63714">
        <ele>1055.6</ele>
        <time>2021-01-16T14:23:02Z</time>
      </trkpt>
      <trkpt lat="45.04141" lon="5.63713">
        <ele>1055.8</ele>
        <time>2021-01-16T14:23:03Z</time>
      </trkpt>
      <trkpt lat="45.04142" lon="5.63713">
        <ele>1056.2</ele>
        <time>2021-01-16T14:23:04Z</time>
      </trkpt>
      <trkpt lat="45.04143" lon="5.63713">
        <ele>1056.2</ele>
        <time>2021-01-16T14:23:05Z</time>
      </trkpt>
      <trkpt lat="45.04144" lon="5.63712">
        <ele>1056.4</ele>
        <time>2021-01-16T14:23:06Z</time>
      </trkpt>
      <trkpt lat="45.04145" lon="5.63712">
        <ele>1056.6</ele>
        <time>2021-01-16T14:23:07Z</time>
      </trkpt>
      <trkpt lat="45.04146" lon="5.63711">
        <ele>1057</ele>
        <time>2021-01-16T14:23:08Z</time>
      </trkpt>
      <trkpt lat="45.04147" lon="5.63711">
        <ele>1057.2</ele>
        <time>2021-01-16T14:23:09Z</time>
      </trkpt>
      <trkpt lat="45.04148" lon="5.63711">
        <ele>1057.4</ele>
        <time>2021-01-16T14:23:10Z</time>
      </trkpt>
      <trkpt lat="45.04149" lon="5.63711">
        <ele>1057.8</ele>
        <time>2021-01-16T14:23:11Z</time>
      </trkpt>
      <trkpt lat="45.0415" lon="5.63711">
        <ele>1058</ele>
        <time>2021-01-16T14:23:12Z</time>
      </trkpt>
      <trkpt lat="45.04151" lon="5.63712">
        <ele>1058.4</ele>
        <time>2021-01-16T14:23:13Z</time>
      </trkpt>
      <trkpt lat="45.04152" lon="5.63712">
        <ele>1058.6</ele>
        <time>2021-01-16T14:23:14Z</time>
      </trkpt>
      <trkpt lat="45.04153" lon="5.63713">
        <ele>1059</ele>
        <time>2021-01-16T14:23:15Z</time>
      </trkpt>
      <trkpt lat="45.04154" lon="5.63713">
        <ele>1059.4</ele>
        <time>2021-01-16T14:23:16Z</time>
      </trkpt>
      <trkpt lat="45.04156" lon="5.63713">
        <ele>1059.6</ele>
        <time>2021-01-16T14:23:17Z</time>
      </trkpt>
      <trkpt lat="45.04157" lon="5.63714">
        <ele>1059.6</ele>
        <time>2021-01-16T14:23:18Z</time>
      </trkpt>
      <trkpt lat="45.04157" lon="5.63713">
        <ele>1060</ele>
        <time>2021-01-16T14:23:19Z</time>
      </trkpt>
      <trkpt lat="45.04158" lon="5.63713">
        <ele>1060.2</ele>
        <time>2021-01-16T14:23:20Z</time>
      </trkpt>
      <trkpt lat="45.04158" lon="5.63712">
        <ele>1060.4</ele>
        <time>2021-01-16T14:23:21Z</time>
      </trkpt>
      <trkpt lat="45.04159" lon="5.63711">
        <ele>1060.6</ele>
        <time>2021-01-16T14:23:22Z</time>
      </trkpt>
      <trkpt lat="45.0416" lon="5.63711">
        <ele>1060.8</ele>
        <time>2021-01-16T14:23:23Z</time>
      </trkpt>
      <trkpt lat="45.0416" lon="5.6371">
        <ele>1061</ele>
        <time>2021-01-16T14:23:24Z</time>
      </trkpt>
      <trkpt lat="45.04161" lon="5.6371">
        <ele>1061.2</ele>
        <time>2021-01-16T14:23:25Z</time>
      </trkpt>
      <trkpt lat="45.04162" lon="5.63709">
        <ele>1061.6</ele>
        <time>2021-01-16T14:23:26Z</time>
      </trkpt>
      <trkpt lat="45.04162" lon="5.63709">
        <ele>1062</ele>
        <time>2021-01-16T14:23:27Z</time>
      </trkpt>
      <trkpt lat="45.04163" lon="5.63708">
        <ele>1062.2</ele>
        <time>2021-01-16T14:23:28Z</time>
      </trkpt>
      <trkpt lat="45.04163" lon="5.63707">
        <ele>1062.2</ele>
        <time>2021-01-16T14:23:29Z</time>
      </trkpt>
      <trkpt lat="45.04164" lon="5.63707">
        <ele>1062.4</ele>
        <time>2021-01-16T14:23:30Z</time>
      </trkpt>
      <trkpt lat="45.04165" lon="5.63706">
        <ele>1062.6</ele>
        <time>2021-01-16T14:23:31Z</time>
      </trkpt>
      <trkpt lat="45.04165" lon="5.63706">
        <ele>1062.8</ele>
        <time>2021-01-16T14:23:32Z</time>
      </trkpt>
      <trkpt lat="45.04165" lon="5.63706">
        <ele>1063.2</ele>
        <time>2021-01-16T14:23:33Z</time>
      </trkpt>
      <trkpt lat="45.04166" lon="5.63705">
        <ele>1063.6</ele>
        <time>2021-01-16T14:23:34Z</time>
      </trkpt>
      <trkpt lat="45.04166" lon="5.63705">
        <ele>1063.8</ele>
        <time>2021-01-16T14:23:35Z</time>
      </trkpt>
      <trkpt lat="45.04167" lon="5.63704">
        <ele>1064</ele>
        <time>2021-01-16T14:23:36Z</time>
      </trkpt>
      <trkpt lat="45.04167" lon="5.63704">
        <ele>1064.2</ele>
        <time>2021-01-16T14:23:37Z</time>
      </trkpt>
      <trkpt lat="45.04167" lon="5.63703">
        <ele>1064.6</ele>
        <time>2021-01-16T14:23:38Z</time>
      </trkpt>
      <trkpt lat="45.04168" lon="5.63703">
        <ele>1065</ele>
        <time>2021-01-16T14:23:39Z</time>
      </trkpt>
      <trkpt lat="45.04168" lon="5.63703">
        <ele>1065.2</ele>
        <time>2021-01-16T14:23:40Z</time>
      </trkpt>
      <trkpt lat="45.04169" lon="5.63702">
        <ele>1065.2</ele>
        <time>2021-01-16T14:23:41Z</time>
      </trkpt>
      <trkpt lat="45.04169" lon="5.63702">
        <ele>1065.6</ele>
        <time>2021-01-16T14:23:42Z</time>
      </trkpt>
      <trkpt lat="45.04169" lon="5.63701">
        <ele>1065.6</ele>
        <time>2021-01-16T14:23:43Z</time>
      </trkpt>
      <trkpt lat="45.0417" lon="5.63701">
        <ele>1065.8</ele>
        <time>2021-01-16T14:23:44Z</time>
      </trkpt>
      <trkpt lat="45.0417" lon="5.63701">
        <ele>1066</ele>
        <time>2021-01-16T14:23:45Z</time>
      </trkpt>
      <trkpt lat="45.04171" lon="5.637">
        <ele>1066.4</ele>
        <time>2021-01-16T14:23:46Z</time>
      </trkpt>
      <trkpt lat="45.04171" lon="5.637">
        <ele>1066.8</ele>
        <time>2021-01-16T14:23:47Z</time>
      </trkpt>
      <trkpt lat="45.04172" lon="5.63699">
        <ele>1066.8</ele>
        <time>2021-01-16T14:23:48Z</time>
      </trkpt>
      <trkpt lat="45.04172" lon="5.63699">
        <ele>1067.2</ele>
        <time>2021-01-16T14:23:49Z</time>
      </trkpt>
      <trkpt lat="45.04172" lon="5.63699">
        <ele>1067.2</ele>
        <time>2021-01-16T14:23:50Z</time>
      </trkpt>
      <trkpt lat="45.04173" lon="5.63698">
        <ele>1067.4</ele>
        <time>2021-01-16T14:23:51Z</time>
      </trkpt>
      <trkpt lat="45.04173" lon="5.63698">
        <ele>1067.6</ele>
        <time>2021-01-16T14:23:52Z</time>
      </trkpt>
      <trkpt lat="45.04174" lon="5.63698">
        <ele>1067.8</ele>
        <time>2021-01-16T14:23:53Z</time>
      </trkpt>
      <trkpt lat="45.04174" lon="5.63699">
        <ele>1068</ele>
        <time>2021-01-16T14:23:54Z</time>
      </trkpt>
      <trkpt lat="45.04175" lon="5.63699">
        <ele>1068.2</ele>
        <time>2021-01-16T14:23:55Z</time>
      </trkpt>
      <trkpt lat="45.04175" lon="5.63699">
        <ele>1068.4</ele>
        <time>2021-01-16T14:23:56Z</time>
      </trkpt>
      <trkpt lat="45.04175" lon="5.63699">
        <ele>1068.8</ele>
        <time>2021-01-16T14:23:57Z</time>
      </trkpt>
      <trkpt lat="45.04176" lon="5.63699">
        <ele>1068.8</ele>
        <time>2021-01-16T14:23:58Z</time>
      </trkpt>
      <trkpt lat="45.04176" lon="5.63699">
        <ele>1069.2</ele>
        <time>2021-01-16T14:23:59Z</time>
      </trkpt>
      <trkpt lat="45.04177" lon="5.63699">
        <ele>1069.4</ele>
        <time>2021-01-16T14:24:00Z</time>
      </trkpt>
      <trkpt lat="45.04177" lon="5.63699">
        <ele>1069.6</ele>
        <time>2021-01-16T14:24:01Z</time>
      </trkpt>
      <trkpt lat="45.04178" lon="5.637">
        <ele>1070</ele>
        <time>2021-01-16T14:24:02Z</time>
      </trkpt>
      <trkpt lat="45.04178" lon="5.637">
        <ele>1070.2</ele>
        <time>2021-01-16T14:24:03Z</time>
      </trkpt>
      <trkpt lat="45.04178" lon="5.637">
        <ele>1070.4</ele>
        <time>2021-01-16T14:24:04Z</time>
      </trkpt>
      <trkpt lat="45.04179" lon="5.637">
        <ele>1070.8</ele>
        <time>2021-01-16T14:24:05Z</time>
      </trkpt>
      <trkpt lat="45.04179" lon="5.637">
        <ele>1071.2</ele>
        <time>2021-01-16T14:24:06Z</time>
      </trkpt>
      <trkpt lat="45.0418" lon="5.637">
        <ele>1071.4</ele>
        <time>2021-01-16T14:24:07Z</time>
      </trkpt>
      <trkpt lat="45.0418" lon="5.637">
        <ele>1071.6</ele>
        <time>2021-01-16T14:24:08Z</time>
      </trkpt>
      <trkpt lat="45.04181" lon="5.637">
        <ele>1072</ele>
        <time>2021-01-16T14:24:09Z</time>
      </trkpt>
      <trkpt lat="45.04181" lon="5.63701">
        <ele>1072.2</ele>
        <time>2021-01-16T14:24:10Z</time>
      </trkpt>
      <trkpt lat="45.04182" lon="5.63701">
        <ele>1072.6</ele>
        <time>2021-01-16T14:24:11Z</time>
      </trkpt>
      <trkpt lat="45.04182" lon="5.63701">
        <ele>1073</ele>
        <time>2021-01-16T14:24:12Z</time>
      </trkpt>
      <trkpt lat="45.04182" lon="5.63701">
        <ele>1073.2</ele>
        <time>2021-01-16T14:24:13Z</time>
      </trkpt>
      <trkpt lat="45.04183" lon="5.63701">
        <ele>1073.4</ele>
        <time>2021-01-16T14:24:14Z</time>
      </trkpt>
      <trkpt lat="45.04183" lon="5.63702">
        <ele>1073.4</ele>
        <time>2021-01-16T14:24:15Z</time>
      </trkpt>
      <trkpt lat="45.04183" lon="5.63702">
        <ele>1073.6</ele>
        <time>2021-01-16T14:24:16Z</time>
      </trkpt>
      <trkpt lat="45.04184" lon="5.63702">
        <ele>1073.8</ele>
        <time>2021-01-16T14:24:17Z</time>
      </trkpt>
      <trkpt lat="45.04184" lon="5.63702">
        <ele>1073.8</ele>
        <time>2021-01-16T14:24:18Z</time>
      </trkpt>
      <trkpt lat="45.04185" lon="5.63703">
        <ele>1074</ele>
        <time>2021-01-16T14:24:19Z</time>
      </trkpt>
      <trkpt lat="45.04185" lon="5.63703">
        <ele>1074.4</ele>
        <time>2021-01-16T14:24:20Z</time>
      </trkpt>
      <trkpt lat="45.04185" lon="5.63703">
        <ele>1074.8</ele>
        <time>2021-01-16T14:24:21Z</time>
      </trkpt>
      <trkpt lat="45.04186" lon="5.63703">
        <ele>1075.2</ele>
        <time>2021-01-16T14:24:22Z</time>
      </trkpt>
      <trkpt lat="45.04186" lon="5.63704">
        <ele>1075.2</ele>
        <time>2021-01-16T14:24:23Z</time>
      </trkpt>
      <trkpt lat="45.04187" lon="5.63704">
        <ele>1075.2</ele>
        <time>2021-01-16T14:24:24Z</time>
      </trkpt>
      <trkpt lat="45.04187" lon="5.63704">
        <ele>1075.4</ele>
        <time>2021-01-16T14:24:25Z</time>
      </trkpt>
      <trkpt lat="45.04187" lon="5.63704">
        <ele>1075.6</ele>
        <time>2021-01-16T14:24:26Z</time>
      </trkpt>
      <trkpt lat="45.04188" lon="5.63705">
        <ele>1075.6</ele>
        <time>2021-01-16T14:24:27Z</time>
      </trkpt>
      <trkpt lat="45.04188" lon="5.63705">
        <ele>1075.6</ele>
        <time>2021-01-16T14:24:28Z</time>
      </trkpt>
      <trkpt lat="45.04188" lon="5.63705">
        <ele>1075.8</ele>
        <time>2021-01-16T14:24:29Z</time>
      </trkpt>
      <trkpt lat="45.04189" lon="5.63705">
        <ele>1076.2</ele>
        <time>2021-01-16T14:24:30Z</time>
      </trkpt>
      <trkpt lat="45.04189" lon="5.63705">
        <ele>1076.2</ele>
        <time>2021-01-16T14:24:31Z</time>
      </trkpt>
      <trkpt lat="45.0419" lon="5.63706">
        <ele>1076.6</ele>
        <time>2021-01-16T14:24:32Z</time>
      </trkpt>
      <trkpt lat="45.0419" lon="5.63706">
        <ele>1076.8</ele>
        <time>2021-01-16T14:24:33Z</time>
      </trkpt>
      <trkpt lat="45.04191" lon="5.63705">
        <ele>1077</ele>
        <time>2021-01-16T14:24:34Z</time>
      </trkpt>
      <trkpt lat="45.04191" lon="5.63705">
        <ele>1077.2</ele>
        <time>2021-01-16T14:24:35Z</time>
      </trkpt>
      <trkpt lat="45.04192" lon="5.63704">
        <ele>1077.2</ele>
        <time>2021-01-16T14:24:36Z</time>
      </trkpt>
      <trkpt lat="45.04193" lon="5.63704">
        <ele>1077.6</ele>
        <time>2021-01-16T14:24:37Z</time>
      </trkpt>
      <trkpt lat="45.04194" lon="5.63703">
        <ele>1077.8</ele>
        <time>2021-01-16T14:24:38Z</time>
      </trkpt>
      <trkpt lat="45.04194" lon="5.63703">
        <ele>1078</ele>
        <time>2021-01-16T14:24:39Z</time>
      </trkpt>
      <trkpt lat="45.04195" lon="5.63702">
        <ele>1078</ele>
        <time>2021-01-16T14:24:40Z</time>
      </trkpt>
      <trkpt lat="45.04196" lon="5.63702">
        <ele>1078</ele>
        <time>2021-01-16T14:24:41Z</time>
      </trkpt>
      <trkpt lat="45.04196" lon="5.63701">
        <ele>1078.2</ele>
        <time>2021-01-16T14:24:42Z</time>
      </trkpt>
      <trkpt lat="45.04197" lon="5.637">
        <ele>1078.6</ele>
        <time>2021-01-16T14:24:43Z</time>
      </trkpt>
      <trkpt lat="45.04198" lon="5.637">
        <ele>1078.8</ele>
        <time>2021-01-16T14:24:44Z</time>
      </trkpt>
      <trkpt lat="45.04199" lon="5.637">
        <ele>1079</ele>
        <time>2021-01-16T14:24:45Z</time>
      </trkpt>
      <trkpt lat="45.04199" lon="5.63699">
        <ele>1079.2</ele>
        <time>2021-01-16T14:24:46Z</time>
      </trkpt>
      <trkpt lat="45.042" lon="5.63699">
        <ele>1079.4</ele>
        <time>2021-01-16T14:24:47Z</time>
      </trkpt>
      <trkpt lat="45.04201" lon="5.63698">
        <ele>1079.6</ele>
        <time>2021-01-16T14:24:48Z</time>
      </trkpt>
      <trkpt lat="45.04202" lon="5.63698">
        <ele>1079.6</ele>
        <time>2021-01-16T14:24:49Z</time>
      </trkpt>
      <trkpt lat="45.04202" lon="5.63698">
        <ele>1079.8</ele>
        <time>2021-01-16T14:24:50Z</time>
      </trkpt>
      <trkpt lat="45.04203" lon="5.63697">
        <ele>1080.2</ele>
        <time>2021-01-16T14:24:51Z</time>
      </trkpt>
      <trkpt lat="45.04204" lon="5.63697">
        <ele>1080.4</ele>
        <time>2021-01-16T14:24:52Z</time>
      </trkpt>
      <trkpt lat="45.04205" lon="5.63696">
        <ele>1080.6</ele>
        <time>2021-01-16T14:24:53Z</time>
      </trkpt>
      <trkpt lat="45.04205" lon="5.63696">
        <ele>1080.6</ele>
        <time>2021-01-16T14:24:54Z</time>
      </trkpt>
      <trkpt lat="45.04206" lon="5.63696">
        <ele>1080.8</ele>
        <time>2021-01-16T14:24:55Z</time>
      </trkpt>
      <trkpt lat="45.04207" lon="5.63695">
        <ele>1081</ele>
        <time>2021-01-16T14:24:56Z</time>
      </trkpt>
      <trkpt lat="45.04208" lon="5.63695">
        <ele>1081.2</ele>
        <time>2021-01-16T14:24:57Z</time>
      </trkpt>
      <trkpt lat="45.04209" lon="5.63695">
        <ele>1081.4</ele>
        <time>2021-01-16T14:24:58Z</time>
      </trkpt>
      <trkpt lat="45.04209" lon="5.63695">
        <ele>1081.6</ele>
        <time>2021-01-16T14:24:59Z</time>
      </trkpt>
      <trkpt lat="45.0421" lon="5.63695">
        <ele>1081.8</ele>
        <time>2021-01-16T14:25:00Z</time>
      </trkpt>
      <trkpt lat="45.04211" lon="5.63695">
        <ele>1082</ele>
        <time>2021-01-16T14:25:01Z</time>
      </trkpt>
      <trkpt lat="45.04212" lon="5.63695">
        <ele>1082.2</ele>
        <time>2021-01-16T14:25:02Z</time>
      </trkpt>
      <trkpt lat="45.04213" lon="5.63695">
        <ele>1082.4</ele>
        <time>2021-01-16T14:25:03Z</time>
      </trkpt>
      <trkpt lat="45.04214" lon="5.63695">
        <ele>1082.6</ele>
        <time>2021-01-16T14:25:04Z</time>
      </trkpt>
      <trkpt lat="45.04214" lon="5.63695">
        <ele>1082.8</ele>
        <time>2021-01-16T14:25:05Z</time>
      </trkpt>
      <trkpt lat="45.04215" lon="5.63695">
        <ele>1083</ele>
        <time>2021-01-16T14:25:06Z</time>
      </trkpt>
      <trkpt lat="45.04216" lon="5.63695">
        <ele>1083.2</ele>
        <time>2021-01-16T14:25:07Z</time>
      </trkpt>
      <trkpt lat="45.04217" lon="5.63695">
        <ele>1083.4</ele>
        <time>2021-01-16T14:25:08Z</time>
      </trkpt>
      <trkpt lat="45.04218" lon="5.63694">
        <ele>1083.6</ele>
        <time>2021-01-16T14:25:09Z</time>
      </trkpt>
      <trkpt lat="45.04219" lon="5.63693">
        <ele>1084</ele>
        <time>2021-01-16T14:25:10Z</time>
      </trkpt>
      <trkpt lat="45.04219" lon="5.63692">
        <ele>1084</ele>
        <time>2021-01-16T14:25:11Z</time>
      </trkpt>
      <trkpt lat="45.0422" lon="5.63691">
        <ele>1084</ele>
        <time>2021-01-16T14:25:12Z</time>
      </trkpt>
      <trkpt lat="45.04221" lon="5.6369">
        <ele>1084.4</ele>
        <time>2021-01-16T14:25:13Z</time>
      </trkpt>
      <trkpt lat="45.04222" lon="5.63689">
        <ele>1084.4</ele>
        <time>2021-01-16T14:25:14Z</time>
      </trkpt>
      <trkpt lat="45.04223" lon="5.63688">
        <ele>1084.8</ele>
        <time>2021-01-16T14:25:15Z</time>
      </trkpt>
      <trkpt lat="45.04224" lon="5.63687">
        <ele>1084.8</ele>
        <time>2021-01-16T14:25:16Z</time>
      </trkpt>
      <trkpt lat="45.04225" lon="5.63686">
        <ele>1085.2</ele>
        <time>2021-01-16T14:25:17Z</time>
      </trkpt>
      <trkpt lat="45.04226" lon="5.63686">
        <ele>1085.4</ele>
        <time>2021-01-16T14:25:18Z</time>
      </trkpt>
      <trkpt lat="45.04226" lon="5.63685">
        <ele>1085.6</ele>
        <time>2021-01-16T14:25:19Z</time>
      </trkpt>
      <trkpt lat="45.04227" lon="5.63685">
        <ele>1085.8</ele>
        <time>2021-01-16T14:25:20Z</time>
      </trkpt>
      <trkpt lat="45.04228" lon="5.63685">
        <ele>1086</ele>
        <time>2021-01-16T14:25:21Z</time>
      </trkpt>
      <trkpt lat="45.04229" lon="5.63684">
        <ele>1086.2</ele>
        <time>2021-01-16T14:25:22Z</time>
      </trkpt>
      <trkpt lat="45.0423" lon="5.63684">
        <ele>1086.4</ele>
        <time>2021-01-16T14:25:23Z</time>
      </trkpt>
      <trkpt lat="45.04231" lon="5.63684">
        <ele>1086.6</ele>
        <time>2021-01-16T14:25:24Z</time>
      </trkpt>
      <trkpt lat="45.04232" lon="5.63684">
        <ele>1086.6</ele>
        <time>2021-01-16T14:25:25Z</time>
      </trkpt>
      <trkpt lat="45.04232" lon="5.63683">
        <ele>1086.6</ele>
        <time>2021-01-16T14:25:26Z</time>
      </trkpt>
      <trkpt lat="45.04233" lon="5.63683">
        <ele>1086.8</ele>
        <time>2021-01-16T14:25:27Z</time>
      </trkpt>
      <trkpt lat="45.04234" lon="5.63683">
        <ele>1086.8</ele>
        <time>2021-01-16T14:25:28Z</time>
      </trkpt>
      <trkpt lat="45.04235" lon="5.63682">
        <ele>1086.8</ele>
        <time>2021-01-16T14:25:29Z</time>
      </trkpt>
      <trkpt lat="45.04235" lon="5.63682">
        <ele>1087.2</ele>
        <time>2021-01-16T14:25:30Z</time>
      </trkpt>
      <trkpt lat="45.04235" lon="5.63682">
        <ele>1087.4</ele>
        <time>2021-01-16T14:25:31Z</time>
      </trkpt>
      <trkpt lat="45.04236" lon="5.63681">
        <ele>1087.6</ele>
        <time>2021-01-16T14:25:32Z</time>
      </trkpt>
      <trkpt lat="45.04236" lon="5.63681">
        <ele>1088</ele>
        <time>2021-01-16T14:25:33Z</time>
      </trkpt>
      <trkpt lat="45.04237" lon="5.63681">
        <ele>1088</ele>
        <time>2021-01-16T14:25:34Z</time>
      </trkpt>
      <trkpt lat="45.04237" lon="5.6368">
        <ele>1088</ele>
        <time>2021-01-16T14:25:35Z</time>
      </trkpt>
      <trkpt lat="45.04237" lon="5.6368">
        <ele>1088.2</ele>
        <time>2021-01-16T14:25:36Z</time>
      </trkpt>
      <trkpt lat="45.04238" lon="5.6368">
        <ele>1088.4</ele>
        <time>2021-01-16T14:25:37Z</time>
      </trkpt>
      <trkpt lat="45.04238" lon="5.6368">
        <ele>1088.6</ele>
        <time>2021-01-16T14:25:38Z</time>
      </trkpt>
      <trkpt lat="45.04239" lon="5.63679">
        <ele>1089</ele>
        <time>2021-01-16T14:25:39Z</time>
      </trkpt>
      <trkpt lat="45.04239" lon="5.63679">
        <ele>1089.2</ele>
        <time>2021-01-16T14:25:40Z</time>
      </trkpt>
      <trkpt lat="45.04239" lon="5.63679">
        <ele>1089.4</ele>
        <time>2021-01-16T14:25:41Z</time>
      </trkpt>
      <trkpt lat="45.0424" lon="5.63678">
        <ele>1089.8</ele>
        <time>2021-01-16T14:25:42Z</time>
      </trkpt>
      <trkpt lat="45.0424" lon="5.63678">
        <ele>1089.8</ele>
        <time>2021-01-16T14:25:43Z</time>
      </trkpt>
      <trkpt lat="45.04241" lon="5.63678">
        <ele>1090.2</ele>
        <time>2021-01-16T14:25:44Z</time>
      </trkpt>
      <trkpt lat="45.04241" lon="5.63677">
        <ele>1090.4</ele>
        <time>2021-01-16T14:25:45Z</time>
      </trkpt>
      <trkpt lat="45.04241" lon="5.63677">
        <ele>1090.6</ele>
        <time>2021-01-16T14:25:46Z</time>
      </trkpt>
      <trkpt lat="45.04242" lon="5.63677">
        <ele>1090.8</ele>
        <time>2021-01-16T14:25:47Z</time>
      </trkpt>
      <trkpt lat="45.04242" lon="5.63676">
        <ele>1090.8</ele>
        <time>2021-01-16T14:25:48Z</time>
      </trkpt>
      <trkpt lat="45.04242" lon="5.63676">
        <ele>1091</ele>
        <time>2021-01-16T14:25:49Z</time>
      </trkpt>
      <trkpt lat="45.04243" lon="5.63675">
        <ele>1091.2</ele>
        <time>2021-01-16T14:25:50Z</time>
      </trkpt>
      <trkpt lat="45.04243" lon="5.63675">
        <ele>1091.4</ele>
        <time>2021-01-16T14:25:51Z</time>
      </trkpt>
      <trkpt lat="45.04243" lon="5.63675">
        <ele>1091.6</ele>
        <time>2021-01-16T14:25:52Z</time>
      </trkpt>
      <trkpt lat="45.04244" lon="5.63674">
        <ele>1092</ele>
        <time>2021-01-16T14:25:53Z</time>
      </trkpt>
      <trkpt lat="45.04244" lon="5.63674">
        <ele>1092.2</ele>
        <time>2021-01-16T14:25:54Z</time>
      </trkpt>
      <trkpt lat="45.04244" lon="5.63673">
        <ele>1092.4</ele>
        <time>2021-01-16T14:25:55Z</time>
      </trkpt>
      <trkpt lat="45.04245" lon="5.63673">
        <ele>1092.8</ele>
        <time>2021-01-16T14:25:56Z</time>
      </trkpt>
      <trkpt lat="45.04245" lon="5.63673">
        <ele>1093.2</ele>
        <time>2021-01-16T14:25:57Z</time>
      </trkpt>
      <trkpt lat="45.04245" lon="5.63672">
        <ele>1093.4</ele>
        <time>2021-01-16T14:25:58Z</time>
      </trkpt>
      <trkpt lat="45.04246" lon="5.63672">
        <ele>1093.6</ele>
        <time>2021-01-16T14:25:59Z</time>
      </trkpt>
      <trkpt lat="45.04246" lon="5.63672">
        <ele>1094</ele>
        <time>2021-01-16T14:26:00Z</time>
      </trkpt>
      <trkpt lat="45.04246" lon="5.63671">
        <ele>1094.2</ele>
        <time>2021-01-16T14:26:01Z</time>
      </trkpt>
      <trkpt lat="45.04247" lon="5.63671">
        <ele>1094.6</ele>
        <time>2021-01-16T14:26:02Z</time>
      </trkpt>
      <trkpt lat="45.04247" lon="5.6367">
        <ele>1094.8</ele>
        <time>2021-01-16T14:26:03Z</time>
      </trkpt>
      <trkpt lat="45.04247" lon="5.6367">
        <ele>1095</ele>
        <time>2021-01-16T14:26:04Z</time>
      </trkpt>
      <trkpt lat="45.04248" lon="5.6367">
        <ele>1095.2</ele>
        <time>2021-01-16T14:26:05Z</time>
      </trkpt>
      <trkpt lat="45.04248" lon="5.63669">
        <ele>1095.4</ele>
        <time>2021-01-16T14:26:06Z</time>
      </trkpt>
      <trkpt lat="45.04248" lon="5.63669">
        <ele>1095.4</ele>
        <time>2021-01-16T14:26:07Z</time>
      </trkpt>
      <trkpt lat="45.04249" lon="5.63668">
        <ele>1095.8</ele>
        <time>2021-01-16T14:26:08Z</time>
      </trkpt>
      <trkpt lat="45.04249" lon="5.63668">
        <ele>1096</ele>
        <time>2021-01-16T14:26:09Z</time>
      </trkpt>
      <trkpt lat="45.0425" lon="5.63668">
        <ele>1096.4</ele>
        <time>2021-01-16T14:26:10Z</time>
      </trkpt>
      <trkpt lat="45.0425" lon="5.63667">
        <ele>1096.4</ele>
        <time>2021-01-16T14:26:11Z</time>
      </trkpt>
      <trkpt lat="45.04251" lon="5.63667">
        <ele>1096.8</ele>
        <time>2021-01-16T14:26:12Z</time>
      </trkpt>
      <trkpt lat="45.04251" lon="5.63667">
        <ele>1097</ele>
        <time>2021-01-16T14:26:13Z</time>
      </trkpt>
      <trkpt lat="45.04252" lon="5.63666">
        <ele>1097.2</ele>
        <time>2021-01-16T14:26:14Z</time>
      </trkpt>
      <trkpt lat="45.04252" lon="5.63666">
        <ele>1097.6</ele>
        <time>2021-01-16T14:26:15Z</time>
      </trkpt>
      <trkpt lat="45.04253" lon="5.63666">
        <ele>1097.8</ele>
        <time>2021-01-16T14:26:16Z</time>
      </trkpt>
      <trkpt lat="45.04253" lon="5.63665">
        <ele>1098</ele>
        <time>2021-01-16T14:26:17Z</time>
      </trkpt>
      <trkpt lat="45.04254" lon="5.63665">
        <ele>1098</ele>
        <time>2021-01-16T14:26:18Z</time>
      </trkpt>
      <trkpt lat="45.04254" lon="5.63665">
        <ele>1098.2</ele>
        <time>2021-01-16T14:26:19Z</time>
      </trkpt>
      <trkpt lat="45.04255" lon="5.63665">
        <ele>1098.4</ele>
        <time>2021-01-16T14:26:20Z</time>
      </trkpt>
      <trkpt lat="45.04255" lon="5.63664">
        <ele>1098.4</ele>
        <time>2021-01-16T14:26:21Z</time>
      </trkpt>
      <trkpt lat="45.04256" lon="5.63664">
        <ele>1098.8</ele>
        <time>2021-01-16T14:26:22Z</time>
      </trkpt>
      <trkpt lat="45.04257" lon="5.63664">
        <ele>1099</ele>
        <time>2021-01-16T14:26:23Z</time>
      </trkpt>
      <trkpt lat="45.04257" lon="5.63663">
        <ele>1099.2</ele>
        <time>2021-01-16T14:26:24Z</time>
      </trkpt>
      <trkpt lat="45.04258" lon="5.63663">
        <ele>1099.2</ele>
        <time>2021-01-16T14:26:25Z</time>
      </trkpt>
      <trkpt lat="45.04258" lon="5.63662">
        <ele>1099.4</ele>
        <time>2021-01-16T14:26:26Z</time>
      </trkpt>
      <trkpt lat="45.04259" lon="5.63661">
        <ele>1099.6</ele>
        <time>2021-01-16T14:26:27Z</time>
      </trkpt>
      <trkpt lat="45.0426" lon="5.63661">
        <ele>1100</ele>
        <time>2021-01-16T14:26:28Z</time>
      </trkpt>
      <trkpt lat="45.0426" lon="5.6366">
        <ele>1100.4</ele>
        <time>2021-01-16T14:26:29Z</time>
      </trkpt>
      <trkpt lat="45.04261" lon="5.63659">
        <ele>1100.6</ele>
        <time>2021-01-16T14:26:30Z</time>
      </trkpt>
      <trkpt lat="45.04262" lon="5.63658">
        <ele>1100.8</ele>
        <time>2021-01-16T14:26:31Z</time>
      </trkpt>
      <trkpt lat="45.04263" lon="5.63658">
        <ele>1100.6</ele>
        <time>2021-01-16T14:26:32Z</time>
      </trkpt>
      <trkpt lat="45.04263" lon="5.63657">
        <ele>1101</ele>
        <time>2021-01-16T14:26:33Z</time>
      </trkpt>
      <trkpt lat="45.04264" lon="5.63656">
        <ele>1100.8</ele>
        <time>2021-01-16T14:26:34Z</time>
      </trkpt>
      <trkpt lat="45.04265" lon="5.63655">
        <ele>1101</ele>
        <time>2021-01-16T14:26:35Z</time>
      </trkpt>
      <trkpt lat="45.04266" lon="5.63654">
        <ele>1101.4</ele>
        <time>2021-01-16T14:26:36Z</time>
      </trkpt>
      <trkpt lat="45.04266" lon="5.63654">
        <ele>1101.6</ele>
        <time>2021-01-16T14:26:37Z</time>
      </trkpt>
      <trkpt lat="45.04267" lon="5.63653">
        <ele>1101.8</ele>
        <time>2021-01-16T14:26:38Z</time>
      </trkpt>
      <trkpt lat="45.04268" lon="5.63652">
        <ele>1102</ele>
        <time>2021-01-16T14:26:39Z</time>
      </trkpt>
      <trkpt lat="45.04269" lon="5.63652">
        <ele>1102.2</ele>
        <time>2021-01-16T14:26:40Z</time>
      </trkpt>
      <trkpt lat="45.0427" lon="5.63652">
        <ele>1102.2</ele>
        <time>2021-01-16T14:26:41Z</time>
      </trkpt>
      <trkpt lat="45.0427" lon="5.63653">
        <ele>1102.2</ele>
        <time>2021-01-16T14:26:42Z</time>
      </trkpt>
      <trkpt lat="45.04271" lon="5.63653">
        <ele>1102.4</ele>
        <time>2021-01-16T14:26:43Z</time>
      </trkpt>
      <trkpt lat="45.04272" lon="5.63653">
        <ele>1102.4</ele>
        <time>2021-01-16T14:26:44Z</time>
      </trkpt>
      <trkpt lat="45.04273" lon="5.63653">
        <ele>1102.4</ele>
        <time>2021-01-16T14:26:45Z</time>
      </trkpt>
      <trkpt lat="45.04274" lon="5.63653">
        <ele>1102.6</ele>
        <time>2021-01-16T14:26:46Z</time>
      </trkpt>
      <trkpt lat="45.04275" lon="5.63653">
        <ele>1102.6</ele>
        <time>2021-01-16T14:26:47Z</time>
      </trkpt>
      <trkpt lat="45.04275" lon="5.63653">
        <ele>1102.6</ele>
        <time>2021-01-16T14:26:48Z</time>
      </trkpt>
      <trkpt lat="45.04275" lon="5.63652">
        <ele>1102.6</ele>
        <time>2021-01-16T14:26:49Z</time>
      </trkpt>
      <trkpt lat="45.04275" lon="5.63652">
        <ele>1102.4</ele>
        <time>2021-01-16T14:26:50Z</time>
      </trkpt>
      <trkpt lat="45.04275" lon="5.63651">
        <ele>1102.6</ele>
        <time>2021-01-16T14:26:51Z</time>
      </trkpt>
      <trkpt lat="45.04275" lon="5.6365">
        <ele>1102.4</ele>
        <time>2021-01-16T14:26:52Z</time>
      </trkpt>
      <trkpt lat="45.04275" lon="5.6365">
        <ele>1102.4</ele>
        <time>2021-01-16T14:26:53Z</time>
      </trkpt>
      <trkpt lat="45.04275" lon="5.63649">
        <ele>1102.6</ele>
        <time>2021-01-16T14:26:54Z</time>
      </trkpt>
      <trkpt lat="45.04275" lon="5.63648">
        <ele>1102.6</ele>
        <time>2021-01-16T14:26:55Z</time>
      </trkpt>
      <trkpt lat="45.04275" lon="5.63648">
        <ele>1102.4</ele>
        <time>2021-01-16T14:26:56Z</time>
      </trkpt>
      <trkpt lat="45.04274" lon="5.63647">
        <ele>1102.4</ele>
        <time>2021-01-16T14:26:57Z</time>
      </trkpt>
      <trkpt lat="45.04274" lon="5.63647">
        <ele>1102.4</ele>
        <time>2021-01-16T14:26:58Z</time>
      </trkpt>
      <trkpt lat="45.04274" lon="5.63647">
        <ele>1102.4</ele>
        <time>2021-01-16T14:26:59Z</time>
      </trkpt>
      <trkpt lat="45.04274" lon="5.63647">
        <ele>1102.2</ele>
        <time>2021-01-16T14:27:00Z</time>
      </trkpt>
      <trkpt lat="45.04274" lon="5.63647">
        <ele>1102.2</ele>
        <time>2021-01-16T14:27:01Z</time>
      </trkpt>
      <trkpt lat="45.04274" lon="5.63647">
        <ele>1102.2</ele>
        <time>2021-01-16T14:27:02Z</time>
      </trkpt>
      <trkpt lat="45.04274" lon="5.63647">
        <ele>1102.2</ele>
        <time>2021-01-16T14:27:03Z</time>
      </trkpt>
      <trkpt lat="45.04274" lon="5.63647">
        <ele>1102.2</ele>
        <time>2021-01-16T14:27:04Z</time>
      </trkpt>
      <trkpt lat="45.04274" lon="5.63647">
        <ele>1102.2</ele>
        <time>2021-01-16T14:27:05Z</time>
      </trkpt>
      <trkpt lat="45.04274" lon="5.63647">
        <ele>1102.2</ele>
        <time>2021-01-16T14:27:06Z</time>
      </trkpt>
      <trkpt lat="45.04274" lon="5.63647">
        <ele>1102.4</ele>
        <time>2021-01-16T14:27:07Z</time>
      </trkpt>
      <trkpt lat="45.04274" lon="5.63647">
        <ele>1102.2</ele>
        <time>2021-01-16T14:27:08Z</time>
      </trkpt>
      <trkpt lat="45.04274" lon="5.63647">
        <ele>1102.2</ele>
        <time>2021-01-16T14:27:09Z</time>
      </trkpt>
      <trkpt lat="45.04273" lon="5.63648">
        <ele>1102</ele>
        <time>2021-01-16T14:27:10Z</time>
      </trkpt>
      <trkpt lat="45.04273" lon="5.63648">
        <ele>1102</ele>
        <time>2021-01-16T14:27:11Z</time>
      </trkpt>
      <trkpt lat="45.04273" lon="5.63648">
        <ele>1102.2</ele>
        <time>2021-01-16T14:27:12Z</time>
      </trkpt>
      <trkpt lat="45.04273" lon="5.63651">
        <ele>1102.2</ele>
        <time>2021-01-16T14:27:13Z</time>
      </trkpt>
      <trkpt lat="45.04273" lon="5.63651">
        <ele>1102</ele>
        <time>2021-01-16T14:27:14Z</time>
      </trkpt>
      <trkpt lat="45.04273" lon="5.63651">
        <ele>1102</ele>
        <time>2021-01-16T14:27:15Z</time>
      </trkpt>
      <trkpt lat="45.04273" lon="5.63652">
        <ele>1101.6</ele>
        <time>2021-01-16T14:27:16Z</time>
      </trkpt>
      <trkpt lat="45.04273" lon="5.63653">
        <ele>1101.6</ele>
        <time>2021-01-16T14:27:17Z</time>
      </trkpt>
      <trkpt lat="45.04273" lon="5.63654">
        <ele>1101.6</ele>
        <time>2021-01-16T14:27:18Z</time>
      </trkpt>
      <trkpt lat="45.04273" lon="5.63655">
        <ele>1101.4</ele>
        <time>2021-01-16T14:27:19Z</time>
      </trkpt>
      <trkpt lat="45.04273" lon="5.63656">
        <ele>1101.4</ele>
        <time>2021-01-16T14:27:20Z</time>
      </trkpt>
      <trkpt lat="45.04274" lon="5.63657">
        <ele>1101.6</ele>
        <time>2021-01-16T14:27:21Z</time>
      </trkpt>
      <trkpt lat="45.04274" lon="5.63657">
        <ele>1102</ele>
        <time>2021-01-16T14:27:22Z</time>
      </trkpt>
      <trkpt lat="45.04274" lon="5.63658">
        <ele>1102</ele>
        <time>2021-01-16T14:27:23Z</time>
      </trkpt>
      <trkpt lat="45.04274" lon="5.63659">
        <ele>1102.2</ele>
        <time>2021-01-16T14:27:24Z</time>
      </trkpt>
      <trkpt lat="45.04274" lon="5.6366">
        <ele>1102.6</ele>
        <time>2021-01-16T14:27:25Z</time>
      </trkpt>
      <trkpt lat="45.04274" lon="5.63661">
        <ele>1102.8</ele>
        <time>2021-01-16T14:27:26Z</time>
      </trkpt>
      <trkpt lat="45.04274" lon="5.63662">
        <ele>1102.8</ele>
        <time>2021-01-16T14:27:27Z</time>
      </trkpt>
      <trkpt lat="45.04274" lon="5.63663">
        <ele>1103</ele>
        <time>2021-01-16T14:27:28Z</time>
      </trkpt>
      <trkpt lat="45.04274" lon="5.63663">
        <ele>1103.2</ele>
        <time>2021-01-16T14:27:29Z</time>
      </trkpt>
      <trkpt lat="45.04274" lon="5.63664">
        <ele>1103.6</ele>
        <time>2021-01-16T14:27:30Z</time>
      </trkpt>
      <trkpt lat="45.04274" lon="5.63665">
        <ele>1103.8</ele>
        <time>2021-01-16T14:27:31Z</time>
      </trkpt>
      <trkpt lat="45.04274" lon="5.63666">
        <ele>1104.2</ele>
        <time>2021-01-16T14:27:32Z</time>
      </trkpt>
      <trkpt lat="45.04274" lon="5.63668">
        <ele>1104.8</ele>
        <time>2021-01-16T14:27:33Z</time>
      </trkpt>
      <trkpt lat="45.04274" lon="5.63669">
        <ele>1105.2</ele>
        <time>2021-01-16T14:27:34Z</time>
      </trkpt>
      <trkpt lat="45.04274" lon="5.6367">
        <ele>1105.4</ele>
        <time>2021-01-16T14:27:35Z</time>
      </trkpt>
      <trkpt lat="45.04274" lon="5.63671">
        <ele>1105.6</ele>
        <time>2021-01-16T14:27:36Z</time>
      </trkpt>
      <trkpt lat="45.04274" lon="5.63672">
        <ele>1105.8</ele>
        <time>2021-01-16T14:27:37Z</time>
      </trkpt>
      <trkpt lat="45.04274" lon="5.63673">
        <ele>1106</ele>
        <time>2021-01-16T14:27:38Z</time>
      </trkpt>
      <trkpt lat="45.04274" lon="5.63674">
        <ele>1106.2</ele>
        <time>2021-01-16T14:27:39Z</time>
      </trkpt>
      <trkpt lat="45.04274" lon="5.63675">
        <ele>1106.6</ele>
        <time>2021-01-16T14:27:40Z</time>
      </trkpt>
      <trkpt lat="45.04274" lon="5.63676">
        <ele>1106.6</ele>
        <time>2021-01-16T14:27:41Z</time>
      </trkpt>
      <trkpt lat="45.04274" lon="5.63677">
        <ele>1106.8</ele>
        <time>2021-01-16T14:27:42Z</time>
      </trkpt>
      <trkpt lat="45.04274" lon="5.63678">
        <ele>1107</ele>
        <time>2021-01-16T14:27:43Z</time>
      </trkpt>
      <trkpt lat="45.04275" lon="5.63678">
        <ele>1107</ele>
        <time>2021-01-16T14:27:44Z</time>
      </trkpt>
      <trkpt lat="45.04275" lon="5.63679">
        <ele>1107</ele>
        <time>2021-01-16T14:27:45Z</time>
      </trkpt>
      <trkpt lat="45.04275" lon="5.63679">
        <ele>1107.2</ele>
        <time>2021-01-16T14:27:46Z</time>
      </trkpt>
      <trkpt lat="45.04275" lon="5.6368">
        <ele>1107.2</ele>
        <time>2021-01-16T14:27:47Z</time>
      </trkpt>
      <trkpt lat="45.04276" lon="5.6368">
        <ele>1107.6</ele>
        <time>2021-01-16T14:27:48Z</time>
      </trkpt>
      <trkpt lat="45.04276" lon="5.63681">
        <ele>1107.6</ele>
        <time>2021-01-16T14:27:49Z</time>
      </trkpt>
      <trkpt lat="45.04276" lon="5.63681">
        <ele>1108</ele>
        <time>2021-01-16T14:27:50Z</time>
      </trkpt>
      <trkpt lat="45.04276" lon="5.63682">
        <ele>1108.2</ele>
        <time>2021-01-16T14:27:51Z</time>
      </trkpt>
      <trkpt lat="45.04277" lon="5.63682">
        <ele>1108.6</ele>
        <time>2021-01-16T14:27:52Z</time>
      </trkpt>
      <trkpt lat="45.04277" lon="5.63683">
        <ele>1108.8</ele>
        <time>2021-01-16T14:27:53Z</time>
      </trkpt>
      <trkpt lat="45.04277" lon="5.63683">
        <ele>1109</ele>
        <time>2021-01-16T14:27:54Z</time>
      </trkpt>
      <trkpt lat="45.04278" lon="5.63684">
        <ele>1109.4</ele>
        <time>2021-01-16T14:27:55Z</time>
      </trkpt>
      <trkpt lat="45.04278" lon="5.63684">
        <ele>1109.6</ele>
        <time>2021-01-16T14:27:56Z</time>
      </trkpt>
      <trkpt lat="45.04278" lon="5.63685">
        <ele>1109.8</ele>
        <time>2021-01-16T14:27:57Z</time>
      </trkpt>
      <trkpt lat="45.04278" lon="5.63685">
        <ele>1110</ele>
        <time>2021-01-16T14:27:58Z</time>
      </trkpt>
      <trkpt lat="45.04279" lon="5.63686">
        <ele>1110.2</ele>
        <time>2021-01-16T14:27:59Z</time>
      </trkpt>
      <trkpt lat="45.04279" lon="5.63686">
        <ele>1110.2</ele>
        <time>2021-01-16T14:28:00Z</time>
      </trkpt>
      <trkpt lat="45.04279" lon="5.63687">
        <ele>1110.2</ele>
        <time>2021-01-16T14:28:01Z</time>
      </trkpt>
      <trkpt lat="45.04279" lon="5.63687">
        <ele>1110.2</ele>
        <time>2021-01-16T14:28:02Z</time>
      </trkpt>
      <trkpt lat="45.04279" lon="5.63687">
        <ele>1110.2</ele>
        <time>2021-01-16T14:28:03Z</time>
      </trkpt>
      <trkpt lat="45.04279" lon="5.63687">
        <ele>1110.6</ele>
        <time>2021-01-16T14:28:04Z</time>
      </trkpt>
      <trkpt lat="45.04279" lon="5.63687">
        <ele>1110.8</ele>
        <time>2021-01-16T14:28:05Z</time>
      </trkpt>
      <trkpt lat="45.04279" lon="5.63687">
        <ele>1111</ele>
        <time>2021-01-16T14:28:06Z</time>
      </trkpt>
      <trkpt lat="45.04279" lon="5.63687">
        <ele>1111.2</ele>
        <time>2021-01-16T14:28:07Z</time>
      </trkpt>
      <trkpt lat="45.04279" lon="5.63687">
        <ele>1111.4</ele>
        <time>2021-01-16T14:28:08Z</time>
      </trkpt>
      <trkpt lat="45.04279" lon="5.63687">
        <ele>1111.8</ele>
        <time>2021-01-16T14:28:09Z</time>
      </trkpt>
      <trkpt lat="45.04279" lon="5.63687">
        <ele>1112</ele>
        <time>2021-01-16T14:28:10Z</time>
      </trkpt>
      <trkpt lat="45.04279" lon="5.63687">
        <ele>1112.2</ele>
        <time>2021-01-16T14:28:11Z</time>
      </trkpt>
      <trkpt lat="45.04279" lon="5.63687">
        <ele>1112.2</ele>
        <time>2021-01-16T14:28:12Z</time>
      </trkpt>
      <trkpt lat="45.04279" lon="5.63687">
        <ele>1112.4</ele>
        <time>2021-01-16T14:28:13Z</time>
      </trkpt>
      <trkpt lat="45.04279" lon="5.63687">
        <ele>1112.6</ele>
        <time>2021-01-16T14:28:14Z</time>
      </trkpt>
      <trkpt lat="45.04279" lon="5.63687">
        <ele>1113</ele>
        <time>2021-01-16T14:28:15Z</time>
      </trkpt>
      <trkpt lat="45.04278" lon="5.63686">
        <ele>1113</ele>
        <time>2021-01-16T14:28:16Z</time>
      </trkpt>
      <trkpt lat="45.04278" lon="5.63686">
        <ele>1113.2</ele>
        <time>2021-01-16T14:28:17Z</time>
      </trkpt>
      <trkpt lat="45.04278" lon="5.63686">
        <ele>1113.4</ele>
        <time>2021-01-16T14:28:18Z</time>
      </trkpt>
      <trkpt lat="45.04278" lon="5.63686">
        <ele>1113.4</ele>
        <time>2021-01-16T14:28:19Z</time>
      </trkpt>
      <trkpt lat="45.04278" lon="5.63686">
        <ele>1113.6</ele>
        <time>2021-01-16T14:28:20Z</time>
      </trkpt>
      <trkpt lat="45.04278" lon="5.63686">
        <ele>1113.8</ele>
        <time>2021-01-16T14:28:21Z</time>
      </trkpt>
      <trkpt lat="45.04278" lon="5.63686">
        <ele>1113.8</ele>
        <time>2021-01-16T14:28:22Z</time>
      </trkpt>
      <trkpt lat="45.04278" lon="5.63686">
        <ele>1114</ele>
        <time>2021-01-16T14:28:23Z</time>
      </trkpt>
      <trkpt lat="45.04278" lon="5.63686">
        <ele>1114.2</ele>
        <time>2021-01-16T14:28:24Z</time>
      </trkpt>
      <trkpt lat="45.04278" lon="5.63686">
        <ele>1114.4</ele>
        <time>2021-01-16T14:28:25Z</time>
      </trkpt>
      <trkpt lat="45.04278" lon="5.63686">
        <ele>1114.2</ele>
        <time>2021-01-16T14:28:26Z</time>
      </trkpt>
      <trkpt lat="45.04278" lon="5.63686">
        <ele>1114.4</ele>
        <time>2021-01-16T14:28:27Z</time>
      </trkpt>
      <trkpt lat="45.04278" lon="5.63686">
        <ele>1114.4</ele>
        <time>2021-01-16T14:28:28Z</time>
      </trkpt>
      <trkpt lat="45.04278" lon="5.63686">
        <ele>1114.4</ele>
        <time>2021-01-16T14:28:29Z</time>
      </trkpt>
      <trkpt lat="45.04281" lon="5.63687">
        <ele>1114.4</ele>
        <time>2021-01-16T14:28:30Z</time>
      </trkpt>
      <trkpt lat="45.04281" lon="5.63687">
        <ele>1114.4</ele>
        <time>2021-01-16T14:28:31Z</time>
      </trkpt>
      <trkpt lat="45.04281" lon="5.63687">
        <ele>1114.4</ele>
        <time>2021-01-16T14:28:32Z</time>
      </trkpt>
      <trkpt lat="45.04281" lon="5.63687">
        <ele>1114.4</ele>
        <time>2021-01-16T14:28:33Z</time>
      </trkpt>
      <trkpt lat="45.04281" lon="5.63687">
        <ele>1114.4</ele>
        <time>2021-01-16T14:28:34Z</time>
      </trkpt>
      <trkpt lat="45.04281" lon="5.63687">
        <ele>1114.4</ele>
        <time>2021-01-16T14:28:35Z</time>
      </trkpt>
      <trkpt lat="45.04281" lon="5.63687">
        <ele>1114.2</ele>
        <time>2021-01-16T14:28:36Z</time>
      </trkpt>
      <trkpt lat="45.04282" lon="5.63685">
        <ele>1114</ele>
        <time>2021-01-16T14:28:37Z</time>
      </trkpt>
      <trkpt lat="45.04282" lon="5.63685">
        <ele>1113.8</ele>
        <time>2021-01-16T14:28:38Z</time>
      </trkpt>
      <trkpt lat="45.04282" lon="5.63685">
        <ele>1113.6</ele>
        <time>2021-01-16T14:28:39Z</time>
      </trkpt>
      <trkpt lat="45.04282" lon="5.63685">
        <ele>1113.6</ele>
        <time>2021-01-16T14:28:40Z</time>
      </trkpt>
      <trkpt lat="45.04282" lon="5.63685">
        <ele>1113.6</ele>
        <time>2021-01-16T14:28:41Z</time>
      </trkpt>
      <trkpt lat="45.04282" lon="5.63685">
        <ele>1113.8</ele>
        <time>2021-01-16T14:28:42Z</time>
      </trkpt>
      <trkpt lat="45.04282" lon="5.63685">
        <ele>1113.6</ele>
        <time>2021-01-16T14:28:43Z</time>
      </trkpt>
      <trkpt lat="45.04282" lon="5.63685">
        <ele>1113.4</ele>
        <time>2021-01-16T14:28:44Z</time>
      </trkpt>
      <trkpt lat="45.04282" lon="5.63685">
        <ele>1113.4</ele>
        <time>2021-01-16T14:28:45Z</time>
      </trkpt>
      <trkpt lat="45.04282" lon="5.63685">
        <ele>1113.4</ele>
        <time>2021-01-16T14:28:46Z</time>
      </trkpt>
      <trkpt lat="45.04284" lon="5.63683">
        <ele>1113.4</ele>
        <time>2021-01-16T14:28:47Z</time>
      </trkpt>
      <trkpt lat="45.04284" lon="5.63683">
        <ele>1113.6</ele>
        <time>2021-01-16T14:28:48Z</time>
      </trkpt>
      <trkpt lat="45.04284" lon="5.63683">
        <ele>1113.6</ele>
        <time>2021-01-16T14:28:49Z</time>
      </trkpt>
      <trkpt lat="45.04284" lon="5.63683">
        <ele>1113.6</ele>
        <time>2021-01-16T14:28:50Z</time>
      </trkpt>
      <trkpt lat="45.04286" lon="5.63685">
        <ele>1113.6</ele>
        <time>2021-01-16T14:28:51Z</time>
      </trkpt>
      <trkpt lat="45.04286" lon="5.63685">
        <ele>1113.6</ele>
        <time>2021-01-16T14:28:52Z</time>
      </trkpt>
      <trkpt lat="45.04286" lon="5.63685">
        <ele>1113.6</ele>
        <time>2021-01-16T14:28:53Z</time>
      </trkpt>
      <trkpt lat="45.04289" lon="5.63685">
        <ele>1113.4</ele>
        <time>2021-01-16T14:28:54Z</time>
      </trkpt>
      <trkpt lat="45.04289" lon="5.63685">
        <ele>1113.6</ele>
        <time>2021-01-16T14:28:55Z</time>
      </trkpt>
      <trkpt lat="45.04289" lon="5.63685">
        <ele>1113.8</ele>
        <time>2021-01-16T14:28:56Z</time>
      </trkpt>
      <trkpt lat="45.0429" lon="5.63684">
        <ele>1114</ele>
        <time>2021-01-16T14:28:57Z</time>
      </trkpt>
      <trkpt lat="45.0429" lon="5.63684">
        <ele>1114.4</ele>
        <time>2021-01-16T14:28:58Z</time>
      </trkpt>
      <trkpt lat="45.0429" lon="5.63684">
        <ele>1114.4</ele>
        <time>2021-01-16T14:28:59Z</time>
      </trkpt>
      <trkpt lat="45.0429" lon="5.63684">
        <ele>1114.6</ele>
        <time>2021-01-16T14:29:00Z</time>
      </trkpt>
      <trkpt lat="45.0429" lon="5.63684">
        <ele>1114.8</ele>
        <time>2021-01-16T14:29:01Z</time>
      </trkpt>
      <trkpt lat="45.0429" lon="5.63684">
        <ele>1115</ele>
        <time>2021-01-16T14:29:02Z</time>
      </trkpt>
      <trkpt lat="45.0429" lon="5.63684">
        <ele>1115.4</ele>
        <time>2021-01-16T14:29:03Z</time>
      </trkpt>
      <trkpt lat="45.0429" lon="5.63684">
        <ele>1115.6</ele>
        <time>2021-01-16T14:29:04Z</time>
      </trkpt>
      <trkpt lat="45.0429" lon="5.63684">
        <ele>1115.8</ele>
        <time>2021-01-16T14:29:05Z</time>
      </trkpt>
      <trkpt lat="45.0429" lon="5.63684">
        <ele>1116.2</ele>
        <time>2021-01-16T14:29:06Z</time>
      </trkpt>
      <trkpt lat="45.0429" lon="5.63684">
        <ele>1116.6</ele>
        <time>2021-01-16T14:29:07Z</time>
      </trkpt>
      <trkpt lat="45.0429" lon="5.63684">
        <ele>1116.8</ele>
        <time>2021-01-16T14:29:08Z</time>
      </trkpt>
      <trkpt lat="45.0429" lon="5.63684">
        <ele>1117</ele>
        <time>2021-01-16T14:29:09Z</time>
      </trkpt>
      <trkpt lat="45.0429" lon="5.63684">
        <ele>1117</ele>
        <time>2021-01-16T14:29:10Z</time>
      </trkpt>
      <trkpt lat="45.04291" lon="5.63682">
        <ele>1117.2</ele>
        <time>2021-01-16T14:29:11Z</time>
      </trkpt>
      <trkpt lat="45.04291" lon="5.63682">
        <ele>1117.4</ele>
        <time>2021-01-16T14:29:12Z</time>
      </trkpt>
      <trkpt lat="45.04291" lon="5.63682">
        <ele>1117.4</ele>
        <time>2021-01-16T14:29:13Z</time>
      </trkpt>
      <trkpt lat="45.04293" lon="5.63682">
        <ele>1117.6</ele>
        <time>2021-01-16T14:29:14Z</time>
      </trkpt>
      <trkpt lat="45.04293" lon="5.63682">
        <ele>1117.6</ele>
        <time>2021-01-16T14:29:15Z</time>
      </trkpt>
      <trkpt lat="45.04295" lon="5.63682">
        <ele>1117.8</ele>
        <time>2021-01-16T14:29:16Z</time>
      </trkpt>
      <trkpt lat="45.04295" lon="5.63682">
        <ele>1118.4</ele>
        <time>2021-01-16T14:29:17Z</time>
      </trkpt>
      <trkpt lat="45.04295" lon="5.63682">
        <ele>1118.4</ele>
        <time>2021-01-16T14:29:18Z</time>
      </trkpt>
      <trkpt lat="45.04295" lon="5.63682">
        <ele>1118.4</ele>
        <time>2021-01-16T14:29:19Z</time>
      </trkpt>
      <trkpt lat="45.04298" lon="5.63683">
        <ele>1118.6</ele>
        <time>2021-01-16T14:29:20Z</time>
      </trkpt>
      <trkpt lat="45.04298" lon="5.63683">
        <ele>1118.6</ele>
        <time>2021-01-16T14:29:21Z</time>
      </trkpt>
      <trkpt lat="45.04298" lon="5.63683">
        <ele>1118.6</ele>
        <time>2021-01-16T14:29:22Z</time>
      </trkpt>
      <trkpt lat="45.04299" lon="5.63683">
        <ele>1118.6</ele>
        <time>2021-01-16T14:29:23Z</time>
      </trkpt>
      <trkpt lat="45.04299" lon="5.63683">
        <ele>1118.8</ele>
        <time>2021-01-16T14:29:24Z</time>
      </trkpt>
      <trkpt lat="45.04299" lon="5.63683">
        <ele>1119.2</ele>
        <time>2021-01-16T14:29:25Z</time>
      </trkpt>
      <trkpt lat="45.04299" lon="5.63683">
        <ele>1119.6</ele>
        <time>2021-01-16T14:29:26Z</time>
      </trkpt>
      <trkpt lat="45.04299" lon="5.63683">
        <ele>1120</ele>
        <time>2021-01-16T14:29:27Z</time>
      </trkpt>
      <trkpt lat="45.04299" lon="5.63683">
        <ele>1120.4</ele>
        <time>2021-01-16T14:29:28Z</time>
      </trkpt>
      <trkpt lat="45.04301" lon="5.63684">
        <ele>1120.8</ele>
        <time>2021-01-16T14:29:29Z</time>
      </trkpt>
      <trkpt lat="45.04301" lon="5.63684">
        <ele>1121.2</ele>
        <time>2021-01-16T14:29:30Z</time>
      </trkpt>
      <trkpt lat="45.04301" lon="5.63684">
        <ele>1121</ele>
        <time>2021-01-16T14:29:31Z</time>
      </trkpt>
      <trkpt lat="45.04304" lon="5.63685">
        <ele>1121</ele>
        <time>2021-01-16T14:29:32Z</time>
      </trkpt>
      <trkpt lat="45.04304" lon="5.63685">
        <ele>1121</ele>
        <time>2021-01-16T14:29:33Z</time>
      </trkpt>
      <trkpt lat="45.04304" lon="5.63685">
        <ele>1121</ele>
        <time>2021-01-16T14:29:34Z</time>
      </trkpt>
      <trkpt lat="45.04306" lon="5.63687">
        <ele>1121</ele>
        <time>2021-01-16T14:29:35Z</time>
      </trkpt>
      <trkpt lat="45.04306" lon="5.63687">
        <ele>1121.4</ele>
        <time>2021-01-16T14:29:36Z</time>
      </trkpt>
      <trkpt lat="45.04306" lon="5.63687">
        <ele>1121.4</ele>
        <time>2021-01-16T14:29:37Z</time>
      </trkpt>
      <trkpt lat="45.04306" lon="5.63687">
        <ele>1121.4</ele>
        <time>2021-01-16T14:29:38Z</time>
      </trkpt>
      <trkpt lat="45.04307" lon="5.63688">
        <ele>1121.4</ele>
        <time>2021-01-16T14:29:39Z</time>
      </trkpt>
      <trkpt lat="45.04307" lon="5.63688">
        <ele>1121.6</ele>
        <time>2021-01-16T14:29:40Z</time>
      </trkpt>
      <trkpt lat="45.04307" lon="5.63688">
        <ele>1121.6</ele>
        <time>2021-01-16T14:29:41Z</time>
      </trkpt>
      <trkpt lat="45.04309" lon="5.6369">
        <ele>1121.8</ele>
        <time>2021-01-16T14:29:42Z</time>
      </trkpt>
      <trkpt lat="45.04309" lon="5.6369">
        <ele>1122</ele>
        <time>2021-01-16T14:29:43Z</time>
      </trkpt>
      <trkpt lat="45.04309" lon="5.6369">
        <ele>1122.2</ele>
        <time>2021-01-16T14:29:44Z</time>
      </trkpt>
      <trkpt lat="45.0431" lon="5.63691">
        <ele>1122.4</ele>
        <time>2021-01-16T14:29:45Z</time>
      </trkpt>
      <trkpt lat="45.0431" lon="5.63691">
        <ele>1122.6</ele>
        <time>2021-01-16T14:29:46Z</time>
      </trkpt>
      <trkpt lat="45.04312" lon="5.63694">
        <ele>1122.8</ele>
        <time>2021-01-16T14:29:47Z</time>
      </trkpt>
      <trkpt lat="45.04312" lon="5.63694">
        <ele>1123</ele>
        <time>2021-01-16T14:29:48Z</time>
      </trkpt>
      <trkpt lat="45.04312" lon="5.63694">
        <ele>1123.4</ele>
        <time>2021-01-16T14:29:49Z</time>
      </trkpt>
      <trkpt lat="45.04315" lon="5.63696">
        <ele>1123.8</ele>
        <time>2021-01-16T14:29:50Z</time>
      </trkpt>
      <trkpt lat="45.04315" lon="5.63696">
        <ele>1124</ele>
        <time>2021-01-16T14:29:51Z</time>
      </trkpt>
      <trkpt lat="45.04315" lon="5.63696">
        <ele>1124</ele>
        <time>2021-01-16T14:29:52Z</time>
      </trkpt>
      <trkpt lat="45.04315" lon="5.63696">
        <ele>1124</ele>
        <time>2021-01-16T14:29:53Z</time>
      </trkpt>
      <trkpt lat="45.04315" lon="5.63696">
        <ele>1124.2</ele>
        <time>2021-01-16T14:29:54Z</time>
      </trkpt>
      <trkpt lat="45.04315" lon="5.63696">
        <ele>1124.2</ele>
        <time>2021-01-16T14:29:55Z</time>
      </trkpt>
      <trkpt lat="45.04315" lon="5.63696">
        <ele>1124.6</ele>
        <time>2021-01-16T14:29:56Z</time>
      </trkpt>
      <trkpt lat="45.04317" lon="5.63698">
        <ele>1124.6</ele>
        <time>2021-01-16T14:29:57Z</time>
      </trkpt>
      <trkpt lat="45.04317" lon="5.63698">
        <ele>1124.8</ele>
        <time>2021-01-16T14:29:58Z</time>
      </trkpt>
      <trkpt lat="45.04317" lon="5.63698">
        <ele>1125</ele>
        <time>2021-01-16T14:29:59Z</time>
      </trkpt>
      <trkpt lat="45.04317" lon="5.63698">
        <ele>1125.2</ele>
        <time>2021-01-16T14:30:01Z</time>
      </trkpt>
      <trkpt lat="45.04317" lon="5.63698">
        <ele>1125.2</ele>
        <time>2021-01-16T14:30:02Z</time>
      </trkpt>
      <trkpt lat="45.04318" lon="5.637">
        <ele>1125.4</ele>
        <time>2021-01-16T14:30:03Z</time>
      </trkpt>
      <trkpt lat="45.04318" lon="5.637">
        <ele>1125.4</ele>
        <time>2021-01-16T14:30:04Z</time>
      </trkpt>
      <trkpt lat="45.04318" lon="5.637">
        <ele>1125.8</ele>
        <time>2021-01-16T14:30:05Z</time>
      </trkpt>
      <trkpt lat="45.0432" lon="5.63701">
        <ele>1126</ele>
        <time>2021-01-16T14:30:06Z</time>
      </trkpt>
      <trkpt lat="45.0432" lon="5.63701">
        <ele>1126.2</ele>
        <time>2021-01-16T14:30:07Z</time>
      </trkpt>
      <trkpt lat="45.0432" lon="5.63701">
        <ele>1126.6</ele>
        <time>2021-01-16T14:30:08Z</time>
      </trkpt>
      <trkpt lat="45.0432" lon="5.63701">
        <ele>1126.8</ele>
        <time>2021-01-16T14:30:09Z</time>
      </trkpt>
      <trkpt lat="45.04322" lon="5.63702">
        <ele>1127.2</ele>
        <time>2021-01-16T14:30:10Z</time>
      </trkpt>
      <trkpt lat="45.04322" lon="5.63702">
        <ele>1127.4</ele>
        <time>2021-01-16T14:30:11Z</time>
      </trkpt>
      <trkpt lat="45.04322" lon="5.63702">
        <ele>1127.6</ele>
        <time>2021-01-16T14:30:12Z</time>
      </trkpt>
      <trkpt lat="45.04322" lon="5.63702">
        <ele>1127.8</ele>
        <time>2021-01-16T14:30:13Z</time>
      </trkpt>
      <trkpt lat="45.04324" lon="5.63703">
        <ele>1128</ele>
        <time>2021-01-16T14:30:14Z</time>
      </trkpt>
      <trkpt lat="45.04325" lon="5.63706">
        <ele>1128.2</ele>
        <time>2021-01-16T14:30:15Z</time>
      </trkpt>
      <trkpt lat="45.04325" lon="5.63706">
        <ele>1128.6</ele>
        <time>2021-01-16T14:30:16Z</time>
      </trkpt>
      <trkpt lat="45.04328" lon="5.63706">
        <ele>1128.8</ele>
        <time>2021-01-16T14:30:17Z</time>
      </trkpt>
      <trkpt lat="45.04329" lon="5.63707">
        <ele>1129</ele>
        <time>2021-01-16T14:30:18Z</time>
      </trkpt>
      <trkpt lat="45.0433" lon="5.63708">
        <ele>1129</ele>
        <time>2021-01-16T14:30:19Z</time>
      </trkpt>
      <trkpt lat="45.04332" lon="5.63708">
        <ele>1129.2</ele>
        <time>2021-01-16T14:30:20Z</time>
      </trkpt>
      <trkpt lat="45.04332" lon="5.63708">
        <ele>1129.2</ele>
        <time>2021-01-16T14:30:21Z</time>
      </trkpt>
      <trkpt lat="45.04335" lon="5.6371">
        <ele>1129.4</ele>
        <time>2021-01-16T14:30:22Z</time>
      </trkpt>
      <trkpt lat="45.04335" lon="5.6371">
        <ele>1129.6</ele>
        <time>2021-01-16T14:30:24Z</time>
      </trkpt>
      <trkpt lat="45.04337" lon="5.63711">
        <ele>1129.8</ele>
        <time>2021-01-16T14:30:25Z</time>
      </trkpt>
      <trkpt lat="45.04337" lon="5.63711">
        <ele>1129.8</ele>
        <time>2021-01-16T14:30:26Z</time>
      </trkpt>
      <trkpt lat="45.04339" lon="5.63711">
        <ele>1130</ele>
        <time>2021-01-16T14:30:27Z</time>
      </trkpt>
      <trkpt lat="45.04339" lon="5.63711">
        <ele>1130.2</ele>
        <time>2021-01-16T14:30:28Z</time>
      </trkpt>
      <trkpt lat="45.04341" lon="5.63711">
        <ele>1130.4</ele>
        <time>2021-01-16T14:30:29Z</time>
      </trkpt>
      <trkpt lat="45.04341" lon="5.63711">
        <ele>1130.6</ele>
        <time>2021-01-16T14:30:30Z</time>
      </trkpt>
      <trkpt lat="45.04341" lon="5.63711">
        <ele>1130.6</ele>
        <time>2021-01-16T14:30:31Z</time>
      </trkpt>
      <trkpt lat="45.04343" lon="5.6371">
        <ele>1131</ele>
        <time>2021-01-16T14:30:32Z</time>
      </trkpt>
      <trkpt lat="45.04345" lon="5.63711">
        <ele>1131</ele>
        <time>2021-01-16T14:30:33Z</time>
      </trkpt>
      <trkpt lat="45.04345" lon="5.63711">
        <ele>1131.2</ele>
        <time>2021-01-16T14:30:34Z</time>
      </trkpt>
      <trkpt lat="45.04345" lon="5.63711">
        <ele>1131.2</ele>
        <time>2021-01-16T14:30:35Z</time>
      </trkpt>
      <trkpt lat="45.04347" lon="5.63711">
        <ele>1131.4</ele>
        <time>2021-01-16T14:30:36Z</time>
      </trkpt>
      <trkpt lat="45.04347" lon="5.63711">
        <ele>1131.4</ele>
        <time>2021-01-16T14:30:37Z</time>
      </trkpt>
      <trkpt lat="45.04349" lon="5.63712">
        <ele>1131.4</ele>
        <time>2021-01-16T14:30:38Z</time>
      </trkpt>
      <trkpt lat="45.04349" lon="5.63712">
        <ele>1131.4</ele>
        <time>2021-01-16T14:30:39Z</time>
      </trkpt>
      <trkpt lat="45.04352" lon="5.63713">
        <ele>1131.4</ele>
        <time>2021-01-16T14:30:40Z</time>
      </trkpt>
      <trkpt lat="45.04352" lon="5.63713">
        <ele>1131.6</ele>
        <time>2021-01-16T14:30:41Z</time>
      </trkpt>
      <trkpt lat="45.04355" lon="5.63714">
        <ele>1131.8</ele>
        <time>2021-01-16T14:30:42Z</time>
      </trkpt>
      <trkpt lat="45.04355" lon="5.63714">
        <ele>1131.8</ele>
        <time>2021-01-16T14:30:43Z</time>
      </trkpt>
      <trkpt lat="45.04357" lon="5.63715">
        <ele>1131.6</ele>
        <time>2021-01-16T14:30:44Z</time>
      </trkpt>
      <trkpt lat="45.04357" lon="5.63715">
        <ele>1131.6</ele>
        <time>2021-01-16T14:30:45Z</time>
      </trkpt>
      <trkpt lat="45.04359" lon="5.63715">
        <ele>1131.8</ele>
        <time>2021-01-16T14:30:46Z</time>
      </trkpt>
      <trkpt lat="45.04359" lon="5.63715">
        <ele>1131.8</ele>
        <time>2021-01-16T14:30:47Z</time>
      </trkpt>
      <trkpt lat="45.04362" lon="5.63716">
        <ele>1131.8</ele>
        <time>2021-01-16T14:30:48Z</time>
      </trkpt>
      <trkpt lat="45.04363" lon="5.63717">
        <ele>1132.2</ele>
        <time>2021-01-16T14:30:49Z</time>
      </trkpt>
      <trkpt lat="45.04363" lon="5.63717">
        <ele>1132.4</ele>
        <time>2021-01-16T14:30:50Z</time>
      </trkpt>
      <trkpt lat="45.04363" lon="5.63717">
        <ele>1132.4</ele>
        <time>2021-01-16T14:30:51Z</time>
      </trkpt>
      <trkpt lat="45.04365" lon="5.63717">
        <ele>1132.2</ele>
        <time>2021-01-16T14:30:52Z</time>
      </trkpt>
      <trkpt lat="45.04365" lon="5.63717">
        <ele>1132</ele>
        <time>2021-01-16T14:30:53Z</time>
      </trkpt>
      <trkpt lat="45.04365" lon="5.63717">
        <ele>1132</ele>
        <time>2021-01-16T14:30:54Z</time>
      </trkpt>
      <trkpt lat="45.04365" lon="5.63717">
        <ele>1132.2</ele>
        <time>2021-01-16T14:30:55Z</time>
      </trkpt>
      <trkpt lat="45.04365" lon="5.63717">
        <ele>1132.2</ele>
        <time>2021-01-16T14:30:56Z</time>
      </trkpt>
      <trkpt lat="45.04367" lon="5.63716">
        <ele>1132</ele>
        <time>2021-01-16T14:30:57Z</time>
      </trkpt>
      <trkpt lat="45.04367" lon="5.63716">
        <ele>1132</ele>
        <time>2021-01-16T14:30:58Z</time>
      </trkpt>
      <trkpt lat="45.04367" lon="5.63716">
        <ele>1132.2</ele>
        <time>2021-01-16T14:30:59Z</time>
      </trkpt>
      <trkpt lat="45.04367" lon="5.63716">
        <ele>1132.4</ele>
        <time>2021-01-16T14:31:00Z</time>
      </trkpt>
      <trkpt lat="45.04367" lon="5.63716">
        <ele>1132.6</ele>
        <time>2021-01-16T14:31:01Z</time>
      </trkpt>
      <trkpt lat="45.04367" lon="5.63716">
        <ele>1132.8</ele>
        <time>2021-01-16T14:31:02Z</time>
      </trkpt>
      <trkpt lat="45.04367" lon="5.63716">
        <ele>1133</ele>
        <time>2021-01-16T14:31:03Z</time>
      </trkpt>
      <trkpt lat="45.04369" lon="5.63715">
        <ele>1133</ele>
        <time>2021-01-16T14:31:04Z</time>
      </trkpt>
      <trkpt lat="45.04369" lon="5.63715">
        <ele>1133.2</ele>
        <time>2021-01-16T14:31:05Z</time>
      </trkpt>
      <trkpt lat="45.04369" lon="5.63715">
        <ele>1133.2</ele>
        <time>2021-01-16T14:31:06Z</time>
      </trkpt>
      <trkpt lat="45.04371" lon="5.63716">
        <ele>1133.2</ele>
        <time>2021-01-16T14:31:07Z</time>
      </trkpt>
      <trkpt lat="45.04372" lon="5.63719">
        <ele>1133.2</ele>
        <time>2021-01-16T14:31:08Z</time>
      </trkpt>
      <trkpt lat="45.04372" lon="5.63719">
        <ele>1133</ele>
        <time>2021-01-16T14:31:09Z</time>
      </trkpt>
      <trkpt lat="45.04372" lon="5.63719">
        <ele>1132.6</ele>
        <time>2021-01-16T14:31:10Z</time>
      </trkpt>
      <trkpt lat="45.04372" lon="5.63719">
        <ele>1132.2</ele>
        <time>2021-01-16T14:31:11Z</time>
      </trkpt>
      <trkpt lat="45.04374" lon="5.6372">
        <ele>1132</ele>
        <time>2021-01-16T14:31:12Z</time>
      </trkpt>
      <trkpt lat="45.04374" lon="5.6372">
        <ele>1131.6</ele>
        <time>2021-01-16T14:31:13Z</time>
      </trkpt>
      <trkpt lat="45.04374" lon="5.6372">
        <ele>1131.4</ele>
        <time>2021-01-16T14:31:14Z</time>
      </trkpt>
      <trkpt lat="45.04374" lon="5.6372">
        <ele>1131</ele>
        <time>2021-01-16T14:31:15Z</time>
      </trkpt>
      <trkpt lat="45.04377" lon="5.63721">
        <ele>1130.8</ele>
        <time>2021-01-16T14:31:16Z</time>
      </trkpt>
      <trkpt lat="45.04377" lon="5.63721">
        <ele>1130.8</ele>
        <time>2021-01-16T14:31:17Z</time>
      </trkpt>
      <trkpt lat="45.04377" lon="5.63721">
        <ele>1130.6</ele>
        <time>2021-01-16T14:31:18Z</time>
      </trkpt>
      <trkpt lat="45.04379" lon="5.6372">
        <ele>1130.2</ele>
        <time>2021-01-16T14:31:19Z</time>
      </trkpt>
      <trkpt lat="45.04379" lon="5.6372">
        <ele>1129.6</ele>
        <time>2021-01-16T14:31:20Z</time>
      </trkpt>
      <trkpt lat="45.04379" lon="5.6372">
        <ele>1129.8</ele>
        <time>2021-01-16T14:31:21Z</time>
      </trkpt>
      <trkpt lat="45.0438" lon="5.63722">
        <ele>1129.4</ele>
        <time>2021-01-16T14:31:22Z</time>
      </trkpt>
      <trkpt lat="45.0438" lon="5.63722">
        <ele>1129.6</ele>
        <time>2021-01-16T14:31:23Z</time>
      </trkpt>
      <trkpt lat="45.04382" lon="5.63724">
        <ele>1129.4</ele>
        <time>2021-01-16T14:31:24Z</time>
      </trkpt>
      <trkpt lat="45.04382" lon="5.63724">
        <ele>1129.6</ele>
        <time>2021-01-16T14:31:25Z</time>
      </trkpt>
      <trkpt lat="45.04382" lon="5.63724">
        <ele>1129.8</ele>
        <time>2021-01-16T14:31:26Z</time>
      </trkpt>
      <trkpt lat="45.04384" lon="5.63724">
        <ele>1129.6</ele>
        <time>2021-01-16T14:31:27Z</time>
      </trkpt>
      <trkpt lat="45.04384" lon="5.63724">
        <ele>1129.4</ele>
        <time>2021-01-16T14:31:28Z</time>
      </trkpt>
      <trkpt lat="45.04384" lon="5.63724">
        <ele>1129.4</ele>
        <time>2021-01-16T14:31:29Z</time>
      </trkpt>
      <trkpt lat="45.04384" lon="5.63724">
        <ele>1129.4</ele>
        <time>2021-01-16T14:31:30Z</time>
      </trkpt>
      <trkpt lat="45.04387" lon="5.63726">
        <ele>1129.4</ele>
        <time>2021-01-16T14:31:31Z</time>
      </trkpt>
      <trkpt lat="45.04387" lon="5.63726">
        <ele>1129.4</ele>
        <time>2021-01-16T14:31:32Z</time>
      </trkpt>
      <trkpt lat="45.04389" lon="5.63727">
        <ele>1129.6</ele>
        <time>2021-01-16T14:31:33Z</time>
      </trkpt>
      <trkpt lat="45.04389" lon="5.63727">
        <ele>1129.6</ele>
        <time>2021-01-16T14:31:34Z</time>
      </trkpt>
      <trkpt lat="45.0439" lon="5.63727">
        <ele>1129.2</ele>
        <time>2021-01-16T14:31:35Z</time>
      </trkpt>
      <trkpt lat="45.0439" lon="5.63727">
        <ele>1129</ele>
        <time>2021-01-16T14:31:36Z</time>
      </trkpt>
      <trkpt lat="45.0439" lon="5.63727">
        <ele>1128.6</ele>
        <time>2021-01-16T14:31:37Z</time>
      </trkpt>
      <trkpt lat="45.0439" lon="5.63727">
        <ele>1128.4</ele>
        <time>2021-01-16T14:31:38Z</time>
      </trkpt>
      <trkpt lat="45.04393" lon="5.63726">
        <ele>1128.2</ele>
        <time>2021-01-16T14:31:39Z</time>
      </trkpt>
      <trkpt lat="45.04393" lon="5.63726">
        <ele>1127.8</ele>
        <time>2021-01-16T14:31:40Z</time>
      </trkpt>
      <trkpt lat="45.04395" lon="5.63726">
        <ele>1127.8</ele>
        <time>2021-01-16T14:31:41Z</time>
      </trkpt>
      <trkpt lat="45.04395" lon="5.63726">
        <ele>1127.4</ele>
        <time>2021-01-16T14:31:42Z</time>
      </trkpt>
      <trkpt lat="45.04397" lon="5.63726">
        <ele>1127.2</ele>
        <time>2021-01-16T14:31:43Z</time>
      </trkpt>
      <trkpt lat="45.04397" lon="5.63726">
        <ele>1127</ele>
        <time>2021-01-16T14:31:44Z</time>
      </trkpt>
      <trkpt lat="45.04399" lon="5.63727">
        <ele>1127</ele>
        <time>2021-01-16T14:31:45Z</time>
      </trkpt>
      <trkpt lat="45.04399" lon="5.63727">
        <ele>1126.6</ele>
        <time>2021-01-16T14:31:46Z</time>
      </trkpt>
      <trkpt lat="45.04402" lon="5.63728">
        <ele>1126.6</ele>
        <time>2021-01-16T14:31:47Z</time>
      </trkpt>
      <trkpt lat="45.04402" lon="5.63728">
        <ele>1126.4</ele>
        <time>2021-01-16T14:31:48Z</time>
      </trkpt>
      <trkpt lat="45.04404" lon="5.6373">
        <ele>1126</ele>
        <time>2021-01-16T14:31:49Z</time>
      </trkpt>
      <trkpt lat="45.04404" lon="5.6373">
        <ele>1125.8</ele>
        <time>2021-01-16T14:31:50Z</time>
      </trkpt>
      <trkpt lat="45.04406" lon="5.63733">
        <ele>1125.2</ele>
        <time>2021-01-16T14:31:51Z</time>
      </trkpt>
      <trkpt lat="45.04406" lon="5.63733">
        <ele>1124.8</ele>
        <time>2021-01-16T14:31:52Z</time>
      </trkpt>
      <trkpt lat="45.04409" lon="5.63736">
        <ele>1124.4</ele>
        <time>2021-01-16T14:31:53Z</time>
      </trkpt>
      <trkpt lat="45.04409" lon="5.63736">
        <ele>1124</ele>
        <time>2021-01-16T14:31:54Z</time>
      </trkpt>
      <trkpt lat="45.04412" lon="5.63737">
        <ele>1123.8</ele>
        <time>2021-01-16T14:31:55Z</time>
      </trkpt>
      <trkpt lat="45.04412" lon="5.63737">
        <ele>1123.6</ele>
        <time>2021-01-16T14:31:56Z</time>
      </trkpt>
      <trkpt lat="45.04415" lon="5.63738">
        <ele>1123.6</ele>
        <time>2021-01-16T14:31:57Z</time>
      </trkpt>
      <trkpt lat="45.04415" lon="5.63738">
        <ele>1123.4</ele>
        <time>2021-01-16T14:31:58Z</time>
      </trkpt>
      <trkpt lat="45.04418" lon="5.63739">
        <ele>1123.4</ele>
        <time>2021-01-16T14:31:59Z</time>
      </trkpt>
      <trkpt lat="45.04421" lon="5.63741">
        <ele>1123.2</ele>
        <time>2021-01-16T14:32:00Z</time>
      </trkpt>
      <trkpt lat="45.04421" lon="5.63741">
        <ele>1123</ele>
        <time>2021-01-16T14:32:01Z</time>
      </trkpt>
      <trkpt lat="45.04421" lon="5.63741">
        <ele>1122.6</ele>
        <time>2021-01-16T14:32:02Z</time>
      </trkpt>
      <trkpt lat="45.04421" lon="5.63741">
        <ele>1122.6</ele>
        <time>2021-01-16T14:32:03Z</time>
      </trkpt>
      <trkpt lat="45.04423" lon="5.63742">
        <ele>1122.4</ele>
        <time>2021-01-16T14:32:04Z</time>
      </trkpt>
      <trkpt lat="45.04425" lon="5.63743">
        <ele>1122.2</ele>
        <time>2021-01-16T14:32:05Z</time>
      </trkpt>
      <trkpt lat="45.04427" lon="5.63744">
        <ele>1122.2</ele>
        <time>2021-01-16T14:32:06Z</time>
      </trkpt>
      <trkpt lat="45.04429" lon="5.63745">
        <ele>1121.8</ele>
        <time>2021-01-16T14:32:07Z</time>
      </trkpt>
      <trkpt lat="45.04432" lon="5.63745">
        <ele>1122</ele>
        <time>2021-01-16T14:32:08Z</time>
      </trkpt>
      <trkpt lat="45.04432" lon="5.63745">
        <ele>1121.8</ele>
        <time>2021-01-16T14:32:09Z</time>
      </trkpt>
      <trkpt lat="45.04432" lon="5.63745">
        <ele>1122</ele>
        <time>2021-01-16T14:32:10Z</time>
      </trkpt>
      <trkpt lat="45.04434" lon="5.63747">
        <ele>1122</ele>
        <time>2021-01-16T14:32:11Z</time>
      </trkpt>
      <trkpt lat="45.04437" lon="5.63749">
        <ele>1122.2</ele>
        <time>2021-01-16T14:32:12Z</time>
      </trkpt>
      <trkpt lat="45.04438" lon="5.63751">
        <ele>1122</ele>
        <time>2021-01-16T14:32:13Z</time>
      </trkpt>
      <trkpt lat="45.0444" lon="5.63752">
        <ele>1122.4</ele>
        <time>2021-01-16T14:32:14Z</time>
      </trkpt>
      <trkpt lat="45.0444" lon="5.63752">
        <ele>1122.4</ele>
        <time>2021-01-16T14:32:15Z</time>
      </trkpt>
      <trkpt lat="45.04441" lon="5.63754">
        <ele>1122.6</ele>
        <time>2021-01-16T14:32:16Z</time>
      </trkpt>
      <trkpt lat="45.04441" lon="5.63754">
        <ele>1122.6</ele>
        <time>2021-01-16T14:32:17Z</time>
      </trkpt>
      <trkpt lat="45.04444" lon="5.63757">
        <ele>1122.8</ele>
        <time>2021-01-16T14:32:18Z</time>
      </trkpt>
      <trkpt lat="45.04446" lon="5.63758">
        <ele>1122.6</ele>
        <time>2021-01-16T14:32:19Z</time>
      </trkpt>
      <trkpt lat="45.04447" lon="5.63759">
        <ele>1122.2</ele>
        <time>2021-01-16T14:32:20Z</time>
      </trkpt>
      <trkpt lat="45.04447" lon="5.63759">
        <ele>1122</ele>
        <time>2021-01-16T14:32:21Z</time>
      </trkpt>
      <trkpt lat="45.04449" lon="5.6376">
        <ele>1121.6</ele>
        <time>2021-01-16T14:32:22Z</time>
      </trkpt>
      <trkpt lat="45.04452" lon="5.63761">
        <ele>1121.8</ele>
        <time>2021-01-16T14:32:23Z</time>
      </trkpt>
      <trkpt lat="45.04452" lon="5.63761">
        <ele>1121.6</ele>
        <time>2021-01-16T14:32:24Z</time>
      </trkpt>
      <trkpt lat="45.04452" lon="5.63761">
        <ele>1122</ele>
        <time>2021-01-16T14:32:25Z</time>
      </trkpt>
      <trkpt lat="45.04454" lon="5.6376">
        <ele>1122</ele>
        <time>2021-01-16T14:32:26Z</time>
      </trkpt>
      <trkpt lat="45.04454" lon="5.6376">
        <ele>1122.4</ele>
        <time>2021-01-16T14:32:27Z</time>
      </trkpt>
      <trkpt lat="45.04457" lon="5.63761">
        <ele>1122.4</ele>
        <time>2021-01-16T14:32:28Z</time>
      </trkpt>
      <trkpt lat="45.0446" lon="5.63762">
        <ele>1122.8</ele>
        <time>2021-01-16T14:32:29Z</time>
      </trkpt>
      <trkpt lat="45.04462" lon="5.63763">
        <ele>1122.8</ele>
        <time>2021-01-16T14:32:30Z</time>
      </trkpt>
      <trkpt lat="45.04464" lon="5.63763">
        <ele>1123.2</ele>
        <time>2021-01-16T14:32:31Z</time>
      </trkpt>
      <trkpt lat="45.04464" lon="5.63763">
        <ele>1123.2</ele>
        <time>2021-01-16T14:32:32Z</time>
      </trkpt>
      <trkpt lat="45.04464" lon="5.63763">
        <ele>1123.4</ele>
        <time>2021-01-16T14:32:33Z</time>
      </trkpt>
      <trkpt lat="45.04467" lon="5.63764">
        <ele>1123.2</ele>
        <time>2021-01-16T14:32:34Z</time>
      </trkpt>
      <trkpt lat="45.04467" lon="5.63764">
        <ele>1123.2</ele>
        <time>2021-01-16T14:32:35Z</time>
      </trkpt>
      <trkpt lat="45.0447" lon="5.63764">
        <ele>1122.8</ele>
        <time>2021-01-16T14:32:36Z</time>
      </trkpt>
      <trkpt lat="45.04473" lon="5.63766">
        <ele>1122.8</ele>
        <time>2021-01-16T14:32:37Z</time>
      </trkpt>
      <trkpt lat="45.04473" lon="5.63766">
        <ele>1122.6</ele>
        <time>2021-01-16T14:32:38Z</time>
      </trkpt>
      <trkpt lat="45.04473" lon="5.63766">
        <ele>1122.4</ele>
        <time>2021-01-16T14:32:39Z</time>
      </trkpt>
      <trkpt lat="45.04476" lon="5.63769">
        <ele>1122.2</ele>
        <time>2021-01-16T14:32:40Z</time>
      </trkpt>
      <trkpt lat="45.04476" lon="5.63769">
        <ele>1122.2</ele>
        <time>2021-01-16T14:32:41Z</time>
      </trkpt>
      <trkpt lat="45.04478" lon="5.63771">
        <ele>1122.2</ele>
        <time>2021-01-16T14:32:42Z</time>
      </trkpt>
      <trkpt lat="45.0448" lon="5.63772">
        <ele>1121.8</ele>
        <time>2021-01-16T14:32:43Z</time>
      </trkpt>
      <trkpt lat="45.04482" lon="5.63774">
        <ele>1121.6</ele>
        <time>2021-01-16T14:32:44Z</time>
      </trkpt>
      <trkpt lat="45.04482" lon="5.63774">
        <ele>1121.6</ele>
        <time>2021-01-16T14:32:45Z</time>
      </trkpt>
      <trkpt lat="45.04485" lon="5.63776">
        <ele>1121.6</ele>
        <time>2021-01-16T14:32:46Z</time>
      </trkpt>
      <trkpt lat="45.04485" lon="5.63776">
        <ele>1121.6</ele>
        <time>2021-01-16T14:32:47Z</time>
      </trkpt>
      <trkpt lat="45.04487" lon="5.63778">
        <ele>1122.2</ele>
        <time>2021-01-16T14:32:48Z</time>
      </trkpt>
      <trkpt lat="45.04487" lon="5.63778">
        <ele>1122.4</ele>
        <time>2021-01-16T14:32:49Z</time>
      </trkpt>
      <trkpt lat="45.0449" lon="5.6378">
        <ele>1123</ele>
        <time>2021-01-16T14:32:50Z</time>
      </trkpt>
      <trkpt lat="45.0449" lon="5.6378">
        <ele>1123.2</ele>
        <time>2021-01-16T14:32:51Z</time>
      </trkpt>
      <trkpt lat="45.0449" lon="5.6378">
        <ele>1123.6</ele>
        <time>2021-01-16T14:32:52Z</time>
      </trkpt>
      <trkpt lat="45.04492" lon="5.63782">
        <ele>1123.4</ele>
        <time>2021-01-16T14:32:53Z</time>
      </trkpt>
      <trkpt lat="45.04492" lon="5.63782">
        <ele>1123.6</ele>
        <time>2021-01-16T14:32:54Z</time>
      </trkpt>
      <trkpt lat="45.04494" lon="5.63784">
        <ele>1123.8</ele>
        <time>2021-01-16T14:32:55Z</time>
      </trkpt>
      <trkpt lat="45.04494" lon="5.63784">
        <ele>1124</ele>
        <time>2021-01-16T14:32:56Z</time>
      </trkpt>
      <trkpt lat="45.04494" lon="5.63784">
        <ele>1123.8</ele>
        <time>2021-01-16T14:32:57Z</time>
      </trkpt>
      <trkpt lat="45.04494" lon="5.63784">
        <ele>1123.8</ele>
        <time>2021-01-16T14:32:58Z</time>
      </trkpt>
      <trkpt lat="45.04496" lon="5.63785">
        <ele>1124</ele>
        <time>2021-01-16T14:32:59Z</time>
      </trkpt>
      <trkpt lat="45.04496" lon="5.63785">
        <ele>1124</ele>
        <time>2021-01-16T14:33:00Z</time>
      </trkpt>
      <trkpt lat="45.04496" lon="5.63785">
        <ele>1124.2</ele>
        <time>2021-01-16T14:33:01Z</time>
      </trkpt>
      <trkpt lat="45.04497" lon="5.63785">
        <ele>1124.4</ele>
        <time>2021-01-16T14:33:02Z</time>
      </trkpt>
      <trkpt lat="45.04497" lon="5.63785">
        <ele>1124.6</ele>
        <time>2021-01-16T14:33:03Z</time>
      </trkpt>
      <trkpt lat="45.04497" lon="5.63785">
        <ele>1124.6</ele>
        <time>2021-01-16T14:33:04Z</time>
      </trkpt>
      <trkpt lat="45.04497" lon="5.63785">
        <ele>1124.8</ele>
        <time>2021-01-16T14:33:05Z</time>
      </trkpt>
      <trkpt lat="45.04499" lon="5.63786">
        <ele>1124.8</ele>
        <time>2021-01-16T14:33:06Z</time>
      </trkpt>
      <trkpt lat="45.04499" lon="5.63786">
        <ele>1125.2</ele>
        <time>2021-01-16T14:33:07Z</time>
      </trkpt>
      <trkpt lat="45.04501" lon="5.63786">
        <ele>1125.4</ele>
        <time>2021-01-16T14:33:08Z</time>
      </trkpt>
      <trkpt lat="45.04501" lon="5.63786">
        <ele>1125.6</ele>
        <time>2021-01-16T14:33:09Z</time>
      </trkpt>
      <trkpt lat="45.04503" lon="5.63786">
        <ele>1126</ele>
        <time>2021-01-16T14:33:10Z</time>
      </trkpt>
      <trkpt lat="45.04503" lon="5.63786">
        <ele>1126.2</ele>
        <time>2021-01-16T14:33:11Z</time>
      </trkpt>
      <trkpt lat="45.04503" lon="5.63786">
        <ele>1126.6</ele>
        <time>2021-01-16T14:33:12Z</time>
      </trkpt>
      <trkpt lat="45.04505" lon="5.63788">
        <ele>1126.8</ele>
        <time>2021-01-16T14:33:13Z</time>
      </trkpt>
      <trkpt lat="45.04505" lon="5.63788">
        <ele>1127</ele>
        <time>2021-01-16T14:33:14Z</time>
      </trkpt>
      <trkpt lat="45.04505" lon="5.63788">
        <ele>1127</ele>
        <time>2021-01-16T14:33:15Z</time>
      </trkpt>
      <trkpt lat="45.04505" lon="5.63788">
        <ele>1127.2</ele>
        <time>2021-01-16T14:33:16Z</time>
      </trkpt>
      <trkpt lat="45.04505" lon="5.63788">
        <ele>1127.8</ele>
        <time>2021-01-16T14:33:17Z</time>
      </trkpt>
      <trkpt lat="45.04505" lon="5.63791">
        <ele>1128</ele>
        <time>2021-01-16T14:33:18Z</time>
      </trkpt>
      <trkpt lat="45.04505" lon="5.63791">
        <ele>1128.2</ele>
        <time>2021-01-16T14:33:19Z</time>
      </trkpt>
      <trkpt lat="45.04505" lon="5.63791">
        <ele>1128.4</ele>
        <time>2021-01-16T14:33:20Z</time>
      </trkpt>
      <trkpt lat="45.04505" lon="5.63791">
        <ele>1128.4</ele>
        <time>2021-01-16T14:33:21Z</time>
      </trkpt>
      <trkpt lat="45.04505" lon="5.63791">
        <ele>1128.6</ele>
        <time>2021-01-16T14:33:22Z</time>
      </trkpt>
      <trkpt lat="45.04507" lon="5.63792">
        <ele>1128.8</ele>
        <time>2021-01-16T14:33:23Z</time>
      </trkpt>
      <trkpt lat="45.04507" lon="5.63792">
        <ele>1129</ele>
        <time>2021-01-16T14:33:24Z</time>
      </trkpt>
      <trkpt lat="45.04507" lon="5.63792">
        <ele>1129</ele>
        <time>2021-01-16T14:33:25Z</time>
      </trkpt>
      <trkpt lat="45.04507" lon="5.63792">
        <ele>1129.2</ele>
        <time>2021-01-16T14:33:26Z</time>
      </trkpt>
      <trkpt lat="45.04507" lon="5.63792">
        <ele>1129.4</ele>
        <time>2021-01-16T14:33:27Z</time>
      </trkpt>
      <trkpt lat="45.04507" lon="5.63792">
        <ele>1129.8</ele>
        <time>2021-01-16T14:33:28Z</time>
      </trkpt>
      <trkpt lat="45.04507" lon="5.63792">
        <ele>1130</ele>
        <time>2021-01-16T14:33:29Z</time>
      </trkpt>
      <trkpt lat="45.04507" lon="5.63792">
        <ele>1130.2</ele>
        <time>2021-01-16T14:33:30Z</time>
      </trkpt>
      <trkpt lat="45.04507" lon="5.63792">
        <ele>1130.4</ele>
        <time>2021-01-16T14:33:31Z</time>
      </trkpt>
      <trkpt lat="45.04509" lon="5.63795">
        <ele>1130.6</ele>
        <time>2021-01-16T14:33:32Z</time>
      </trkpt>
      <trkpt lat="45.04509" lon="5.63795">
        <ele>1130.8</ele>
        <time>2021-01-16T14:33:33Z</time>
      </trkpt>
      <trkpt lat="45.04509" lon="5.63795">
        <ele>1131</ele>
        <time>2021-01-16T14:33:34Z</time>
      </trkpt>
      <trkpt lat="45.04509" lon="5.63795">
        <ele>1131.4</ele>
        <time>2021-01-16T14:33:35Z</time>
      </trkpt>
      <trkpt lat="45.04511" lon="5.63793">
        <ele>1131.8</ele>
        <time>2021-01-16T14:33:36Z</time>
      </trkpt>
      <trkpt lat="45.04511" lon="5.63793">
        <ele>1132</ele>
        <time>2021-01-16T14:33:37Z</time>
      </trkpt>
      <trkpt lat="45.04511" lon="5.63793">
        <ele>1132.4</ele>
        <time>2021-01-16T14:33:38Z</time>
      </trkpt>
      <trkpt lat="45.04511" lon="5.63793">
        <ele>1132.6</ele>
        <time>2021-01-16T14:33:39Z</time>
      </trkpt>
      <trkpt lat="45.04513" lon="5.63793">
        <ele>1132.8</ele>
        <time>2021-01-16T14:33:40Z</time>
      </trkpt>
      <trkpt lat="45.04513" lon="5.63793">
        <ele>1133.2</ele>
        <time>2021-01-16T14:33:41Z</time>
      </trkpt>
      <trkpt lat="45.04513" lon="5.63793">
        <ele>1133.4</ele>
        <time>2021-01-16T14:33:42Z</time>
      </trkpt>
      <trkpt lat="45.04513" lon="5.63793">
        <ele>1133.4</ele>
        <time>2021-01-16T14:33:43Z</time>
      </trkpt>
      <trkpt lat="45.04513" lon="5.63793">
        <ele>1133.8</ele>
        <time>2021-01-16T14:33:44Z</time>
      </trkpt>
      <trkpt lat="45.04513" lon="5.63793">
        <ele>1134.2</ele>
        <time>2021-01-16T14:33:45Z</time>
      </trkpt>
      <trkpt lat="45.04515" lon="5.63793">
        <ele>1134.4</ele>
        <time>2021-01-16T14:33:46Z</time>
      </trkpt>
      <trkpt lat="45.04515" lon="5.63793">
        <ele>1134.6</ele>
        <time>2021-01-16T14:33:47Z</time>
      </trkpt>
      <trkpt lat="45.04517" lon="5.63793">
        <ele>1135</ele>
        <time>2021-01-16T14:33:48Z</time>
      </trkpt>
      <trkpt lat="45.04517" lon="5.63793">
        <ele>1135.4</ele>
        <time>2021-01-16T14:33:49Z</time>
      </trkpt>
      <trkpt lat="45.04518" lon="5.63794">
        <ele>1135.8</ele>
        <time>2021-01-16T14:33:50Z</time>
      </trkpt>
      <trkpt lat="45.04518" lon="5.63794">
        <ele>1135.8</ele>
        <time>2021-01-16T14:33:51Z</time>
      </trkpt>
      <trkpt lat="45.04518" lon="5.63794">
        <ele>1136</ele>
        <time>2021-01-16T14:33:52Z</time>
      </trkpt>
      <trkpt lat="45.04518" lon="5.63794">
        <ele>1136.2</ele>
        <time>2021-01-16T14:33:53Z</time>
      </trkpt>
      <trkpt lat="45.04521" lon="5.63795">
        <ele>1136.2</ele>
        <time>2021-01-16T14:33:54Z</time>
      </trkpt>
      <trkpt lat="45.04521" lon="5.63795">
        <ele>1136.4</ele>
        <time>2021-01-16T14:33:55Z</time>
      </trkpt>
      <trkpt lat="45.04521" lon="5.63795">
        <ele>1136.6</ele>
        <time>2021-01-16T14:33:56Z</time>
      </trkpt>
      <trkpt lat="45.04523" lon="5.63796">
        <ele>1136.8</ele>
        <time>2021-01-16T14:33:57Z</time>
      </trkpt>
      <trkpt lat="45.04523" lon="5.63796">
        <ele>1137</ele>
        <time>2021-01-16T14:33:58Z</time>
      </trkpt>
      <trkpt lat="45.04523" lon="5.63796">
        <ele>1137.2</ele>
        <time>2021-01-16T14:33:59Z</time>
      </trkpt>
      <trkpt lat="45.04523" lon="5.63796">
        <ele>1137.4</ele>
        <time>2021-01-16T14:34:00Z</time>
      </trkpt>
      <trkpt lat="45.04525" lon="5.63797">
        <ele>1137.8</ele>
        <time>2021-01-16T14:34:01Z</time>
      </trkpt>
      <trkpt lat="45.04525" lon="5.63797">
        <ele>1138</ele>
        <time>2021-01-16T14:34:02Z</time>
      </trkpt>
      <trkpt lat="45.04525" lon="5.63797">
        <ele>1138.4</ele>
        <time>2021-01-16T14:34:03Z</time>
      </trkpt>
      <trkpt lat="45.04525" lon="5.63797">
        <ele>1138.4</ele>
        <time>2021-01-16T14:34:04Z</time>
      </trkpt>
      <trkpt lat="45.04528" lon="5.63799">
        <ele>1138.6</ele>
        <time>2021-01-16T14:34:05Z</time>
      </trkpt>
      <trkpt lat="45.04528" lon="5.63799">
        <ele>1138.8</ele>
        <time>2021-01-16T14:34:06Z</time>
      </trkpt>
      <trkpt lat="45.04529" lon="5.63799">
        <ele>1139</ele>
        <time>2021-01-16T14:34:07Z</time>
      </trkpt>
      <trkpt lat="45.04529" lon="5.63799">
        <ele>1139.4</ele>
        <time>2021-01-16T14:34:08Z</time>
      </trkpt>
      <trkpt lat="45.04529" lon="5.63799">
        <ele>1139.6</ele>
        <time>2021-01-16T14:34:09Z</time>
      </trkpt>
      <trkpt lat="45.04532" lon="5.63799">
        <ele>1139.8</ele>
        <time>2021-01-16T14:34:10Z</time>
      </trkpt>
      <trkpt lat="45.04532" lon="5.63799">
        <ele>1140</ele>
        <time>2021-01-16T14:34:11Z</time>
      </trkpt>
      <trkpt lat="45.04532" lon="5.63799">
        <ele>1140.4</ele>
        <time>2021-01-16T14:34:12Z</time>
      </trkpt>
      <trkpt lat="45.04534" lon="5.63799">
        <ele>1140.6</ele>
        <time>2021-01-16T14:34:13Z</time>
      </trkpt>
      <trkpt lat="45.04534" lon="5.63799">
        <ele>1140.8</ele>
        <time>2021-01-16T14:34:14Z</time>
      </trkpt>
      <trkpt lat="45.04534" lon="5.63799">
        <ele>1141</ele>
        <time>2021-01-16T14:34:15Z</time>
      </trkpt>
      <trkpt lat="45.04534" lon="5.63799">
        <ele>1141.2</ele>
        <time>2021-01-16T14:34:16Z</time>
      </trkpt>
      <trkpt lat="45.04534" lon="5.63799">
        <ele>1141.4</ele>
        <time>2021-01-16T14:34:17Z</time>
      </trkpt>
      <trkpt lat="45.04536" lon="5.63801">
        <ele>1141.6</ele>
        <time>2021-01-16T14:34:18Z</time>
      </trkpt>
      <trkpt lat="45.04538" lon="5.63802">
        <ele>1141.8</ele>
        <time>2021-01-16T14:34:19Z</time>
      </trkpt>
      <trkpt lat="45.04538" lon="5.63802">
        <ele>1141.8</ele>
        <time>2021-01-16T14:34:20Z</time>
      </trkpt>
      <trkpt lat="45.0454" lon="5.63803">
        <ele>1142</ele>
        <time>2021-01-16T14:34:21Z</time>
      </trkpt>
      <trkpt lat="45.04542" lon="5.63804">
        <ele>1142.2</ele>
        <time>2021-01-16T14:34:22Z</time>
      </trkpt>
      <trkpt lat="45.04544" lon="5.63806">
        <ele>1142.2</ele>
        <time>2021-01-16T14:34:23Z</time>
      </trkpt>
      <trkpt lat="45.04546" lon="5.63807">
        <ele>1142.4</ele>
        <time>2021-01-16T14:34:24Z</time>
      </trkpt>
      <trkpt lat="45.04548" lon="5.63808">
        <ele>1142.8</ele>
        <time>2021-01-16T14:34:25Z</time>
      </trkpt>
      <trkpt lat="45.04557" lon="5.63813">
        <ele>1143</ele>
        <time>2021-01-16T14:34:26Z</time>
      </trkpt>
      <trkpt lat="45.04566" lon="5.63818">
        <ele>1143.2</ele>
        <time>2021-01-16T14:34:27Z</time>
      </trkpt>
      <trkpt lat="45.04574" lon="5.63823">
        <ele>1143.6</ele>
        <time>2021-01-16T14:34:28Z</time>
      </trkpt>
      <trkpt lat="45.04583" lon="5.63828">
        <ele>1143.6</ele>
        <time>2021-01-16T14:34:29Z</time>
      </trkpt>
      <trkpt lat="45.04592" lon="5.63833">
        <ele>1143.6</ele>
        <time>2021-01-16T14:34:30Z</time>
      </trkpt>
      <trkpt lat="45.04601" lon="5.63838">
        <ele>1143.6</ele>
        <time>2021-01-16T14:34:31Z</time>
      </trkpt>
      <trkpt lat="45.04603" lon="5.63838">
        <ele>1143.8</ele>
        <time>2021-01-16T14:34:32Z</time>
      </trkpt>
      <trkpt lat="45.04606" lon="5.63837">
        <ele>1144</ele>
        <time>2021-01-16T14:34:33Z</time>
      </trkpt>
      <trkpt lat="45.04609" lon="5.63837">
        <ele>1143.8</ele>
        <time>2021-01-16T14:34:34Z</time>
      </trkpt>
      <trkpt lat="45.04612" lon="5.63837">
        <ele>1143.8</ele>
        <time>2021-01-16T14:34:35Z</time>
      </trkpt>
      <trkpt lat="45.04613" lon="5.63837">
        <ele>1144</ele>
        <time>2021-01-16T14:34:36Z</time>
      </trkpt>
      <trkpt lat="45.04615" lon="5.63838">
        <ele>1144</ele>
        <time>2021-01-16T14:34:37Z</time>
      </trkpt>
      <trkpt lat="45.04616" lon="5.63838">
        <ele>1144.2</ele>
        <time>2021-01-16T14:34:38Z</time>
      </trkpt>
      <trkpt lat="45.04618" lon="5.63839">
        <ele>1144.4</ele>
        <time>2021-01-16T14:34:39Z</time>
      </trkpt>
      <trkpt lat="45.04619" lon="5.63839">
        <ele>1144.6</ele>
        <time>2021-01-16T14:34:40Z</time>
      </trkpt>
      <trkpt lat="45.04621" lon="5.6384">
        <ele>1144.8</ele>
        <time>2021-01-16T14:34:41Z</time>
      </trkpt>
      <trkpt lat="45.04621" lon="5.6384">
        <ele>1145</ele>
        <time>2021-01-16T14:34:42Z</time>
      </trkpt>
      <trkpt lat="45.04624" lon="5.6384">
        <ele>1145.2</ele>
        <time>2021-01-16T14:34:43Z</time>
      </trkpt>
      <trkpt lat="45.04624" lon="5.6384">
        <ele>1145.2</ele>
        <time>2021-01-16T14:34:44Z</time>
      </trkpt>
      <trkpt lat="45.04626" lon="5.6384">
        <ele>1145.4</ele>
        <time>2021-01-16T14:34:45Z</time>
      </trkpt>
      <trkpt lat="45.04626" lon="5.6384">
        <ele>1145.6</ele>
        <time>2021-01-16T14:34:46Z</time>
      </trkpt>
      <trkpt lat="45.04626" lon="5.6384">
        <ele>1146</ele>
        <time>2021-01-16T14:34:47Z</time>
      </trkpt>
      <trkpt lat="45.04626" lon="5.6384">
        <ele>1146.2</ele>
        <time>2021-01-16T14:34:48Z</time>
      </trkpt>
      <trkpt lat="45.04628" lon="5.6384">
        <ele>1146.4</ele>
        <time>2021-01-16T14:34:49Z</time>
      </trkpt>
      <trkpt lat="45.04628" lon="5.6384">
        <ele>1146.6</ele>
        <time>2021-01-16T14:34:50Z</time>
      </trkpt>
      <trkpt lat="45.04628" lon="5.6384">
        <ele>1146.8</ele>
        <time>2021-01-16T14:34:51Z</time>
      </trkpt>
      <trkpt lat="45.04629" lon="5.63841">
        <ele>1147.2</ele>
        <time>2021-01-16T14:34:52Z</time>
      </trkpt>
      <trkpt lat="45.04629" lon="5.63841">
        <ele>1147.4</ele>
        <time>2021-01-16T14:34:53Z</time>
      </trkpt>
      <trkpt lat="45.04629" lon="5.63841">
        <ele>1147.8</ele>
        <time>2021-01-16T14:34:54Z</time>
      </trkpt>
      <trkpt lat="45.04629" lon="5.63841">
        <ele>1148</ele>
        <time>2021-01-16T14:34:55Z</time>
      </trkpt>
      <trkpt lat="45.04629" lon="5.63841">
        <ele>1148.4</ele>
        <time>2021-01-16T14:34:56Z</time>
      </trkpt>
      <trkpt lat="45.04629" lon="5.63841">
        <ele>1148.6</ele>
        <time>2021-01-16T14:34:57Z</time>
      </trkpt>
      <trkpt lat="45.04631" lon="5.63843">
        <ele>1148.8</ele>
        <time>2021-01-16T14:34:58Z</time>
      </trkpt>
      <trkpt lat="45.04631" lon="5.63843">
        <ele>1149</ele>
        <time>2021-01-16T14:34:59Z</time>
      </trkpt>
      <trkpt lat="45.04631" lon="5.63843">
        <ele>1149.2</ele>
        <time>2021-01-16T14:35:00Z</time>
      </trkpt>
      <trkpt lat="45.04633" lon="5.63843">
        <ele>1149.4</ele>
        <time>2021-01-16T14:35:01Z</time>
      </trkpt>
      <trkpt lat="45.04633" lon="5.63843">
        <ele>1149.6</ele>
        <time>2021-01-16T14:35:02Z</time>
      </trkpt>
      <trkpt lat="45.04633" lon="5.63843">
        <ele>1149.8</ele>
        <time>2021-01-16T14:35:03Z</time>
      </trkpt>
      <trkpt lat="45.04633" lon="5.63843">
        <ele>1150</ele>
        <time>2021-01-16T14:35:04Z</time>
      </trkpt>
      <trkpt lat="45.04635" lon="5.63842">
        <ele>1150.2</ele>
        <time>2021-01-16T14:35:05Z</time>
      </trkpt>
      <trkpt lat="45.04635" lon="5.63842">
        <ele>1150.4</ele>
        <time>2021-01-16T14:35:06Z</time>
      </trkpt>
      <trkpt lat="45.04635" lon="5.63842">
        <ele>1150.8</ele>
        <time>2021-01-16T14:35:07Z</time>
      </trkpt>
      <trkpt lat="45.04638" lon="5.63843">
        <ele>1151</ele>
        <time>2021-01-16T14:35:08Z</time>
      </trkpt>
      <trkpt lat="45.04638" lon="5.63843">
        <ele>1151.2</ele>
        <time>2021-01-16T14:35:09Z</time>
      </trkpt>
      <trkpt lat="45.04638" lon="5.63843">
        <ele>1151.4</ele>
        <time>2021-01-16T14:35:10Z</time>
      </trkpt>
      <trkpt lat="45.04638" lon="5.63843">
        <ele>1151.6</ele>
        <time>2021-01-16T14:35:11Z</time>
      </trkpt>
      <trkpt lat="45.04638" lon="5.63843">
        <ele>1151.8</ele>
        <time>2021-01-16T14:35:12Z</time>
      </trkpt>
      <trkpt lat="45.0464" lon="5.63845">
        <ele>1152</ele>
        <time>2021-01-16T14:35:13Z</time>
      </trkpt>
      <trkpt lat="45.0464" lon="5.63845">
        <ele>1152.4</ele>
        <time>2021-01-16T14:35:14Z</time>
      </trkpt>
      <trkpt lat="45.04642" lon="5.63845">
        <ele>1152.4</ele>
        <time>2021-01-16T14:35:15Z</time>
      </trkpt>
      <trkpt lat="45.04642" lon="5.63845">
        <ele>1152.8</ele>
        <time>2021-01-16T14:35:16Z</time>
      </trkpt>
      <trkpt lat="45.04642" lon="5.63845">
        <ele>1153</ele>
        <time>2021-01-16T14:35:17Z</time>
      </trkpt>
      <trkpt lat="45.04642" lon="5.63845">
        <ele>1153.2</ele>
        <time>2021-01-16T14:35:18Z</time>
      </trkpt>
      <trkpt lat="45.04642" lon="5.63845">
        <ele>1153.2</ele>
        <time>2021-01-16T14:35:19Z</time>
      </trkpt>
      <trkpt lat="45.04642" lon="5.63845">
        <ele>1153.4</ele>
        <time>2021-01-16T14:35:20Z</time>
      </trkpt>
      <trkpt lat="45.04642" lon="5.63845">
        <ele>1153.6</ele>
        <time>2021-01-16T14:35:21Z</time>
      </trkpt>
      <trkpt lat="45.04642" lon="5.63845">
        <ele>1153.6</ele>
        <time>2021-01-16T14:35:22Z</time>
      </trkpt>
      <trkpt lat="45.04644" lon="5.63846">
        <ele>1153.8</ele>
        <time>2021-01-16T14:35:23Z</time>
      </trkpt>
      <trkpt lat="45.04644" lon="5.63846">
        <ele>1153.8</ele>
        <time>2021-01-16T14:35:24Z</time>
      </trkpt>
      <trkpt lat="45.04644" lon="5.63846">
        <ele>1153.8</ele>
        <time>2021-01-16T14:35:25Z</time>
      </trkpt>
      <trkpt lat="45.04644" lon="5.63846">
        <ele>1154</ele>
        <time>2021-01-16T14:35:26Z</time>
      </trkpt>
      <trkpt lat="45.04645" lon="5.63847">
        <ele>1154.2</ele>
        <time>2021-01-16T14:35:27Z</time>
      </trkpt>
      <trkpt lat="45.04645" lon="5.63847">
        <ele>1154.6</ele>
        <time>2021-01-16T14:35:28Z</time>
      </trkpt>
      <trkpt lat="45.04645" lon="5.63847">
        <ele>1154.8</ele>
        <time>2021-01-16T14:35:29Z</time>
      </trkpt>
      <trkpt lat="45.04648" lon="5.63848">
        <ele>1155.2</ele>
        <time>2021-01-16T14:35:30Z</time>
      </trkpt>
      <trkpt lat="45.0465" lon="5.63849">
        <ele>1155.6</ele>
        <time>2021-01-16T14:35:31Z</time>
      </trkpt>
      <trkpt lat="45.0465" lon="5.63849">
        <ele>1155.6</ele>
        <time>2021-01-16T14:35:32Z</time>
      </trkpt>
      <trkpt lat="45.0465" lon="5.63849">
        <ele>1155.8</ele>
        <time>2021-01-16T14:35:33Z</time>
      </trkpt>
      <trkpt lat="45.04651" lon="5.6385">
        <ele>1156.2</ele>
        <time>2021-01-16T14:35:34Z</time>
      </trkpt>
      <trkpt lat="45.04651" lon="5.6385">
        <ele>1156.4</ele>
        <time>2021-01-16T14:35:35Z</time>
      </trkpt>
      <trkpt lat="45.04653" lon="5.63851">
        <ele>1156.4</ele>
        <time>2021-01-16T14:35:36Z</time>
      </trkpt>
      <trkpt lat="45.04653" lon="5.63851">
        <ele>1156.6</ele>
        <time>2021-01-16T14:35:37Z</time>
      </trkpt>
      <trkpt lat="45.04655" lon="5.63852">
        <ele>1156.8</ele>
        <time>2021-01-16T14:35:38Z</time>
      </trkpt>
      <trkpt lat="45.04655" lon="5.63852">
        <ele>1157</ele>
        <time>2021-01-16T14:35:39Z</time>
      </trkpt>
      <trkpt lat="45.04655" lon="5.63852">
        <ele>1157.4</ele>
        <time>2021-01-16T14:35:40Z</time>
      </trkpt>
      <trkpt lat="45.04657" lon="5.63853">
        <ele>1157.6</ele>
        <time>2021-01-16T14:35:41Z</time>
      </trkpt>
      <trkpt lat="45.04657" lon="5.63853">
        <ele>1157.8</ele>
        <time>2021-01-16T14:35:42Z</time>
      </trkpt>
      <trkpt lat="45.04657" lon="5.63853">
        <ele>1157.8</ele>
        <time>2021-01-16T14:35:43Z</time>
      </trkpt>
      <trkpt lat="45.0466" lon="5.63853">
        <ele>1158</ele>
        <time>2021-01-16T14:35:44Z</time>
      </trkpt>
      <trkpt lat="45.0466" lon="5.63853">
        <ele>1158.2</ele>
        <time>2021-01-16T14:35:45Z</time>
      </trkpt>
      <trkpt lat="45.04662" lon="5.63852">
        <ele>1158.6</ele>
        <time>2021-01-16T14:35:46Z</time>
      </trkpt>
      <trkpt lat="45.04662" lon="5.63852">
        <ele>1158.8</ele>
        <time>2021-01-16T14:35:47Z</time>
      </trkpt>
      <trkpt lat="45.04662" lon="5.63852">
        <ele>1158.8</ele>
        <time>2021-01-16T14:35:48Z</time>
      </trkpt>
      <trkpt lat="45.04664" lon="5.63851">
        <ele>1159.2</ele>
        <time>2021-01-16T14:35:49Z</time>
      </trkpt>
      <trkpt lat="45.04664" lon="5.63851">
        <ele>1159.6</ele>
        <time>2021-01-16T14:35:50Z</time>
      </trkpt>
      <trkpt lat="45.04664" lon="5.63851">
        <ele>1159.8</ele>
        <time>2021-01-16T14:35:51Z</time>
      </trkpt>
      <trkpt lat="45.04664" lon="5.63851">
        <ele>1160.2</ele>
        <time>2021-01-16T14:35:52Z</time>
      </trkpt>
      <trkpt lat="45.04664" lon="5.63851">
        <ele>1160.4</ele>
        <time>2021-01-16T14:35:53Z</time>
      </trkpt>
      <trkpt lat="45.04666" lon="5.63851">
        <ele>1160.6</ele>
        <time>2021-01-16T14:35:54Z</time>
      </trkpt>
      <trkpt lat="45.04666" lon="5.63851">
        <ele>1160.8</ele>
        <time>2021-01-16T14:35:55Z</time>
      </trkpt>
      <trkpt lat="45.04666" lon="5.63851">
        <ele>1161</ele>
        <time>2021-01-16T14:35:56Z</time>
      </trkpt>
      <trkpt lat="45.04666" lon="5.63851">
        <ele>1161.4</ele>
        <time>2021-01-16T14:35:57Z</time>
      </trkpt>
      <trkpt lat="45.04666" lon="5.63851">
        <ele>1161.6</ele>
        <time>2021-01-16T14:35:58Z</time>
      </trkpt>
      <trkpt lat="45.04666" lon="5.63851">
        <ele>1161.8</ele>
        <time>2021-01-16T14:35:59Z</time>
      </trkpt>
      <trkpt lat="45.04668" lon="5.63853">
        <ele>1162.2</ele>
        <time>2021-01-16T14:36:00Z</time>
      </trkpt>
      <trkpt lat="45.04668" lon="5.63853">
        <ele>1162.2</ele>
        <time>2021-01-16T14:36:01Z</time>
      </trkpt>
      <trkpt lat="45.04668" lon="5.63853">
        <ele>1162.4</ele>
        <time>2021-01-16T14:36:02Z</time>
      </trkpt>
      <trkpt lat="45.04668" lon="5.63853">
        <ele>1162.8</ele>
        <time>2021-01-16T14:36:03Z</time>
      </trkpt>
      <trkpt lat="45.04668" lon="5.63853">
        <ele>1163.2</ele>
        <time>2021-01-16T14:36:04Z</time>
      </trkpt>
      <trkpt lat="45.0467" lon="5.63854">
        <ele>1163.4</ele>
        <time>2021-01-16T14:36:05Z</time>
      </trkpt>
      <trkpt lat="45.0467" lon="5.63854">
        <ele>1163.4</ele>
        <time>2021-01-16T14:36:06Z</time>
      </trkpt>
      <trkpt lat="45.0467" lon="5.63854">
        <ele>1163.6</ele>
        <time>2021-01-16T14:36:07Z</time>
      </trkpt>
      <trkpt lat="45.0467" lon="5.63854">
        <ele>1163.8</ele>
        <time>2021-01-16T14:36:08Z</time>
      </trkpt>
      <trkpt lat="45.0467" lon="5.63854">
        <ele>1164</ele>
        <time>2021-01-16T14:36:09Z</time>
      </trkpt>
      <trkpt lat="45.0467" lon="5.63854">
        <ele>1164.4</ele>
        <time>2021-01-16T14:36:10Z</time>
      </trkpt>
      <trkpt lat="45.04671" lon="5.63856">
        <ele>1164.4</ele>
        <time>2021-01-16T14:36:11Z</time>
      </trkpt>
      <trkpt lat="45.04671" lon="5.63856">
        <ele>1164.6</ele>
        <time>2021-01-16T14:36:12Z</time>
      </trkpt>
      <trkpt lat="45.04671" lon="5.63856">
        <ele>1164.8</ele>
        <time>2021-01-16T14:36:13Z</time>
      </trkpt>
      <trkpt lat="45.04671" lon="5.63856">
        <ele>1164.8</ele>
        <time>2021-01-16T14:36:14Z</time>
      </trkpt>
      <trkpt lat="45.04671" lon="5.63856">
        <ele>1165</ele>
        <time>2021-01-16T14:36:15Z</time>
      </trkpt>
      <trkpt lat="45.04671" lon="5.63856">
        <ele>1165.4</ele>
        <time>2021-01-16T14:36:16Z</time>
      </trkpt>
      <trkpt lat="45.04671" lon="5.63856">
        <ele>1165.4</ele>
        <time>2021-01-16T14:36:17Z</time>
      </trkpt>
      <trkpt lat="45.04671" lon="5.63856">
        <ele>1165.6</ele>
        <time>2021-01-16T14:36:18Z</time>
      </trkpt>
      <trkpt lat="45.04671" lon="5.63856">
        <ele>1166.2</ele>
        <time>2021-01-16T14:36:19Z</time>
      </trkpt>
      <trkpt lat="45.04671" lon="5.63856">
        <ele>1166.4</ele>
        <time>2021-01-16T14:36:20Z</time>
      </trkpt>
      <trkpt lat="45.04673" lon="5.63858">
        <ele>1166.4</ele>
        <time>2021-01-16T14:36:21Z</time>
      </trkpt>
      <trkpt lat="45.04673" lon="5.63858">
        <ele>1166.6</ele>
        <time>2021-01-16T14:36:22Z</time>
      </trkpt>
      <trkpt lat="45.04674" lon="5.6386">
        <ele>1166.8</ele>
        <time>2021-01-16T14:36:23Z</time>
      </trkpt>
      <trkpt lat="45.04674" lon="5.6386">
        <ele>1166.8</ele>
        <time>2021-01-16T14:36:24Z</time>
      </trkpt>
      <trkpt lat="45.04674" lon="5.6386">
        <ele>1166.8</ele>
        <time>2021-01-16T14:36:25Z</time>
      </trkpt>
      <trkpt lat="45.04674" lon="5.6386">
        <ele>1166.8</ele>
        <time>2021-01-16T14:36:26Z</time>
      </trkpt>
      <trkpt lat="45.04674" lon="5.6386">
        <ele>1167</ele>
        <time>2021-01-16T14:36:27Z</time>
      </trkpt>
      <trkpt lat="45.04674" lon="5.6386">
        <ele>1167.2</ele>
        <time>2021-01-16T14:36:28Z</time>
      </trkpt>
      <trkpt lat="45.04674" lon="5.6386">
        <ele>1167.4</ele>
        <time>2021-01-16T14:36:29Z</time>
      </trkpt>
      <trkpt lat="45.04676" lon="5.63861">
        <ele>1167.6</ele>
        <time>2021-01-16T14:36:30Z</time>
      </trkpt>
      <trkpt lat="45.04676" lon="5.63861">
        <ele>1167.6</ele>
        <time>2021-01-16T14:36:31Z</time>
      </trkpt>
      <trkpt lat="45.04678" lon="5.63862">
        <ele>1167.8</ele>
        <time>2021-01-16T14:36:32Z</time>
      </trkpt>
      <trkpt lat="45.04678" lon="5.63862">
        <ele>1167.8</ele>
        <time>2021-01-16T14:36:33Z</time>
      </trkpt>
      <trkpt lat="45.04678" lon="5.63862">
        <ele>1168</ele>
        <time>2021-01-16T14:36:34Z</time>
      </trkpt>
      <trkpt lat="45.0468" lon="5.63864">
        <ele>1168.2</ele>
        <time>2021-01-16T14:36:35Z</time>
      </trkpt>
      <trkpt lat="45.0468" lon="5.63864">
        <ele>1168.4</ele>
        <time>2021-01-16T14:36:36Z</time>
      </trkpt>
      <trkpt lat="45.04683" lon="5.63865">
        <ele>1168.6</ele>
        <time>2021-01-16T14:36:37Z</time>
      </trkpt>
      <trkpt lat="45.04683" lon="5.63865">
        <ele>1168.8</ele>
        <time>2021-01-16T14:36:38Z</time>
      </trkpt>
      <trkpt lat="45.04683" lon="5.63865">
        <ele>1168.8</ele>
        <time>2021-01-16T14:36:39Z</time>
      </trkpt>
      <trkpt lat="45.04685" lon="5.63866">
        <ele>1168.8</ele>
        <time>2021-01-16T14:36:40Z</time>
      </trkpt>
      <trkpt lat="45.04685" lon="5.63866">
        <ele>1169</ele>
        <time>2021-01-16T14:36:41Z</time>
      </trkpt>
      <trkpt lat="45.04685" lon="5.63866">
        <ele>1169.4</ele>
        <time>2021-01-16T14:36:42Z</time>
      </trkpt>
      <trkpt lat="45.04685" lon="5.63866">
        <ele>1169.6</ele>
        <time>2021-01-16T14:36:43Z</time>
      </trkpt>
      <trkpt lat="45.04686" lon="5.63868">
        <ele>1169.8</ele>
        <time>2021-01-16T14:36:44Z</time>
      </trkpt>
      <trkpt lat="45.04686" lon="5.63868">
        <ele>1170.2</ele>
        <time>2021-01-16T14:36:45Z</time>
      </trkpt>
      <trkpt lat="45.04686" lon="5.63868">
        <ele>1170.4</ele>
        <time>2021-01-16T14:36:46Z</time>
      </trkpt>
      <trkpt lat="45.04688" lon="5.63866">
        <ele>1170.6</ele>
        <time>2021-01-16T14:36:47Z</time>
      </trkpt>
      <trkpt lat="45.04688" lon="5.63866">
        <ele>1171.2</ele>
        <time>2021-01-16T14:36:48Z</time>
      </trkpt>
      <trkpt lat="45.04688" lon="5.63866">
        <ele>1171.2</ele>
        <time>2021-01-16T14:36:49Z</time>
      </trkpt>
      <trkpt lat="45.04688" lon="5.63866">
        <ele>1171.2</ele>
        <time>2021-01-16T14:36:50Z</time>
      </trkpt>
      <trkpt lat="45.04688" lon="5.63866">
        <ele>1171.4</ele>
        <time>2021-01-16T14:36:51Z</time>
      </trkpt>
      <trkpt lat="45.04688" lon="5.63866">
        <ele>1171.4</ele>
        <time>2021-01-16T14:36:52Z</time>
      </trkpt>
      <trkpt lat="45.0469" lon="5.63864">
        <ele>1171.6</ele>
        <time>2021-01-16T14:36:53Z</time>
      </trkpt>
      <trkpt lat="45.0469" lon="5.63864">
        <ele>1171.6</ele>
        <time>2021-01-16T14:36:54Z</time>
      </trkpt>
      <trkpt lat="45.0469" lon="5.63864">
        <ele>1171.6</ele>
        <time>2021-01-16T14:36:55Z</time>
      </trkpt>
      <trkpt lat="45.0469" lon="5.63864">
        <ele>1171.8</ele>
        <time>2021-01-16T14:36:56Z</time>
      </trkpt>
      <trkpt lat="45.0469" lon="5.63864">
        <ele>1172</ele>
        <time>2021-01-16T14:36:57Z</time>
      </trkpt>
      <trkpt lat="45.04692" lon="5.63864">
        <ele>1172.2</ele>
        <time>2021-01-16T14:36:58Z</time>
      </trkpt>
      <trkpt lat="45.04692" lon="5.63864">
        <ele>1172.4</ele>
        <time>2021-01-16T14:36:59Z</time>
      </trkpt>
      <trkpt lat="45.04692" lon="5.63864">
        <ele>1172.6</ele>
        <time>2021-01-16T14:37:00Z</time>
      </trkpt>
      <trkpt lat="45.04692" lon="5.63864">
        <ele>1172.8</ele>
        <time>2021-01-16T14:37:01Z</time>
      </trkpt>
      <trkpt lat="45.04692" lon="5.63864">
        <ele>1173</ele>
        <time>2021-01-16T14:37:02Z</time>
      </trkpt>
      <trkpt lat="45.04692" lon="5.63864">
        <ele>1173</ele>
        <time>2021-01-16T14:37:03Z</time>
      </trkpt>
      <trkpt lat="45.04692" lon="5.63864">
        <ele>1173</ele>
        <time>2021-01-16T14:37:04Z</time>
      </trkpt>
      <trkpt lat="45.04692" lon="5.63864">
        <ele>1173</ele>
        <time>2021-01-16T14:37:05Z</time>
      </trkpt>
      <trkpt lat="45.04692" lon="5.63864">
        <ele>1173</ele>
        <time>2021-01-16T14:37:06Z</time>
      </trkpt>
      <trkpt lat="45.04692" lon="5.63864">
        <ele>1173</ele>
        <time>2021-01-16T14:37:07Z</time>
      </trkpt>
      <trkpt lat="45.04692" lon="5.63867">
        <ele>1173</ele>
        <time>2021-01-16T14:37:08Z</time>
      </trkpt>
      <trkpt lat="45.04694" lon="5.63867">
        <ele>1172.8</ele>
        <time>2021-01-16T14:37:09Z</time>
      </trkpt>
      <trkpt lat="45.04694" lon="5.63867">
        <ele>1172.8</ele>
        <time>2021-01-16T14:37:10Z</time>
      </trkpt>
      <trkpt lat="45.04694" lon="5.63867">
        <ele>1172.6</ele>
        <time>2021-01-16T14:37:11Z</time>
      </trkpt>
      <trkpt lat="45.04696" lon="5.63868">
        <ele>1172.6</ele>
        <time>2021-01-16T14:37:12Z</time>
      </trkpt>
      <trkpt lat="45.04696" lon="5.63868">
        <ele>1172.6</ele>
        <time>2021-01-16T14:37:13Z</time>
      </trkpt>
      <trkpt lat="45.04698" lon="5.63867">
        <ele>1172.8</ele>
        <time>2021-01-16T14:37:14Z</time>
      </trkpt>
      <trkpt lat="45.04698" lon="5.63867">
        <ele>1172.8</ele>
        <time>2021-01-16T14:37:15Z</time>
      </trkpt>
      <trkpt lat="45.04698" lon="5.63867">
        <ele>1173.2</ele>
        <time>2021-01-16T14:37:16Z</time>
      </trkpt>
      <trkpt lat="45.047" lon="5.63866">
        <ele>1173.4</ele>
        <time>2021-01-16T14:37:17Z</time>
      </trkpt>
      <trkpt lat="45.047" lon="5.63866">
        <ele>1173.4</ele>
        <time>2021-01-16T14:37:18Z</time>
      </trkpt>
      <trkpt lat="45.047" lon="5.63866">
        <ele>1173.6</ele>
        <time>2021-01-16T14:37:19Z</time>
      </trkpt>
      <trkpt lat="45.047" lon="5.63866">
        <ele>1173.8</ele>
        <time>2021-01-16T14:37:20Z</time>
      </trkpt>
      <trkpt lat="45.04699" lon="5.63863">
        <ele>1174.2</ele>
        <time>2021-01-16T14:37:21Z</time>
      </trkpt>
      <trkpt lat="45.04699" lon="5.63863">
        <ele>1174.6</ele>
        <time>2021-01-16T14:37:22Z</time>
      </trkpt>
      <trkpt lat="45.04699" lon="5.63863">
        <ele>1174.6</ele>
        <time>2021-01-16T14:37:23Z</time>
      </trkpt>
      <trkpt lat="45.04699" lon="5.63861">
        <ele>1174.8</ele>
        <time>2021-01-16T14:37:24Z</time>
      </trkpt>
      <trkpt lat="45.04699" lon="5.63861">
        <ele>1174.8</ele>
        <time>2021-01-16T14:37:25Z</time>
      </trkpt>
      <trkpt lat="45.04699" lon="5.63861">
        <ele>1175</ele>
        <time>2021-01-16T14:37:26Z</time>
      </trkpt>
      <trkpt lat="45.047" lon="5.63859">
        <ele>1175.2</ele>
        <time>2021-01-16T14:37:27Z</time>
      </trkpt>
      <trkpt lat="45.047" lon="5.63859">
        <ele>1175.4</ele>
        <time>2021-01-16T14:37:28Z</time>
      </trkpt>
      <trkpt lat="45.047" lon="5.63859">
        <ele>1175.6</ele>
        <time>2021-01-16T14:37:29Z</time>
      </trkpt>
      <trkpt lat="45.047" lon="5.63859">
        <ele>1176</ele>
        <time>2021-01-16T14:37:30Z</time>
      </trkpt>
      <trkpt lat="45.047" lon="5.63859">
        <ele>1176</ele>
        <time>2021-01-16T14:37:31Z</time>
      </trkpt>
      <trkpt lat="45.047" lon="5.63859">
        <ele>1176.2</ele>
        <time>2021-01-16T14:37:32Z</time>
      </trkpt>
      <trkpt lat="45.04702" lon="5.63857">
        <ele>1176.6</ele>
        <time>2021-01-16T14:37:33Z</time>
      </trkpt>
      <trkpt lat="45.04702" lon="5.63857">
        <ele>1176.8</ele>
        <time>2021-01-16T14:37:34Z</time>
      </trkpt>
      <trkpt lat="45.04702" lon="5.63857">
        <ele>1177</ele>
        <time>2021-01-16T14:37:35Z</time>
      </trkpt>
      <trkpt lat="45.04702" lon="5.63857">
        <ele>1177.6</ele>
        <time>2021-01-16T14:37:36Z</time>
      </trkpt>
      <trkpt lat="45.04702" lon="5.63857">
        <ele>1177.8</ele>
        <time>2021-01-16T14:37:37Z</time>
      </trkpt>
      <trkpt lat="45.04703" lon="5.63855">
        <ele>1178</ele>
        <time>2021-01-16T14:37:38Z</time>
      </trkpt>
      <trkpt lat="45.04703" lon="5.63855">
        <ele>1178.4</ele>
        <time>2021-01-16T14:37:39Z</time>
      </trkpt>
      <trkpt lat="45.04703" lon="5.63855">
        <ele>1178.8</ele>
        <time>2021-01-16T14:37:40Z</time>
      </trkpt>
      <trkpt lat="45.04703" lon="5.63855">
        <ele>1179</ele>
        <time>2021-01-16T14:37:41Z</time>
      </trkpt>
      <trkpt lat="45.04703" lon="5.63855">
        <ele>1178.8</ele>
        <time>2021-01-16T14:37:42Z</time>
      </trkpt>
      <trkpt lat="45.04702" lon="5.63851">
        <ele>1179</ele>
        <time>2021-01-16T14:37:43Z</time>
      </trkpt>
      <trkpt lat="45.04702" lon="5.63851">
        <ele>1179</ele>
        <time>2021-01-16T14:37:44Z</time>
      </trkpt>
      <trkpt lat="45.04702" lon="5.63851">
        <ele>1179</ele>
        <time>2021-01-16T14:37:45Z</time>
      </trkpt>
      <trkpt lat="45.04701" lon="5.63848">
        <ele>1179.4</ele>
        <time>2021-01-16T14:37:46Z</time>
      </trkpt>
      <trkpt lat="45.04701" lon="5.63848">
        <ele>1179.8</ele>
        <time>2021-01-16T14:37:47Z</time>
      </trkpt>
      <trkpt lat="45.04701" lon="5.63848">
        <ele>1179.6</ele>
        <time>2021-01-16T14:37:48Z</time>
      </trkpt>
      <trkpt lat="45.047" lon="5.63846">
        <ele>1179.8</ele>
        <time>2021-01-16T14:37:49Z</time>
      </trkpt>
      <trkpt lat="45.047" lon="5.63846">
        <ele>1179.8</ele>
        <time>2021-01-16T14:37:50Z</time>
      </trkpt>
      <trkpt lat="45.047" lon="5.63846">
        <ele>1180</ele>
        <time>2021-01-16T14:37:51Z</time>
      </trkpt>
      <trkpt lat="45.04699" lon="5.63843">
        <ele>1180.2</ele>
        <time>2021-01-16T14:37:52Z</time>
      </trkpt>
      <trkpt lat="45.04699" lon="5.63843">
        <ele>1180.4</ele>
        <time>2021-01-16T14:37:53Z</time>
      </trkpt>
      <trkpt lat="45.04699" lon="5.63843">
        <ele>1180.4</ele>
        <time>2021-01-16T14:37:54Z</time>
      </trkpt>
      <trkpt lat="45.04699" lon="5.6384">
        <ele>1180.6</ele>
        <time>2021-01-16T14:37:55Z</time>
      </trkpt>
      <trkpt lat="45.04699" lon="5.6384">
        <ele>1180.8</ele>
        <time>2021-01-16T14:37:56Z</time>
      </trkpt>
      <trkpt lat="45.04699" lon="5.6384">
        <ele>1181</ele>
        <time>2021-01-16T14:37:57Z</time>
      </trkpt>
      <trkpt lat="45.04699" lon="5.6384">
        <ele>1181.2</ele>
        <time>2021-01-16T14:37:58Z</time>
      </trkpt>
      <trkpt lat="45.047" lon="5.6384">
        <ele>1181.8</ele>
        <time>2021-01-16T14:37:59Z</time>
      </trkpt>
      <trkpt lat="45.047" lon="5.6384">
        <ele>1182</ele>
        <time>2021-01-16T14:38:00Z</time>
      </trkpt>
      <trkpt lat="45.047" lon="5.6384">
        <ele>1182.2</ele>
        <time>2021-01-16T14:38:01Z</time>
      </trkpt>
      <trkpt lat="45.047" lon="5.6384">
        <ele>1182.4</ele>
        <time>2021-01-16T14:38:02Z</time>
      </trkpt>
      <trkpt lat="45.047" lon="5.6384">
        <ele>1182.4</ele>
        <time>2021-01-16T14:38:03Z</time>
      </trkpt>
      <trkpt lat="45.04702" lon="5.63841">
        <ele>1182.6</ele>
        <time>2021-01-16T14:38:04Z</time>
      </trkpt>
      <trkpt lat="45.04702" lon="5.63841">
        <ele>1182.8</ele>
        <time>2021-01-16T14:38:05Z</time>
      </trkpt>
      <trkpt lat="45.04702" lon="5.63841">
        <ele>1183</ele>
        <time>2021-01-16T14:38:06Z</time>
      </trkpt>
      <trkpt lat="45.04702" lon="5.63841">
        <ele>1183</ele>
        <time>2021-01-16T14:38:07Z</time>
      </trkpt>
      <trkpt lat="45.04702" lon="5.63841">
        <ele>1183.2</ele>
        <time>2021-01-16T14:38:08Z</time>
      </trkpt>
      <trkpt lat="45.04702" lon="5.63841">
        <ele>1183.6</ele>
        <time>2021-01-16T14:38:09Z</time>
      </trkpt>
      <trkpt lat="45.04702" lon="5.63841">
        <ele>1183.8</ele>
        <time>2021-01-16T14:38:10Z</time>
      </trkpt>
      <trkpt lat="45.04704" lon="5.63842">
        <ele>1184</ele>
        <time>2021-01-16T14:38:11Z</time>
      </trkpt>
      <trkpt lat="45.04704" lon="5.63842">
        <ele>1184.2</ele>
        <time>2021-01-16T14:38:12Z</time>
      </trkpt>
      <trkpt lat="45.04704" lon="5.63842">
        <ele>1184.6</ele>
        <time>2021-01-16T14:38:13Z</time>
      </trkpt>
      <trkpt lat="45.04704" lon="5.63842">
        <ele>1184.8</ele>
        <time>2021-01-16T14:38:14Z</time>
      </trkpt>
      <trkpt lat="45.04704" lon="5.63842">
        <ele>1185</ele>
        <time>2021-01-16T14:38:15Z</time>
      </trkpt>
      <trkpt lat="45.04706" lon="5.63843">
        <ele>1185.2</ele>
        <time>2021-01-16T14:38:16Z</time>
      </trkpt>
      <trkpt lat="45.04706" lon="5.63843">
        <ele>1185.4</ele>
        <time>2021-01-16T14:38:17Z</time>
      </trkpt>
      <trkpt lat="45.04706" lon="5.63843">
        <ele>1185.6</ele>
        <time>2021-01-16T14:38:18Z</time>
      </trkpt>
      <trkpt lat="45.04706" lon="5.63843">
        <ele>1185.8</ele>
        <time>2021-01-16T14:38:19Z</time>
      </trkpt>
      <trkpt lat="45.04706" lon="5.63843">
        <ele>1186</ele>
        <time>2021-01-16T14:38:20Z</time>
      </trkpt>
      <trkpt lat="45.04706" lon="5.63843">
        <ele>1186.4</ele>
        <time>2021-01-16T14:38:21Z</time>
      </trkpt>
      <trkpt lat="45.04706" lon="5.63843">
        <ele>1186.6</ele>
        <time>2021-01-16T14:38:22Z</time>
      </trkpt>
      <trkpt lat="45.04706" lon="5.63843">
        <ele>1186.8</ele>
        <time>2021-01-16T14:38:23Z</time>
      </trkpt>
      <trkpt lat="45.04706" lon="5.63843">
        <ele>1187.2</ele>
        <time>2021-01-16T14:38:24Z</time>
      </trkpt>
      <trkpt lat="45.04706" lon="5.63843">
        <ele>1187.4</ele>
        <time>2021-01-16T14:38:25Z</time>
      </trkpt>
      <trkpt lat="45.04706" lon="5.63843">
        <ele>1187.6</ele>
        <time>2021-01-16T14:38:26Z</time>
      </trkpt>
      <trkpt lat="45.04708" lon="5.63842">
        <ele>1188</ele>
        <time>2021-01-16T14:38:27Z</time>
      </trkpt>
      <trkpt lat="45.04708" lon="5.63842">
        <ele>1188.4</ele>
        <time>2021-01-16T14:38:28Z</time>
      </trkpt>
      <trkpt lat="45.04708" lon="5.63842">
        <ele>1188.4</ele>
        <time>2021-01-16T14:38:29Z</time>
      </trkpt>
      <trkpt lat="45.04708" lon="5.63842">
        <ele>1188.6</ele>
        <time>2021-01-16T14:38:30Z</time>
      </trkpt>
      <trkpt lat="45.04708" lon="5.63842">
        <ele>1188.8</ele>
        <time>2021-01-16T14:38:31Z</time>
      </trkpt>
      <trkpt lat="45.04708" lon="5.63842">
        <ele>1189.4</ele>
        <time>2021-01-16T14:38:32Z</time>
      </trkpt>
      <trkpt lat="45.04708" lon="5.63842">
        <ele>1189.6</ele>
        <time>2021-01-16T14:38:33Z</time>
      </trkpt>
      <trkpt lat="45.04708" lon="5.63842">
        <ele>1189.6</ele>
        <time>2021-01-16T14:38:34Z</time>
      </trkpt>
      <trkpt lat="45.0471" lon="5.6384">
        <ele>1189.8</ele>
        <time>2021-01-16T14:38:35Z</time>
      </trkpt>
      <trkpt lat="45.0471" lon="5.6384">
        <ele>1190</ele>
        <time>2021-01-16T14:38:36Z</time>
      </trkpt>
      <trkpt lat="45.0471" lon="5.6384">
        <ele>1190.2</ele>
        <time>2021-01-16T14:38:37Z</time>
      </trkpt>
      <trkpt lat="45.0471" lon="5.6384">
        <ele>1190.2</ele>
        <time>2021-01-16T14:38:38Z</time>
      </trkpt>
      <trkpt lat="45.0471" lon="5.6384">
        <ele>1190.4</ele>
        <time>2021-01-16T14:38:39Z</time>
      </trkpt>
      <trkpt lat="45.0471" lon="5.6384">
        <ele>1190.6</ele>
        <time>2021-01-16T14:38:40Z</time>
      </trkpt>
      <trkpt lat="45.04712" lon="5.6384">
        <ele>1190.8</ele>
        <time>2021-01-16T14:38:41Z</time>
      </trkpt>
      <trkpt lat="45.04712" lon="5.6384">
        <ele>1191</ele>
        <time>2021-01-16T14:38:42Z</time>
      </trkpt>
      <trkpt lat="45.04712" lon="5.6384">
        <ele>1191</ele>
        <time>2021-01-16T14:38:43Z</time>
      </trkpt>
      <trkpt lat="45.04712" lon="5.6384">
        <ele>1191</ele>
        <time>2021-01-16T14:38:44Z</time>
      </trkpt>
      <trkpt lat="45.04712" lon="5.6384">
        <ele>1191.4</ele>
        <time>2021-01-16T14:38:45Z</time>
      </trkpt>
      <trkpt lat="45.04712" lon="5.6384">
        <ele>1191.4</ele>
        <time>2021-01-16T14:38:46Z</time>
      </trkpt>
      <trkpt lat="45.04712" lon="5.6384">
        <ele>1191.4</ele>
        <time>2021-01-16T14:38:47Z</time>
      </trkpt>
      <trkpt lat="45.04712" lon="5.6384">
        <ele>1191.6</ele>
        <time>2021-01-16T14:38:48Z</time>
      </trkpt>
      <trkpt lat="45.04712" lon="5.6384">
        <ele>1191.8</ele>
        <time>2021-01-16T14:38:49Z</time>
      </trkpt>
      <trkpt lat="45.04712" lon="5.6384">
        <ele>1192.2</ele>
        <time>2021-01-16T14:38:50Z</time>
      </trkpt>
      <trkpt lat="45.04712" lon="5.6384">
        <ele>1192.4</ele>
        <time>2021-01-16T14:38:51Z</time>
      </trkpt>
      <trkpt lat="45.04712" lon="5.6384">
        <ele>1192.4</ele>
        <time>2021-01-16T14:38:52Z</time>
      </trkpt>
      <trkpt lat="45.04712" lon="5.6384">
        <ele>1192.6</ele>
        <time>2021-01-16T14:38:53Z</time>
      </trkpt>
      <trkpt lat="45.04712" lon="5.6384">
        <ele>1192.6</ele>
        <time>2021-01-16T14:38:54Z</time>
      </trkpt>
      <trkpt lat="45.04712" lon="5.6384">
        <ele>1192.8</ele>
        <time>2021-01-16T14:38:55Z</time>
      </trkpt>
      <trkpt lat="45.04712" lon="5.6384">
        <ele>1193</ele>
        <time>2021-01-16T14:38:56Z</time>
      </trkpt>
      <trkpt lat="45.04712" lon="5.6384">
        <ele>1193</ele>
        <time>2021-01-16T14:38:57Z</time>
      </trkpt>
      <trkpt lat="45.04712" lon="5.6384">
        <ele>1193.2</ele>
        <time>2021-01-16T14:38:58Z</time>
      </trkpt>
      <trkpt lat="45.04712" lon="5.6384">
        <ele>1193.2</ele>
        <time>2021-01-16T14:38:59Z</time>
      </trkpt>
      <trkpt lat="45.04712" lon="5.6384">
        <ele>1193.2</ele>
        <time>2021-01-16T14:39:00Z</time>
      </trkpt>
      <trkpt lat="45.04712" lon="5.6384">
        <ele>1193.4</ele>
        <time>2021-01-16T14:39:01Z</time>
      </trkpt>
      <trkpt lat="45.04712" lon="5.6384">
        <ele>1193.4</ele>
        <time>2021-01-16T14:39:02Z</time>
      </trkpt>
      <trkpt lat="45.04712" lon="5.6384">
        <ele>1193.4</ele>
        <time>2021-01-16T14:39:03Z</time>
      </trkpt>
      <trkpt lat="45.04712" lon="5.6384">
        <ele>1193.4</ele>
        <time>2021-01-16T14:39:04Z</time>
      </trkpt>
      <trkpt lat="45.04712" lon="5.6384">
        <ele>1193.2</ele>
        <time>2021-01-16T14:39:05Z</time>
      </trkpt>
      <trkpt lat="45.04712" lon="5.6384">
        <ele>1193.2</ele>
        <time>2021-01-16T14:39:06Z</time>
      </trkpt>
      <trkpt lat="45.04712" lon="5.6384">
        <ele>1193.2</ele>
        <time>2021-01-16T14:39:07Z</time>
      </trkpt>
      <trkpt lat="45.04712" lon="5.6384">
        <ele>1193.2</ele>
        <time>2021-01-16T14:39:08Z</time>
      </trkpt>
      <trkpt lat="45.04712" lon="5.6384">
        <ele>1193.4</ele>
        <time>2021-01-16T14:39:09Z</time>
      </trkpt>
      <trkpt lat="45.04712" lon="5.6384">
        <ele>1193.2</ele>
        <time>2021-01-16T14:39:10Z</time>
      </trkpt>
      <trkpt lat="45.04712" lon="5.6384">
        <ele>1193.2</ele>
        <time>2021-01-16T14:39:11Z</time>
      </trkpt>
      <trkpt lat="45.04712" lon="5.6384">
        <ele>1193.2</ele>
        <time>2021-01-16T14:39:12Z</time>
      </trkpt>
      <trkpt lat="45.04712" lon="5.6384">
        <ele>1193.2</ele>
        <time>2021-01-16T14:39:13Z</time>
      </trkpt>
      <trkpt lat="45.04712" lon="5.6384">
        <ele>1193.4</ele>
        <time>2021-01-16T14:39:14Z</time>
      </trkpt>
      <trkpt lat="45.04712" lon="5.6384">
        <ele>1193.4</ele>
        <time>2021-01-16T14:39:15Z</time>
      </trkpt>
      <trkpt lat="45.04712" lon="5.6384">
        <ele>1193.2</ele>
        <time>2021-01-16T14:39:16Z</time>
      </trkpt>
      <trkpt lat="45.04712" lon="5.6384">
        <ele>1193</ele>
        <time>2021-01-16T14:39:17Z</time>
      </trkpt>
      <trkpt lat="45.04712" lon="5.6384">
        <ele>1192.6</ele>
        <time>2021-01-16T14:39:18Z</time>
      </trkpt>
      <trkpt lat="45.04712" lon="5.6384">
        <ele>1192.4</ele>
        <time>2021-01-16T14:39:19Z</time>
      </trkpt>
      <trkpt lat="45.04712" lon="5.6384">
        <ele>1192</ele>
        <time>2021-01-16T14:39:20Z</time>
      </trkpt>
      <trkpt lat="45.04712" lon="5.6384">
        <ele>1191.8</ele>
        <time>2021-01-16T14:39:21Z</time>
      </trkpt>
      <trkpt lat="45.04712" lon="5.6384">
        <ele>1191.6</ele>
        <time>2021-01-16T14:39:22Z</time>
      </trkpt>
      <trkpt lat="45.04712" lon="5.6384">
        <ele>1191.4</ele>
        <time>2021-01-16T14:39:23Z</time>
      </trkpt>
      <trkpt lat="45.04712" lon="5.6384">
        <ele>1191.2</ele>
        <time>2021-01-16T14:39:24Z</time>
      </trkpt>
      <trkpt lat="45.04712" lon="5.6384">
        <ele>1191</ele>
        <time>2021-01-16T14:39:25Z</time>
      </trkpt>
      <trkpt lat="45.04713" lon="5.63842">
        <ele>1190.6</ele>
        <time>2021-01-16T14:39:26Z</time>
      </trkpt>
      <trkpt lat="45.04713" lon="5.63842">
        <ele>1190.6</ele>
        <time>2021-01-16T14:39:27Z</time>
      </trkpt>
      <trkpt lat="45.04715" lon="5.63842">
        <ele>1190.4</ele>
        <time>2021-01-16T14:39:28Z</time>
      </trkpt>
      <trkpt lat="45.04715" lon="5.63842">
        <ele>1190.2</ele>
        <time>2021-01-16T14:39:29Z</time>
      </trkpt>
      <trkpt lat="45.04715" lon="5.63842">
        <ele>1190</ele>
        <time>2021-01-16T14:39:30Z</time>
      </trkpt>
      <trkpt lat="45.04715" lon="5.63842">
        <ele>1189.8</ele>
        <time>2021-01-16T14:39:31Z</time>
      </trkpt>
      <trkpt lat="45.04717" lon="5.63843">
        <ele>1189.6</ele>
        <time>2021-01-16T14:39:32Z</time>
      </trkpt>
      <trkpt lat="45.04717" lon="5.63843">
        <ele>1189.6</ele>
        <time>2021-01-16T14:39:33Z</time>
      </trkpt>
      <trkpt lat="45.04717" lon="5.63843">
        <ele>1189.6</ele>
        <time>2021-01-16T14:39:34Z</time>
      </trkpt>
      <trkpt lat="45.04717" lon="5.63843">
        <ele>1189.2</ele>
        <time>2021-01-16T14:39:35Z</time>
      </trkpt>
      <trkpt lat="45.04717" lon="5.63843">
        <ele>1189</ele>
        <time>2021-01-16T14:39:36Z</time>
      </trkpt>
      <trkpt lat="45.04717" lon="5.63843">
        <ele>1188.8</ele>
        <time>2021-01-16T14:39:37Z</time>
      </trkpt>
      <trkpt lat="45.04717" lon="5.63843">
        <ele>1188.8</ele>
        <time>2021-01-16T14:39:38Z</time>
      </trkpt>
      <trkpt lat="45.04719" lon="5.63844">
        <ele>1189</ele>
        <time>2021-01-16T14:39:39Z</time>
      </trkpt>
      <trkpt lat="45.04719" lon="5.63844">
        <ele>1188.8</ele>
        <time>2021-01-16T14:39:40Z</time>
      </trkpt>
      <trkpt lat="45.04719" lon="5.63844">
        <ele>1188.6</ele>
        <time>2021-01-16T14:39:41Z</time>
      </trkpt>
      <trkpt lat="45.04721" lon="5.63844">
        <ele>1188.6</ele>
        <time>2021-01-16T14:39:42Z</time>
      </trkpt>
      <trkpt lat="45.04723" lon="5.63843">
        <ele>1188.6</ele>
        <time>2021-01-16T14:39:43Z</time>
      </trkpt>
      <trkpt lat="45.04724" lon="5.63843">
        <ele>1188.8</ele>
        <time>2021-01-16T14:39:44Z</time>
      </trkpt>
      <trkpt lat="45.04726" lon="5.63843">
        <ele>1189</ele>
        <time>2021-01-16T14:39:45Z</time>
      </trkpt>
      <trkpt lat="45.04728" lon="5.63842">
        <ele>1189.4</ele>
        <time>2021-01-16T14:39:46Z</time>
      </trkpt>
      <trkpt lat="45.0473" lon="5.63842">
        <ele>1189.4</ele>
        <time>2021-01-16T14:39:47Z</time>
      </trkpt>
      <trkpt lat="45.04731" lon="5.63843">
        <ele>1189.8</ele>
        <time>2021-01-16T14:39:48Z</time>
      </trkpt>
      <trkpt lat="45.04732" lon="5.63844">
        <ele>1189.8</ele>
        <time>2021-01-16T14:39:49Z</time>
      </trkpt>
      <trkpt lat="45.04733" lon="5.63846">
        <ele>1189.8</ele>
        <time>2021-01-16T14:39:50Z</time>
      </trkpt>
      <trkpt lat="45.04734" lon="5.63847">
        <ele>1190</ele>
        <time>2021-01-16T14:39:51Z</time>
      </trkpt>
      <trkpt lat="45.04735" lon="5.63848">
        <ele>1190</ele>
        <time>2021-01-16T14:39:52Z</time>
      </trkpt>
      <trkpt lat="45.04736" lon="5.63849">
        <ele>1190.2</ele>
        <time>2021-01-16T14:39:53Z</time>
      </trkpt>
      <trkpt lat="45.04736" lon="5.63849">
        <ele>1190.4</ele>
        <time>2021-01-16T14:39:54Z</time>
      </trkpt>
      <trkpt lat="45.04736" lon="5.63849">
        <ele>1190.6</ele>
        <time>2021-01-16T14:39:55Z</time>
      </trkpt>
      <trkpt lat="45.04738" lon="5.63849">
        <ele>1190.8</ele>
        <time>2021-01-16T14:39:56Z</time>
      </trkpt>
      <trkpt lat="45.04738" lon="5.63849">
        <ele>1191.2</ele>
        <time>2021-01-16T14:39:57Z</time>
      </trkpt>
      <trkpt lat="45.04738" lon="5.63849">
        <ele>1191.4</ele>
        <time>2021-01-16T14:39:58Z</time>
      </trkpt>
      <trkpt lat="45.0474" lon="5.63851">
        <ele>1191.6</ele>
        <time>2021-01-16T14:39:59Z</time>
      </trkpt>
      <trkpt lat="45.04742" lon="5.63853">
        <ele>1192</ele>
        <time>2021-01-16T14:40:01Z</time>
      </trkpt>
      <trkpt lat="45.04742" lon="5.63853">
        <ele>1192.4</ele>
        <time>2021-01-16T14:40:02Z</time>
      </trkpt>
      <trkpt lat="45.04744" lon="5.63854">
        <ele>1192.4</ele>
        <time>2021-01-16T14:40:03Z</time>
      </trkpt>
      <trkpt lat="45.04744" lon="5.63854">
        <ele>1192.8</ele>
        <time>2021-01-16T14:40:04Z</time>
      </trkpt>
      <trkpt lat="45.04744" lon="5.63854">
        <ele>1193</ele>
        <time>2021-01-16T14:40:05Z</time>
      </trkpt>
      <trkpt lat="45.04744" lon="5.63854">
        <ele>1193.4</ele>
        <time>2021-01-16T14:40:06Z</time>
      </trkpt>
      <trkpt lat="45.04744" lon="5.63854">
        <ele>1193.6</ele>
        <time>2021-01-16T14:40:07Z</time>
      </trkpt>
      <trkpt lat="45.04744" lon="5.63854">
        <ele>1193.6</ele>
        <time>2021-01-16T14:40:08Z</time>
      </trkpt>
      <trkpt lat="45.04746" lon="5.63856">
        <ele>1194</ele>
        <time>2021-01-16T14:40:09Z</time>
      </trkpt>
      <trkpt lat="45.04746" lon="5.63856">
        <ele>1194</ele>
        <time>2021-01-16T14:40:10Z</time>
      </trkpt>
      <trkpt lat="45.04746" lon="5.63856">
        <ele>1194.4</ele>
        <time>2021-01-16T14:40:11Z</time>
      </trkpt>
      <trkpt lat="45.04746" lon="5.63856">
        <ele>1194.6</ele>
        <time>2021-01-16T14:40:12Z</time>
      </trkpt>
      <trkpt lat="45.04746" lon="5.63856">
        <ele>1194.6</ele>
        <time>2021-01-16T14:40:13Z</time>
      </trkpt>
      <trkpt lat="45.04746" lon="5.63856">
        <ele>1194.8</ele>
        <time>2021-01-16T14:40:14Z</time>
      </trkpt>
      <trkpt lat="45.04746" lon="5.63856">
        <ele>1195.2</ele>
        <time>2021-01-16T14:40:15Z</time>
      </trkpt>
      <trkpt lat="45.04746" lon="5.63856">
        <ele>1195.4</ele>
        <time>2021-01-16T14:40:16Z</time>
      </trkpt>
      <trkpt lat="45.04746" lon="5.63856">
        <ele>1195.6</ele>
        <time>2021-01-16T14:40:17Z</time>
      </trkpt>
      <trkpt lat="45.04746" lon="5.63856">
        <ele>1195.8</ele>
        <time>2021-01-16T14:40:18Z</time>
      </trkpt>
      <trkpt lat="45.04748" lon="5.63855">
        <ele>1196.2</ele>
        <time>2021-01-16T14:40:19Z</time>
      </trkpt>
      <trkpt lat="45.04748" lon="5.63855">
        <ele>1196.4</ele>
        <time>2021-01-16T14:40:20Z</time>
      </trkpt>
      <trkpt lat="45.04748" lon="5.63855">
        <ele>1196.8</ele>
        <time>2021-01-16T14:40:21Z</time>
      </trkpt>
      <trkpt lat="45.04748" lon="5.63855">
        <ele>1197</ele>
        <time>2021-01-16T14:40:22Z</time>
      </trkpt>
      <trkpt lat="45.04748" lon="5.63855">
        <ele>1197.2</ele>
        <time>2021-01-16T14:40:23Z</time>
      </trkpt>
      <trkpt lat="45.04748" lon="5.63855">
        <ele>1197.6</ele>
        <time>2021-01-16T14:40:24Z</time>
      </trkpt>
      <trkpt lat="45.0475" lon="5.63856">
        <ele>1197.8</ele>
        <time>2021-01-16T14:40:25Z</time>
      </trkpt>
      <trkpt lat="45.0475" lon="5.63856">
        <ele>1197.8</ele>
        <time>2021-01-16T14:40:26Z</time>
      </trkpt>
      <trkpt lat="45.0475" lon="5.63856">
        <ele>1198.4</ele>
        <time>2021-01-16T14:40:27Z</time>
      </trkpt>
      <trkpt lat="45.0475" lon="5.63856">
        <ele>1198.6</ele>
        <time>2021-01-16T14:40:28Z</time>
      </trkpt>
      <trkpt lat="45.0475" lon="5.63856">
        <ele>1198.8</ele>
        <time>2021-01-16T14:40:29Z</time>
      </trkpt>
      <trkpt lat="45.04752" lon="5.63856">
        <ele>1199.2</ele>
        <time>2021-01-16T14:40:30Z</time>
      </trkpt>
      <trkpt lat="45.04752" lon="5.63856">
        <ele>1199.2</ele>
        <time>2021-01-16T14:40:31Z</time>
      </trkpt>
      <trkpt lat="45.04752" lon="5.63856">
        <ele>1199.6</ele>
        <time>2021-01-16T14:40:32Z</time>
      </trkpt>
      <trkpt lat="45.04752" lon="5.63856">
        <ele>1200</ele>
        <time>2021-01-16T14:40:33Z</time>
      </trkpt>
      <trkpt lat="45.04752" lon="5.63856">
        <ele>1200.2</ele>
        <time>2021-01-16T14:40:34Z</time>
      </trkpt>
      <trkpt lat="45.04752" lon="5.63856">
        <ele>1200.4</ele>
        <time>2021-01-16T14:40:35Z</time>
      </trkpt>
      <trkpt lat="45.04752" lon="5.63856">
        <ele>1200.8</ele>
        <time>2021-01-16T14:40:36Z</time>
      </trkpt>
      <trkpt lat="45.04752" lon="5.63856">
        <ele>1201</ele>
        <time>2021-01-16T14:40:37Z</time>
      </trkpt>
      <trkpt lat="45.04752" lon="5.63856">
        <ele>1201.2</ele>
        <time>2021-01-16T14:40:38Z</time>
      </trkpt>
      <trkpt lat="45.04752" lon="5.63856">
        <ele>1201.6</ele>
        <time>2021-01-16T14:40:39Z</time>
      </trkpt>
      <trkpt lat="45.04752" lon="5.63856">
        <ele>1201.6</ele>
        <time>2021-01-16T14:40:40Z</time>
      </trkpt>
      <trkpt lat="45.04754" lon="5.63856">
        <ele>1201.8</ele>
        <time>2021-01-16T14:40:41Z</time>
      </trkpt>
      <trkpt lat="45.04754" lon="5.63856">
        <ele>1202</ele>
        <time>2021-01-16T14:40:42Z</time>
      </trkpt>
      <trkpt lat="45.04754" lon="5.63856">
        <ele>1202.4</ele>
        <time>2021-01-16T14:40:43Z</time>
      </trkpt>
      <trkpt lat="45.04754" lon="5.63856">
        <ele>1202.6</ele>
        <time>2021-01-16T14:40:44Z</time>
      </trkpt>
      <trkpt lat="45.04756" lon="5.63857">
        <ele>1202.8</ele>
        <time>2021-01-16T14:40:45Z</time>
      </trkpt>
      <trkpt lat="45.04756" lon="5.63857">
        <ele>1203.2</ele>
        <time>2021-01-16T14:40:46Z</time>
      </trkpt>
      <trkpt lat="45.04756" lon="5.63857">
        <ele>1203.4</ele>
        <time>2021-01-16T14:40:47Z</time>
      </trkpt>
      <trkpt lat="45.04758" lon="5.63857">
        <ele>1203.8</ele>
        <time>2021-01-16T14:40:48Z</time>
      </trkpt>
      <trkpt lat="45.04758" lon="5.63857">
        <ele>1203.8</ele>
        <time>2021-01-16T14:40:49Z</time>
      </trkpt>
      <trkpt lat="45.04758" lon="5.63857">
        <ele>1204</ele>
        <time>2021-01-16T14:40:50Z</time>
      </trkpt>
      <trkpt lat="45.04758" lon="5.63857">
        <ele>1204.2</ele>
        <time>2021-01-16T14:40:51Z</time>
      </trkpt>
      <trkpt lat="45.04758" lon="5.63857">
        <ele>1204.2</ele>
        <time>2021-01-16T14:40:52Z</time>
      </trkpt>
      <trkpt lat="45.04758" lon="5.63857">
        <ele>1204.6</ele>
        <time>2021-01-16T14:40:53Z</time>
      </trkpt>
      <trkpt lat="45.0476" lon="5.63859">
        <ele>1204.8</ele>
        <time>2021-01-16T14:40:54Z</time>
      </trkpt>
      <trkpt lat="45.0476" lon="5.63859">
        <ele>1205</ele>
        <time>2021-01-16T14:40:55Z</time>
      </trkpt>
      <trkpt lat="45.0476" lon="5.63859">
        <ele>1205.4</ele>
        <time>2021-01-16T14:40:56Z</time>
      </trkpt>
      <trkpt lat="45.04762" lon="5.63858">
        <ele>1205.6</ele>
        <time>2021-01-16T14:40:57Z</time>
      </trkpt>
      <trkpt lat="45.04764" lon="5.63858">
        <ele>1205.8</ele>
        <time>2021-01-16T14:40:58Z</time>
      </trkpt>
      <trkpt lat="45.04766" lon="5.63857">
        <ele>1206</ele>
        <time>2021-01-16T14:40:59Z</time>
      </trkpt>
      <trkpt lat="45.04768" lon="5.63857">
        <ele>1206.2</ele>
        <time>2021-01-16T14:41:00Z</time>
      </trkpt>
      <trkpt lat="45.04769" lon="5.63856">
        <ele>1206.6</ele>
        <time>2021-01-16T14:41:01Z</time>
      </trkpt>
      <trkpt lat="45.04771" lon="5.63856">
        <ele>1206.6</ele>
        <time>2021-01-16T14:41:02Z</time>
      </trkpt>
      <trkpt lat="45.04771" lon="5.63856">
        <ele>1206.8</ele>
        <time>2021-01-16T14:41:03Z</time>
      </trkpt>
      <trkpt lat="45.04773" lon="5.63856">
        <ele>1207</ele>
        <time>2021-01-16T14:41:04Z</time>
      </trkpt>
      <trkpt lat="45.04773" lon="5.63856">
        <ele>1207.2</ele>
        <time>2021-01-16T14:41:05Z</time>
      </trkpt>
      <trkpt lat="45.04776" lon="5.63857">
        <ele>1207.6</ele>
        <time>2021-01-16T14:41:06Z</time>
      </trkpt>
      <trkpt lat="45.04776" lon="5.63857">
        <ele>1207.6</ele>
        <time>2021-01-16T14:41:07Z</time>
      </trkpt>
      <trkpt lat="45.04776" lon="5.63857">
        <ele>1207.8</ele>
        <time>2021-01-16T14:41:08Z</time>
      </trkpt>
      <trkpt lat="45.04778" lon="5.63858">
        <ele>1207.8</ele>
        <time>2021-01-16T14:41:09Z</time>
      </trkpt>
      <trkpt lat="45.04778" lon="5.63858">
        <ele>1208.4</ele>
        <time>2021-01-16T14:41:10Z</time>
      </trkpt>
      <trkpt lat="45.0478" lon="5.63857">
        <ele>1208.6</ele>
        <time>2021-01-16T14:41:11Z</time>
      </trkpt>
      <trkpt lat="45.0478" lon="5.63857">
        <ele>1208.8</ele>
        <time>2021-01-16T14:41:12Z</time>
      </trkpt>
      <trkpt lat="45.04782" lon="5.63857">
        <ele>1208.8</ele>
        <time>2021-01-16T14:41:13Z</time>
      </trkpt>
      <trkpt lat="45.04782" lon="5.63857">
        <ele>1209</ele>
        <time>2021-01-16T14:41:14Z</time>
      </trkpt>
      <trkpt lat="45.04782" lon="5.63857">
        <ele>1209.2</ele>
        <time>2021-01-16T14:41:15Z</time>
      </trkpt>
      <trkpt lat="45.04782" lon="5.63857">
        <ele>1209.6</ele>
        <time>2021-01-16T14:41:16Z</time>
      </trkpt>
      <trkpt lat="45.04783" lon="5.63859">
        <ele>1209.8</ele>
        <time>2021-01-16T14:41:17Z</time>
      </trkpt>
      <trkpt lat="45.04785" lon="5.63861">
        <ele>1210</ele>
        <time>2021-01-16T14:41:18Z</time>
      </trkpt>
      <trkpt lat="45.04785" lon="5.63861">
        <ele>1210.2</ele>
        <time>2021-01-16T14:41:19Z</time>
      </trkpt>
      <trkpt lat="45.04785" lon="5.63861">
        <ele>1210.4</ele>
        <time>2021-01-16T14:41:20Z</time>
      </trkpt>
      <trkpt lat="45.04787" lon="5.63862">
        <ele>1210.4</ele>
        <time>2021-01-16T14:41:21Z</time>
      </trkpt>
      <trkpt lat="45.04787" lon="5.63862">
        <ele>1210.4</ele>
        <time>2021-01-16T14:41:22Z</time>
      </trkpt>
      <trkpt lat="45.0479" lon="5.63864">
        <ele>1210.4</ele>
        <time>2021-01-16T14:41:23Z</time>
      </trkpt>
      <trkpt lat="45.04792" lon="5.63866">
        <ele>1210.6</ele>
        <time>2021-01-16T14:41:24Z</time>
      </trkpt>
      <trkpt lat="45.04792" lon="5.63866">
        <ele>1210.4</ele>
        <time>2021-01-16T14:41:25Z</time>
      </trkpt>
      <trkpt lat="45.04795" lon="5.63868">
        <ele>1210.2</ele>
        <time>2021-01-16T14:41:26Z</time>
      </trkpt>
      <trkpt lat="45.04795" lon="5.63868">
        <ele>1210.2</ele>
        <time>2021-01-16T14:41:27Z</time>
      </trkpt>
      <trkpt lat="45.04795" lon="5.63868">
        <ele>1210.4</ele>
        <time>2021-01-16T14:41:28Z</time>
      </trkpt>
      <trkpt lat="45.04798" lon="5.63869">
        <ele>1210.4</ele>
        <time>2021-01-16T14:41:29Z</time>
      </trkpt>
      <trkpt lat="45.04801" lon="5.63871">
        <ele>1210.6</ele>
        <time>2021-01-16T14:41:30Z</time>
      </trkpt>
      <trkpt lat="45.04801" lon="5.63871">
        <ele>1210.8</ele>
        <time>2021-01-16T14:41:31Z</time>
      </trkpt>
      <trkpt lat="45.04803" lon="5.63873">
        <ele>1211</ele>
        <time>2021-01-16T14:41:32Z</time>
      </trkpt>
      <trkpt lat="45.04803" lon="5.63873">
        <ele>1211</ele>
        <time>2021-01-16T14:41:33Z</time>
      </trkpt>
      <trkpt lat="45.04803" lon="5.63873">
        <ele>1211.4</ele>
        <time>2021-01-16T14:41:34Z</time>
      </trkpt>
      <trkpt lat="45.04804" lon="5.63874">
        <ele>1211.6</ele>
        <time>2021-01-16T14:41:35Z</time>
      </trkpt>
      <trkpt lat="45.04804" lon="5.63874">
        <ele>1211.8</ele>
        <time>2021-01-16T14:41:36Z</time>
      </trkpt>
      <trkpt lat="45.04804" lon="5.63874">
        <ele>1212</ele>
        <time>2021-01-16T14:41:37Z</time>
      </trkpt>
      <trkpt lat="45.04804" lon="5.63874">
        <ele>1212</ele>
        <time>2021-01-16T14:41:38Z</time>
      </trkpt>
      <trkpt lat="45.04806" lon="5.63876">
        <ele>1212</ele>
        <time>2021-01-16T14:41:39Z</time>
      </trkpt>
      <trkpt lat="45.04806" lon="5.63876">
        <ele>1212.2</ele>
        <time>2021-01-16T14:41:40Z</time>
      </trkpt>
      <trkpt lat="45.04808" lon="5.63878">
        <ele>1212.4</ele>
        <time>2021-01-16T14:41:41Z</time>
      </trkpt>
      <trkpt lat="45.04808" lon="5.63878">
        <ele>1212.8</ele>
        <time>2021-01-16T14:41:42Z</time>
      </trkpt>
      <trkpt lat="45.04808" lon="5.63878">
        <ele>1213</ele>
        <time>2021-01-16T14:41:43Z</time>
      </trkpt>
      <trkpt lat="45.0481" lon="5.63879">
        <ele>1213.6</ele>
        <time>2021-01-16T14:41:44Z</time>
      </trkpt>
      <trkpt lat="45.0481" lon="5.63879">
        <ele>1213.6</ele>
        <time>2021-01-16T14:41:45Z</time>
      </trkpt>
      <trkpt lat="45.0481" lon="5.63879">
        <ele>1214</ele>
        <time>2021-01-16T14:41:46Z</time>
      </trkpt>
      <trkpt lat="45.0481" lon="5.63879">
        <ele>1214.4</ele>
        <time>2021-01-16T14:41:47Z</time>
      </trkpt>
      <trkpt lat="45.04812" lon="5.6388">
        <ele>1214.8</ele>
        <time>2021-01-16T14:41:48Z</time>
      </trkpt>
      <trkpt lat="45.04812" lon="5.6388">
        <ele>1215.2</ele>
        <time>2021-01-16T14:41:49Z</time>
      </trkpt>
      <trkpt lat="45.04812" lon="5.6388">
        <ele>1215.6</ele>
        <time>2021-01-16T14:41:50Z</time>
      </trkpt>
      <trkpt lat="45.04814" lon="5.6388">
        <ele>1215.8</ele>
        <time>2021-01-16T14:41:51Z</time>
      </trkpt>
      <trkpt lat="45.04814" lon="5.6388">
        <ele>1216</ele>
        <time>2021-01-16T14:41:52Z</time>
      </trkpt>
      <trkpt lat="45.04814" lon="5.6388">
        <ele>1216.4</ele>
        <time>2021-01-16T14:41:53Z</time>
      </trkpt>
      <trkpt lat="45.04814" lon="5.6388">
        <ele>1216.4</ele>
        <time>2021-01-16T14:41:54Z</time>
      </trkpt>
      <trkpt lat="45.04814" lon="5.6388">
        <ele>1216.8</ele>
        <time>2021-01-16T14:41:55Z</time>
      </trkpt>
      <trkpt lat="45.04814" lon="5.6388">
        <ele>1217.4</ele>
        <time>2021-01-16T14:41:56Z</time>
      </trkpt>
      <trkpt lat="45.04814" lon="5.6388">
        <ele>1217.6</ele>
        <time>2021-01-16T14:41:57Z</time>
      </trkpt>
      <trkpt lat="45.04816" lon="5.6388">
        <ele>1218</ele>
        <time>2021-01-16T14:41:58Z</time>
      </trkpt>
      <trkpt lat="45.04816" lon="5.6388">
        <ele>1218.4</ele>
        <time>2021-01-16T14:41:59Z</time>
      </trkpt>
      <trkpt lat="45.04816" lon="5.6388">
        <ele>1218.4</ele>
        <time>2021-01-16T14:42:00Z</time>
      </trkpt>
      <trkpt lat="45.04816" lon="5.6388">
        <ele>1218.6</ele>
        <time>2021-01-16T14:42:01Z</time>
      </trkpt>
      <trkpt lat="45.04818" lon="5.63882">
        <ele>1218.8</ele>
        <time>2021-01-16T14:42:02Z</time>
      </trkpt>
      <trkpt lat="45.04818" lon="5.63882">
        <ele>1219</ele>
        <time>2021-01-16T14:42:03Z</time>
      </trkpt>
      <trkpt lat="45.0482" lon="5.63884">
        <ele>1219</ele>
        <time>2021-01-16T14:42:04Z</time>
      </trkpt>
      <trkpt lat="45.0482" lon="5.63884">
        <ele>1218.8</ele>
        <time>2021-01-16T14:42:05Z</time>
      </trkpt>
      <trkpt lat="45.0482" lon="5.63884">
        <ele>1219</ele>
        <time>2021-01-16T14:42:06Z</time>
      </trkpt>
      <trkpt lat="45.0482" lon="5.63884">
        <ele>1219</ele>
        <time>2021-01-16T14:42:07Z</time>
      </trkpt>
      <trkpt lat="45.0482" lon="5.63884">
        <ele>1218.8</ele>
        <time>2021-01-16T14:42:08Z</time>
      </trkpt>
      <trkpt lat="45.0482" lon="5.63884">
        <ele>1219</ele>
        <time>2021-01-16T14:42:09Z</time>
      </trkpt>
      <trkpt lat="45.04821" lon="5.63886">
        <ele>1219.2</ele>
        <time>2021-01-16T14:42:10Z</time>
      </trkpt>
      <trkpt lat="45.04821" lon="5.63886">
        <ele>1219.2</ele>
        <time>2021-01-16T14:42:11Z</time>
      </trkpt>
      <trkpt lat="45.04821" lon="5.63886">
        <ele>1219.2</ele>
        <time>2021-01-16T14:42:12Z</time>
      </trkpt>
      <trkpt lat="45.04823" lon="5.63888">
        <ele>1219.2</ele>
        <time>2021-01-16T14:42:13Z</time>
      </trkpt>
      <trkpt lat="45.04823" lon="5.63888">
        <ele>1219.4</ele>
        <time>2021-01-16T14:42:14Z</time>
      </trkpt>
      <trkpt lat="45.04823" lon="5.63888">
        <ele>1219.6</ele>
        <time>2021-01-16T14:42:15Z</time>
      </trkpt>
      <trkpt lat="45.04823" lon="5.63888">
        <ele>1219.8</ele>
        <time>2021-01-16T14:42:16Z</time>
      </trkpt>
      <trkpt lat="45.04825" lon="5.6389">
        <ele>1220</ele>
        <time>2021-01-16T14:42:17Z</time>
      </trkpt>
      <trkpt lat="45.04825" lon="5.6389">
        <ele>1220</ele>
        <time>2021-01-16T14:42:18Z</time>
      </trkpt>
      <trkpt lat="45.04825" lon="5.6389">
        <ele>1220.2</ele>
        <time>2021-01-16T14:42:19Z</time>
      </trkpt>
      <trkpt lat="45.04825" lon="5.6389">
        <ele>1220.4</ele>
        <time>2021-01-16T14:42:20Z</time>
      </trkpt>
      <trkpt lat="45.04827" lon="5.63891">
        <ele>1220.6</ele>
        <time>2021-01-16T14:42:21Z</time>
      </trkpt>
      <trkpt lat="45.04827" lon="5.63891">
        <ele>1220.8</ele>
        <time>2021-01-16T14:42:22Z</time>
      </trkpt>
      <trkpt lat="45.04827" lon="5.63891">
        <ele>1221</ele>
        <time>2021-01-16T14:42:23Z</time>
      </trkpt>
      <trkpt lat="45.04827" lon="5.63891">
        <ele>1221.4</ele>
        <time>2021-01-16T14:42:24Z</time>
      </trkpt>
      <trkpt lat="45.04827" lon="5.63891">
        <ele>1221.8</ele>
        <time>2021-01-16T14:42:25Z</time>
      </trkpt>
      <trkpt lat="45.04827" lon="5.63891">
        <ele>1222</ele>
        <time>2021-01-16T14:42:26Z</time>
      </trkpt>
      <trkpt lat="45.04827" lon="5.63891">
        <ele>1222.4</ele>
        <time>2021-01-16T14:42:27Z</time>
      </trkpt>
      <trkpt lat="45.04827" lon="5.63891">
        <ele>1222.4</ele>
        <time>2021-01-16T14:42:28Z</time>
      </trkpt>
      <trkpt lat="45.04828" lon="5.63893">
        <ele>1222.6</ele>
        <time>2021-01-16T14:42:29Z</time>
      </trkpt>
      <trkpt lat="45.04828" lon="5.63893">
        <ele>1223</ele>
        <time>2021-01-16T14:42:30Z</time>
      </trkpt>
      <trkpt lat="45.04828" lon="5.63893">
        <ele>1223.4</ele>
        <time>2021-01-16T14:42:31Z</time>
      </trkpt>
      <trkpt lat="45.04828" lon="5.63893">
        <ele>1223.6</ele>
        <time>2021-01-16T14:42:32Z</time>
      </trkpt>
      <trkpt lat="45.04828" lon="5.63893">
        <ele>1223.8</ele>
        <time>2021-01-16T14:42:33Z</time>
      </trkpt>
      <trkpt lat="45.04828" lon="5.63893">
        <ele>1224</ele>
        <time>2021-01-16T14:42:34Z</time>
      </trkpt>
      <trkpt lat="45.04828" lon="5.63893">
        <ele>1224.2</ele>
        <time>2021-01-16T14:42:35Z</time>
      </trkpt>
      <trkpt lat="45.04831" lon="5.63893">
        <ele>1224.4</ele>
        <time>2021-01-16T14:42:36Z</time>
      </trkpt>
      <trkpt lat="45.04831" lon="5.63893">
        <ele>1224.6</ele>
        <time>2021-01-16T14:42:37Z</time>
      </trkpt>
      <trkpt lat="45.04833" lon="5.63893">
        <ele>1224.8</ele>
        <time>2021-01-16T14:42:38Z</time>
      </trkpt>
      <trkpt lat="45.04833" lon="5.63893">
        <ele>1225</ele>
        <time>2021-01-16T14:42:39Z</time>
      </trkpt>
      <trkpt lat="45.04833" lon="5.63893">
        <ele>1225.4</ele>
        <time>2021-01-16T14:42:40Z</time>
      </trkpt>
      <trkpt lat="45.04833" lon="5.63893">
        <ele>1225.4</ele>
        <time>2021-01-16T14:42:41Z</time>
      </trkpt>
      <trkpt lat="45.04833" lon="5.63893">
        <ele>1225.8</ele>
        <time>2021-01-16T14:42:42Z</time>
      </trkpt>
      <trkpt lat="45.04833" lon="5.63893">
        <ele>1226.2</ele>
        <time>2021-01-16T14:42:43Z</time>
      </trkpt>
      <trkpt lat="45.04834" lon="5.63894">
        <ele>1226.4</ele>
        <time>2021-01-16T14:42:44Z</time>
      </trkpt>
      <trkpt lat="45.04834" lon="5.63894">
        <ele>1226.6</ele>
        <time>2021-01-16T14:42:45Z</time>
      </trkpt>
      <trkpt lat="45.04834" lon="5.63894">
        <ele>1226.8</ele>
        <time>2021-01-16T14:42:46Z</time>
      </trkpt>
      <trkpt lat="45.04834" lon="5.63894">
        <ele>1227.2</ele>
        <time>2021-01-16T14:42:47Z</time>
      </trkpt>
      <trkpt lat="45.04837" lon="5.63893">
        <ele>1227.6</ele>
        <time>2021-01-16T14:42:48Z</time>
      </trkpt>
      <trkpt lat="45.04837" lon="5.63893">
        <ele>1228</ele>
        <time>2021-01-16T14:42:49Z</time>
      </trkpt>
      <trkpt lat="45.04837" lon="5.63893">
        <ele>1228.2</ele>
        <time>2021-01-16T14:42:50Z</time>
      </trkpt>
      <trkpt lat="45.04837" lon="5.63893">
        <ele>1228.2</ele>
        <time>2021-01-16T14:42:51Z</time>
      </trkpt>
      <trkpt lat="45.04837" lon="5.63893">
        <ele>1228.6</ele>
        <time>2021-01-16T14:42:52Z</time>
      </trkpt>
      <trkpt lat="45.04838" lon="5.63891">
        <ele>1228.8</ele>
        <time>2021-01-16T14:42:53Z</time>
      </trkpt>
      <trkpt lat="45.04838" lon="5.63891">
        <ele>1229</ele>
        <time>2021-01-16T14:42:54Z</time>
      </trkpt>
      <trkpt lat="45.04838" lon="5.63891">
        <ele>1229.4</ele>
        <time>2021-01-16T14:42:55Z</time>
      </trkpt>
      <trkpt lat="45.04838" lon="5.63891">
        <ele>1229.4</ele>
        <time>2021-01-16T14:42:56Z</time>
      </trkpt>
      <trkpt lat="45.04838" lon="5.63891">
        <ele>1229.8</ele>
        <time>2021-01-16T14:42:57Z</time>
      </trkpt>
      <trkpt lat="45.04838" lon="5.63891">
        <ele>1230</ele>
        <time>2021-01-16T14:42:58Z</time>
      </trkpt>
      <trkpt lat="45.04838" lon="5.63891">
        <ele>1230</ele>
        <time>2021-01-16T14:42:59Z</time>
      </trkpt>
      <trkpt lat="45.04838" lon="5.63891">
        <ele>1230</ele>
        <time>2021-01-16T14:43:00Z</time>
      </trkpt>
      <trkpt lat="45.0484" lon="5.6389">
        <ele>1230.2</ele>
        <time>2021-01-16T14:43:01Z</time>
      </trkpt>
      <trkpt lat="45.0484" lon="5.6389">
        <ele>1230.6</ele>
        <time>2021-01-16T14:43:02Z</time>
      </trkpt>
      <trkpt lat="45.0484" lon="5.6389">
        <ele>1230.8</ele>
        <time>2021-01-16T14:43:03Z</time>
      </trkpt>
      <trkpt lat="45.0484" lon="5.6389">
        <ele>1231.4</ele>
        <time>2021-01-16T14:43:04Z</time>
      </trkpt>
      <trkpt lat="45.0484" lon="5.6389">
        <ele>1231.8</ele>
        <time>2021-01-16T14:43:05Z</time>
      </trkpt>
      <trkpt lat="45.0484" lon="5.6389">
        <ele>1232.2</ele>
        <time>2021-01-16T14:43:06Z</time>
      </trkpt>
      <trkpt lat="45.04842" lon="5.63891">
        <ele>1232.4</ele>
        <time>2021-01-16T14:43:07Z</time>
      </trkpt>
      <trkpt lat="45.04842" lon="5.63891">
        <ele>1232.6</ele>
        <time>2021-01-16T14:43:08Z</time>
      </trkpt>
      <trkpt lat="45.04842" lon="5.63891">
        <ele>1232.8</ele>
        <time>2021-01-16T14:43:09Z</time>
      </trkpt>
      <trkpt lat="45.04842" lon="5.63891">
        <ele>1233.4</ele>
        <time>2021-01-16T14:43:10Z</time>
      </trkpt>
      <trkpt lat="45.04842" lon="5.63891">
        <ele>1233.6</ele>
        <time>2021-01-16T14:43:11Z</time>
      </trkpt>
      <trkpt lat="45.04842" lon="5.63891">
        <ele>1233.8</ele>
        <time>2021-01-16T14:43:12Z</time>
      </trkpt>
      <trkpt lat="45.04844" lon="5.63892">
        <ele>1234.2</ele>
        <time>2021-01-16T14:43:13Z</time>
      </trkpt>
      <trkpt lat="45.04844" lon="5.63892">
        <ele>1234.2</ele>
        <time>2021-01-16T14:43:14Z</time>
      </trkpt>
      <trkpt lat="45.04844" lon="5.63892">
        <ele>1234.8</ele>
        <time>2021-01-16T14:43:15Z</time>
      </trkpt>
      <trkpt lat="45.04844" lon="5.63892">
        <ele>1235</ele>
        <time>2021-01-16T14:43:16Z</time>
      </trkpt>
      <trkpt lat="45.04845" lon="5.63894">
        <ele>1235.2</ele>
        <time>2021-01-16T14:43:17Z</time>
      </trkpt>
      <trkpt lat="45.04845" lon="5.63894">
        <ele>1235.4</ele>
        <time>2021-01-16T14:43:18Z</time>
      </trkpt>
      <trkpt lat="45.04845" lon="5.63894">
        <ele>1235.4</ele>
        <time>2021-01-16T14:43:19Z</time>
      </trkpt>
      <trkpt lat="45.04845" lon="5.63894">
        <ele>1235.2</ele>
        <time>2021-01-16T14:43:20Z</time>
      </trkpt>
      <trkpt lat="45.04845" lon="5.63894">
        <ele>1235.4</ele>
        <time>2021-01-16T14:43:21Z</time>
      </trkpt>
      <trkpt lat="45.04845" lon="5.63894">
        <ele>1235.6</ele>
        <time>2021-01-16T14:43:22Z</time>
      </trkpt>
      <trkpt lat="45.04846" lon="5.63896">
        <ele>1235.6</ele>
        <time>2021-01-16T14:43:23Z</time>
      </trkpt>
      <trkpt lat="45.04846" lon="5.63896">
        <ele>1235.6</ele>
        <time>2021-01-16T14:43:24Z</time>
      </trkpt>
      <trkpt lat="45.04846" lon="5.63896">
        <ele>1235.6</ele>
        <time>2021-01-16T14:43:25Z</time>
      </trkpt>
      <trkpt lat="45.04846" lon="5.63896">
        <ele>1235.8</ele>
        <time>2021-01-16T14:43:26Z</time>
      </trkpt>
      <trkpt lat="45.04846" lon="5.63896">
        <ele>1236</ele>
        <time>2021-01-16T14:43:27Z</time>
      </trkpt>
      <trkpt lat="45.04848" lon="5.63898">
        <ele>1236.2</ele>
        <time>2021-01-16T14:43:28Z</time>
      </trkpt>
      <trkpt lat="45.04848" lon="5.63898">
        <ele>1236.4</ele>
        <time>2021-01-16T14:43:29Z</time>
      </trkpt>
      <trkpt lat="45.04848" lon="5.63898">
        <ele>1236.4</ele>
        <time>2021-01-16T14:43:30Z</time>
      </trkpt>
      <trkpt lat="45.04848" lon="5.63898">
        <ele>1236.6</ele>
        <time>2021-01-16T14:43:31Z</time>
      </trkpt>
      <trkpt lat="45.04848" lon="5.63898">
        <ele>1236.8</ele>
        <time>2021-01-16T14:43:32Z</time>
      </trkpt>
      <trkpt lat="45.0485" lon="5.63899">
        <ele>1237</ele>
        <time>2021-01-16T14:43:33Z</time>
      </trkpt>
      <trkpt lat="45.0485" lon="5.63899">
        <ele>1237.4</ele>
        <time>2021-01-16T14:43:34Z</time>
      </trkpt>
      <trkpt lat="45.0485" lon="5.63899">
        <ele>1237.6</ele>
        <time>2021-01-16T14:43:35Z</time>
      </trkpt>
      <trkpt lat="45.0485" lon="5.63899">
        <ele>1237.8</ele>
        <time>2021-01-16T14:43:36Z</time>
      </trkpt>
      <trkpt lat="45.0485" lon="5.63899">
        <ele>1238</ele>
        <time>2021-01-16T14:43:37Z</time>
      </trkpt>
      <trkpt lat="45.0485" lon="5.63899">
        <ele>1238.4</ele>
        <time>2021-01-16T14:43:38Z</time>
      </trkpt>
      <trkpt lat="45.0485" lon="5.63899">
        <ele>1238.6</ele>
        <time>2021-01-16T14:43:39Z</time>
      </trkpt>
      <trkpt lat="45.04852" lon="5.639">
        <ele>1239</ele>
        <time>2021-01-16T14:43:40Z</time>
      </trkpt>
      <trkpt lat="45.04852" lon="5.639">
        <ele>1239.4</ele>
        <time>2021-01-16T14:43:41Z</time>
      </trkpt>
      <trkpt lat="45.04852" lon="5.639">
        <ele>1239.8</ele>
        <time>2021-01-16T14:43:42Z</time>
      </trkpt>
      <trkpt lat="45.04853" lon="5.63902">
        <ele>1240</ele>
        <time>2021-01-16T14:43:43Z</time>
      </trkpt>
      <trkpt lat="45.04853" lon="5.63902">
        <ele>1240.2</ele>
        <time>2021-01-16T14:43:44Z</time>
      </trkpt>
      <trkpt lat="45.04853" lon="5.63902">
        <ele>1240.4</ele>
        <time>2021-01-16T14:43:45Z</time>
      </trkpt>
      <trkpt lat="45.04853" lon="5.63902">
        <ele>1240.8</ele>
        <time>2021-01-16T14:43:46Z</time>
      </trkpt>
      <trkpt lat="45.04855" lon="5.63903">
        <ele>1241</ele>
        <time>2021-01-16T14:43:47Z</time>
      </trkpt>
      <trkpt lat="45.04855" lon="5.63903">
        <ele>1241.2</ele>
        <time>2021-01-16T14:43:48Z</time>
      </trkpt>
      <trkpt lat="45.04855" lon="5.63903">
        <ele>1241.4</ele>
        <time>2021-01-16T14:43:49Z</time>
      </trkpt>
      <trkpt lat="45.04855" lon="5.63903">
        <ele>1241.6</ele>
        <time>2021-01-16T14:43:50Z</time>
      </trkpt>
      <trkpt lat="45.04855" lon="5.63903">
        <ele>1241.8</ele>
        <time>2021-01-16T14:43:51Z</time>
      </trkpt>
      <trkpt lat="45.04855" lon="5.63903">
        <ele>1242</ele>
        <time>2021-01-16T14:43:52Z</time>
      </trkpt>
      <trkpt lat="45.04855" lon="5.63903">
        <ele>1242.2</ele>
        <time>2021-01-16T14:43:53Z</time>
      </trkpt>
      <trkpt lat="45.04857" lon="5.63903">
        <ele>1242.4</ele>
        <time>2021-01-16T14:43:54Z</time>
      </trkpt>
      <trkpt lat="45.04857" lon="5.63903">
        <ele>1242.4</ele>
        <time>2021-01-16T14:43:55Z</time>
      </trkpt>
      <trkpt lat="45.04859" lon="5.63902">
        <ele>1243</ele>
        <time>2021-01-16T14:43:56Z</time>
      </trkpt>
      <trkpt lat="45.04859" lon="5.63902">
        <ele>1243.4</ele>
        <time>2021-01-16T14:43:57Z</time>
      </trkpt>
      <trkpt lat="45.04859" lon="5.63902">
        <ele>1243.4</ele>
        <time>2021-01-16T14:43:58Z</time>
      </trkpt>
      <trkpt lat="45.04859" lon="5.63902">
        <ele>1243.6</ele>
        <time>2021-01-16T14:43:59Z</time>
      </trkpt>
      <trkpt lat="45.04859" lon="5.63902">
        <ele>1243.8</ele>
        <time>2021-01-16T14:44:00Z</time>
      </trkpt>
      <trkpt lat="45.04861" lon="5.63901">
        <ele>1244</ele>
        <time>2021-01-16T14:44:01Z</time>
      </trkpt>
      <trkpt lat="45.04861" lon="5.63901">
        <ele>1244.4</ele>
        <time>2021-01-16T14:44:02Z</time>
      </trkpt>
      <trkpt lat="45.04861" lon="5.63901">
        <ele>1244.4</ele>
        <time>2021-01-16T14:44:03Z</time>
      </trkpt>
      <trkpt lat="45.04861" lon="5.63901">
        <ele>1244.4</ele>
        <time>2021-01-16T14:44:04Z</time>
      </trkpt>
      <trkpt lat="45.04861" lon="5.63901">
        <ele>1244.8</ele>
        <time>2021-01-16T14:44:05Z</time>
      </trkpt>
      <trkpt lat="45.04863" lon="5.63899">
        <ele>1244.8</ele>
        <time>2021-01-16T14:44:06Z</time>
      </trkpt>
      <trkpt lat="45.04863" lon="5.63899">
        <ele>1245</ele>
        <time>2021-01-16T14:44:07Z</time>
      </trkpt>
      <trkpt lat="45.04863" lon="5.63899">
        <ele>1245.2</ele>
        <time>2021-01-16T14:44:08Z</time>
      </trkpt>
      <trkpt lat="45.04865" lon="5.63899">
        <ele>1245.6</ele>
        <time>2021-01-16T14:44:09Z</time>
      </trkpt>
      <trkpt lat="45.04865" lon="5.63899">
        <ele>1246</ele>
        <time>2021-01-16T14:44:10Z</time>
      </trkpt>
      <trkpt lat="45.04865" lon="5.63899">
        <ele>1246</ele>
        <time>2021-01-16T14:44:11Z</time>
      </trkpt>
      <trkpt lat="45.04865" lon="5.63899">
        <ele>1246.4</ele>
        <time>2021-01-16T14:44:12Z</time>
      </trkpt>
      <trkpt lat="45.04866" lon="5.63898">
        <ele>1246.8</ele>
        <time>2021-01-16T14:44:13Z</time>
      </trkpt>
      <trkpt lat="45.04866" lon="5.63898">
        <ele>1247</ele>
        <time>2021-01-16T14:44:14Z</time>
      </trkpt>
      <trkpt lat="45.04866" lon="5.63898">
        <ele>1247.2</ele>
        <time>2021-01-16T14:44:15Z</time>
      </trkpt>
      <trkpt lat="45.04866" lon="5.63898">
        <ele>1247.4</ele>
        <time>2021-01-16T14:44:16Z</time>
      </trkpt>
      <trkpt lat="45.04866" lon="5.63898">
        <ele>1247.6</ele>
        <time>2021-01-16T14:44:17Z</time>
      </trkpt>
      <trkpt lat="45.04868" lon="5.63897">
        <ele>1248</ele>
        <time>2021-01-16T14:44:18Z</time>
      </trkpt>
      <trkpt lat="45.04868" lon="5.63897">
        <ele>1248.4</ele>
        <time>2021-01-16T14:44:19Z</time>
      </trkpt>
      <trkpt lat="45.04868" lon="5.63897">
        <ele>1248.6</ele>
        <time>2021-01-16T14:44:20Z</time>
      </trkpt>
      <trkpt lat="45.04868" lon="5.63897">
        <ele>1249</ele>
        <time>2021-01-16T14:44:21Z</time>
      </trkpt>
      <trkpt lat="45.0487" lon="5.63897">
        <ele>1249.2</ele>
        <time>2021-01-16T14:44:22Z</time>
      </trkpt>
      <trkpt lat="45.0487" lon="5.63897">
        <ele>1249.6</ele>
        <time>2021-01-16T14:44:23Z</time>
      </trkpt>
      <trkpt lat="45.0487" lon="5.63897">
        <ele>1249.8</ele>
        <time>2021-01-16T14:44:24Z</time>
      </trkpt>
      <trkpt lat="45.0487" lon="5.63897">
        <ele>1250</ele>
        <time>2021-01-16T14:44:25Z</time>
      </trkpt>
      <trkpt lat="45.04872" lon="5.63897">
        <ele>1250.2</ele>
        <time>2021-01-16T14:44:26Z</time>
      </trkpt>
      <trkpt lat="45.04872" lon="5.63897">
        <ele>1250.4</ele>
        <time>2021-01-16T14:44:27Z</time>
      </trkpt>
      <trkpt lat="45.04872" lon="5.63897">
        <ele>1250.8</ele>
        <time>2021-01-16T14:44:28Z</time>
      </trkpt>
      <trkpt lat="45.04872" lon="5.63897">
        <ele>1251.2</ele>
        <time>2021-01-16T14:44:29Z</time>
      </trkpt>
      <trkpt lat="45.04874" lon="5.63896">
        <ele>1251.6</ele>
        <time>2021-01-16T14:44:30Z</time>
      </trkpt>
      <trkpt lat="45.04874" lon="5.63896">
        <ele>1251.8</ele>
        <time>2021-01-16T14:44:31Z</time>
      </trkpt>
      <trkpt lat="45.04874" lon="5.63896">
        <ele>1251.8</ele>
        <time>2021-01-16T14:44:32Z</time>
      </trkpt>
      <trkpt lat="45.04876" lon="5.63895">
        <ele>1251.8</ele>
        <time>2021-01-16T14:44:33Z</time>
      </trkpt>
      <trkpt lat="45.04876" lon="5.63895">
        <ele>1252</ele>
        <time>2021-01-16T14:44:34Z</time>
      </trkpt>
      <trkpt lat="45.04878" lon="5.63895">
        <ele>1252.2</ele>
        <time>2021-01-16T14:44:35Z</time>
      </trkpt>
      <trkpt lat="45.04878" lon="5.63895">
        <ele>1252.6</ele>
        <time>2021-01-16T14:44:36Z</time>
      </trkpt>
      <trkpt lat="45.04878" lon="5.63895">
        <ele>1253</ele>
        <time>2021-01-16T14:44:37Z</time>
      </trkpt>
      <trkpt lat="45.04878" lon="5.63895">
        <ele>1253.2</ele>
        <time>2021-01-16T14:44:38Z</time>
      </trkpt>
      <trkpt lat="45.0488" lon="5.63895">
        <ele>1253.4</ele>
        <time>2021-01-16T14:44:39Z</time>
      </trkpt>
      <trkpt lat="45.0488" lon="5.63895">
        <ele>1253.6</ele>
        <time>2021-01-16T14:44:40Z</time>
      </trkpt>
      <trkpt lat="45.0488" lon="5.63895">
        <ele>1253.8</ele>
        <time>2021-01-16T14:44:41Z</time>
      </trkpt>
      <trkpt lat="45.0488" lon="5.63895">
        <ele>1254.2</ele>
        <time>2021-01-16T14:44:42Z</time>
      </trkpt>
      <trkpt lat="45.04882" lon="5.63897">
        <ele>1254.2</ele>
        <time>2021-01-16T14:44:43Z</time>
      </trkpt>
      <trkpt lat="45.04882" lon="5.63897">
        <ele>1254.6</ele>
        <time>2021-01-16T14:44:44Z</time>
      </trkpt>
      <trkpt lat="45.04882" lon="5.63897">
        <ele>1254.6</ele>
        <time>2021-01-16T14:44:45Z</time>
      </trkpt>
      <trkpt lat="45.04885" lon="5.63898">
        <ele>1254.8</ele>
        <time>2021-01-16T14:44:46Z</time>
      </trkpt>
      <trkpt lat="45.04885" lon="5.63898">
        <ele>1254.6</ele>
        <time>2021-01-16T14:44:47Z</time>
      </trkpt>
      <trkpt lat="45.04887" lon="5.639">
        <ele>1254.6</ele>
        <time>2021-01-16T14:44:48Z</time>
      </trkpt>
      <trkpt lat="45.04887" lon="5.639">
        <ele>1254.6</ele>
        <time>2021-01-16T14:44:49Z</time>
      </trkpt>
      <trkpt lat="45.04887" lon="5.639">
        <ele>1254.6</ele>
        <time>2021-01-16T14:44:50Z</time>
      </trkpt>
      <trkpt lat="45.04887" lon="5.639">
        <ele>1254.6</ele>
        <time>2021-01-16T14:44:51Z</time>
      </trkpt>
      <trkpt lat="45.04887" lon="5.639">
        <ele>1254.8</ele>
        <time>2021-01-16T14:44:52Z</time>
      </trkpt>
      <trkpt lat="45.04889" lon="5.63902">
        <ele>1254.4</ele>
        <time>2021-01-16T14:44:53Z</time>
      </trkpt>
      <trkpt lat="45.04889" lon="5.63902">
        <ele>1254.4</ele>
        <time>2021-01-16T14:44:54Z</time>
      </trkpt>
      <trkpt lat="45.04889" lon="5.63902">
        <ele>1254.2</ele>
        <time>2021-01-16T14:44:55Z</time>
      </trkpt>
      <trkpt lat="45.04889" lon="5.63902">
        <ele>1254.2</ele>
        <time>2021-01-16T14:44:56Z</time>
      </trkpt>
      <trkpt lat="45.04889" lon="5.63902">
        <ele>1254.2</ele>
        <time>2021-01-16T14:44:57Z</time>
      </trkpt>
      <trkpt lat="45.04891" lon="5.63902">
        <ele>1254.4</ele>
        <time>2021-01-16T14:44:58Z</time>
      </trkpt>
      <trkpt lat="45.04891" lon="5.63902">
        <ele>1254.4</ele>
        <time>2021-01-16T14:44:59Z</time>
      </trkpt>
      <trkpt lat="45.04891" lon="5.63902">
        <ele>1254.6</ele>
        <time>2021-01-16T14:45:00Z</time>
      </trkpt>
      <trkpt lat="45.04891" lon="5.63902">
        <ele>1254.8</ele>
        <time>2021-01-16T14:45:01Z</time>
      </trkpt>
      <trkpt lat="45.04893" lon="5.63903">
        <ele>1254.8</ele>
        <time>2021-01-16T14:45:02Z</time>
      </trkpt>
      <trkpt lat="45.04893" lon="5.63903">
        <ele>1255</ele>
        <time>2021-01-16T14:45:03Z</time>
      </trkpt>
      <trkpt lat="45.04893" lon="5.63903">
        <ele>1255</ele>
        <time>2021-01-16T14:45:04Z</time>
      </trkpt>
      <trkpt lat="45.04893" lon="5.63903">
        <ele>1255.2</ele>
        <time>2021-01-16T14:45:05Z</time>
      </trkpt>
      <trkpt lat="45.04895" lon="5.63903">
        <ele>1255.2</ele>
        <time>2021-01-16T14:45:06Z</time>
      </trkpt>
      <trkpt lat="45.04895" lon="5.63903">
        <ele>1255</ele>
        <time>2021-01-16T14:45:07Z</time>
      </trkpt>
      <trkpt lat="45.04895" lon="5.63903">
        <ele>1255.2</ele>
        <time>2021-01-16T14:45:08Z</time>
      </trkpt>
      <trkpt lat="45.04897" lon="5.63904">
        <ele>1255.2</ele>
        <time>2021-01-16T14:45:09Z</time>
      </trkpt>
      <trkpt lat="45.04897" lon="5.63904">
        <ele>1255.2</ele>
        <time>2021-01-16T14:45:10Z</time>
      </trkpt>
      <trkpt lat="45.04899" lon="5.63905">
        <ele>1255.4</ele>
        <time>2021-01-16T14:45:11Z</time>
      </trkpt>
      <trkpt lat="45.04902" lon="5.63906">
        <ele>1255.2</ele>
        <time>2021-01-16T14:45:12Z</time>
      </trkpt>
      <trkpt lat="45.04902" lon="5.63906">
        <ele>1255</ele>
        <time>2021-01-16T14:45:13Z</time>
      </trkpt>
      <trkpt lat="45.04902" lon="5.63906">
        <ele>1255.6</ele>
        <time>2021-01-16T14:45:14Z</time>
      </trkpt>
      <trkpt lat="45.04904" lon="5.63907">
        <ele>1255.6</ele>
        <time>2021-01-16T14:45:15Z</time>
      </trkpt>
      <trkpt lat="45.04904" lon="5.63907">
        <ele>1255.8</ele>
        <time>2021-01-16T14:45:16Z</time>
      </trkpt>
      <trkpt lat="45.04906" lon="5.63907">
        <ele>1255.8</ele>
        <time>2021-01-16T14:45:17Z</time>
      </trkpt>
      <trkpt lat="45.04908" lon="5.63908">
        <ele>1255.8</ele>
        <time>2021-01-16T14:45:18Z</time>
      </trkpt>
      <trkpt lat="45.04908" lon="5.63908">
        <ele>1255.4</ele>
        <time>2021-01-16T14:45:19Z</time>
      </trkpt>
      <trkpt lat="45.04908" lon="5.63908">
        <ele>1255.4</ele>
        <time>2021-01-16T14:45:20Z</time>
      </trkpt>
      <trkpt lat="45.0491" lon="5.63909">
        <ele>1255</ele>
        <time>2021-01-16T14:45:21Z</time>
      </trkpt>
      <trkpt lat="45.0491" lon="5.63909">
        <ele>1255</ele>
        <time>2021-01-16T14:45:22Z</time>
      </trkpt>
      <trkpt lat="45.04913" lon="5.63909">
        <ele>1255.4</ele>
        <time>2021-01-16T14:45:23Z</time>
      </trkpt>
      <trkpt lat="45.04913" lon="5.63909">
        <ele>1255.4</ele>
        <time>2021-01-16T14:45:24Z</time>
      </trkpt>
      <trkpt lat="45.04916" lon="5.63908">
        <ele>1255.4</ele>
        <time>2021-01-16T14:45:25Z</time>
      </trkpt>
      <trkpt lat="45.04916" lon="5.63908">
        <ele>1255.2</ele>
        <time>2021-01-16T14:45:26Z</time>
      </trkpt>
      <trkpt lat="45.04919" lon="5.63909">
        <ele>1254.8</ele>
        <time>2021-01-16T14:45:27Z</time>
      </trkpt>
      <trkpt lat="45.04921" lon="5.6391">
        <ele>1254.4</ele>
        <time>2021-01-16T14:45:28Z</time>
      </trkpt>
      <trkpt lat="45.04921" lon="5.6391">
        <ele>1254</ele>
        <time>2021-01-16T14:45:29Z</time>
      </trkpt>
      <trkpt lat="45.04921" lon="5.6391">
        <ele>1254.4</ele>
        <time>2021-01-16T14:45:30Z</time>
      </trkpt>
      <trkpt lat="45.04923" lon="5.63911">
        <ele>1254.2</ele>
        <time>2021-01-16T14:45:31Z</time>
      </trkpt>
      <trkpt lat="45.04923" lon="5.63911">
        <ele>1253.6</ele>
        <time>2021-01-16T14:45:32Z</time>
      </trkpt>
      <trkpt lat="45.04925" lon="5.63912">
        <ele>1253.2</ele>
        <time>2021-01-16T14:45:33Z</time>
      </trkpt>
      <trkpt lat="45.04925" lon="5.63912">
        <ele>1253</ele>
        <time>2021-01-16T14:45:34Z</time>
      </trkpt>
      <trkpt lat="45.04925" lon="5.63912">
        <ele>1252.8</ele>
        <time>2021-01-16T14:45:35Z</time>
      </trkpt>
      <trkpt lat="45.04925" lon="5.63912">
        <ele>1252.6</ele>
        <time>2021-01-16T14:45:36Z</time>
      </trkpt>
      <trkpt lat="45.04927" lon="5.63912">
        <ele>1252.4</ele>
        <time>2021-01-16T14:45:37Z</time>
      </trkpt>
      <trkpt lat="45.04927" lon="5.63912">
        <ele>1252.2</ele>
        <time>2021-01-16T14:45:38Z</time>
      </trkpt>
      <trkpt lat="45.04927" lon="5.63912">
        <ele>1251.8</ele>
        <time>2021-01-16T14:45:39Z</time>
      </trkpt>
      <trkpt lat="45.04929" lon="5.63912">
        <ele>1251.6</ele>
        <time>2021-01-16T14:45:40Z</time>
      </trkpt>
      <trkpt lat="45.04931" lon="5.63915">
        <ele>1251.4</ele>
        <time>2021-01-16T14:45:41Z</time>
      </trkpt>
      <trkpt lat="45.04931" lon="5.63915">
        <ele>1251.2</ele>
        <time>2021-01-16T14:45:42Z</time>
      </trkpt>
      <trkpt lat="45.04931" lon="5.63915">
        <ele>1251.2</ele>
        <time>2021-01-16T14:45:43Z</time>
      </trkpt>
      <trkpt lat="45.04931" lon="5.63915">
        <ele>1250.6</ele>
        <time>2021-01-16T14:45:44Z</time>
      </trkpt>
      <trkpt lat="45.04933" lon="5.63916">
        <ele>1250.4</ele>
        <time>2021-01-16T14:45:45Z</time>
      </trkpt>
      <trkpt lat="45.04933" lon="5.63916">
        <ele>1250.2</ele>
        <time>2021-01-16T14:45:46Z</time>
      </trkpt>
      <trkpt lat="45.04935" lon="5.63918">
        <ele>1249.8</ele>
        <time>2021-01-16T14:45:47Z</time>
      </trkpt>
      <trkpt lat="45.04935" lon="5.63918">
        <ele>1249.6</ele>
        <time>2021-01-16T14:45:48Z</time>
      </trkpt>
      <trkpt lat="45.04937" lon="5.6392">
        <ele>1249.4</ele>
        <time>2021-01-16T14:45:49Z</time>
      </trkpt>
      <trkpt lat="45.04939" lon="5.63921">
        <ele>1249.6</ele>
        <time>2021-01-16T14:45:50Z</time>
      </trkpt>
      <trkpt lat="45.04942" lon="5.63923">
        <ele>1249.4</ele>
        <time>2021-01-16T14:45:51Z</time>
      </trkpt>
      <trkpt lat="45.04944" lon="5.63924">
        <ele>1249.4</ele>
        <time>2021-01-16T14:45:52Z</time>
      </trkpt>
      <trkpt lat="45.04952" lon="5.63928">
        <ele>1249.2</ele>
        <time>2021-01-16T14:45:53Z</time>
      </trkpt>
      <trkpt lat="45.04959" lon="5.63932">
        <ele>1249.2</ele>
        <time>2021-01-16T14:45:54Z</time>
      </trkpt>
      <trkpt lat="45.04966" lon="5.63936">
        <ele>1249.4</ele>
        <time>2021-01-16T14:45:55Z</time>
      </trkpt>
      <trkpt lat="45.04974" lon="5.6394">
        <ele>1249.6</ele>
        <time>2021-01-16T14:45:56Z</time>
      </trkpt>
      <trkpt lat="45.0498" lon="5.63937">
        <ele>1249.8</ele>
        <time>2021-01-16T14:45:57Z</time>
      </trkpt>
      <trkpt lat="45.0498" lon="5.63937">
        <ele>1249.8</ele>
        <time>2021-01-16T14:45:58Z</time>
      </trkpt>
      <trkpt lat="45.04983" lon="5.63937">
        <ele>1249.8</ele>
        <time>2021-01-16T14:45:59Z</time>
      </trkpt>
      <trkpt lat="45.04986" lon="5.63938">
        <ele>1250</ele>
        <time>2021-01-16T14:46:00Z</time>
      </trkpt>
      <trkpt lat="45.04989" lon="5.63939">
        <ele>1250</ele>
        <time>2021-01-16T14:46:01Z</time>
      </trkpt>
      <trkpt lat="45.04992" lon="5.63939">
        <ele>1250</ele>
        <time>2021-01-16T14:46:02Z</time>
      </trkpt>
      <trkpt lat="45.04992" lon="5.63939">
        <ele>1250.2</ele>
        <time>2021-01-16T14:46:03Z</time>
      </trkpt>
      <trkpt lat="45.04995" lon="5.6394">
        <ele>1250</ele>
        <time>2021-01-16T14:46:04Z</time>
      </trkpt>
      <trkpt lat="45.04995" lon="5.6394">
        <ele>1249.8</ele>
        <time>2021-01-16T14:46:05Z</time>
      </trkpt>
      <trkpt lat="45.04998" lon="5.6394">
        <ele>1249.8</ele>
        <time>2021-01-16T14:46:06Z</time>
      </trkpt>
      <trkpt lat="45.04998" lon="5.6394">
        <ele>1249.8</ele>
        <time>2021-01-16T14:46:07Z</time>
      </trkpt>
      <trkpt lat="45.05" lon="5.6394">
        <ele>1250</ele>
        <time>2021-01-16T14:46:08Z</time>
      </trkpt>
      <trkpt lat="45.05" lon="5.6394">
        <ele>1250</ele>
        <time>2021-01-16T14:46:09Z</time>
      </trkpt>
      <trkpt lat="45.05003" lon="5.6394">
        <ele>1249.6</ele>
        <time>2021-01-16T14:46:10Z</time>
      </trkpt>
      <trkpt lat="45.05005" lon="5.63942">
        <ele>1250</ele>
        <time>2021-01-16T14:46:11Z</time>
      </trkpt>
      <trkpt lat="45.05005" lon="5.63942">
        <ele>1250</ele>
        <time>2021-01-16T14:46:12Z</time>
      </trkpt>
      <trkpt lat="45.05007" lon="5.63943">
        <ele>1250.4</ele>
        <time>2021-01-16T14:46:13Z</time>
      </trkpt>
      <trkpt lat="45.05007" lon="5.63943">
        <ele>1250.2</ele>
        <time>2021-01-16T14:46:14Z</time>
      </trkpt>
      <trkpt lat="45.05009" lon="5.63944">
        <ele>1250.2</ele>
        <time>2021-01-16T14:46:15Z</time>
      </trkpt>
      <trkpt lat="45.05009" lon="5.63944">
        <ele>1250</ele>
        <time>2021-01-16T14:46:16Z</time>
      </trkpt>
      <trkpt lat="45.05011" lon="5.63945">
        <ele>1249.8</ele>
        <time>2021-01-16T14:46:17Z</time>
      </trkpt>
      <trkpt lat="45.05011" lon="5.63945">
        <ele>1250</ele>
        <time>2021-01-16T14:46:18Z</time>
      </trkpt>
      <trkpt lat="45.05013" lon="5.63945">
        <ele>1250.2</ele>
        <time>2021-01-16T14:46:19Z</time>
      </trkpt>
      <trkpt lat="45.05013" lon="5.63945">
        <ele>1250.6</ele>
        <time>2021-01-16T14:46:20Z</time>
      </trkpt>
      <trkpt lat="45.05013" lon="5.63945">
        <ele>1250.8</ele>
        <time>2021-01-16T14:46:21Z</time>
      </trkpt>
      <trkpt lat="45.05013" lon="5.63945">
        <ele>1250.8</ele>
        <time>2021-01-16T14:46:22Z</time>
      </trkpt>
      <trkpt lat="45.05013" lon="5.63945">
        <ele>1251</ele>
        <time>2021-01-16T14:46:23Z</time>
      </trkpt>
      <trkpt lat="45.05013" lon="5.63945">
        <ele>1251.2</ele>
        <time>2021-01-16T14:46:24Z</time>
      </trkpt>
      <trkpt lat="45.05013" lon="5.63945">
        <ele>1251.2</ele>
        <time>2021-01-16T14:46:25Z</time>
      </trkpt>
      <trkpt lat="45.05013" lon="5.63945">
        <ele>1251.2</ele>
        <time>2021-01-16T14:46:26Z</time>
      </trkpt>
      <trkpt lat="45.05015" lon="5.63947">
        <ele>1251.2</ele>
        <time>2021-01-16T14:46:27Z</time>
      </trkpt>
      <trkpt lat="45.05015" lon="5.63947">
        <ele>1251.4</ele>
        <time>2021-01-16T14:46:28Z</time>
      </trkpt>
      <trkpt lat="45.05015" lon="5.63947">
        <ele>1251.6</ele>
        <time>2021-01-16T14:46:29Z</time>
      </trkpt>
      <trkpt lat="45.05015" lon="5.63947">
        <ele>1251.8</ele>
        <time>2021-01-16T14:46:30Z</time>
      </trkpt>
      <trkpt lat="45.05017" lon="5.63947">
        <ele>1251.8</ele>
        <time>2021-01-16T14:46:31Z</time>
      </trkpt>
      <trkpt lat="45.05017" lon="5.63947">
        <ele>1251.8</ele>
        <time>2021-01-16T14:46:32Z</time>
      </trkpt>
      <trkpt lat="45.05017" lon="5.63947">
        <ele>1252.2</ele>
        <time>2021-01-16T14:46:33Z</time>
      </trkpt>
      <trkpt lat="45.05017" lon="5.63947">
        <ele>1252.4</ele>
        <time>2021-01-16T14:46:34Z</time>
      </trkpt>
      <trkpt lat="45.05017" lon="5.63947">
        <ele>1252.6</ele>
        <time>2021-01-16T14:46:35Z</time>
      </trkpt>
      <trkpt lat="45.05019" lon="5.63946">
        <ele>1253</ele>
        <time>2021-01-16T14:46:36Z</time>
      </trkpt>
      <trkpt lat="45.05019" lon="5.63946">
        <ele>1253.2</ele>
        <time>2021-01-16T14:46:37Z</time>
      </trkpt>
      <trkpt lat="45.05019" lon="5.63946">
        <ele>1253.4</ele>
        <time>2021-01-16T14:46:38Z</time>
      </trkpt>
      <trkpt lat="45.05019" lon="5.63946">
        <ele>1253.4</ele>
        <time>2021-01-16T14:46:39Z</time>
      </trkpt>
      <trkpt lat="45.05019" lon="5.63946">
        <ele>1253.6</ele>
        <time>2021-01-16T14:46:40Z</time>
      </trkpt>
      <trkpt lat="45.05019" lon="5.63946">
        <ele>1253.8</ele>
        <time>2021-01-16T14:46:41Z</time>
      </trkpt>
      <trkpt lat="45.05021" lon="5.63947">
        <ele>1254</ele>
        <time>2021-01-16T14:46:42Z</time>
      </trkpt>
      <trkpt lat="45.05021" lon="5.63947">
        <ele>1254.2</ele>
        <time>2021-01-16T14:46:43Z</time>
      </trkpt>
      <trkpt lat="45.05021" lon="5.63947">
        <ele>1254.2</ele>
        <time>2021-01-16T14:46:44Z</time>
      </trkpt>
      <trkpt lat="45.05023" lon="5.63948">
        <ele>1254</ele>
        <time>2021-01-16T14:46:45Z</time>
      </trkpt>
      <trkpt lat="45.05025" lon="5.6395">
        <ele>1254</ele>
        <time>2021-01-16T14:46:46Z</time>
      </trkpt>
      <trkpt lat="45.05025" lon="5.6395">
        <ele>1254</ele>
        <time>2021-01-16T14:46:47Z</time>
      </trkpt>
      <trkpt lat="45.05025" lon="5.6395">
        <ele>1254.2</ele>
        <time>2021-01-16T14:46:48Z</time>
      </trkpt>
      <trkpt lat="45.05027" lon="5.63952">
        <ele>1254</ele>
        <time>2021-01-16T14:46:49Z</time>
      </trkpt>
      <trkpt lat="45.05027" lon="5.63952">
        <ele>1254.2</ele>
        <time>2021-01-16T14:46:50Z</time>
      </trkpt>
      <trkpt lat="45.05029" lon="5.63955">
        <ele>1254.2</ele>
        <time>2021-01-16T14:46:51Z</time>
      </trkpt>
      <trkpt lat="45.05029" lon="5.63955">
        <ele>1254</ele>
        <time>2021-01-16T14:46:52Z</time>
      </trkpt>
      <trkpt lat="45.0503" lon="5.63957">
        <ele>1253.8</ele>
        <time>2021-01-16T14:46:53Z</time>
      </trkpt>
      <trkpt lat="45.0503" lon="5.63957">
        <ele>1254</ele>
        <time>2021-01-16T14:46:54Z</time>
      </trkpt>
      <trkpt lat="45.0503" lon="5.63957">
        <ele>1254</ele>
        <time>2021-01-16T14:46:55Z</time>
      </trkpt>
      <trkpt lat="45.05032" lon="5.63959">
        <ele>1254</ele>
        <time>2021-01-16T14:46:56Z</time>
      </trkpt>
      <trkpt lat="45.05032" lon="5.63959">
        <ele>1254.2</ele>
        <time>2021-01-16T14:46:57Z</time>
      </trkpt>
      <trkpt lat="45.05032" lon="5.63959">
        <ele>1254.2</ele>
        <time>2021-01-16T14:46:58Z</time>
      </trkpt>
      <trkpt lat="45.05033" lon="5.63962">
        <ele>1254</ele>
        <time>2021-01-16T14:46:59Z</time>
      </trkpt>
      <trkpt lat="45.05033" lon="5.63962">
        <ele>1254</ele>
        <time>2021-01-16T14:47:00Z</time>
      </trkpt>
      <trkpt lat="45.05033" lon="5.63962">
        <ele>1254.4</ele>
        <time>2021-01-16T14:47:01Z</time>
      </trkpt>
      <trkpt lat="45.05035" lon="5.63964">
        <ele>1254.4</ele>
        <time>2021-01-16T14:47:02Z</time>
      </trkpt>
      <trkpt lat="45.05035" lon="5.63964">
        <ele>1254.8</ele>
        <time>2021-01-16T14:47:03Z</time>
      </trkpt>
      <trkpt lat="45.05037" lon="5.63966">
        <ele>1255</ele>
        <time>2021-01-16T14:47:04Z</time>
      </trkpt>
      <trkpt lat="45.05037" lon="5.63966">
        <ele>1255.2</ele>
        <time>2021-01-16T14:47:05Z</time>
      </trkpt>
      <trkpt lat="45.05039" lon="5.63967">
        <ele>1255.4</ele>
        <time>2021-01-16T14:47:06Z</time>
      </trkpt>
      <trkpt lat="45.05039" lon="5.63967">
        <ele>1255.4</ele>
        <time>2021-01-16T14:47:07Z</time>
      </trkpt>
      <trkpt lat="45.05039" lon="5.63967">
        <ele>1255.6</ele>
        <time>2021-01-16T14:47:08Z</time>
      </trkpt>
      <trkpt lat="45.05042" lon="5.63968">
        <ele>1255.8</ele>
        <time>2021-01-16T14:47:09Z</time>
      </trkpt>
      <trkpt lat="45.05042" lon="5.63968">
        <ele>1256.2</ele>
        <time>2021-01-16T14:47:10Z</time>
      </trkpt>
      <trkpt lat="45.05044" lon="5.63969">
        <ele>1256.2</ele>
        <time>2021-01-16T14:47:11Z</time>
      </trkpt>
      <trkpt lat="45.05046" lon="5.63969">
        <ele>1256.4</ele>
        <time>2021-01-16T14:47:12Z</time>
      </trkpt>
      <trkpt lat="45.05046" lon="5.63969">
        <ele>1256.6</ele>
        <time>2021-01-16T14:47:13Z</time>
      </trkpt>
      <trkpt lat="45.05046" lon="5.63969">
        <ele>1257</ele>
        <time>2021-01-16T14:47:14Z</time>
      </trkpt>
      <trkpt lat="45.05046" lon="5.63969">
        <ele>1257</ele>
        <time>2021-01-16T14:47:15Z</time>
      </trkpt>
      <trkpt lat="45.05046" lon="5.63969">
        <ele>1257.2</ele>
        <time>2021-01-16T14:47:16Z</time>
      </trkpt>
      <trkpt lat="45.05046" lon="5.63969">
        <ele>1257.2</ele>
        <time>2021-01-16T14:47:17Z</time>
      </trkpt>
      <trkpt lat="45.05046" lon="5.63969">
        <ele>1257.4</ele>
        <time>2021-01-16T14:47:18Z</time>
      </trkpt>
      <trkpt lat="45.05046" lon="5.63969">
        <ele>1257.4</ele>
        <time>2021-01-16T14:47:19Z</time>
      </trkpt>
      <trkpt lat="45.05046" lon="5.63969">
        <ele>1257.4</ele>
        <time>2021-01-16T14:47:20Z</time>
      </trkpt>
      <trkpt lat="45.05048" lon="5.63972">
        <ele>1257.4</ele>
        <time>2021-01-16T14:47:21Z</time>
      </trkpt>
      <trkpt lat="45.05049" lon="5.63973">
        <ele>1257.4</ele>
        <time>2021-01-16T14:47:22Z</time>
      </trkpt>
      <trkpt lat="45.05049" lon="5.63973">
        <ele>1257.4</ele>
        <time>2021-01-16T14:47:23Z</time>
      </trkpt>
      <trkpt lat="45.05052" lon="5.63975">
        <ele>1257.4</ele>
        <time>2021-01-16T14:47:24Z</time>
      </trkpt>
      <trkpt lat="45.05052" lon="5.63975">
        <ele>1257.8</ele>
        <time>2021-01-16T14:47:25Z</time>
      </trkpt>
      <trkpt lat="45.05054" lon="5.63975">
        <ele>1257.6</ele>
        <time>2021-01-16T14:47:26Z</time>
      </trkpt>
      <trkpt lat="45.05054" lon="5.63975">
        <ele>1257.6</ele>
        <time>2021-01-16T14:47:27Z</time>
      </trkpt>
      <trkpt lat="45.05054" lon="5.63975">
        <ele>1257.6</ele>
        <time>2021-01-16T14:47:28Z</time>
      </trkpt>
      <trkpt lat="45.05054" lon="5.63975">
        <ele>1257.8</ele>
        <time>2021-01-16T14:47:29Z</time>
      </trkpt>
      <trkpt lat="45.05054" lon="5.63975">
        <ele>1257.8</ele>
        <time>2021-01-16T14:47:30Z</time>
      </trkpt>
      <trkpt lat="45.05056" lon="5.63976">
        <ele>1257.6</ele>
        <time>2021-01-16T14:47:31Z</time>
      </trkpt>
      <trkpt lat="45.05056" lon="5.63976">
        <ele>1257.8</ele>
        <time>2021-01-16T14:47:32Z</time>
      </trkpt>
      <trkpt lat="45.05059" lon="5.63978">
        <ele>1257.8</ele>
        <time>2021-01-16T14:47:33Z</time>
      </trkpt>
      <trkpt lat="45.05059" lon="5.63978">
        <ele>1257.8</ele>
        <time>2021-01-16T14:47:34Z</time>
      </trkpt>
      <trkpt lat="45.05059" lon="5.63978">
        <ele>1257.8</ele>
        <time>2021-01-16T14:47:35Z</time>
      </trkpt>
      <trkpt lat="45.0506" lon="5.63978">
        <ele>1258</ele>
        <time>2021-01-16T14:47:36Z</time>
      </trkpt>
      <trkpt lat="45.0506" lon="5.63978">
        <ele>1258</ele>
        <time>2021-01-16T14:47:37Z</time>
      </trkpt>
      <trkpt lat="45.0506" lon="5.63978">
        <ele>1257.8</ele>
        <time>2021-01-16T14:47:38Z</time>
      </trkpt>
      <trkpt lat="45.0506" lon="5.63978">
        <ele>1258</ele>
        <time>2021-01-16T14:47:39Z</time>
      </trkpt>
      <trkpt lat="45.0506" lon="5.63978">
        <ele>1258.2</ele>
        <time>2021-01-16T14:47:40Z</time>
      </trkpt>
      <trkpt lat="45.05062" lon="5.63979">
        <ele>1258.2</ele>
        <time>2021-01-16T14:47:41Z</time>
      </trkpt>
      <trkpt lat="45.05062" lon="5.63979">
        <ele>1258.4</ele>
        <time>2021-01-16T14:47:42Z</time>
      </trkpt>
      <trkpt lat="45.05062" lon="5.63979">
        <ele>1258.4</ele>
        <time>2021-01-16T14:47:43Z</time>
      </trkpt>
      <trkpt lat="45.05065" lon="5.6398">
        <ele>1258.4</ele>
        <time>2021-01-16T14:47:44Z</time>
      </trkpt>
      <trkpt lat="45.05065" lon="5.6398">
        <ele>1258.6</ele>
        <time>2021-01-16T14:47:45Z</time>
      </trkpt>
      <trkpt lat="45.05065" lon="5.6398">
        <ele>1258.8</ele>
        <time>2021-01-16T14:47:46Z</time>
      </trkpt>
      <trkpt lat="45.05067" lon="5.63982">
        <ele>1258.8</ele>
        <time>2021-01-16T14:47:47Z</time>
      </trkpt>
      <trkpt lat="45.05067" lon="5.63982">
        <ele>1258.8</ele>
        <time>2021-01-16T14:47:48Z</time>
      </trkpt>
      <trkpt lat="45.05067" lon="5.63985">
        <ele>1259</ele>
        <time>2021-01-16T14:47:49Z</time>
      </trkpt>
      <trkpt lat="45.05067" lon="5.63985">
        <ele>1259.2</ele>
        <time>2021-01-16T14:47:50Z</time>
      </trkpt>
      <trkpt lat="45.05069" lon="5.63987">
        <ele>1259</ele>
        <time>2021-01-16T14:47:51Z</time>
      </trkpt>
      <trkpt lat="45.05069" lon="5.63987">
        <ele>1259</ele>
        <time>2021-01-16T14:47:52Z</time>
      </trkpt>
      <trkpt lat="45.05069" lon="5.63987">
        <ele>1258.6</ele>
        <time>2021-01-16T14:47:53Z</time>
      </trkpt>
      <trkpt lat="45.05069" lon="5.63987">
        <ele>1258</ele>
        <time>2021-01-16T14:47:54Z</time>
      </trkpt>
      <trkpt lat="45.05071" lon="5.63989">
        <ele>1258.2</ele>
        <time>2021-01-16T14:47:55Z</time>
      </trkpt>
      <trkpt lat="45.05071" lon="5.63989">
        <ele>1258</ele>
        <time>2021-01-16T14:47:56Z</time>
      </trkpt>
      <trkpt lat="45.05071" lon="5.63989">
        <ele>1258.2</ele>
        <time>2021-01-16T14:47:57Z</time>
      </trkpt>
      <trkpt lat="45.05072" lon="5.63991">
        <ele>1258.2</ele>
        <time>2021-01-16T14:47:58Z</time>
      </trkpt>
      <trkpt lat="45.05072" lon="5.63991">
        <ele>1258.2</ele>
        <time>2021-01-16T14:47:59Z</time>
      </trkpt>
      <trkpt lat="45.05074" lon="5.63993">
        <ele>1258.4</ele>
        <time>2021-01-16T14:48:00Z</time>
      </trkpt>
      <trkpt lat="45.05074" lon="5.63993">
        <ele>1258.4</ele>
        <time>2021-01-16T14:48:01Z</time>
      </trkpt>
      <trkpt lat="45.05076" lon="5.63994">
        <ele>1258.4</ele>
        <time>2021-01-16T14:48:02Z</time>
      </trkpt>
      <trkpt lat="45.05078" lon="5.63995">
        <ele>1258.8</ele>
        <time>2021-01-16T14:48:03Z</time>
      </trkpt>
      <trkpt lat="45.05078" lon="5.63995">
        <ele>1258.8</ele>
        <time>2021-01-16T14:48:04Z</time>
      </trkpt>
      <trkpt lat="45.05078" lon="5.63995">
        <ele>1259</ele>
        <time>2021-01-16T14:48:05Z</time>
      </trkpt>
      <trkpt lat="45.0508" lon="5.63996">
        <ele>1258.4</ele>
        <time>2021-01-16T14:48:06Z</time>
      </trkpt>
      <trkpt lat="45.05083" lon="5.63997">
        <ele>1257.8</ele>
        <time>2021-01-16T14:48:07Z</time>
      </trkpt>
      <trkpt lat="45.05083" lon="5.63997">
        <ele>1257.8</ele>
        <time>2021-01-16T14:48:08Z</time>
      </trkpt>
      <trkpt lat="45.05083" lon="5.63997">
        <ele>1257.6</ele>
        <time>2021-01-16T14:48:09Z</time>
      </trkpt>
      <trkpt lat="45.05086" lon="5.63998">
        <ele>1257.2</ele>
        <time>2021-01-16T14:48:10Z</time>
      </trkpt>
      <trkpt lat="45.05088" lon="5.63999">
        <ele>1257.4</ele>
        <time>2021-01-16T14:48:11Z</time>
      </trkpt>
      <trkpt lat="45.0509" lon="5.64001">
        <ele>1257.4</ele>
        <time>2021-01-16T14:48:12Z</time>
      </trkpt>
      <trkpt lat="45.0509" lon="5.64001">
        <ele>1257.4</ele>
        <time>2021-01-16T14:48:13Z</time>
      </trkpt>
      <trkpt lat="45.0509" lon="5.64001">
        <ele>1257.4</ele>
        <time>2021-01-16T14:48:14Z</time>
      </trkpt>
      <trkpt lat="45.05092" lon="5.64001">
        <ele>1257.4</ele>
        <time>2021-01-16T14:48:15Z</time>
      </trkpt>
      <trkpt lat="45.05092" lon="5.64001">
        <ele>1257.6</ele>
        <time>2021-01-16T14:48:17Z</time>
      </trkpt>
      <trkpt lat="45.05092" lon="5.64001">
        <ele>1257.6</ele>
        <time>2021-01-16T14:48:18Z</time>
      </trkpt>
      <trkpt lat="45.05092" lon="5.64001">
        <ele>1257.8</ele>
        <time>2021-01-16T14:48:19Z</time>
      </trkpt>
      <trkpt lat="45.05094" lon="5.64002">
        <ele>1258</ele>
        <time>2021-01-16T14:48:20Z</time>
      </trkpt>
      <trkpt lat="45.05094" lon="5.64002">
        <ele>1258</ele>
        <time>2021-01-16T14:48:21Z</time>
      </trkpt>
      <trkpt lat="45.05094" lon="5.64002">
        <ele>1258.4</ele>
        <time>2021-01-16T14:48:22Z</time>
      </trkpt>
      <trkpt lat="45.05096" lon="5.64004">
        <ele>1258</ele>
        <time>2021-01-16T14:48:23Z</time>
      </trkpt>
      <trkpt lat="45.05096" lon="5.64004">
        <ele>1257.8</ele>
        <time>2021-01-16T14:48:24Z</time>
      </trkpt>
      <trkpt lat="45.05096" lon="5.64004">
        <ele>1257.6</ele>
        <time>2021-01-16T14:48:25Z</time>
      </trkpt>
      <trkpt lat="45.05096" lon="5.64004">
        <ele>1257.4</ele>
        <time>2021-01-16T14:48:26Z</time>
      </trkpt>
      <trkpt lat="45.05096" lon="5.64004">
        <ele>1257.6</ele>
        <time>2021-01-16T14:48:27Z</time>
      </trkpt>
      <trkpt lat="45.05096" lon="5.64004">
        <ele>1257.6</ele>
        <time>2021-01-16T14:48:28Z</time>
      </trkpt>
      <trkpt lat="45.05099" lon="5.64005">
        <ele>1257.6</ele>
        <time>2021-01-16T14:48:29Z</time>
      </trkpt>
      <trkpt lat="45.051" lon="5.64006">
        <ele>1257.6</ele>
        <time>2021-01-16T14:48:30Z</time>
      </trkpt>
      <trkpt lat="45.05101" lon="5.64007">
        <ele>1257.6</ele>
        <time>2021-01-16T14:48:31Z</time>
      </trkpt>
      <trkpt lat="45.05102" lon="5.64008">
        <ele>1257.6</ele>
        <time>2021-01-16T14:48:32Z</time>
      </trkpt>
      <trkpt lat="45.05102" lon="5.64008">
        <ele>1257.8</ele>
        <time>2021-01-16T14:48:33Z</time>
      </trkpt>
      <trkpt lat="45.05104" lon="5.64009">
        <ele>1257.8</ele>
        <time>2021-01-16T14:48:34Z</time>
      </trkpt>
      <trkpt lat="45.05104" lon="5.64009">
        <ele>1258</ele>
        <time>2021-01-16T14:48:35Z</time>
      </trkpt>
      <trkpt lat="45.05106" lon="5.6401">
        <ele>1258</ele>
        <time>2021-01-16T14:48:36Z</time>
      </trkpt>
      <trkpt lat="45.05106" lon="5.6401">
        <ele>1258</ele>
        <time>2021-01-16T14:48:37Z</time>
      </trkpt>
      <trkpt lat="45.05108" lon="5.64011">
        <ele>1257.8</ele>
        <time>2021-01-16T14:48:38Z</time>
      </trkpt>
      <trkpt lat="45.05108" lon="5.64011">
        <ele>1257.8</ele>
        <time>2021-01-16T14:48:39Z</time>
      </trkpt>
      <trkpt lat="45.05111" lon="5.64013">
        <ele>1257.8</ele>
        <time>2021-01-16T14:48:40Z</time>
      </trkpt>
      <trkpt lat="45.05111" lon="5.64013">
        <ele>1258</ele>
        <time>2021-01-16T14:48:41Z</time>
      </trkpt>
      <trkpt lat="45.05111" lon="5.64013">
        <ele>1257.6</ele>
        <time>2021-01-16T14:48:42Z</time>
      </trkpt>
      <trkpt lat="45.05112" lon="5.64016">
        <ele>1257.4</ele>
        <time>2021-01-16T14:48:43Z</time>
      </trkpt>
      <trkpt lat="45.05112" lon="5.64016">
        <ele>1257</ele>
        <time>2021-01-16T14:48:44Z</time>
      </trkpt>
      <trkpt lat="45.05112" lon="5.64016">
        <ele>1256.8</ele>
        <time>2021-01-16T14:48:45Z</time>
      </trkpt>
      <trkpt lat="45.05113" lon="5.64018">
        <ele>1256.6</ele>
        <time>2021-01-16T14:48:46Z</time>
      </trkpt>
      <trkpt lat="45.05113" lon="5.64018">
        <ele>1256</ele>
        <time>2021-01-16T14:48:47Z</time>
      </trkpt>
      <trkpt lat="45.05114" lon="5.64021">
        <ele>1255.8</ele>
        <time>2021-01-16T14:48:48Z</time>
      </trkpt>
      <trkpt lat="45.05116" lon="5.64023">
        <ele>1255.6</ele>
        <time>2021-01-16T14:48:49Z</time>
      </trkpt>
      <trkpt lat="45.05116" lon="5.64023">
        <ele>1255</ele>
        <time>2021-01-16T14:48:50Z</time>
      </trkpt>
      <trkpt lat="45.05116" lon="5.64023">
        <ele>1254.6</ele>
        <time>2021-01-16T14:48:51Z</time>
      </trkpt>
      <trkpt lat="45.05118" lon="5.64024">
        <ele>1253.8</ele>
        <time>2021-01-16T14:48:52Z</time>
      </trkpt>
      <trkpt lat="45.05118" lon="5.64024">
        <ele>1253.6</ele>
        <time>2021-01-16T14:48:53Z</time>
      </trkpt>
      <trkpt lat="45.05118" lon="5.64024">
        <ele>1253.4</ele>
        <time>2021-01-16T14:48:54Z</time>
      </trkpt>
      <trkpt lat="45.0512" lon="5.64024">
        <ele>1253.2</ele>
        <time>2021-01-16T14:48:55Z</time>
      </trkpt>
      <trkpt lat="45.0512" lon="5.64024">
        <ele>1253.2</ele>
        <time>2021-01-16T14:48:56Z</time>
      </trkpt>
      <trkpt lat="45.0512" lon="5.64024">
        <ele>1253.2</ele>
        <time>2021-01-16T14:48:57Z</time>
      </trkpt>
      <trkpt lat="45.05122" lon="5.64025">
        <ele>1253</ele>
        <time>2021-01-16T14:48:58Z</time>
      </trkpt>
      <trkpt lat="45.05122" lon="5.64025">
        <ele>1253.2</ele>
        <time>2021-01-16T14:48:59Z</time>
      </trkpt>
      <trkpt lat="45.05122" lon="5.64025">
        <ele>1253.2</ele>
        <time>2021-01-16T14:49:00Z</time>
      </trkpt>
      <trkpt lat="45.05124" lon="5.64026">
        <ele>1253.2</ele>
        <time>2021-01-16T14:49:01Z</time>
      </trkpt>
      <trkpt lat="45.05124" lon="5.64026">
        <ele>1253.2</ele>
        <time>2021-01-16T14:49:02Z</time>
      </trkpt>
      <trkpt lat="45.05124" lon="5.64026">
        <ele>1253.4</ele>
        <time>2021-01-16T14:49:03Z</time>
      </trkpt>
      <trkpt lat="45.05126" lon="5.64028">
        <ele>1253.2</ele>
        <time>2021-01-16T14:49:04Z</time>
      </trkpt>
      <trkpt lat="45.05126" lon="5.64028">
        <ele>1253</ele>
        <time>2021-01-16T14:49:05Z</time>
      </trkpt>
      <trkpt lat="45.05128" lon="5.64028">
        <ele>1252.8</ele>
        <time>2021-01-16T14:49:06Z</time>
      </trkpt>
      <trkpt lat="45.05128" lon="5.64028">
        <ele>1252.8</ele>
        <time>2021-01-16T14:49:07Z</time>
      </trkpt>
      <trkpt lat="45.05128" lon="5.64028">
        <ele>1253</ele>
        <time>2021-01-16T14:49:08Z</time>
      </trkpt>
      <trkpt lat="45.05128" lon="5.64028">
        <ele>1253.2</ele>
        <time>2021-01-16T14:49:09Z</time>
      </trkpt>
      <trkpt lat="45.0513" lon="5.64028">
        <ele>1253.4</ele>
        <time>2021-01-16T14:49:10Z</time>
      </trkpt>
      <trkpt lat="45.0513" lon="5.64028">
        <ele>1253.6</ele>
        <time>2021-01-16T14:49:11Z</time>
      </trkpt>
      <trkpt lat="45.0513" lon="5.64028">
        <ele>1253.8</ele>
        <time>2021-01-16T14:49:12Z</time>
      </trkpt>
      <trkpt lat="45.0513" lon="5.64028">
        <ele>1254</ele>
        <time>2021-01-16T14:49:13Z</time>
      </trkpt>
      <trkpt lat="45.0513" lon="5.64028">
        <ele>1254.2</ele>
        <time>2021-01-16T14:49:14Z</time>
      </trkpt>
      <trkpt lat="45.05132" lon="5.64029">
        <ele>1254.4</ele>
        <time>2021-01-16T14:49:15Z</time>
      </trkpt>
      <trkpt lat="45.05132" lon="5.64029">
        <ele>1254.6</ele>
        <time>2021-01-16T14:49:16Z</time>
      </trkpt>
      <trkpt lat="45.05132" lon="5.64029">
        <ele>1254.6</ele>
        <time>2021-01-16T14:49:17Z</time>
      </trkpt>
      <trkpt lat="45.05135" lon="5.64031">
        <ele>1254.8</ele>
        <time>2021-01-16T14:49:18Z</time>
      </trkpt>
      <trkpt lat="45.05137" lon="5.64032">
        <ele>1255</ele>
        <time>2021-01-16T14:49:19Z</time>
      </trkpt>
      <trkpt lat="45.05137" lon="5.64032">
        <ele>1255</ele>
        <time>2021-01-16T14:49:20Z</time>
      </trkpt>
      <trkpt lat="45.0514" lon="5.64032">
        <ele>1255.2</ele>
        <time>2021-01-16T14:49:21Z</time>
      </trkpt>
      <trkpt lat="45.0514" lon="5.64032">
        <ele>1255.2</ele>
        <time>2021-01-16T14:49:22Z</time>
      </trkpt>
      <trkpt lat="45.0514" lon="5.64032">
        <ele>1254.8</ele>
        <time>2021-01-16T14:49:23Z</time>
      </trkpt>
      <trkpt lat="45.05143" lon="5.64032">
        <ele>1255</ele>
        <time>2021-01-16T14:49:24Z</time>
      </trkpt>
      <trkpt lat="45.05143" lon="5.64032">
        <ele>1255</ele>
        <time>2021-01-16T14:49:25Z</time>
      </trkpt>
      <trkpt lat="45.05146" lon="5.64034">
        <ele>1254.8</ele>
        <time>2021-01-16T14:49:26Z</time>
      </trkpt>
      <trkpt lat="45.05148" lon="5.64034">
        <ele>1255</ele>
        <time>2021-01-16T14:49:27Z</time>
      </trkpt>
      <trkpt lat="45.05148" lon="5.64034">
        <ele>1255</ele>
        <time>2021-01-16T14:49:28Z</time>
      </trkpt>
      <trkpt lat="45.05151" lon="5.64035">
        <ele>1254.8</ele>
        <time>2021-01-16T14:49:29Z</time>
      </trkpt>
      <trkpt lat="45.05151" lon="5.64035">
        <ele>1254.4</ele>
        <time>2021-01-16T14:49:30Z</time>
      </trkpt>
      <trkpt lat="45.05153" lon="5.64036">
        <ele>1254.6</ele>
        <time>2021-01-16T14:49:31Z</time>
      </trkpt>
      <trkpt lat="45.05156" lon="5.64038">
        <ele>1254.8</ele>
        <time>2021-01-16T14:49:32Z</time>
      </trkpt>
      <trkpt lat="45.05156" lon="5.64038">
        <ele>1254.6</ele>
        <time>2021-01-16T14:49:33Z</time>
      </trkpt>
      <trkpt lat="45.05156" lon="5.64038">
        <ele>1254.8</ele>
        <time>2021-01-16T14:49:34Z</time>
      </trkpt>
      <trkpt lat="45.05158" lon="5.6404">
        <ele>1254.4</ele>
        <time>2021-01-16T14:49:35Z</time>
      </trkpt>
      <trkpt lat="45.05158" lon="5.6404">
        <ele>1254.2</ele>
        <time>2021-01-16T14:49:36Z</time>
      </trkpt>
      <trkpt lat="45.05158" lon="5.6404">
        <ele>1254.4</ele>
        <time>2021-01-16T14:49:37Z</time>
      </trkpt>
      <trkpt lat="45.0516" lon="5.64041">
        <ele>1254.4</ele>
        <time>2021-01-16T14:49:38Z</time>
      </trkpt>
      <trkpt lat="45.0516" lon="5.64041">
        <ele>1254.4</ele>
        <time>2021-01-16T14:49:39Z</time>
      </trkpt>
      <trkpt lat="45.0516" lon="5.64041">
        <ele>1254.4</ele>
        <time>2021-01-16T14:49:40Z</time>
      </trkpt>
      <trkpt lat="45.05162" lon="5.64043">
        <ele>1254.6</ele>
        <time>2021-01-16T14:49:41Z</time>
      </trkpt>
      <trkpt lat="45.05164" lon="5.64045">
        <ele>1254.6</ele>
        <time>2021-01-16T14:49:42Z</time>
      </trkpt>
      <trkpt lat="45.05164" lon="5.64045">
        <ele>1254.6</ele>
        <time>2021-01-16T14:49:43Z</time>
      </trkpt>
      <trkpt lat="45.05164" lon="5.64045">
        <ele>1255</ele>
        <time>2021-01-16T14:49:44Z</time>
      </trkpt>
      <trkpt lat="45.05167" lon="5.64047">
        <ele>1255.2</ele>
        <time>2021-01-16T14:49:45Z</time>
      </trkpt>
      <trkpt lat="45.05167" lon="5.64047">
        <ele>1255.4</ele>
        <time>2021-01-16T14:49:46Z</time>
      </trkpt>
      <trkpt lat="45.05169" lon="5.64049">
        <ele>1255.4</ele>
        <time>2021-01-16T14:49:47Z</time>
      </trkpt>
      <trkpt lat="45.0517" lon="5.64051">
        <ele>1255.8</ele>
        <time>2021-01-16T14:49:48Z</time>
      </trkpt>
      <trkpt lat="45.0517" lon="5.64051">
        <ele>1256</ele>
        <time>2021-01-16T14:49:49Z</time>
      </trkpt>
      <trkpt lat="45.0517" lon="5.64051">
        <ele>1255.8</ele>
        <time>2021-01-16T14:49:50Z</time>
      </trkpt>
      <trkpt lat="45.05172" lon="5.64053">
        <ele>1255.2</ele>
        <time>2021-01-16T14:49:51Z</time>
      </trkpt>
      <trkpt lat="45.05172" lon="5.64053">
        <ele>1255.6</ele>
        <time>2021-01-16T14:49:52Z</time>
      </trkpt>
      <trkpt lat="45.05172" lon="5.64056">
        <ele>1255.6</ele>
        <time>2021-01-16T14:49:53Z</time>
      </trkpt>
      <trkpt lat="45.05172" lon="5.64056">
        <ele>1255.6</ele>
        <time>2021-01-16T14:49:54Z</time>
      </trkpt>
      <trkpt lat="45.05172" lon="5.64056">
        <ele>1256</ele>
        <time>2021-01-16T14:49:55Z</time>
      </trkpt>
      <trkpt lat="45.05173" lon="5.64058">
        <ele>1256.4</ele>
        <time>2021-01-16T14:49:56Z</time>
      </trkpt>
      <trkpt lat="45.05173" lon="5.64058">
        <ele>1256.4</ele>
        <time>2021-01-16T14:49:57Z</time>
      </trkpt>
      <trkpt lat="45.05173" lon="5.64058">
        <ele>1256.6</ele>
        <time>2021-01-16T14:49:58Z</time>
      </trkpt>
      <trkpt lat="45.05176" lon="5.64061">
        <ele>1256.8</ele>
        <time>2021-01-16T14:49:59Z</time>
      </trkpt>
      <trkpt lat="45.05178" lon="5.64063">
        <ele>1256.8</ele>
        <time>2021-01-16T14:50:00Z</time>
      </trkpt>
      <trkpt lat="45.05178" lon="5.64063">
        <ele>1257</ele>
        <time>2021-01-16T14:50:01Z</time>
      </trkpt>
      <trkpt lat="45.05178" lon="5.64063">
        <ele>1257</ele>
        <time>2021-01-16T14:50:02Z</time>
      </trkpt>
      <trkpt lat="45.0518" lon="5.64064">
        <ele>1257</ele>
        <time>2021-01-16T14:50:03Z</time>
      </trkpt>
      <trkpt lat="45.05181" lon="5.64067">
        <ele>1257.2</ele>
        <time>2021-01-16T14:50:04Z</time>
      </trkpt>
      <trkpt lat="45.05181" lon="5.64067">
        <ele>1257.2</ele>
        <time>2021-01-16T14:50:05Z</time>
      </trkpt>
      <trkpt lat="45.05182" lon="5.6407">
        <ele>1257.2</ele>
        <time>2021-01-16T14:50:06Z</time>
      </trkpt>
      <trkpt lat="45.05182" lon="5.6407">
        <ele>1257.2</ele>
        <time>2021-01-16T14:50:07Z</time>
      </trkpt>
      <trkpt lat="45.05182" lon="5.6407">
        <ele>1257.6</ele>
        <time>2021-01-16T14:50:08Z</time>
      </trkpt>
      <trkpt lat="45.05182" lon="5.6407">
        <ele>1257.8</ele>
        <time>2021-01-16T14:50:09Z</time>
      </trkpt>
      <trkpt lat="45.05183" lon="5.64073">
        <ele>1257.8</ele>
        <time>2021-01-16T14:50:10Z</time>
      </trkpt>
      <trkpt lat="45.05183" lon="5.64073">
        <ele>1258.2</ele>
        <time>2021-01-16T14:50:11Z</time>
      </trkpt>
      <trkpt lat="45.05183" lon="5.64073">
        <ele>1258.2</ele>
        <time>2021-01-16T14:50:13Z</time>
      </trkpt>
      <trkpt lat="45.05184" lon="5.64075">
        <ele>1258.6</ele>
        <time>2021-01-16T14:50:14Z</time>
      </trkpt>
      <trkpt lat="45.05184" lon="5.64075">
        <ele>1258.8</ele>
        <time>2021-01-16T14:50:15Z</time>
      </trkpt>
      <trkpt lat="45.05184" lon="5.64075">
        <ele>1259</ele>
        <time>2021-01-16T14:50:16Z</time>
      </trkpt>
      <trkpt lat="45.05186" lon="5.64077">
        <ele>1259.2</ele>
        <time>2021-01-16T14:50:17Z</time>
      </trkpt>
      <trkpt lat="45.05186" lon="5.64077">
        <ele>1259.4</ele>
        <time>2021-01-16T14:50:18Z</time>
      </trkpt>
      <trkpt lat="45.05187" lon="5.64079">
        <ele>1259.8</ele>
        <time>2021-01-16T14:50:19Z</time>
      </trkpt>
      <trkpt lat="45.05187" lon="5.64079">
        <ele>1260</ele>
        <time>2021-01-16T14:50:20Z</time>
      </trkpt>
      <trkpt lat="45.05187" lon="5.64079">
        <ele>1260.2</ele>
        <time>2021-01-16T14:50:21Z</time>
      </trkpt>
      <trkpt lat="45.05187" lon="5.64079">
        <ele>1260.4</ele>
        <time>2021-01-16T14:50:22Z</time>
      </trkpt>
      <trkpt lat="45.05189" lon="5.6408">
        <ele>1260.4</ele>
        <time>2021-01-16T14:50:23Z</time>
      </trkpt>
      <trkpt lat="45.05191" lon="5.6408">
        <ele>1260.6</ele>
        <time>2021-01-16T14:50:24Z</time>
      </trkpt>
      <trkpt lat="45.05193" lon="5.64081">
        <ele>1261.2</ele>
        <time>2021-01-16T14:50:25Z</time>
      </trkpt>
      <trkpt lat="45.05196" lon="5.64081">
        <ele>1261.8</ele>
        <time>2021-01-16T14:50:26Z</time>
      </trkpt>
      <trkpt lat="45.05198" lon="5.64081">
        <ele>1262.2</ele>
        <time>2021-01-16T14:50:27Z</time>
      </trkpt>
      <trkpt lat="45.052" lon="5.64082">
        <ele>1262.2</ele>
        <time>2021-01-16T14:50:28Z</time>
      </trkpt>
      <trkpt lat="45.05202" lon="5.64082">
        <ele>1262.4</ele>
        <time>2021-01-16T14:50:29Z</time>
      </trkpt>
      <trkpt lat="45.05204" lon="5.64083">
        <ele>1262.4</ele>
        <time>2021-01-16T14:50:30Z</time>
      </trkpt>
      <trkpt lat="45.05209" lon="5.64086">
        <ele>1262.8</ele>
        <time>2021-01-16T14:50:31Z</time>
      </trkpt>
      <trkpt lat="45.05209" lon="5.64087">
        <ele>1262.8</ele>
        <time>2021-01-16T14:50:32Z</time>
      </trkpt>
      <trkpt lat="45.0521" lon="5.64087">
        <ele>1263.2</ele>
        <time>2021-01-16T14:50:33Z</time>
      </trkpt>
      <trkpt lat="45.0521" lon="5.64087">
        <ele>1263.4</ele>
        <time>2021-01-16T14:50:34Z</time>
      </trkpt>
      <trkpt lat="45.05211" lon="5.64088">
        <ele>1263.6</ele>
        <time>2021-01-16T14:50:35Z</time>
      </trkpt>
      <trkpt lat="45.05211" lon="5.64088">
        <ele>1263.6</ele>
        <time>2021-01-16T14:50:36Z</time>
      </trkpt>
      <trkpt lat="45.05212" lon="5.64088">
        <ele>1263.8</ele>
        <time>2021-01-16T14:50:37Z</time>
      </trkpt>
      <trkpt lat="45.05213" lon="5.64089">
        <ele>1264.2</ele>
        <time>2021-01-16T14:50:38Z</time>
      </trkpt>
      <trkpt lat="45.05213" lon="5.64089">
        <ele>1264.6</ele>
        <time>2021-01-16T14:50:39Z</time>
      </trkpt>
      <trkpt lat="45.05214" lon="5.6409">
        <ele>1265</ele>
        <time>2021-01-16T14:50:40Z</time>
      </trkpt>
      <trkpt lat="45.05214" lon="5.6409">
        <ele>1265.2</ele>
        <time>2021-01-16T14:50:41Z</time>
      </trkpt>
      <trkpt lat="45.05215" lon="5.6409">
        <ele>1265.4</ele>
        <time>2021-01-16T14:50:42Z</time>
      </trkpt>
      <trkpt lat="45.05215" lon="5.64091">
        <ele>1265.4</ele>
        <time>2021-01-16T14:50:43Z</time>
      </trkpt>
      <trkpt lat="45.05216" lon="5.64091">
        <ele>1265.4</ele>
        <time>2021-01-16T14:50:44Z</time>
      </trkpt>
      <trkpt lat="45.05217" lon="5.64092">
        <ele>1265.4</ele>
        <time>2021-01-16T14:50:45Z</time>
      </trkpt>
      <trkpt lat="45.05217" lon="5.64092">
        <ele>1265.6</ele>
        <time>2021-01-16T14:50:46Z</time>
      </trkpt>
      <trkpt lat="45.05218" lon="5.64092">
        <ele>1265.8</ele>
        <time>2021-01-16T14:50:47Z</time>
      </trkpt>
      <trkpt lat="45.05218" lon="5.64093">
        <ele>1266</ele>
        <time>2021-01-16T14:50:48Z</time>
      </trkpt>
      <trkpt lat="45.05219" lon="5.64093">
        <ele>1266.2</ele>
        <time>2021-01-16T14:50:49Z</time>
      </trkpt>
      <trkpt lat="45.05219" lon="5.64093">
        <ele>1266.4</ele>
        <time>2021-01-16T14:50:50Z</time>
      </trkpt>
      <trkpt lat="45.0522" lon="5.64094">
        <ele>1266.8</ele>
        <time>2021-01-16T14:50:51Z</time>
      </trkpt>
      <trkpt lat="45.05221" lon="5.64094">
        <ele>1267</ele>
        <time>2021-01-16T14:50:52Z</time>
      </trkpt>
      <trkpt lat="45.05221" lon="5.64095">
        <ele>1267</ele>
        <time>2021-01-16T14:50:53Z</time>
      </trkpt>
      <trkpt lat="45.05222" lon="5.64095">
        <ele>1267.2</ele>
        <time>2021-01-16T14:50:54Z</time>
      </trkpt>
      <trkpt lat="45.05222" lon="5.64095">
        <ele>1267.4</ele>
        <time>2021-01-16T14:50:55Z</time>
      </trkpt>
      <trkpt lat="45.05223" lon="5.64096">
        <ele>1267.4</ele>
        <time>2021-01-16T14:50:56Z</time>
      </trkpt>
      <trkpt lat="45.05223" lon="5.64096">
        <ele>1267.8</ele>
        <time>2021-01-16T14:50:57Z</time>
      </trkpt>
      <trkpt lat="45.05224" lon="5.64097">
        <ele>1268</ele>
        <time>2021-01-16T14:50:58Z</time>
      </trkpt>
      <trkpt lat="45.05224" lon="5.64097">
        <ele>1268.2</ele>
        <time>2021-01-16T14:50:59Z</time>
      </trkpt>
      <trkpt lat="45.05224" lon="5.64097">
        <ele>1268.2</ele>
        <time>2021-01-16T14:51:00Z</time>
      </trkpt>
      <trkpt lat="45.05224" lon="5.64097">
        <ele>1268.4</ele>
        <time>2021-01-16T14:51:01Z</time>
      </trkpt>
      <trkpt lat="45.05224" lon="5.64097">
        <ele>1268.4</ele>
        <time>2021-01-16T14:51:02Z</time>
      </trkpt>
      <trkpt lat="45.05224" lon="5.64097">
        <ele>1268.4</ele>
        <time>2021-01-16T14:51:03Z</time>
      </trkpt>
      <trkpt lat="45.05224" lon="5.64097">
        <ele>1268.4</ele>
        <time>2021-01-16T14:51:04Z</time>
      </trkpt>
      <trkpt lat="45.05224" lon="5.64097">
        <ele>1268.4</ele>
        <time>2021-01-16T14:51:05Z</time>
      </trkpt>
      <trkpt lat="45.05226" lon="5.64096">
        <ele>1268.4</ele>
        <time>2021-01-16T14:51:06Z</time>
      </trkpt>
      <trkpt lat="45.05226" lon="5.64096">
        <ele>1268.4</ele>
        <time>2021-01-16T14:51:07Z</time>
      </trkpt>
      <trkpt lat="45.05226" lon="5.64096">
        <ele>1268.6</ele>
        <time>2021-01-16T14:51:08Z</time>
      </trkpt>
      <trkpt lat="45.05226" lon="5.64096">
        <ele>1268.6</ele>
        <time>2021-01-16T14:51:09Z</time>
      </trkpt>
      <trkpt lat="45.05226" lon="5.64096">
        <ele>1268.8</ele>
        <time>2021-01-16T14:51:10Z</time>
      </trkpt>
      <trkpt lat="45.05226" lon="5.64096">
        <ele>1269</ele>
        <time>2021-01-16T14:51:11Z</time>
      </trkpt>
      <trkpt lat="45.05228" lon="5.64095">
        <ele>1269.2</ele>
        <time>2021-01-16T14:51:12Z</time>
      </trkpt>
      <trkpt lat="45.05228" lon="5.64095">
        <ele>1269.4</ele>
        <time>2021-01-16T14:51:13Z</time>
      </trkpt>
      <trkpt lat="45.05228" lon="5.64095">
        <ele>1269.2</ele>
        <time>2021-01-16T14:51:14Z</time>
      </trkpt>
      <trkpt lat="45.05228" lon="5.64095">
        <ele>1269.4</ele>
        <time>2021-01-16T14:51:15Z</time>
      </trkpt>
      <trkpt lat="45.05228" lon="5.64095">
        <ele>1269.6</ele>
        <time>2021-01-16T14:51:16Z</time>
      </trkpt>
      <trkpt lat="45.05228" lon="5.64095">
        <ele>1269.6</ele>
        <time>2021-01-16T14:51:17Z</time>
      </trkpt>
      <trkpt lat="45.05228" lon="5.64095">
        <ele>1269.8</ele>
        <time>2021-01-16T14:51:18Z</time>
      </trkpt>
      <trkpt lat="45.0523" lon="5.64094">
        <ele>1270</ele>
        <time>2021-01-16T14:51:19Z</time>
      </trkpt>
      <trkpt lat="45.0523" lon="5.64094">
        <ele>1270.2</ele>
        <time>2021-01-16T14:51:20Z</time>
      </trkpt>
      <trkpt lat="45.0523" lon="5.64094">
        <ele>1270.2</ele>
        <time>2021-01-16T14:51:21Z</time>
      </trkpt>
      <trkpt lat="45.0523" lon="5.64094">
        <ele>1270.2</ele>
        <time>2021-01-16T14:51:22Z</time>
      </trkpt>
      <trkpt lat="45.0523" lon="5.64094">
        <ele>1270.2</ele>
        <time>2021-01-16T14:51:23Z</time>
      </trkpt>
      <trkpt lat="45.0523" lon="5.64094">
        <ele>1270.2</ele>
        <time>2021-01-16T14:51:24Z</time>
      </trkpt>
      <trkpt lat="45.0523" lon="5.64094">
        <ele>1270.2</ele>
        <time>2021-01-16T14:51:25Z</time>
      </trkpt>
      <trkpt lat="45.0523" lon="5.64094">
        <ele>1270.2</ele>
        <time>2021-01-16T14:51:26Z</time>
      </trkpt>
      <trkpt lat="45.0523" lon="5.64094">
        <ele>1270.2</ele>
        <time>2021-01-16T14:51:27Z</time>
      </trkpt>
      <trkpt lat="45.0523" lon="5.64094">
        <ele>1270.2</ele>
        <time>2021-01-16T14:51:28Z</time>
      </trkpt>
      <trkpt lat="45.0523" lon="5.64094">
        <ele>1270</ele>
        <time>2021-01-16T14:51:29Z</time>
      </trkpt>
      <trkpt lat="45.0523" lon="5.64094">
        <ele>1270.2</ele>
        <time>2021-01-16T14:51:30Z</time>
      </trkpt>
      <trkpt lat="45.0523" lon="5.64094">
        <ele>1270.2</ele>
        <time>2021-01-16T14:51:31Z</time>
      </trkpt>
      <trkpt lat="45.0523" lon="5.64094">
        <ele>1270.2</ele>
        <time>2021-01-16T14:51:32Z</time>
      </trkpt>
      <trkpt lat="45.0523" lon="5.64094">
        <ele>1270</ele>
        <time>2021-01-16T14:51:33Z</time>
      </trkpt>
      <trkpt lat="45.0523" lon="5.64094">
        <ele>1269.6</ele>
        <time>2021-01-16T14:51:34Z</time>
      </trkpt>
      <trkpt lat="45.0523" lon="5.64094">
        <ele>1269.6</ele>
        <time>2021-01-16T14:51:35Z</time>
      </trkpt>
      <trkpt lat="45.0523" lon="5.64094">
        <ele>1269.4</ele>
        <time>2021-01-16T14:51:36Z</time>
      </trkpt>
      <trkpt lat="45.0523" lon="5.64094">
        <ele>1269.2</ele>
        <time>2021-01-16T14:51:37Z</time>
      </trkpt>
      <trkpt lat="45.0523" lon="5.64094">
        <ele>1269.2</ele>
        <time>2021-01-16T14:51:38Z</time>
      </trkpt>
      <trkpt lat="45.0523" lon="5.64094">
        <ele>1269</ele>
        <time>2021-01-16T14:51:39Z</time>
      </trkpt>
      <trkpt lat="45.0523" lon="5.64094">
        <ele>1269</ele>
        <time>2021-01-16T14:51:40Z</time>
      </trkpt>
      <trkpt lat="45.0523" lon="5.64094">
        <ele>1269</ele>
        <time>2021-01-16T14:51:41Z</time>
      </trkpt>
      <trkpt lat="45.0523" lon="5.64094">
        <ele>1269.2</ele>
        <time>2021-01-16T14:51:42Z</time>
      </trkpt>
      <trkpt lat="45.0523" lon="5.64094">
        <ele>1269.2</ele>
        <time>2021-01-16T14:51:43Z</time>
      </trkpt>
      <trkpt lat="45.0523" lon="5.64094">
        <ele>1269.4</ele>
        <time>2021-01-16T14:51:44Z</time>
      </trkpt>
      <trkpt lat="45.0523" lon="5.64094">
        <ele>1269.4</ele>
        <time>2021-01-16T14:51:45Z</time>
      </trkpt>
      <trkpt lat="45.0523" lon="5.64094">
        <ele>1269.4</ele>
        <time>2021-01-16T14:51:46Z</time>
      </trkpt>
      <trkpt lat="45.0523" lon="5.64094">
        <ele>1269.6</ele>
        <time>2021-01-16T14:51:47Z</time>
      </trkpt>
      <trkpt lat="45.0523" lon="5.64094">
        <ele>1269.6</ele>
        <time>2021-01-16T14:51:48Z</time>
      </trkpt>
      <trkpt lat="45.0523" lon="5.64094">
        <ele>1269.8</ele>
        <time>2021-01-16T14:51:49Z</time>
      </trkpt>
      <trkpt lat="45.0523" lon="5.64094">
        <ele>1269.8</ele>
        <time>2021-01-16T14:51:50Z</time>
      </trkpt>
      <trkpt lat="45.0523" lon="5.64094">
        <ele>1269.6</ele>
        <time>2021-01-16T14:51:51Z</time>
      </trkpt>
      <trkpt lat="45.0523" lon="5.64094">
        <ele>1269.6</ele>
        <time>2021-01-16T14:51:52Z</time>
      </trkpt>
      <trkpt lat="45.0523" lon="5.64094">
        <ele>1269.6</ele>
        <time>2021-01-16T14:51:53Z</time>
      </trkpt>
      <trkpt lat="45.0523" lon="5.64094">
        <ele>1269.6</ele>
        <time>2021-01-16T14:51:54Z</time>
      </trkpt>
      <trkpt lat="45.0523" lon="5.64094">
        <ele>1269.4</ele>
        <time>2021-01-16T14:51:55Z</time>
      </trkpt>
      <trkpt lat="45.0523" lon="5.64094">
        <ele>1269</ele>
        <time>2021-01-16T14:51:56Z</time>
      </trkpt>
      <trkpt lat="45.05231" lon="5.64096">
        <ele>1268.8</ele>
        <time>2021-01-16T14:51:57Z</time>
      </trkpt>
      <trkpt lat="45.05231" lon="5.64096">
        <ele>1268.8</ele>
        <time>2021-01-16T14:51:58Z</time>
      </trkpt>
      <trkpt lat="45.05231" lon="5.64096">
        <ele>1268.4</ele>
        <time>2021-01-16T14:51:59Z</time>
      </trkpt>
      <trkpt lat="45.05232" lon="5.64095">
        <ele>1268.2</ele>
        <time>2021-01-16T14:52:00Z</time>
      </trkpt>
      <trkpt lat="45.05234" lon="5.64095">
        <ele>1268.2</ele>
        <time>2021-01-16T14:52:01Z</time>
      </trkpt>
      <trkpt lat="45.05235" lon="5.64094">
        <ele>1268.2</ele>
        <time>2021-01-16T14:52:02Z</time>
      </trkpt>
      <trkpt lat="45.05236" lon="5.64094">
        <ele>1268.2</ele>
        <time>2021-01-16T14:52:03Z</time>
      </trkpt>
      <trkpt lat="45.05237" lon="5.64093">
        <ele>1268.2</ele>
        <time>2021-01-16T14:52:04Z</time>
      </trkpt>
      <trkpt lat="45.05239" lon="5.64093">
        <ele>1268</ele>
        <time>2021-01-16T14:52:05Z</time>
      </trkpt>
      <trkpt lat="45.0524" lon="5.64092">
        <ele>1268.2</ele>
        <time>2021-01-16T14:52:06Z</time>
      </trkpt>
      <trkpt lat="45.05241" lon="5.64091">
        <ele>1268.2</ele>
        <time>2021-01-16T14:52:07Z</time>
      </trkpt>
      <trkpt lat="45.05242" lon="5.64091">
        <ele>1268.4</ele>
        <time>2021-01-16T14:52:08Z</time>
      </trkpt>
      <trkpt lat="45.05244" lon="5.6409">
        <ele>1268.4</ele>
        <time>2021-01-16T14:52:09Z</time>
      </trkpt>
      <trkpt lat="45.05244" lon="5.6409">
        <ele>1268.4</ele>
        <time>2021-01-16T14:52:10Z</time>
      </trkpt>
      <trkpt lat="45.05244" lon="5.6409">
        <ele>1268.4</ele>
        <time>2021-01-16T14:52:11Z</time>
      </trkpt>
      <trkpt lat="45.05244" lon="5.6409">
        <ele>1268.4</ele>
        <time>2021-01-16T14:52:12Z</time>
      </trkpt>
      <trkpt lat="45.05244" lon="5.6409">
        <ele>1268.4</ele>
        <time>2021-01-16T14:52:13Z</time>
      </trkpt>
      <trkpt lat="45.05244" lon="5.6409">
        <ele>1268.4</ele>
        <time>2021-01-16T14:52:14Z</time>
      </trkpt>
      <trkpt lat="45.05244" lon="5.6409">
        <ele>1268.4</ele>
        <time>2021-01-16T14:52:15Z</time>
      </trkpt>
      <trkpt lat="45.05244" lon="5.6409">
        <ele>1268.4</ele>
        <time>2021-01-16T14:52:16Z</time>
      </trkpt>
      <trkpt lat="45.05245" lon="5.64093">
        <ele>1268.4</ele>
        <time>2021-01-16T14:52:17Z</time>
      </trkpt>
      <trkpt lat="45.05245" lon="5.64093">
        <ele>1268.2</ele>
        <time>2021-01-16T14:52:18Z</time>
      </trkpt>
      <trkpt lat="45.05244" lon="5.64096">
        <ele>1267.8</ele>
        <time>2021-01-16T14:52:19Z</time>
      </trkpt>
      <trkpt lat="45.05243" lon="5.641">
        <ele>1267.6</ele>
        <time>2021-01-16T14:52:20Z</time>
      </trkpt>
      <trkpt lat="45.05243" lon="5.641">
        <ele>1267.6</ele>
        <time>2021-01-16T14:52:21Z</time>
      </trkpt>
      <trkpt lat="45.05243" lon="5.641">
        <ele>1267.2</ele>
        <time>2021-01-16T14:52:22Z</time>
      </trkpt>
      <trkpt lat="45.05243" lon="5.641">
        <ele>1266.8</ele>
        <time>2021-01-16T14:52:23Z</time>
      </trkpt>
      <trkpt lat="45.05243" lon="5.64099">
        <ele>1266</ele>
        <time>2021-01-16T14:52:24Z</time>
      </trkpt>
      <trkpt lat="45.05242" lon="5.64099">
        <ele>1265.8</ele>
        <time>2021-01-16T14:52:25Z</time>
      </trkpt>
      <trkpt lat="45.05241" lon="5.64098">
        <ele>1265.2</ele>
        <time>2021-01-16T14:52:26Z</time>
      </trkpt>
      <trkpt lat="45.05241" lon="5.64097">
        <ele>1265</ele>
        <time>2021-01-16T14:52:27Z</time>
      </trkpt>
      <trkpt lat="45.0524" lon="5.64097">
        <ele>1264.4</ele>
        <time>2021-01-16T14:52:28Z</time>
      </trkpt>
      <trkpt lat="45.0524" lon="5.64096">
        <ele>1264</ele>
        <time>2021-01-16T14:52:29Z</time>
      </trkpt>
      <trkpt lat="45.05239" lon="5.64096">
        <ele>1263.6</ele>
        <time>2021-01-16T14:52:30Z</time>
      </trkpt>
      <trkpt lat="45.05238" lon="5.64095">
        <ele>1263.4</ele>
        <time>2021-01-16T14:52:31Z</time>
      </trkpt>
      <trkpt lat="45.05238" lon="5.64095">
        <ele>1263.4</ele>
        <time>2021-01-16T14:52:32Z</time>
      </trkpt>
      <trkpt lat="45.05237" lon="5.64094">
        <ele>1263.4</ele>
        <time>2021-01-16T14:52:33Z</time>
      </trkpt>
      <trkpt lat="45.05236" lon="5.64094">
        <ele>1263.2</ele>
        <time>2021-01-16T14:52:34Z</time>
      </trkpt>
      <trkpt lat="45.05236" lon="5.64093">
        <ele>1263.2</ele>
        <time>2021-01-16T14:52:35Z</time>
      </trkpt>
      <trkpt lat="45.05235" lon="5.64093">
        <ele>1263</ele>
        <time>2021-01-16T14:52:36Z</time>
      </trkpt>
      <trkpt lat="45.05235" lon="5.64093">
        <ele>1263</ele>
        <time>2021-01-16T14:52:37Z</time>
      </trkpt>
      <trkpt lat="45.05235" lon="5.64093">
        <ele>1263</ele>
        <time>2021-01-16T14:52:38Z</time>
      </trkpt>
      <trkpt lat="45.05233" lon="5.6409">
        <ele>1263.2</ele>
        <time>2021-01-16T14:52:39Z</time>
      </trkpt>
      <trkpt lat="45.05233" lon="5.6409">
        <ele>1263.2</ele>
        <time>2021-01-16T14:52:40Z</time>
      </trkpt>
      <trkpt lat="45.05233" lon="5.6409">
        <ele>1263</ele>
        <time>2021-01-16T14:52:41Z</time>
      </trkpt>
      <trkpt lat="45.05233" lon="5.6409">
        <ele>1263.2</ele>
        <time>2021-01-16T14:52:42Z</time>
      </trkpt>
      <trkpt lat="45.05233" lon="5.6409">
        <ele>1263.2</ele>
        <time>2021-01-16T14:52:43Z</time>
      </trkpt>
      <trkpt lat="45.05233" lon="5.6409">
        <ele>1263.2</ele>
        <time>2021-01-16T14:52:44Z</time>
      </trkpt>
      <trkpt lat="45.05234" lon="5.6409">
        <ele>1263.2</ele>
        <time>2021-01-16T14:52:45Z</time>
      </trkpt>
      <trkpt lat="45.05234" lon="5.6409">
        <ele>1263</ele>
        <time>2021-01-16T14:52:46Z</time>
      </trkpt>
      <trkpt lat="45.05234" lon="5.6409">
        <ele>1263</ele>
        <time>2021-01-16T14:52:47Z</time>
      </trkpt>
      <trkpt lat="45.05234" lon="5.6409">
        <ele>1263</ele>
        <time>2021-01-16T14:52:48Z</time>
      </trkpt>
      <trkpt lat="45.05234" lon="5.6409">
        <ele>1263.2</ele>
        <time>2021-01-16T14:52:49Z</time>
      </trkpt>
      <trkpt lat="45.05234" lon="5.6409">
        <ele>1263.2</ele>
        <time>2021-01-16T14:52:50Z</time>
      </trkpt>
      <trkpt lat="45.05235" lon="5.6409">
        <ele>1263.2</ele>
        <time>2021-01-16T14:52:51Z</time>
      </trkpt>
      <trkpt lat="45.05235" lon="5.6409">
        <ele>1263.2</ele>
        <time>2021-01-16T14:52:52Z</time>
      </trkpt>
      <trkpt lat="45.05235" lon="5.6409">
        <ele>1263.2</ele>
        <time>2021-01-16T14:52:53Z</time>
      </trkpt>
      <trkpt lat="45.05235" lon="5.6409">
        <ele>1263.2</ele>
        <time>2021-01-16T14:52:54Z</time>
      </trkpt>
      <trkpt lat="45.05235" lon="5.6409">
        <ele>1263.2</ele>
        <time>2021-01-16T14:52:55Z</time>
      </trkpt>
      <trkpt lat="45.05235" lon="5.6409">
        <ele>1263.2</ele>
        <time>2021-01-16T14:52:56Z</time>
      </trkpt>
      <trkpt lat="45.05236" lon="5.6409">
        <ele>1263</ele>
        <time>2021-01-16T14:52:57Z</time>
      </trkpt>
      <trkpt lat="45.05236" lon="5.6409">
        <ele>1263</ele>
        <time>2021-01-16T14:52:58Z</time>
      </trkpt>
      <trkpt lat="45.05236" lon="5.6409">
        <ele>1263</ele>
        <time>2021-01-16T14:52:59Z</time>
      </trkpt>
      <trkpt lat="45.05236" lon="5.6409">
        <ele>1263</ele>
        <time>2021-01-16T14:53:00Z</time>
      </trkpt>
      <trkpt lat="45.05236" lon="5.6409">
        <ele>1263</ele>
        <time>2021-01-16T14:53:01Z</time>
      </trkpt>
      <trkpt lat="45.05237" lon="5.6409">
        <ele>1263</ele>
        <time>2021-01-16T14:53:02Z</time>
      </trkpt>
      <trkpt lat="45.05237" lon="5.6409">
        <ele>1263</ele>
        <time>2021-01-16T14:53:03Z</time>
      </trkpt>
      <trkpt lat="45.05237" lon="5.6409">
        <ele>1263</ele>
        <time>2021-01-16T14:53:04Z</time>
      </trkpt>
      <trkpt lat="45.05237" lon="5.6409">
        <ele>1263</ele>
        <time>2021-01-16T14:53:05Z</time>
      </trkpt>
      <trkpt lat="45.05237" lon="5.6409">
        <ele>1263.2</ele>
        <time>2021-01-16T14:53:06Z</time>
      </trkpt>
      <trkpt lat="45.05237" lon="5.64089">
        <ele>1263.2</ele>
        <time>2021-01-16T14:53:07Z</time>
      </trkpt>
      <trkpt lat="45.05238" lon="5.64089">
        <ele>1263.2</ele>
        <time>2021-01-16T14:53:08Z</time>
      </trkpt>
      <trkpt lat="45.05238" lon="5.64089">
        <ele>1263.2</ele>
        <time>2021-01-16T14:53:09Z</time>
      </trkpt>
      <trkpt lat="45.05238" lon="5.64089">
        <ele>1263.2</ele>
        <time>2021-01-16T14:53:10Z</time>
      </trkpt>
      <trkpt lat="45.05238" lon="5.64089">
        <ele>1263.2</ele>
        <time>2021-01-16T14:53:11Z</time>
      </trkpt>
      <trkpt lat="45.05238" lon="5.64089">
        <ele>1263.2</ele>
        <time>2021-01-16T14:53:12Z</time>
      </trkpt>
      <trkpt lat="45.05238" lon="5.64089">
        <ele>1263</ele>
        <time>2021-01-16T14:53:13Z</time>
      </trkpt>
      <trkpt lat="45.05239" lon="5.64089">
        <ele>1263</ele>
        <time>2021-01-16T14:53:14Z</time>
      </trkpt>
      <trkpt lat="45.05239" lon="5.64089">
        <ele>1263</ele>
        <time>2021-01-16T14:53:15Z</time>
      </trkpt>
      <trkpt lat="45.05239" lon="5.64089">
        <ele>1263</ele>
        <time>2021-01-16T14:53:16Z</time>
      </trkpt>
      <trkpt lat="45.05239" lon="5.64089">
        <ele>1263</ele>
        <time>2021-01-16T14:53:17Z</time>
      </trkpt>
      <trkpt lat="45.05239" lon="5.64089">
        <ele>1263</ele>
        <time>2021-01-16T14:53:18Z</time>
      </trkpt>
      <trkpt lat="45.05239" lon="5.64089">
        <ele>1263</ele>
        <time>2021-01-16T14:53:19Z</time>
      </trkpt>
      <trkpt lat="45.05237" lon="5.64088">
        <ele>1262.8</ele>
        <time>2021-01-16T14:53:20Z</time>
      </trkpt>
      <trkpt lat="45.05237" lon="5.64088">
        <ele>1262.4</ele>
        <time>2021-01-16T14:53:21Z</time>
      </trkpt>
      <trkpt lat="45.05237" lon="5.64088">
        <ele>1262.2</ele>
        <time>2021-01-16T14:53:22Z</time>
      </trkpt>
      <trkpt lat="45.05237" lon="5.64088">
        <ele>1262.2</ele>
        <time>2021-01-16T14:53:23Z</time>
      </trkpt>
      <trkpt lat="45.05235" lon="5.6409">
        <ele>1262</ele>
        <time>2021-01-16T14:53:24Z</time>
      </trkpt>
      <trkpt lat="45.05235" lon="5.6409">
        <ele>1261.4</ele>
        <time>2021-01-16T14:53:25Z</time>
      </trkpt>
      <trkpt lat="45.05235" lon="5.6409">
        <ele>1261.2</ele>
        <time>2021-01-16T14:53:26Z</time>
      </trkpt>
      <trkpt lat="45.05235" lon="5.6409">
        <ele>1260.6</ele>
        <time>2021-01-16T14:53:27Z</time>
      </trkpt>
      <trkpt lat="45.05235" lon="5.6409">
        <ele>1260.4</ele>
        <time>2021-01-16T14:53:28Z</time>
      </trkpt>
      <trkpt lat="45.05235" lon="5.6409">
        <ele>1260.2</ele>
        <time>2021-01-16T14:53:29Z</time>
      </trkpt>
      <trkpt lat="45.05235" lon="5.6409">
        <ele>1260.2</ele>
        <time>2021-01-16T14:53:30Z</time>
      </trkpt>
      <trkpt lat="45.05235" lon="5.6409">
        <ele>1260</ele>
        <time>2021-01-16T14:53:31Z</time>
      </trkpt>
      <trkpt lat="45.05235" lon="5.6409">
        <ele>1260</ele>
        <time>2021-01-16T14:53:32Z</time>
      </trkpt>
      <trkpt lat="45.05235" lon="5.6409">
        <ele>1259.8</ele>
        <time>2021-01-16T14:53:33Z</time>
      </trkpt>
      <trkpt lat="45.05235" lon="5.6409">
        <ele>1259.8</ele>
        <time>2021-01-16T14:53:34Z</time>
      </trkpt>
      <trkpt lat="45.05235" lon="5.6409">
        <ele>1259.6</ele>
        <time>2021-01-16T14:53:35Z</time>
      </trkpt>
      <trkpt lat="45.05235" lon="5.6409">
        <ele>1259.6</ele>
        <time>2021-01-16T14:53:36Z</time>
      </trkpt>
      <trkpt lat="45.05235" lon="5.6409">
        <ele>1259.8</ele>
        <time>2021-01-16T14:53:37Z</time>
      </trkpt>
      <trkpt lat="45.05235" lon="5.6409">
        <ele>1259.8</ele>
        <time>2021-01-16T14:53:38Z</time>
      </trkpt>
      <trkpt lat="45.05235" lon="5.6409">
        <ele>1259.8</ele>
        <time>2021-01-16T14:53:39Z</time>
      </trkpt>
      <trkpt lat="45.05235" lon="5.6409">
        <ele>1259.8</ele>
        <time>2021-01-16T14:53:40Z</time>
      </trkpt>
      <trkpt lat="45.05235" lon="5.6409">
        <ele>1259.8</ele>
        <time>2021-01-16T14:53:41Z</time>
      </trkpt>
      <trkpt lat="45.05235" lon="5.6409">
        <ele>1259.8</ele>
        <time>2021-01-16T14:53:42Z</time>
      </trkpt>
      <trkpt lat="45.05235" lon="5.6409">
        <ele>1259.8</ele>
        <time>2021-01-16T14:53:43Z</time>
      </trkpt>
      <trkpt lat="45.05235" lon="5.6409">
        <ele>1259.8</ele>
        <time>2021-01-16T14:53:44Z</time>
      </trkpt>
      <trkpt lat="45.05235" lon="5.6409">
        <ele>1259.6</ele>
        <time>2021-01-16T14:53:45Z</time>
      </trkpt>
      <trkpt lat="45.05235" lon="5.64092">
        <ele>1259.2</ele>
        <time>2021-01-16T14:53:46Z</time>
      </trkpt>
      <trkpt lat="45.05235" lon="5.64092">
        <ele>1259.4</ele>
        <time>2021-01-16T14:53:47Z</time>
      </trkpt>
      <trkpt lat="45.05235" lon="5.64092">
        <ele>1259.8</ele>
        <time>2021-01-16T14:53:48Z</time>
      </trkpt>
      <trkpt lat="45.05235" lon="5.64092">
        <ele>1260</ele>
        <time>2021-01-16T14:53:49Z</time>
      </trkpt>
      <trkpt lat="45.05235" lon="5.64092">
        <ele>1260</ele>
        <time>2021-01-16T14:53:50Z</time>
      </trkpt>
      <trkpt lat="45.05235" lon="5.64092">
        <ele>1260.2</ele>
        <time>2021-01-16T14:53:51Z</time>
      </trkpt>
      <trkpt lat="45.05236" lon="5.64095">
        <ele>1260.4</ele>
        <time>2021-01-16T14:53:52Z</time>
      </trkpt>
      <trkpt lat="45.05236" lon="5.64095">
        <ele>1260.6</ele>
        <time>2021-01-16T14:53:53Z</time>
      </trkpt>
      <trkpt lat="45.05236" lon="5.64095">
        <ele>1260.8</ele>
        <time>2021-01-16T14:53:54Z</time>
      </trkpt>
      <trkpt lat="45.05236" lon="5.64095">
        <ele>1261.2</ele>
        <time>2021-01-16T14:53:55Z</time>
      </trkpt>
      <trkpt lat="45.05236" lon="5.64095">
        <ele>1261.4</ele>
        <time>2021-01-16T14:53:56Z</time>
      </trkpt>
      <trkpt lat="45.05236" lon="5.64095">
        <ele>1261.6</ele>
        <time>2021-01-16T14:53:57Z</time>
      </trkpt>
      <trkpt lat="45.05239" lon="5.64095">
        <ele>1262</ele>
        <time>2021-01-16T14:53:58Z</time>
      </trkpt>
      <trkpt lat="45.05239" lon="5.64095">
        <ele>1262.4</ele>
        <time>2021-01-16T14:53:59Z</time>
      </trkpt>
      <trkpt lat="45.05239" lon="5.64095">
        <ele>1262.6</ele>
        <time>2021-01-16T14:54:00Z</time>
      </trkpt>
      <trkpt lat="45.05241" lon="5.64095">
        <ele>1263.2</ele>
        <time>2021-01-16T14:54:01Z</time>
      </trkpt>
      <trkpt lat="45.05241" lon="5.64095">
        <ele>1263.2</ele>
        <time>2021-01-16T14:54:02Z</time>
      </trkpt>
      <trkpt lat="45.05241" lon="5.64095">
        <ele>1263.4</ele>
        <time>2021-01-16T14:54:03Z</time>
      </trkpt>
      <trkpt lat="45.05241" lon="5.64095">
        <ele>1263.8</ele>
        <time>2021-01-16T14:54:04Z</time>
      </trkpt>
      <trkpt lat="45.05241" lon="5.64095">
        <ele>1263.8</ele>
        <time>2021-01-16T14:54:05Z</time>
      </trkpt>
      <trkpt lat="45.05244" lon="5.64092">
        <ele>1264.2</ele>
        <time>2021-01-16T14:54:06Z</time>
      </trkpt>
      <trkpt lat="45.05244" lon="5.64092">
        <ele>1264.8</ele>
        <time>2021-01-16T14:54:07Z</time>
      </trkpt>
      <trkpt lat="45.05244" lon="5.64092">
        <ele>1264.8</ele>
        <time>2021-01-16T14:54:08Z</time>
      </trkpt>
      <trkpt lat="45.05244" lon="5.64091">
        <ele>1263.8</ele>
        <time>2021-01-16T14:54:09Z</time>
      </trkpt>
      <trkpt lat="45.05245" lon="5.6409">
        <ele>1264.6</ele>
        <time>2021-01-16T14:54:10Z</time>
      </trkpt>
      <trkpt lat="45.05245" lon="5.6409">
        <ele>1265.2</ele>
        <time>2021-01-16T14:54:11Z</time>
      </trkpt>
      <trkpt lat="45.05245" lon="5.64089">
        <ele>1265.6</ele>
        <time>2021-01-16T14:54:12Z</time>
      </trkpt>
      <trkpt lat="45.05245" lon="5.64088">
        <ele>1265.8</ele>
        <time>2021-01-16T14:54:13Z</time>
      </trkpt>
      <trkpt lat="45.05246" lon="5.64088">
        <ele>1266.4</ele>
        <time>2021-01-16T14:54:14Z</time>
      </trkpt>
      <trkpt lat="45.05246" lon="5.64087">
        <ele>1266.6</ele>
        <time>2021-01-16T14:54:15Z</time>
      </trkpt>
      <trkpt lat="45.05246" lon="5.64084">
        <ele>1267</ele>
        <time>2021-01-16T14:54:16Z</time>
      </trkpt>
      <trkpt lat="45.05246" lon="5.64084">
        <ele>1267.2</ele>
        <time>2021-01-16T14:54:17Z</time>
      </trkpt>
      <trkpt lat="45.05246" lon="5.64084">
        <ele>1267.6</ele>
        <time>2021-01-16T14:54:18Z</time>
      </trkpt>
      <trkpt lat="45.05246" lon="5.64084">
        <ele>1267.8</ele>
        <time>2021-01-16T14:54:19Z</time>
      </trkpt>
      <trkpt lat="45.05245" lon="5.64082">
        <ele>1268.2</ele>
        <time>2021-01-16T14:54:20Z</time>
      </trkpt>
      <trkpt lat="45.05245" lon="5.64082">
        <ele>1268.4</ele>
        <time>2021-01-16T14:54:21Z</time>
      </trkpt>
      <trkpt lat="45.05246" lon="5.64079">
        <ele>1268.6</ele>
        <time>2021-01-16T14:54:22Z</time>
      </trkpt>
      <trkpt lat="45.05246" lon="5.64079">
        <ele>1268.8</ele>
        <time>2021-01-16T14:54:23Z</time>
      </trkpt>
      <trkpt lat="45.05246" lon="5.64079">
        <ele>1269.2</ele>
        <time>2021-01-16T14:54:24Z</time>
      </trkpt>
      <trkpt lat="45.05247" lon="5.64076">
        <ele>1269.4</ele>
        <time>2021-01-16T14:54:25Z</time>
      </trkpt>
      <trkpt lat="45.05247" lon="5.64076">
        <ele>1269.4</ele>
        <time>2021-01-16T14:54:26Z</time>
      </trkpt>
      <trkpt lat="45.05247" lon="5.64076">
        <ele>1269.6</ele>
        <time>2021-01-16T14:54:27Z</time>
      </trkpt>
      <trkpt lat="45.05249" lon="5.64077">
        <ele>1269.6</ele>
        <time>2021-01-16T14:54:28Z</time>
      </trkpt>
      <trkpt lat="45.05249" lon="5.64077">
        <ele>1270</ele>
        <time>2021-01-16T14:54:29Z</time>
      </trkpt>
      <trkpt lat="45.05249" lon="5.64077">
        <ele>1270.2</ele>
        <time>2021-01-16T14:54:30Z</time>
      </trkpt>
      <trkpt lat="45.05249" lon="5.64077">
        <ele>1270.4</ele>
        <time>2021-01-16T14:54:31Z</time>
      </trkpt>
      <trkpt lat="45.0525" lon="5.64079">
        <ele>1270.6</ele>
        <time>2021-01-16T14:54:32Z</time>
      </trkpt>
      <trkpt lat="45.0525" lon="5.64079">
        <ele>1271</ele>
        <time>2021-01-16T14:54:33Z</time>
      </trkpt>
      <trkpt lat="45.0525" lon="5.64079">
        <ele>1271.2</ele>
        <time>2021-01-16T14:54:34Z</time>
      </trkpt>
      <trkpt lat="45.0525" lon="5.64079">
        <ele>1271.2</ele>
        <time>2021-01-16T14:54:35Z</time>
      </trkpt>
      <trkpt lat="45.0525" lon="5.64079">
        <ele>1271.6</ele>
        <time>2021-01-16T14:54:36Z</time>
      </trkpt>
      <trkpt lat="45.0525" lon="5.64079">
        <ele>1271.6</ele>
        <time>2021-01-16T14:54:37Z</time>
      </trkpt>
      <trkpt lat="45.0525" lon="5.64079">
        <ele>1271.6</ele>
        <time>2021-01-16T14:54:38Z</time>
      </trkpt>
      <trkpt lat="45.0525" lon="5.64079">
        <ele>1271.6</ele>
        <time>2021-01-16T14:54:39Z</time>
      </trkpt>
      <trkpt lat="45.0525" lon="5.64079">
        <ele>1272</ele>
        <time>2021-01-16T14:54:40Z</time>
      </trkpt>
      <trkpt lat="45.0525" lon="5.64079">
        <ele>1272</ele>
        <time>2021-01-16T14:54:41Z</time>
      </trkpt>
      <trkpt lat="45.0525" lon="5.64079">
        <ele>1272.4</ele>
        <time>2021-01-16T14:54:42Z</time>
      </trkpt>
      <trkpt lat="45.0525" lon="5.64079">
        <ele>1272.4</ele>
        <time>2021-01-16T14:54:43Z</time>
      </trkpt>
      <trkpt lat="45.0525" lon="5.64079">
        <ele>1272.6</ele>
        <time>2021-01-16T14:54:44Z</time>
      </trkpt>
      <trkpt lat="45.0525" lon="5.64079">
        <ele>1272.8</ele>
        <time>2021-01-16T14:54:45Z</time>
      </trkpt>
      <trkpt lat="45.0525" lon="5.64079">
        <ele>1272.8</ele>
        <time>2021-01-16T14:54:46Z</time>
      </trkpt>
      <trkpt lat="45.0525" lon="5.64079">
        <ele>1273</ele>
        <time>2021-01-16T14:54:47Z</time>
      </trkpt>
      <trkpt lat="45.05252" lon="5.64081">
        <ele>1273.2</ele>
        <time>2021-01-16T14:54:48Z</time>
      </trkpt>
      <trkpt lat="45.05252" lon="5.64081">
        <ele>1273.2</ele>
        <time>2021-01-16T14:54:49Z</time>
      </trkpt>
      <trkpt lat="45.05252" lon="5.64081">
        <ele>1273.2</ele>
        <time>2021-01-16T14:54:50Z</time>
      </trkpt>
      <trkpt lat="45.05252" lon="5.64081">
        <ele>1273</ele>
        <time>2021-01-16T14:54:51Z</time>
      </trkpt>
      <trkpt lat="45.05252" lon="5.64081">
        <ele>1273.2</ele>
        <time>2021-01-16T14:54:52Z</time>
      </trkpt>
      <trkpt lat="45.05252" lon="5.64081">
        <ele>1273</ele>
        <time>2021-01-16T14:54:53Z</time>
      </trkpt>
      <trkpt lat="45.05252" lon="5.64081">
        <ele>1272.8</ele>
        <time>2021-01-16T14:54:54Z</time>
      </trkpt>
      <trkpt lat="45.05252" lon="5.64081">
        <ele>1272.8</ele>
        <time>2021-01-16T14:54:55Z</time>
      </trkpt>
      <trkpt lat="45.05252" lon="5.64081">
        <ele>1272.8</ele>
        <time>2021-01-16T14:54:56Z</time>
      </trkpt>
      <trkpt lat="45.05252" lon="5.64081">
        <ele>1272.6</ele>
        <time>2021-01-16T14:54:57Z</time>
      </trkpt>
      <trkpt lat="45.05252" lon="5.64081">
        <ele>1272.4</ele>
        <time>2021-01-16T14:54:58Z</time>
      </trkpt>
      <trkpt lat="45.05252" lon="5.64081">
        <ele>1272.6</ele>
        <time>2021-01-16T14:54:59Z</time>
      </trkpt>
      <trkpt lat="45.05252" lon="5.64081">
        <ele>1272.8</ele>
        <time>2021-01-16T14:55:00Z</time>
      </trkpt>
      <trkpt lat="45.05252" lon="5.64081">
        <ele>1273</ele>
        <time>2021-01-16T14:55:01Z</time>
      </trkpt>
      <trkpt lat="45.05252" lon="5.64081">
        <ele>1272.8</ele>
        <time>2021-01-16T14:55:02Z</time>
      </trkpt>
      <trkpt lat="45.05252" lon="5.64081">
        <ele>1272.8</ele>
        <time>2021-01-16T14:55:03Z</time>
      </trkpt>
      <trkpt lat="45.05252" lon="5.64081">
        <ele>1273</ele>
        <time>2021-01-16T14:55:04Z</time>
      </trkpt>
      <trkpt lat="45.05252" lon="5.64081">
        <ele>1272.8</ele>
        <time>2021-01-16T14:55:05Z</time>
      </trkpt>
      <trkpt lat="45.05252" lon="5.64081">
        <ele>1272.8</ele>
        <time>2021-01-16T14:55:06Z</time>
      </trkpt>
      <trkpt lat="45.05252" lon="5.64081">
        <ele>1272.6</ele>
        <time>2021-01-16T14:55:07Z</time>
      </trkpt>
      <trkpt lat="45.05252" lon="5.64081">
        <ele>1272.6</ele>
        <time>2021-01-16T14:55:08Z</time>
      </trkpt>
      <trkpt lat="45.05252" lon="5.64081">
        <ele>1272.6</ele>
        <time>2021-01-16T14:55:09Z</time>
      </trkpt>
      <trkpt lat="45.05252" lon="5.64081">
        <ele>1272.4</ele>
        <time>2021-01-16T14:55:10Z</time>
      </trkpt>
      <trkpt lat="45.05252" lon="5.64081">
        <ele>1272.8</ele>
        <time>2021-01-16T14:55:11Z</time>
      </trkpt>
      <trkpt lat="45.05252" lon="5.64081">
        <ele>1272.8</ele>
        <time>2021-01-16T14:55:12Z</time>
      </trkpt>
      <trkpt lat="45.05252" lon="5.64081">
        <ele>1273</ele>
        <time>2021-01-16T14:55:13Z</time>
      </trkpt>
      <trkpt lat="45.05252" lon="5.64081">
        <ele>1273</ele>
        <time>2021-01-16T14:55:14Z</time>
      </trkpt>
      <trkpt lat="45.05252" lon="5.64081">
        <ele>1273</ele>
        <time>2021-01-16T14:55:15Z</time>
      </trkpt>
      <trkpt lat="45.05252" lon="5.64081">
        <ele>1272.8</ele>
        <time>2021-01-16T14:55:16Z</time>
      </trkpt>
      <trkpt lat="45.05252" lon="5.64081">
        <ele>1272.8</ele>
        <time>2021-01-16T14:55:17Z</time>
      </trkpt>
      <trkpt lat="45.05252" lon="5.64081">
        <ele>1272.6</ele>
        <time>2021-01-16T14:55:18Z</time>
      </trkpt>
      <trkpt lat="45.05252" lon="5.64081">
        <ele>1272.8</ele>
        <time>2021-01-16T14:55:19Z</time>
      </trkpt>
      <trkpt lat="45.05252" lon="5.64081">
        <ele>1272.8</ele>
        <time>2021-01-16T14:55:20Z</time>
      </trkpt>
      <trkpt lat="45.05252" lon="5.64081">
        <ele>1273</ele>
        <time>2021-01-16T14:55:21Z</time>
      </trkpt>
      <trkpt lat="45.05252" lon="5.64081">
        <ele>1273</ele>
        <time>2021-01-16T14:55:22Z</time>
      </trkpt>
      <trkpt lat="45.05252" lon="5.64081">
        <ele>1273.2</ele>
        <time>2021-01-16T14:55:23Z</time>
      </trkpt>
      <trkpt lat="45.05252" lon="5.64081">
        <ele>1273.2</ele>
        <time>2021-01-16T14:55:24Z</time>
      </trkpt>
      <trkpt lat="45.05252" lon="5.64081">
        <ele>1273.2</ele>
        <time>2021-01-16T14:55:25Z</time>
      </trkpt>
      <trkpt lat="45.05252" lon="5.64081">
        <ele>1273.2</ele>
        <time>2021-01-16T14:55:26Z</time>
      </trkpt>
      <trkpt lat="45.05252" lon="5.64081">
        <ele>1273.2</ele>
        <time>2021-01-16T14:55:27Z</time>
      </trkpt>
      <trkpt lat="45.05252" lon="5.64081">
        <ele>1273.2</ele>
        <time>2021-01-16T14:55:28Z</time>
      </trkpt>
      <trkpt lat="45.05252" lon="5.64081">
        <ele>1273.2</ele>
        <time>2021-01-16T14:55:29Z</time>
      </trkpt>
      <trkpt lat="45.05252" lon="5.64081">
        <ele>1273.2</ele>
        <time>2021-01-16T14:55:30Z</time>
      </trkpt>
      <trkpt lat="45.05252" lon="5.64081">
        <ele>1273.2</ele>
        <time>2021-01-16T14:55:31Z</time>
      </trkpt>
      <trkpt lat="45.05252" lon="5.64081">
        <ele>1273.4</ele>
        <time>2021-01-16T14:55:32Z</time>
      </trkpt>
      <trkpt lat="45.05252" lon="5.64081">
        <ele>1273.2</ele>
        <time>2021-01-16T14:55:33Z</time>
      </trkpt>
      <trkpt lat="45.05252" lon="5.64081">
        <ele>1273.2</ele>
        <time>2021-01-16T14:55:34Z</time>
      </trkpt>
      <trkpt lat="45.05252" lon="5.64081">
        <ele>1273.2</ele>
        <time>2021-01-16T14:55:35Z</time>
      </trkpt>
      <trkpt lat="45.05252" lon="5.64081">
        <ele>1273.2</ele>
        <time>2021-01-16T14:55:36Z</time>
      </trkpt>
      <trkpt lat="45.05252" lon="5.64081">
        <ele>1273.2</ele>
        <time>2021-01-16T14:55:37Z</time>
      </trkpt>
      <trkpt lat="45.05252" lon="5.64081">
        <ele>1273.2</ele>
        <time>2021-01-16T14:55:38Z</time>
      </trkpt>
      <trkpt lat="45.05252" lon="5.64081">
        <ele>1273.2</ele>
        <time>2021-01-16T14:55:39Z</time>
      </trkpt>
      <trkpt lat="45.05252" lon="5.64081">
        <ele>1273.2</ele>
        <time>2021-01-16T14:55:40Z</time>
      </trkpt>
      <trkpt lat="45.05252" lon="5.64081">
        <ele>1273.2</ele>
        <time>2021-01-16T14:55:41Z</time>
      </trkpt>
      <trkpt lat="45.05252" lon="5.64081">
        <ele>1273.2</ele>
        <time>2021-01-16T14:55:42Z</time>
      </trkpt>
      <trkpt lat="45.05252" lon="5.64081">
        <ele>1273.2</ele>
        <time>2021-01-16T14:55:43Z</time>
      </trkpt>
      <trkpt lat="45.05252" lon="5.64081">
        <ele>1273.2</ele>
        <time>2021-01-16T14:55:44Z</time>
      </trkpt>
      <trkpt lat="45.05252" lon="5.64081">
        <ele>1273.2</ele>
        <time>2021-01-16T14:55:45Z</time>
      </trkpt>
      <trkpt lat="45.05252" lon="5.64081">
        <ele>1273.2</ele>
        <time>2021-01-16T14:55:46Z</time>
      </trkpt>
      <trkpt lat="45.05252" lon="5.64081">
        <ele>1273.2</ele>
        <time>2021-01-16T14:55:47Z</time>
      </trkpt>
      <trkpt lat="45.05252" lon="5.64081">
        <ele>1273.2</ele>
        <time>2021-01-16T14:55:48Z</time>
      </trkpt>
      <trkpt lat="45.05252" lon="5.64081">
        <ele>1273.2</ele>
        <time>2021-01-16T14:55:49Z</time>
      </trkpt>
      <trkpt lat="45.05252" lon="5.64081">
        <ele>1273</ele>
        <time>2021-01-16T14:55:50Z</time>
      </trkpt>
      <trkpt lat="45.05252" lon="5.64081">
        <ele>1273</ele>
        <time>2021-01-16T14:55:51Z</time>
      </trkpt>
      <trkpt lat="45.05252" lon="5.64081">
        <ele>1273</ele>
        <time>2021-01-16T14:55:52Z</time>
      </trkpt>
      <trkpt lat="45.05252" lon="5.64081">
        <ele>1272.8</ele>
        <time>2021-01-16T14:55:53Z</time>
      </trkpt>
      <trkpt lat="45.05252" lon="5.64081">
        <ele>1272.8</ele>
        <time>2021-01-16T14:55:54Z</time>
      </trkpt>
      <trkpt lat="45.05252" lon="5.64081">
        <ele>1272.8</ele>
        <time>2021-01-16T14:55:55Z</time>
      </trkpt>
      <trkpt lat="45.05252" lon="5.64081">
        <ele>1273</ele>
        <time>2021-01-16T14:55:56Z</time>
      </trkpt>
      <trkpt lat="45.05252" lon="5.64081">
        <ele>1273</ele>
        <time>2021-01-16T14:55:57Z</time>
      </trkpt>
      <trkpt lat="45.05252" lon="5.64081">
        <ele>1273</ele>
        <time>2021-01-16T14:55:58Z</time>
      </trkpt>
      <trkpt lat="45.05252" lon="5.64081">
        <ele>1273</ele>
        <time>2021-01-16T14:55:59Z</time>
      </trkpt>
      <trkpt lat="45.05252" lon="5.64081">
        <ele>1272.8</ele>
        <time>2021-01-16T14:56:00Z</time>
      </trkpt>
      <trkpt lat="45.05252" lon="5.64081">
        <ele>1272.8</ele>
        <time>2021-01-16T14:56:01Z</time>
      </trkpt>
      <trkpt lat="45.05252" lon="5.64081">
        <ele>1273</ele>
        <time>2021-01-16T14:56:02Z</time>
      </trkpt>
      <trkpt lat="45.05252" lon="5.64081">
        <ele>1273</ele>
        <time>2021-01-16T14:56:03Z</time>
      </trkpt>
      <trkpt lat="45.05252" lon="5.64081">
        <ele>1273</ele>
        <time>2021-01-16T14:56:04Z</time>
      </trkpt>
      <trkpt lat="45.05252" lon="5.64081">
        <ele>1272.8</ele>
        <time>2021-01-16T14:56:05Z</time>
      </trkpt>
      <trkpt lat="45.05252" lon="5.64081">
        <ele>1272.8</ele>
        <time>2021-01-16T14:56:06Z</time>
      </trkpt>
      <trkpt lat="45.05252" lon="5.64081">
        <ele>1272.8</ele>
        <time>2021-01-16T14:56:07Z</time>
      </trkpt>
      <trkpt lat="45.05252" lon="5.64081">
        <ele>1272.8</ele>
        <time>2021-01-16T14:56:08Z</time>
      </trkpt>
      <trkpt lat="45.05252" lon="5.64081">
        <ele>1272.6</ele>
        <time>2021-01-16T14:56:09Z</time>
      </trkpt>
      <trkpt lat="45.05252" lon="5.64081">
        <ele>1272.6</ele>
        <time>2021-01-16T14:56:11Z</time>
      </trkpt>
      <trkpt lat="45.05252" lon="5.64081">
        <ele>1272.8</ele>
        <time>2021-01-16T14:56:12Z</time>
      </trkpt>
      <trkpt lat="45.05252" lon="5.64081">
        <ele>1272.8</ele>
        <time>2021-01-16T14:56:13Z</time>
      </trkpt>
      <trkpt lat="45.05252" lon="5.64081">
        <ele>1273</ele>
        <time>2021-01-16T14:56:14Z</time>
      </trkpt>
      <trkpt lat="45.05252" lon="5.64081">
        <ele>1272.8</ele>
        <time>2021-01-16T14:56:15Z</time>
      </trkpt>
      <trkpt lat="45.05252" lon="5.64081">
        <ele>1273</ele>
        <time>2021-01-16T14:56:16Z</time>
      </trkpt>
      <trkpt lat="45.05252" lon="5.64081">
        <ele>1273</ele>
        <time>2021-01-16T14:56:17Z</time>
      </trkpt>
      <trkpt lat="45.05252" lon="5.64081">
        <ele>1273</ele>
        <time>2021-01-16T14:56:18Z</time>
      </trkpt>
      <trkpt lat="45.05252" lon="5.64081">
        <ele>1272.8</ele>
        <time>2021-01-16T14:56:19Z</time>
      </trkpt>
      <trkpt lat="45.05252" lon="5.64081">
        <ele>1272.8</ele>
        <time>2021-01-16T14:56:20Z</time>
      </trkpt>
      <trkpt lat="45.05252" lon="5.64081">
        <ele>1272.6</ele>
        <time>2021-01-16T14:56:21Z</time>
      </trkpt>
      <trkpt lat="45.05252" lon="5.64081">
        <ele>1272.8</ele>
        <time>2021-01-16T14:56:22Z</time>
      </trkpt>
      <trkpt lat="45.05252" lon="5.64081">
        <ele>1272.8</ele>
        <time>2021-01-16T14:56:23Z</time>
      </trkpt>
      <trkpt lat="45.05252" lon="5.64081">
        <ele>1272.8</ele>
        <time>2021-01-16T14:56:24Z</time>
      </trkpt>
      <trkpt lat="45.05252" lon="5.64081">
        <ele>1272.8</ele>
        <time>2021-01-16T14:56:25Z</time>
      </trkpt>
      <trkpt lat="45.05252" lon="5.64081">
        <ele>1273</ele>
        <time>2021-01-16T14:56:26Z</time>
      </trkpt>
      <trkpt lat="45.05252" lon="5.64081">
        <ele>1273</ele>
        <time>2021-01-16T14:56:27Z</time>
      </trkpt>
      <trkpt lat="45.05252" lon="5.64081">
        <ele>1273</ele>
        <time>2021-01-16T14:56:28Z</time>
      </trkpt>
      <trkpt lat="45.05252" lon="5.64081">
        <ele>1273</ele>
        <time>2021-01-16T14:56:29Z</time>
      </trkpt>
      <trkpt lat="45.05252" lon="5.64081">
        <ele>1273.2</ele>
        <time>2021-01-16T14:56:30Z</time>
      </trkpt>
      <trkpt lat="45.05252" lon="5.64081">
        <ele>1273.2</ele>
        <time>2021-01-16T14:56:31Z</time>
      </trkpt>
      <trkpt lat="45.05252" lon="5.64081">
        <ele>1273.2</ele>
        <time>2021-01-16T14:56:32Z</time>
      </trkpt>
      <trkpt lat="45.05252" lon="5.64081">
        <ele>1273.2</ele>
        <time>2021-01-16T14:56:35Z</time>
      </trkpt>
      <trkpt lat="45.05252" lon="5.64081">
        <ele>1273</ele>
        <time>2021-01-16T14:56:36Z</time>
      </trkpt>
      <trkpt lat="45.05252" lon="5.64081">
        <ele>1273.2</ele>
        <time>2021-01-16T14:56:37Z</time>
      </trkpt>
      <trkpt lat="45.05252" lon="5.64081">
        <ele>1273.2</ele>
        <time>2021-01-16T14:56:38Z</time>
      </trkpt>
      <trkpt lat="45.05252" lon="5.64081">
        <ele>1273.4</ele>
        <time>2021-01-16T14:56:39Z</time>
      </trkpt>
      <trkpt lat="45.05252" lon="5.64081">
        <ele>1273.4</ele>
        <time>2021-01-16T14:56:40Z</time>
      </trkpt>
      <trkpt lat="45.05252" lon="5.64081">
        <ele>1273.4</ele>
        <time>2021-01-16T14:56:41Z</time>
      </trkpt>
      <trkpt lat="45.05252" lon="5.64081">
        <ele>1273.2</ele>
        <time>2021-01-16T14:56:42Z</time>
      </trkpt>
      <trkpt lat="45.05252" lon="5.64081">
        <ele>1273.2</ele>
        <time>2021-01-16T14:56:43Z</time>
      </trkpt>
      <trkpt lat="45.05252" lon="5.64081">
        <ele>1273</ele>
        <time>2021-01-16T14:56:44Z</time>
      </trkpt>
      <trkpt lat="45.05252" lon="5.64081">
        <ele>1273</ele>
        <time>2021-01-16T14:56:45Z</time>
      </trkpt>
      <trkpt lat="45.05252" lon="5.64081">
        <ele>1273</ele>
        <time>2021-01-16T14:56:46Z</time>
      </trkpt>
      <trkpt lat="45.05252" lon="5.64081">
        <ele>1273</ele>
        <time>2021-01-16T14:56:47Z</time>
      </trkpt>
      <trkpt lat="45.05252" lon="5.64081">
        <ele>1272.8</ele>
        <time>2021-01-16T14:56:48Z</time>
      </trkpt>
      <trkpt lat="45.05252" lon="5.64081">
        <ele>1273</ele>
        <time>2021-01-16T14:56:49Z</time>
      </trkpt>
      <trkpt lat="45.05252" lon="5.64081">
        <ele>1273</ele>
        <time>2021-01-16T14:56:50Z</time>
      </trkpt>
      <trkpt lat="45.05252" lon="5.64081">
        <ele>1273</ele>
        <time>2021-01-16T14:56:51Z</time>
      </trkpt>
      <trkpt lat="45.05252" lon="5.64081">
        <ele>1273</ele>
        <time>2021-01-16T14:56:52Z</time>
      </trkpt>
      <trkpt lat="45.05252" lon="5.64081">
        <ele>1273</ele>
        <time>2021-01-16T14:56:53Z</time>
      </trkpt>
      <trkpt lat="45.05252" lon="5.64081">
        <ele>1273.2</ele>
        <time>2021-01-16T14:56:54Z</time>
      </trkpt>
      <trkpt lat="45.05252" lon="5.64081">
        <ele>1273.4</ele>
        <time>2021-01-16T14:56:55Z</time>
      </trkpt>
      <trkpt lat="45.05252" lon="5.64081">
        <ele>1273.4</ele>
        <time>2021-01-16T14:56:56Z</time>
      </trkpt>
      <trkpt lat="45.05252" lon="5.64081">
        <ele>1273.4</ele>
        <time>2021-01-16T14:56:57Z</time>
      </trkpt>
      <trkpt lat="45.05252" lon="5.64081">
        <ele>1273.2</ele>
        <time>2021-01-16T14:56:58Z</time>
      </trkpt>
      <trkpt lat="45.05252" lon="5.64081">
        <ele>1273.2</ele>
        <time>2021-01-16T14:56:59Z</time>
      </trkpt>
      <trkpt lat="45.05252" lon="5.64081">
        <ele>1273.2</ele>
        <time>2021-01-16T14:57:00Z</time>
      </trkpt>
      <trkpt lat="45.05252" lon="5.64081">
        <ele>1273.2</ele>
        <time>2021-01-16T14:57:01Z</time>
      </trkpt>
      <trkpt lat="45.05252" lon="5.64081">
        <ele>1273.2</ele>
        <time>2021-01-16T14:57:02Z</time>
      </trkpt>
      <trkpt lat="45.05252" lon="5.64081">
        <ele>1273.2</ele>
        <time>2021-01-16T14:57:03Z</time>
      </trkpt>
      <trkpt lat="45.05252" lon="5.64081">
        <ele>1273.2</ele>
        <time>2021-01-16T14:57:04Z</time>
      </trkpt>
      <trkpt lat="45.05252" lon="5.64081">
        <ele>1273.2</ele>
        <time>2021-01-16T14:57:05Z</time>
      </trkpt>
      <trkpt lat="45.05252" lon="5.64081">
        <ele>1273.2</ele>
        <time>2021-01-16T14:57:06Z</time>
      </trkpt>
      <trkpt lat="45.05252" lon="5.64081">
        <ele>1273</ele>
        <time>2021-01-16T14:57:07Z</time>
      </trkpt>
      <trkpt lat="45.05252" lon="5.64081">
        <ele>1273</ele>
        <time>2021-01-16T14:57:08Z</time>
      </trkpt>
      <trkpt lat="45.05252" lon="5.64081">
        <ele>1273</ele>
        <time>2021-01-16T14:57:09Z</time>
      </trkpt>
      <trkpt lat="45.05252" lon="5.64081">
        <ele>1273</ele>
        <time>2021-01-16T14:57:10Z</time>
      </trkpt>
      <trkpt lat="45.05252" lon="5.64081">
        <ele>1273.2</ele>
        <time>2021-01-16T14:57:11Z</time>
      </trkpt>
      <trkpt lat="45.05252" lon="5.64081">
        <ele>1273.2</ele>
        <time>2021-01-16T14:57:12Z</time>
      </trkpt>
      <trkpt lat="45.05252" lon="5.64081">
        <ele>1273.2</ele>
        <time>2021-01-16T14:57:13Z</time>
      </trkpt>
      <trkpt lat="45.05252" lon="5.64081">
        <ele>1273.2</ele>
        <time>2021-01-16T14:57:14Z</time>
      </trkpt>
      <trkpt lat="45.05252" lon="5.64081">
        <ele>1273.4</ele>
        <time>2021-01-16T14:57:15Z</time>
      </trkpt>
      <trkpt lat="45.05252" lon="5.64081">
        <ele>1273.2</ele>
        <time>2021-01-16T14:57:16Z</time>
      </trkpt>
      <trkpt lat="45.05252" lon="5.64081">
        <ele>1273.2</ele>
        <time>2021-01-16T14:57:17Z</time>
      </trkpt>
      <trkpt lat="45.05252" lon="5.64081">
        <ele>1273.2</ele>
        <time>2021-01-16T14:57:18Z</time>
      </trkpt>
      <trkpt lat="45.05252" lon="5.64081">
        <ele>1273</ele>
        <time>2021-01-16T14:57:19Z</time>
      </trkpt>
      <trkpt lat="45.05252" lon="5.64081">
        <ele>1273</ele>
        <time>2021-01-16T14:57:20Z</time>
      </trkpt>
      <trkpt lat="45.05252" lon="5.64081">
        <ele>1273.2</ele>
        <time>2021-01-16T14:57:21Z</time>
      </trkpt>
      <trkpt lat="45.05252" lon="5.64081">
        <ele>1273.2</ele>
        <time>2021-01-16T14:57:22Z</time>
      </trkpt>
      <trkpt lat="45.05252" lon="5.64081">
        <ele>1273</ele>
        <time>2021-01-16T14:57:23Z</time>
      </trkpt>
      <trkpt lat="45.05252" lon="5.64081">
        <ele>1272.8</ele>
        <time>2021-01-16T14:57:24Z</time>
      </trkpt>
      <trkpt lat="45.05252" lon="5.64081">
        <ele>1272.6</ele>
        <time>2021-01-16T14:57:25Z</time>
      </trkpt>
      <trkpt lat="45.05252" lon="5.64081">
        <ele>1272.6</ele>
        <time>2021-01-16T14:57:26Z</time>
      </trkpt>
      <trkpt lat="45.05252" lon="5.64081">
        <ele>1272.2</ele>
        <time>2021-01-16T14:57:27Z</time>
      </trkpt>
      <trkpt lat="45.05252" lon="5.64081">
        <ele>1272.6</ele>
        <time>2021-01-16T14:57:28Z</time>
      </trkpt>
      <trkpt lat="45.05252" lon="5.64081">
        <ele>1272.6</ele>
        <time>2021-01-16T14:57:29Z</time>
      </trkpt>
      <trkpt lat="45.05252" lon="5.64081">
        <ele>1272.8</ele>
        <time>2021-01-16T14:57:30Z</time>
      </trkpt>
      <trkpt lat="45.05252" lon="5.64081">
        <ele>1273</ele>
        <time>2021-01-16T14:57:31Z</time>
      </trkpt>
      <trkpt lat="45.05252" lon="5.64081">
        <ele>1273</ele>
        <time>2021-01-16T14:57:32Z</time>
      </trkpt>
      <trkpt lat="45.05252" lon="5.64081">
        <ele>1273</ele>
        <time>2021-01-16T14:57:33Z</time>
      </trkpt>
      <trkpt lat="45.05252" lon="5.64081">
        <ele>1273.2</ele>
        <time>2021-01-16T14:57:34Z</time>
      </trkpt>
      <trkpt lat="45.05252" lon="5.64081">
        <ele>1273.2</ele>
        <time>2021-01-16T14:57:35Z</time>
      </trkpt>
      <trkpt lat="45.05252" lon="5.64081">
        <ele>1272.8</ele>
        <time>2021-01-16T14:57:36Z</time>
      </trkpt>
      <trkpt lat="45.05252" lon="5.64081">
        <ele>1272.8</ele>
        <time>2021-01-16T14:57:37Z</time>
      </trkpt>
      <trkpt lat="45.05252" lon="5.64081">
        <ele>1272.8</ele>
        <time>2021-01-16T14:57:38Z</time>
      </trkpt>
      <trkpt lat="45.05252" lon="5.64081">
        <ele>1273</ele>
        <time>2021-01-16T14:57:39Z</time>
      </trkpt>
      <trkpt lat="45.05252" lon="5.64081">
        <ele>1272.8</ele>
        <time>2021-01-16T14:57:40Z</time>
      </trkpt>
      <trkpt lat="45.05252" lon="5.64081">
        <ele>1272.6</ele>
        <time>2021-01-16T14:57:41Z</time>
      </trkpt>
      <trkpt lat="45.05252" lon="5.64081">
        <ele>1272.6</ele>
        <time>2021-01-16T14:57:42Z</time>
      </trkpt>
      <trkpt lat="45.05252" lon="5.64081">
        <ele>1272.6</ele>
        <time>2021-01-16T14:57:43Z</time>
      </trkpt>
      <trkpt lat="45.05252" lon="5.64081">
        <ele>1272.6</ele>
        <time>2021-01-16T14:57:44Z</time>
      </trkpt>
      <trkpt lat="45.05252" lon="5.64081">
        <ele>1272.6</ele>
        <time>2021-01-16T14:57:45Z</time>
      </trkpt>
      <trkpt lat="45.05252" lon="5.64081">
        <ele>1272.6</ele>
        <time>2021-01-16T14:57:46Z</time>
      </trkpt>
      <trkpt lat="45.05252" lon="5.64081">
        <ele>1272.6</ele>
        <time>2021-01-16T14:57:47Z</time>
      </trkpt>
      <trkpt lat="45.05252" lon="5.64081">
        <ele>1272.6</ele>
        <time>2021-01-16T14:57:48Z</time>
      </trkpt>
      <trkpt lat="45.05252" lon="5.64081">
        <ele>1272.6</ele>
        <time>2021-01-16T14:57:49Z</time>
      </trkpt>
      <trkpt lat="45.05252" lon="5.64081">
        <ele>1272.4</ele>
        <time>2021-01-16T14:57:50Z</time>
      </trkpt>
      <trkpt lat="45.05252" lon="5.64081">
        <ele>1272.4</ele>
        <time>2021-01-16T14:57:51Z</time>
      </trkpt>
      <trkpt lat="45.05252" lon="5.64081">
        <ele>1272.4</ele>
        <time>2021-01-16T14:57:52Z</time>
      </trkpt>
      <trkpt lat="45.05252" lon="5.64081">
        <ele>1272.4</ele>
        <time>2021-01-16T14:57:53Z</time>
      </trkpt>
      <trkpt lat="45.05252" lon="5.64081">
        <ele>1272.6</ele>
        <time>2021-01-16T14:57:54Z</time>
      </trkpt>
      <trkpt lat="45.05252" lon="5.64081">
        <ele>1272.6</ele>
        <time>2021-01-16T14:57:55Z</time>
      </trkpt>
      <trkpt lat="45.05252" lon="5.64081">
        <ele>1272.4</ele>
        <time>2021-01-16T14:57:56Z</time>
      </trkpt>
      <trkpt lat="45.05252" lon="5.64081">
        <ele>1272.4</ele>
        <time>2021-01-16T14:57:57Z</time>
      </trkpt>
      <trkpt lat="45.05252" lon="5.64081">
        <ele>1272.4</ele>
        <time>2021-01-16T14:57:58Z</time>
      </trkpt>
      <trkpt lat="45.05252" lon="5.64081">
        <ele>1272.2</ele>
        <time>2021-01-16T14:57:59Z</time>
      </trkpt>
      <trkpt lat="45.05252" lon="5.64081">
        <ele>1272.6</ele>
        <time>2021-01-16T14:58:00Z</time>
      </trkpt>
      <trkpt lat="45.05252" lon="5.64081">
        <ele>1272.6</ele>
        <time>2021-01-16T14:58:01Z</time>
      </trkpt>
      <trkpt lat="45.05252" lon="5.64081">
        <ele>1272.6</ele>
        <time>2021-01-16T14:58:02Z</time>
      </trkpt>
      <trkpt lat="45.05252" lon="5.64081">
        <ele>1272.6</ele>
        <time>2021-01-16T14:58:03Z</time>
      </trkpt>
      <trkpt lat="45.05252" lon="5.64081">
        <ele>1272.6</ele>
        <time>2021-01-16T14:58:04Z</time>
      </trkpt>
      <trkpt lat="45.05252" lon="5.64081">
        <ele>1272.4</ele>
        <time>2021-01-16T14:58:05Z</time>
      </trkpt>
      <trkpt lat="45.05252" lon="5.64081">
        <ele>1272.4</ele>
        <time>2021-01-16T14:58:06Z</time>
      </trkpt>
      <trkpt lat="45.05252" lon="5.64081">
        <ele>1272.2</ele>
        <time>2021-01-16T14:58:07Z</time>
      </trkpt>
      <trkpt lat="45.05252" lon="5.64081">
        <ele>1272.2</ele>
        <time>2021-01-16T14:58:08Z</time>
      </trkpt>
      <trkpt lat="45.05252" lon="5.64081">
        <ele>1272</ele>
        <time>2021-01-16T14:58:09Z</time>
      </trkpt>
      <trkpt lat="45.05252" lon="5.64081">
        <ele>1271.8</ele>
        <time>2021-01-16T14:58:10Z</time>
      </trkpt>
      <trkpt lat="45.05252" lon="5.64081">
        <ele>1272</ele>
        <time>2021-01-16T14:58:11Z</time>
      </trkpt>
      <trkpt lat="45.05252" lon="5.64081">
        <ele>1272.2</ele>
        <time>2021-01-16T14:58:12Z</time>
      </trkpt>
      <trkpt lat="45.05252" lon="5.64081">
        <ele>1272.4</ele>
        <time>2021-01-16T14:58:13Z</time>
      </trkpt>
      <trkpt lat="45.05252" lon="5.64081">
        <ele>1272.4</ele>
        <time>2021-01-16T14:58:14Z</time>
      </trkpt>
      <trkpt lat="45.05252" lon="5.64081">
        <ele>1272.4</ele>
        <time>2021-01-16T14:58:15Z</time>
      </trkpt>
      <trkpt lat="45.05252" lon="5.64081">
        <ele>1272.4</ele>
        <time>2021-01-16T14:58:16Z</time>
      </trkpt>
      <trkpt lat="45.05252" lon="5.64081">
        <ele>1272.4</ele>
        <time>2021-01-16T14:58:17Z</time>
      </trkpt>
      <trkpt lat="45.05252" lon="5.64081">
        <ele>1272.4</ele>
        <time>2021-01-16T14:58:18Z</time>
      </trkpt>
      <trkpt lat="45.05252" lon="5.64081">
        <ele>1272.4</ele>
        <time>2021-01-16T14:58:19Z</time>
      </trkpt>
      <trkpt lat="45.05252" lon="5.64081">
        <ele>1272.4</ele>
        <time>2021-01-16T14:58:20Z</time>
      </trkpt>
      <trkpt lat="45.05252" lon="5.64081">
        <ele>1272.6</ele>
        <time>2021-01-16T14:58:21Z</time>
      </trkpt>
      <trkpt lat="45.05252" lon="5.64081">
        <ele>1272.6</ele>
        <time>2021-01-16T14:58:22Z</time>
      </trkpt>
      <trkpt lat="45.05252" lon="5.64081">
        <ele>1272.6</ele>
        <time>2021-01-16T14:58:23Z</time>
      </trkpt>
      <trkpt lat="45.05252" lon="5.64081">
        <ele>1272.6</ele>
        <time>2021-01-16T14:58:24Z</time>
      </trkpt>
      <trkpt lat="45.05252" lon="5.64081">
        <ele>1272.6</ele>
        <time>2021-01-16T14:58:25Z</time>
      </trkpt>
      <trkpt lat="45.05252" lon="5.64081">
        <ele>1272.4</ele>
        <time>2021-01-16T14:58:26Z</time>
      </trkpt>
      <trkpt lat="45.05252" lon="5.64081">
        <ele>1272.2</ele>
        <time>2021-01-16T14:58:27Z</time>
      </trkpt>
      <trkpt lat="45.05252" lon="5.64081">
        <ele>1272.4</ele>
        <time>2021-01-16T14:58:28Z</time>
      </trkpt>
      <trkpt lat="45.05252" lon="5.64081">
        <ele>1272</ele>
        <time>2021-01-16T14:58:29Z</time>
      </trkpt>
      <trkpt lat="45.05252" lon="5.64081">
        <ele>1271.6</ele>
        <time>2021-01-16T14:58:30Z</time>
      </trkpt>
      <trkpt lat="45.05252" lon="5.64081">
        <ele>1271.2</ele>
        <time>2021-01-16T14:58:31Z</time>
      </trkpt>
      <trkpt lat="45.0525" lon="5.64084">
        <ele>1270.8</ele>
        <time>2021-01-16T14:58:32Z</time>
      </trkpt>
      <trkpt lat="45.0525" lon="5.64084">
        <ele>1270.4</ele>
        <time>2021-01-16T14:58:33Z</time>
      </trkpt>
      <trkpt lat="45.05249" lon="5.64087">
        <ele>1270.2</ele>
        <time>2021-01-16T14:58:34Z</time>
      </trkpt>
      <trkpt lat="45.05249" lon="5.64087">
        <ele>1269.6</ele>
        <time>2021-01-16T14:58:35Z</time>
      </trkpt>
      <trkpt lat="45.05248" lon="5.64091">
        <ele>1269.4</ele>
        <time>2021-01-16T14:58:36Z</time>
      </trkpt>
      <trkpt lat="45.05248" lon="5.64091">
        <ele>1268.8</ele>
        <time>2021-01-16T14:58:37Z</time>
      </trkpt>
      <trkpt lat="45.05247" lon="5.64094">
        <ele>1268.2</ele>
        <time>2021-01-16T14:58:38Z</time>
      </trkpt>
      <trkpt lat="45.05247" lon="5.64094">
        <ele>1267.8</ele>
        <time>2021-01-16T14:58:39Z</time>
      </trkpt>
      <trkpt lat="45.05244" lon="5.64096">
        <ele>1267.2</ele>
        <time>2021-01-16T14:58:40Z</time>
      </trkpt>
      <trkpt lat="45.05244" lon="5.64096">
        <ele>1267</ele>
        <time>2021-01-16T14:58:41Z</time>
      </trkpt>
      <trkpt lat="45.05244" lon="5.64096">
        <ele>1266.4</ele>
        <time>2021-01-16T14:58:42Z</time>
      </trkpt>
      <trkpt lat="45.05242" lon="5.64097">
        <ele>1266</ele>
        <time>2021-01-16T14:58:43Z</time>
      </trkpt>
      <trkpt lat="45.05242" lon="5.64097">
        <ele>1265.4</ele>
        <time>2021-01-16T14:58:44Z</time>
      </trkpt>
      <trkpt lat="45.05239" lon="5.64097">
        <ele>1265.2</ele>
        <time>2021-01-16T14:58:45Z</time>
      </trkpt>
      <trkpt lat="45.05239" lon="5.64097">
        <ele>1264.2</ele>
        <time>2021-01-16T14:58:46Z</time>
      </trkpt>
      <trkpt lat="45.05237" lon="5.64095">
        <ele>1263.8</ele>
        <time>2021-01-16T14:58:47Z</time>
      </trkpt>
      <trkpt lat="45.05237" lon="5.64095">
        <ele>1263.4</ele>
        <time>2021-01-16T14:58:48Z</time>
      </trkpt>
      <trkpt lat="45.05237" lon="5.64095">
        <ele>1262.6</ele>
        <time>2021-01-16T14:58:49Z</time>
      </trkpt>
      <trkpt lat="45.05234" lon="5.64095">
        <ele>1262</ele>
        <time>2021-01-16T14:58:50Z</time>
      </trkpt>
      <trkpt lat="45.05234" lon="5.64095">
        <ele>1261.6</ele>
        <time>2021-01-16T14:58:51Z</time>
      </trkpt>
      <trkpt lat="45.05234" lon="5.64095">
        <ele>1261</ele>
        <time>2021-01-16T14:58:52Z</time>
      </trkpt>
      <trkpt lat="45.05231" lon="5.64095">
        <ele>1260.4</ele>
        <time>2021-01-16T14:58:53Z</time>
      </trkpt>
      <trkpt lat="45.05231" lon="5.64095">
        <ele>1259.4</ele>
        <time>2021-01-16T14:58:54Z</time>
      </trkpt>
      <trkpt lat="45.05229" lon="5.64094">
        <ele>1259</ele>
        <time>2021-01-16T14:58:55Z</time>
      </trkpt>
      <trkpt lat="45.05229" lon="5.64094">
        <ele>1259</ele>
        <time>2021-01-16T14:58:56Z</time>
      </trkpt>
      <trkpt lat="45.05229" lon="5.64094">
        <ele>1258</ele>
        <time>2021-01-16T14:58:57Z</time>
      </trkpt>
      <trkpt lat="45.05229" lon="5.64094">
        <ele>1257.2</ele>
        <time>2021-01-16T14:58:58Z</time>
      </trkpt>
      <trkpt lat="45.05229" lon="5.64094">
        <ele>1257</ele>
        <time>2021-01-16T14:58:59Z</time>
      </trkpt>
      <trkpt lat="45.05227" lon="5.64093">
        <ele>1256.8</ele>
        <time>2021-01-16T14:59:00Z</time>
      </trkpt>
      <trkpt lat="45.05227" lon="5.64093">
        <ele>1256.8</ele>
        <time>2021-01-16T14:59:01Z</time>
      </trkpt>
      <trkpt lat="45.05227" lon="5.64093">
        <ele>1256.4</ele>
        <time>2021-01-16T14:59:02Z</time>
      </trkpt>
      <trkpt lat="45.05227" lon="5.64093">
        <ele>1256.2</ele>
        <time>2021-01-16T14:59:03Z</time>
      </trkpt>
      <trkpt lat="45.05227" lon="5.64093">
        <ele>1255.8</ele>
        <time>2021-01-16T14:59:04Z</time>
      </trkpt>
      <trkpt lat="45.05226" lon="5.64096">
        <ele>1255.6</ele>
        <time>2021-01-16T14:59:05Z</time>
      </trkpt>
      <trkpt lat="45.05226" lon="5.64096">
        <ele>1255.6</ele>
        <time>2021-01-16T14:59:06Z</time>
      </trkpt>
      <trkpt lat="45.05226" lon="5.64096">
        <ele>1254.8</ele>
        <time>2021-01-16T14:59:07Z</time>
      </trkpt>
      <trkpt lat="45.05226" lon="5.64096">
        <ele>1254.2</ele>
        <time>2021-01-16T14:59:08Z</time>
      </trkpt>
      <trkpt lat="45.05224" lon="5.64098">
        <ele>1254.2</ele>
        <time>2021-01-16T14:59:09Z</time>
      </trkpt>
      <trkpt lat="45.05224" lon="5.64098">
        <ele>1254</ele>
        <time>2021-01-16T14:59:10Z</time>
      </trkpt>
      <trkpt lat="45.05222" lon="5.64098">
        <ele>1253.6</ele>
        <time>2021-01-16T14:59:11Z</time>
      </trkpt>
      <trkpt lat="45.05222" lon="5.64098">
        <ele>1253.2</ele>
        <time>2021-01-16T14:59:12Z</time>
      </trkpt>
      <trkpt lat="45.0522" lon="5.64098">
        <ele>1253</ele>
        <time>2021-01-16T14:59:13Z</time>
      </trkpt>
      <trkpt lat="45.0522" lon="5.64098">
        <ele>1252.6</ele>
        <time>2021-01-16T14:59:14Z</time>
      </trkpt>
      <trkpt lat="45.0522" lon="5.64098">
        <ele>1252.2</ele>
        <time>2021-01-16T14:59:15Z</time>
      </trkpt>
      <trkpt lat="45.0522" lon="5.64102">
        <ele>1251.4</ele>
        <time>2021-01-16T14:59:16Z</time>
      </trkpt>
      <trkpt lat="45.0522" lon="5.64102">
        <ele>1250.4</ele>
        <time>2021-01-16T14:59:17Z</time>
      </trkpt>
      <trkpt lat="45.0522" lon="5.64106">
        <ele>1249.8</ele>
        <time>2021-01-16T14:59:18Z</time>
      </trkpt>
      <trkpt lat="45.0522" lon="5.64109">
        <ele>1249.4</ele>
        <time>2021-01-16T14:59:19Z</time>
      </trkpt>
      <trkpt lat="45.0522" lon="5.64109">
        <ele>1248.8</ele>
        <time>2021-01-16T14:59:20Z</time>
      </trkpt>
      <trkpt lat="45.05218" lon="5.64113">
        <ele>1248.2</ele>
        <time>2021-01-16T14:59:21Z</time>
      </trkpt>
      <trkpt lat="45.05218" lon="5.64113">
        <ele>1247.6</ele>
        <time>2021-01-16T14:59:22Z</time>
      </trkpt>
      <trkpt lat="45.05217" lon="5.64116">
        <ele>1246.8</ele>
        <time>2021-01-16T14:59:23Z</time>
      </trkpt>
      <trkpt lat="45.05217" lon="5.64116">
        <ele>1246.4</ele>
        <time>2021-01-16T14:59:24Z</time>
      </trkpt>
      <trkpt lat="45.05216" lon="5.6412">
        <ele>1245.8</ele>
        <time>2021-01-16T14:59:25Z</time>
      </trkpt>
      <trkpt lat="45.05216" lon="5.6412">
        <ele>1245</ele>
        <time>2021-01-16T14:59:26Z</time>
      </trkpt>
      <trkpt lat="45.05216" lon="5.64123">
        <ele>1244.4</ele>
        <time>2021-01-16T14:59:27Z</time>
      </trkpt>
      <trkpt lat="45.05216" lon="5.64123">
        <ele>1243.8</ele>
        <time>2021-01-16T14:59:28Z</time>
      </trkpt>
      <trkpt lat="45.05215" lon="5.64126">
        <ele>1243.4</ele>
        <time>2021-01-16T14:59:29Z</time>
      </trkpt>
      <trkpt lat="45.05215" lon="5.64126">
        <ele>1243</ele>
        <time>2021-01-16T14:59:30Z</time>
      </trkpt>
      <trkpt lat="45.05214" lon="5.64129">
        <ele>1242.6</ele>
        <time>2021-01-16T14:59:31Z</time>
      </trkpt>
      <trkpt lat="45.05214" lon="5.6413">
        <ele>1242</ele>
        <time>2021-01-16T14:59:32Z</time>
      </trkpt>
      <trkpt lat="45.05215" lon="5.64131">
        <ele>1241.8</ele>
        <time>2021-01-16T14:59:33Z</time>
      </trkpt>
      <trkpt lat="45.05215" lon="5.64131">
        <ele>1241</ele>
        <time>2021-01-16T14:59:34Z</time>
      </trkpt>
      <trkpt lat="45.05215" lon="5.64132">
        <ele>1240.6</ele>
        <time>2021-01-16T14:59:35Z</time>
      </trkpt>
      <trkpt lat="45.05216" lon="5.64133">
        <ele>1240</ele>
        <time>2021-01-16T14:59:36Z</time>
      </trkpt>
      <trkpt lat="45.05216" lon="5.64134">
        <ele>1239.6</ele>
        <time>2021-01-16T14:59:37Z</time>
      </trkpt>
      <trkpt lat="45.05216" lon="5.64134">
        <ele>1239.4</ele>
        <time>2021-01-16T14:59:38Z</time>
      </trkpt>
      <trkpt lat="45.05216" lon="5.64134">
        <ele>1239.2</ele>
        <time>2021-01-16T14:59:39Z</time>
      </trkpt>
      <trkpt lat="45.05215" lon="5.64137">
        <ele>1239.2</ele>
        <time>2021-01-16T14:59:40Z</time>
      </trkpt>
      <trkpt lat="45.05215" lon="5.64137">
        <ele>1239.2</ele>
        <time>2021-01-16T14:59:41Z</time>
      </trkpt>
      <trkpt lat="45.05215" lon="5.64137">
        <ele>1239.4</ele>
        <time>2021-01-16T14:59:42Z</time>
      </trkpt>
      <trkpt lat="45.05215" lon="5.64137">
        <ele>1239.4</ele>
        <time>2021-01-16T14:59:43Z</time>
      </trkpt>
      <trkpt lat="45.05215" lon="5.64137">
        <ele>1239.6</ele>
        <time>2021-01-16T14:59:44Z</time>
      </trkpt>
      <trkpt lat="45.05215" lon="5.64137">
        <ele>1239.6</ele>
        <time>2021-01-16T14:59:45Z</time>
      </trkpt>
      <trkpt lat="45.05215" lon="5.64137">
        <ele>1239.6</ele>
        <time>2021-01-16T14:59:46Z</time>
      </trkpt>
      <trkpt lat="45.05215" lon="5.64137">
        <ele>1239.6</ele>
        <time>2021-01-16T14:59:47Z</time>
      </trkpt>
      <trkpt lat="45.05215" lon="5.64137">
        <ele>1239.4</ele>
        <time>2021-01-16T14:59:48Z</time>
      </trkpt>
      <trkpt lat="45.05215" lon="5.64137">
        <ele>1239.6</ele>
        <time>2021-01-16T14:59:49Z</time>
      </trkpt>
      <trkpt lat="45.05215" lon="5.64137">
        <ele>1239.4</ele>
        <time>2021-01-16T14:59:50Z</time>
      </trkpt>
      <trkpt lat="45.05215" lon="5.64137">
        <ele>1239.4</ele>
        <time>2021-01-16T14:59:51Z</time>
      </trkpt>
      <trkpt lat="45.05215" lon="5.64137">
        <ele>1239.4</ele>
        <time>2021-01-16T14:59:52Z</time>
      </trkpt>
      <trkpt lat="45.05215" lon="5.64137">
        <ele>1239.2</ele>
        <time>2021-01-16T14:59:53Z</time>
      </trkpt>
      <trkpt lat="45.05215" lon="5.64137">
        <ele>1239.2</ele>
        <time>2021-01-16T14:59:54Z</time>
      </trkpt>
      <trkpt lat="45.05215" lon="5.64137">
        <ele>1239.4</ele>
        <time>2021-01-16T14:59:55Z</time>
      </trkpt>
      <trkpt lat="45.05215" lon="5.64137">
        <ele>1239.4</ele>
        <time>2021-01-16T14:59:56Z</time>
      </trkpt>
      <trkpt lat="45.05215" lon="5.64137">
        <ele>1239.6</ele>
        <time>2021-01-16T14:59:57Z</time>
      </trkpt>
      <trkpt lat="45.05215" lon="5.64137">
        <ele>1239.4</ele>
        <time>2021-01-16T14:59:58Z</time>
      </trkpt>
      <trkpt lat="45.05215" lon="5.64137">
        <ele>1239.6</ele>
        <time>2021-01-16T14:59:59Z</time>
      </trkpt>
      <trkpt lat="45.05215" lon="5.64137">
        <ele>1240</ele>
        <time>2021-01-16T15:00:01Z</time>
      </trkpt>
      <trkpt lat="45.05215" lon="5.64137">
        <ele>1240</ele>
        <time>2021-01-16T15:00:02Z</time>
      </trkpt>
      <trkpt lat="45.05215" lon="5.64137">
        <ele>1240</ele>
        <time>2021-01-16T15:00:03Z</time>
      </trkpt>
      <trkpt lat="45.05215" lon="5.64137">
        <ele>1240</ele>
        <time>2021-01-16T15:00:04Z</time>
      </trkpt>
      <trkpt lat="45.05215" lon="5.64137">
        <ele>1240</ele>
        <time>2021-01-16T15:00:05Z</time>
      </trkpt>
      <trkpt lat="45.05216" lon="5.64134">
        <ele>1240</ele>
        <time>2021-01-16T15:00:06Z</time>
      </trkpt>
      <trkpt lat="45.05216" lon="5.64134">
        <ele>1240</ele>
        <time>2021-01-16T15:00:07Z</time>
      </trkpt>
      <trkpt lat="45.05216" lon="5.64134">
        <ele>1240.2</ele>
        <time>2021-01-16T15:00:08Z</time>
      </trkpt>
      <trkpt lat="45.05216" lon="5.64134">
        <ele>1240</ele>
        <time>2021-01-16T15:00:09Z</time>
      </trkpt>
      <trkpt lat="45.05216" lon="5.64134">
        <ele>1240</ele>
        <time>2021-01-16T15:00:10Z</time>
      </trkpt>
      <trkpt lat="45.05217" lon="5.64134">
        <ele>1240</ele>
        <time>2021-01-16T15:00:11Z</time>
      </trkpt>
      <trkpt lat="45.05217" lon="5.64134">
        <ele>1240</ele>
        <time>2021-01-16T15:00:12Z</time>
      </trkpt>
      <trkpt lat="45.05217" lon="5.64133">
        <ele>1240.2</ele>
        <time>2021-01-16T15:00:13Z</time>
      </trkpt>
      <trkpt lat="45.05217" lon="5.64133">
        <ele>1240.2</ele>
        <time>2021-01-16T15:00:14Z</time>
      </trkpt>
      <trkpt lat="45.05217" lon="5.64133">
        <ele>1240</ele>
        <time>2021-01-16T15:00:15Z</time>
      </trkpt>
      <trkpt lat="45.05217" lon="5.64133">
        <ele>1240.2</ele>
        <time>2021-01-16T15:00:16Z</time>
      </trkpt>
      <trkpt lat="45.05218" lon="5.64133">
        <ele>1240.4</ele>
        <time>2021-01-16T15:00:17Z</time>
      </trkpt>
      <trkpt lat="45.05218" lon="5.64133">
        <ele>1240.2</ele>
        <time>2021-01-16T15:00:18Z</time>
      </trkpt>
      <trkpt lat="45.05218" lon="5.64132">
        <ele>1240.2</ele>
        <time>2021-01-16T15:00:19Z</time>
      </trkpt>
      <trkpt lat="45.05218" lon="5.64132">
        <ele>1240.2</ele>
        <time>2021-01-16T15:00:20Z</time>
      </trkpt>
      <trkpt lat="45.05218" lon="5.64132">
        <ele>1240.2</ele>
        <time>2021-01-16T15:00:21Z</time>
      </trkpt>
      <trkpt lat="45.05219" lon="5.64132">
        <ele>1240.2</ele>
        <time>2021-01-16T15:00:22Z</time>
      </trkpt>
      <trkpt lat="45.05219" lon="5.64132">
        <ele>1240</ele>
        <time>2021-01-16T15:00:23Z</time>
      </trkpt>
      <trkpt lat="45.05219" lon="5.64131">
        <ele>1240.2</ele>
        <time>2021-01-16T15:00:24Z</time>
      </trkpt>
      <trkpt lat="45.05219" lon="5.64131">
        <ele>1240</ele>
        <time>2021-01-16T15:00:25Z</time>
      </trkpt>
      <trkpt lat="45.05219" lon="5.64131">
        <ele>1240</ele>
        <time>2021-01-16T15:00:26Z</time>
      </trkpt>
      <trkpt lat="45.05219" lon="5.64131">
        <ele>1240</ele>
        <time>2021-01-16T15:00:27Z</time>
      </trkpt>
      <trkpt lat="45.0522" lon="5.64131">
        <ele>1240</ele>
        <time>2021-01-16T15:00:28Z</time>
      </trkpt>
      <trkpt lat="45.0522" lon="5.64131">
        <ele>1240</ele>
        <time>2021-01-16T15:00:29Z</time>
      </trkpt>
      <trkpt lat="45.0522" lon="5.6413">
        <ele>1240</ele>
        <time>2021-01-16T15:00:30Z</time>
      </trkpt>
      <trkpt lat="45.0522" lon="5.6413">
        <ele>1239.8</ele>
        <time>2021-01-16T15:00:31Z</time>
      </trkpt>
      <trkpt lat="45.0522" lon="5.6413">
        <ele>1240</ele>
        <time>2021-01-16T15:00:32Z</time>
      </trkpt>
      <trkpt lat="45.0522" lon="5.6413">
        <ele>1240</ele>
        <time>2021-01-16T15:00:33Z</time>
      </trkpt>
      <trkpt lat="45.05221" lon="5.6413">
        <ele>1240</ele>
        <time>2021-01-16T15:00:34Z</time>
      </trkpt>
      <trkpt lat="45.05221" lon="5.6413">
        <ele>1240</ele>
        <time>2021-01-16T15:00:35Z</time>
      </trkpt>
      <trkpt lat="45.05221" lon="5.64129">
        <ele>1240</ele>
        <time>2021-01-16T15:00:36Z</time>
      </trkpt>
      <trkpt lat="45.05221" lon="5.64129">
        <ele>1240</ele>
        <time>2021-01-16T15:00:37Z</time>
      </trkpt>
      <trkpt lat="45.05221" lon="5.64129">
        <ele>1240</ele>
        <time>2021-01-16T15:00:38Z</time>
      </trkpt>
      <trkpt lat="45.05221" lon="5.64129">
        <ele>1240</ele>
        <time>2021-01-16T15:00:39Z</time>
      </trkpt>
      <trkpt lat="45.05221" lon="5.64129">
        <ele>1240</ele>
        <time>2021-01-16T15:00:40Z</time>
      </trkpt>
      <trkpt lat="45.05221" lon="5.64129">
        <ele>1240</ele>
        <time>2021-01-16T15:00:41Z</time>
      </trkpt>
      <trkpt lat="45.05221" lon="5.64129">
        <ele>1239.8</ele>
        <time>2021-01-16T15:00:42Z</time>
      </trkpt>
      <trkpt lat="45.05221" lon="5.64129">
        <ele>1240</ele>
        <time>2021-01-16T15:00:43Z</time>
      </trkpt>
      <trkpt lat="45.05221" lon="5.64129">
        <ele>1240.2</ele>
        <time>2021-01-16T15:00:44Z</time>
      </trkpt>
      <trkpt lat="45.05221" lon="5.64129">
        <ele>1240.2</ele>
        <time>2021-01-16T15:00:45Z</time>
      </trkpt>
      <trkpt lat="45.05221" lon="5.64129">
        <ele>1240</ele>
        <time>2021-01-16T15:00:46Z</time>
      </trkpt>
      <trkpt lat="45.05221" lon="5.64129">
        <ele>1239.6</ele>
        <time>2021-01-16T15:00:47Z</time>
      </trkpt>
      <trkpt lat="45.05221" lon="5.64129">
        <ele>1239.6</ele>
        <time>2021-01-16T15:00:48Z</time>
      </trkpt>
      <trkpt lat="45.05223" lon="5.6413">
        <ele>1239.6</ele>
        <time>2021-01-16T15:00:49Z</time>
      </trkpt>
      <trkpt lat="45.05223" lon="5.6413">
        <ele>1239.4</ele>
        <time>2021-01-16T15:00:50Z</time>
      </trkpt>
      <trkpt lat="45.05223" lon="5.6413">
        <ele>1239.4</ele>
        <time>2021-01-16T15:00:51Z</time>
      </trkpt>
      <trkpt lat="45.05223" lon="5.6413">
        <ele>1239.2</ele>
        <time>2021-01-16T15:00:52Z</time>
      </trkpt>
      <trkpt lat="45.05223" lon="5.6413">
        <ele>1239.2</ele>
        <time>2021-01-16T15:00:53Z</time>
      </trkpt>
      <trkpt lat="45.05225" lon="5.64133">
        <ele>1238.8</ele>
        <time>2021-01-16T15:00:54Z</time>
      </trkpt>
      <trkpt lat="45.05225" lon="5.64133">
        <ele>1238.4</ele>
        <time>2021-01-16T15:00:55Z</time>
      </trkpt>
      <trkpt lat="45.05225" lon="5.64134">
        <ele>1238.2</ele>
        <time>2021-01-16T15:00:56Z</time>
      </trkpt>
      <trkpt lat="45.05225" lon="5.64134">
        <ele>1238</ele>
        <time>2021-01-16T15:00:57Z</time>
      </trkpt>
      <trkpt lat="45.05225" lon="5.64135">
        <ele>1238.2</ele>
        <time>2021-01-16T15:00:58Z</time>
      </trkpt>
      <trkpt lat="45.05225" lon="5.64135">
        <ele>1238.2</ele>
        <time>2021-01-16T15:00:59Z</time>
      </trkpt>
      <trkpt lat="45.05225" lon="5.64136">
        <ele>1238</ele>
        <time>2021-01-16T15:01:00Z</time>
      </trkpt>
      <trkpt lat="45.05225" lon="5.64136">
        <ele>1237.4</ele>
        <time>2021-01-16T15:01:01Z</time>
      </trkpt>
      <trkpt lat="45.05225" lon="5.64137">
        <ele>1237.6</ele>
        <time>2021-01-16T15:01:02Z</time>
      </trkpt>
      <trkpt lat="45.05225" lon="5.64137">
        <ele>1237.4</ele>
        <time>2021-01-16T15:01:03Z</time>
      </trkpt>
      <trkpt lat="45.05225" lon="5.64138">
        <ele>1236.6</ele>
        <time>2021-01-16T15:01:04Z</time>
      </trkpt>
      <trkpt lat="45.05225" lon="5.64138">
        <ele>1236</ele>
        <time>2021-01-16T15:01:05Z</time>
      </trkpt>
      <trkpt lat="45.05225" lon="5.64138">
        <ele>1235.6</ele>
        <time>2021-01-16T15:01:06Z</time>
      </trkpt>
      <trkpt lat="45.05225" lon="5.64138">
        <ele>1235.2</ele>
        <time>2021-01-16T15:01:07Z</time>
      </trkpt>
      <trkpt lat="45.05225" lon="5.64138">
        <ele>1235</ele>
        <time>2021-01-16T15:01:08Z</time>
      </trkpt>
      <trkpt lat="45.05225" lon="5.64138">
        <ele>1235</ele>
        <time>2021-01-16T15:01:09Z</time>
      </trkpt>
      <trkpt lat="45.05225" lon="5.64138">
        <ele>1234.8</ele>
        <time>2021-01-16T15:01:10Z</time>
      </trkpt>
      <trkpt lat="45.05225" lon="5.64138">
        <ele>1234.4</ele>
        <time>2021-01-16T15:01:11Z</time>
      </trkpt>
      <trkpt lat="45.05225" lon="5.64138">
        <ele>1234.2</ele>
        <time>2021-01-16T15:01:12Z</time>
      </trkpt>
      <trkpt lat="45.05225" lon="5.64138">
        <ele>1234</ele>
        <time>2021-01-16T15:01:13Z</time>
      </trkpt>
      <trkpt lat="45.05225" lon="5.64138">
        <ele>1234</ele>
        <time>2021-01-16T15:01:14Z</time>
      </trkpt>
      <trkpt lat="45.05225" lon="5.64138">
        <ele>1234</ele>
        <time>2021-01-16T15:01:15Z</time>
      </trkpt>
      <trkpt lat="45.05225" lon="5.64138">
        <ele>1233.8</ele>
        <time>2021-01-16T15:01:16Z</time>
      </trkpt>
      <trkpt lat="45.05225" lon="5.64138">
        <ele>1233.8</ele>
        <time>2021-01-16T15:01:17Z</time>
      </trkpt>
      <trkpt lat="45.05225" lon="5.64138">
        <ele>1234</ele>
        <time>2021-01-16T15:01:18Z</time>
      </trkpt>
      <trkpt lat="45.05225" lon="5.64138">
        <ele>1233.8</ele>
        <time>2021-01-16T15:01:19Z</time>
      </trkpt>
      <trkpt lat="45.05225" lon="5.64138">
        <ele>1234</ele>
        <time>2021-01-16T15:01:20Z</time>
      </trkpt>
      <trkpt lat="45.05225" lon="5.64138">
        <ele>1234</ele>
        <time>2021-01-16T15:01:21Z</time>
      </trkpt>
      <trkpt lat="45.05225" lon="5.64138">
        <ele>1234.2</ele>
        <time>2021-01-16T15:01:22Z</time>
      </trkpt>
      <trkpt lat="45.05225" lon="5.64138">
        <ele>1234.2</ele>
        <time>2021-01-16T15:01:23Z</time>
      </trkpt>
      <trkpt lat="45.05225" lon="5.64138">
        <ele>1234.4</ele>
        <time>2021-01-16T15:01:24Z</time>
      </trkpt>
      <trkpt lat="45.05225" lon="5.64138">
        <ele>1234.8</ele>
        <time>2021-01-16T15:01:25Z</time>
      </trkpt>
      <trkpt lat="45.05225" lon="5.64138">
        <ele>1235</ele>
        <time>2021-01-16T15:01:26Z</time>
      </trkpt>
      <trkpt lat="45.05225" lon="5.64138">
        <ele>1235.2</ele>
        <time>2021-01-16T15:01:27Z</time>
      </trkpt>
      <trkpt lat="45.05225" lon="5.64138">
        <ele>1235.2</ele>
        <time>2021-01-16T15:01:28Z</time>
      </trkpt>
      <trkpt lat="45.05225" lon="5.64138">
        <ele>1235.2</ele>
        <time>2021-01-16T15:01:29Z</time>
      </trkpt>
      <trkpt lat="45.05225" lon="5.64138">
        <ele>1235.8</ele>
        <time>2021-01-16T15:01:30Z</time>
      </trkpt>
      <trkpt lat="45.05228" lon="5.64138">
        <ele>1236.4</ele>
        <time>2021-01-16T15:01:31Z</time>
      </trkpt>
      <trkpt lat="45.05228" lon="5.64138">
        <ele>1236.4</ele>
        <time>2021-01-16T15:01:32Z</time>
      </trkpt>
      <trkpt lat="45.0523" lon="5.64139">
        <ele>1236.6</ele>
        <time>2021-01-16T15:01:33Z</time>
      </trkpt>
      <trkpt lat="45.0523" lon="5.64139">
        <ele>1236.6</ele>
        <time>2021-01-16T15:01:34Z</time>
      </trkpt>
      <trkpt lat="45.0523" lon="5.64139">
        <ele>1236.4</ele>
        <time>2021-01-16T15:01:35Z</time>
      </trkpt>
      <trkpt lat="45.0523" lon="5.64139">
        <ele>1236.4</ele>
        <time>2021-01-16T15:01:36Z</time>
      </trkpt>
      <trkpt lat="45.05233" lon="5.64142">
        <ele>1236.4</ele>
        <time>2021-01-16T15:01:37Z</time>
      </trkpt>
      <trkpt lat="45.05233" lon="5.64142">
        <ele>1236.4</ele>
        <time>2021-01-16T15:01:38Z</time>
      </trkpt>
      <trkpt lat="45.05233" lon="5.64142">
        <ele>1236.4</ele>
        <time>2021-01-16T15:01:39Z</time>
      </trkpt>
      <trkpt lat="45.05234" lon="5.64142">
        <ele>1236</ele>
        <time>2021-01-16T15:01:40Z</time>
      </trkpt>
      <trkpt lat="45.05235" lon="5.64143">
        <ele>1235.8</ele>
        <time>2021-01-16T15:01:41Z</time>
      </trkpt>
      <trkpt lat="45.05236" lon="5.64143">
        <ele>1235.6</ele>
        <time>2021-01-16T15:01:42Z</time>
      </trkpt>
      <trkpt lat="45.05237" lon="5.64144">
        <ele>1235.4</ele>
        <time>2021-01-16T15:01:43Z</time>
      </trkpt>
      <trkpt lat="45.05238" lon="5.64144">
        <ele>1235</ele>
        <time>2021-01-16T15:01:44Z</time>
      </trkpt>
      <trkpt lat="45.0524" lon="5.64145">
        <ele>1235</ele>
        <time>2021-01-16T15:01:45Z</time>
      </trkpt>
      <trkpt lat="45.05241" lon="5.64145">
        <ele>1235</ele>
        <time>2021-01-16T15:01:46Z</time>
      </trkpt>
      <trkpt lat="45.05241" lon="5.64145">
        <ele>1235</ele>
        <time>2021-01-16T15:01:47Z</time>
      </trkpt>
      <trkpt lat="45.05241" lon="5.64145">
        <ele>1235.2</ele>
        <time>2021-01-16T15:01:48Z</time>
      </trkpt>
      <trkpt lat="45.05242" lon="5.64147">
        <ele>1234.6</ele>
        <time>2021-01-16T15:01:49Z</time>
      </trkpt>
      <trkpt lat="45.05242" lon="5.64148">
        <ele>1234</ele>
        <time>2021-01-16T15:01:50Z</time>
      </trkpt>
      <trkpt lat="45.05243" lon="5.64149">
        <ele>1233.6</ele>
        <time>2021-01-16T15:01:51Z</time>
      </trkpt>
      <trkpt lat="45.05244" lon="5.6415">
        <ele>1233.4</ele>
        <time>2021-01-16T15:01:52Z</time>
      </trkpt>
      <trkpt lat="45.05245" lon="5.64151">
        <ele>1233.2</ele>
        <time>2021-01-16T15:01:53Z</time>
      </trkpt>
      <trkpt lat="45.05246" lon="5.64153">
        <ele>1232.6</ele>
        <time>2021-01-16T15:01:54Z</time>
      </trkpt>
      <trkpt lat="45.05247" lon="5.64154">
        <ele>1232.2</ele>
        <time>2021-01-16T15:01:55Z</time>
      </trkpt>
      <trkpt lat="45.05248" lon="5.64155">
        <ele>1232</ele>
        <time>2021-01-16T15:01:56Z</time>
      </trkpt>
      <trkpt lat="45.05248" lon="5.64157">
        <ele>1231.6</ele>
        <time>2021-01-16T15:01:57Z</time>
      </trkpt>
      <trkpt lat="45.05249" lon="5.64158">
        <ele>1231</ele>
        <time>2021-01-16T15:01:58Z</time>
      </trkpt>
      <trkpt lat="45.0525" lon="5.6416">
        <ele>1230</ele>
        <time>2021-01-16T15:01:59Z</time>
      </trkpt>
      <trkpt lat="45.05251" lon="5.64162">
        <ele>1230</ele>
        <time>2021-01-16T15:02:00Z</time>
      </trkpt>
      <trkpt lat="45.05251" lon="5.64163">
        <ele>1229.2</ele>
        <time>2021-01-16T15:02:01Z</time>
      </trkpt>
      <trkpt lat="45.05252" lon="5.64165">
        <ele>1228.8</ele>
        <time>2021-01-16T15:02:02Z</time>
      </trkpt>
      <trkpt lat="45.05253" lon="5.64167">
        <ele>1228.4</ele>
        <time>2021-01-16T15:02:03Z</time>
      </trkpt>
      <trkpt lat="45.05254" lon="5.64168">
        <ele>1228</ele>
        <time>2021-01-16T15:02:04Z</time>
      </trkpt>
      <trkpt lat="45.05255" lon="5.64169">
        <ele>1227.6</ele>
        <time>2021-01-16T15:02:05Z</time>
      </trkpt>
      <trkpt lat="45.05257" lon="5.6417">
        <ele>1227.2</ele>
        <time>2021-01-16T15:02:06Z</time>
      </trkpt>
      <trkpt lat="45.05258" lon="5.64172">
        <ele>1227.2</ele>
        <time>2021-01-16T15:02:07Z</time>
      </trkpt>
      <trkpt lat="45.05259" lon="5.64173">
        <ele>1226.8</ele>
        <time>2021-01-16T15:02:08Z</time>
      </trkpt>
      <trkpt lat="45.05261" lon="5.64174">
        <ele>1226.6</ele>
        <time>2021-01-16T15:02:09Z</time>
      </trkpt>
      <trkpt lat="45.05262" lon="5.64175">
        <ele>1226</ele>
        <time>2021-01-16T15:02:10Z</time>
      </trkpt>
      <trkpt lat="45.05263" lon="5.64176">
        <ele>1225.4</ele>
        <time>2021-01-16T15:02:11Z</time>
      </trkpt>
      <trkpt lat="45.05264" lon="5.64177">
        <ele>1225.4</ele>
        <time>2021-01-16T15:02:12Z</time>
      </trkpt>
      <trkpt lat="45.05265" lon="5.64177">
        <ele>1225.2</ele>
        <time>2021-01-16T15:02:13Z</time>
      </trkpt>
      <trkpt lat="45.05266" lon="5.64178">
        <ele>1225</ele>
        <time>2021-01-16T15:02:14Z</time>
      </trkpt>
      <trkpt lat="45.05268" lon="5.64179">
        <ele>1224.8</ele>
        <time>2021-01-16T15:02:15Z</time>
      </trkpt>
      <trkpt lat="45.05269" lon="5.6418">
        <ele>1224.2</ele>
        <time>2021-01-16T15:02:16Z</time>
      </trkpt>
      <trkpt lat="45.0527" lon="5.64181">
        <ele>1224.2</ele>
        <time>2021-01-16T15:02:17Z</time>
      </trkpt>
      <trkpt lat="45.05271" lon="5.64183">
        <ele>1223.6</ele>
        <time>2021-01-16T15:02:18Z</time>
      </trkpt>
      <trkpt lat="45.05271" lon="5.64184">
        <ele>1223.4</ele>
        <time>2021-01-16T15:02:19Z</time>
      </trkpt>
      <trkpt lat="45.05272" lon="5.64186">
        <ele>1223.2</ele>
        <time>2021-01-16T15:02:20Z</time>
      </trkpt>
      <trkpt lat="45.05273" lon="5.64187">
        <ele>1223.2</ele>
        <time>2021-01-16T15:02:21Z</time>
      </trkpt>
      <trkpt lat="45.05274" lon="5.64189">
        <ele>1223</ele>
        <time>2021-01-16T15:02:22Z</time>
      </trkpt>
      <trkpt lat="45.05275" lon="5.6419">
        <ele>1222.8</ele>
        <time>2021-01-16T15:02:23Z</time>
      </trkpt>
      <trkpt lat="45.05276" lon="5.64192">
        <ele>1222.6</ele>
        <time>2021-01-16T15:02:24Z</time>
      </trkpt>
      <trkpt lat="45.05277" lon="5.64193">
        <ele>1222.2</ele>
        <time>2021-01-16T15:02:25Z</time>
      </trkpt>
      <trkpt lat="45.05278" lon="5.64194">
        <ele>1222.2</ele>
        <time>2021-01-16T15:02:26Z</time>
      </trkpt>
      <trkpt lat="45.05278" lon="5.64194">
        <ele>1221.8</ele>
        <time>2021-01-16T15:02:27Z</time>
      </trkpt>
      <trkpt lat="45.05278" lon="5.64194">
        <ele>1221.4</ele>
        <time>2021-01-16T15:02:28Z</time>
      </trkpt>
      <trkpt lat="45.05279" lon="5.64196">
        <ele>1220.6</ele>
        <time>2021-01-16T15:02:29Z</time>
      </trkpt>
      <trkpt lat="45.0528" lon="5.64197">
        <ele>1220.4</ele>
        <time>2021-01-16T15:02:30Z</time>
      </trkpt>
      <trkpt lat="45.05281" lon="5.64199">
        <ele>1219.8</ele>
        <time>2021-01-16T15:02:31Z</time>
      </trkpt>
      <trkpt lat="45.05282" lon="5.64201">
        <ele>1219.4</ele>
        <time>2021-01-16T15:02:32Z</time>
      </trkpt>
      <trkpt lat="45.05283" lon="5.64202">
        <ele>1219</ele>
        <time>2021-01-16T15:02:33Z</time>
      </trkpt>
      <trkpt lat="45.05284" lon="5.64203">
        <ele>1218.6</ele>
        <time>2021-01-16T15:02:34Z</time>
      </trkpt>
      <trkpt lat="45.05285" lon="5.64204">
        <ele>1218.2</ele>
        <time>2021-01-16T15:02:35Z</time>
      </trkpt>
      <trkpt lat="45.05286" lon="5.64205">
        <ele>1218.2</ele>
        <time>2021-01-16T15:02:36Z</time>
      </trkpt>
      <trkpt lat="45.05286" lon="5.64205">
        <ele>1217.8</ele>
        <time>2021-01-16T15:02:37Z</time>
      </trkpt>
      <trkpt lat="45.05285" lon="5.64209">
        <ele>1217.2</ele>
        <time>2021-01-16T15:02:38Z</time>
      </trkpt>
      <trkpt lat="45.05285" lon="5.64209">
        <ele>1216.8</ele>
        <time>2021-01-16T15:02:39Z</time>
      </trkpt>
      <trkpt lat="45.05285" lon="5.64209">
        <ele>1216.8</ele>
        <time>2021-01-16T15:02:40Z</time>
      </trkpt>
      <trkpt lat="45.05285" lon="5.64209">
        <ele>1216.6</ele>
        <time>2021-01-16T15:02:41Z</time>
      </trkpt>
      <trkpt lat="45.05287" lon="5.64212">
        <ele>1216.6</ele>
        <time>2021-01-16T15:02:42Z</time>
      </trkpt>
      <trkpt lat="45.05287" lon="5.64212">
        <ele>1216.4</ele>
        <time>2021-01-16T15:02:43Z</time>
      </trkpt>
      <trkpt lat="45.05288" lon="5.64215">
        <ele>1216.4</ele>
        <time>2021-01-16T15:02:44Z</time>
      </trkpt>
      <trkpt lat="45.05288" lon="5.64215">
        <ele>1216</ele>
        <time>2021-01-16T15:02:45Z</time>
      </trkpt>
      <trkpt lat="45.05288" lon="5.64215">
        <ele>1216</ele>
        <time>2021-01-16T15:02:46Z</time>
      </trkpt>
      <trkpt lat="45.0529" lon="5.64217">
        <ele>1215.6</ele>
        <time>2021-01-16T15:02:47Z</time>
      </trkpt>
      <trkpt lat="45.05289" lon="5.64219">
        <ele>1215</ele>
        <time>2021-01-16T15:02:48Z</time>
      </trkpt>
      <trkpt lat="45.05289" lon="5.64221">
        <ele>1214.2</ele>
        <time>2021-01-16T15:02:49Z</time>
      </trkpt>
      <trkpt lat="45.05289" lon="5.64223">
        <ele>1213.6</ele>
        <time>2021-01-16T15:02:50Z</time>
      </trkpt>
      <trkpt lat="45.05289" lon="5.64223">
        <ele>1213.2</ele>
        <time>2021-01-16T15:02:51Z</time>
      </trkpt>
      <trkpt lat="45.05288" lon="5.64225">
        <ele>1212.6</ele>
        <time>2021-01-16T15:02:52Z</time>
      </trkpt>
      <trkpt lat="45.05288" lon="5.64225">
        <ele>1212.2</ele>
        <time>2021-01-16T15:02:53Z</time>
      </trkpt>
      <trkpt lat="45.05286" lon="5.64227">
        <ele>1211.6</ele>
        <time>2021-01-16T15:02:54Z</time>
      </trkpt>
      <trkpt lat="45.05286" lon="5.64227">
        <ele>1211.2</ele>
        <time>2021-01-16T15:02:55Z</time>
      </trkpt>
      <trkpt lat="45.05286" lon="5.64227">
        <ele>1210.8</ele>
        <time>2021-01-16T15:02:56Z</time>
      </trkpt>
      <trkpt lat="45.05286" lon="5.64227">
        <ele>1210.4</ele>
        <time>2021-01-16T15:02:57Z</time>
      </trkpt>
      <trkpt lat="45.05286" lon="5.64227">
        <ele>1210</ele>
        <time>2021-01-16T15:02:58Z</time>
      </trkpt>
      <trkpt lat="45.05288" lon="5.64229">
        <ele>1209.6</ele>
        <time>2021-01-16T15:02:59Z</time>
      </trkpt>
      <trkpt lat="45.05289" lon="5.6423">
        <ele>1209.4</ele>
        <time>2021-01-16T15:03:00Z</time>
      </trkpt>
      <trkpt lat="45.0529" lon="5.64231">
        <ele>1208.8</ele>
        <time>2021-01-16T15:03:01Z</time>
      </trkpt>
      <trkpt lat="45.05291" lon="5.64232">
        <ele>1208.4</ele>
        <time>2021-01-16T15:03:02Z</time>
      </trkpt>
      <trkpt lat="45.05291" lon="5.64233">
        <ele>1207.6</ele>
        <time>2021-01-16T15:03:03Z</time>
      </trkpt>
      <trkpt lat="45.05292" lon="5.64233">
        <ele>1207</ele>
        <time>2021-01-16T15:03:04Z</time>
      </trkpt>
      <trkpt lat="45.05293" lon="5.64234">
        <ele>1206.2</ele>
        <time>2021-01-16T15:03:05Z</time>
      </trkpt>
      <trkpt lat="45.05294" lon="5.64235">
        <ele>1205.6</ele>
        <time>2021-01-16T15:03:06Z</time>
      </trkpt>
      <trkpt lat="45.05295" lon="5.64236">
        <ele>1205</ele>
        <time>2021-01-16T15:03:07Z</time>
      </trkpt>
      <trkpt lat="45.05296" lon="5.64237">
        <ele>1204.8</ele>
        <time>2021-01-16T15:03:08Z</time>
      </trkpt>
      <trkpt lat="45.05297" lon="5.64237">
        <ele>1204.4</ele>
        <time>2021-01-16T15:03:09Z</time>
      </trkpt>
      <trkpt lat="45.05297" lon="5.64238">
        <ele>1204</ele>
        <time>2021-01-16T15:03:10Z</time>
      </trkpt>
      <trkpt lat="45.05298" lon="5.64239">
        <ele>1203.6</ele>
        <time>2021-01-16T15:03:11Z</time>
      </trkpt>
      <trkpt lat="45.05299" lon="5.6424">
        <ele>1203.2</ele>
        <time>2021-01-16T15:03:12Z</time>
      </trkpt>
      <trkpt lat="45.053" lon="5.64241">
        <ele>1202.4</ele>
        <time>2021-01-16T15:03:13Z</time>
      </trkpt>
      <trkpt lat="45.05301" lon="5.64241">
        <ele>1202.4</ele>
        <time>2021-01-16T15:03:14Z</time>
      </trkpt>
      <trkpt lat="45.05302" lon="5.64242">
        <ele>1202</ele>
        <time>2021-01-16T15:03:15Z</time>
      </trkpt>
      <trkpt lat="45.05303" lon="5.64243">
        <ele>1201.4</ele>
        <time>2021-01-16T15:03:16Z</time>
      </trkpt>
      <trkpt lat="45.05303" lon="5.64244">
        <ele>1201</ele>
        <time>2021-01-16T15:03:17Z</time>
      </trkpt>
      <trkpt lat="45.05304" lon="5.64245">
        <ele>1200.8</ele>
        <time>2021-01-16T15:03:18Z</time>
      </trkpt>
      <trkpt lat="45.05305" lon="5.64245">
        <ele>1200.6</ele>
        <time>2021-01-16T15:03:19Z</time>
      </trkpt>
      <trkpt lat="45.05306" lon="5.64246">
        <ele>1200.4</ele>
        <time>2021-01-16T15:03:20Z</time>
      </trkpt>
      <trkpt lat="45.05307" lon="5.64247">
        <ele>1200</ele>
        <time>2021-01-16T15:03:21Z</time>
      </trkpt>
      <trkpt lat="45.05308" lon="5.64248">
        <ele>1199.6</ele>
        <time>2021-01-16T15:03:22Z</time>
      </trkpt>
      <trkpt lat="45.05308" lon="5.64249">
        <ele>1199.4</ele>
        <time>2021-01-16T15:03:23Z</time>
      </trkpt>
      <trkpt lat="45.05309" lon="5.64249">
        <ele>1199</ele>
        <time>2021-01-16T15:03:24Z</time>
      </trkpt>
      <trkpt lat="45.0531" lon="5.6425">
        <ele>1198.6</ele>
        <time>2021-01-16T15:03:25Z</time>
      </trkpt>
      <trkpt lat="45.05311" lon="5.64251">
        <ele>1198.4</ele>
        <time>2021-01-16T15:03:26Z</time>
      </trkpt>
      <trkpt lat="45.05312" lon="5.64252">
        <ele>1198</ele>
        <time>2021-01-16T15:03:27Z</time>
      </trkpt>
      <trkpt lat="45.05313" lon="5.64253">
        <ele>1197.6</ele>
        <time>2021-01-16T15:03:28Z</time>
      </trkpt>
      <trkpt lat="45.05314" lon="5.64253">
        <ele>1197.4</ele>
        <time>2021-01-16T15:03:29Z</time>
      </trkpt>
      <trkpt lat="45.05314" lon="5.64254">
        <ele>1197.2</ele>
        <time>2021-01-16T15:03:30Z</time>
      </trkpt>
      <trkpt lat="45.05315" lon="5.64255">
        <ele>1197.2</ele>
        <time>2021-01-16T15:03:31Z</time>
      </trkpt>
      <trkpt lat="45.05315" lon="5.64255">
        <ele>1197.2</ele>
        <time>2021-01-16T15:03:32Z</time>
      </trkpt>
      <trkpt lat="45.05315" lon="5.64255">
        <ele>1197.4</ele>
        <time>2021-01-16T15:03:33Z</time>
      </trkpt>
      <trkpt lat="45.05317" lon="5.64257">
        <ele>1197</ele>
        <time>2021-01-16T15:03:34Z</time>
      </trkpt>
      <trkpt lat="45.05317" lon="5.64257">
        <ele>1196.8</ele>
        <time>2021-01-16T15:03:35Z</time>
      </trkpt>
      <trkpt lat="45.05318" lon="5.6426">
        <ele>1196.6</ele>
        <time>2021-01-16T15:03:36Z</time>
      </trkpt>
      <trkpt lat="45.05318" lon="5.6426">
        <ele>1196.6</ele>
        <time>2021-01-16T15:03:37Z</time>
      </trkpt>
      <trkpt lat="45.05318" lon="5.6426">
        <ele>1196.2</ele>
        <time>2021-01-16T15:03:38Z</time>
      </trkpt>
      <trkpt lat="45.0532" lon="5.64261">
        <ele>1195.8</ele>
        <time>2021-01-16T15:03:39Z</time>
      </trkpt>
      <trkpt lat="45.0532" lon="5.64261">
        <ele>1195.4</ele>
        <time>2021-01-16T15:03:40Z</time>
      </trkpt>
      <trkpt lat="45.0532" lon="5.64261">
        <ele>1195</ele>
        <time>2021-01-16T15:03:41Z</time>
      </trkpt>
      <trkpt lat="45.0532" lon="5.64261">
        <ele>1195</ele>
        <time>2021-01-16T15:03:42Z</time>
      </trkpt>
      <trkpt lat="45.05321" lon="5.64263">
        <ele>1194.8</ele>
        <time>2021-01-16T15:03:43Z</time>
      </trkpt>
      <trkpt lat="45.05321" lon="5.64263">
        <ele>1194.8</ele>
        <time>2021-01-16T15:03:44Z</time>
      </trkpt>
      <trkpt lat="45.05321" lon="5.64263">
        <ele>1194.8</ele>
        <time>2021-01-16T15:03:45Z</time>
      </trkpt>
      <trkpt lat="45.05321" lon="5.64264">
        <ele>1194.6</ele>
        <time>2021-01-16T15:03:46Z</time>
      </trkpt>
      <trkpt lat="45.05322" lon="5.64265">
        <ele>1194.2</ele>
        <time>2021-01-16T15:03:47Z</time>
      </trkpt>
      <trkpt lat="45.05322" lon="5.64266">
        <ele>1194.2</ele>
        <time>2021-01-16T15:03:48Z</time>
      </trkpt>
      <trkpt lat="45.05322" lon="5.64266">
        <ele>1194</ele>
        <time>2021-01-16T15:03:49Z</time>
      </trkpt>
      <trkpt lat="45.05323" lon="5.64267">
        <ele>1193.8</ele>
        <time>2021-01-16T15:03:50Z</time>
      </trkpt>
      <trkpt lat="45.05323" lon="5.64268">
        <ele>1193.8</ele>
        <time>2021-01-16T15:03:51Z</time>
      </trkpt>
      <trkpt lat="45.05323" lon="5.64268">
        <ele>1194</ele>
        <time>2021-01-16T15:03:52Z</time>
      </trkpt>
      <trkpt lat="45.05323" lon="5.64268">
        <ele>1193.8</ele>
        <time>2021-01-16T15:03:53Z</time>
      </trkpt>
      <trkpt lat="45.05323" lon="5.64268">
        <ele>1193.6</ele>
        <time>2021-01-16T15:03:54Z</time>
      </trkpt>
      <trkpt lat="45.05323" lon="5.64268">
        <ele>1193.8</ele>
        <time>2021-01-16T15:03:55Z</time>
      </trkpt>
      <trkpt lat="45.05326" lon="5.64267">
        <ele>1193.8</ele>
        <time>2021-01-16T15:03:56Z</time>
      </trkpt>
      <trkpt lat="45.05326" lon="5.64267">
        <ele>1193.8</ele>
        <time>2021-01-16T15:03:57Z</time>
      </trkpt>
      <trkpt lat="45.05326" lon="5.64267">
        <ele>1193.8</ele>
        <time>2021-01-16T15:03:58Z</time>
      </trkpt>
      <trkpt lat="45.05328" lon="5.64266">
        <ele>1194.2</ele>
        <time>2021-01-16T15:03:59Z</time>
      </trkpt>
      <trkpt lat="45.05328" lon="5.64266">
        <ele>1194.4</ele>
        <time>2021-01-16T15:04:00Z</time>
      </trkpt>
      <trkpt lat="45.05328" lon="5.64266">
        <ele>1194.4</ele>
        <time>2021-01-16T15:04:01Z</time>
      </trkpt>
      <trkpt lat="45.05329" lon="5.64264">
        <ele>1194.8</ele>
        <time>2021-01-16T15:04:02Z</time>
      </trkpt>
      <trkpt lat="45.05329" lon="5.64264">
        <ele>1195</ele>
        <time>2021-01-16T15:04:03Z</time>
      </trkpt>
      <trkpt lat="45.05329" lon="5.64264">
        <ele>1195.4</ele>
        <time>2021-01-16T15:04:04Z</time>
      </trkpt>
      <trkpt lat="45.05331" lon="5.64264">
        <ele>1195</ele>
        <time>2021-01-16T15:04:05Z</time>
      </trkpt>
      <trkpt lat="45.05331" lon="5.64264">
        <ele>1195</ele>
        <time>2021-01-16T15:04:06Z</time>
      </trkpt>
      <trkpt lat="45.05333" lon="5.64263">
        <ele>1195.2</ele>
        <time>2021-01-16T15:04:07Z</time>
      </trkpt>
      <trkpt lat="45.05333" lon="5.64263">
        <ele>1195.6</ele>
        <time>2021-01-16T15:04:08Z</time>
      </trkpt>
      <trkpt lat="45.05335" lon="5.64263">
        <ele>1196</ele>
        <time>2021-01-16T15:04:09Z</time>
      </trkpt>
      <trkpt lat="45.05335" lon="5.64263">
        <ele>1196</ele>
        <time>2021-01-16T15:04:10Z</time>
      </trkpt>
      <trkpt lat="45.05337" lon="5.64264">
        <ele>1196</ele>
        <time>2021-01-16T15:04:11Z</time>
      </trkpt>
      <trkpt lat="45.05337" lon="5.64264">
        <ele>1195.8</ele>
        <time>2021-01-16T15:04:12Z</time>
      </trkpt>
      <trkpt lat="45.05339" lon="5.64266">
        <ele>1195.8</ele>
        <time>2021-01-16T15:04:13Z</time>
      </trkpt>
      <trkpt lat="45.05339" lon="5.64266">
        <ele>1196</ele>
        <time>2021-01-16T15:04:14Z</time>
      </trkpt>
      <trkpt lat="45.05339" lon="5.64266">
        <ele>1195.8</ele>
        <time>2021-01-16T15:04:15Z</time>
      </trkpt>
      <trkpt lat="45.05339" lon="5.64266">
        <ele>1196</ele>
        <time>2021-01-16T15:04:16Z</time>
      </trkpt>
      <trkpt lat="45.05341" lon="5.64266">
        <ele>1196.2</ele>
        <time>2021-01-16T15:04:17Z</time>
      </trkpt>
      <trkpt lat="45.05341" lon="5.64266">
        <ele>1196</ele>
        <time>2021-01-16T15:04:18Z</time>
      </trkpt>
      <trkpt lat="45.05341" lon="5.64266">
        <ele>1195.2</ele>
        <time>2021-01-16T15:04:19Z</time>
      </trkpt>
      <trkpt lat="45.05343" lon="5.64267">
        <ele>1195</ele>
        <time>2021-01-16T15:04:20Z</time>
      </trkpt>
      <trkpt lat="45.05343" lon="5.64267">
        <ele>1194.8</ele>
        <time>2021-01-16T15:04:21Z</time>
      </trkpt>
      <trkpt lat="45.05343" lon="5.64267">
        <ele>1194.6</ele>
        <time>2021-01-16T15:04:22Z</time>
      </trkpt>
      <trkpt lat="45.05343" lon="5.64267">
        <ele>1194.6</ele>
        <time>2021-01-16T15:04:23Z</time>
      </trkpt>
      <trkpt lat="45.05345" lon="5.64268">
        <ele>1194.8</ele>
        <time>2021-01-16T15:04:24Z</time>
      </trkpt>
      <trkpt lat="45.05345" lon="5.64268">
        <ele>1194.6</ele>
        <time>2021-01-16T15:04:25Z</time>
      </trkpt>
      <trkpt lat="45.05347" lon="5.64268">
        <ele>1194.4</ele>
        <time>2021-01-16T15:04:26Z</time>
      </trkpt>
      <trkpt lat="45.05349" lon="5.64269">
        <ele>1194.2</ele>
        <time>2021-01-16T15:04:27Z</time>
      </trkpt>
      <trkpt lat="45.05351" lon="5.6427">
        <ele>1194</ele>
        <time>2021-01-16T15:04:28Z</time>
      </trkpt>
      <trkpt lat="45.05353" lon="5.64271">
        <ele>1193.6</ele>
        <time>2021-01-16T15:04:29Z</time>
      </trkpt>
      <trkpt lat="45.05353" lon="5.64271">
        <ele>1193.2</ele>
        <time>2021-01-16T15:04:30Z</time>
      </trkpt>
      <trkpt lat="45.05355" lon="5.64273">
        <ele>1192.8</ele>
        <time>2021-01-16T15:04:31Z</time>
      </trkpt>
      <trkpt lat="45.05357" lon="5.64274">
        <ele>1192.8</ele>
        <time>2021-01-16T15:04:32Z</time>
      </trkpt>
      <trkpt lat="45.05359" lon="5.64275">
        <ele>1192.4</ele>
        <time>2021-01-16T15:04:33Z</time>
      </trkpt>
      <trkpt lat="45.05359" lon="5.64276">
        <ele>1192.2</ele>
        <time>2021-01-16T15:04:34Z</time>
      </trkpt>
      <trkpt lat="45.0536" lon="5.64277">
        <ele>1192</ele>
        <time>2021-01-16T15:04:35Z</time>
      </trkpt>
      <trkpt lat="45.0536" lon="5.64277">
        <ele>1191.8</ele>
        <time>2021-01-16T15:04:36Z</time>
      </trkpt>
      <trkpt lat="45.0536" lon="5.64277">
        <ele>1191.6</ele>
        <time>2021-01-16T15:04:37Z</time>
      </trkpt>
      <trkpt lat="45.0536" lon="5.64277">
        <ele>1191.6</ele>
        <time>2021-01-16T15:04:38Z</time>
      </trkpt>
      <trkpt lat="45.05361" lon="5.6428">
        <ele>1191.6</ele>
        <time>2021-01-16T15:04:39Z</time>
      </trkpt>
      <trkpt lat="45.05361" lon="5.6428">
        <ele>1191.8</ele>
        <time>2021-01-16T15:04:40Z</time>
      </trkpt>
      <trkpt lat="45.05362" lon="5.64282">
        <ele>1191.4</ele>
        <time>2021-01-16T15:04:41Z</time>
      </trkpt>
      <trkpt lat="45.05362" lon="5.64282">
        <ele>1191.2</ele>
        <time>2021-01-16T15:04:42Z</time>
      </trkpt>
      <trkpt lat="45.05362" lon="5.64282">
        <ele>1191</ele>
        <time>2021-01-16T15:04:43Z</time>
      </trkpt>
      <trkpt lat="45.05364" lon="5.64285">
        <ele>1190.6</ele>
        <time>2021-01-16T15:04:44Z</time>
      </trkpt>
      <trkpt lat="45.05364" lon="5.64285">
        <ele>1190.2</ele>
        <time>2021-01-16T15:04:45Z</time>
      </trkpt>
      <trkpt lat="45.05364" lon="5.64285">
        <ele>1190</ele>
        <time>2021-01-16T15:04:46Z</time>
      </trkpt>
      <trkpt lat="45.05366" lon="5.64287">
        <ele>1189.4</ele>
        <time>2021-01-16T15:04:47Z</time>
      </trkpt>
      <trkpt lat="45.05366" lon="5.64287">
        <ele>1189.2</ele>
        <time>2021-01-16T15:04:48Z</time>
      </trkpt>
      <trkpt lat="45.05368" lon="5.64288">
        <ele>1188.8</ele>
        <time>2021-01-16T15:04:49Z</time>
      </trkpt>
      <trkpt lat="45.05368" lon="5.64288">
        <ele>1188.6</ele>
        <time>2021-01-16T15:04:50Z</time>
      </trkpt>
      <trkpt lat="45.05369" lon="5.6429">
        <ele>1188.4</ele>
        <time>2021-01-16T15:04:51Z</time>
      </trkpt>
      <trkpt lat="45.05369" lon="5.6429">
        <ele>1188</ele>
        <time>2021-01-16T15:04:52Z</time>
      </trkpt>
      <trkpt lat="45.05371" lon="5.64293">
        <ele>1187.4</ele>
        <time>2021-01-16T15:04:53Z</time>
      </trkpt>
      <trkpt lat="45.05371" lon="5.64293">
        <ele>1186.8</ele>
        <time>2021-01-16T15:04:54Z</time>
      </trkpt>
      <trkpt lat="45.05374" lon="5.64296">
        <ele>1186.4</ele>
        <time>2021-01-16T15:04:55Z</time>
      </trkpt>
      <trkpt lat="45.05374" lon="5.64296">
        <ele>1186.4</ele>
        <time>2021-01-16T15:04:56Z</time>
      </trkpt>
      <trkpt lat="45.05377" lon="5.64299">
        <ele>1185.8</ele>
        <time>2021-01-16T15:04:57Z</time>
      </trkpt>
      <trkpt lat="45.05378" lon="5.64301">
        <ele>1184.6</ele>
        <time>2021-01-16T15:04:58Z</time>
      </trkpt>
      <trkpt lat="45.05378" lon="5.64301">
        <ele>1184</ele>
        <time>2021-01-16T15:04:59Z</time>
      </trkpt>
      <trkpt lat="45.05378" lon="5.64301">
        <ele>1183.2</ele>
        <time>2021-01-16T15:05:00Z</time>
      </trkpt>
      <trkpt lat="45.05379" lon="5.64304">
        <ele>1182.8</ele>
        <time>2021-01-16T15:05:01Z</time>
      </trkpt>
      <trkpt lat="45.05379" lon="5.64304">
        <ele>1182.4</ele>
        <time>2021-01-16T15:05:02Z</time>
      </trkpt>
      <trkpt lat="45.05379" lon="5.64304">
        <ele>1182.4</ele>
        <time>2021-01-16T15:05:03Z</time>
      </trkpt>
      <trkpt lat="45.05381" lon="5.64307">
        <ele>1182.2</ele>
        <time>2021-01-16T15:05:04Z</time>
      </trkpt>
      <trkpt lat="45.05381" lon="5.64307">
        <ele>1181.8</ele>
        <time>2021-01-16T15:05:05Z</time>
      </trkpt>
      <trkpt lat="45.05381" lon="5.64307">
        <ele>1181.6</ele>
        <time>2021-01-16T15:05:06Z</time>
      </trkpt>
      <trkpt lat="45.05383" lon="5.64309">
        <ele>1181.2</ele>
        <time>2021-01-16T15:05:07Z</time>
      </trkpt>
      <trkpt lat="45.05383" lon="5.64309">
        <ele>1180.6</ele>
        <time>2021-01-16T15:05:08Z</time>
      </trkpt>
      <trkpt lat="45.05384" lon="5.64312">
        <ele>1180.4</ele>
        <time>2021-01-16T15:05:09Z</time>
      </trkpt>
      <trkpt lat="45.05384" lon="5.64312">
        <ele>1179.4</ele>
        <time>2021-01-16T15:05:10Z</time>
      </trkpt>
      <trkpt lat="45.05382" lon="5.64315">
        <ele>1179.2</ele>
        <time>2021-01-16T15:05:11Z</time>
      </trkpt>
      <trkpt lat="45.05382" lon="5.64315">
        <ele>1179</ele>
        <time>2021-01-16T15:05:12Z</time>
      </trkpt>
      <trkpt lat="45.05382" lon="5.64315">
        <ele>1178.4</ele>
        <time>2021-01-16T15:05:13Z</time>
      </trkpt>
      <trkpt lat="45.05381" lon="5.64318">
        <ele>1178</ele>
        <time>2021-01-16T15:05:14Z</time>
      </trkpt>
      <trkpt lat="45.05381" lon="5.64318">
        <ele>1177.4</ele>
        <time>2021-01-16T15:05:15Z</time>
      </trkpt>
      <trkpt lat="45.05381" lon="5.64318">
        <ele>1177</ele>
        <time>2021-01-16T15:05:16Z</time>
      </trkpt>
      <trkpt lat="45.05381" lon="5.64318">
        <ele>1176.4</ele>
        <time>2021-01-16T15:05:17Z</time>
      </trkpt>
      <trkpt lat="45.05382" lon="5.64322">
        <ele>1176</ele>
        <time>2021-01-16T15:05:18Z</time>
      </trkpt>
      <trkpt lat="45.05382" lon="5.64322">
        <ele>1175.8</ele>
        <time>2021-01-16T15:05:19Z</time>
      </trkpt>
      <trkpt lat="45.05381" lon="5.64324">
        <ele>1175.4</ele>
        <time>2021-01-16T15:05:20Z</time>
      </trkpt>
      <trkpt lat="45.05381" lon="5.64324">
        <ele>1175</ele>
        <time>2021-01-16T15:05:21Z</time>
      </trkpt>
      <trkpt lat="45.0538" lon="5.64327">
        <ele>1174.4</ele>
        <time>2021-01-16T15:05:22Z</time>
      </trkpt>
      <trkpt lat="45.0538" lon="5.64327">
        <ele>1174</ele>
        <time>2021-01-16T15:05:23Z</time>
      </trkpt>
      <trkpt lat="45.05379" lon="5.64329">
        <ele>1173.6</ele>
        <time>2021-01-16T15:05:24Z</time>
      </trkpt>
      <trkpt lat="45.05379" lon="5.64329">
        <ele>1172.8</ele>
        <time>2021-01-16T15:05:25Z</time>
      </trkpt>
      <trkpt lat="45.05379" lon="5.64329">
        <ele>1172.4</ele>
        <time>2021-01-16T15:05:26Z</time>
      </trkpt>
      <trkpt lat="45.0538" lon="5.64333">
        <ele>1171.8</ele>
        <time>2021-01-16T15:05:27Z</time>
      </trkpt>
      <trkpt lat="45.0538" lon="5.64333">
        <ele>1171.2</ele>
        <time>2021-01-16T15:05:28Z</time>
      </trkpt>
      <trkpt lat="45.05379" lon="5.64337">
        <ele>1170.8</ele>
        <time>2021-01-16T15:05:29Z</time>
      </trkpt>
      <trkpt lat="45.05379" lon="5.64337">
        <ele>1170.4</ele>
        <time>2021-01-16T15:05:30Z</time>
      </trkpt>
      <trkpt lat="45.05379" lon="5.64337">
        <ele>1169.4</ele>
        <time>2021-01-16T15:05:31Z</time>
      </trkpt>
      <trkpt lat="45.05379" lon="5.64337">
        <ele>1168.6</ele>
        <time>2021-01-16T15:05:32Z</time>
      </trkpt>
      <trkpt lat="45.05379" lon="5.64337">
        <ele>1168.2</ele>
        <time>2021-01-16T15:05:33Z</time>
      </trkpt>
      <trkpt lat="45.05379" lon="5.64337">
        <ele>1167.4</ele>
        <time>2021-01-16T15:05:34Z</time>
      </trkpt>
      <trkpt lat="45.05379" lon="5.64342">
        <ele>1167</ele>
        <time>2021-01-16T15:05:35Z</time>
      </trkpt>
      <trkpt lat="45.05379" lon="5.64342">
        <ele>1166.4</ele>
        <time>2021-01-16T15:05:36Z</time>
      </trkpt>
      <trkpt lat="45.0538" lon="5.64345">
        <ele>1166</ele>
        <time>2021-01-16T15:05:37Z</time>
      </trkpt>
      <trkpt lat="45.0538" lon="5.64345">
        <ele>1165.8</ele>
        <time>2021-01-16T15:05:38Z</time>
      </trkpt>
      <trkpt lat="45.05378" lon="5.64347">
        <ele>1165</ele>
        <time>2021-01-16T15:05:39Z</time>
      </trkpt>
      <trkpt lat="45.05378" lon="5.64347">
        <ele>1164.2</ele>
        <time>2021-01-16T15:05:40Z</time>
      </trkpt>
      <trkpt lat="45.05376" lon="5.6435">
        <ele>1163.6</ele>
        <time>2021-01-16T15:05:41Z</time>
      </trkpt>
      <trkpt lat="45.05376" lon="5.6435">
        <ele>1162.8</ele>
        <time>2021-01-16T15:05:42Z</time>
      </trkpt>
      <trkpt lat="45.05375" lon="5.64354">
        <ele>1162</ele>
        <time>2021-01-16T15:05:43Z</time>
      </trkpt>
      <trkpt lat="45.05375" lon="5.64354">
        <ele>1161.4</ele>
        <time>2021-01-16T15:05:44Z</time>
      </trkpt>
      <trkpt lat="45.05375" lon="5.64354">
        <ele>1160.6</ele>
        <time>2021-01-16T15:05:45Z</time>
      </trkpt>
      <trkpt lat="45.05374" lon="5.64357">
        <ele>1160</ele>
        <time>2021-01-16T15:05:46Z</time>
      </trkpt>
      <trkpt lat="45.05374" lon="5.64357">
        <ele>1159.2</ele>
        <time>2021-01-16T15:05:47Z</time>
      </trkpt>
      <trkpt lat="45.05374" lon="5.64357">
        <ele>1158.4</ele>
        <time>2021-01-16T15:05:48Z</time>
      </trkpt>
      <trkpt lat="45.05373" lon="5.6436">
        <ele>1157.8</ele>
        <time>2021-01-16T15:05:49Z</time>
      </trkpt>
      <trkpt lat="45.05373" lon="5.6436">
        <ele>1157.4</ele>
        <time>2021-01-16T15:05:50Z</time>
      </trkpt>
      <trkpt lat="45.05373" lon="5.64365">
        <ele>1156.8</ele>
        <time>2021-01-16T15:05:51Z</time>
      </trkpt>
      <trkpt lat="45.05373" lon="5.64365">
        <ele>1156.8</ele>
        <time>2021-01-16T15:05:52Z</time>
      </trkpt>
      <trkpt lat="45.05373" lon="5.64365">
        <ele>1156</ele>
        <time>2021-01-16T15:05:53Z</time>
      </trkpt>
      <trkpt lat="45.05372" lon="5.64368">
        <ele>1155.2</ele>
        <time>2021-01-16T15:05:54Z</time>
      </trkpt>
      <trkpt lat="45.05371" lon="5.64371">
        <ele>1154.2</ele>
        <time>2021-01-16T15:05:55Z</time>
      </trkpt>
      <trkpt lat="45.05371" lon="5.64374">
        <ele>1153.2</ele>
        <time>2021-01-16T15:05:56Z</time>
      </trkpt>
      <trkpt lat="45.0537" lon="5.64377">
        <ele>1152</ele>
        <time>2021-01-16T15:05:57Z</time>
      </trkpt>
      <trkpt lat="45.05369" lon="5.6438">
        <ele>1150.8</ele>
        <time>2021-01-16T15:05:58Z</time>
      </trkpt>
      <trkpt lat="45.0537" lon="5.64381">
        <ele>1149.4</ele>
        <time>2021-01-16T15:05:59Z</time>
      </trkpt>
      <trkpt lat="45.05371" lon="5.64383">
        <ele>1148.2</ele>
        <time>2021-01-16T15:06:00Z</time>
      </trkpt>
      <trkpt lat="45.05371" lon="5.64384">
        <ele>1146.8</ele>
        <time>2021-01-16T15:06:01Z</time>
      </trkpt>
      <trkpt lat="45.05372" lon="5.64385">
        <ele>1145.8</ele>
        <time>2021-01-16T15:06:02Z</time>
      </trkpt>
      <trkpt lat="45.05373" lon="5.64387">
        <ele>1144.4</ele>
        <time>2021-01-16T15:06:03Z</time>
      </trkpt>
      <trkpt lat="45.05374" lon="5.64388">
        <ele>1143.8</ele>
        <time>2021-01-16T15:06:04Z</time>
      </trkpt>
      <trkpt lat="45.05374" lon="5.64389">
        <ele>1143.2</ele>
        <time>2021-01-16T15:06:05Z</time>
      </trkpt>
      <trkpt lat="45.05375" lon="5.64391">
        <ele>1142.4</ele>
        <time>2021-01-16T15:06:06Z</time>
      </trkpt>
      <trkpt lat="45.05376" lon="5.64392">
        <ele>1141.8</ele>
        <time>2021-01-16T15:06:07Z</time>
      </trkpt>
      <trkpt lat="45.05376" lon="5.64395">
        <ele>1140.4</ele>
        <time>2021-01-16T15:06:08Z</time>
      </trkpt>
      <trkpt lat="45.05377" lon="5.64399">
        <ele>1139.4</ele>
        <time>2021-01-16T15:06:09Z</time>
      </trkpt>
      <trkpt lat="45.05377" lon="5.64402">
        <ele>1138.8</ele>
        <time>2021-01-16T15:06:10Z</time>
      </trkpt>
      <trkpt lat="45.05378" lon="5.64405">
        <ele>1138.2</ele>
        <time>2021-01-16T15:06:11Z</time>
      </trkpt>
      <trkpt lat="45.05377" lon="5.64407">
        <ele>1137.4</ele>
        <time>2021-01-16T15:06:12Z</time>
      </trkpt>
      <trkpt lat="45.05377" lon="5.64409">
        <ele>1136.2</ele>
        <time>2021-01-16T15:06:13Z</time>
      </trkpt>
      <trkpt lat="45.05376" lon="5.64411">
        <ele>1135</ele>
        <time>2021-01-16T15:06:14Z</time>
      </trkpt>
      <trkpt lat="45.05376" lon="5.64414">
        <ele>1134.2</ele>
        <time>2021-01-16T15:06:15Z</time>
      </trkpt>
      <trkpt lat="45.05375" lon="5.64416">
        <ele>1133</ele>
        <time>2021-01-16T15:06:16Z</time>
      </trkpt>
      <trkpt lat="45.05374" lon="5.64418">
        <ele>1132.4</ele>
        <time>2021-01-16T15:06:17Z</time>
      </trkpt>
      <trkpt lat="45.05374" lon="5.64419">
        <ele>1131.4</ele>
        <time>2021-01-16T15:06:18Z</time>
      </trkpt>
      <trkpt lat="45.05373" lon="5.64421">
        <ele>1131</ele>
        <time>2021-01-16T15:06:19Z</time>
      </trkpt>
      <trkpt lat="45.05372" lon="5.64422">
        <ele>1130.2</ele>
        <time>2021-01-16T15:06:20Z</time>
      </trkpt>
      <trkpt lat="45.05371" lon="5.64424">
        <ele>1129.4</ele>
        <time>2021-01-16T15:06:21Z</time>
      </trkpt>
      <trkpt lat="45.0537" lon="5.64425">
        <ele>1128.6</ele>
        <time>2021-01-16T15:06:22Z</time>
      </trkpt>
      <trkpt lat="45.0537" lon="5.64427">
        <ele>1128</ele>
        <time>2021-01-16T15:06:23Z</time>
      </trkpt>
      <trkpt lat="45.05369" lon="5.64428">
        <ele>1127.4</ele>
        <time>2021-01-16T15:06:24Z</time>
      </trkpt>
      <trkpt lat="45.05368" lon="5.6443">
        <ele>1126.2</ele>
        <time>2021-01-16T15:06:25Z</time>
      </trkpt>
      <trkpt lat="45.05367" lon="5.64433">
        <ele>1125.4</ele>
        <time>2021-01-16T15:06:26Z</time>
      </trkpt>
      <trkpt lat="45.05365" lon="5.64436">
        <ele>1124.6</ele>
        <time>2021-01-16T15:06:27Z</time>
      </trkpt>
      <trkpt lat="45.05364" lon="5.64438">
        <ele>1123.6</ele>
        <time>2021-01-16T15:06:28Z</time>
      </trkpt>
      <trkpt lat="45.05363" lon="5.64441">
        <ele>1122.6</ele>
        <time>2021-01-16T15:06:29Z</time>
      </trkpt>
      <trkpt lat="45.05361" lon="5.64444">
        <ele>1121.4</ele>
        <time>2021-01-16T15:06:30Z</time>
      </trkpt>
      <trkpt lat="45.0536" lon="5.64447">
        <ele>1120.2</ele>
        <time>2021-01-16T15:06:31Z</time>
      </trkpt>
      <trkpt lat="45.05356" lon="5.64451">
        <ele>1118.6</ele>
        <time>2021-01-16T15:06:32Z</time>
      </trkpt>
      <trkpt lat="45.05356" lon="5.64451">
        <ele>1117.4</ele>
        <time>2021-01-16T15:06:33Z</time>
      </trkpt>
      <trkpt lat="45.05356" lon="5.64451">
        <ele>1116.4</ele>
        <time>2021-01-16T15:06:34Z</time>
      </trkpt>
      <trkpt lat="45.05356" lon="5.64453">
        <ele>1115.4</ele>
        <time>2021-01-16T15:06:35Z</time>
      </trkpt>
      <trkpt lat="45.05356" lon="5.64455">
        <ele>1114.6</ele>
        <time>2021-01-16T15:06:36Z</time>
      </trkpt>
      <trkpt lat="45.05357" lon="5.64457">
        <ele>1113.8</ele>
        <time>2021-01-16T15:06:37Z</time>
      </trkpt>
      <trkpt lat="45.05357" lon="5.64459">
        <ele>1112.4</ele>
        <time>2021-01-16T15:06:38Z</time>
      </trkpt>
      <trkpt lat="45.05357" lon="5.64462">
        <ele>1111.2</ele>
        <time>2021-01-16T15:06:39Z</time>
      </trkpt>
      <trkpt lat="45.05357" lon="5.64464">
        <ele>1110.2</ele>
        <time>2021-01-16T15:06:40Z</time>
      </trkpt>
      <trkpt lat="45.05358" lon="5.64466">
        <ele>1109.6</ele>
        <time>2021-01-16T15:06:41Z</time>
      </trkpt>
      <trkpt lat="45.05357" lon="5.64469">
        <ele>1108.2</ele>
        <time>2021-01-16T15:06:42Z</time>
      </trkpt>
      <trkpt lat="45.05356" lon="5.64472">
        <ele>1107.2</ele>
        <time>2021-01-16T15:06:43Z</time>
      </trkpt>
      <trkpt lat="45.05356" lon="5.64475">
        <ele>1106.2</ele>
        <time>2021-01-16T15:06:44Z</time>
      </trkpt>
      <trkpt lat="45.05355" lon="5.64478">
        <ele>1105.4</ele>
        <time>2021-01-16T15:06:45Z</time>
      </trkpt>
      <trkpt lat="45.05353" lon="5.64481">
        <ele>1104</ele>
        <time>2021-01-16T15:06:46Z</time>
      </trkpt>
      <trkpt lat="45.05352" lon="5.64483">
        <ele>1102.8</ele>
        <time>2021-01-16T15:06:47Z</time>
      </trkpt>
      <trkpt lat="45.0535" lon="5.64485">
        <ele>1101.2</ele>
        <time>2021-01-16T15:06:48Z</time>
      </trkpt>
      <trkpt lat="45.05348" lon="5.64487">
        <ele>1100</ele>
        <time>2021-01-16T15:06:49Z</time>
      </trkpt>
      <trkpt lat="45.05346" lon="5.64488">
        <ele>1099</ele>
        <time>2021-01-16T15:06:50Z</time>
      </trkpt>
      <trkpt lat="45.05344" lon="5.64488">
        <ele>1098</ele>
        <time>2021-01-16T15:06:51Z</time>
      </trkpt>
      <trkpt lat="45.05343" lon="5.64489">
        <ele>1097</ele>
        <time>2021-01-16T15:06:52Z</time>
      </trkpt>
      <trkpt lat="45.05341" lon="5.6449">
        <ele>1095.8</ele>
        <time>2021-01-16T15:06:53Z</time>
      </trkpt>
      <trkpt lat="45.05339" lon="5.64491">
        <ele>1095.4</ele>
        <time>2021-01-16T15:06:54Z</time>
      </trkpt>
      <trkpt lat="45.0534" lon="5.64491">
        <ele>1094.4</ele>
        <time>2021-01-16T15:06:55Z</time>
      </trkpt>
      <trkpt lat="45.05341" lon="5.64491">
        <ele>1093.8</ele>
        <time>2021-01-16T15:06:56Z</time>
      </trkpt>
      <trkpt lat="45.05342" lon="5.64492">
        <ele>1093.2</ele>
        <time>2021-01-16T15:06:57Z</time>
      </trkpt>
      <trkpt lat="45.05343" lon="5.64492">
        <ele>1092.6</ele>
        <time>2021-01-16T15:06:58Z</time>
      </trkpt>
      <trkpt lat="45.05344" lon="5.64493">
        <ele>1091.8</ele>
        <time>2021-01-16T15:06:59Z</time>
      </trkpt>
      <trkpt lat="45.05346" lon="5.64493">
        <ele>1090.8</ele>
        <time>2021-01-16T15:07:00Z</time>
      </trkpt>
      <trkpt lat="45.05347" lon="5.64494">
        <ele>1089.6</ele>
        <time>2021-01-16T15:07:01Z</time>
      </trkpt>
      <trkpt lat="45.05348" lon="5.64494">
        <ele>1089.2</ele>
        <time>2021-01-16T15:07:02Z</time>
      </trkpt>
      <trkpt lat="45.05348" lon="5.64495">
        <ele>1088.4</ele>
        <time>2021-01-16T15:07:03Z</time>
      </trkpt>
      <trkpt lat="45.05349" lon="5.64496">
        <ele>1087.8</ele>
        <time>2021-01-16T15:07:04Z</time>
      </trkpt>
      <trkpt lat="45.0535" lon="5.64497">
        <ele>1086.6</ele>
        <time>2021-01-16T15:07:05Z</time>
      </trkpt>
      <trkpt lat="45.05351" lon="5.64498">
        <ele>1085.8</ele>
        <time>2021-01-16T15:07:06Z</time>
      </trkpt>
      <trkpt lat="45.05351" lon="5.645">
        <ele>1084.6</ele>
        <time>2021-01-16T15:07:07Z</time>
      </trkpt>
      <trkpt lat="45.05352" lon="5.64501">
        <ele>1084</ele>
        <time>2021-01-16T15:07:08Z</time>
      </trkpt>
      <trkpt lat="45.05353" lon="5.64502">
        <ele>1083.4</ele>
        <time>2021-01-16T15:07:09Z</time>
      </trkpt>
      <trkpt lat="45.05353" lon="5.64503">
        <ele>1082.6</ele>
        <time>2021-01-16T15:07:10Z</time>
      </trkpt>
      <trkpt lat="45.05354" lon="5.64504">
        <ele>1082.2</ele>
        <time>2021-01-16T15:07:11Z</time>
      </trkpt>
      <trkpt lat="45.05354" lon="5.64504">
        <ele>1081.6</ele>
        <time>2021-01-16T15:07:12Z</time>
      </trkpt>
      <trkpt lat="45.05354" lon="5.64504">
        <ele>1080.6</ele>
        <time>2021-01-16T15:07:13Z</time>
      </trkpt>
      <trkpt lat="45.05354" lon="5.64504">
        <ele>1079.2</ele>
        <time>2021-01-16T15:07:14Z</time>
      </trkpt>
      <trkpt lat="45.05354" lon="5.64504">
        <ele>1078.2</ele>
        <time>2021-01-16T15:07:15Z</time>
      </trkpt>
      <trkpt lat="45.05354" lon="5.64504">
        <ele>1077.6</ele>
        <time>2021-01-16T15:07:16Z</time>
      </trkpt>
      <trkpt lat="45.05354" lon="5.64504">
        <ele>1077</ele>
        <time>2021-01-16T15:07:17Z</time>
      </trkpt>
      <trkpt lat="45.05354" lon="5.64504">
        <ele>1076.8</ele>
        <time>2021-01-16T15:07:18Z</time>
      </trkpt>
      <trkpt lat="45.05354" lon="5.64504">
        <ele>1076.4</ele>
        <time>2021-01-16T15:07:19Z</time>
      </trkpt>
      <trkpt lat="45.05354" lon="5.64504">
        <ele>1076.2</ele>
        <time>2021-01-16T15:07:20Z</time>
      </trkpt>
      <trkpt lat="45.05353" lon="5.64507">
        <ele>1076.2</ele>
        <time>2021-01-16T15:07:21Z</time>
      </trkpt>
      <trkpt lat="45.05353" lon="5.64507">
        <ele>1076.2</ele>
        <time>2021-01-16T15:07:22Z</time>
      </trkpt>
      <trkpt lat="45.05353" lon="5.64507">
        <ele>1076</ele>
        <time>2021-01-16T15:07:23Z</time>
      </trkpt>
      <trkpt lat="45.05353" lon="5.64507">
        <ele>1076</ele>
        <time>2021-01-16T15:07:24Z</time>
      </trkpt>
      <trkpt lat="45.05353" lon="5.64507">
        <ele>1076</ele>
        <time>2021-01-16T15:07:25Z</time>
      </trkpt>
      <trkpt lat="45.05353" lon="5.64507">
        <ele>1076</ele>
        <time>2021-01-16T15:07:26Z</time>
      </trkpt>
      <trkpt lat="45.05353" lon="5.64507">
        <ele>1076.2</ele>
        <time>2021-01-16T15:07:27Z</time>
      </trkpt>
      <trkpt lat="45.05353" lon="5.64504">
        <ele>1075.8</ele>
        <time>2021-01-16T15:07:28Z</time>
      </trkpt>
      <trkpt lat="45.05353" lon="5.64504">
        <ele>1075.6</ele>
        <time>2021-01-16T15:07:29Z</time>
      </trkpt>
      <trkpt lat="45.05353" lon="5.64504">
        <ele>1075.6</ele>
        <time>2021-01-16T15:07:30Z</time>
      </trkpt>
      <trkpt lat="45.05353" lon="5.64504">
        <ele>1075.4</ele>
        <time>2021-01-16T15:07:31Z</time>
      </trkpt>
      <trkpt lat="45.05351" lon="5.64505">
        <ele>1075.2</ele>
        <time>2021-01-16T15:07:32Z</time>
      </trkpt>
      <trkpt lat="45.05351" lon="5.64505">
        <ele>1075.2</ele>
        <time>2021-01-16T15:07:33Z</time>
      </trkpt>
      <trkpt lat="45.05351" lon="5.64505">
        <ele>1075.4</ele>
        <time>2021-01-16T15:07:34Z</time>
      </trkpt>
      <trkpt lat="45.05351" lon="5.64505">
        <ele>1075.2</ele>
        <time>2021-01-16T15:07:35Z</time>
      </trkpt>
      <trkpt lat="45.05351" lon="5.64505">
        <ele>1075</ele>
        <time>2021-01-16T15:07:36Z</time>
      </trkpt>
      <trkpt lat="45.05353" lon="5.64506">
        <ele>1074.8</ele>
        <time>2021-01-16T15:07:37Z</time>
      </trkpt>
      <trkpt lat="45.05353" lon="5.64506">
        <ele>1074.6</ele>
        <time>2021-01-16T15:07:38Z</time>
      </trkpt>
      <trkpt lat="45.05353" lon="5.64506">
        <ele>1074.4</ele>
        <time>2021-01-16T15:07:39Z</time>
      </trkpt>
      <trkpt lat="45.05352" lon="5.64507">
        <ele>1074</ele>
        <time>2021-01-16T15:07:40Z</time>
      </trkpt>
      <trkpt lat="45.05351" lon="5.64508">
        <ele>1074</ele>
        <time>2021-01-16T15:07:41Z</time>
      </trkpt>
      <trkpt lat="45.0535" lon="5.64509">
        <ele>1072.8</ele>
        <time>2021-01-16T15:07:42Z</time>
      </trkpt>
      <trkpt lat="45.05349" lon="5.6451">
        <ele>1072.2</ele>
        <time>2021-01-16T15:07:43Z</time>
      </trkpt>
      <trkpt lat="45.05349" lon="5.64511">
        <ele>1071.8</ele>
        <time>2021-01-16T15:07:44Z</time>
      </trkpt>
      <trkpt lat="45.05348" lon="5.64512">
        <ele>1071.8</ele>
        <time>2021-01-16T15:07:45Z</time>
      </trkpt>
      <trkpt lat="45.05347" lon="5.64513">
        <ele>1071</ele>
        <time>2021-01-16T15:07:46Z</time>
      </trkpt>
      <trkpt lat="45.05346" lon="5.64514">
        <ele>1070.4</ele>
        <time>2021-01-16T15:07:47Z</time>
      </trkpt>
      <trkpt lat="45.05345" lon="5.64514">
        <ele>1069.4</ele>
        <time>2021-01-16T15:07:48Z</time>
      </trkpt>
      <trkpt lat="45.05343" lon="5.64516">
        <ele>1068.8</ele>
        <time>2021-01-16T15:07:49Z</time>
      </trkpt>
      <trkpt lat="45.05341" lon="5.64517">
        <ele>1068.4</ele>
        <time>2021-01-16T15:07:50Z</time>
      </trkpt>
      <trkpt lat="45.05339" lon="5.64519">
        <ele>1067.8</ele>
        <time>2021-01-16T15:07:51Z</time>
      </trkpt>
      <trkpt lat="45.05337" lon="5.6452">
        <ele>1066.8</ele>
        <time>2021-01-16T15:07:52Z</time>
      </trkpt>
      <trkpt lat="45.05335" lon="5.64522">
        <ele>1066</ele>
        <time>2021-01-16T15:07:53Z</time>
      </trkpt>
      <trkpt lat="45.05333" lon="5.64523">
        <ele>1065.2</ele>
        <time>2021-01-16T15:07:54Z</time>
      </trkpt>
      <trkpt lat="45.05332" lon="5.64524">
        <ele>1064</ele>
        <time>2021-01-16T15:07:55Z</time>
      </trkpt>
      <trkpt lat="45.0533" lon="5.64525">
        <ele>1063</ele>
        <time>2021-01-16T15:07:56Z</time>
      </trkpt>
      <trkpt lat="45.05328" lon="5.64527">
        <ele>1062.4</ele>
        <time>2021-01-16T15:07:57Z</time>
      </trkpt>
      <trkpt lat="45.05327" lon="5.64528">
        <ele>1060.8</ele>
        <time>2021-01-16T15:07:58Z</time>
      </trkpt>
      <trkpt lat="45.05325" lon="5.6453">
        <ele>1059.8</ele>
        <time>2021-01-16T15:07:59Z</time>
      </trkpt>
      <trkpt lat="45.05323" lon="5.64531">
        <ele>1059.2</ele>
        <time>2021-01-16T15:08:00Z</time>
      </trkpt>
      <trkpt lat="45.05322" lon="5.64533">
        <ele>1057.8</ele>
        <time>2021-01-16T15:08:01Z</time>
      </trkpt>
      <trkpt lat="45.0532" lon="5.64534">
        <ele>1056.8</ele>
        <time>2021-01-16T15:08:02Z</time>
      </trkpt>
      <trkpt lat="45.05318" lon="5.64536">
        <ele>1056</ele>
        <time>2021-01-16T15:08:03Z</time>
      </trkpt>
      <trkpt lat="45.05317" lon="5.64539">
        <ele>1055.2</ele>
        <time>2021-01-16T15:08:04Z</time>
      </trkpt>
      <trkpt lat="45.05316" lon="5.64542">
        <ele>1053.6</ele>
        <time>2021-01-16T15:08:05Z</time>
      </trkpt>
      <trkpt lat="45.05315" lon="5.64545">
        <ele>1052.2</ele>
        <time>2021-01-16T15:08:06Z</time>
      </trkpt>
      <trkpt lat="45.05313" lon="5.64548">
        <ele>1051</ele>
        <time>2021-01-16T15:08:07Z</time>
      </trkpt>
      <trkpt lat="45.05312" lon="5.64549">
        <ele>1050.2</ele>
        <time>2021-01-16T15:08:08Z</time>
      </trkpt>
      <trkpt lat="45.0531" lon="5.6455">
        <ele>1049.4</ele>
        <time>2021-01-16T15:08:09Z</time>
      </trkpt>
      <trkpt lat="45.05308" lon="5.64551">
        <ele>1048.4</ele>
        <time>2021-01-16T15:08:10Z</time>
      </trkpt>
      <trkpt lat="45.05306" lon="5.64552">
        <ele>1047.6</ele>
        <time>2021-01-16T15:08:11Z</time>
      </trkpt>
      <trkpt lat="45.05305" lon="5.64554">
        <ele>1046.4</ele>
        <time>2021-01-16T15:08:12Z</time>
      </trkpt>
      <trkpt lat="45.05303" lon="5.64555">
        <ele>1045.2</ele>
        <time>2021-01-16T15:08:13Z</time>
      </trkpt>
      <trkpt lat="45.05303" lon="5.64557">
        <ele>1044.4</ele>
        <time>2021-01-16T15:08:14Z</time>
      </trkpt>
      <trkpt lat="45.05304" lon="5.64559">
        <ele>1044</ele>
        <time>2021-01-16T15:08:15Z</time>
      </trkpt>
      <trkpt lat="45.05304" lon="5.64561">
        <ele>1043.4</ele>
        <time>2021-01-16T15:08:16Z</time>
      </trkpt>
      <trkpt lat="45.05304" lon="5.64564">
        <ele>1042.8</ele>
        <time>2021-01-16T15:08:17Z</time>
      </trkpt>
      <trkpt lat="45.05304" lon="5.64566">
        <ele>1041.6</ele>
        <time>2021-01-16T15:08:18Z</time>
      </trkpt>
      <trkpt lat="45.05305" lon="5.64568">
        <ele>1040.6</ele>
        <time>2021-01-16T15:08:19Z</time>
      </trkpt>
      <trkpt lat="45.05306" lon="5.64571">
        <ele>1039.6</ele>
        <time>2021-01-16T15:08:20Z</time>
      </trkpt>
      <trkpt lat="45.05308" lon="5.64574">
        <ele>1039</ele>
        <time>2021-01-16T15:08:21Z</time>
      </trkpt>
      <trkpt lat="45.0531" lon="5.64577">
        <ele>1038.4</ele>
        <time>2021-01-16T15:08:22Z</time>
      </trkpt>
      <trkpt lat="45.05312" lon="5.6458">
        <ele>1037.4</ele>
        <time>2021-01-16T15:08:23Z</time>
      </trkpt>
      <trkpt lat="45.05314" lon="5.64577">
        <ele>1036.2</ele>
        <time>2021-01-16T15:08:24Z</time>
      </trkpt>
      <trkpt lat="45.05316" lon="5.64575">
        <ele>1035</ele>
        <time>2021-01-16T15:08:25Z</time>
      </trkpt>
      <trkpt lat="45.05319" lon="5.64573">
        <ele>1034.2</ele>
        <time>2021-01-16T15:08:26Z</time>
      </trkpt>
      <trkpt lat="45.05321" lon="5.6457">
        <ele>1033.4</ele>
        <time>2021-01-16T15:08:27Z</time>
      </trkpt>
      <trkpt lat="45.05322" lon="5.6457">
        <ele>1032.6</ele>
        <time>2021-01-16T15:08:28Z</time>
      </trkpt>
      <trkpt lat="45.05323" lon="5.64571">
        <ele>1031.6</ele>
        <time>2021-01-16T15:08:29Z</time>
      </trkpt>
      <trkpt lat="45.05324" lon="5.64571">
        <ele>1030.4</ele>
        <time>2021-01-16T15:08:30Z</time>
      </trkpt>
      <trkpt lat="45.05324" lon="5.64571">
        <ele>1029.4</ele>
        <time>2021-01-16T15:08:31Z</time>
      </trkpt>
      <trkpt lat="45.05325" lon="5.64572">
        <ele>1028.6</ele>
        <time>2021-01-16T15:08:32Z</time>
      </trkpt>
      <trkpt lat="45.05326" lon="5.64572">
        <ele>1027.6</ele>
        <time>2021-01-16T15:08:33Z</time>
      </trkpt>
      <trkpt lat="45.05327" lon="5.64572">
        <ele>1027</ele>
        <time>2021-01-16T15:08:34Z</time>
      </trkpt>
      <trkpt lat="45.05327" lon="5.64573">
        <ele>1026.2</ele>
        <time>2021-01-16T15:08:35Z</time>
      </trkpt>
      <trkpt lat="45.05328" lon="5.64573">
        <ele>1025.4</ele>
        <time>2021-01-16T15:08:36Z</time>
      </trkpt>
      <trkpt lat="45.05329" lon="5.64573">
        <ele>1024.4</ele>
        <time>2021-01-16T15:08:37Z</time>
      </trkpt>
      <trkpt lat="45.0533" lon="5.64574">
        <ele>1023.4</ele>
        <time>2021-01-16T15:08:38Z</time>
      </trkpt>
      <trkpt lat="45.05331" lon="5.64574">
        <ele>1022.8</ele>
        <time>2021-01-16T15:08:39Z</time>
      </trkpt>
      <trkpt lat="45.05331" lon="5.64574">
        <ele>1021.6</ele>
        <time>2021-01-16T15:08:40Z</time>
      </trkpt>
      <trkpt lat="45.05332" lon="5.64575">
        <ele>1021</ele>
        <time>2021-01-16T15:08:41Z</time>
      </trkpt>
      <trkpt lat="45.05333" lon="5.64575">
        <ele>1020.2</ele>
        <time>2021-01-16T15:08:42Z</time>
      </trkpt>
      <trkpt lat="45.05334" lon="5.64576">
        <ele>1019.8</ele>
        <time>2021-01-16T15:08:43Z</time>
      </trkpt>
      <trkpt lat="45.05335" lon="5.64577">
        <ele>1019.2</ele>
        <time>2021-01-16T15:08:44Z</time>
      </trkpt>
      <trkpt lat="45.05336" lon="5.64578">
        <ele>1018.6</ele>
        <time>2021-01-16T15:08:45Z</time>
      </trkpt>
      <trkpt lat="45.05337" lon="5.64579">
        <ele>1017.8</ele>
        <time>2021-01-16T15:08:46Z</time>
      </trkpt>
      <trkpt lat="45.05338" lon="5.6458">
        <ele>1017.2</ele>
        <time>2021-01-16T15:08:47Z</time>
      </trkpt>
      <trkpt lat="45.05339" lon="5.64581">
        <ele>1016.4</ele>
        <time>2021-01-16T15:08:48Z</time>
      </trkpt>
      <trkpt lat="45.0534" lon="5.64582">
        <ele>1015.4</ele>
        <time>2021-01-16T15:08:49Z</time>
      </trkpt>
      <trkpt lat="45.05341" lon="5.64582">
        <ele>1014.4</ele>
        <time>2021-01-16T15:08:50Z</time>
      </trkpt>
      <trkpt lat="45.05343" lon="5.64584">
        <ele>1013.2</ele>
        <time>2021-01-16T15:08:51Z</time>
      </trkpt>
      <trkpt lat="45.05345" lon="5.64585">
        <ele>1012.2</ele>
        <time>2021-01-16T15:08:52Z</time>
      </trkpt>
      <trkpt lat="45.05346" lon="5.64586">
        <ele>1011.6</ele>
        <time>2021-01-16T15:08:53Z</time>
      </trkpt>
      <trkpt lat="45.05348" lon="5.64587">
        <ele>1010.6</ele>
        <time>2021-01-16T15:08:54Z</time>
      </trkpt>
      <trkpt lat="45.0535" lon="5.64588">
        <ele>1010</ele>
        <time>2021-01-16T15:08:55Z</time>
      </trkpt>
      <trkpt lat="45.0535" lon="5.6459">
        <ele>1009</ele>
        <time>2021-01-16T15:08:56Z</time>
      </trkpt>
      <trkpt lat="45.05351" lon="5.64592">
        <ele>1008.2</ele>
        <time>2021-01-16T15:08:57Z</time>
      </trkpt>
      <trkpt lat="45.05351" lon="5.64594">
        <ele>1007.4</ele>
        <time>2021-01-16T15:08:58Z</time>
      </trkpt>
      <trkpt lat="45.05351" lon="5.64596">
        <ele>1006.6</ele>
        <time>2021-01-16T15:08:59Z</time>
      </trkpt>
      <trkpt lat="45.05352" lon="5.64598">
        <ele>1005.6</ele>
        <time>2021-01-16T15:09:00Z</time>
      </trkpt>
      <trkpt lat="45.05352" lon="5.646">
        <ele>1005.2</ele>
        <time>2021-01-16T15:09:01Z</time>
      </trkpt>
      <trkpt lat="45.05353" lon="5.64602">
        <ele>1004.4</ele>
        <time>2021-01-16T15:09:02Z</time>
      </trkpt>
      <trkpt lat="45.05353" lon="5.64603">
        <ele>1003.8</ele>
        <time>2021-01-16T15:09:03Z</time>
      </trkpt>
      <trkpt lat="45.05354" lon="5.64605">
        <ele>1003.4</ele>
        <time>2021-01-16T15:09:04Z</time>
      </trkpt>
      <trkpt lat="45.05354" lon="5.64606">
        <ele>1003</ele>
        <time>2021-01-16T15:09:05Z</time>
      </trkpt>
      <trkpt lat="45.05355" lon="5.64608">
        <ele>1002.8</ele>
        <time>2021-01-16T15:09:06Z</time>
      </trkpt>
      <trkpt lat="45.05355" lon="5.64609">
        <ele>1001.8</ele>
        <time>2021-01-16T15:09:07Z</time>
      </trkpt>
      <trkpt lat="45.05356" lon="5.64611">
        <ele>1001.2</ele>
        <time>2021-01-16T15:09:08Z</time>
      </trkpt>
      <trkpt lat="45.05356" lon="5.64612">
        <ele>1000.8</ele>
        <time>2021-01-16T15:09:09Z</time>
      </trkpt>
      <trkpt lat="45.05358" lon="5.64615">
        <ele>1000.2</ele>
        <time>2021-01-16T15:09:10Z</time>
      </trkpt>
      <trkpt lat="45.05358" lon="5.64615">
        <ele>1000</ele>
        <time>2021-01-16T15:09:11Z</time>
      </trkpt>
      <trkpt lat="45.05358" lon="5.64615">
        <ele>999.6</ele>
        <time>2021-01-16T15:09:12Z</time>
      </trkpt>
      <trkpt lat="45.05357" lon="5.64619">
        <ele>999.2</ele>
        <time>2021-01-16T15:09:13Z</time>
      </trkpt>
      <trkpt lat="45.05357" lon="5.64619">
        <ele>998.6</ele>
        <time>2021-01-16T15:09:14Z</time>
      </trkpt>
      <trkpt lat="45.05357" lon="5.64619">
        <ele>997.8</ele>
        <time>2021-01-16T15:09:15Z</time>
      </trkpt>
      <trkpt lat="45.05356" lon="5.64622">
        <ele>997</ele>
        <time>2021-01-16T15:09:16Z</time>
      </trkpt>
      <trkpt lat="45.05357" lon="5.64623">
        <ele>996.4</ele>
        <time>2021-01-16T15:09:17Z</time>
      </trkpt>
      <trkpt lat="45.05358" lon="5.64625">
        <ele>996.2</ele>
        <time>2021-01-16T15:09:18Z</time>
      </trkpt>
      <trkpt lat="45.05359" lon="5.64627">
        <ele>995.6</ele>
        <time>2021-01-16T15:09:19Z</time>
      </trkpt>
      <trkpt lat="45.0536" lon="5.64629">
        <ele>994.6</ele>
        <time>2021-01-16T15:09:20Z</time>
      </trkpt>
      <trkpt lat="45.05361" lon="5.64631">
        <ele>994</ele>
        <time>2021-01-16T15:09:21Z</time>
      </trkpt>
      <trkpt lat="45.05363" lon="5.64632">
        <ele>993.6</ele>
        <time>2021-01-16T15:09:22Z</time>
      </trkpt>
      <trkpt lat="45.05364" lon="5.64634">
        <ele>992.8</ele>
        <time>2021-01-16T15:09:23Z</time>
      </trkpt>
      <trkpt lat="45.05365" lon="5.64636">
        <ele>991.8</ele>
        <time>2021-01-16T15:09:24Z</time>
      </trkpt>
      <trkpt lat="45.05366" lon="5.64638">
        <ele>991</ele>
        <time>2021-01-16T15:09:25Z</time>
      </trkpt>
      <trkpt lat="45.05367" lon="5.64639">
        <ele>990.4</ele>
        <time>2021-01-16T15:09:26Z</time>
      </trkpt>
      <trkpt lat="45.05368" lon="5.64639">
        <ele>989.4</ele>
        <time>2021-01-16T15:09:27Z</time>
      </trkpt>
      <trkpt lat="45.05368" lon="5.64639">
        <ele>988.8</ele>
        <time>2021-01-16T15:09:28Z</time>
      </trkpt>
      <trkpt lat="45.05368" lon="5.64639">
        <ele>988</ele>
        <time>2021-01-16T15:09:29Z</time>
      </trkpt>
      <trkpt lat="45.05369" lon="5.64641">
        <ele>986.6</ele>
        <time>2021-01-16T15:09:30Z</time>
      </trkpt>
      <trkpt lat="45.05371" lon="5.64642">
        <ele>985.4</ele>
        <time>2021-01-16T15:09:31Z</time>
      </trkpt>
      <trkpt lat="45.05373" lon="5.64644">
        <ele>985</ele>
        <time>2021-01-16T15:09:32Z</time>
      </trkpt>
      <trkpt lat="45.05375" lon="5.64645">
        <ele>984.2</ele>
        <time>2021-01-16T15:09:33Z</time>
      </trkpt>
      <trkpt lat="45.05376" lon="5.64647">
        <ele>983</ele>
        <time>2021-01-16T15:09:34Z</time>
      </trkpt>
      <trkpt lat="45.05378" lon="5.64648">
        <ele>982.4</ele>
        <time>2021-01-16T15:09:35Z</time>
      </trkpt>
      <trkpt lat="45.05379" lon="5.6465">
        <ele>982</ele>
        <time>2021-01-16T15:09:36Z</time>
      </trkpt>
      <trkpt lat="45.05381" lon="5.64653">
        <ele>981.4</ele>
        <time>2021-01-16T15:09:37Z</time>
      </trkpt>
      <trkpt lat="45.05381" lon="5.64653">
        <ele>981</ele>
        <time>2021-01-16T15:09:38Z</time>
      </trkpt>
      <trkpt lat="45.0538" lon="5.64657">
        <ele>980.6</ele>
        <time>2021-01-16T15:09:39Z</time>
      </trkpt>
      <trkpt lat="45.0538" lon="5.64657">
        <ele>980.2</ele>
        <time>2021-01-16T15:09:40Z</time>
      </trkpt>
      <trkpt lat="45.05378" lon="5.64659">
        <ele>979.2</ele>
        <time>2021-01-16T15:09:41Z</time>
      </trkpt>
      <trkpt lat="45.05378" lon="5.64659">
        <ele>978.4</ele>
        <time>2021-01-16T15:09:42Z</time>
      </trkpt>
      <trkpt lat="45.05376" lon="5.64661">
        <ele>978.2</ele>
        <time>2021-01-16T15:09:43Z</time>
      </trkpt>
      <trkpt lat="45.05374" lon="5.64661">
        <ele>977.4</ele>
        <time>2021-01-16T15:09:44Z</time>
      </trkpt>
      <trkpt lat="45.05372" lon="5.64662">
        <ele>976.6</ele>
        <time>2021-01-16T15:09:45Z</time>
      </trkpt>
      <trkpt lat="45.0537" lon="5.64662">
        <ele>976.2</ele>
        <time>2021-01-16T15:09:46Z</time>
      </trkpt>
      <trkpt lat="45.05366" lon="5.64663">
        <ele>975.4</ele>
        <time>2021-01-16T15:09:47Z</time>
      </trkpt>
      <trkpt lat="45.05365" lon="5.64664">
        <ele>974.4</ele>
        <time>2021-01-16T15:09:48Z</time>
      </trkpt>
      <trkpt lat="45.05365" lon="5.64664">
        <ele>973.6</ele>
        <time>2021-01-16T15:09:49Z</time>
      </trkpt>
      <trkpt lat="45.05362" lon="5.64665">
        <ele>972.8</ele>
        <time>2021-01-16T15:09:50Z</time>
      </trkpt>
      <trkpt lat="45.05362" lon="5.64665">
        <ele>971.6</ele>
        <time>2021-01-16T15:09:51Z</time>
      </trkpt>
      <trkpt lat="45.05361" lon="5.64669">
        <ele>971.2</ele>
        <time>2021-01-16T15:09:52Z</time>
      </trkpt>
      <trkpt lat="45.05361" lon="5.64669">
        <ele>970.6</ele>
        <time>2021-01-16T15:09:53Z</time>
      </trkpt>
      <trkpt lat="45.05361" lon="5.64669">
        <ele>969.8</ele>
        <time>2021-01-16T15:09:54Z</time>
      </trkpt>
      <trkpt lat="45.05359" lon="5.64671">
        <ele>969</ele>
        <time>2021-01-16T15:09:55Z</time>
      </trkpt>
      <trkpt lat="45.05358" lon="5.64673">
        <ele>968.2</ele>
        <time>2021-01-16T15:09:56Z</time>
      </trkpt>
      <trkpt lat="45.05357" lon="5.64675">
        <ele>967</ele>
        <time>2021-01-16T15:09:57Z</time>
      </trkpt>
      <trkpt lat="45.05356" lon="5.64678">
        <ele>966.4</ele>
        <time>2021-01-16T15:09:58Z</time>
      </trkpt>
      <trkpt lat="45.05354" lon="5.6468">
        <ele>965.4</ele>
        <time>2021-01-16T15:09:59Z</time>
      </trkpt>
      <trkpt lat="45.05353" lon="5.6468">
        <ele>964.4</ele>
        <time>2021-01-16T15:10:01Z</time>
      </trkpt>
      <trkpt lat="45.05351" lon="5.64681">
        <ele>964</ele>
        <time>2021-01-16T15:10:02Z</time>
      </trkpt>
      <trkpt lat="45.0535" lon="5.64682">
        <ele>963.6</ele>
        <time>2021-01-16T15:10:03Z</time>
      </trkpt>
      <trkpt lat="45.05348" lon="5.64682">
        <ele>963</ele>
        <time>2021-01-16T15:10:04Z</time>
      </trkpt>
      <trkpt lat="45.05347" lon="5.64683">
        <ele>962.8</ele>
        <time>2021-01-16T15:10:05Z</time>
      </trkpt>
      <trkpt lat="45.05345" lon="5.64684">
        <ele>962.4</ele>
        <time>2021-01-16T15:10:06Z</time>
      </trkpt>
      <trkpt lat="45.05345" lon="5.64684">
        <ele>961.8</ele>
        <time>2021-01-16T15:10:07Z</time>
      </trkpt>
      <trkpt lat="45.05345" lon="5.64684">
        <ele>961.4</ele>
        <time>2021-01-16T15:10:08Z</time>
      </trkpt>
      <trkpt lat="45.05345" lon="5.64684">
        <ele>961</ele>
        <time>2021-01-16T15:10:09Z</time>
      </trkpt>
      <trkpt lat="45.05345" lon="5.64684">
        <ele>960.8</ele>
        <time>2021-01-16T15:10:10Z</time>
      </trkpt>
      <trkpt lat="45.05344" lon="5.64686">
        <ele>960.6</ele>
        <time>2021-01-16T15:10:11Z</time>
      </trkpt>
      <trkpt lat="45.05344" lon="5.64686">
        <ele>960.4</ele>
        <time>2021-01-16T15:10:12Z</time>
      </trkpt>
      <trkpt lat="45.05344" lon="5.64686">
        <ele>960.4</ele>
        <time>2021-01-16T15:10:13Z</time>
      </trkpt>
      <trkpt lat="45.05344" lon="5.64686">
        <ele>960.4</ele>
        <time>2021-01-16T15:10:14Z</time>
      </trkpt>
      <trkpt lat="45.05344" lon="5.64686">
        <ele>960.4</ele>
        <time>2021-01-16T15:10:15Z</time>
      </trkpt>
      <trkpt lat="45.05344" lon="5.64689">
        <ele>960.6</ele>
        <time>2021-01-16T15:10:16Z</time>
      </trkpt>
      <trkpt lat="45.05344" lon="5.64689">
        <ele>960</ele>
        <time>2021-01-16T15:10:17Z</time>
      </trkpt>
      <trkpt lat="45.05344" lon="5.64689">
        <ele>959.6</ele>
        <time>2021-01-16T15:10:18Z</time>
      </trkpt>
      <trkpt lat="45.05343" lon="5.6469">
        <ele>959.2</ele>
        <time>2021-01-16T15:10:19Z</time>
      </trkpt>
      <trkpt lat="45.05343" lon="5.64692">
        <ele>958.4</ele>
        <time>2021-01-16T15:10:20Z</time>
      </trkpt>
      <trkpt lat="45.05342" lon="5.64693">
        <ele>958</ele>
        <time>2021-01-16T15:10:21Z</time>
      </trkpt>
      <trkpt lat="45.05342" lon="5.64694">
        <ele>956.2</ele>
        <time>2021-01-16T15:10:22Z</time>
      </trkpt>
      <trkpt lat="45.05341" lon="5.64696">
        <ele>955.8</ele>
        <time>2021-01-16T15:10:23Z</time>
      </trkpt>
      <trkpt lat="45.05338" lon="5.64697">
        <ele>955.4</ele>
        <time>2021-01-16T15:10:24Z</time>
      </trkpt>
      <trkpt lat="45.05338" lon="5.64697">
        <ele>955.2</ele>
        <time>2021-01-16T15:10:25Z</time>
      </trkpt>
      <trkpt lat="45.05338" lon="5.64697">
        <ele>955.2</ele>
        <time>2021-01-16T15:10:26Z</time>
      </trkpt>
      <trkpt lat="45.05338" lon="5.64697">
        <ele>955</ele>
        <time>2021-01-16T15:10:27Z</time>
      </trkpt>
      <trkpt lat="45.05338" lon="5.64697">
        <ele>955</ele>
        <time>2021-01-16T15:10:28Z</time>
      </trkpt>
      <trkpt lat="45.05338" lon="5.64697">
        <ele>955.2</ele>
        <time>2021-01-16T15:10:29Z</time>
      </trkpt>
      <trkpt lat="45.05338" lon="5.64697">
        <ele>955</ele>
        <time>2021-01-16T15:10:30Z</time>
      </trkpt>
      <trkpt lat="45.05338" lon="5.64697">
        <ele>954.8</ele>
        <time>2021-01-16T15:10:31Z</time>
      </trkpt>
      <trkpt lat="45.05338" lon="5.64697">
        <ele>954</ele>
        <time>2021-01-16T15:10:32Z</time>
      </trkpt>
      <trkpt lat="45.05337" lon="5.64698">
        <ele>953.4</ele>
        <time>2021-01-16T15:10:33Z</time>
      </trkpt>
      <trkpt lat="45.05337" lon="5.64698">
        <ele>952.8</ele>
        <time>2021-01-16T15:10:34Z</time>
      </trkpt>
      <trkpt lat="45.05337" lon="5.64698">
        <ele>952.6</ele>
        <time>2021-01-16T15:10:35Z</time>
      </trkpt>
      <trkpt lat="45.05337" lon="5.64698">
        <ele>952.4</ele>
        <time>2021-01-16T15:10:36Z</time>
      </trkpt>
      <trkpt lat="45.05337" lon="5.64698">
        <ele>952.4</ele>
        <time>2021-01-16T15:10:37Z</time>
      </trkpt>
      <trkpt lat="45.05339" lon="5.64701">
        <ele>952</ele>
        <time>2021-01-16T15:10:38Z</time>
      </trkpt>
      <trkpt lat="45.0534" lon="5.64702">
        <ele>951.4</ele>
        <time>2021-01-16T15:10:39Z</time>
      </trkpt>
      <trkpt lat="45.0534" lon="5.64702">
        <ele>951</ele>
        <time>2021-01-16T15:10:40Z</time>
      </trkpt>
      <trkpt lat="45.05341" lon="5.64705">
        <ele>950.8</ele>
        <time>2021-01-16T15:10:41Z</time>
      </trkpt>
      <trkpt lat="45.05341" lon="5.64705">
        <ele>950</ele>
        <time>2021-01-16T15:10:42Z</time>
      </trkpt>
      <trkpt lat="45.05341" lon="5.64705">
        <ele>949.8</ele>
        <time>2021-01-16T15:10:43Z</time>
      </trkpt>
      <trkpt lat="45.05341" lon="5.64706">
        <ele>949</ele>
        <time>2021-01-16T15:10:44Z</time>
      </trkpt>
      <trkpt lat="45.05342" lon="5.64707">
        <ele>948.4</ele>
        <time>2021-01-16T15:10:45Z</time>
      </trkpt>
      <trkpt lat="45.05342" lon="5.64707">
        <ele>947.8</ele>
        <time>2021-01-16T15:10:46Z</time>
      </trkpt>
      <trkpt lat="45.05342" lon="5.64708">
        <ele>947.2</ele>
        <time>2021-01-16T15:10:47Z</time>
      </trkpt>
      <trkpt lat="45.05342" lon="5.64709">
        <ele>946.4</ele>
        <time>2021-01-16T15:10:48Z</time>
      </trkpt>
      <trkpt lat="45.05343" lon="5.64709">
        <ele>945.8</ele>
        <time>2021-01-16T15:10:49Z</time>
      </trkpt>
      <trkpt lat="45.05343" lon="5.6471">
        <ele>945.6</ele>
        <time>2021-01-16T15:10:50Z</time>
      </trkpt>
      <trkpt lat="45.05343" lon="5.6471">
        <ele>944.6</ele>
        <time>2021-01-16T15:10:51Z</time>
      </trkpt>
      <trkpt lat="45.05344" lon="5.64711">
        <ele>944.2</ele>
        <time>2021-01-16T15:10:52Z</time>
      </trkpt>
      <trkpt lat="45.05344" lon="5.64712">
        <ele>944</ele>
        <time>2021-01-16T15:10:53Z</time>
      </trkpt>
      <trkpt lat="45.05344" lon="5.64712">
        <ele>943.8</ele>
        <time>2021-01-16T15:10:54Z</time>
      </trkpt>
      <trkpt lat="45.05345" lon="5.64714">
        <ele>943.2</ele>
        <time>2021-01-16T15:10:55Z</time>
      </trkpt>
      <trkpt lat="45.05345" lon="5.64716">
        <ele>942.6</ele>
        <time>2021-01-16T15:10:56Z</time>
      </trkpt>
      <trkpt lat="45.05346" lon="5.64718">
        <ele>942.6</ele>
        <time>2021-01-16T15:10:57Z</time>
      </trkpt>
      <trkpt lat="45.05346" lon="5.64719">
        <ele>942</ele>
        <time>2021-01-16T15:10:58Z</time>
      </trkpt>
      <trkpt lat="45.05347" lon="5.64721">
        <ele>941.4</ele>
        <time>2021-01-16T15:10:59Z</time>
      </trkpt>
      <trkpt lat="45.05347" lon="5.64723">
        <ele>941</ele>
        <time>2021-01-16T15:11:00Z</time>
      </trkpt>
      <trkpt lat="45.05348" lon="5.64724">
        <ele>940.2</ele>
        <time>2021-01-16T15:11:01Z</time>
      </trkpt>
      <trkpt lat="45.05349" lon="5.64726">
        <ele>939.6</ele>
        <time>2021-01-16T15:11:02Z</time>
      </trkpt>
      <trkpt lat="45.05349" lon="5.64728">
        <ele>939</ele>
        <time>2021-01-16T15:11:03Z</time>
      </trkpt>
      <trkpt lat="45.05349" lon="5.6473">
        <ele>938.4</ele>
        <time>2021-01-16T15:11:04Z</time>
      </trkpt>
      <trkpt lat="45.05349" lon="5.6473">
        <ele>937.8</ele>
        <time>2021-01-16T15:11:05Z</time>
      </trkpt>
      <trkpt lat="45.05349" lon="5.6473">
        <ele>937.6</ele>
        <time>2021-01-16T15:11:06Z</time>
      </trkpt>
      <trkpt lat="45.05349" lon="5.6473">
        <ele>937.4</ele>
        <time>2021-01-16T15:11:07Z</time>
      </trkpt>
      <trkpt lat="45.05349" lon="5.6473">
        <ele>937.2</ele>
        <time>2021-01-16T15:11:08Z</time>
      </trkpt>
      <trkpt lat="45.05349" lon="5.6473">
        <ele>937</ele>
        <time>2021-01-16T15:11:09Z</time>
      </trkpt>
      <trkpt lat="45.05351" lon="5.6473">
        <ele>936.8</ele>
        <time>2021-01-16T15:11:10Z</time>
      </trkpt>
      <trkpt lat="45.05351" lon="5.6473">
        <ele>936.6</ele>
        <time>2021-01-16T15:11:11Z</time>
      </trkpt>
      <trkpt lat="45.05353" lon="5.64731">
        <ele>936.4</ele>
        <time>2021-01-16T15:11:12Z</time>
      </trkpt>
      <trkpt lat="45.05353" lon="5.64731">
        <ele>935.8</ele>
        <time>2021-01-16T15:11:13Z</time>
      </trkpt>
      <trkpt lat="45.05355" lon="5.64732">
        <ele>935.8</ele>
        <time>2021-01-16T15:11:14Z</time>
      </trkpt>
      <trkpt lat="45.05355" lon="5.64732">
        <ele>935.2</ele>
        <time>2021-01-16T15:11:15Z</time>
      </trkpt>
      <trkpt lat="45.05355" lon="5.64732">
        <ele>934.8</ele>
        <time>2021-01-16T15:11:16Z</time>
      </trkpt>
      <trkpt lat="45.05355" lon="5.64734">
        <ele>934.6</ele>
        <time>2021-01-16T15:11:17Z</time>
      </trkpt>
      <trkpt lat="45.05356" lon="5.64735">
        <ele>934.6</ele>
        <time>2021-01-16T15:11:18Z</time>
      </trkpt>
      <trkpt lat="45.05356" lon="5.64736">
        <ele>933.8</ele>
        <time>2021-01-16T15:11:19Z</time>
      </trkpt>
      <trkpt lat="45.05356" lon="5.64737">
        <ele>933.6</ele>
        <time>2021-01-16T15:11:20Z</time>
      </trkpt>
      <trkpt lat="45.05356" lon="5.64738">
        <ele>933.4</ele>
        <time>2021-01-16T15:11:21Z</time>
      </trkpt>
      <trkpt lat="45.05355" lon="5.64742">
        <ele>933</ele>
        <time>2021-01-16T15:11:22Z</time>
      </trkpt>
      <trkpt lat="45.05353" lon="5.64743">
        <ele>932</ele>
        <time>2021-01-16T15:11:23Z</time>
      </trkpt>
      <trkpt lat="45.05351" lon="5.64743">
        <ele>931.6</ele>
        <time>2021-01-16T15:11:24Z</time>
      </trkpt>
      <trkpt lat="45.05351" lon="5.64743">
        <ele>931</ele>
        <time>2021-01-16T15:11:25Z</time>
      </trkpt>
      <trkpt lat="45.05349" lon="5.64744">
        <ele>930.6</ele>
        <time>2021-01-16T15:11:26Z</time>
      </trkpt>
      <trkpt lat="45.05349" lon="5.64744">
        <ele>930.6</ele>
        <time>2021-01-16T15:11:27Z</time>
      </trkpt>
      <trkpt lat="45.05349" lon="5.64744">
        <ele>930.2</ele>
        <time>2021-01-16T15:11:28Z</time>
      </trkpt>
      <trkpt lat="45.05349" lon="5.64747">
        <ele>929.8</ele>
        <time>2021-01-16T15:11:29Z</time>
      </trkpt>
      <trkpt lat="45.05349" lon="5.64747">
        <ele>929.2</ele>
        <time>2021-01-16T15:11:30Z</time>
      </trkpt>
      <trkpt lat="45.05349" lon="5.64747">
        <ele>928.6</ele>
        <time>2021-01-16T15:11:31Z</time>
      </trkpt>
      <trkpt lat="45.0535" lon="5.64749">
        <ele>928</ele>
        <time>2021-01-16T15:11:32Z</time>
      </trkpt>
      <trkpt lat="45.0535" lon="5.64751">
        <ele>927.2</ele>
        <time>2021-01-16T15:11:33Z</time>
      </trkpt>
      <trkpt lat="45.05351" lon="5.64754">
        <ele>926.8</ele>
        <time>2021-01-16T15:11:34Z</time>
      </trkpt>
      <trkpt lat="45.05352" lon="5.64756">
        <ele>926.6</ele>
        <time>2021-01-16T15:11:35Z</time>
      </trkpt>
      <trkpt lat="45.05353" lon="5.64758">
        <ele>926</ele>
        <time>2021-01-16T15:11:36Z</time>
      </trkpt>
      <trkpt lat="45.05354" lon="5.6476">
        <ele>925.8</ele>
        <time>2021-01-16T15:11:37Z</time>
      </trkpt>
      <trkpt lat="45.05355" lon="5.64762">
        <ele>925.2</ele>
        <time>2021-01-16T15:11:38Z</time>
      </trkpt>
      <trkpt lat="45.05355" lon="5.64762">
        <ele>924.4</ele>
        <time>2021-01-16T15:11:39Z</time>
      </trkpt>
      <trkpt lat="45.05358" lon="5.64765">
        <ele>923.6</ele>
        <time>2021-01-16T15:11:40Z</time>
      </trkpt>
      <trkpt lat="45.05358" lon="5.64768">
        <ele>922.8</ele>
        <time>2021-01-16T15:11:41Z</time>
      </trkpt>
      <trkpt lat="45.05358" lon="5.64768">
        <ele>922.4</ele>
        <time>2021-01-16T15:11:42Z</time>
      </trkpt>
      <trkpt lat="45.05358" lon="5.64768">
        <ele>922.2</ele>
        <time>2021-01-16T15:11:43Z</time>
      </trkpt>
      <trkpt lat="45.05359" lon="5.64769">
        <ele>921.4</ele>
        <time>2021-01-16T15:11:44Z</time>
      </trkpt>
      <trkpt lat="45.0536" lon="5.64771">
        <ele>920.8</ele>
        <time>2021-01-16T15:11:45Z</time>
      </trkpt>
      <trkpt lat="45.05361" lon="5.64773">
        <ele>920.4</ele>
        <time>2021-01-16T15:11:46Z</time>
      </trkpt>
      <trkpt lat="45.05362" lon="5.64775">
        <ele>919.8</ele>
        <time>2021-01-16T15:11:47Z</time>
      </trkpt>
      <trkpt lat="45.05362" lon="5.64777">
        <ele>918.8</ele>
        <time>2021-01-16T15:11:48Z</time>
      </trkpt>
      <trkpt lat="45.05363" lon="5.64778">
        <ele>917.8</ele>
        <time>2021-01-16T15:11:49Z</time>
      </trkpt>
      <trkpt lat="45.05364" lon="5.6478">
        <ele>917.2</ele>
        <time>2021-01-16T15:11:50Z</time>
      </trkpt>
      <trkpt lat="45.05365" lon="5.64783">
        <ele>916.6</ele>
        <time>2021-01-16T15:11:51Z</time>
      </trkpt>
      <trkpt lat="45.05366" lon="5.64785">
        <ele>916</ele>
        <time>2021-01-16T15:11:52Z</time>
      </trkpt>
      <trkpt lat="45.05367" lon="5.64787">
        <ele>915.2</ele>
        <time>2021-01-16T15:11:53Z</time>
      </trkpt>
      <trkpt lat="45.05367" lon="5.6479">
        <ele>915</ele>
        <time>2021-01-16T15:11:54Z</time>
      </trkpt>
      <trkpt lat="45.05368" lon="5.64792">
        <ele>914.8</ele>
        <time>2021-01-16T15:11:55Z</time>
      </trkpt>
      <trkpt lat="45.05369" lon="5.64794">
        <ele>914.2</ele>
        <time>2021-01-16T15:11:56Z</time>
      </trkpt>
      <trkpt lat="45.0537" lon="5.64797">
        <ele>914</ele>
        <time>2021-01-16T15:11:57Z</time>
      </trkpt>
      <trkpt lat="45.05372" lon="5.64799">
        <ele>913.4</ele>
        <time>2021-01-16T15:11:58Z</time>
      </trkpt>
      <trkpt lat="45.05372" lon="5.64801">
        <ele>913</ele>
        <time>2021-01-16T15:11:59Z</time>
      </trkpt>
      <trkpt lat="45.05373" lon="5.64802">
        <ele>912</ele>
        <time>2021-01-16T15:12:00Z</time>
      </trkpt>
      <trkpt lat="45.05374" lon="5.64803">
        <ele>911.8</ele>
        <time>2021-01-16T15:12:01Z</time>
      </trkpt>
      <trkpt lat="45.05374" lon="5.64804">
        <ele>910.6</ele>
        <time>2021-01-16T15:12:02Z</time>
      </trkpt>
      <trkpt lat="45.05374" lon="5.64804">
        <ele>909.8</ele>
        <time>2021-01-16T15:12:03Z</time>
      </trkpt>
      <trkpt lat="45.05375" lon="5.64809">
        <ele>909.6</ele>
        <time>2021-01-16T15:12:04Z</time>
      </trkpt>
      <trkpt lat="45.05375" lon="5.64809">
        <ele>909</ele>
        <time>2021-01-16T15:12:05Z</time>
      </trkpt>
      <trkpt lat="45.05375" lon="5.64809">
        <ele>908.4</ele>
        <time>2021-01-16T15:12:06Z</time>
      </trkpt>
      <trkpt lat="45.05376" lon="5.64811">
        <ele>907.8</ele>
        <time>2021-01-16T15:12:07Z</time>
      </trkpt>
      <trkpt lat="45.05376" lon="5.64814">
        <ele>906.8</ele>
        <time>2021-01-16T15:12:08Z</time>
      </trkpt>
      <trkpt lat="45.05377" lon="5.64817">
        <ele>906.2</ele>
        <time>2021-01-16T15:12:09Z</time>
      </trkpt>
      <trkpt lat="45.05377" lon="5.64819">
        <ele>905.6</ele>
        <time>2021-01-16T15:12:10Z</time>
      </trkpt>
      <trkpt lat="45.05378" lon="5.64822">
        <ele>905</ele>
        <time>2021-01-16T15:12:11Z</time>
      </trkpt>
      <trkpt lat="45.05376" lon="5.64835">
        <ele>904</ele>
        <time>2021-01-16T15:12:12Z</time>
      </trkpt>
      <trkpt lat="45.05376" lon="5.64835">
        <ele>902.8</ele>
        <time>2021-01-16T15:12:13Z</time>
      </trkpt>
      <trkpt lat="45.05376" lon="5.64835">
        <ele>901.6</ele>
        <time>2021-01-16T15:12:14Z</time>
      </trkpt>
      <trkpt lat="45.05377" lon="5.64838">
        <ele>901.4</ele>
        <time>2021-01-16T15:12:15Z</time>
      </trkpt>
      <trkpt lat="45.05378" lon="5.64841">
        <ele>900.4</ele>
        <time>2021-01-16T15:12:16Z</time>
      </trkpt>
      <trkpt lat="45.05379" lon="5.64845">
        <ele>900</ele>
        <time>2021-01-16T15:12:17Z</time>
      </trkpt>
      <trkpt lat="45.0538" lon="5.64848">
        <ele>899</ele>
        <time>2021-01-16T15:12:18Z</time>
      </trkpt>
      <trkpt lat="45.05381" lon="5.64852">
        <ele>898</ele>
        <time>2021-01-16T15:12:19Z</time>
      </trkpt>
      <trkpt lat="45.05382" lon="5.64855">
        <ele>897</ele>
        <time>2021-01-16T15:12:20Z</time>
      </trkpt>
      <trkpt lat="45.05383" lon="5.64859">
        <ele>896.4</ele>
        <time>2021-01-16T15:12:21Z</time>
      </trkpt>
      <trkpt lat="45.05384" lon="5.64862">
        <ele>896</ele>
        <time>2021-01-16T15:12:22Z</time>
      </trkpt>
      <trkpt lat="45.05385" lon="5.64866">
        <ele>895.2</ele>
        <time>2021-01-16T15:12:23Z</time>
      </trkpt>
      <trkpt lat="45.05387" lon="5.64869">
        <ele>894.4</ele>
        <time>2021-01-16T15:12:24Z</time>
      </trkpt>
      <trkpt lat="45.05388" lon="5.64872">
        <ele>893.4</ele>
        <time>2021-01-16T15:12:25Z</time>
      </trkpt>
      <trkpt lat="45.05389" lon="5.64875">
        <ele>892.4</ele>
        <time>2021-01-16T15:12:26Z</time>
      </trkpt>
      <trkpt lat="45.0539" lon="5.64878">
        <ele>891.6</ele>
        <time>2021-01-16T15:12:27Z</time>
      </trkpt>
      <trkpt lat="45.05391" lon="5.64881">
        <ele>891.2</ele>
        <time>2021-01-16T15:12:28Z</time>
      </trkpt>
      <trkpt lat="45.05392" lon="5.64884">
        <ele>890.8</ele>
        <time>2021-01-16T15:12:29Z</time>
      </trkpt>
      <trkpt lat="45.05393" lon="5.64887">
        <ele>889.8</ele>
        <time>2021-01-16T15:12:30Z</time>
      </trkpt>
      <trkpt lat="45.05394" lon="5.64889">
        <ele>889.2</ele>
        <time>2021-01-16T15:12:31Z</time>
      </trkpt>
      <trkpt lat="45.05395" lon="5.64892">
        <ele>888.6</ele>
        <time>2021-01-16T15:12:32Z</time>
      </trkpt>
      <trkpt lat="45.05397" lon="5.64895">
        <ele>888.4</ele>
        <time>2021-01-16T15:12:33Z</time>
      </trkpt>
      <trkpt lat="45.05398" lon="5.64898">
        <ele>888</ele>
        <time>2021-01-16T15:12:34Z</time>
      </trkpt>
      <trkpt lat="45.054" lon="5.64901">
        <ele>888</ele>
        <time>2021-01-16T15:12:35Z</time>
      </trkpt>
      <trkpt lat="45.05402" lon="5.64904">
        <ele>887.6</ele>
        <time>2021-01-16T15:12:36Z</time>
      </trkpt>
      <trkpt lat="45.05404" lon="5.64907">
        <ele>887.8</ele>
        <time>2021-01-16T15:12:37Z</time>
      </trkpt>
      <trkpt lat="45.05406" lon="5.64909">
        <ele>887.6</ele>
        <time>2021-01-16T15:12:38Z</time>
      </trkpt>
      <trkpt lat="45.05407" lon="5.64912">
        <ele>887.8</ele>
        <time>2021-01-16T15:12:39Z</time>
      </trkpt>
      <trkpt lat="45.0541" lon="5.64915">
        <ele>887.4</ele>
        <time>2021-01-16T15:12:40Z</time>
      </trkpt>
      <trkpt lat="45.05412" lon="5.64917">
        <ele>887.8</ele>
        <time>2021-01-16T15:12:41Z</time>
      </trkpt>
      <trkpt lat="45.05414" lon="5.64919">
        <ele>887.4</ele>
        <time>2021-01-16T15:12:42Z</time>
      </trkpt>
      <trkpt lat="45.05416" lon="5.64922">
        <ele>887.6</ele>
        <time>2021-01-16T15:12:43Z</time>
      </trkpt>
      <trkpt lat="45.05417" lon="5.64924">
        <ele>887.2</ele>
        <time>2021-01-16T15:12:44Z</time>
      </trkpt>
      <trkpt lat="45.05418" lon="5.64927">
        <ele>886.8</ele>
        <time>2021-01-16T15:12:45Z</time>
      </trkpt>
      <trkpt lat="45.05419" lon="5.6493">
        <ele>886.2</ele>
        <time>2021-01-16T15:12:46Z</time>
      </trkpt>
      <trkpt lat="45.05421" lon="5.64933">
        <ele>885.4</ele>
        <time>2021-01-16T15:12:47Z</time>
      </trkpt>
      <trkpt lat="45.05423" lon="5.64937">
        <ele>884.8</ele>
        <time>2021-01-16T15:12:48Z</time>
      </trkpt>
      <trkpt lat="45.05424" lon="5.64941">
        <ele>884.6</ele>
        <time>2021-01-16T15:12:49Z</time>
      </trkpt>
      <trkpt lat="45.05426" lon="5.64945">
        <ele>883.6</ele>
        <time>2021-01-16T15:12:50Z</time>
      </trkpt>
      <trkpt lat="45.05428" lon="5.64949">
        <ele>882.8</ele>
        <time>2021-01-16T15:12:51Z</time>
      </trkpt>
      <trkpt lat="45.0543" lon="5.64952">
        <ele>882.2</ele>
        <time>2021-01-16T15:12:52Z</time>
      </trkpt>
      <trkpt lat="45.05432" lon="5.64954">
        <ele>881.6</ele>
        <time>2021-01-16T15:12:53Z</time>
      </trkpt>
      <trkpt lat="45.05434" lon="5.64957">
        <ele>881.2</ele>
        <time>2021-01-16T15:12:54Z</time>
      </trkpt>
      <trkpt lat="45.05434" lon="5.64957">
        <ele>880.4</ele>
        <time>2021-01-16T15:12:55Z</time>
      </trkpt>
      <trkpt lat="45.05434" lon="5.64957">
        <ele>879.4</ele>
        <time>2021-01-16T15:12:56Z</time>
      </trkpt>
      <trkpt lat="45.05435" lon="5.6496">
        <ele>878.4</ele>
        <time>2021-01-16T15:12:57Z</time>
      </trkpt>
      <trkpt lat="45.05437" lon="5.64963">
        <ele>877.6</ele>
        <time>2021-01-16T15:12:58Z</time>
      </trkpt>
      <trkpt lat="45.05439" lon="5.64965">
        <ele>877</ele>
        <time>2021-01-16T15:12:59Z</time>
      </trkpt>
      <trkpt lat="45.05441" lon="5.64968">
        <ele>877</ele>
        <time>2021-01-16T15:13:00Z</time>
      </trkpt>
      <trkpt lat="45.05441" lon="5.64972">
        <ele>877.4</ele>
        <time>2021-01-16T15:13:01Z</time>
      </trkpt>
      <trkpt lat="45.05442" lon="5.64975">
        <ele>877</ele>
        <time>2021-01-16T15:13:02Z</time>
      </trkpt>
      <trkpt lat="45.05443" lon="5.64978">
        <ele>877</ele>
        <time>2021-01-16T15:13:03Z</time>
      </trkpt>
      <trkpt lat="45.05444" lon="5.64981">
        <ele>876.6</ele>
        <time>2021-01-16T15:13:04Z</time>
      </trkpt>
      <trkpt lat="45.05445" lon="5.64983">
        <ele>876.6</ele>
        <time>2021-01-16T15:13:05Z</time>
      </trkpt>
      <trkpt lat="45.05446" lon="5.64986">
        <ele>876</ele>
        <time>2021-01-16T15:13:06Z</time>
      </trkpt>
      <trkpt lat="45.05448" lon="5.64988">
        <ele>875.8</ele>
        <time>2021-01-16T15:13:07Z</time>
      </trkpt>
      <trkpt lat="45.05449" lon="5.6499">
        <ele>875.6</ele>
        <time>2021-01-16T15:13:08Z</time>
      </trkpt>
      <trkpt lat="45.05451" lon="5.64992">
        <ele>874.6</ele>
        <time>2021-01-16T15:13:09Z</time>
      </trkpt>
      <trkpt lat="45.05453" lon="5.64998">
        <ele>874.2</ele>
        <time>2021-01-16T15:13:10Z</time>
      </trkpt>
      <trkpt lat="45.05453" lon="5.64998">
        <ele>873.4</ele>
        <time>2021-01-16T15:13:11Z</time>
      </trkpt>
      <trkpt lat="45.05453" lon="5.64998">
        <ele>873.2</ele>
        <time>2021-01-16T15:13:12Z</time>
      </trkpt>
      <trkpt lat="45.05454" lon="5.65">
        <ele>872.6</ele>
        <time>2021-01-16T15:13:13Z</time>
      </trkpt>
      <trkpt lat="45.05456" lon="5.65002">
        <ele>871.4</ele>
        <time>2021-01-16T15:13:14Z</time>
      </trkpt>
      <trkpt lat="45.05457" lon="5.65004">
        <ele>870.8</ele>
        <time>2021-01-16T15:13:15Z</time>
      </trkpt>
      <trkpt lat="45.05458" lon="5.65007">
        <ele>870.2</ele>
        <time>2021-01-16T15:13:16Z</time>
      </trkpt>
      <trkpt lat="45.05459" lon="5.65009">
        <ele>870</ele>
        <time>2021-01-16T15:13:17Z</time>
      </trkpt>
      <trkpt lat="45.0546" lon="5.65012">
        <ele>869</ele>
        <time>2021-01-16T15:13:18Z</time>
      </trkpt>
      <trkpt lat="45.05461" lon="5.65015">
        <ele>868</ele>
        <time>2021-01-16T15:13:19Z</time>
      </trkpt>
      <trkpt lat="45.05462" lon="5.65017">
        <ele>867.6</ele>
        <time>2021-01-16T15:13:20Z</time>
      </trkpt>
      <trkpt lat="45.05463" lon="5.6502">
        <ele>867</ele>
        <time>2021-01-16T15:13:21Z</time>
      </trkpt>
      <trkpt lat="45.05465" lon="5.65023">
        <ele>866.6</ele>
        <time>2021-01-16T15:13:22Z</time>
      </trkpt>
      <trkpt lat="45.05466" lon="5.65025">
        <ele>865.6</ele>
        <time>2021-01-16T15:13:23Z</time>
      </trkpt>
      <trkpt lat="45.05468" lon="5.65028">
        <ele>865.2</ele>
        <time>2021-01-16T15:13:24Z</time>
      </trkpt>
      <trkpt lat="45.05469" lon="5.65031">
        <ele>864</ele>
        <time>2021-01-16T15:13:25Z</time>
      </trkpt>
      <trkpt lat="45.0547" lon="5.65033">
        <ele>863.4</ele>
        <time>2021-01-16T15:13:26Z</time>
      </trkpt>
      <trkpt lat="45.05471" lon="5.65035">
        <ele>863</ele>
        <time>2021-01-16T15:13:27Z</time>
      </trkpt>
      <trkpt lat="45.05472" lon="5.65038">
        <ele>862.6</ele>
        <time>2021-01-16T15:13:28Z</time>
      </trkpt>
      <trkpt lat="45.05473" lon="5.6504">
        <ele>861.4</ele>
        <time>2021-01-16T15:13:29Z</time>
      </trkpt>
      <trkpt lat="45.05474" lon="5.65043">
        <ele>861.2</ele>
        <time>2021-01-16T15:13:30Z</time>
      </trkpt>
      <trkpt lat="45.05476" lon="5.65045">
        <ele>860.8</ele>
        <time>2021-01-16T15:13:31Z</time>
      </trkpt>
      <trkpt lat="45.05477" lon="5.65047">
        <ele>860.4</ele>
        <time>2021-01-16T15:13:32Z</time>
      </trkpt>
      <trkpt lat="45.05479" lon="5.65049">
        <ele>859.8</ele>
        <time>2021-01-16T15:13:33Z</time>
      </trkpt>
      <trkpt lat="45.0548" lon="5.65051">
        <ele>859.4</ele>
        <time>2021-01-16T15:13:34Z</time>
      </trkpt>
      <trkpt lat="45.05482" lon="5.65054">
        <ele>858.8</ele>
        <time>2021-01-16T15:13:35Z</time>
      </trkpt>
      <trkpt lat="45.05483" lon="5.65056">
        <ele>858.4</ele>
        <time>2021-01-16T15:13:36Z</time>
      </trkpt>
      <trkpt lat="45.05484" lon="5.65059">
        <ele>857.8</ele>
        <time>2021-01-16T15:13:37Z</time>
      </trkpt>
      <trkpt lat="45.05486" lon="5.65063">
        <ele>856.4</ele>
        <time>2021-01-16T15:13:38Z</time>
      </trkpt>
      <trkpt lat="45.05489" lon="5.65067">
        <ele>855.6</ele>
        <time>2021-01-16T15:13:39Z</time>
      </trkpt>
      <trkpt lat="45.05489" lon="5.65067">
        <ele>855</ele>
        <time>2021-01-16T15:13:40Z</time>
      </trkpt>
      <trkpt lat="45.05489" lon="5.65068">
        <ele>855</ele>
        <time>2021-01-16T15:13:41Z</time>
      </trkpt>
      <trkpt lat="45.0549" lon="5.65073">
        <ele>854.4</ele>
        <time>2021-01-16T15:13:42Z</time>
      </trkpt>
      <trkpt lat="45.05491" lon="5.65076">
        <ele>853.6</ele>
        <time>2021-01-16T15:13:43Z</time>
      </trkpt>
      <trkpt lat="45.05492" lon="5.65078">
        <ele>853</ele>
        <time>2021-01-16T15:13:44Z</time>
      </trkpt>
      <trkpt lat="45.05493" lon="5.65081">
        <ele>851.8</ele>
        <time>2021-01-16T15:13:45Z</time>
      </trkpt>
      <trkpt lat="45.05493" lon="5.65082">
        <ele>851.4</ele>
        <time>2021-01-16T15:13:46Z</time>
      </trkpt>
      <trkpt lat="45.05494" lon="5.65083">
        <ele>850.8</ele>
        <time>2021-01-16T15:13:47Z</time>
      </trkpt>
      <trkpt lat="45.05494" lon="5.65083">
        <ele>850</ele>
        <time>2021-01-16T15:13:48Z</time>
      </trkpt>
      <trkpt lat="45.05496" lon="5.65087">
        <ele>849.4</ele>
        <time>2021-01-16T15:13:49Z</time>
      </trkpt>
      <trkpt lat="45.05496" lon="5.65087">
        <ele>849</ele>
        <time>2021-01-16T15:13:50Z</time>
      </trkpt>
      <trkpt lat="45.05497" lon="5.65089">
        <ele>848.2</ele>
        <time>2021-01-16T15:13:51Z</time>
      </trkpt>
      <trkpt lat="45.05497" lon="5.65089">
        <ele>847.8</ele>
        <time>2021-01-16T15:13:52Z</time>
      </trkpt>
      <trkpt lat="45.055" lon="5.6509">
        <ele>847.2</ele>
        <time>2021-01-16T15:13:53Z</time>
      </trkpt>
      <trkpt lat="45.055" lon="5.6509">
        <ele>846.4</ele>
        <time>2021-01-16T15:13:54Z</time>
      </trkpt>
      <trkpt lat="45.05501" lon="5.65091">
        <ele>845.8</ele>
        <time>2021-01-16T15:13:55Z</time>
      </trkpt>
      <trkpt lat="45.05501" lon="5.65091">
        <ele>845</ele>
        <time>2021-01-16T15:13:56Z</time>
      </trkpt>
      <trkpt lat="45.05504" lon="5.65095">
        <ele>844.4</ele>
        <time>2021-01-16T15:13:57Z</time>
      </trkpt>
      <trkpt lat="45.05506" lon="5.65097">
        <ele>843.4</ele>
        <time>2021-01-16T15:13:58Z</time>
      </trkpt>
      <trkpt lat="45.05507" lon="5.65098">
        <ele>842.4</ele>
        <time>2021-01-16T15:13:59Z</time>
      </trkpt>
      <trkpt lat="45.05508" lon="5.65099">
        <ele>841.8</ele>
        <time>2021-01-16T15:14:00Z</time>
      </trkpt>
      <trkpt lat="45.05509" lon="5.651">
        <ele>841.4</ele>
        <time>2021-01-16T15:14:01Z</time>
      </trkpt>
      <trkpt lat="45.0551" lon="5.65102">
        <ele>841</ele>
        <time>2021-01-16T15:14:02Z</time>
      </trkpt>
      <trkpt lat="45.0551" lon="5.65102">
        <ele>840</ele>
        <time>2021-01-16T15:14:03Z</time>
      </trkpt>
      <trkpt lat="45.05512" lon="5.65103">
        <ele>839</ele>
        <time>2021-01-16T15:14:04Z</time>
      </trkpt>
      <trkpt lat="45.05512" lon="5.65103">
        <ele>838.2</ele>
        <time>2021-01-16T15:14:05Z</time>
      </trkpt>
      <trkpt lat="45.05515" lon="5.65106">
        <ele>837.2</ele>
        <time>2021-01-16T15:14:06Z</time>
      </trkpt>
      <trkpt lat="45.05515" lon="5.65106">
        <ele>836.6</ele>
        <time>2021-01-16T15:14:07Z</time>
      </trkpt>
      <trkpt lat="45.05515" lon="5.65111">
        <ele>835.6</ele>
        <time>2021-01-16T15:14:08Z</time>
      </trkpt>
      <trkpt lat="45.05515" lon="5.65111">
        <ele>834.8</ele>
        <time>2021-01-16T15:14:09Z</time>
      </trkpt>
      <trkpt lat="45.05515" lon="5.65116">
        <ele>834</ele>
        <time>2021-01-16T15:14:10Z</time>
      </trkpt>
      <trkpt lat="45.05515" lon="5.65116">
        <ele>833.2</ele>
        <time>2021-01-16T15:14:11Z</time>
      </trkpt>
      <trkpt lat="45.05515" lon="5.65121">
        <ele>832.6</ele>
        <time>2021-01-16T15:14:12Z</time>
      </trkpt>
      <trkpt lat="45.05515" lon="5.65124">
        <ele>831.6</ele>
        <time>2021-01-16T15:14:13Z</time>
      </trkpt>
      <trkpt lat="45.05515" lon="5.65124">
        <ele>831</ele>
        <time>2021-01-16T15:14:14Z</time>
      </trkpt>
      <trkpt lat="45.05517" lon="5.65128">
        <ele>830.2</ele>
        <time>2021-01-16T15:14:15Z</time>
      </trkpt>
      <trkpt lat="45.05518" lon="5.6513">
        <ele>829.6</ele>
        <time>2021-01-16T15:14:16Z</time>
      </trkpt>
      <trkpt lat="45.05517" lon="5.65133">
        <ele>829</ele>
        <time>2021-01-16T15:14:17Z</time>
      </trkpt>
      <trkpt lat="45.05517" lon="5.65137">
        <ele>828.4</ele>
        <time>2021-01-16T15:14:18Z</time>
      </trkpt>
      <trkpt lat="45.05517" lon="5.6514">
        <ele>827.6</ele>
        <time>2021-01-16T15:14:19Z</time>
      </trkpt>
      <trkpt lat="45.05517" lon="5.65143">
        <ele>827</ele>
        <time>2021-01-16T15:14:20Z</time>
      </trkpt>
      <trkpt lat="45.05516" lon="5.65147">
        <ele>826.6</ele>
        <time>2021-01-16T15:14:21Z</time>
      </trkpt>
      <trkpt lat="45.05516" lon="5.6515">
        <ele>826</ele>
        <time>2021-01-16T15:14:22Z</time>
      </trkpt>
      <trkpt lat="45.05515" lon="5.65153">
        <ele>825.2</ele>
        <time>2021-01-16T15:14:23Z</time>
      </trkpt>
      <trkpt lat="45.05515" lon="5.65153">
        <ele>824.2</ele>
        <time>2021-01-16T15:14:24Z</time>
      </trkpt>
      <trkpt lat="45.05515" lon="5.65153">
        <ele>823.6</ele>
        <time>2021-01-16T15:14:25Z</time>
      </trkpt>
      <trkpt lat="45.05515" lon="5.65156">
        <ele>822.2</ele>
        <time>2021-01-16T15:14:26Z</time>
      </trkpt>
      <trkpt lat="45.05515" lon="5.65159">
        <ele>821.2</ele>
        <time>2021-01-16T15:14:27Z</time>
      </trkpt>
      <trkpt lat="45.05514" lon="5.65161">
        <ele>820.6</ele>
        <time>2021-01-16T15:14:28Z</time>
      </trkpt>
      <trkpt lat="45.05514" lon="5.65164">
        <ele>819.8</ele>
        <time>2021-01-16T15:14:29Z</time>
      </trkpt>
      <trkpt lat="45.05514" lon="5.65167">
        <ele>819.2</ele>
        <time>2021-01-16T15:14:30Z</time>
      </trkpt>
      <trkpt lat="45.05514" lon="5.65169">
        <ele>818.6</ele>
        <time>2021-01-16T15:14:31Z</time>
      </trkpt>
      <trkpt lat="45.05515" lon="5.65171">
        <ele>818.2</ele>
        <time>2021-01-16T15:14:32Z</time>
      </trkpt>
      <trkpt lat="45.05515" lon="5.65173">
        <ele>817.4</ele>
        <time>2021-01-16T15:14:33Z</time>
      </trkpt>
      <trkpt lat="45.05516" lon="5.65175">
        <ele>816.8</ele>
        <time>2021-01-16T15:14:34Z</time>
      </trkpt>
      <trkpt lat="45.05516" lon="5.65177">
        <ele>816</ele>
        <time>2021-01-16T15:14:35Z</time>
      </trkpt>
      <trkpt lat="45.05517" lon="5.65179">
        <ele>815.6</ele>
        <time>2021-01-16T15:14:36Z</time>
      </trkpt>
      <trkpt lat="45.05517" lon="5.65182">
        <ele>815</ele>
        <time>2021-01-16T15:14:37Z</time>
      </trkpt>
      <trkpt lat="45.05518" lon="5.65184">
        <ele>814.4</ele>
        <time>2021-01-16T15:14:38Z</time>
      </trkpt>
      <trkpt lat="45.05518" lon="5.65187">
        <ele>813.4</ele>
        <time>2021-01-16T15:14:39Z</time>
      </trkpt>
      <trkpt lat="45.05519" lon="5.65189">
        <ele>812.6</ele>
        <time>2021-01-16T15:14:40Z</time>
      </trkpt>
      <trkpt lat="45.05519" lon="5.65192">
        <ele>812</ele>
        <time>2021-01-16T15:14:41Z</time>
      </trkpt>
      <trkpt lat="45.0552" lon="5.65194">
        <ele>811.2</ele>
        <time>2021-01-16T15:14:42Z</time>
      </trkpt>
      <trkpt lat="45.05521" lon="5.65197">
        <ele>810.6</ele>
        <time>2021-01-16T15:14:43Z</time>
      </trkpt>
      <trkpt lat="45.05522" lon="5.65199">
        <ele>809.8</ele>
        <time>2021-01-16T15:14:44Z</time>
      </trkpt>
      <trkpt lat="45.05522" lon="5.65202">
        <ele>809.2</ele>
        <time>2021-01-16T15:14:45Z</time>
      </trkpt>
      <trkpt lat="45.05523" lon="5.65204">
        <ele>808.2</ele>
        <time>2021-01-16T15:14:46Z</time>
      </trkpt>
      <trkpt lat="45.05524" lon="5.65207">
        <ele>807.2</ele>
        <time>2021-01-16T15:14:47Z</time>
      </trkpt>
      <trkpt lat="45.05525" lon="5.6521">
        <ele>807</ele>
        <time>2021-01-16T15:14:48Z</time>
      </trkpt>
      <trkpt lat="45.05526" lon="5.65213">
        <ele>806.6</ele>
        <time>2021-01-16T15:14:49Z</time>
      </trkpt>
      <trkpt lat="45.05527" lon="5.65216">
        <ele>806.8</ele>
        <time>2021-01-16T15:14:50Z</time>
      </trkpt>
      <trkpt lat="45.0553" lon="5.65218">
        <ele>806.6</ele>
        <time>2021-01-16T15:14:51Z</time>
      </trkpt>
      <trkpt lat="45.05532" lon="5.6522">
        <ele>806.6</ele>
        <time>2021-01-16T15:14:52Z</time>
      </trkpt>
      <trkpt lat="45.05534" lon="5.65223">
        <ele>806.2</ele>
        <time>2021-01-16T15:14:53Z</time>
      </trkpt>
      <trkpt lat="45.05536" lon="5.65225">
        <ele>806.2</ele>
        <time>2021-01-16T15:14:54Z</time>
      </trkpt>
      <trkpt lat="45.05538" lon="5.65227">
        <ele>806</ele>
        <time>2021-01-16T15:14:55Z</time>
      </trkpt>
      <trkpt lat="45.0554" lon="5.65229">
        <ele>805.8</ele>
        <time>2021-01-16T15:14:56Z</time>
      </trkpt>
      <trkpt lat="45.05543" lon="5.65231">
        <ele>805.6</ele>
        <time>2021-01-16T15:14:57Z</time>
      </trkpt>
      <trkpt lat="45.05545" lon="5.65233">
        <ele>805.6</ele>
        <time>2021-01-16T15:14:58Z</time>
      </trkpt>
      <trkpt lat="45.05547" lon="5.65234">
        <ele>805.2</ele>
        <time>2021-01-16T15:14:59Z</time>
      </trkpt>
      <trkpt lat="45.05549" lon="5.65235">
        <ele>805.6</ele>
        <time>2021-01-16T15:15:00Z</time>
      </trkpt>
      <trkpt lat="45.05551" lon="5.65236">
        <ele>805.4</ele>
        <time>2021-01-16T15:15:01Z</time>
      </trkpt>
      <trkpt lat="45.05553" lon="5.65237">
        <ele>805.6</ele>
        <time>2021-01-16T15:15:02Z</time>
      </trkpt>
      <trkpt lat="45.05555" lon="5.65239">
        <ele>805.2</ele>
        <time>2021-01-16T15:15:03Z</time>
      </trkpt>
      <trkpt lat="45.05557" lon="5.6524">
        <ele>805.6</ele>
        <time>2021-01-16T15:15:04Z</time>
      </trkpt>
      <trkpt lat="45.0556" lon="5.65241">
        <ele>805.2</ele>
        <time>2021-01-16T15:15:05Z</time>
      </trkpt>
      <trkpt lat="45.05563" lon="5.65243">
        <ele>805.2</ele>
        <time>2021-01-16T15:15:06Z</time>
      </trkpt>
      <trkpt lat="45.05565" lon="5.65244">
        <ele>804.8</ele>
        <time>2021-01-16T15:15:07Z</time>
      </trkpt>
      <trkpt lat="45.05568" lon="5.65246">
        <ele>804.8</ele>
        <time>2021-01-16T15:15:08Z</time>
      </trkpt>
      <trkpt lat="45.0557" lon="5.65247">
        <ele>804.4</ele>
        <time>2021-01-16T15:15:09Z</time>
      </trkpt>
      <trkpt lat="45.05573" lon="5.65249">
        <ele>804.6</ele>
        <time>2021-01-16T15:15:10Z</time>
      </trkpt>
      <trkpt lat="45.05576" lon="5.6525">
        <ele>804</ele>
        <time>2021-01-16T15:15:11Z</time>
      </trkpt>
      <trkpt lat="45.05578" lon="5.65251">
        <ele>804</ele>
        <time>2021-01-16T15:15:12Z</time>
      </trkpt>
      <trkpt lat="45.0558" lon="5.65252">
        <ele>803.6</ele>
        <time>2021-01-16T15:15:13Z</time>
      </trkpt>
      <trkpt lat="45.05582" lon="5.65253">
        <ele>803.4</ele>
        <time>2021-01-16T15:15:14Z</time>
      </trkpt>
      <trkpt lat="45.05585" lon="5.65254">
        <ele>803</ele>
        <time>2021-01-16T15:15:15Z</time>
      </trkpt>
      <trkpt lat="45.05587" lon="5.65255">
        <ele>802.8</ele>
        <time>2021-01-16T15:15:16Z</time>
      </trkpt>
      <trkpt lat="45.0559" lon="5.65254">
        <ele>802.6</ele>
        <time>2021-01-16T15:15:17Z</time>
      </trkpt>
      <trkpt lat="45.0559" lon="5.65254">
        <ele>802.8</ele>
        <time>2021-01-16T15:15:18Z</time>
      </trkpt>
      <trkpt lat="45.05592" lon="5.65252">
        <ele>802.6</ele>
        <time>2021-01-16T15:15:19Z</time>
      </trkpt>
      <trkpt lat="45.05592" lon="5.65252">
        <ele>802.4</ele>
        <time>2021-01-16T15:15:20Z</time>
      </trkpt>
      <trkpt lat="45.05594" lon="5.65251">
        <ele>802.4</ele>
        <time>2021-01-16T15:15:21Z</time>
      </trkpt>
      <trkpt lat="45.05594" lon="5.65251">
        <ele>802.6</ele>
        <time>2021-01-16T15:15:22Z</time>
      </trkpt>
      <trkpt lat="45.05594" lon="5.65251">
        <ele>802.6</ele>
        <time>2021-01-16T15:15:23Z</time>
      </trkpt>
      <trkpt lat="45.05594" lon="5.65251">
        <ele>802.8</ele>
        <time>2021-01-16T15:15:24Z</time>
      </trkpt>
      <trkpt lat="45.05594" lon="5.65251">
        <ele>802.8</ele>
        <time>2021-01-16T15:15:25Z</time>
      </trkpt>
      <trkpt lat="45.05594" lon="5.65251">
        <ele>803</ele>
        <time>2021-01-16T15:15:26Z</time>
      </trkpt>
      <trkpt lat="45.05594" lon="5.65251">
        <ele>803</ele>
        <time>2021-01-16T15:15:27Z</time>
      </trkpt>
      <trkpt lat="45.05594" lon="5.65251">
        <ele>803</ele>
        <time>2021-01-16T15:15:28Z</time>
      </trkpt>
      <trkpt lat="45.05594" lon="5.65251">
        <ele>803</ele>
        <time>2021-01-16T15:15:29Z</time>
      </trkpt>
      <trkpt lat="45.05594" lon="5.65251">
        <ele>802.8</ele>
        <time>2021-01-16T15:15:30Z</time>
      </trkpt>
      <trkpt lat="45.05592" lon="5.65251">
        <ele>802.8</ele>
        <time>2021-01-16T15:15:31Z</time>
      </trkpt>
      <trkpt lat="45.05592" lon="5.65251">
        <ele>802.8</ele>
        <time>2021-01-16T15:15:32Z</time>
      </trkpt>
      <trkpt lat="45.0559" lon="5.65253">
        <ele>803</ele>
        <time>2021-01-16T15:15:33Z</time>
      </trkpt>
      <trkpt lat="45.0559" lon="5.65253">
        <ele>803</ele>
        <time>2021-01-16T15:15:34Z</time>
      </trkpt>
      <trkpt lat="45.0559" lon="5.65253">
        <ele>803</ele>
        <time>2021-01-16T15:15:35Z</time>
      </trkpt>
      <trkpt lat="45.0559" lon="5.65253">
        <ele>802.8</ele>
        <time>2021-01-16T15:15:36Z</time>
      </trkpt>
      <trkpt lat="45.0559" lon="5.65253">
        <ele>802.8</ele>
        <time>2021-01-16T15:15:37Z</time>
      </trkpt>
      <trkpt lat="45.05587" lon="5.65253">
        <ele>802.8</ele>
        <time>2021-01-16T15:15:38Z</time>
      </trkpt>
      <trkpt lat="45.05587" lon="5.65253">
        <ele>802.8</ele>
        <time>2021-01-16T15:15:39Z</time>
      </trkpt>
      <trkpt lat="45.05585" lon="5.65252">
        <ele>803</ele>
        <time>2021-01-16T15:15:40Z</time>
      </trkpt>
      <trkpt lat="45.05585" lon="5.65252">
        <ele>803.2</ele>
        <time>2021-01-16T15:15:41Z</time>
      </trkpt>
      <trkpt lat="45.05585" lon="5.65252">
        <ele>803.2</ele>
        <time>2021-01-16T15:15:42Z</time>
      </trkpt>
      <trkpt lat="45.05585" lon="5.65252">
        <ele>803.4</ele>
        <time>2021-01-16T15:15:43Z</time>
      </trkpt>
      <trkpt lat="45.05585" lon="5.65252">
        <ele>803.6</ele>
        <time>2021-01-16T15:15:44Z</time>
      </trkpt>
      <trkpt lat="45.05585" lon="5.65252">
        <ele>803.8</ele>
        <time>2021-01-16T15:15:45Z</time>
      </trkpt>
      <trkpt lat="45.05585" lon="5.65252">
        <ele>804</ele>
        <time>2021-01-16T15:15:46Z</time>
      </trkpt>
      <trkpt lat="45.05585" lon="5.65252">
        <ele>804</ele>
        <time>2021-01-16T15:15:47Z</time>
      </trkpt>
      <trkpt lat="45.05585" lon="5.65252">
        <ele>804</ele>
        <time>2021-01-16T15:15:48Z</time>
      </trkpt>
      <trkpt lat="45.05585" lon="5.65252">
        <ele>804</ele>
        <time>2021-01-16T15:15:49Z</time>
      </trkpt>
      <trkpt lat="45.05585" lon="5.65252">
        <ele>804</ele>
        <time>2021-01-16T15:15:50Z</time>
      </trkpt>
      <trkpt lat="45.05585" lon="5.65252">
        <ele>804</ele>
        <time>2021-01-16T15:15:51Z</time>
      </trkpt>
      <trkpt lat="45.05587" lon="5.65251">
        <ele>804</ele>
        <time>2021-01-16T15:15:52Z</time>
      </trkpt>
      <trkpt lat="45.05587" lon="5.65251">
        <ele>803.8</ele>
        <time>2021-01-16T15:15:53Z</time>
      </trkpt>
      <trkpt lat="45.05589" lon="5.65253">
        <ele>803.8</ele>
        <time>2021-01-16T15:15:54Z</time>
      </trkpt>
      <trkpt lat="45.05589" lon="5.65253">
        <ele>803.4</ele>
        <time>2021-01-16T15:15:55Z</time>
      </trkpt>
      <trkpt lat="45.05591" lon="5.65254">
        <ele>803.4</ele>
        <time>2021-01-16T15:15:56Z</time>
      </trkpt>
      <trkpt lat="45.05591" lon="5.65254">
        <ele>803.2</ele>
        <time>2021-01-16T15:15:57Z</time>
      </trkpt>
      <trkpt lat="45.05594" lon="5.65257">
        <ele>802.8</ele>
        <time>2021-01-16T15:15:58Z</time>
      </trkpt>
      <trkpt lat="45.05594" lon="5.65257">
        <ele>802.8</ele>
        <time>2021-01-16T15:15:59Z</time>
      </trkpt>
      <trkpt lat="45.05596" lon="5.65259">
        <ele>802.6</ele>
        <time>2021-01-16T15:16:00Z</time>
      </trkpt>
      <trkpt lat="45.05596" lon="5.65259">
        <ele>802.6</ele>
        <time>2021-01-16T15:16:01Z</time>
      </trkpt>
      <trkpt lat="45.05599" lon="5.65261">
        <ele>802.4</ele>
        <time>2021-01-16T15:16:02Z</time>
      </trkpt>
      <trkpt lat="45.05599" lon="5.65261">
        <ele>802.4</ele>
        <time>2021-01-16T15:16:03Z</time>
      </trkpt>
      <trkpt lat="45.056" lon="5.65262">
        <ele>802.4</ele>
        <time>2021-01-16T15:16:04Z</time>
      </trkpt>
      <trkpt lat="45.056" lon="5.65262">
        <ele>802.6</ele>
        <time>2021-01-16T15:16:05Z</time>
      </trkpt>
      <trkpt lat="45.056" lon="5.65262">
        <ele>802.6</ele>
        <time>2021-01-16T15:16:06Z</time>
      </trkpt>
      <trkpt lat="45.056" lon="5.65262">
        <ele>802.6</ele>
        <time>2021-01-16T15:16:07Z</time>
      </trkpt>
      <trkpt lat="45.05601" lon="5.65265">
        <ele>802.6</ele>
        <time>2021-01-16T15:16:08Z</time>
      </trkpt>
      <trkpt lat="45.05601" lon="5.65265">
        <ele>802.6</ele>
        <time>2021-01-16T15:16:09Z</time>
      </trkpt>
      <trkpt lat="45.05602" lon="5.65268">
        <ele>802.6</ele>
        <time>2021-01-16T15:16:10Z</time>
      </trkpt>
      <trkpt lat="45.05602" lon="5.65268">
        <ele>802.4</ele>
        <time>2021-01-16T15:16:11Z</time>
      </trkpt>
      <trkpt lat="45.05604" lon="5.6527">
        <ele>802.2</ele>
        <time>2021-01-16T15:16:12Z</time>
      </trkpt>
      <trkpt lat="45.05604" lon="5.6527">
        <ele>802.2</ele>
        <time>2021-01-16T15:16:13Z</time>
      </trkpt>
      <trkpt lat="45.05605" lon="5.65273">
        <ele>802</ele>
        <time>2021-01-16T15:16:14Z</time>
      </trkpt>
      <trkpt lat="45.05605" lon="5.65273">
        <ele>801.6</ele>
        <time>2021-01-16T15:16:15Z</time>
      </trkpt>
      <trkpt lat="45.05607" lon="5.65276">
        <ele>801.4</ele>
        <time>2021-01-16T15:16:16Z</time>
      </trkpt>
      <trkpt lat="45.05607" lon="5.65276">
        <ele>801</ele>
        <time>2021-01-16T15:16:17Z</time>
      </trkpt>
      <trkpt lat="45.05608" lon="5.6528">
        <ele>800.8</ele>
        <time>2021-01-16T15:16:18Z</time>
      </trkpt>
      <trkpt lat="45.05608" lon="5.6528">
        <ele>800.2</ele>
        <time>2021-01-16T15:16:19Z</time>
      </trkpt>
      <trkpt lat="45.05611" lon="5.65283">
        <ele>800</ele>
        <time>2021-01-16T15:16:20Z</time>
      </trkpt>
      <trkpt lat="45.05613" lon="5.65285">
        <ele>799.6</ele>
        <time>2021-01-16T15:16:21Z</time>
      </trkpt>
      <trkpt lat="45.05614" lon="5.65287">
        <ele>799.2</ele>
        <time>2021-01-16T15:16:22Z</time>
      </trkpt>
      <trkpt lat="45.05615" lon="5.65289">
        <ele>798.6</ele>
        <time>2021-01-16T15:16:23Z</time>
      </trkpt>
      <trkpt lat="45.05616" lon="5.65292">
        <ele>798.4</ele>
        <time>2021-01-16T15:16:24Z</time>
      </trkpt>
      <trkpt lat="45.05617" lon="5.65295">
        <ele>797.8</ele>
        <time>2021-01-16T15:16:25Z</time>
      </trkpt>
      <trkpt lat="45.05619" lon="5.65297">
        <ele>797</ele>
        <time>2021-01-16T15:16:26Z</time>
      </trkpt>
      <trkpt lat="45.05621" lon="5.65298">
        <ele>796.2</ele>
        <time>2021-01-16T15:16:27Z</time>
      </trkpt>
      <trkpt lat="45.05623" lon="5.653">
        <ele>795</ele>
        <time>2021-01-16T15:16:28Z</time>
      </trkpt>
      <trkpt lat="45.05624" lon="5.65303">
        <ele>794.2</ele>
        <time>2021-01-16T15:16:29Z</time>
      </trkpt>
      <trkpt lat="45.05626" lon="5.65306">
        <ele>794.2</ele>
        <time>2021-01-16T15:16:30Z</time>
      </trkpt>
      <trkpt lat="45.05626" lon="5.65311">
        <ele>794</ele>
        <time>2021-01-16T15:16:31Z</time>
      </trkpt>
      <trkpt lat="45.05626" lon="5.65312">
        <ele>793.6</ele>
        <time>2021-01-16T15:16:32Z</time>
      </trkpt>
      <trkpt lat="45.05624" lon="5.65316">
        <ele>793</ele>
        <time>2021-01-16T15:16:33Z</time>
      </trkpt>
      <trkpt lat="45.05622" lon="5.65319">
        <ele>792.2</ele>
        <time>2021-01-16T15:16:34Z</time>
      </trkpt>
      <trkpt lat="45.05622" lon="5.65322">
        <ele>791.6</ele>
        <time>2021-01-16T15:16:35Z</time>
      </trkpt>
      <trkpt lat="45.05622" lon="5.65322">
        <ele>791.2</ele>
        <time>2021-01-16T15:16:36Z</time>
      </trkpt>
      <trkpt lat="45.0562" lon="5.65327">
        <ele>790</ele>
        <time>2021-01-16T15:16:37Z</time>
      </trkpt>
      <trkpt lat="45.05621" lon="5.6533">
        <ele>789</ele>
        <time>2021-01-16T15:16:38Z</time>
      </trkpt>
      <trkpt lat="45.05622" lon="5.65333">
        <ele>788.4</ele>
        <time>2021-01-16T15:16:39Z</time>
      </trkpt>
      <trkpt lat="45.05624" lon="5.65336">
        <ele>788</ele>
        <time>2021-01-16T15:16:40Z</time>
      </trkpt>
      <trkpt lat="45.05626" lon="5.65339">
        <ele>786.8</ele>
        <time>2021-01-16T15:16:41Z</time>
      </trkpt>
      <trkpt lat="45.05628" lon="5.65342">
        <ele>786.2</ele>
        <time>2021-01-16T15:16:42Z</time>
      </trkpt>
      <trkpt lat="45.0563" lon="5.65346">
        <ele>786</ele>
        <time>2021-01-16T15:16:43Z</time>
      </trkpt>
      <trkpt lat="45.05632" lon="5.65349">
        <ele>785.2</ele>
        <time>2021-01-16T15:16:44Z</time>
      </trkpt>
      <trkpt lat="45.05634" lon="5.65351">
        <ele>784.6</ele>
        <time>2021-01-16T15:16:45Z</time>
      </trkpt>
      <trkpt lat="45.05635" lon="5.65353">
        <ele>784</ele>
        <time>2021-01-16T15:16:46Z</time>
      </trkpt>
      <trkpt lat="45.0564" lon="5.65361">
        <ele>783.6</ele>
        <time>2021-01-16T15:16:47Z</time>
      </trkpt>
      <trkpt lat="45.05641" lon="5.65363">
        <ele>782.6</ele>
        <time>2021-01-16T15:16:48Z</time>
      </trkpt>
      <trkpt lat="45.05644" lon="5.65366">
        <ele>782</ele>
        <time>2021-01-16T15:16:49Z</time>
      </trkpt>
      <trkpt lat="45.05647" lon="5.65369">
        <ele>781.2</ele>
        <time>2021-01-16T15:16:50Z</time>
      </trkpt>
      <trkpt lat="45.0565" lon="5.65371">
        <ele>780.4</ele>
        <time>2021-01-16T15:16:51Z</time>
      </trkpt>
      <trkpt lat="45.05651" lon="5.65371">
        <ele>779.6</ele>
        <time>2021-01-16T15:16:52Z</time>
      </trkpt>
      <trkpt lat="45.05651" lon="5.65371">
        <ele>779.6</ele>
        <time>2021-01-16T15:16:53Z</time>
      </trkpt>
      <trkpt lat="45.05651" lon="5.65371">
        <ele>779.4</ele>
        <time>2021-01-16T15:16:54Z</time>
      </trkpt>
      <trkpt lat="45.05653" lon="5.65374">
        <ele>779.4</ele>
        <time>2021-01-16T15:16:55Z</time>
      </trkpt>
      <trkpt lat="45.05654" lon="5.65377">
        <ele>778.8</ele>
        <time>2021-01-16T15:16:56Z</time>
      </trkpt>
      <trkpt lat="45.05656" lon="5.65379">
        <ele>778.6</ele>
        <time>2021-01-16T15:16:57Z</time>
      </trkpt>
      <trkpt lat="45.05658" lon="5.65382">
        <ele>778.2</ele>
        <time>2021-01-16T15:16:58Z</time>
      </trkpt>
      <trkpt lat="45.05656" lon="5.65384">
        <ele>777.8</ele>
        <time>2021-01-16T15:16:59Z</time>
      </trkpt>
      <trkpt lat="45.05654" lon="5.65386">
        <ele>777.2</ele>
        <time>2021-01-16T15:17:00Z</time>
      </trkpt>
      <trkpt lat="45.05652" lon="5.65388">
        <ele>776.4</ele>
        <time>2021-01-16T15:17:01Z</time>
      </trkpt>
      <trkpt lat="45.0565" lon="5.65391">
        <ele>775.6</ele>
        <time>2021-01-16T15:17:02Z</time>
      </trkpt>
      <trkpt lat="45.05648" lon="5.65394">
        <ele>775.2</ele>
        <time>2021-01-16T15:17:03Z</time>
      </trkpt>
      <trkpt lat="45.05646" lon="5.65397">
        <ele>774.4</ele>
        <time>2021-01-16T15:17:04Z</time>
      </trkpt>
      <trkpt lat="45.05644" lon="5.65399">
        <ele>774</ele>
        <time>2021-01-16T15:17:05Z</time>
      </trkpt>
      <trkpt lat="45.05641" lon="5.65401">
        <ele>773.4</ele>
        <time>2021-01-16T15:17:06Z</time>
      </trkpt>
      <trkpt lat="45.05639" lon="5.65402">
        <ele>773</ele>
        <time>2021-01-16T15:17:07Z</time>
      </trkpt>
      <trkpt lat="45.05633" lon="5.65407">
        <ele>772.2</ele>
        <time>2021-01-16T15:17:08Z</time>
      </trkpt>
      <trkpt lat="45.05631" lon="5.65408">
        <ele>771.4</ele>
        <time>2021-01-16T15:17:09Z</time>
      </trkpt>
      <trkpt lat="45.05623" lon="5.6541">
        <ele>770.2</ele>
        <time>2021-01-16T15:17:10Z</time>
      </trkpt>
      <trkpt lat="45.05622" lon="5.65411">
        <ele>770</ele>
        <time>2021-01-16T15:17:11Z</time>
      </trkpt>
      <trkpt lat="45.05619" lon="5.65411">
        <ele>769</ele>
        <time>2021-01-16T15:17:12Z</time>
      </trkpt>
      <trkpt lat="45.05619" lon="5.65411">
        <ele>768.4</ele>
        <time>2021-01-16T15:17:13Z</time>
      </trkpt>
      <trkpt lat="45.05616" lon="5.6541">
        <ele>768</ele>
        <time>2021-01-16T15:17:14Z</time>
      </trkpt>
      <trkpt lat="45.05616" lon="5.6541">
        <ele>768</ele>
        <time>2021-01-16T15:17:15Z</time>
      </trkpt>
      <trkpt lat="45.05613" lon="5.6541">
        <ele>767.8</ele>
        <time>2021-01-16T15:17:16Z</time>
      </trkpt>
      <trkpt lat="45.05611" lon="5.65411">
        <ele>767.6</ele>
        <time>2021-01-16T15:17:17Z</time>
      </trkpt>
      <trkpt lat="45.05609" lon="5.65411">
        <ele>767.6</ele>
        <time>2021-01-16T15:17:18Z</time>
      </trkpt>
      <trkpt lat="45.05606" lon="5.65411">
        <ele>767.4</ele>
        <time>2021-01-16T15:17:19Z</time>
      </trkpt>
      <trkpt lat="45.05603" lon="5.65411">
        <ele>767.4</ele>
        <time>2021-01-16T15:17:20Z</time>
      </trkpt>
      <trkpt lat="45.056" lon="5.6541">
        <ele>767</ele>
        <time>2021-01-16T15:17:21Z</time>
      </trkpt>
      <trkpt lat="45.05597" lon="5.6541">
        <ele>767</ele>
        <time>2021-01-16T15:17:22Z</time>
      </trkpt>
      <trkpt lat="45.05594" lon="5.65409">
        <ele>766.4</ele>
        <time>2021-01-16T15:17:23Z</time>
      </trkpt>
      <trkpt lat="45.0559" lon="5.65407">
        <ele>766.2</ele>
        <time>2021-01-16T15:17:24Z</time>
      </trkpt>
      <trkpt lat="45.05587" lon="5.65406">
        <ele>765.4</ele>
        <time>2021-01-16T15:17:25Z</time>
      </trkpt>
      <trkpt lat="45.05584" lon="5.65405">
        <ele>765</ele>
        <time>2021-01-16T15:17:26Z</time>
      </trkpt>
      <trkpt lat="45.0558" lon="5.65404">
        <ele>764</ele>
        <time>2021-01-16T15:17:27Z</time>
      </trkpt>
      <trkpt lat="45.05577" lon="5.65403">
        <ele>763.4</ele>
        <time>2021-01-16T15:17:28Z</time>
      </trkpt>
      <trkpt lat="45.05575" lon="5.65403">
        <ele>762.6</ele>
        <time>2021-01-16T15:17:29Z</time>
      </trkpt>
      <trkpt lat="45.05574" lon="5.65402">
        <ele>762.2</ele>
        <time>2021-01-16T15:17:30Z</time>
      </trkpt>
      <trkpt lat="45.05572" lon="5.65402">
        <ele>761.2</ele>
        <time>2021-01-16T15:17:31Z</time>
      </trkpt>
      <trkpt lat="45.05571" lon="5.65401">
        <ele>760.6</ele>
        <time>2021-01-16T15:17:32Z</time>
      </trkpt>
      <trkpt lat="45.05567" lon="5.654">
        <ele>759.6</ele>
        <time>2021-01-16T15:17:33Z</time>
      </trkpt>
      <trkpt lat="45.05563" lon="5.65398">
        <ele>758.6</ele>
        <time>2021-01-16T15:17:34Z</time>
      </trkpt>
      <trkpt lat="45.05559" lon="5.65396">
        <ele>757.4</ele>
        <time>2021-01-16T15:17:35Z</time>
      </trkpt>
      <trkpt lat="45.05556" lon="5.65396">
        <ele>757</ele>
        <time>2021-01-16T15:17:36Z</time>
      </trkpt>
      <trkpt lat="45.05553" lon="5.65396">
        <ele>756.6</ele>
        <time>2021-01-16T15:17:37Z</time>
      </trkpt>
      <trkpt lat="45.0555" lon="5.65396">
        <ele>756.2</ele>
        <time>2021-01-16T15:17:38Z</time>
      </trkpt>
      <trkpt lat="45.05547" lon="5.65396">
        <ele>755.8</ele>
        <time>2021-01-16T15:17:39Z</time>
      </trkpt>
      <trkpt lat="45.05544" lon="5.65396">
        <ele>755</ele>
        <time>2021-01-16T15:17:40Z</time>
      </trkpt>
      <trkpt lat="45.05541" lon="5.65396">
        <ele>754</ele>
        <time>2021-01-16T15:17:41Z</time>
      </trkpt>
      <trkpt lat="45.05536" lon="5.65396">
        <ele>753</ele>
        <time>2021-01-16T15:17:42Z</time>
      </trkpt>
      <trkpt lat="45.05534" lon="5.65397">
        <ele>752</ele>
        <time>2021-01-16T15:17:43Z</time>
      </trkpt>
      <trkpt lat="45.05532" lon="5.65397">
        <ele>751.8</ele>
        <time>2021-01-16T15:17:44Z</time>
      </trkpt>
      <trkpt lat="45.05526" lon="5.65397">
        <ele>751</ele>
        <time>2021-01-16T15:17:45Z</time>
      </trkpt>
      <trkpt lat="45.05526" lon="5.65397">
        <ele>750.2</ele>
        <time>2021-01-16T15:17:46Z</time>
      </trkpt>
      <trkpt lat="45.05523" lon="5.65396">
        <ele>749.4</ele>
        <time>2021-01-16T15:17:47Z</time>
      </trkpt>
      <trkpt lat="45.05517" lon="5.65396">
        <ele>748.6</ele>
        <time>2021-01-16T15:17:48Z</time>
      </trkpt>
      <trkpt lat="45.05517" lon="5.65396">
        <ele>747.6</ele>
        <time>2021-01-16T15:17:49Z</time>
      </trkpt>
      <trkpt lat="45.05515" lon="5.65396">
        <ele>747.4</ele>
        <time>2021-01-16T15:17:50Z</time>
      </trkpt>
      <trkpt lat="45.05515" lon="5.65396">
        <ele>746.6</ele>
        <time>2021-01-16T15:17:51Z</time>
      </trkpt>
      <trkpt lat="45.05515" lon="5.65396">
        <ele>746.2</ele>
        <time>2021-01-16T15:17:52Z</time>
      </trkpt>
      <trkpt lat="45.05516" lon="5.65396">
        <ele>745.8</ele>
        <time>2021-01-16T15:17:53Z</time>
      </trkpt>
      <trkpt lat="45.05518" lon="5.65396">
        <ele>745.8</ele>
        <time>2021-01-16T15:17:54Z</time>
      </trkpt>
      <trkpt lat="45.05519" lon="5.65396">
        <ele>745.2</ele>
        <time>2021-01-16T15:17:55Z</time>
      </trkpt>
      <trkpt lat="45.0552" lon="5.65396">
        <ele>744.8</ele>
        <time>2021-01-16T15:17:56Z</time>
      </trkpt>
      <trkpt lat="45.05521" lon="5.65396">
        <ele>743.8</ele>
        <time>2021-01-16T15:17:57Z</time>
      </trkpt>
      <trkpt lat="45.05522" lon="5.65396">
        <ele>743</ele>
        <time>2021-01-16T15:17:58Z</time>
      </trkpt>
      <trkpt lat="45.05523" lon="5.65396">
        <ele>742.6</ele>
        <time>2021-01-16T15:17:59Z</time>
      </trkpt>
      <trkpt lat="45.05524" lon="5.65395">
        <ele>742.6</ele>
        <time>2021-01-16T15:18:00Z</time>
      </trkpt>
      <trkpt lat="45.05525" lon="5.65395">
        <ele>742.6</ele>
        <time>2021-01-16T15:18:01Z</time>
      </trkpt>
      <trkpt lat="45.05527" lon="5.65396">
        <ele>742.8</ele>
        <time>2021-01-16T15:18:02Z</time>
      </trkpt>
      <trkpt lat="45.05529" lon="5.65397">
        <ele>742.4</ele>
        <time>2021-01-16T15:18:03Z</time>
      </trkpt>
      <trkpt lat="45.0553" lon="5.65398">
        <ele>742.4</ele>
        <time>2021-01-16T15:18:04Z</time>
      </trkpt>
      <trkpt lat="45.05532" lon="5.654">
        <ele>742.6</ele>
        <time>2021-01-16T15:18:05Z</time>
      </trkpt>
      <trkpt lat="45.05534" lon="5.65401">
        <ele>742.8</ele>
        <time>2021-01-16T15:18:06Z</time>
      </trkpt>
      <trkpt lat="45.05536" lon="5.65402">
        <ele>743.4</ele>
        <time>2021-01-16T15:18:07Z</time>
      </trkpt>
      <trkpt lat="45.05538" lon="5.65404">
        <ele>743.6</ele>
        <time>2021-01-16T15:18:08Z</time>
      </trkpt>
      <trkpt lat="45.0554" lon="5.65405">
        <ele>744</ele>
        <time>2021-01-16T15:18:09Z</time>
      </trkpt>
      <trkpt lat="45.05542" lon="5.65407">
        <ele>743.8</ele>
        <time>2021-01-16T15:18:10Z</time>
      </trkpt>
      <trkpt lat="45.05543" lon="5.65408">
        <ele>744</ele>
        <time>2021-01-16T15:18:11Z</time>
      </trkpt>
      <trkpt lat="45.05545" lon="5.65409">
        <ele>743.8</ele>
        <time>2021-01-16T15:18:12Z</time>
      </trkpt>
      <trkpt lat="45.05547" lon="5.65411">
        <ele>744</ele>
        <time>2021-01-16T15:18:13Z</time>
      </trkpt>
      <trkpt lat="45.05548" lon="5.65412">
        <ele>744.2</ele>
        <time>2021-01-16T15:18:14Z</time>
      </trkpt>
      <trkpt lat="45.0555" lon="5.65414">
        <ele>744.4</ele>
        <time>2021-01-16T15:18:15Z</time>
      </trkpt>
      <trkpt lat="45.05548" lon="5.65414">
        <ele>744.2</ele>
        <time>2021-01-16T15:18:16Z</time>
      </trkpt>
      <trkpt lat="45.05546" lon="5.65414">
        <ele>744.2</ele>
        <time>2021-01-16T15:18:17Z</time>
      </trkpt>
      <trkpt lat="45.05545" lon="5.65415">
        <ele>743.8</ele>
        <time>2021-01-16T15:18:18Z</time>
      </trkpt>
      <trkpt lat="45.05543" lon="5.65415">
        <ele>743.6</ele>
        <time>2021-01-16T15:18:19Z</time>
      </trkpt>
      <trkpt lat="45.05542" lon="5.65415">
        <ele>742.6</ele>
        <time>2021-01-16T15:18:20Z</time>
      </trkpt>
      <trkpt lat="45.0554" lon="5.65415">
        <ele>741.8</ele>
        <time>2021-01-16T15:18:21Z</time>
      </trkpt>
      <trkpt lat="45.05539" lon="5.65416">
        <ele>741.6</ele>
        <time>2021-01-16T15:18:22Z</time>
      </trkpt>
      <trkpt lat="45.05538" lon="5.65418">
        <ele>741</ele>
        <time>2021-01-16T15:18:23Z</time>
      </trkpt>
      <trkpt lat="45.05536" lon="5.65419">
        <ele>740.4</ele>
        <time>2021-01-16T15:18:24Z</time>
      </trkpt>
      <trkpt lat="45.05535" lon="5.65421">
        <ele>740.2</ele>
        <time>2021-01-16T15:18:25Z</time>
      </trkpt>
      <trkpt lat="45.05534" lon="5.65423">
        <ele>739.4</ele>
        <time>2021-01-16T15:18:26Z</time>
      </trkpt>
      <trkpt lat="45.05533" lon="5.65425">
        <ele>739</ele>
        <time>2021-01-16T15:18:27Z</time>
      </trkpt>
      <trkpt lat="45.05532" lon="5.65426">
        <ele>738</ele>
        <time>2021-01-16T15:18:28Z</time>
      </trkpt>
      <trkpt lat="45.05532" lon="5.6543">
        <ele>737.8</ele>
        <time>2021-01-16T15:18:29Z</time>
      </trkpt>
      <trkpt lat="45.05532" lon="5.65433">
        <ele>737.2</ele>
        <time>2021-01-16T15:18:30Z</time>
      </trkpt>
      <trkpt lat="45.05532" lon="5.65437">
        <ele>736.6</ele>
        <time>2021-01-16T15:18:31Z</time>
      </trkpt>
      <trkpt lat="45.05532" lon="5.6544">
        <ele>735.8</ele>
        <time>2021-01-16T15:18:32Z</time>
      </trkpt>
      <trkpt lat="45.05532" lon="5.65444">
        <ele>735.4</ele>
        <time>2021-01-16T15:18:33Z</time>
      </trkpt>
      <trkpt lat="45.05533" lon="5.65448">
        <ele>734.6</ele>
        <time>2021-01-16T15:18:34Z</time>
      </trkpt>
      <trkpt lat="45.05533" lon="5.65452">
        <ele>734</ele>
        <time>2021-01-16T15:18:35Z</time>
      </trkpt>
      <trkpt lat="45.05533" lon="5.65456">
        <ele>733.2</ele>
        <time>2021-01-16T15:18:36Z</time>
      </trkpt>
      <trkpt lat="45.05534" lon="5.65459">
        <ele>732.6</ele>
        <time>2021-01-16T15:18:37Z</time>
      </trkpt>
      <trkpt lat="45.05535" lon="5.65463">
        <ele>731.8</ele>
        <time>2021-01-16T15:18:38Z</time>
      </trkpt>
      <trkpt lat="45.05536" lon="5.65466">
        <ele>731</ele>
        <time>2021-01-16T15:18:39Z</time>
      </trkpt>
      <trkpt lat="45.05537" lon="5.6547">
        <ele>730.2</ele>
        <time>2021-01-16T15:18:40Z</time>
      </trkpt>
      <trkpt lat="45.05538" lon="5.65473">
        <ele>729.8</ele>
        <time>2021-01-16T15:18:41Z</time>
      </trkpt>
      <trkpt lat="45.05539" lon="5.65475">
        <ele>729.2</ele>
        <time>2021-01-16T15:18:42Z</time>
      </trkpt>
      <trkpt lat="45.0554" lon="5.65478">
        <ele>728.8</ele>
        <time>2021-01-16T15:18:43Z</time>
      </trkpt>
      <trkpt lat="45.05541" lon="5.65481">
        <ele>728</ele>
        <time>2021-01-16T15:18:44Z</time>
      </trkpt>
      <trkpt lat="45.05542" lon="5.65484">
        <ele>727</ele>
        <time>2021-01-16T15:18:45Z</time>
      </trkpt>
      <trkpt lat="45.05542" lon="5.65487">
        <ele>726.2</ele>
        <time>2021-01-16T15:18:46Z</time>
      </trkpt>
      <trkpt lat="45.05543" lon="5.6549">
        <ele>725.4</ele>
        <time>2021-01-16T15:18:47Z</time>
      </trkpt>
      <trkpt lat="45.05543" lon="5.65494">
        <ele>725</ele>
        <time>2021-01-16T15:18:48Z</time>
      </trkpt>
      <trkpt lat="45.05544" lon="5.65497">
        <ele>724.2</ele>
        <time>2021-01-16T15:18:49Z</time>
      </trkpt>
      <trkpt lat="45.05545" lon="5.655">
        <ele>723.2</ele>
        <time>2021-01-16T15:18:50Z</time>
      </trkpt>
      <trkpt lat="45.05543" lon="5.65501">
        <ele>722.4</ele>
        <time>2021-01-16T15:18:51Z</time>
      </trkpt>
      <trkpt lat="45.05541" lon="5.65503">
        <ele>722</ele>
        <time>2021-01-16T15:18:52Z</time>
      </trkpt>
      <trkpt lat="45.05539" lon="5.65504">
        <ele>721.4</ele>
        <time>2021-01-16T15:18:53Z</time>
      </trkpt>
      <trkpt lat="45.05537" lon="5.65505">
        <ele>721</ele>
        <time>2021-01-16T15:18:54Z</time>
      </trkpt>
      <trkpt lat="45.05536" lon="5.65506">
        <ele>720.2</ele>
        <time>2021-01-16T15:18:55Z</time>
      </trkpt>
      <trkpt lat="45.05532" lon="5.65507">
        <ele>719.4</ele>
        <time>2021-01-16T15:18:56Z</time>
      </trkpt>
      <trkpt lat="45.05528" lon="5.65507">
        <ele>718.8</ele>
        <time>2021-01-16T15:18:57Z</time>
      </trkpt>
      <trkpt lat="45.05524" lon="5.65508">
        <ele>718</ele>
        <time>2021-01-16T15:18:58Z</time>
      </trkpt>
      <trkpt lat="45.0552" lon="5.65508">
        <ele>716.8</ele>
        <time>2021-01-16T15:18:59Z</time>
      </trkpt>
      <trkpt lat="45.05518" lon="5.65507">
        <ele>716.4</ele>
        <time>2021-01-16T15:19:00Z</time>
      </trkpt>
      <trkpt lat="45.05517" lon="5.65507">
        <ele>715.4</ele>
        <time>2021-01-16T15:19:01Z</time>
      </trkpt>
      <trkpt lat="45.05515" lon="5.65506">
        <ele>717</ele>
        <time>2021-01-16T15:19:02Z</time>
      </trkpt>
      <trkpt lat="45.05515" lon="5.65506">
        <ele>715.4</ele>
        <time>2021-01-16T15:19:03Z</time>
      </trkpt>
      <trkpt lat="45.05515" lon="5.65506">
        <ele>714.4</ele>
        <time>2021-01-16T15:19:04Z</time>
      </trkpt>
      <trkpt lat="45.05515" lon="5.65507">
        <ele>713.8</ele>
        <time>2021-01-16T15:19:05Z</time>
      </trkpt>
      <trkpt lat="45.05514" lon="5.65507">
        <ele>713.4</ele>
        <time>2021-01-16T15:19:06Z</time>
      </trkpt>
      <trkpt lat="45.05513" lon="5.65508">
        <ele>713</ele>
        <time>2021-01-16T15:19:07Z</time>
      </trkpt>
      <trkpt lat="45.05512" lon="5.65508">
        <ele>712.6</ele>
        <time>2021-01-16T15:19:08Z</time>
      </trkpt>
      <trkpt lat="45.05511" lon="5.65509">
        <ele>711.8</ele>
        <time>2021-01-16T15:19:09Z</time>
      </trkpt>
      <trkpt lat="45.05511" lon="5.65509">
        <ele>711</ele>
        <time>2021-01-16T15:19:10Z</time>
      </trkpt>
      <trkpt lat="45.0551" lon="5.6551">
        <ele>710.2</ele>
        <time>2021-01-16T15:19:11Z</time>
      </trkpt>
      <trkpt lat="45.05509" lon="5.65511">
        <ele>710</ele>
        <time>2021-01-16T15:19:12Z</time>
      </trkpt>
      <trkpt lat="45.05508" lon="5.65511">
        <ele>710</ele>
        <time>2021-01-16T15:19:13Z</time>
      </trkpt>
      <trkpt lat="45.05507" lon="5.65512">
        <ele>709.6</ele>
        <time>2021-01-16T15:19:14Z</time>
      </trkpt>
      <trkpt lat="45.05505" lon="5.65512">
        <ele>709.2</ele>
        <time>2021-01-16T15:19:15Z</time>
      </trkpt>
      <trkpt lat="45.05503" lon="5.65513">
        <ele>708.2</ele>
        <time>2021-01-16T15:19:16Z</time>
      </trkpt>
      <trkpt lat="45.05501" lon="5.65514">
        <ele>707.2</ele>
        <time>2021-01-16T15:19:17Z</time>
      </trkpt>
      <trkpt lat="45.055" lon="5.65515">
        <ele>706.4</ele>
        <time>2021-01-16T15:19:18Z</time>
      </trkpt>
      <trkpt lat="45.05498" lon="5.65515">
        <ele>706.4</ele>
        <time>2021-01-16T15:19:19Z</time>
      </trkpt>
      <trkpt lat="45.05494" lon="5.65513">
        <ele>706</ele>
        <time>2021-01-16T15:19:20Z</time>
      </trkpt>
      <trkpt lat="45.05494" lon="5.65513">
        <ele>705.8</ele>
        <time>2021-01-16T15:19:21Z</time>
      </trkpt>
      <trkpt lat="45.05494" lon="5.65513">
        <ele>705.6</ele>
        <time>2021-01-16T15:19:22Z</time>
      </trkpt>
      <trkpt lat="45.05492" lon="5.65512">
        <ele>705.4</ele>
        <time>2021-01-16T15:19:23Z</time>
      </trkpt>
      <trkpt lat="45.0549" lon="5.65511">
        <ele>704.6</ele>
        <time>2021-01-16T15:19:24Z</time>
      </trkpt>
      <trkpt lat="45.05487" lon="5.65509">
        <ele>704</ele>
        <time>2021-01-16T15:19:25Z</time>
      </trkpt>
      <trkpt lat="45.05485" lon="5.65508">
        <ele>703.2</ele>
        <time>2021-01-16T15:19:26Z</time>
      </trkpt>
      <trkpt lat="45.05483" lon="5.65506">
        <ele>702.8</ele>
        <time>2021-01-16T15:19:27Z</time>
      </trkpt>
      <trkpt lat="45.05481" lon="5.65503">
        <ele>702</ele>
        <time>2021-01-16T15:19:28Z</time>
      </trkpt>
      <trkpt lat="45.05479" lon="5.65501">
        <ele>701.8</ele>
        <time>2021-01-16T15:19:29Z</time>
      </trkpt>
      <trkpt lat="45.05477" lon="5.65499">
        <ele>701</ele>
        <time>2021-01-16T15:19:30Z</time>
      </trkpt>
      <trkpt lat="45.05473" lon="5.65496">
        <ele>700.4</ele>
        <time>2021-01-16T15:19:31Z</time>
      </trkpt>
      <trkpt lat="45.05469" lon="5.65494">
        <ele>700.4</ele>
        <time>2021-01-16T15:19:32Z</time>
      </trkpt>
      <trkpt lat="45.05466" lon="5.65491">
        <ele>700</ele>
        <time>2021-01-16T15:19:33Z</time>
      </trkpt>
      <trkpt lat="45.05462" lon="5.65488">
        <ele>700</ele>
        <time>2021-01-16T15:19:34Z</time>
      </trkpt>
      <trkpt lat="45.05459" lon="5.65483">
        <ele>699.6</ele>
        <time>2021-01-16T15:19:35Z</time>
      </trkpt>
      <trkpt lat="45.05458" lon="5.6548">
        <ele>699.2</ele>
        <time>2021-01-16T15:19:36Z</time>
      </trkpt>
      <trkpt lat="45.05457" lon="5.65477">
        <ele>699</ele>
        <time>2021-01-16T15:19:37Z</time>
      </trkpt>
      <trkpt lat="45.05456" lon="5.65474">
        <ele>698.8</ele>
        <time>2021-01-16T15:19:38Z</time>
      </trkpt>
      <trkpt lat="45.05453" lon="5.65465">
        <ele>698.4</ele>
        <time>2021-01-16T15:19:39Z</time>
      </trkpt>
      <trkpt lat="45.05452" lon="5.65462">
        <ele>698.4</ele>
        <time>2021-01-16T15:19:40Z</time>
      </trkpt>
      <trkpt lat="45.05451" lon="5.65459">
        <ele>697.8</ele>
        <time>2021-01-16T15:19:41Z</time>
      </trkpt>
      <trkpt lat="45.0545" lon="5.65455">
        <ele>697.4</ele>
        <time>2021-01-16T15:19:42Z</time>
      </trkpt>
      <trkpt lat="45.05449" lon="5.65452">
        <ele>697.4</ele>
        <time>2021-01-16T15:19:43Z</time>
      </trkpt>
      <trkpt lat="45.05447" lon="5.65449">
        <ele>697</ele>
        <time>2021-01-16T15:19:44Z</time>
      </trkpt>
      <trkpt lat="45.05446" lon="5.65445">
        <ele>697.4</ele>
        <time>2021-01-16T15:19:45Z</time>
      </trkpt>
      <trkpt lat="45.05445" lon="5.65444">
        <ele>697.4</ele>
        <time>2021-01-16T15:19:46Z</time>
      </trkpt>
      <trkpt lat="45.05444" lon="5.65442">
        <ele>698</ele>
        <time>2021-01-16T15:19:47Z</time>
      </trkpt>
      <trkpt lat="45.05443" lon="5.65441">
        <ele>698</ele>
        <time>2021-01-16T15:19:48Z</time>
      </trkpt>
      <trkpt lat="45.0544" lon="5.65436">
        <ele>698.2</ele>
        <time>2021-01-16T15:19:49Z</time>
      </trkpt>
      <trkpt lat="45.05437" lon="5.65432">
        <ele>698</ele>
        <time>2021-01-16T15:19:50Z</time>
      </trkpt>
      <trkpt lat="45.05435" lon="5.65428">
        <ele>698.6</ele>
        <time>2021-01-16T15:19:51Z</time>
      </trkpt>
      <trkpt lat="45.05431" lon="5.65423">
        <ele>698.2</ele>
        <time>2021-01-16T15:19:52Z</time>
      </trkpt>
      <trkpt lat="45.05428" lon="5.65422">
        <ele>698.4</ele>
        <time>2021-01-16T15:19:53Z</time>
      </trkpt>
      <trkpt lat="45.05425" lon="5.6542">
        <ele>697.8</ele>
        <time>2021-01-16T15:19:54Z</time>
      </trkpt>
      <trkpt lat="45.05422" lon="5.65419">
        <ele>698</ele>
        <time>2021-01-16T15:19:55Z</time>
      </trkpt>
      <trkpt lat="45.0542" lon="5.65418">
        <ele>697.8</ele>
        <time>2021-01-16T15:19:56Z</time>
      </trkpt>
      <trkpt lat="45.05418" lon="5.65418">
        <ele>697.8</ele>
        <time>2021-01-16T15:19:57Z</time>
      </trkpt>
      <trkpt lat="45.05415" lon="5.65417">
        <ele>697.4</ele>
        <time>2021-01-16T15:19:58Z</time>
      </trkpt>
      <trkpt lat="45.05408" lon="5.65416">
        <ele>697.6</ele>
        <time>2021-01-16T15:19:59Z</time>
      </trkpt>
      <trkpt lat="45.05406" lon="5.65416">
        <ele>697.6</ele>
        <time>2021-01-16T15:20:00Z</time>
      </trkpt>
      <trkpt lat="45.05404" lon="5.65416">
        <ele>696.8</ele>
        <time>2021-01-16T15:20:01Z</time>
      </trkpt>
      <trkpt lat="45.05401" lon="5.65415">
        <ele>696.6</ele>
        <time>2021-01-16T15:20:02Z</time>
      </trkpt>
      <trkpt lat="45.05398" lon="5.65415">
        <ele>696.4</ele>
        <time>2021-01-16T15:20:03Z</time>
      </trkpt>
      <trkpt lat="45.05396" lon="5.65414">
        <ele>697</ele>
        <time>2021-01-16T15:20:04Z</time>
      </trkpt>
      <trkpt lat="45.05394" lon="5.65413">
        <ele>697.2</ele>
        <time>2021-01-16T15:20:05Z</time>
      </trkpt>
      <trkpt lat="45.05391" lon="5.65412">
        <ele>697.8</ele>
        <time>2021-01-16T15:20:06Z</time>
      </trkpt>
      <trkpt lat="45.05388" lon="5.65411">
        <ele>697.8</ele>
        <time>2021-01-16T15:20:07Z</time>
      </trkpt>
      <trkpt lat="45.05384" lon="5.65409">
        <ele>698</ele>
        <time>2021-01-16T15:20:08Z</time>
      </trkpt>
      <trkpt lat="45.05382" lon="5.65407">
        <ele>697.8</ele>
        <time>2021-01-16T15:20:09Z</time>
      </trkpt>
      <trkpt lat="45.05379" lon="5.65406">
        <ele>697.8</ele>
        <time>2021-01-16T15:20:10Z</time>
      </trkpt>
      <trkpt lat="45.05379" lon="5.65406">
        <ele>697.6</ele>
        <time>2021-01-16T15:20:11Z</time>
      </trkpt>
      <trkpt lat="45.05379" lon="5.65406">
        <ele>697.4</ele>
        <time>2021-01-16T15:20:12Z</time>
      </trkpt>
      <trkpt lat="45.05376" lon="5.65404">
        <ele>697.8</ele>
        <time>2021-01-16T15:20:13Z</time>
      </trkpt>
      <trkpt lat="45.05374" lon="5.65403">
        <ele>698.2</ele>
        <time>2021-01-16T15:20:14Z</time>
      </trkpt>
      <trkpt lat="45.05371" lon="5.65401">
        <ele>698.8</ele>
        <time>2021-01-16T15:20:15Z</time>
      </trkpt>
      <trkpt lat="45.05369" lon="5.65399">
        <ele>699</ele>
        <time>2021-01-16T15:20:16Z</time>
      </trkpt>
      <trkpt lat="45.05366" lon="5.65397">
        <ele>699.4</ele>
        <time>2021-01-16T15:20:17Z</time>
      </trkpt>
      <trkpt lat="45.05364" lon="5.65396">
        <ele>699</ele>
        <time>2021-01-16T15:20:18Z</time>
      </trkpt>
      <trkpt lat="45.05362" lon="5.65394">
        <ele>699.2</ele>
        <time>2021-01-16T15:20:19Z</time>
      </trkpt>
      <trkpt lat="45.0536" lon="5.65392">
        <ele>699.8</ele>
        <time>2021-01-16T15:20:20Z</time>
      </trkpt>
      <trkpt lat="45.05358" lon="5.65391">
        <ele>700</ele>
        <time>2021-01-16T15:20:21Z</time>
      </trkpt>
      <trkpt lat="45.05356" lon="5.65389">
        <ele>700.6</ele>
        <time>2021-01-16T15:20:22Z</time>
      </trkpt>
      <trkpt lat="45.05355" lon="5.65388">
        <ele>701</ele>
        <time>2021-01-16T15:20:23Z</time>
      </trkpt>
      <trkpt lat="45.05353" lon="5.65386">
        <ele>701.4</ele>
        <time>2021-01-16T15:20:24Z</time>
      </trkpt>
      <trkpt lat="45.05351" lon="5.65385">
        <ele>701.6</ele>
        <time>2021-01-16T15:20:25Z</time>
      </trkpt>
      <trkpt lat="45.05349" lon="5.65383">
        <ele>702</ele>
        <time>2021-01-16T15:20:26Z</time>
      </trkpt>
      <trkpt lat="45.05346" lon="5.65382">
        <ele>702.2</ele>
        <time>2021-01-16T15:20:27Z</time>
      </trkpt>
      <trkpt lat="45.05343" lon="5.6538">
        <ele>702.6</ele>
        <time>2021-01-16T15:20:28Z</time>
      </trkpt>
      <trkpt lat="45.05341" lon="5.65378">
        <ele>702.6</ele>
        <time>2021-01-16T15:20:29Z</time>
      </trkpt>
      <trkpt lat="45.05338" lon="5.65377">
        <ele>702.8</ele>
        <time>2021-01-16T15:20:30Z</time>
      </trkpt>
      <trkpt lat="45.05337" lon="5.65376">
        <ele>702.4</ele>
        <time>2021-01-16T15:20:31Z</time>
      </trkpt>
      <trkpt lat="45.05337" lon="5.65376">
        <ele>702</ele>
        <time>2021-01-16T15:20:32Z</time>
      </trkpt>
      <trkpt lat="45.05334" lon="5.65375">
        <ele>701.4</ele>
        <time>2021-01-16T15:20:33Z</time>
      </trkpt>
      <trkpt lat="45.0533" lon="5.65373">
        <ele>700.8</ele>
        <time>2021-01-16T15:20:34Z</time>
      </trkpt>
      <trkpt lat="45.05327" lon="5.65372">
        <ele>700.8</ele>
        <time>2021-01-16T15:20:35Z</time>
      </trkpt>
      <trkpt lat="45.05323" lon="5.6537">
        <ele>700.6</ele>
        <time>2021-01-16T15:20:36Z</time>
      </trkpt>
      <trkpt lat="45.05321" lon="5.65369">
        <ele>700.4</ele>
        <time>2021-01-16T15:20:37Z</time>
      </trkpt>
      <trkpt lat="45.0532" lon="5.65369">
        <ele>700.4</ele>
        <time>2021-01-16T15:20:38Z</time>
      </trkpt>
      <trkpt lat="45.05318" lon="5.65368">
        <ele>700.4</ele>
        <time>2021-01-16T15:20:39Z</time>
      </trkpt>
      <trkpt lat="45.05318" lon="5.65368">
        <ele>700.2</ele>
        <time>2021-01-16T15:20:40Z</time>
      </trkpt>
      <trkpt lat="45.05314" lon="5.65366">
        <ele>700.4</ele>
        <time>2021-01-16T15:20:41Z</time>
      </trkpt>
      <trkpt lat="45.05313" lon="5.65365">
        <ele>700.4</ele>
        <time>2021-01-16T15:20:42Z</time>
      </trkpt>
      <trkpt lat="45.05311" lon="5.65365">
        <ele>700.2</ele>
        <time>2021-01-16T15:20:43Z</time>
      </trkpt>
      <trkpt lat="45.05311" lon="5.65365">
        <ele>700.4</ele>
        <time>2021-01-16T15:20:44Z</time>
      </trkpt>
      <trkpt lat="45.05307" lon="5.65363">
        <ele>700.2</ele>
        <time>2021-01-16T15:20:45Z</time>
      </trkpt>
      <trkpt lat="45.05307" lon="5.65363">
        <ele>700.2</ele>
        <time>2021-01-16T15:20:46Z</time>
      </trkpt>
      <trkpt lat="45.05304" lon="5.65362">
        <ele>700.2</ele>
        <time>2021-01-16T15:20:47Z</time>
      </trkpt>
      <trkpt lat="45.05304" lon="5.65362">
        <ele>700</ele>
        <time>2021-01-16T15:20:48Z</time>
      </trkpt>
      <trkpt lat="45.05301" lon="5.65362">
        <ele>700</ele>
        <time>2021-01-16T15:20:49Z</time>
      </trkpt>
      <trkpt lat="45.05301" lon="5.65362">
        <ele>700</ele>
        <time>2021-01-16T15:20:50Z</time>
      </trkpt>
      <trkpt lat="45.05298" lon="5.65362">
        <ele>699.8</ele>
        <time>2021-01-16T15:20:51Z</time>
      </trkpt>
      <trkpt lat="45.05298" lon="5.65362">
        <ele>699.2</ele>
        <time>2021-01-16T15:20:52Z</time>
      </trkpt>
      <trkpt lat="45.05295" lon="5.6536">
        <ele>699.2</ele>
        <time>2021-01-16T15:20:53Z</time>
      </trkpt>
      <trkpt lat="45.05295" lon="5.6536">
        <ele>699.2</ele>
        <time>2021-01-16T15:20:54Z</time>
      </trkpt>
      <trkpt lat="45.05292" lon="5.6536">
        <ele>699.2</ele>
        <time>2021-01-16T15:20:55Z</time>
      </trkpt>
      <trkpt lat="45.05292" lon="5.6536">
        <ele>699</ele>
        <time>2021-01-16T15:20:56Z</time>
      </trkpt>
      <trkpt lat="45.05289" lon="5.65359">
        <ele>698.8</ele>
        <time>2021-01-16T15:20:57Z</time>
      </trkpt>
      <trkpt lat="45.05289" lon="5.65359">
        <ele>698.6</ele>
        <time>2021-01-16T15:20:58Z</time>
      </trkpt>
      <trkpt lat="45.05286" lon="5.65358">
        <ele>698.4</ele>
        <time>2021-01-16T15:20:59Z</time>
      </trkpt>
      <trkpt lat="45.05286" lon="5.65358">
        <ele>698.4</ele>
        <time>2021-01-16T15:21:00Z</time>
      </trkpt>
      <trkpt lat="45.05284" lon="5.65357">
        <ele>698.4</ele>
        <time>2021-01-16T15:21:01Z</time>
      </trkpt>
      <trkpt lat="45.05284" lon="5.65357">
        <ele>698</ele>
        <time>2021-01-16T15:21:02Z</time>
      </trkpt>
      <trkpt lat="45.05281" lon="5.65356">
        <ele>697.8</ele>
        <time>2021-01-16T15:21:03Z</time>
      </trkpt>
      <trkpt lat="45.05281" lon="5.65356">
        <ele>697.6</ele>
        <time>2021-01-16T15:21:04Z</time>
      </trkpt>
      <trkpt lat="45.05279" lon="5.65355">
        <ele>697.4</ele>
        <time>2021-01-16T15:21:05Z</time>
      </trkpt>
      <trkpt lat="45.05279" lon="5.65355">
        <ele>697.2</ele>
        <time>2021-01-16T15:21:06Z</time>
      </trkpt>
      <trkpt lat="45.05276" lon="5.65353">
        <ele>697</ele>
        <time>2021-01-16T15:21:07Z</time>
      </trkpt>
      <trkpt lat="45.05276" lon="5.65353">
        <ele>696.4</ele>
        <time>2021-01-16T15:21:08Z</time>
      </trkpt>
      <trkpt lat="45.05273" lon="5.65353">
        <ele>696.2</ele>
        <time>2021-01-16T15:21:09Z</time>
      </trkpt>
      <trkpt lat="45.05271" lon="5.65352">
        <ele>695.8</ele>
        <time>2021-01-16T15:21:10Z</time>
      </trkpt>
      <trkpt lat="45.05269" lon="5.65352">
        <ele>695</ele>
        <time>2021-01-16T15:21:11Z</time>
      </trkpt>
      <trkpt lat="45.05267" lon="5.65351">
        <ele>694.4</ele>
        <time>2021-01-16T15:21:12Z</time>
      </trkpt>
      <trkpt lat="45.05265" lon="5.65351">
        <ele>693.8</ele>
        <time>2021-01-16T15:21:13Z</time>
      </trkpt>
      <trkpt lat="45.05263" lon="5.65352">
        <ele>693.4</ele>
        <time>2021-01-16T15:21:14Z</time>
      </trkpt>
      <trkpt lat="45.0526" lon="5.65352">
        <ele>692.6</ele>
        <time>2021-01-16T15:21:15Z</time>
      </trkpt>
      <trkpt lat="45.05258" lon="5.65353">
        <ele>692.4</ele>
        <time>2021-01-16T15:21:16Z</time>
      </trkpt>
      <trkpt lat="45.05257" lon="5.65354">
        <ele>691.8</ele>
        <time>2021-01-16T15:21:17Z</time>
      </trkpt>
      <trkpt lat="45.05254" lon="5.65355">
        <ele>691</ele>
        <time>2021-01-16T15:21:18Z</time>
      </trkpt>
      <trkpt lat="45.05252" lon="5.65357">
        <ele>690</ele>
        <time>2021-01-16T15:21:19Z</time>
      </trkpt>
      <trkpt lat="45.0525" lon="5.65358">
        <ele>689.6</ele>
        <time>2021-01-16T15:21:20Z</time>
      </trkpt>
      <trkpt lat="45.05248" lon="5.6536">
        <ele>689</ele>
        <time>2021-01-16T15:21:21Z</time>
      </trkpt>
      <trkpt lat="45.05245" lon="5.65362">
        <ele>688.2</ele>
        <time>2021-01-16T15:21:22Z</time>
      </trkpt>
      <trkpt lat="45.05244" lon="5.65364">
        <ele>687.8</ele>
        <time>2021-01-16T15:21:23Z</time>
      </trkpt>
      <trkpt lat="45.05242" lon="5.65366">
        <ele>687.4</ele>
        <time>2021-01-16T15:21:24Z</time>
      </trkpt>
      <trkpt lat="45.05241" lon="5.65369">
        <ele>685.8</ele>
        <time>2021-01-16T15:21:25Z</time>
      </trkpt>
      <trkpt lat="45.05239" lon="5.6537">
        <ele>685.6</ele>
        <time>2021-01-16T15:21:26Z</time>
      </trkpt>
      <trkpt lat="45.05237" lon="5.65371">
        <ele>684.4</ele>
        <time>2021-01-16T15:21:27Z</time>
      </trkpt>
      <trkpt lat="45.05234" lon="5.65372">
        <ele>683.4</ele>
        <time>2021-01-16T15:21:28Z</time>
      </trkpt>
      <trkpt lat="45.05231" lon="5.65373">
        <ele>682.2</ele>
        <time>2021-01-16T15:21:29Z</time>
      </trkpt>
      <trkpt lat="45.05226" lon="5.65373">
        <ele>681.6</ele>
        <time>2021-01-16T15:21:30Z</time>
      </trkpt>
      <trkpt lat="45.05222" lon="5.65372">
        <ele>680.8</ele>
        <time>2021-01-16T15:21:31Z</time>
      </trkpt>
      <trkpt lat="45.05221" lon="5.65371">
        <ele>680.8</ele>
        <time>2021-01-16T15:21:32Z</time>
      </trkpt>
      <trkpt lat="45.05219" lon="5.6537">
        <ele>680.2</ele>
        <time>2021-01-16T15:21:33Z</time>
      </trkpt>
      <trkpt lat="45.05217" lon="5.6537">
        <ele>680.2</ele>
        <time>2021-01-16T15:21:34Z</time>
      </trkpt>
      <trkpt lat="45.05211" lon="5.65367">
        <ele>679.6</ele>
        <time>2021-01-16T15:21:35Z</time>
      </trkpt>
      <trkpt lat="45.05209" lon="5.65366">
        <ele>679.4</ele>
        <time>2021-01-16T15:21:36Z</time>
      </trkpt>
      <trkpt lat="45.05205" lon="5.65362">
        <ele>678.4</ele>
        <time>2021-01-16T15:21:37Z</time>
      </trkpt>
      <trkpt lat="45.05202" lon="5.65361">
        <ele>677.6</ele>
        <time>2021-01-16T15:21:38Z</time>
      </trkpt>
      <trkpt lat="45.05199" lon="5.65359">
        <ele>677.4</ele>
        <time>2021-01-16T15:21:39Z</time>
      </trkpt>
      <trkpt lat="45.05195" lon="5.65357">
        <ele>677</ele>
        <time>2021-01-16T15:21:40Z</time>
      </trkpt>
      <trkpt lat="45.05192" lon="5.65356">
        <ele>676.6</ele>
        <time>2021-01-16T15:21:41Z</time>
      </trkpt>
      <trkpt lat="45.0519" lon="5.65354">
        <ele>676.2</ele>
        <time>2021-01-16T15:21:42Z</time>
      </trkpt>
      <trkpt lat="45.05187" lon="5.65353">
        <ele>676</ele>
        <time>2021-01-16T15:21:43Z</time>
      </trkpt>
      <trkpt lat="45.05185" lon="5.65351">
        <ele>675.4</ele>
        <time>2021-01-16T15:21:44Z</time>
      </trkpt>
      <trkpt lat="45.05183" lon="5.6535">
        <ele>675.4</ele>
        <time>2021-01-16T15:21:45Z</time>
      </trkpt>
      <trkpt lat="45.0518" lon="5.65349">
        <ele>674.4</ele>
        <time>2021-01-16T15:21:46Z</time>
      </trkpt>
      <trkpt lat="45.05178" lon="5.65349">
        <ele>674.2</ele>
        <time>2021-01-16T15:21:47Z</time>
      </trkpt>
      <trkpt lat="45.05175" lon="5.65349">
        <ele>673.8</ele>
        <time>2021-01-16T15:21:48Z</time>
      </trkpt>
      <trkpt lat="45.05172" lon="5.6535">
        <ele>673</ele>
        <time>2021-01-16T15:21:49Z</time>
      </trkpt>
      <trkpt lat="45.05169" lon="5.65351">
        <ele>672.2</ele>
        <time>2021-01-16T15:21:50Z</time>
      </trkpt>
      <trkpt lat="45.05166" lon="5.65352">
        <ele>671.8</ele>
        <time>2021-01-16T15:21:51Z</time>
      </trkpt>
      <trkpt lat="45.05162" lon="5.65351">
        <ele>670.8</ele>
        <time>2021-01-16T15:21:52Z</time>
      </trkpt>
      <trkpt lat="45.05159" lon="5.65352">
        <ele>670.2</ele>
        <time>2021-01-16T15:21:53Z</time>
      </trkpt>
      <trkpt lat="45.05157" lon="5.65353">
        <ele>669.8</ele>
        <time>2021-01-16T15:21:54Z</time>
      </trkpt>
      <trkpt lat="45.05154" lon="5.65353">
        <ele>669.4</ele>
        <time>2021-01-16T15:21:55Z</time>
      </trkpt>
      <trkpt lat="45.05151" lon="5.65354">
        <ele>669.2</ele>
        <time>2021-01-16T15:21:56Z</time>
      </trkpt>
      <trkpt lat="45.05149" lon="5.65356">
        <ele>668.2</ele>
        <time>2021-01-16T15:21:57Z</time>
      </trkpt>
      <trkpt lat="45.05145" lon="5.6536">
        <ele>668.2</ele>
        <time>2021-01-16T15:21:58Z</time>
      </trkpt>
      <trkpt lat="45.05142" lon="5.65362">
        <ele>667.4</ele>
        <time>2021-01-16T15:21:59Z</time>
      </trkpt>
      <trkpt lat="45.0514" lon="5.65364">
        <ele>666.4</ele>
        <time>2021-01-16T15:22:00Z</time>
      </trkpt>
      <trkpt lat="45.05138" lon="5.65365">
        <ele>666</ele>
        <time>2021-01-16T15:22:01Z</time>
      </trkpt>
      <trkpt lat="45.05136" lon="5.65367">
        <ele>665.4</ele>
        <time>2021-01-16T15:22:02Z</time>
      </trkpt>
      <trkpt lat="45.05134" lon="5.65369">
        <ele>665</ele>
        <time>2021-01-16T15:22:03Z</time>
      </trkpt>
      <trkpt lat="45.05134" lon="5.65369">
        <ele>664.4</ele>
        <time>2021-01-16T15:22:04Z</time>
      </trkpt>
      <trkpt lat="45.05132" lon="5.65372">
        <ele>664</ele>
        <time>2021-01-16T15:22:05Z</time>
      </trkpt>
      <trkpt lat="45.0513" lon="5.65374">
        <ele>663.4</ele>
        <time>2021-01-16T15:22:06Z</time>
      </trkpt>
      <trkpt lat="45.0513" lon="5.65374">
        <ele>663.2</ele>
        <time>2021-01-16T15:22:07Z</time>
      </trkpt>
      <trkpt lat="45.0513" lon="5.65374">
        <ele>662.2</ele>
        <time>2021-01-16T15:22:08Z</time>
      </trkpt>
      <trkpt lat="45.05127" lon="5.65375">
        <ele>661.6</ele>
        <time>2021-01-16T15:22:09Z</time>
      </trkpt>
      <trkpt lat="45.05125" lon="5.65377">
        <ele>660.6</ele>
        <time>2021-01-16T15:22:10Z</time>
      </trkpt>
      <trkpt lat="45.05122" lon="5.65378">
        <ele>660.4</ele>
        <time>2021-01-16T15:22:11Z</time>
      </trkpt>
      <trkpt lat="45.0512" lon="5.6538">
        <ele>659.2</ele>
        <time>2021-01-16T15:22:12Z</time>
      </trkpt>
      <trkpt lat="45.05118" lon="5.6538">
        <ele>658.8</ele>
        <time>2021-01-16T15:22:13Z</time>
      </trkpt>
      <trkpt lat="45.05116" lon="5.6538">
        <ele>658</ele>
        <time>2021-01-16T15:22:14Z</time>
      </trkpt>
      <trkpt lat="45.05115" lon="5.6538">
        <ele>657.2</ele>
        <time>2021-01-16T15:22:15Z</time>
      </trkpt>
      <trkpt lat="45.05113" lon="5.6538">
        <ele>656.6</ele>
        <time>2021-01-16T15:22:16Z</time>
      </trkpt>
      <trkpt lat="45.05111" lon="5.6538">
        <ele>655.8</ele>
        <time>2021-01-16T15:22:17Z</time>
      </trkpt>
      <trkpt lat="45.05109" lon="5.6538">
        <ele>655</ele>
        <time>2021-01-16T15:22:18Z</time>
      </trkpt>
      <trkpt lat="45.05107" lon="5.65382">
        <ele>654.4</ele>
        <time>2021-01-16T15:22:19Z</time>
      </trkpt>
      <trkpt lat="45.05104" lon="5.65383">
        <ele>653.8</ele>
        <time>2021-01-16T15:22:20Z</time>
      </trkpt>
      <trkpt lat="45.05102" lon="5.65384">
        <ele>653.2</ele>
        <time>2021-01-16T15:22:21Z</time>
      </trkpt>
      <trkpt lat="45.051" lon="5.65385">
        <ele>652.6</ele>
        <time>2021-01-16T15:22:22Z</time>
      </trkpt>
      <trkpt lat="45.05097" lon="5.65388">
        <ele>652</ele>
        <time>2021-01-16T15:22:23Z</time>
      </trkpt>
      <trkpt lat="45.05094" lon="5.65391">
        <ele>651.2</ele>
        <time>2021-01-16T15:22:24Z</time>
      </trkpt>
      <trkpt lat="45.05091" lon="5.65394">
        <ele>650.6</ele>
        <time>2021-01-16T15:22:25Z</time>
      </trkpt>
      <trkpt lat="45.05088" lon="5.65397">
        <ele>649.6</ele>
        <time>2021-01-16T15:22:26Z</time>
      </trkpt>
      <trkpt lat="45.05085" lon="5.65401">
        <ele>648.8</ele>
        <time>2021-01-16T15:22:27Z</time>
      </trkpt>
      <trkpt lat="45.05084" lon="5.65402">
        <ele>648.6</ele>
        <time>2021-01-16T15:22:28Z</time>
      </trkpt>
      <trkpt lat="45.05081" lon="5.65406">
        <ele>648</ele>
        <time>2021-01-16T15:22:29Z</time>
      </trkpt>
      <trkpt lat="45.0508" lon="5.65408">
        <ele>648</ele>
        <time>2021-01-16T15:22:30Z</time>
      </trkpt>
      <trkpt lat="45.05078" lon="5.6541">
        <ele>647.4</ele>
        <time>2021-01-16T15:22:31Z</time>
      </trkpt>
      <trkpt lat="45.05077" lon="5.65413">
        <ele>647.2</ele>
        <time>2021-01-16T15:22:32Z</time>
      </trkpt>
      <trkpt lat="45.05076" lon="5.65414">
        <ele>646.6</ele>
        <time>2021-01-16T15:22:33Z</time>
      </trkpt>
      <trkpt lat="45.05075" lon="5.65415">
        <ele>646.4</ele>
        <time>2021-01-16T15:22:34Z</time>
      </trkpt>
      <trkpt lat="45.05074" lon="5.65417">
        <ele>646.2</ele>
        <time>2021-01-16T15:22:35Z</time>
      </trkpt>
      <trkpt lat="45.05072" lon="5.65421">
        <ele>645.6</ele>
        <time>2021-01-16T15:22:36Z</time>
      </trkpt>
      <trkpt lat="45.0507" lon="5.65424">
        <ele>645.4</ele>
        <time>2021-01-16T15:22:37Z</time>
      </trkpt>
      <trkpt lat="45.05068" lon="5.65427">
        <ele>644.8</ele>
        <time>2021-01-16T15:22:38Z</time>
      </trkpt>
      <trkpt lat="45.05067" lon="5.65429">
        <ele>644.6</ele>
        <time>2021-01-16T15:22:39Z</time>
      </trkpt>
      <trkpt lat="45.05066" lon="5.6543">
        <ele>644.4</ele>
        <time>2021-01-16T15:22:40Z</time>
      </trkpt>
      <trkpt lat="45.05065" lon="5.65431">
        <ele>644</ele>
        <time>2021-01-16T15:22:41Z</time>
      </trkpt>
      <trkpt lat="45.05064" lon="5.65432">
        <ele>643.8</ele>
        <time>2021-01-16T15:22:42Z</time>
      </trkpt>
      <trkpt lat="45.05061" lon="5.65436">
        <ele>643</ele>
        <time>2021-01-16T15:22:43Z</time>
      </trkpt>
      <trkpt lat="45.05058" lon="5.6544">
        <ele>643</ele>
        <time>2021-01-16T15:22:44Z</time>
      </trkpt>
      <trkpt lat="45.05055" lon="5.65443">
        <ele>642.6</ele>
        <time>2021-01-16T15:22:45Z</time>
      </trkpt>
      <trkpt lat="45.0505" lon="5.65448">
        <ele>642.4</ele>
        <time>2021-01-16T15:22:46Z</time>
      </trkpt>
      <trkpt lat="45.05048" lon="5.65449">
        <ele>641.8</ele>
        <time>2021-01-16T15:22:47Z</time>
      </trkpt>
      <trkpt lat="45.05046" lon="5.65451">
        <ele>641.6</ele>
        <time>2021-01-16T15:22:48Z</time>
      </trkpt>
      <trkpt lat="45.05044" lon="5.65452">
        <ele>640.8</ele>
        <time>2021-01-16T15:22:49Z</time>
      </trkpt>
      <trkpt lat="45.05043" lon="5.65453">
        <ele>640.4</ele>
        <time>2021-01-16T15:22:50Z</time>
      </trkpt>
      <trkpt lat="45.05036" lon="5.65456">
        <ele>639.8</ele>
        <time>2021-01-16T15:22:51Z</time>
      </trkpt>
      <trkpt lat="45.05034" lon="5.65457">
        <ele>639.2</ele>
        <time>2021-01-16T15:22:52Z</time>
      </trkpt>
      <trkpt lat="45.05031" lon="5.65458">
        <ele>638.2</ele>
        <time>2021-01-16T15:22:53Z</time>
      </trkpt>
      <trkpt lat="45.05027" lon="5.65458">
        <ele>638</ele>
        <time>2021-01-16T15:22:54Z</time>
      </trkpt>
      <trkpt lat="45.05024" lon="5.65458">
        <ele>637.2</ele>
        <time>2021-01-16T15:22:55Z</time>
      </trkpt>
      <trkpt lat="45.05021" lon="5.65458">
        <ele>636.6</ele>
        <time>2021-01-16T15:22:56Z</time>
      </trkpt>
      <trkpt lat="45.05018" lon="5.65459">
        <ele>635.6</ele>
        <time>2021-01-16T15:22:57Z</time>
      </trkpt>
      <trkpt lat="45.05015" lon="5.65459">
        <ele>635.2</ele>
        <time>2021-01-16T15:22:58Z</time>
      </trkpt>
      <trkpt lat="45.05011" lon="5.65459">
        <ele>634.4</ele>
        <time>2021-01-16T15:22:59Z</time>
      </trkpt>
      <trkpt lat="45.05008" lon="5.6546">
        <ele>634</ele>
        <time>2021-01-16T15:23:00Z</time>
      </trkpt>
      <trkpt lat="45.05005" lon="5.6546">
        <ele>633</ele>
        <time>2021-01-16T15:23:01Z</time>
      </trkpt>
      <trkpt lat="45.05002" lon="5.6546">
        <ele>632.2</ele>
        <time>2021-01-16T15:23:02Z</time>
      </trkpt>
      <trkpt lat="45.04999" lon="5.6546">
        <ele>631.2</ele>
        <time>2021-01-16T15:23:03Z</time>
      </trkpt>
      <trkpt lat="45.04996" lon="5.6546">
        <ele>630.6</ele>
        <time>2021-01-16T15:23:04Z</time>
      </trkpt>
      <trkpt lat="45.04993" lon="5.65459">
        <ele>629.2</ele>
        <time>2021-01-16T15:23:05Z</time>
      </trkpt>
      <trkpt lat="45.0499" lon="5.65458">
        <ele>628.2</ele>
        <time>2021-01-16T15:23:06Z</time>
      </trkpt>
      <trkpt lat="45.04987" lon="5.65457">
        <ele>627.8</ele>
        <time>2021-01-16T15:23:07Z</time>
      </trkpt>
      <trkpt lat="45.04987" lon="5.65457">
        <ele>627</ele>
        <time>2021-01-16T15:23:08Z</time>
      </trkpt>
      <trkpt lat="45.04987" lon="5.65457">
        <ele>626.2</ele>
        <time>2021-01-16T15:23:09Z</time>
      </trkpt>
      <trkpt lat="45.04987" lon="5.65459">
        <ele>625.6</ele>
        <time>2021-01-16T15:23:10Z</time>
      </trkpt>
      <trkpt lat="45.04987" lon="5.65461">
        <ele>624.8</ele>
        <time>2021-01-16T15:23:11Z</time>
      </trkpt>
      <trkpt lat="45.04987" lon="5.65463">
        <ele>624.4</ele>
        <time>2021-01-16T15:23:12Z</time>
      </trkpt>
      <trkpt lat="45.04988" lon="5.65465">
        <ele>623.6</ele>
        <time>2021-01-16T15:23:13Z</time>
      </trkpt>
      <trkpt lat="45.04988" lon="5.65467">
        <ele>623.2</ele>
        <time>2021-01-16T15:23:14Z</time>
      </trkpt>
      <trkpt lat="45.04988" lon="5.65468">
        <ele>622.4</ele>
        <time>2021-01-16T15:23:15Z</time>
      </trkpt>
      <trkpt lat="45.04989" lon="5.6547">
        <ele>621.8</ele>
        <time>2021-01-16T15:23:16Z</time>
      </trkpt>
      <trkpt lat="45.04991" lon="5.65473">
        <ele>621</ele>
        <time>2021-01-16T15:23:17Z</time>
      </trkpt>
      <trkpt lat="45.04993" lon="5.65475">
        <ele>620.6</ele>
        <time>2021-01-16T15:23:18Z</time>
      </trkpt>
      <trkpt lat="45.04996" lon="5.65477">
        <ele>619.6</ele>
        <time>2021-01-16T15:23:19Z</time>
      </trkpt>
      <trkpt lat="45.04998" lon="5.65479">
        <ele>619</ele>
        <time>2021-01-16T15:23:20Z</time>
      </trkpt>
      <trkpt lat="45.05" lon="5.65481">
        <ele>618.2</ele>
        <time>2021-01-16T15:23:21Z</time>
      </trkpt>
      <trkpt lat="45.05003" lon="5.65483">
        <ele>617.6</ele>
        <time>2021-01-16T15:23:22Z</time>
      </trkpt>
      <trkpt lat="45.05005" lon="5.65485">
        <ele>616.6</ele>
        <time>2021-01-16T15:23:23Z</time>
      </trkpt>
      <trkpt lat="45.05007" lon="5.65487">
        <ele>616</ele>
        <time>2021-01-16T15:23:24Z</time>
      </trkpt>
      <trkpt lat="45.05009" lon="5.65489">
        <ele>615.2</ele>
        <time>2021-01-16T15:23:25Z</time>
      </trkpt>
      <trkpt lat="45.05012" lon="5.65491">
        <ele>614.2</ele>
        <time>2021-01-16T15:23:26Z</time>
      </trkpt>
      <trkpt lat="45.05014" lon="5.65494">
        <ele>613.8</ele>
        <time>2021-01-16T15:23:27Z</time>
      </trkpt>
      <trkpt lat="45.05017" lon="5.65496">
        <ele>613</ele>
        <time>2021-01-16T15:23:28Z</time>
      </trkpt>
      <trkpt lat="45.05019" lon="5.65498">
        <ele>612.4</ele>
        <time>2021-01-16T15:23:29Z</time>
      </trkpt>
      <trkpt lat="45.05022" lon="5.655">
        <ele>611.4</ele>
        <time>2021-01-16T15:23:30Z</time>
      </trkpt>
      <trkpt lat="45.05024" lon="5.65503">
        <ele>610.6</ele>
        <time>2021-01-16T15:23:31Z</time>
      </trkpt>
      <trkpt lat="45.05026" lon="5.65505">
        <ele>609.4</ele>
        <time>2021-01-16T15:23:32Z</time>
      </trkpt>
      <trkpt lat="45.05029" lon="5.65507">
        <ele>608.4</ele>
        <time>2021-01-16T15:23:33Z</time>
      </trkpt>
      <trkpt lat="45.05031" lon="5.65509">
        <ele>607.8</ele>
        <time>2021-01-16T15:23:34Z</time>
      </trkpt>
      <trkpt lat="45.05033" lon="5.65512">
        <ele>606.8</ele>
        <time>2021-01-16T15:23:35Z</time>
      </trkpt>
      <trkpt lat="45.05035" lon="5.65514">
        <ele>606.2</ele>
        <time>2021-01-16T15:23:36Z</time>
      </trkpt>
      <trkpt lat="45.05038" lon="5.65516">
        <ele>605.4</ele>
        <time>2021-01-16T15:23:37Z</time>
      </trkpt>
      <trkpt lat="45.0504" lon="5.65518">
        <ele>604.8</ele>
        <time>2021-01-16T15:23:38Z</time>
      </trkpt>
      <trkpt lat="45.05042" lon="5.65521">
        <ele>603.6</ele>
        <time>2021-01-16T15:23:39Z</time>
      </trkpt>
      <trkpt lat="45.05045" lon="5.65523">
        <ele>602.6</ele>
        <time>2021-01-16T15:23:40Z</time>
      </trkpt>
      <trkpt lat="45.05046" lon="5.65525">
        <ele>602.2</ele>
        <time>2021-01-16T15:23:41Z</time>
      </trkpt>
      <trkpt lat="45.05048" lon="5.65528">
        <ele>601.2</ele>
        <time>2021-01-16T15:23:42Z</time>
      </trkpt>
      <trkpt lat="45.0505" lon="5.6553">
        <ele>600.6</ele>
        <time>2021-01-16T15:23:43Z</time>
      </trkpt>
      <trkpt lat="45.05051" lon="5.65532">
        <ele>600</ele>
        <time>2021-01-16T15:23:44Z</time>
      </trkpt>
      <trkpt lat="45.05057" lon="5.65543">
        <ele>598.8</ele>
        <time>2021-01-16T15:23:45Z</time>
      </trkpt>
      <trkpt lat="45.05059" lon="5.65546">
        <ele>597.6</ele>
        <time>2021-01-16T15:23:46Z</time>
      </trkpt>
      <trkpt lat="45.05062" lon="5.65549">
        <ele>596.4</ele>
        <time>2021-01-16T15:23:47Z</time>
      </trkpt>
      <trkpt lat="45.05064" lon="5.65552">
        <ele>595.2</ele>
        <time>2021-01-16T15:23:48Z</time>
      </trkpt>
      <trkpt lat="45.05067" lon="5.65554">
        <ele>594.4</ele>
        <time>2021-01-16T15:23:49Z</time>
      </trkpt>
      <trkpt lat="45.05069" lon="5.65557">
        <ele>593.8</ele>
        <time>2021-01-16T15:23:50Z</time>
      </trkpt>
      <trkpt lat="45.05072" lon="5.65559">
        <ele>592.8</ele>
        <time>2021-01-16T15:23:51Z</time>
      </trkpt>
      <trkpt lat="45.05072" lon="5.65559">
        <ele>592.2</ele>
        <time>2021-01-16T15:23:52Z</time>
      </trkpt>
      <trkpt lat="45.05072" lon="5.65559">
        <ele>591.2</ele>
        <time>2021-01-16T15:23:53Z</time>
      </trkpt>
      <trkpt lat="45.05074" lon="5.65561">
        <ele>590.2</ele>
        <time>2021-01-16T15:23:54Z</time>
      </trkpt>
      <trkpt lat="45.05077" lon="5.65563">
        <ele>590</ele>
        <time>2021-01-16T15:23:55Z</time>
      </trkpt>
      <trkpt lat="45.05079" lon="5.65565">
        <ele>589.2</ele>
        <time>2021-01-16T15:23:56Z</time>
      </trkpt>
      <trkpt lat="45.05081" lon="5.65568">
        <ele>588.8</ele>
        <time>2021-01-16T15:23:57Z</time>
      </trkpt>
      <trkpt lat="45.05083" lon="5.65567">
        <ele>588</ele>
        <time>2021-01-16T15:23:58Z</time>
      </trkpt>
      <trkpt lat="45.05084" lon="5.65567">
        <ele>587.8</ele>
        <time>2021-01-16T15:23:59Z</time>
      </trkpt>
      <trkpt lat="45.05085" lon="5.65566">
        <ele>586.8</ele>
        <time>2021-01-16T15:24:00Z</time>
      </trkpt>
      <trkpt lat="45.05086" lon="5.65565">
        <ele>586.2</ele>
        <time>2021-01-16T15:24:01Z</time>
      </trkpt>
      <trkpt lat="45.05088" lon="5.65565">
        <ele>585.2</ele>
        <time>2021-01-16T15:24:02Z</time>
      </trkpt>
      <trkpt lat="45.05089" lon="5.65564">
        <ele>584.2</ele>
        <time>2021-01-16T15:24:03Z</time>
      </trkpt>
      <trkpt lat="45.0509" lon="5.65564">
        <ele>583.6</ele>
        <time>2021-01-16T15:24:04Z</time>
      </trkpt>
      <trkpt lat="45.05092" lon="5.65563">
        <ele>582.6</ele>
        <time>2021-01-16T15:24:05Z</time>
      </trkpt>
      <trkpt lat="45.05093" lon="5.65562">
        <ele>582.2</ele>
        <time>2021-01-16T15:24:06Z</time>
      </trkpt>
      <trkpt lat="45.05095" lon="5.65562">
        <ele>581.4</ele>
        <time>2021-01-16T15:24:07Z</time>
      </trkpt>
      <trkpt lat="45.05096" lon="5.65561">
        <ele>581</ele>
        <time>2021-01-16T15:24:08Z</time>
      </trkpt>
      <trkpt lat="45.05098" lon="5.65561">
        <ele>580</ele>
        <time>2021-01-16T15:24:09Z</time>
      </trkpt>
      <trkpt lat="45.05099" lon="5.6556">
        <ele>579.4</ele>
        <time>2021-01-16T15:24:10Z</time>
      </trkpt>
      <trkpt lat="45.05104" lon="5.65561">
        <ele>578.6</ele>
        <time>2021-01-16T15:24:11Z</time>
      </trkpt>
      <trkpt lat="45.05108" lon="5.65563">
        <ele>578</ele>
        <time>2021-01-16T15:24:12Z</time>
      </trkpt>
      <trkpt lat="45.05112" lon="5.65564">
        <ele>577.4</ele>
        <time>2021-01-16T15:24:13Z</time>
      </trkpt>
      <trkpt lat="45.05116" lon="5.65566">
        <ele>576.8</ele>
        <time>2021-01-16T15:24:14Z</time>
      </trkpt>
      <trkpt lat="45.05127" lon="5.65572">
        <ele>575.2</ele>
        <time>2021-01-16T15:24:15Z</time>
      </trkpt>
      <trkpt lat="45.05131" lon="5.65575">
        <ele>574.6</ele>
        <time>2021-01-16T15:24:16Z</time>
      </trkpt>
      <trkpt lat="45.05135" lon="5.65578">
        <ele>574.6</ele>
        <time>2021-01-16T15:24:17Z</time>
      </trkpt>
      <trkpt lat="45.05139" lon="5.65581">
        <ele>574</ele>
        <time>2021-01-16T15:24:18Z</time>
      </trkpt>
      <trkpt lat="45.05151" lon="5.6559">
        <ele>573.8</ele>
        <time>2021-01-16T15:24:19Z</time>
      </trkpt>
      <trkpt lat="45.05154" lon="5.65591">
        <ele>573</ele>
        <time>2021-01-16T15:24:20Z</time>
      </trkpt>
      <trkpt lat="45.05157" lon="5.65593">
        <ele>572.6</ele>
        <time>2021-01-16T15:24:21Z</time>
      </trkpt>
      <trkpt lat="45.05165" lon="5.65597">
        <ele>572</ele>
        <time>2021-01-16T15:24:22Z</time>
      </trkpt>
      <trkpt lat="45.05167" lon="5.65598">
        <ele>571.2</ele>
        <time>2021-01-16T15:24:23Z</time>
      </trkpt>
      <trkpt lat="45.05168" lon="5.65598">
        <ele>570</ele>
        <time>2021-01-16T15:24:24Z</time>
      </trkpt>
      <trkpt lat="45.05176" lon="5.65602">
        <ele>569.2</ele>
        <time>2021-01-16T15:24:25Z</time>
      </trkpt>
      <trkpt lat="45.05177" lon="5.65603">
        <ele>569.2</ele>
        <time>2021-01-16T15:24:26Z</time>
      </trkpt>
      <trkpt lat="45.05178" lon="5.65605">
        <ele>568.6</ele>
        <time>2021-01-16T15:24:27Z</time>
      </trkpt>
      <trkpt lat="45.05183" lon="5.65609">
        <ele>568.4</ele>
        <time>2021-01-16T15:24:28Z</time>
      </trkpt>
      <trkpt lat="45.05185" lon="5.65611">
        <ele>568</ele>
        <time>2021-01-16T15:24:29Z</time>
      </trkpt>
      <trkpt lat="45.05186" lon="5.65613">
        <ele>568</ele>
        <time>2021-01-16T15:24:30Z</time>
      </trkpt>
      <trkpt lat="45.05188" lon="5.65615">
        <ele>567.2</ele>
        <time>2021-01-16T15:24:31Z</time>
      </trkpt>
      <trkpt lat="45.05194" lon="5.65621">
        <ele>566.6</ele>
        <time>2021-01-16T15:24:32Z</time>
      </trkpt>
      <trkpt lat="45.05195" lon="5.65622">
        <ele>566</ele>
        <time>2021-01-16T15:24:33Z</time>
      </trkpt>
      <trkpt lat="45.05199" lon="5.65627">
        <ele>565.6</ele>
        <time>2021-01-16T15:24:34Z</time>
      </trkpt>
      <trkpt lat="45.05199" lon="5.65627">
        <ele>564.8</ele>
        <time>2021-01-16T15:24:35Z</time>
      </trkpt>
      <trkpt lat="45.05199" lon="5.65627">
        <ele>564</ele>
        <time>2021-01-16T15:24:36Z</time>
      </trkpt>
      <trkpt lat="45.05201" lon="5.6563">
        <ele>563</ele>
        <time>2021-01-16T15:24:37Z</time>
      </trkpt>
      <trkpt lat="45.05203" lon="5.65632">
        <ele>562.2</ele>
        <time>2021-01-16T15:24:38Z</time>
      </trkpt>
      <trkpt lat="45.05205" lon="5.65635">
        <ele>561.2</ele>
        <time>2021-01-16T15:24:39Z</time>
      </trkpt>
      <trkpt lat="45.05207" lon="5.65638">
        <ele>560.6</ele>
        <time>2021-01-16T15:24:40Z</time>
      </trkpt>
      <trkpt lat="45.05208" lon="5.65639">
        <ele>559.8</ele>
        <time>2021-01-16T15:24:41Z</time>
      </trkpt>
      <trkpt lat="45.0521" lon="5.6564">
        <ele>559.2</ele>
        <time>2021-01-16T15:24:42Z</time>
      </trkpt>
      <trkpt lat="45.05212" lon="5.65642">
        <ele>558</ele>
        <time>2021-01-16T15:24:43Z</time>
      </trkpt>
      <trkpt lat="45.05214" lon="5.65643">
        <ele>557</ele>
        <time>2021-01-16T15:24:44Z</time>
      </trkpt>
      <trkpt lat="45.05215" lon="5.65644">
        <ele>556.4</ele>
        <time>2021-01-16T15:24:45Z</time>
      </trkpt>
      <trkpt lat="45.05219" lon="5.65646">
        <ele>555.4</ele>
        <time>2021-01-16T15:24:46Z</time>
      </trkpt>
      <trkpt lat="45.05223" lon="5.65648">
        <ele>555.2</ele>
        <time>2021-01-16T15:24:47Z</time>
      </trkpt>
      <trkpt lat="45.05227" lon="5.6565">
        <ele>554.6</ele>
        <time>2021-01-16T15:24:48Z</time>
      </trkpt>
      <trkpt lat="45.05231" lon="5.65653">
        <ele>554.4</ele>
        <time>2021-01-16T15:24:49Z</time>
      </trkpt>
      <trkpt lat="45.05235" lon="5.65657">
        <ele>553.8</ele>
        <time>2021-01-16T15:24:50Z</time>
      </trkpt>
      <trkpt lat="45.05236" lon="5.6566">
        <ele>553.6</ele>
        <time>2021-01-16T15:24:51Z</time>
      </trkpt>
      <trkpt lat="45.05238" lon="5.65662">
        <ele>553</ele>
        <time>2021-01-16T15:24:52Z</time>
      </trkpt>
      <trkpt lat="45.0524" lon="5.65665">
        <ele>552.8</ele>
        <time>2021-01-16T15:24:53Z</time>
      </trkpt>
      <trkpt lat="45.05245" lon="5.65673">
        <ele>551.8</ele>
        <time>2021-01-16T15:24:54Z</time>
      </trkpt>
      <trkpt lat="45.05246" lon="5.65675">
        <ele>551.6</ele>
        <time>2021-01-16T15:24:55Z</time>
      </trkpt>
      <trkpt lat="45.05251" lon="5.65684">
        <ele>550.8</ele>
        <time>2021-01-16T15:24:56Z</time>
      </trkpt>
      <trkpt lat="45.05252" lon="5.65686">
        <ele>550.4</ele>
        <time>2021-01-16T15:24:57Z</time>
      </trkpt>
      <trkpt lat="45.05253" lon="5.65687">
        <ele>549.4</ele>
        <time>2021-01-16T15:24:58Z</time>
      </trkpt>
      <trkpt lat="45.05256" lon="5.65693">
        <ele>548.8</ele>
        <time>2021-01-16T15:24:59Z</time>
      </trkpt>
      <trkpt lat="45.05257" lon="5.65694">
        <ele>548.4</ele>
        <time>2021-01-16T15:25:00Z</time>
      </trkpt>
      <trkpt lat="45.05258" lon="5.65695">
        <ele>547.8</ele>
        <time>2021-01-16T15:25:01Z</time>
      </trkpt>
      <trkpt lat="45.05259" lon="5.65696">
        <ele>547.6</ele>
        <time>2021-01-16T15:25:02Z</time>
      </trkpt>
      <trkpt lat="45.05262" lon="5.657">
        <ele>546.6</ele>
        <time>2021-01-16T15:25:03Z</time>
      </trkpt>
      <trkpt lat="45.05265" lon="5.65704">
        <ele>546.4</ele>
        <time>2021-01-16T15:25:04Z</time>
      </trkpt>
      <trkpt lat="45.05268" lon="5.65707">
        <ele>545.6</ele>
        <time>2021-01-16T15:25:05Z</time>
      </trkpt>
      <trkpt lat="45.05273" lon="5.65711">
        <ele>545.6</ele>
        <time>2021-01-16T15:25:06Z</time>
      </trkpt>
      <trkpt lat="45.05273" lon="5.65711">
        <ele>544.8</ele>
        <time>2021-01-16T15:25:07Z</time>
      </trkpt>
      <trkpt lat="45.05273" lon="5.65711">
        <ele>544.6</ele>
        <time>2021-01-16T15:25:08Z</time>
      </trkpt>
      <trkpt lat="45.05275" lon="5.65713">
        <ele>543.6</ele>
        <time>2021-01-16T15:25:09Z</time>
      </trkpt>
      <trkpt lat="45.05277" lon="5.65715">
        <ele>543.4</ele>
        <time>2021-01-16T15:25:10Z</time>
      </trkpt>
      <trkpt lat="45.0528" lon="5.65717">
        <ele>542.4</ele>
        <time>2021-01-16T15:25:11Z</time>
      </trkpt>
      <trkpt lat="45.05282" lon="5.65718">
        <ele>542</ele>
        <time>2021-01-16T15:25:12Z</time>
      </trkpt>
      <trkpt lat="45.05284" lon="5.6572">
        <ele>541.2</ele>
        <time>2021-01-16T15:25:13Z</time>
      </trkpt>
      <trkpt lat="45.05286" lon="5.65722">
        <ele>540.6</ele>
        <time>2021-01-16T15:25:14Z</time>
      </trkpt>
      <trkpt lat="45.05288" lon="5.65723">
        <ele>539.8</ele>
        <time>2021-01-16T15:25:15Z</time>
      </trkpt>
      <trkpt lat="45.0529" lon="5.65725">
        <ele>539</ele>
        <time>2021-01-16T15:25:16Z</time>
      </trkpt>
      <trkpt lat="45.05294" lon="5.65728">
        <ele>538.2</ele>
        <time>2021-01-16T15:25:17Z</time>
      </trkpt>
      <trkpt lat="45.05297" lon="5.65732">
        <ele>537.2</ele>
        <time>2021-01-16T15:25:18Z</time>
      </trkpt>
      <trkpt lat="45.053" lon="5.65735">
        <ele>536.8</ele>
        <time>2021-01-16T15:25:19Z</time>
      </trkpt>
      <trkpt lat="45.05303" lon="5.65739">
        <ele>535.8</ele>
        <time>2021-01-16T15:25:20Z</time>
      </trkpt>
      <trkpt lat="45.05307" lon="5.65743">
        <ele>535.8</ele>
        <time>2021-01-16T15:25:21Z</time>
      </trkpt>
      <trkpt lat="45.05309" lon="5.65746">
        <ele>535.2</ele>
        <time>2021-01-16T15:25:22Z</time>
      </trkpt>
      <trkpt lat="45.05312" lon="5.65749">
        <ele>535</ele>
        <time>2021-01-16T15:25:23Z</time>
      </trkpt>
      <trkpt lat="45.05314" lon="5.65752">
        <ele>534.2</ele>
        <time>2021-01-16T15:25:24Z</time>
      </trkpt>
      <trkpt lat="45.05315" lon="5.65754">
        <ele>534.2</ele>
        <time>2021-01-16T15:25:25Z</time>
      </trkpt>
      <trkpt lat="45.05316" lon="5.65756">
        <ele>533.8</ele>
        <time>2021-01-16T15:25:26Z</time>
      </trkpt>
      <trkpt lat="45.05318" lon="5.65757">
        <ele>533.4</ele>
        <time>2021-01-16T15:25:27Z</time>
      </trkpt>
      <trkpt lat="45.05321" lon="5.65763">
        <ele>532.6</ele>
        <time>2021-01-16T15:25:28Z</time>
      </trkpt>
      <trkpt lat="45.05323" lon="5.65767">
        <ele>532.4</ele>
        <time>2021-01-16T15:25:29Z</time>
      </trkpt>
      <trkpt lat="45.05326" lon="5.6577">
        <ele>531.8</ele>
        <time>2021-01-16T15:25:30Z</time>
      </trkpt>
      <trkpt lat="45.0533" lon="5.65778">
        <ele>531.4</ele>
        <time>2021-01-16T15:25:31Z</time>
      </trkpt>
      <trkpt lat="45.05331" lon="5.6578">
        <ele>530.6</ele>
        <time>2021-01-16T15:25:32Z</time>
      </trkpt>
      <trkpt lat="45.05336" lon="5.65787">
        <ele>530.6</ele>
        <time>2021-01-16T15:25:33Z</time>
      </trkpt>
      <trkpt lat="45.05338" lon="5.65789">
        <ele>529.2</ele>
        <time>2021-01-16T15:25:34Z</time>
      </trkpt>
      <trkpt lat="45.05339" lon="5.65791">
        <ele>528.8</ele>
        <time>2021-01-16T15:25:35Z</time>
      </trkpt>
      <trkpt lat="45.05343" lon="5.65799">
        <ele>527.6</ele>
        <time>2021-01-16T15:25:36Z</time>
      </trkpt>
      <trkpt lat="45.05344" lon="5.65802">
        <ele>527</ele>
        <time>2021-01-16T15:25:37Z</time>
      </trkpt>
      <trkpt lat="45.05345" lon="5.65804">
        <ele>527.6</ele>
        <time>2021-01-16T15:25:38Z</time>
      </trkpt>
      <trkpt lat="45.0535" lon="5.65813">
        <ele>527.2</ele>
        <time>2021-01-16T15:25:39Z</time>
      </trkpt>
      <trkpt lat="45.05351" lon="5.65815">
        <ele>527.4</ele>
        <time>2021-01-16T15:25:40Z</time>
      </trkpt>
      <trkpt lat="45.05353" lon="5.65817">
        <ele>526.6</ele>
        <time>2021-01-16T15:25:41Z</time>
      </trkpt>
      <trkpt lat="45.05358" lon="5.65826">
        <ele>525.6</ele>
        <time>2021-01-16T15:25:42Z</time>
      </trkpt>
      <trkpt lat="45.05359" lon="5.65829">
        <ele>525</ele>
        <time>2021-01-16T15:25:43Z</time>
      </trkpt>
      <trkpt lat="45.0536" lon="5.65831">
        <ele>523.8</ele>
        <time>2021-01-16T15:25:44Z</time>
      </trkpt>
      <trkpt lat="45.05364" lon="5.65837">
        <ele>522.2</ele>
        <time>2021-01-16T15:25:45Z</time>
      </trkpt>
      <trkpt lat="45.05364" lon="5.65837">
        <ele>521.6</ele>
        <time>2021-01-16T15:25:46Z</time>
      </trkpt>
      <trkpt lat="45.05364" lon="5.65837">
        <ele>520.8</ele>
        <time>2021-01-16T15:25:47Z</time>
      </trkpt>
      <trkpt lat="45.05366" lon="5.65839">
        <ele>520.4</ele>
        <time>2021-01-16T15:25:48Z</time>
      </trkpt>
      <trkpt lat="45.05368" lon="5.65841">
        <ele>519.6</ele>
        <time>2021-01-16T15:25:49Z</time>
      </trkpt>
      <trkpt lat="45.0537" lon="5.65844">
        <ele>519.4</ele>
        <time>2021-01-16T15:25:50Z</time>
      </trkpt>
      <trkpt lat="45.05372" lon="5.65846">
        <ele>518.4</ele>
        <time>2021-01-16T15:25:51Z</time>
      </trkpt>
      <trkpt lat="45.05375" lon="5.65847">
        <ele>517.8</ele>
        <time>2021-01-16T15:25:52Z</time>
      </trkpt>
      <trkpt lat="45.05378" lon="5.65848">
        <ele>516.4</ele>
        <time>2021-01-16T15:25:53Z</time>
      </trkpt>
      <trkpt lat="45.0538" lon="5.65849">
        <ele>515.2</ele>
        <time>2021-01-16T15:25:54Z</time>
      </trkpt>
      <trkpt lat="45.05383" lon="5.65851">
        <ele>514.2</ele>
        <time>2021-01-16T15:25:55Z</time>
      </trkpt>
      <trkpt lat="45.05386" lon="5.65852">
        <ele>513.2</ele>
        <time>2021-01-16T15:25:56Z</time>
      </trkpt>
      <trkpt lat="45.05388" lon="5.65853">
        <ele>512.8</ele>
        <time>2021-01-16T15:25:57Z</time>
      </trkpt>
      <trkpt lat="45.05393" lon="5.65855">
        <ele>512.8</ele>
        <time>2021-01-16T15:25:58Z</time>
      </trkpt>
      <trkpt lat="45.05395" lon="5.65856">
        <ele>512.2</ele>
        <time>2021-01-16T15:25:59Z</time>
      </trkpt>
      <trkpt lat="45.05396" lon="5.65857">
        <ele>511.6</ele>
        <time>2021-01-16T15:26:00Z</time>
      </trkpt>
      <trkpt lat="45.05397" lon="5.65858">
        <ele>510.8</ele>
        <time>2021-01-16T15:26:01Z</time>
      </trkpt>
      <trkpt lat="45.054" lon="5.65861">
        <ele>510.4</ele>
        <time>2021-01-16T15:26:02Z</time>
      </trkpt>
      <trkpt lat="45.05403" lon="5.65864">
        <ele>509.2</ele>
        <time>2021-01-16T15:26:03Z</time>
      </trkpt>
      <trkpt lat="45.05407" lon="5.65867">
        <ele>508.4</ele>
        <time>2021-01-16T15:26:04Z</time>
      </trkpt>
      <trkpt lat="45.0541" lon="5.65872">
        <ele>507.8</ele>
        <time>2021-01-16T15:26:05Z</time>
      </trkpt>
      <trkpt lat="45.05411" lon="5.65873">
        <ele>506.8</ele>
        <time>2021-01-16T15:26:06Z</time>
      </trkpt>
      <trkpt lat="45.05412" lon="5.65874">
        <ele>506.6</ele>
        <time>2021-01-16T15:26:07Z</time>
      </trkpt>
      <trkpt lat="45.05413" lon="5.65875">
        <ele>506</ele>
        <time>2021-01-16T15:26:08Z</time>
      </trkpt>
      <trkpt lat="45.05417" lon="5.65879">
        <ele>504.6</ele>
        <time>2021-01-16T15:26:09Z</time>
      </trkpt>
      <trkpt lat="45.0542" lon="5.65883">
        <ele>504.2</ele>
        <time>2021-01-16T15:26:10Z</time>
      </trkpt>
      <trkpt lat="45.05423" lon="5.65887">
        <ele>503.6</ele>
        <time>2021-01-16T15:26:11Z</time>
      </trkpt>
      <trkpt lat="45.05428" lon="5.65895">
        <ele>502.8</ele>
        <time>2021-01-16T15:26:12Z</time>
      </trkpt>
      <trkpt lat="45.05429" lon="5.65897">
        <ele>502.4</ele>
        <time>2021-01-16T15:26:13Z</time>
      </trkpt>
      <trkpt lat="45.05431" lon="5.65898">
        <ele>501.8</ele>
        <time>2021-01-16T15:26:14Z</time>
      </trkpt>
      <trkpt lat="45.05437" lon="5.65906">
        <ele>501.6</ele>
        <time>2021-01-16T15:26:15Z</time>
      </trkpt>
      <trkpt lat="45.05438" lon="5.65908">
        <ele>500.6</ele>
        <time>2021-01-16T15:26:16Z</time>
      </trkpt>
      <trkpt lat="45.05439" lon="5.65909">
        <ele>500</ele>
        <time>2021-01-16T15:26:17Z</time>
      </trkpt>
      <trkpt lat="45.05444" lon="5.65915">
        <ele>499</ele>
        <time>2021-01-16T15:26:18Z</time>
      </trkpt>
      <trkpt lat="45.05445" lon="5.65916">
        <ele>498.4</ele>
        <time>2021-01-16T15:26:19Z</time>
      </trkpt>
      <trkpt lat="45.05446" lon="5.65917">
        <ele>497</ele>
        <time>2021-01-16T15:26:20Z</time>
      </trkpt>
      <trkpt lat="45.05447" lon="5.65918">
        <ele>496.4</ele>
        <time>2021-01-16T15:26:21Z</time>
      </trkpt>
      <trkpt lat="45.0545" lon="5.65921">
        <ele>495.4</ele>
        <time>2021-01-16T15:26:22Z</time>
      </trkpt>
      <trkpt lat="45.05453" lon="5.65925">
        <ele>494.8</ele>
        <time>2021-01-16T15:26:23Z</time>
      </trkpt>
      <trkpt lat="45.05456" lon="5.65928">
        <ele>494.8</ele>
        <time>2021-01-16T15:26:24Z</time>
      </trkpt>
      <trkpt lat="45.0546" lon="5.65932">
        <ele>494.4</ele>
        <time>2021-01-16T15:26:25Z</time>
      </trkpt>
      <trkpt lat="45.05462" lon="5.65935">
        <ele>494.2</ele>
        <time>2021-01-16T15:26:26Z</time>
      </trkpt>
      <trkpt lat="45.05465" lon="5.65938">
        <ele>493.4</ele>
        <time>2021-01-16T15:26:27Z</time>
      </trkpt>
      <trkpt lat="45.05467" lon="5.65941">
        <ele>493.4</ele>
        <time>2021-01-16T15:26:28Z</time>
      </trkpt>
      <trkpt lat="45.05469" lon="5.65943">
        <ele>492.4</ele>
        <time>2021-01-16T15:26:29Z</time>
      </trkpt>
      <trkpt lat="45.05471" lon="5.65945">
        <ele>491.6</ele>
        <time>2021-01-16T15:26:30Z</time>
      </trkpt>
      <trkpt lat="45.05472" lon="5.65947">
        <ele>491.4</ele>
        <time>2021-01-16T15:26:31Z</time>
      </trkpt>
      <trkpt lat="45.05477" lon="5.65954">
        <ele>490.8</ele>
        <time>2021-01-16T15:26:32Z</time>
      </trkpt>
      <trkpt lat="45.05478" lon="5.65955">
        <ele>490.8</ele>
        <time>2021-01-16T15:26:33Z</time>
      </trkpt>
      <trkpt lat="45.05481" lon="5.6596">
        <ele>490.2</ele>
        <time>2021-01-16T15:26:34Z</time>
      </trkpt>
      <trkpt lat="45.05482" lon="5.65961">
        <ele>490.2</ele>
        <time>2021-01-16T15:26:35Z</time>
      </trkpt>
      <trkpt lat="45.05483" lon="5.65962">
        <ele>489.4</ele>
        <time>2021-01-16T15:26:36Z</time>
      </trkpt>
      <trkpt lat="45.05484" lon="5.65964">
        <ele>489.2</ele>
        <time>2021-01-16T15:26:37Z</time>
      </trkpt>
      <trkpt lat="45.05487" lon="5.65968">
        <ele>488.6</ele>
        <time>2021-01-16T15:26:38Z</time>
      </trkpt>
      <trkpt lat="45.0549" lon="5.65972">
        <ele>488.2</ele>
        <time>2021-01-16T15:26:39Z</time>
      </trkpt>
      <trkpt lat="45.05492" lon="5.65976">
        <ele>487.6</ele>
        <time>2021-01-16T15:26:40Z</time>
      </trkpt>
      <trkpt lat="45.05496" lon="5.65981">
        <ele>487.6</ele>
        <time>2021-01-16T15:26:41Z</time>
      </trkpt>
      <trkpt lat="45.05497" lon="5.65983">
        <ele>486.8</ele>
        <time>2021-01-16T15:26:42Z</time>
      </trkpt>
      <trkpt lat="45.05498" lon="5.65985">
        <ele>486.8</ele>
        <time>2021-01-16T15:26:43Z</time>
      </trkpt>
      <trkpt lat="45.05499" lon="5.65986">
        <ele>486.2</ele>
        <time>2021-01-16T15:26:44Z</time>
      </trkpt>
      <trkpt lat="45.05503" lon="5.65992">
        <ele>486.2</ele>
        <time>2021-01-16T15:26:45Z</time>
      </trkpt>
      <trkpt lat="45.05505" lon="5.65996">
        <ele>485.6</ele>
        <time>2021-01-16T15:26:46Z</time>
      </trkpt>
      <trkpt lat="45.05508" lon="5.66">
        <ele>485.8</ele>
        <time>2021-01-16T15:26:47Z</time>
      </trkpt>
      <trkpt lat="45.05513" lon="5.66007">
        <ele>484.8</ele>
        <time>2021-01-16T15:26:48Z</time>
      </trkpt>
      <trkpt lat="45.05514" lon="5.66009">
        <ele>484.8</ele>
        <time>2021-01-16T15:26:49Z</time>
      </trkpt>
      <trkpt lat="45.05518" lon="5.66015">
        <ele>484.2</ele>
        <time>2021-01-16T15:26:50Z</time>
      </trkpt>
      <trkpt lat="45.05519" lon="5.66016">
        <ele>484</ele>
        <time>2021-01-16T15:26:51Z</time>
      </trkpt>
      <trkpt lat="45.0552" lon="5.66017">
        <ele>483.2</ele>
        <time>2021-01-16T15:26:52Z</time>
      </trkpt>
      <trkpt lat="45.05522" lon="5.66018">
        <ele>483.2</ele>
        <time>2021-01-16T15:26:53Z</time>
      </trkpt>
      <trkpt lat="45.05525" lon="5.66022">
        <ele>482.6</ele>
        <time>2021-01-16T15:26:54Z</time>
      </trkpt>
      <trkpt lat="45.05529" lon="5.66025">
        <ele>482.6</ele>
        <time>2021-01-16T15:26:55Z</time>
      </trkpt>
      <trkpt lat="45.05533" lon="5.66029">
        <ele>482</ele>
        <time>2021-01-16T15:26:56Z</time>
      </trkpt>
      <trkpt lat="45.05538" lon="5.66035">
        <ele>482</ele>
        <time>2021-01-16T15:26:57Z</time>
      </trkpt>
      <trkpt lat="45.0554" lon="5.66036">
        <ele>481.4</ele>
        <time>2021-01-16T15:26:58Z</time>
      </trkpt>
      <trkpt lat="45.05544" lon="5.66041">
        <ele>481.6</ele>
        <time>2021-01-16T15:26:59Z</time>
      </trkpt>
      <trkpt lat="45.05546" lon="5.66045">
        <ele>480.8</ele>
        <time>2021-01-16T15:27:00Z</time>
      </trkpt>
      <trkpt lat="45.05548" lon="5.66046">
        <ele>480.6</ele>
        <time>2021-01-16T15:27:01Z</time>
      </trkpt>
      <trkpt lat="45.05549" lon="5.66048">
        <ele>479.6</ele>
        <time>2021-01-16T15:27:02Z</time>
      </trkpt>
      <trkpt lat="45.05555" lon="5.66055">
        <ele>479.4</ele>
        <time>2021-01-16T15:27:03Z</time>
      </trkpt>
      <trkpt lat="45.05556" lon="5.66056">
        <ele>478.2</ele>
        <time>2021-01-16T15:27:04Z</time>
      </trkpt>
      <trkpt lat="45.05557" lon="5.66058">
        <ele>477.8</ele>
        <time>2021-01-16T15:27:05Z</time>
      </trkpt>
      <trkpt lat="45.05563" lon="5.66065">
        <ele>476.8</ele>
        <time>2021-01-16T15:27:06Z</time>
      </trkpt>
      <trkpt lat="45.05564" lon="5.66067">
        <ele>476.2</ele>
        <time>2021-01-16T15:27:07Z</time>
      </trkpt>
      <trkpt lat="45.05565" lon="5.66069">
        <ele>475.4</ele>
        <time>2021-01-16T15:27:08Z</time>
      </trkpt>
      <trkpt lat="45.05571" lon="5.66076">
        <ele>474.8</ele>
        <time>2021-01-16T15:27:09Z</time>
      </trkpt>
      <trkpt lat="45.05572" lon="5.66077">
        <ele>474</ele>
        <time>2021-01-16T15:27:10Z</time>
      </trkpt>
      <trkpt lat="45.05573" lon="5.66078">
        <ele>473.4</ele>
        <time>2021-01-16T15:27:11Z</time>
      </trkpt>
      <trkpt lat="45.05577" lon="5.66083">
        <ele>472.6</ele>
        <time>2021-01-16T15:27:12Z</time>
      </trkpt>
      <trkpt lat="45.05579" lon="5.66086">
        <ele>471.8</ele>
        <time>2021-01-16T15:27:13Z</time>
      </trkpt>
      <trkpt lat="45.05582" lon="5.6609">
        <ele>470.6</ele>
        <time>2021-01-16T15:27:14Z</time>
      </trkpt>
      <trkpt lat="45.05584" lon="5.66093">
        <ele>470.2</ele>
        <time>2021-01-16T15:27:15Z</time>
      </trkpt>
      <trkpt lat="45.05584" lon="5.66093">
        <ele>470.2</ele>
        <time>2021-01-16T15:27:16Z</time>
      </trkpt>
      <trkpt lat="45.05584" lon="5.66093">
        <ele>469.6</ele>
        <time>2021-01-16T15:27:17Z</time>
      </trkpt>
      <trkpt lat="45.05586" lon="5.66095">
        <ele>469.2</ele>
        <time>2021-01-16T15:27:18Z</time>
      </trkpt>
      <trkpt lat="45.05588" lon="5.66098">
        <ele>468.6</ele>
        <time>2021-01-16T15:27:19Z</time>
      </trkpt>
      <trkpt lat="45.05589" lon="5.661">
        <ele>468</ele>
        <time>2021-01-16T15:27:20Z</time>
      </trkpt>
      <trkpt lat="45.05591" lon="5.66103">
        <ele>467.8</ele>
        <time>2021-01-16T15:27:21Z</time>
      </trkpt>
      <trkpt lat="45.05593" lon="5.66104">
        <ele>467.2</ele>
        <time>2021-01-16T15:27:22Z</time>
      </trkpt>
      <trkpt lat="45.05594" lon="5.66106">
        <ele>466.8</ele>
        <time>2021-01-16T15:27:23Z</time>
      </trkpt>
      <trkpt lat="45.05595" lon="5.66107">
        <ele>466.6</ele>
        <time>2021-01-16T15:27:24Z</time>
      </trkpt>
      <trkpt lat="45.05596" lon="5.66108">
        <ele>466.2</ele>
        <time>2021-01-16T15:27:25Z</time>
      </trkpt>
      <trkpt lat="45.05597" lon="5.6611">
        <ele>465.6</ele>
        <time>2021-01-16T15:27:26Z</time>
      </trkpt>
      <trkpt lat="45.05598" lon="5.66111">
        <ele>465.2</ele>
        <time>2021-01-16T15:27:27Z</time>
      </trkpt>
      <trkpt lat="45.05601" lon="5.66115">
        <ele>465.2</ele>
        <time>2021-01-16T15:27:28Z</time>
      </trkpt>
      <trkpt lat="45.05604" lon="5.66119">
        <ele>464.4</ele>
        <time>2021-01-16T15:27:29Z</time>
      </trkpt>
      <trkpt lat="45.05607" lon="5.66123">
        <ele>464.6</ele>
        <time>2021-01-16T15:27:30Z</time>
      </trkpt>
      <trkpt lat="45.05609" lon="5.66127">
        <ele>463.8</ele>
        <time>2021-01-16T15:27:31Z</time>
      </trkpt>
      <trkpt lat="45.05613" lon="5.66133">
        <ele>463.8</ele>
        <time>2021-01-16T15:27:32Z</time>
      </trkpt>
      <trkpt lat="45.05614" lon="5.66134">
        <ele>462.8</ele>
        <time>2021-01-16T15:27:33Z</time>
      </trkpt>
      <trkpt lat="45.05616" lon="5.66135">
        <ele>462.6</ele>
        <time>2021-01-16T15:27:34Z</time>
      </trkpt>
      <trkpt lat="45.05617" lon="5.66136">
        <ele>461.8</ele>
        <time>2021-01-16T15:27:35Z</time>
      </trkpt>
      <trkpt lat="45.05622" lon="5.6614">
        <ele>461.6</ele>
        <time>2021-01-16T15:27:36Z</time>
      </trkpt>
      <trkpt lat="45.05625" lon="5.66141">
        <ele>460.6</ele>
        <time>2021-01-16T15:27:37Z</time>
      </trkpt>
      <trkpt lat="45.05628" lon="5.66143">
        <ele>460.4</ele>
        <time>2021-01-16T15:27:38Z</time>
      </trkpt>
      <trkpt lat="45.05635" lon="5.66146">
        <ele>459.6</ele>
        <time>2021-01-16T15:27:39Z</time>
      </trkpt>
      <trkpt lat="45.05636" lon="5.66147">
        <ele>459.4</ele>
        <time>2021-01-16T15:27:40Z</time>
      </trkpt>
      <trkpt lat="45.05641" lon="5.6615">
        <ele>458.6</ele>
        <time>2021-01-16T15:27:41Z</time>
      </trkpt>
      <trkpt lat="45.05641" lon="5.6615">
        <ele>458.4</ele>
        <time>2021-01-16T15:27:42Z</time>
      </trkpt>
      <trkpt lat="45.05641" lon="5.6615">
        <ele>458</ele>
        <time>2021-01-16T15:27:43Z</time>
      </trkpt>
      <trkpt lat="45.05644" lon="5.6615">
        <ele>458</ele>
        <time>2021-01-16T15:27:44Z</time>
      </trkpt>
      <trkpt lat="45.05646" lon="5.66151">
        <ele>457.4</ele>
        <time>2021-01-16T15:27:45Z</time>
      </trkpt>
      <trkpt lat="45.05649" lon="5.66152">
        <ele>457.4</ele>
        <time>2021-01-16T15:27:46Z</time>
      </trkpt>
      <trkpt lat="45.05652" lon="5.66153">
        <ele>457</ele>
        <time>2021-01-16T15:27:47Z</time>
      </trkpt>
      <trkpt lat="45.05656" lon="5.66154">
        <ele>456.8</ele>
        <time>2021-01-16T15:27:48Z</time>
      </trkpt>
      <trkpt lat="45.05659" lon="5.66156">
        <ele>456.2</ele>
        <time>2021-01-16T15:27:49Z</time>
      </trkpt>
      <trkpt lat="45.05663" lon="5.66158">
        <ele>456.4</ele>
        <time>2021-01-16T15:27:50Z</time>
      </trkpt>
      <trkpt lat="45.05667" lon="5.6616">
        <ele>455.8</ele>
        <time>2021-01-16T15:27:51Z</time>
      </trkpt>
      <trkpt lat="45.05671" lon="5.66161">
        <ele>455.6</ele>
        <time>2021-01-16T15:27:52Z</time>
      </trkpt>
      <trkpt lat="45.05673" lon="5.66161">
        <ele>455.2</ele>
        <time>2021-01-16T15:27:53Z</time>
      </trkpt>
      <trkpt lat="45.05674" lon="5.66161">
        <ele>455.6</ele>
        <time>2021-01-16T15:27:54Z</time>
      </trkpt>
      <trkpt lat="45.05675" lon="5.66161">
        <ele>455.6</ele>
        <time>2021-01-16T15:27:55Z</time>
      </trkpt>
      <trkpt lat="45.0568" lon="5.66161">
        <ele>455.4</ele>
        <time>2021-01-16T15:27:56Z</time>
      </trkpt>
      <trkpt lat="45.05684" lon="5.66162">
        <ele>454.4</ele>
        <time>2021-01-16T15:27:57Z</time>
      </trkpt>
      <trkpt lat="45.05688" lon="5.66162">
        <ele>454.4</ele>
        <time>2021-01-16T15:27:58Z</time>
      </trkpt>
      <trkpt lat="45.05695" lon="5.66163">
        <ele>453.6</ele>
        <time>2021-01-16T15:27:59Z</time>
      </trkpt>
      <trkpt lat="45.05697" lon="5.66164">
        <ele>453.4</ele>
        <time>2021-01-16T15:28:00Z</time>
      </trkpt>
      <trkpt lat="45.05699" lon="5.66165">
        <ele>452.6</ele>
        <time>2021-01-16T15:28:01Z</time>
      </trkpt>
      <trkpt lat="45.05706" lon="5.66168">
        <ele>452.4</ele>
        <time>2021-01-16T15:28:02Z</time>
      </trkpt>
      <trkpt lat="45.05707" lon="5.66168">
        <ele>451.4</ele>
        <time>2021-01-16T15:28:03Z</time>
      </trkpt>
      <trkpt lat="45.05709" lon="5.66169">
        <ele>450.8</ele>
        <time>2021-01-16T15:28:04Z</time>
      </trkpt>
      <trkpt lat="45.05715" lon="5.66172">
        <ele>449.8</ele>
        <time>2021-01-16T15:28:05Z</time>
      </trkpt>
      <trkpt lat="45.05717" lon="5.66173">
        <ele>449.4</ele>
        <time>2021-01-16T15:28:06Z</time>
      </trkpt>
      <trkpt lat="45.05719" lon="5.66174">
        <ele>448.4</ele>
        <time>2021-01-16T15:28:07Z</time>
      </trkpt>
      <trkpt lat="45.05723" lon="5.66176">
        <ele>447.4</ele>
        <time>2021-01-16T15:28:08Z</time>
      </trkpt>
      <trkpt lat="45.05725" lon="5.66176">
        <ele>447.2</ele>
        <time>2021-01-16T15:28:09Z</time>
      </trkpt>
      <trkpt lat="45.05726" lon="5.66177">
        <ele>446.6</ele>
        <time>2021-01-16T15:28:10Z</time>
      </trkpt>
      <trkpt lat="45.05728" lon="5.66178">
        <ele>446.6</ele>
        <time>2021-01-16T15:28:11Z</time>
      </trkpt>
      <trkpt lat="45.05732" lon="5.6618">
        <ele>445.8</ele>
        <time>2021-01-16T15:28:12Z</time>
      </trkpt>
      <trkpt lat="45.05737" lon="5.66183">
        <ele>445.8</ele>
        <time>2021-01-16T15:28:13Z</time>
      </trkpt>
      <trkpt lat="45.05741" lon="5.66185">
        <ele>445</ele>
        <time>2021-01-16T15:28:14Z</time>
      </trkpt>
      <trkpt lat="45.05749" lon="5.66188">
        <ele>445</ele>
        <time>2021-01-16T15:28:15Z</time>
      </trkpt>
      <trkpt lat="45.05754" lon="5.66191">
        <ele>444</ele>
        <time>2021-01-16T15:28:16Z</time>
      </trkpt>
      <trkpt lat="45.05757" lon="5.66193">
        <ele>443.6</ele>
        <time>2021-01-16T15:28:17Z</time>
      </trkpt>
      <trkpt lat="45.05761" lon="5.66196">
        <ele>442.6</ele>
        <time>2021-01-16T15:28:18Z</time>
      </trkpt>
      <trkpt lat="45.05764" lon="5.662">
        <ele>442</ele>
        <time>2021-01-16T15:28:19Z</time>
      </trkpt>
      <trkpt lat="45.05762" lon="5.66202">
        <ele>441</ele>
        <time>2021-01-16T15:28:20Z</time>
      </trkpt>
      <trkpt lat="45.0576" lon="5.66204">
        <ele>440</ele>
        <time>2021-01-16T15:28:21Z</time>
      </trkpt>
      <trkpt lat="45.05758" lon="5.66206">
        <ele>438.8</ele>
        <time>2021-01-16T15:28:22Z</time>
      </trkpt>
      <trkpt lat="45.05752" lon="5.66211">
        <ele>438</ele>
        <time>2021-01-16T15:28:23Z</time>
      </trkpt>
      <trkpt lat="45.05751" lon="5.66212">
        <ele>436.8</ele>
        <time>2021-01-16T15:28:24Z</time>
      </trkpt>
      <trkpt lat="45.05746" lon="5.66212">
        <ele>436</ele>
        <time>2021-01-16T15:28:25Z</time>
      </trkpt>
      <trkpt lat="45.05742" lon="5.66213">
        <ele>435.8</ele>
        <time>2021-01-16T15:28:26Z</time>
      </trkpt>
      <trkpt lat="45.05738" lon="5.66214">
        <ele>435.4</ele>
        <time>2021-01-16T15:28:27Z</time>
      </trkpt>
      <trkpt lat="45.0573" lon="5.66215">
        <ele>435.4</ele>
        <time>2021-01-16T15:28:28Z</time>
      </trkpt>
      <trkpt lat="45.05729" lon="5.66215">
        <ele>434.8</ele>
        <time>2021-01-16T15:28:29Z</time>
      </trkpt>
      <trkpt lat="45.05722" lon="5.66218">
        <ele>434.6</ele>
        <time>2021-01-16T15:28:30Z</time>
      </trkpt>
      <trkpt lat="45.0572" lon="5.66219">
        <ele>433.6</ele>
        <time>2021-01-16T15:28:31Z</time>
      </trkpt>
      <trkpt lat="45.05715" lon="5.66221">
        <ele>433.2</ele>
        <time>2021-01-16T15:28:32Z</time>
      </trkpt>
      <trkpt lat="45.05712" lon="5.66222">
        <ele>432.4</ele>
        <time>2021-01-16T15:28:33Z</time>
      </trkpt>
      <trkpt lat="45.0571" lon="5.66222">
        <ele>431.6</ele>
        <time>2021-01-16T15:28:34Z</time>
      </trkpt>
      <trkpt lat="45.05709" lon="5.66222">
        <ele>430.2</ele>
        <time>2021-01-16T15:28:35Z</time>
      </trkpt>
      <trkpt lat="45.05704" lon="5.66223">
        <ele>429.6</ele>
        <time>2021-01-16T15:28:36Z</time>
      </trkpt>
      <trkpt lat="45.057" lon="5.66224">
        <ele>429.4</ele>
        <time>2021-01-16T15:28:37Z</time>
      </trkpt>
      <trkpt lat="45.05697" lon="5.66224">
        <ele>429</ele>
        <time>2021-01-16T15:28:38Z</time>
      </trkpt>
      <trkpt lat="45.05694" lon="5.66224">
        <ele>428.6</ele>
        <time>2021-01-16T15:28:39Z</time>
      </trkpt>
      <trkpt lat="45.05693" lon="5.66225">
        <ele>428</ele>
        <time>2021-01-16T15:28:40Z</time>
      </trkpt>
      <trkpt lat="45.05691" lon="5.66226">
        <ele>427.6</ele>
        <time>2021-01-16T15:28:41Z</time>
      </trkpt>
      <trkpt lat="45.0569" lon="5.66226">
        <ele>427</ele>
        <time>2021-01-16T15:28:42Z</time>
      </trkpt>
      <trkpt lat="45.05686" lon="5.66228">
        <ele>426.6</ele>
        <time>2021-01-16T15:28:43Z</time>
      </trkpt>
      <trkpt lat="45.05682" lon="5.6623">
        <ele>425.6</ele>
        <time>2021-01-16T15:28:44Z</time>
      </trkpt>
      <trkpt lat="45.05678" lon="5.66232">
        <ele>425.2</ele>
        <time>2021-01-16T15:28:45Z</time>
      </trkpt>
      <trkpt lat="45.05674" lon="5.66235">
        <ele>424.2</ele>
        <time>2021-01-16T15:28:46Z</time>
      </trkpt>
      <trkpt lat="45.05673" lon="5.66235">
        <ele>423.6</ele>
        <time>2021-01-16T15:28:47Z</time>
      </trkpt>
      <trkpt lat="45.05672" lon="5.66236">
        <ele>422.4</ele>
        <time>2021-01-16T15:28:48Z</time>
      </trkpt>
      <trkpt lat="45.0567" lon="5.66236">
        <ele>421.6</ele>
        <time>2021-01-16T15:28:49Z</time>
      </trkpt>
      <trkpt lat="45.05667" lon="5.66238">
        <ele>420.6</ele>
        <time>2021-01-16T15:28:50Z</time>
      </trkpt>
      <trkpt lat="45.05663" lon="5.66239">
        <ele>420</ele>
        <time>2021-01-16T15:28:51Z</time>
      </trkpt>
      <trkpt lat="45.05659" lon="5.66241">
        <ele>418.8</ele>
        <time>2021-01-16T15:28:52Z</time>
      </trkpt>
      <trkpt lat="45.05653" lon="5.66241">
        <ele>417.8</ele>
        <time>2021-01-16T15:28:53Z</time>
      </trkpt>
      <trkpt lat="45.05651" lon="5.6624">
        <ele>416.4</ele>
        <time>2021-01-16T15:28:54Z</time>
      </trkpt>
      <trkpt lat="45.05649" lon="5.66239">
        <ele>415.2</ele>
        <time>2021-01-16T15:28:55Z</time>
      </trkpt>
      <trkpt lat="45.05646" lon="5.66238">
        <ele>414.2</ele>
        <time>2021-01-16T15:28:56Z</time>
      </trkpt>
      <trkpt lat="45.05639" lon="5.66235">
        <ele>413.4</ele>
        <time>2021-01-16T15:28:57Z</time>
      </trkpt>
      <trkpt lat="45.05637" lon="5.66234">
        <ele>412.8</ele>
        <time>2021-01-16T15:28:58Z</time>
      </trkpt>
      <trkpt lat="45.0563" lon="5.66231">
        <ele>412.6</ele>
        <time>2021-01-16T15:28:59Z</time>
      </trkpt>
      <trkpt lat="45.05625" lon="5.66228">
        <ele>412.4</ele>
        <time>2021-01-16T15:29:00Z</time>
      </trkpt>
      <trkpt lat="45.05623" lon="5.66227">
        <ele>411.8</ele>
        <time>2021-01-16T15:29:01Z</time>
      </trkpt>
      <trkpt lat="45.0562" lon="5.66225">
        <ele>411.8</ele>
        <time>2021-01-16T15:29:02Z</time>
      </trkpt>
      <trkpt lat="45.05619" lon="5.66224">
        <ele>411.2</ele>
        <time>2021-01-16T15:29:03Z</time>
      </trkpt>
      <trkpt lat="45.05617" lon="5.66223">
        <ele>411.2</ele>
        <time>2021-01-16T15:29:04Z</time>
      </trkpt>
      <trkpt lat="45.05613" lon="5.6622">
        <ele>410.8</ele>
        <time>2021-01-16T15:29:05Z</time>
      </trkpt>
      <trkpt lat="45.05611" lon="5.66218">
        <ele>410.8</ele>
        <time>2021-01-16T15:29:06Z</time>
      </trkpt>
      <trkpt lat="45.05609" lon="5.66216">
        <ele>410</ele>
        <time>2021-01-16T15:29:07Z</time>
      </trkpt>
      <trkpt lat="45.05608" lon="5.66215">
        <ele>409.6</ele>
        <time>2021-01-16T15:29:08Z</time>
      </trkpt>
      <trkpt lat="45.05603" lon="5.6621">
        <ele>409.4</ele>
        <time>2021-01-16T15:29:09Z</time>
      </trkpt>
      <trkpt lat="45.05602" lon="5.66209">
        <ele>409.2</ele>
        <time>2021-01-16T15:29:10Z</time>
      </trkpt>
      <trkpt lat="45.056" lon="5.66206">
        <ele>409.2</ele>
        <time>2021-01-16T15:29:11Z</time>
      </trkpt>
      <trkpt lat="45.056" lon="5.66206">
        <ele>409.2</ele>
        <time>2021-01-16T15:29:12Z</time>
      </trkpt>
      <trkpt lat="45.056" lon="5.66206">
        <ele>409.4</ele>
        <time>2021-01-16T15:29:13Z</time>
      </trkpt>
      <trkpt lat="45.056" lon="5.66206">
        <ele>409.4</ele>
        <time>2021-01-16T15:29:14Z</time>
      </trkpt>
      <trkpt lat="45.056" lon="5.66206">
        <ele>409.6</ele>
        <time>2021-01-16T15:29:15Z</time>
      </trkpt>
      <trkpt lat="45.056" lon="5.66206">
        <ele>409.6</ele>
        <time>2021-01-16T15:29:16Z</time>
      </trkpt>
      <trkpt lat="45.056" lon="5.66206">
        <ele>409.8</ele>
        <time>2021-01-16T15:29:17Z</time>
      </trkpt>
      <trkpt lat="45.056" lon="5.66206">
        <ele>409.6</ele>
        <time>2021-01-16T15:29:18Z</time>
      </trkpt>
      <trkpt lat="45.05599" lon="5.66204">
        <ele>409.6</ele>
        <time>2021-01-16T15:29:19Z</time>
      </trkpt>
      <trkpt lat="45.05599" lon="5.66204">
        <ele>409.6</ele>
        <time>2021-01-16T15:29:20Z</time>
      </trkpt>
      <trkpt lat="45.05596" lon="5.66201">
        <ele>409.8</ele>
        <time>2021-01-16T15:29:21Z</time>
      </trkpt>
      <trkpt lat="45.05596" lon="5.66201">
        <ele>409.6</ele>
        <time>2021-01-16T15:29:22Z</time>
      </trkpt>
      <trkpt lat="45.05593" lon="5.66198">
        <ele>409.8</ele>
        <time>2021-01-16T15:29:23Z</time>
      </trkpt>
      <trkpt lat="45.05593" lon="5.66198">
        <ele>409.8</ele>
        <time>2021-01-16T15:29:24Z</time>
      </trkpt>
      <trkpt lat="45.05591" lon="5.66196">
        <ele>409.8</ele>
        <time>2021-01-16T15:29:25Z</time>
      </trkpt>
      <trkpt lat="45.05591" lon="5.66196">
        <ele>409.6</ele>
        <time>2021-01-16T15:29:26Z</time>
      </trkpt>
      <trkpt lat="45.05588" lon="5.66195">
        <ele>409.6</ele>
        <time>2021-01-16T15:29:27Z</time>
      </trkpt>
      <trkpt lat="45.05588" lon="5.66195">
        <ele>409.6</ele>
        <time>2021-01-16T15:29:28Z</time>
      </trkpt>
      <trkpt lat="45.05588" lon="5.66195">
        <ele>409.6</ele>
        <time>2021-01-16T15:29:29Z</time>
      </trkpt>
      <trkpt lat="45.05588" lon="5.66195">
        <ele>409.6</ele>
        <time>2021-01-16T15:29:30Z</time>
      </trkpt>
      <trkpt lat="45.05588" lon="5.66195">
        <ele>409.6</ele>
        <time>2021-01-16T15:29:31Z</time>
      </trkpt>
      <trkpt lat="45.05586" lon="5.66193">
        <ele>409.6</ele>
        <time>2021-01-16T15:29:32Z</time>
      </trkpt>
      <trkpt lat="45.05586" lon="5.66193">
        <ele>409.4</ele>
        <time>2021-01-16T15:29:33Z</time>
      </trkpt>
      <trkpt lat="45.05585" lon="5.6619">
        <ele>409.4</ele>
        <time>2021-01-16T15:29:34Z</time>
      </trkpt>
      <trkpt lat="45.05585" lon="5.6619">
        <ele>409.4</ele>
        <time>2021-01-16T15:29:35Z</time>
      </trkpt>
      <trkpt lat="45.05585" lon="5.6619">
        <ele>409.4</ele>
        <time>2021-01-16T15:29:36Z</time>
      </trkpt>
      <trkpt lat="45.05585" lon="5.6619">
        <ele>409.4</ele>
        <time>2021-01-16T15:29:37Z</time>
      </trkpt>
      <trkpt lat="45.05585" lon="5.6619">
        <ele>409.2</ele>
        <time>2021-01-16T15:29:38Z</time>
      </trkpt>
      <trkpt lat="45.05587" lon="5.66194">
        <ele>409.2</ele>
        <time>2021-01-16T15:29:39Z</time>
      </trkpt>
      <trkpt lat="45.05588" lon="5.66195">
        <ele>409.4</ele>
        <time>2021-01-16T15:29:40Z</time>
      </trkpt>
      <trkpt lat="45.0559" lon="5.66197">
        <ele>409.4</ele>
        <time>2021-01-16T15:29:41Z</time>
      </trkpt>
      <trkpt lat="45.0559" lon="5.66197">
        <ele>409.4</ele>
        <time>2021-01-16T15:29:42Z</time>
      </trkpt>
      <trkpt lat="45.05591" lon="5.662">
        <ele>409.4</ele>
        <time>2021-01-16T15:29:43Z</time>
      </trkpt>
      <trkpt lat="45.05591" lon="5.662">
        <ele>409.4</ele>
        <time>2021-01-16T15:29:44Z</time>
      </trkpt>
      <trkpt lat="45.0559" lon="5.66204">
        <ele>409.4</ele>
        <time>2021-01-16T15:29:45Z</time>
      </trkpt>
      <trkpt lat="45.0559" lon="5.66204">
        <ele>409</ele>
        <time>2021-01-16T15:29:46Z</time>
      </trkpt>
      <trkpt lat="45.05589" lon="5.66207">
        <ele>408.8</ele>
        <time>2021-01-16T15:29:47Z</time>
      </trkpt>
      <trkpt lat="45.05589" lon="5.66207">
        <ele>408.4</ele>
        <time>2021-01-16T15:29:48Z</time>
      </trkpt>
      <trkpt lat="45.05588" lon="5.6621">
        <ele>407.8</ele>
        <time>2021-01-16T15:29:49Z</time>
      </trkpt>
      <trkpt lat="45.05588" lon="5.6621">
        <ele>407.4</ele>
        <time>2021-01-16T15:29:50Z</time>
      </trkpt>
      <trkpt lat="45.05588" lon="5.6621">
        <ele>406.8</ele>
        <time>2021-01-16T15:29:51Z</time>
      </trkpt>
      <trkpt lat="45.05588" lon="5.6621">
        <ele>406.2</ele>
        <time>2021-01-16T15:29:52Z</time>
      </trkpt>
      <trkpt lat="45.05588" lon="5.6621">
        <ele>405.6</ele>
        <time>2021-01-16T15:29:53Z</time>
      </trkpt>
      <trkpt lat="45.05589" lon="5.66213">
        <ele>405.6</ele>
        <time>2021-01-16T15:29:54Z</time>
      </trkpt>
      <trkpt lat="45.05589" lon="5.66213">
        <ele>405.2</ele>
        <time>2021-01-16T15:29:55Z</time>
      </trkpt>
      <trkpt lat="45.05587" lon="5.66214">
        <ele>404.8</ele>
        <time>2021-01-16T15:29:56Z</time>
      </trkpt>
      <trkpt lat="45.05587" lon="5.66214">
        <ele>404.6</ele>
        <time>2021-01-16T15:29:57Z</time>
      </trkpt>
      <trkpt lat="45.05584" lon="5.66215">
        <ele>404</ele>
        <time>2021-01-16T15:29:58Z</time>
      </trkpt>
      <trkpt lat="45.05585" lon="5.66216">
        <ele>403.6</ele>
        <time>2021-01-16T15:29:59Z</time>
      </trkpt>
      <trkpt lat="45.05586" lon="5.66217">
        <ele>402.8</ele>
        <time>2021-01-16T15:30:01Z</time>
      </trkpt>
      <trkpt lat="45.05586" lon="5.66218">
        <ele>402.2</ele>
        <time>2021-01-16T15:30:02Z</time>
      </trkpt>
      <trkpt lat="45.05587" lon="5.66219">
        <ele>401.4</ele>
        <time>2021-01-16T15:30:03Z</time>
      </trkpt>
      <trkpt lat="45.05587" lon="5.6622">
        <ele>400.8</ele>
        <time>2021-01-16T15:30:04Z</time>
      </trkpt>
      <trkpt lat="45.05588" lon="5.66221">
        <ele>400.6</ele>
        <time>2021-01-16T15:30:05Z</time>
      </trkpt>
      <trkpt lat="45.05588" lon="5.66223">
        <ele>400.2</ele>
        <time>2021-01-16T15:30:06Z</time>
      </trkpt>
      <trkpt lat="45.05589" lon="5.66224">
        <ele>399.6</ele>
        <time>2021-01-16T15:30:07Z</time>
      </trkpt>
      <trkpt lat="45.05589" lon="5.66225">
        <ele>399</ele>
        <time>2021-01-16T15:30:08Z</time>
      </trkpt>
      <trkpt lat="45.0559" lon="5.66226">
        <ele>398</ele>
        <time>2021-01-16T15:30:09Z</time>
      </trkpt>
      <trkpt lat="45.05589" lon="5.66227">
        <ele>397.6</ele>
        <time>2021-01-16T15:30:10Z</time>
      </trkpt>
      <trkpt lat="45.05588" lon="5.66228">
        <ele>397.2</ele>
        <time>2021-01-16T15:30:11Z</time>
      </trkpt>
      <trkpt lat="45.05586" lon="5.66229">
        <ele>396.6</ele>
        <time>2021-01-16T15:30:12Z</time>
      </trkpt>
      <trkpt lat="45.05585" lon="5.6623">
        <ele>396</ele>
        <time>2021-01-16T15:30:13Z</time>
      </trkpt>
      <trkpt lat="45.05584" lon="5.66231">
        <ele>395</ele>
        <time>2021-01-16T15:30:14Z</time>
      </trkpt>
      <trkpt lat="45.05583" lon="5.66232">
        <ele>394.4</ele>
        <time>2021-01-16T15:30:15Z</time>
      </trkpt>
      <trkpt lat="45.05582" lon="5.66233">
        <ele>393.8</ele>
        <time>2021-01-16T15:30:16Z</time>
      </trkpt>
      <trkpt lat="45.0558" lon="5.66233">
        <ele>393.2</ele>
        <time>2021-01-16T15:30:17Z</time>
      </trkpt>
      <trkpt lat="45.05578" lon="5.66233">
        <ele>392.4</ele>
        <time>2021-01-16T15:30:18Z</time>
      </trkpt>
      <trkpt lat="45.05576" lon="5.66232">
        <ele>391.8</ele>
        <time>2021-01-16T15:30:19Z</time>
      </trkpt>
      <trkpt lat="45.05574" lon="5.66232">
        <ele>391</ele>
        <time>2021-01-16T15:30:20Z</time>
      </trkpt>
      <trkpt lat="45.05571" lon="5.66232">
        <ele>390.4</ele>
        <time>2021-01-16T15:30:21Z</time>
      </trkpt>
      <trkpt lat="45.0557" lon="5.66232">
        <ele>389.8</ele>
        <time>2021-01-16T15:30:22Z</time>
      </trkpt>
      <trkpt lat="45.05569" lon="5.66231">
        <ele>389.8</ele>
        <time>2021-01-16T15:30:23Z</time>
      </trkpt>
      <trkpt lat="45.05567" lon="5.66231">
        <ele>389.6</ele>
        <time>2021-01-16T15:30:24Z</time>
      </trkpt>
      <trkpt lat="45.05566" lon="5.6623">
        <ele>389</ele>
        <time>2021-01-16T15:30:25Z</time>
      </trkpt>
      <trkpt lat="45.05564" lon="5.6623">
        <ele>387.8</ele>
        <time>2021-01-16T15:30:26Z</time>
      </trkpt>
      <trkpt lat="45.05563" lon="5.66229">
        <ele>387</ele>
        <time>2021-01-16T15:30:27Z</time>
      </trkpt>
      <trkpt lat="45.05562" lon="5.66229">
        <ele>386.4</ele>
        <time>2021-01-16T15:30:28Z</time>
      </trkpt>
      <trkpt lat="45.05561" lon="5.6623">
        <ele>385.6</ele>
        <time>2021-01-16T15:30:29Z</time>
      </trkpt>
      <trkpt lat="45.05561" lon="5.66232">
        <ele>385.2</ele>
        <time>2021-01-16T15:30:30Z</time>
      </trkpt>
      <trkpt lat="45.05561" lon="5.66233">
        <ele>384.6</ele>
        <time>2021-01-16T15:30:31Z</time>
      </trkpt>
      <trkpt lat="45.05561" lon="5.66235">
        <ele>383.8</ele>
        <time>2021-01-16T15:30:32Z</time>
      </trkpt>
      <trkpt lat="45.05561" lon="5.66236">
        <ele>383</ele>
        <time>2021-01-16T15:30:33Z</time>
      </trkpt>
      <trkpt lat="45.05561" lon="5.66238">
        <ele>382.6</ele>
        <time>2021-01-16T15:30:34Z</time>
      </trkpt>
      <trkpt lat="45.05561" lon="5.66239">
        <ele>381.4</ele>
        <time>2021-01-16T15:30:35Z</time>
      </trkpt>
      <trkpt lat="45.05561" lon="5.66241">
        <ele>380.6</ele>
        <time>2021-01-16T15:30:36Z</time>
      </trkpt>
      <trkpt lat="45.05561" lon="5.66242">
        <ele>380.2</ele>
        <time>2021-01-16T15:30:37Z</time>
      </trkpt>
      <trkpt lat="45.05561" lon="5.66244">
        <ele>379.6</ele>
        <time>2021-01-16T15:30:38Z</time>
      </trkpt>
      <trkpt lat="45.05561" lon="5.66246">
        <ele>378.8</ele>
        <time>2021-01-16T15:30:39Z</time>
      </trkpt>
      <trkpt lat="45.05561" lon="5.66248">
        <ele>377.6</ele>
        <time>2021-01-16T15:30:40Z</time>
      </trkpt>
      <trkpt lat="45.05561" lon="5.6625">
        <ele>376.6</ele>
        <time>2021-01-16T15:30:41Z</time>
      </trkpt>
      <trkpt lat="45.05561" lon="5.66252">
        <ele>375.6</ele>
        <time>2021-01-16T15:30:42Z</time>
      </trkpt>
      <trkpt lat="45.05561" lon="5.66254">
        <ele>375.2</ele>
        <time>2021-01-16T15:30:43Z</time>
      </trkpt>
      <trkpt lat="45.05561" lon="5.66256">
        <ele>374.4</ele>
        <time>2021-01-16T15:30:44Z</time>
      </trkpt>
      <trkpt lat="45.05561" lon="5.66256">
        <ele>373.6</ele>
        <time>2021-01-16T15:30:45Z</time>
      </trkpt>
      <trkpt lat="45.0556" lon="5.66259">
        <ele>373.2</ele>
        <time>2021-01-16T15:30:46Z</time>
      </trkpt>
      <trkpt lat="45.0556" lon="5.66259">
        <ele>372.6</ele>
        <time>2021-01-16T15:30:47Z</time>
      </trkpt>
      <trkpt lat="45.0556" lon="5.66259">
        <ele>372.2</ele>
        <time>2021-01-16T15:30:48Z</time>
      </trkpt>
      <trkpt lat="45.05559" lon="5.6626">
        <ele>371.4</ele>
        <time>2021-01-16T15:30:49Z</time>
      </trkpt>
      <trkpt lat="45.05558" lon="5.66261">
        <ele>371</ele>
        <time>2021-01-16T15:30:50Z</time>
      </trkpt>
      <trkpt lat="45.05557" lon="5.66262">
        <ele>370.6</ele>
        <time>2021-01-16T15:30:51Z</time>
      </trkpt>
      <trkpt lat="45.05556" lon="5.66264">
        <ele>370</ele>
        <time>2021-01-16T15:30:52Z</time>
      </trkpt>
      <trkpt lat="45.05555" lon="5.66265">
        <ele>369.6</ele>
        <time>2021-01-16T15:30:53Z</time>
      </trkpt>
      <trkpt lat="45.05554" lon="5.66266">
        <ele>368.8</ele>
        <time>2021-01-16T15:30:54Z</time>
      </trkpt>
      <trkpt lat="45.05553" lon="5.66267">
        <ele>367.2</ele>
        <time>2021-01-16T15:30:55Z</time>
      </trkpt>
      <trkpt lat="45.05552" lon="5.66268">
        <ele>366.6</ele>
        <time>2021-01-16T15:30:56Z</time>
      </trkpt>
      <trkpt lat="45.05551" lon="5.66265">
        <ele>366.4</ele>
        <time>2021-01-16T15:30:57Z</time>
      </trkpt>
      <trkpt lat="45.05551" lon="5.66265">
        <ele>366.4</ele>
        <time>2021-01-16T15:30:58Z</time>
      </trkpt>
      <trkpt lat="45.05551" lon="5.66265">
        <ele>366.4</ele>
        <time>2021-01-16T15:30:59Z</time>
      </trkpt>
      <trkpt lat="45.05551" lon="5.66265">
        <ele>366.4</ele>
        <time>2021-01-16T15:31:00Z</time>
      </trkpt>
      <trkpt lat="45.05551" lon="5.66265">
        <ele>366.4</ele>
        <time>2021-01-16T15:31:01Z</time>
      </trkpt>
      <trkpt lat="45.05553" lon="5.66263">
        <ele>366.4</ele>
        <time>2021-01-16T15:31:02Z</time>
      </trkpt>
      <trkpt lat="45.05553" lon="5.66263">
        <ele>366.4</ele>
        <time>2021-01-16T15:31:03Z</time>
      </trkpt>
      <trkpt lat="45.05553" lon="5.66263">
        <ele>366.4</ele>
        <time>2021-01-16T15:31:04Z</time>
      </trkpt>
      <trkpt lat="45.05555" lon="5.66264">
        <ele>366.6</ele>
        <time>2021-01-16T15:31:05Z</time>
      </trkpt>
      <trkpt lat="45.05557" lon="5.66266">
        <ele>366.2</ele>
        <time>2021-01-16T15:31:06Z</time>
      </trkpt>
      <trkpt lat="45.0556" lon="5.66268">
        <ele>366.4</ele>
        <time>2021-01-16T15:31:07Z</time>
      </trkpt>
      <trkpt lat="45.05562" lon="5.66269">
        <ele>366</ele>
        <time>2021-01-16T15:31:08Z</time>
      </trkpt>
      <trkpt lat="45.05566" lon="5.66272">
        <ele>365.6</ele>
        <time>2021-01-16T15:31:09Z</time>
      </trkpt>
      <trkpt lat="45.0557" lon="5.66275">
        <ele>365</ele>
        <time>2021-01-16T15:31:10Z</time>
      </trkpt>
      <trkpt lat="45.05575" lon="5.66278">
        <ele>364.2</ele>
        <time>2021-01-16T15:31:11Z</time>
      </trkpt>
      <trkpt lat="45.05579" lon="5.66282">
        <ele>363.4</ele>
        <time>2021-01-16T15:31:12Z</time>
      </trkpt>
      <trkpt lat="45.05587" lon="5.66286">
        <ele>363</ele>
        <time>2021-01-16T15:31:13Z</time>
      </trkpt>
      <trkpt lat="45.05589" lon="5.66287">
        <ele>362.4</ele>
        <time>2021-01-16T15:31:14Z</time>
      </trkpt>
      <trkpt lat="45.0559" lon="5.66288">
        <ele>362.2</ele>
        <time>2021-01-16T15:31:15Z</time>
      </trkpt>
      <trkpt lat="45.05597" lon="5.66292">
        <ele>361.8</ele>
        <time>2021-01-16T15:31:16Z</time>
      </trkpt>
      <trkpt lat="45.05598" lon="5.66293">
        <ele>361.8</ele>
        <time>2021-01-16T15:31:17Z</time>
      </trkpt>
      <trkpt lat="45.056" lon="5.66293">
        <ele>361.6</ele>
        <time>2021-01-16T15:31:18Z</time>
      </trkpt>
      <trkpt lat="45.05604" lon="5.66296">
        <ele>361.4</ele>
        <time>2021-01-16T15:31:19Z</time>
      </trkpt>
      <trkpt lat="45.05606" lon="5.66297">
        <ele>360.8</ele>
        <time>2021-01-16T15:31:20Z</time>
      </trkpt>
      <trkpt lat="45.05607" lon="5.66298">
        <ele>360.4</ele>
        <time>2021-01-16T15:31:21Z</time>
      </trkpt>
      <trkpt lat="45.05609" lon="5.66299">
        <ele>359.8</ele>
        <time>2021-01-16T15:31:22Z</time>
      </trkpt>
      <trkpt lat="45.05613" lon="5.66302">
        <ele>359.2</ele>
        <time>2021-01-16T15:31:23Z</time>
      </trkpt>
      <trkpt lat="45.05618" lon="5.66305">
        <ele>358.8</ele>
        <time>2021-01-16T15:31:24Z</time>
      </trkpt>
      <trkpt lat="45.05622" lon="5.66307">
        <ele>358.2</ele>
        <time>2021-01-16T15:31:25Z</time>
      </trkpt>
      <trkpt lat="45.05625" lon="5.66309">
        <ele>357.6</ele>
        <time>2021-01-16T15:31:26Z</time>
      </trkpt>
      <trkpt lat="45.05628" lon="5.6631">
        <ele>357.8</ele>
        <time>2021-01-16T15:31:27Z</time>
      </trkpt>
      <trkpt lat="45.05631" lon="5.66312">
        <ele>357.8</ele>
        <time>2021-01-16T15:31:28Z</time>
      </trkpt>
      <trkpt lat="45.05631" lon="5.66312">
        <ele>358</ele>
        <time>2021-01-16T15:31:29Z</time>
      </trkpt>
      <trkpt lat="45.05631" lon="5.66312">
        <ele>358</ele>
        <time>2021-01-16T15:31:30Z</time>
      </trkpt>
      <trkpt lat="45.05634" lon="5.66313">
        <ele>358.4</ele>
        <time>2021-01-16T15:31:31Z</time>
      </trkpt>
      <trkpt lat="45.05636" lon="5.66314">
        <ele>358.4</ele>
        <time>2021-01-16T15:31:32Z</time>
      </trkpt>
      <trkpt lat="45.05639" lon="5.66315">
        <ele>358.8</ele>
        <time>2021-01-16T15:31:33Z</time>
      </trkpt>
      <trkpt lat="45.05641" lon="5.66316">
        <ele>358.8</ele>
        <time>2021-01-16T15:31:34Z</time>
      </trkpt>
      <trkpt lat="45.05645" lon="5.66319">
        <ele>359</ele>
        <time>2021-01-16T15:31:35Z</time>
      </trkpt>
      <trkpt lat="45.05648" lon="5.66321">
        <ele>358.8</ele>
        <time>2021-01-16T15:31:36Z</time>
      </trkpt>
      <trkpt lat="45.05652" lon="5.66324">
        <ele>359</ele>
        <time>2021-01-16T15:31:37Z</time>
      </trkpt>
      <trkpt lat="45.05655" lon="5.66326">
        <ele>358.4</ele>
        <time>2021-01-16T15:31:38Z</time>
      </trkpt>
      <trkpt lat="45.05659" lon="5.66329">
        <ele>358.2</ele>
        <time>2021-01-16T15:31:39Z</time>
      </trkpt>
      <trkpt lat="45.05661" lon="5.6633">
        <ele>357.4</ele>
        <time>2021-01-16T15:31:40Z</time>
      </trkpt>
      <trkpt lat="45.05662" lon="5.66331">
        <ele>356.6</ele>
        <time>2021-01-16T15:31:41Z</time>
      </trkpt>
      <trkpt lat="45.05664" lon="5.66332">
        <ele>356</ele>
        <time>2021-01-16T15:31:42Z</time>
      </trkpt>
      <trkpt lat="45.05668" lon="5.66335">
        <ele>355</ele>
        <time>2021-01-16T15:31:43Z</time>
      </trkpt>
      <trkpt lat="45.05672" lon="5.66339">
        <ele>354.4</ele>
        <time>2021-01-16T15:31:44Z</time>
      </trkpt>
      <trkpt lat="45.05676" lon="5.66343">
        <ele>353.4</ele>
        <time>2021-01-16T15:31:45Z</time>
      </trkpt>
      <trkpt lat="45.05678" lon="5.66345">
        <ele>352.6</ele>
        <time>2021-01-16T15:31:46Z</time>
      </trkpt>
      <trkpt lat="45.0568" lon="5.66347">
        <ele>351.2</ele>
        <time>2021-01-16T15:31:47Z</time>
      </trkpt>
      <trkpt lat="45.05682" lon="5.66348">
        <ele>350.4</ele>
        <time>2021-01-16T15:31:48Z</time>
      </trkpt>
      <trkpt lat="45.05687" lon="5.66354">
        <ele>349.2</ele>
        <time>2021-01-16T15:31:49Z</time>
      </trkpt>
      <trkpt lat="45.05688" lon="5.66355">
        <ele>348.4</ele>
        <time>2021-01-16T15:31:50Z</time>
      </trkpt>
      <trkpt lat="45.05692" lon="5.66359">
        <ele>347.2</ele>
        <time>2021-01-16T15:31:51Z</time>
      </trkpt>
      <trkpt lat="45.05695" lon="5.66361">
        <ele>346.6</ele>
        <time>2021-01-16T15:31:52Z</time>
      </trkpt>
      <trkpt lat="45.05699" lon="5.66364">
        <ele>346.6</ele>
        <time>2021-01-16T15:31:53Z</time>
      </trkpt>
      <trkpt lat="45.05705" lon="5.66369">
        <ele>346</ele>
        <time>2021-01-16T15:31:54Z</time>
      </trkpt>
      <trkpt lat="45.05707" lon="5.66371">
        <ele>346.2</ele>
        <time>2021-01-16T15:31:55Z</time>
      </trkpt>
      <trkpt lat="45.05712" lon="5.66375">
        <ele>345.6</ele>
        <time>2021-01-16T15:31:56Z</time>
      </trkpt>
      <trkpt lat="45.05714" lon="5.66375">
        <ele>345.2</ele>
        <time>2021-01-16T15:31:57Z</time>
      </trkpt>
      <trkpt lat="45.05715" lon="5.66375">
        <ele>344.4</ele>
        <time>2021-01-16T15:31:58Z</time>
      </trkpt>
      <trkpt lat="45.05717" lon="5.66375">
        <ele>344</ele>
        <time>2021-01-16T15:31:59Z</time>
      </trkpt>
      <trkpt lat="45.05723" lon="5.66374">
        <ele>343.2</ele>
        <time>2021-01-16T15:32:00Z</time>
      </trkpt>
      <trkpt lat="45.05728" lon="5.66374">
        <ele>342.6</ele>
        <time>2021-01-16T15:32:01Z</time>
      </trkpt>
      <trkpt lat="45.05734" lon="5.66374">
        <ele>341.8</ele>
        <time>2021-01-16T15:32:02Z</time>
      </trkpt>
      <trkpt lat="45.05735" lon="5.66376">
        <ele>340.6</ele>
        <time>2021-01-16T15:32:03Z</time>
      </trkpt>
      <trkpt lat="45.05737" lon="5.66378">
        <ele>339.4</ele>
        <time>2021-01-16T15:32:04Z</time>
      </trkpt>
      <trkpt lat="45.05738" lon="5.6638">
        <ele>338.4</ele>
        <time>2021-01-16T15:32:05Z</time>
      </trkpt>
      <trkpt lat="45.05739" lon="5.66383">
        <ele>337.4</ele>
        <time>2021-01-16T15:32:06Z</time>
      </trkpt>
      <trkpt lat="45.05741" lon="5.66385">
        <ele>337</ele>
        <time>2021-01-16T15:32:07Z</time>
      </trkpt>
      <trkpt lat="45.05741" lon="5.66386">
        <ele>336.4</ele>
        <time>2021-01-16T15:32:08Z</time>
      </trkpt>
      <trkpt lat="45.05742" lon="5.66387">
        <ele>336</ele>
        <time>2021-01-16T15:32:09Z</time>
      </trkpt>
      <trkpt lat="45.05743" lon="5.66388">
        <ele>335.2</ele>
        <time>2021-01-16T15:32:10Z</time>
      </trkpt>
      <trkpt lat="45.05744" lon="5.6639">
        <ele>334.8</ele>
        <time>2021-01-16T15:32:11Z</time>
      </trkpt>
      <trkpt lat="45.05745" lon="5.66391">
        <ele>333.8</ele>
        <time>2021-01-16T15:32:12Z</time>
      </trkpt>
      <trkpt lat="45.05745" lon="5.66392">
        <ele>333.4</ele>
        <time>2021-01-16T15:32:13Z</time>
      </trkpt>
      <trkpt lat="45.05746" lon="5.66393">
        <ele>333.2</ele>
        <time>2021-01-16T15:32:14Z</time>
      </trkpt>
      <trkpt lat="45.05747" lon="5.66394">
        <ele>333</ele>
        <time>2021-01-16T15:32:15Z</time>
      </trkpt>
      <trkpt lat="45.05747" lon="5.66394">
        <ele>332.8</ele>
        <time>2021-01-16T15:32:16Z</time>
      </trkpt>
      <trkpt lat="45.05747" lon="5.66394">
        <ele>332.8</ele>
        <time>2021-01-16T15:32:17Z</time>
      </trkpt>
      <trkpt lat="45.05747" lon="5.66394">
        <ele>332.6</ele>
        <time>2021-01-16T15:32:18Z</time>
      </trkpt>
      <trkpt lat="45.05747" lon="5.66394">
        <ele>332.8</ele>
        <time>2021-01-16T15:32:19Z</time>
      </trkpt>
      <trkpt lat="45.05745" lon="5.66397">
        <ele>332.6</ele>
        <time>2021-01-16T15:32:20Z</time>
      </trkpt>
      <trkpt lat="45.05745" lon="5.66397">
        <ele>332.6</ele>
        <time>2021-01-16T15:32:21Z</time>
      </trkpt>
      <trkpt lat="45.05747" lon="5.664">
        <ele>332.4</ele>
        <time>2021-01-16T15:32:22Z</time>
      </trkpt>
      <trkpt lat="45.05748" lon="5.66402">
        <ele>332.4</ele>
        <time>2021-01-16T15:32:23Z</time>
      </trkpt>
      <trkpt lat="45.05749" lon="5.66404">
        <ele>331.6</ele>
        <time>2021-01-16T15:32:24Z</time>
      </trkpt>
      <trkpt lat="45.05751" lon="5.66406">
        <ele>331.2</ele>
        <time>2021-01-16T15:32:25Z</time>
      </trkpt>
      <trkpt lat="45.05752" lon="5.66409">
        <ele>330.4</ele>
        <time>2021-01-16T15:32:26Z</time>
      </trkpt>
      <trkpt lat="45.05754" lon="5.6641">
        <ele>329.8</ele>
        <time>2021-01-16T15:32:27Z</time>
      </trkpt>
      <trkpt lat="45.05755" lon="5.66413">
        <ele>328.8</ele>
        <time>2021-01-16T15:32:28Z</time>
      </trkpt>
      <trkpt lat="45.05757" lon="5.66414">
        <ele>327.8</ele>
        <time>2021-01-16T15:32:29Z</time>
      </trkpt>
      <trkpt lat="45.05759" lon="5.66416">
        <ele>326.6</ele>
        <time>2021-01-16T15:32:30Z</time>
      </trkpt>
      <trkpt lat="45.05759" lon="5.66416">
        <ele>325.6</ele>
        <time>2021-01-16T15:32:31Z</time>
      </trkpt>
      <trkpt lat="45.05759" lon="5.66416">
        <ele>325.2</ele>
        <time>2021-01-16T15:32:32Z</time>
      </trkpt>
      <trkpt lat="45.05761" lon="5.6642">
        <ele>324.6</ele>
        <time>2021-01-16T15:32:33Z</time>
      </trkpt>
      <trkpt lat="45.05763" lon="5.66423">
        <ele>323.4</ele>
        <time>2021-01-16T15:32:34Z</time>
      </trkpt>
      <trkpt lat="45.05765" lon="5.66426">
        <ele>322.4</ele>
        <time>2021-01-16T15:32:35Z</time>
      </trkpt>
      <trkpt lat="45.05767" lon="5.6643">
        <ele>321.6</ele>
        <time>2021-01-16T15:32:36Z</time>
      </trkpt>
      <trkpt lat="45.05765" lon="5.66434">
        <ele>320.6</ele>
        <time>2021-01-16T15:32:37Z</time>
      </trkpt>
      <trkpt lat="45.05764" lon="5.66435">
        <ele>319.8</ele>
        <time>2021-01-16T15:32:38Z</time>
      </trkpt>
      <trkpt lat="45.05762" lon="5.66437">
        <ele>319.4</ele>
        <time>2021-01-16T15:32:39Z</time>
      </trkpt>
      <trkpt lat="45.05761" lon="5.66439">
        <ele>318.6</ele>
        <time>2021-01-16T15:32:40Z</time>
      </trkpt>
      <trkpt lat="45.05759" lon="5.66441">
        <ele>318</ele>
        <time>2021-01-16T15:32:41Z</time>
      </trkpt>
      <trkpt lat="45.05757" lon="5.66443">
        <ele>317.4</ele>
        <time>2021-01-16T15:32:42Z</time>
      </trkpt>
      <trkpt lat="45.05754" lon="5.66445">
        <ele>317</ele>
        <time>2021-01-16T15:32:43Z</time>
      </trkpt>
      <trkpt lat="45.05752" lon="5.66447">
        <ele>316.2</ele>
        <time>2021-01-16T15:32:44Z</time>
      </trkpt>
      <trkpt lat="45.05749" lon="5.66449">
        <ele>315.6</ele>
        <time>2021-01-16T15:32:45Z</time>
      </trkpt>
      <trkpt lat="45.05747" lon="5.66452">
        <ele>314.8</ele>
        <time>2021-01-16T15:32:46Z</time>
      </trkpt>
      <trkpt lat="45.05744" lon="5.66456">
        <ele>314.2</ele>
        <time>2021-01-16T15:32:47Z</time>
      </trkpt>
      <trkpt lat="45.05743" lon="5.66457">
        <ele>313</ele>
        <time>2021-01-16T15:32:48Z</time>
      </trkpt>
      <trkpt lat="45.05742" lon="5.66458">
        <ele>312.2</ele>
        <time>2021-01-16T15:32:49Z</time>
      </trkpt>
      <trkpt lat="45.05741" lon="5.66459">
        <ele>311</ele>
        <time>2021-01-16T15:32:50Z</time>
      </trkpt>
      <trkpt lat="45.0574" lon="5.66461">
        <ele>310.2</ele>
        <time>2021-01-16T15:32:51Z</time>
      </trkpt>
      <trkpt lat="45.05735" lon="5.66465">
        <ele>309</ele>
        <time>2021-01-16T15:32:52Z</time>
      </trkpt>
      <trkpt lat="45.05735" lon="5.66468">
        <ele>308</ele>
        <time>2021-01-16T15:32:53Z</time>
      </trkpt>
      <trkpt lat="45.05734" lon="5.66471">
        <ele>307</ele>
        <time>2021-01-16T15:32:54Z</time>
      </trkpt>
      <trkpt lat="45.05733" lon="5.66477">
        <ele>306</ele>
        <time>2021-01-16T15:32:55Z</time>
      </trkpt>
      <trkpt lat="45.05732" lon="5.66483">
        <ele>306</ele>
        <time>2021-01-16T15:32:56Z</time>
      </trkpt>
      <trkpt lat="45.05731" lon="5.66489">
        <ele>305.8</ele>
        <time>2021-01-16T15:32:57Z</time>
      </trkpt>
      <trkpt lat="45.0573" lon="5.66495">
        <ele>306</ele>
        <time>2021-01-16T15:32:58Z</time>
      </trkpt>
      <trkpt lat="45.05729" lon="5.66501">
        <ele>305.6</ele>
        <time>2021-01-16T15:32:59Z</time>
      </trkpt>
      <trkpt lat="45.05728" lon="5.66506">
        <ele>305.2</ele>
        <time>2021-01-16T15:33:00Z</time>
      </trkpt>
      <trkpt lat="45.05727" lon="5.66512">
        <ele>304.6</ele>
        <time>2021-01-16T15:33:01Z</time>
      </trkpt>
      <trkpt lat="45.05728" lon="5.6652">
        <ele>304.2</ele>
        <time>2021-01-16T15:33:02Z</time>
      </trkpt>
      <trkpt lat="45.05728" lon="5.66522">
        <ele>303.6</ele>
        <time>2021-01-16T15:33:03Z</time>
      </trkpt>
      <trkpt lat="45.05728" lon="5.66524">
        <ele>303</ele>
        <time>2021-01-16T15:33:04Z</time>
      </trkpt>
      <trkpt lat="45.05728" lon="5.66531">
        <ele>302.4</ele>
        <time>2021-01-16T15:33:05Z</time>
      </trkpt>
      <trkpt lat="45.05727" lon="5.66535">
        <ele>301.8</ele>
        <time>2021-01-16T15:33:06Z</time>
      </trkpt>
      <trkpt lat="45.05727" lon="5.66539">
        <ele>301.4</ele>
        <time>2021-01-16T15:33:07Z</time>
      </trkpt>
      <trkpt lat="45.05726" lon="5.66543">
        <ele>301.2</ele>
        <time>2021-01-16T15:33:08Z</time>
      </trkpt>
      <trkpt lat="45.05725" lon="5.66554">
        <ele>300.6</ele>
        <time>2021-01-16T15:33:09Z</time>
      </trkpt>
      <trkpt lat="45.05725" lon="5.66557">
        <ele>300.4</ele>
        <time>2021-01-16T15:33:10Z</time>
      </trkpt>
      <trkpt lat="45.05724" lon="5.66562">
        <ele>299.8</ele>
        <time>2021-01-16T15:33:11Z</time>
      </trkpt>
      <trkpt lat="45.05723" lon="5.66566">
        <ele>299.8</ele>
        <time>2021-01-16T15:33:12Z</time>
      </trkpt>
      <trkpt lat="45.05723" lon="5.6657">
        <ele>299.2</ele>
        <time>2021-01-16T15:33:13Z</time>
      </trkpt>
      <trkpt lat="45.05722" lon="5.66575">
        <ele>299</ele>
        <time>2021-01-16T15:33:14Z</time>
      </trkpt>
      <trkpt lat="45.05721" lon="5.66579">
        <ele>298.6</ele>
        <time>2021-01-16T15:33:15Z</time>
      </trkpt>
      <trkpt lat="45.05721" lon="5.66583">
        <ele>298.6</ele>
        <time>2021-01-16T15:33:16Z</time>
      </trkpt>
      <trkpt lat="45.05719" lon="5.66586">
        <ele>298.2</ele>
        <time>2021-01-16T15:33:17Z</time>
      </trkpt>
      <trkpt lat="45.05719" lon="5.66591">
        <ele>298</ele>
        <time>2021-01-16T15:33:18Z</time>
      </trkpt>
      <trkpt lat="45.05718" lon="5.66595">
        <ele>297.8</ele>
        <time>2021-01-16T15:33:19Z</time>
      </trkpt>
      <trkpt lat="45.05716" lon="5.66599">
        <ele>297.6</ele>
        <time>2021-01-16T15:33:20Z</time>
      </trkpt>
      <trkpt lat="45.05715" lon="5.66603">
        <ele>297.2</ele>
        <time>2021-01-16T15:33:21Z</time>
      </trkpt>
      <trkpt lat="45.05714" lon="5.66607">
        <ele>297.2</ele>
        <time>2021-01-16T15:33:22Z</time>
      </trkpt>
      <trkpt lat="45.05713" lon="5.66612">
        <ele>297</ele>
        <time>2021-01-16T15:33:23Z</time>
      </trkpt>
      <trkpt lat="45.05712" lon="5.66616">
        <ele>296.8</ele>
        <time>2021-01-16T15:33:24Z</time>
      </trkpt>
      <trkpt lat="45.05711" lon="5.6662">
        <ele>296.6</ele>
        <time>2021-01-16T15:33:25Z</time>
      </trkpt>
      <trkpt lat="45.0571" lon="5.66624">
        <ele>296.6</ele>
        <time>2021-01-16T15:33:26Z</time>
      </trkpt>
      <trkpt lat="45.05709" lon="5.66628">
        <ele>295.8</ele>
        <time>2021-01-16T15:33:27Z</time>
      </trkpt>
      <trkpt lat="45.05708" lon="5.66632">
        <ele>295</ele>
        <time>2021-01-16T15:33:28Z</time>
      </trkpt>
      <trkpt lat="45.05707" lon="5.66636">
        <ele>294.4</ele>
        <time>2021-01-16T15:33:29Z</time>
      </trkpt>
      <trkpt lat="45.05706" lon="5.6664">
        <ele>293.8</ele>
        <time>2021-01-16T15:33:30Z</time>
      </trkpt>
      <trkpt lat="45.05703" lon="5.66643">
        <ele>293.6</ele>
        <time>2021-01-16T15:33:31Z</time>
      </trkpt>
      <trkpt lat="45.05702" lon="5.66647">
        <ele>293.8</ele>
        <time>2021-01-16T15:33:32Z</time>
      </trkpt>
      <trkpt lat="45.057" lon="5.6665">
        <ele>293.6</ele>
        <time>2021-01-16T15:33:33Z</time>
      </trkpt>
      <trkpt lat="45.05698" lon="5.66654">
        <ele>293.2</ele>
        <time>2021-01-16T15:33:34Z</time>
      </trkpt>
      <trkpt lat="45.05696" lon="5.66658">
        <ele>293</ele>
        <time>2021-01-16T15:33:35Z</time>
      </trkpt>
      <trkpt lat="45.05693" lon="5.66662">
        <ele>292.8</ele>
        <time>2021-01-16T15:33:36Z</time>
      </trkpt>
      <trkpt lat="45.05692" lon="5.66665">
        <ele>293</ele>
        <time>2021-01-16T15:33:37Z</time>
      </trkpt>
      <trkpt lat="45.0569" lon="5.6667">
        <ele>292.6</ele>
        <time>2021-01-16T15:33:38Z</time>
      </trkpt>
      <trkpt lat="45.05689" lon="5.66674">
        <ele>292.6</ele>
        <time>2021-01-16T15:33:39Z</time>
      </trkpt>
      <trkpt lat="45.05687" lon="5.66678">
        <ele>292.2</ele>
        <time>2021-01-16T15:33:40Z</time>
      </trkpt>
      <trkpt lat="45.05687" lon="5.66682">
        <ele>292.2</ele>
        <time>2021-01-16T15:33:41Z</time>
      </trkpt>
      <trkpt lat="45.05686" lon="5.66686">
        <ele>292</ele>
        <time>2021-01-16T15:33:42Z</time>
      </trkpt>
      <trkpt lat="45.05685" lon="5.66691">
        <ele>292</ele>
        <time>2021-01-16T15:33:43Z</time>
      </trkpt>
      <trkpt lat="45.05684" lon="5.66695">
        <ele>291.8</ele>
        <time>2021-01-16T15:33:44Z</time>
      </trkpt>
      <trkpt lat="45.05683" lon="5.667">
        <ele>292</ele>
        <time>2021-01-16T15:33:45Z</time>
      </trkpt>
      <trkpt lat="45.05681" lon="5.66704">
        <ele>291.6</ele>
        <time>2021-01-16T15:33:46Z</time>
      </trkpt>
      <trkpt lat="45.05679" lon="5.66711">
        <ele>291.8</ele>
        <time>2021-01-16T15:33:47Z</time>
      </trkpt>
      <trkpt lat="45.05679" lon="5.66713">
        <ele>291.4</ele>
        <time>2021-01-16T15:33:48Z</time>
      </trkpt>
      <trkpt lat="45.05678" lon="5.66718">
        <ele>291.4</ele>
        <time>2021-01-16T15:33:49Z</time>
      </trkpt>
      <trkpt lat="45.05677" lon="5.66723">
        <ele>291.2</ele>
        <time>2021-01-16T15:33:50Z</time>
      </trkpt>
      <trkpt lat="45.05676" lon="5.66727">
        <ele>291.2</ele>
        <time>2021-01-16T15:33:51Z</time>
      </trkpt>
      <trkpt lat="45.05675" lon="5.66731">
        <ele>291</ele>
        <time>2021-01-16T15:33:52Z</time>
      </trkpt>
      <trkpt lat="45.05674" lon="5.66735">
        <ele>291</ele>
        <time>2021-01-16T15:33:53Z</time>
      </trkpt>
      <trkpt lat="45.05672" lon="5.6674">
        <ele>290.4</ele>
        <time>2021-01-16T15:33:54Z</time>
      </trkpt>
      <trkpt lat="45.0567" lon="5.66743">
        <ele>290.6</ele>
        <time>2021-01-16T15:33:55Z</time>
      </trkpt>
      <trkpt lat="45.05668" lon="5.66746">
        <ele>290.2</ele>
        <time>2021-01-16T15:33:56Z</time>
      </trkpt>
      <trkpt lat="45.05666" lon="5.66747">
        <ele>290.4</ele>
        <time>2021-01-16T15:33:57Z</time>
      </trkpt>
      <trkpt lat="45.05666" lon="5.66747">
        <ele>290</ele>
        <time>2021-01-16T15:33:58Z</time>
      </trkpt>
      <trkpt lat="45.05664" lon="5.6675">
        <ele>289.8</ele>
        <time>2021-01-16T15:33:59Z</time>
      </trkpt>
      <trkpt lat="45.05664" lon="5.6675">
        <ele>289.8</ele>
        <time>2021-01-16T15:34:00Z</time>
      </trkpt>
      <trkpt lat="45.05662" lon="5.66754">
        <ele>289.6</ele>
        <time>2021-01-16T15:34:01Z</time>
      </trkpt>
      <trkpt lat="45.05661" lon="5.66757">
        <ele>289.6</ele>
        <time>2021-01-16T15:34:02Z</time>
      </trkpt>
      <trkpt lat="45.0566" lon="5.66761">
        <ele>289.6</ele>
        <time>2021-01-16T15:34:03Z</time>
      </trkpt>
      <trkpt lat="45.05659" lon="5.66763">
        <ele>289.8</ele>
        <time>2021-01-16T15:34:04Z</time>
      </trkpt>
      <trkpt lat="45.05658" lon="5.66765">
        <ele>289.6</ele>
        <time>2021-01-16T15:34:05Z</time>
      </trkpt>
      <trkpt lat="45.05656" lon="5.66766">
        <ele>289.8</ele>
        <time>2021-01-16T15:34:06Z</time>
      </trkpt>
      <trkpt lat="45.05654" lon="5.66766">
        <ele>289.8</ele>
        <time>2021-01-16T15:34:07Z</time>
      </trkpt>
      <trkpt lat="45.05651" lon="5.66765">
        <ele>289.8</ele>
        <time>2021-01-16T15:34:08Z</time>
      </trkpt>
      <trkpt lat="45.05648" lon="5.66765">
        <ele>289.6</ele>
        <time>2021-01-16T15:34:09Z</time>
      </trkpt>
      <trkpt lat="45.05643" lon="5.66762">
        <ele>289.4</ele>
        <time>2021-01-16T15:34:10Z</time>
      </trkpt>
      <trkpt lat="45.05641" lon="5.66762">
        <ele>289.6</ele>
        <time>2021-01-16T15:34:11Z</time>
      </trkpt>
      <trkpt lat="45.05638" lon="5.6676">
        <ele>289.6</ele>
        <time>2021-01-16T15:34:12Z</time>
      </trkpt>
      <trkpt lat="45.05634" lon="5.66759">
        <ele>289.8</ele>
        <time>2021-01-16T15:34:13Z</time>
      </trkpt>
      <trkpt lat="45.05631" lon="5.66758">
        <ele>290</ele>
        <time>2021-01-16T15:34:14Z</time>
      </trkpt>
      <trkpt lat="45.05628" lon="5.66756">
        <ele>290.2</ele>
        <time>2021-01-16T15:34:15Z</time>
      </trkpt>
      <trkpt lat="45.05625" lon="5.66755">
        <ele>290.4</ele>
        <time>2021-01-16T15:34:16Z</time>
      </trkpt>
      <trkpt lat="45.0562" lon="5.66754">
        <ele>290.8</ele>
        <time>2021-01-16T15:34:17Z</time>
      </trkpt>
      <trkpt lat="45.05619" lon="5.66753">
        <ele>290.6</ele>
        <time>2021-01-16T15:34:18Z</time>
      </trkpt>
      <trkpt lat="45.05619" lon="5.66753">
        <ele>291</ele>
        <time>2021-01-16T15:34:19Z</time>
      </trkpt>
      <trkpt lat="45.05617" lon="5.66756">
        <ele>290.8</ele>
        <time>2021-01-16T15:34:20Z</time>
      </trkpt>
      <trkpt lat="45.05617" lon="5.66759">
        <ele>291</ele>
        <time>2021-01-16T15:34:21Z</time>
      </trkpt>
      <trkpt lat="45.05616" lon="5.66763">
        <ele>291.2</ele>
        <time>2021-01-16T15:34:22Z</time>
      </trkpt>
      <trkpt lat="45.05616" lon="5.66767">
        <ele>291.2</ele>
        <time>2021-01-16T15:34:23Z</time>
      </trkpt>
      <trkpt lat="45.05615" lon="5.66771">
        <ele>291.4</ele>
        <time>2021-01-16T15:34:24Z</time>
      </trkpt>
      <trkpt lat="45.05615" lon="5.66776">
        <ele>291</ele>
        <time>2021-01-16T15:34:25Z</time>
      </trkpt>
      <trkpt lat="45.05614" lon="5.6678">
        <ele>291.4</ele>
        <time>2021-01-16T15:34:26Z</time>
      </trkpt>
      <trkpt lat="45.05613" lon="5.66785">
        <ele>291.4</ele>
        <time>2021-01-16T15:34:27Z</time>
      </trkpt>
      <trkpt lat="45.05612" lon="5.66789">
        <ele>291.6</ele>
        <time>2021-01-16T15:34:28Z</time>
      </trkpt>
      <trkpt lat="45.05612" lon="5.66793">
        <ele>291.4</ele>
        <time>2021-01-16T15:34:29Z</time>
      </trkpt>
      <trkpt lat="45.05611" lon="5.66798">
        <ele>291.8</ele>
        <time>2021-01-16T15:34:30Z</time>
      </trkpt>
      <trkpt lat="45.05611" lon="5.66801">
        <ele>291.6</ele>
        <time>2021-01-16T15:34:31Z</time>
      </trkpt>
      <trkpt lat="45.0561" lon="5.66806">
        <ele>291.8</ele>
        <time>2021-01-16T15:34:32Z</time>
      </trkpt>
      <trkpt lat="45.0561" lon="5.6681">
        <ele>291.4</ele>
        <time>2021-01-16T15:34:33Z</time>
      </trkpt>
      <trkpt lat="45.0561" lon="5.66814">
        <ele>291.2</ele>
        <time>2021-01-16T15:34:34Z</time>
      </trkpt>
      <trkpt lat="45.05609" lon="5.66817">
        <ele>290.8</ele>
        <time>2021-01-16T15:34:35Z</time>
      </trkpt>
      <trkpt lat="45.05608" lon="5.66821">
        <ele>290.8</ele>
        <time>2021-01-16T15:34:36Z</time>
      </trkpt>
      <trkpt lat="45.05607" lon="5.66825">
        <ele>290.6</ele>
        <time>2021-01-16T15:34:37Z</time>
      </trkpt>
      <trkpt lat="45.05606" lon="5.66829">
        <ele>290.4</ele>
        <time>2021-01-16T15:34:38Z</time>
      </trkpt>
      <trkpt lat="45.05605" lon="5.66833">
        <ele>290.6</ele>
        <time>2021-01-16T15:34:39Z</time>
      </trkpt>
      <trkpt lat="45.05604" lon="5.66837">
        <ele>290.6</ele>
        <time>2021-01-16T15:34:40Z</time>
      </trkpt>
      <trkpt lat="45.05603" lon="5.6684">
        <ele>290.8</ele>
        <time>2021-01-16T15:34:41Z</time>
      </trkpt>
      <trkpt lat="45.05603" lon="5.66844">
        <ele>290.8</ele>
        <time>2021-01-16T15:34:42Z</time>
      </trkpt>
      <trkpt lat="45.05602" lon="5.66848">
        <ele>291</ele>
        <time>2021-01-16T15:34:43Z</time>
      </trkpt>
      <trkpt lat="45.05601" lon="5.66852">
        <ele>291</ele>
        <time>2021-01-16T15:34:44Z</time>
      </trkpt>
      <trkpt lat="45.056" lon="5.66856">
        <ele>291.4</ele>
        <time>2021-01-16T15:34:45Z</time>
      </trkpt>
      <trkpt lat="45.05599" lon="5.66861">
        <ele>291</ele>
        <time>2021-01-16T15:34:46Z</time>
      </trkpt>
      <trkpt lat="45.05599" lon="5.66865">
        <ele>291.4</ele>
        <time>2021-01-16T15:34:47Z</time>
      </trkpt>
      <trkpt lat="45.05598" lon="5.6687">
        <ele>291.2</ele>
        <time>2021-01-16T15:34:48Z</time>
      </trkpt>
      <trkpt lat="45.05598" lon="5.66875">
        <ele>291.4</ele>
        <time>2021-01-16T15:34:49Z</time>
      </trkpt>
      <trkpt lat="45.05597" lon="5.66879">
        <ele>291</ele>
        <time>2021-01-16T15:34:50Z</time>
      </trkpt>
      <trkpt lat="45.05597" lon="5.66883">
        <ele>291</ele>
        <time>2021-01-16T15:34:51Z</time>
      </trkpt>
      <trkpt lat="45.05597" lon="5.66887">
        <ele>290.4</ele>
        <time>2021-01-16T15:34:52Z</time>
      </trkpt>
      <trkpt lat="45.05597" lon="5.66891">
        <ele>290.2</ele>
        <time>2021-01-16T15:34:53Z</time>
      </trkpt>
      <trkpt lat="45.05596" lon="5.66895">
        <ele>290</ele>
        <time>2021-01-16T15:34:54Z</time>
      </trkpt>
      <trkpt lat="45.05596" lon="5.66898">
        <ele>289.8</ele>
        <time>2021-01-16T15:34:55Z</time>
      </trkpt>
      <trkpt lat="45.05595" lon="5.66902">
        <ele>290</ele>
        <time>2021-01-16T15:34:56Z</time>
      </trkpt>
      <trkpt lat="45.05594" lon="5.66906">
        <ele>289.8</ele>
        <time>2021-01-16T15:34:57Z</time>
      </trkpt>
      <trkpt lat="45.05593" lon="5.6691">
        <ele>290.2</ele>
        <time>2021-01-16T15:34:58Z</time>
      </trkpt>
      <trkpt lat="45.05593" lon="5.66914">
        <ele>290</ele>
        <time>2021-01-16T15:34:59Z</time>
      </trkpt>
      <trkpt lat="45.05592" lon="5.66918">
        <ele>290.4</ele>
        <time>2021-01-16T15:35:00Z</time>
      </trkpt>
      <trkpt lat="45.05592" lon="5.66922">
        <ele>290.2</ele>
        <time>2021-01-16T15:35:01Z</time>
      </trkpt>
      <trkpt lat="45.05591" lon="5.66926">
        <ele>290.6</ele>
        <time>2021-01-16T15:35:02Z</time>
      </trkpt>
      <trkpt lat="45.0559" lon="5.6693">
        <ele>290.4</ele>
        <time>2021-01-16T15:35:03Z</time>
      </trkpt>
      <trkpt lat="45.05589" lon="5.66935">
        <ele>290.8</ele>
        <time>2021-01-16T15:35:04Z</time>
      </trkpt>
      <trkpt lat="45.05589" lon="5.66939">
        <ele>290.8</ele>
        <time>2021-01-16T15:35:05Z</time>
      </trkpt>
      <trkpt lat="45.05588" lon="5.66944">
        <ele>290.8</ele>
        <time>2021-01-16T15:35:06Z</time>
      </trkpt>
      <trkpt lat="45.05587" lon="5.66947">
        <ele>290.6</ele>
        <time>2021-01-16T15:35:07Z</time>
      </trkpt>
      <trkpt lat="45.05588" lon="5.66951">
        <ele>290.6</ele>
        <time>2021-01-16T15:35:08Z</time>
      </trkpt>
      <trkpt lat="45.05589" lon="5.66956">
        <ele>290.4</ele>
        <time>2021-01-16T15:35:09Z</time>
      </trkpt>
      <trkpt lat="45.0559" lon="5.66959">
        <ele>290.4</ele>
        <time>2021-01-16T15:35:10Z</time>
      </trkpt>
      <trkpt lat="45.05591" lon="5.66963">
        <ele>290.2</ele>
        <time>2021-01-16T15:35:11Z</time>
      </trkpt>
      <trkpt lat="45.05592" lon="5.66966">
        <ele>289.4</ele>
        <time>2021-01-16T15:35:12Z</time>
      </trkpt>
      <trkpt lat="45.05594" lon="5.66969">
        <ele>289.6</ele>
        <time>2021-01-16T15:35:13Z</time>
      </trkpt>
      <trkpt lat="45.05595" lon="5.66971">
        <ele>289.4</ele>
        <time>2021-01-16T15:35:14Z</time>
      </trkpt>
      <trkpt lat="45.05597" lon="5.66973">
        <ele>289.8</ele>
        <time>2021-01-16T15:35:15Z</time>
      </trkpt>
      <trkpt lat="45.05599" lon="5.66974">
        <ele>289.8</ele>
        <time>2021-01-16T15:35:16Z</time>
      </trkpt>
      <trkpt lat="45.05602" lon="5.66976">
        <ele>290.2</ele>
        <time>2021-01-16T15:35:17Z</time>
      </trkpt>
      <trkpt lat="45.05604" lon="5.66977">
        <ele>290</ele>
        <time>2021-01-16T15:35:18Z</time>
      </trkpt>
      <trkpt lat="45.05605" lon="5.66977">
        <ele>290.2</ele>
        <time>2021-01-16T15:35:19Z</time>
      </trkpt>
      <trkpt lat="45.05606" lon="5.66977">
        <ele>290</ele>
        <time>2021-01-16T15:35:20Z</time>
      </trkpt>
      <trkpt lat="45.05607" lon="5.66978">
        <ele>290.4</ele>
        <time>2021-01-16T15:35:21Z</time>
      </trkpt>
      <trkpt lat="45.0561" lon="5.66979">
        <ele>290.4</ele>
        <time>2021-01-16T15:35:22Z</time>
      </trkpt>
      <trkpt lat="45.05614" lon="5.66981">
        <ele>290.6</ele>
        <time>2021-01-16T15:35:23Z</time>
      </trkpt>
      <trkpt lat="45.05617" lon="5.66983">
        <ele>290.4</ele>
        <time>2021-01-16T15:35:24Z</time>
      </trkpt>
      <trkpt lat="45.0562" lon="5.66984">
        <ele>290.8</ele>
        <time>2021-01-16T15:35:25Z</time>
      </trkpt>
      <trkpt lat="45.0562" lon="5.66984">
        <ele>290.6</ele>
        <time>2021-01-16T15:35:26Z</time>
      </trkpt>
      <trkpt lat="45.0562" lon="5.66984">
        <ele>290.6</ele>
        <time>2021-01-16T15:35:27Z</time>
      </trkpt>
      <trkpt lat="45.05617" lon="5.66984">
        <ele>290.6</ele>
        <time>2021-01-16T15:35:28Z</time>
      </trkpt>
      <trkpt lat="45.05616" lon="5.66984">
        <ele>290.6</ele>
        <time>2021-01-16T15:35:29Z</time>
      </trkpt>
      <trkpt lat="45.05614" lon="5.66984">
        <ele>290.8</ele>
        <time>2021-01-16T15:35:30Z</time>
      </trkpt>
      <trkpt lat="45.05611" lon="5.66984">
        <ele>291.2</ele>
        <time>2021-01-16T15:35:31Z</time>
      </trkpt>
      <trkpt lat="45.0561" lon="5.66984">
        <ele>290.8</ele>
        <time>2021-01-16T15:35:32Z</time>
      </trkpt>
      <trkpt lat="45.0561" lon="5.66984">
        <ele>290.8</ele>
        <time>2021-01-16T15:35:33Z</time>
      </trkpt>
      <trkpt lat="45.0561" lon="5.66984">
        <ele>290.6</ele>
        <time>2021-01-16T15:35:34Z</time>
      </trkpt>
      <trkpt lat="45.05608" lon="5.66987">
        <ele>290.8</ele>
        <time>2021-01-16T15:35:35Z</time>
      </trkpt>
      <trkpt lat="45.05605" lon="5.6699">
        <ele>290.6</ele>
        <time>2021-01-16T15:35:36Z</time>
      </trkpt>
      <trkpt lat="45.05603" lon="5.66992">
        <ele>290.8</ele>
        <time>2021-01-16T15:35:37Z</time>
      </trkpt>
      <trkpt lat="45.05601" lon="5.66995">
        <ele>290.6</ele>
        <time>2021-01-16T15:35:38Z</time>
      </trkpt>
      <trkpt lat="45.05599" lon="5.66997">
        <ele>290.8</ele>
        <time>2021-01-16T15:35:39Z</time>
      </trkpt>
      <trkpt lat="45.05597" lon="5.67">
        <ele>290.6</ele>
        <time>2021-01-16T15:35:40Z</time>
      </trkpt>
      <trkpt lat="45.05595" lon="5.67003">
        <ele>290.8</ele>
        <time>2021-01-16T15:35:41Z</time>
      </trkpt>
      <trkpt lat="45.05592" lon="5.67007">
        <ele>290.6</ele>
        <time>2021-01-16T15:35:42Z</time>
      </trkpt>
      <trkpt lat="45.05592" lon="5.67008">
        <ele>291</ele>
        <time>2021-01-16T15:35:43Z</time>
      </trkpt>
      <trkpt lat="45.0559" lon="5.67012">
        <ele>291</ele>
        <time>2021-01-16T15:35:44Z</time>
      </trkpt>
      <trkpt lat="45.05588" lon="5.67015">
        <ele>291</ele>
        <time>2021-01-16T15:35:45Z</time>
      </trkpt>
      <trkpt lat="45.05585" lon="5.67018">
        <ele>291</ele>
        <time>2021-01-16T15:35:46Z</time>
      </trkpt>
      <trkpt lat="45.05585" lon="5.67018">
        <ele>291</ele>
        <time>2021-01-16T15:35:47Z</time>
      </trkpt>
      <trkpt lat="45.05585" lon="5.67018">
        <ele>291</ele>
        <time>2021-01-16T15:35:48Z</time>
      </trkpt>
      <trkpt lat="45.05584" lon="5.67022">
        <ele>291.2</ele>
        <time>2021-01-16T15:35:49Z</time>
      </trkpt>
      <trkpt lat="45.05584" lon="5.67026">
        <ele>291</ele>
        <time>2021-01-16T15:35:50Z</time>
      </trkpt>
      <trkpt lat="45.05583" lon="5.67029">
        <ele>291.2</ele>
        <time>2021-01-16T15:35:51Z</time>
      </trkpt>
      <trkpt lat="45.05582" lon="5.67033">
        <ele>290.8</ele>
        <time>2021-01-16T15:35:52Z</time>
      </trkpt>
      <trkpt lat="45.05584" lon="5.67037">
        <ele>290.8</ele>
        <time>2021-01-16T15:35:53Z</time>
      </trkpt>
      <trkpt lat="45.05587" lon="5.67041">
        <ele>290.4</ele>
        <time>2021-01-16T15:35:54Z</time>
      </trkpt>
      <trkpt lat="45.05589" lon="5.67046">
        <ele>290.6</ele>
        <time>2021-01-16T15:35:55Z</time>
      </trkpt>
      <trkpt lat="45.05592" lon="5.6705">
        <ele>290.2</ele>
        <time>2021-01-16T15:35:56Z</time>
      </trkpt>
      <trkpt lat="45.05595" lon="5.67055">
        <ele>290.2</ele>
        <time>2021-01-16T15:35:57Z</time>
      </trkpt>
      <trkpt lat="45.05597" lon="5.67059">
        <ele>289.8</ele>
        <time>2021-01-16T15:35:58Z</time>
      </trkpt>
      <trkpt lat="45.05599" lon="5.67063">
        <ele>289.6</ele>
        <time>2021-01-16T15:35:59Z</time>
      </trkpt>
      <trkpt lat="45.05601" lon="5.67066">
        <ele>289.6</ele>
        <time>2021-01-16T15:36:00Z</time>
      </trkpt>
      <trkpt lat="45.05602" lon="5.67069">
        <ele>289.4</ele>
        <time>2021-01-16T15:36:01Z</time>
      </trkpt>
      <trkpt lat="45.05603" lon="5.67072">
        <ele>289.4</ele>
        <time>2021-01-16T15:36:02Z</time>
      </trkpt>
      <trkpt lat="45.05605" lon="5.67075">
        <ele>289.4</ele>
        <time>2021-01-16T15:36:03Z</time>
      </trkpt>
      <trkpt lat="45.05608" lon="5.67083">
        <ele>289.6</ele>
        <time>2021-01-16T15:36:04Z</time>
      </trkpt>
      <trkpt lat="45.05609" lon="5.67085">
        <ele>289.8</ele>
        <time>2021-01-16T15:36:05Z</time>
      </trkpt>
      <trkpt lat="45.05611" lon="5.67091">
        <ele>290</ele>
        <time>2021-01-16T15:36:06Z</time>
      </trkpt>
      <trkpt lat="45.05612" lon="5.67094">
        <ele>289.8</ele>
        <time>2021-01-16T15:36:07Z</time>
      </trkpt>
      <trkpt lat="45.05613" lon="5.67097">
        <ele>290.2</ele>
        <time>2021-01-16T15:36:08Z</time>
      </trkpt>
      <trkpt lat="45.05614" lon="5.671">
        <ele>290</ele>
        <time>2021-01-16T15:36:09Z</time>
      </trkpt>
      <trkpt lat="45.05617" lon="5.67109">
        <ele>290.4</ele>
        <time>2021-01-16T15:36:10Z</time>
      </trkpt>
      <trkpt lat="45.05619" lon="5.67112">
        <ele>290.2</ele>
        <time>2021-01-16T15:36:11Z</time>
      </trkpt>
      <trkpt lat="45.0562" lon="5.67113">
        <ele>290.6</ele>
        <time>2021-01-16T15:36:12Z</time>
      </trkpt>
      <trkpt lat="45.0562" lon="5.67115">
        <ele>290.4</ele>
        <time>2021-01-16T15:36:13Z</time>
      </trkpt>
      <trkpt lat="45.05621" lon="5.67116">
        <ele>290.8</ele>
        <time>2021-01-16T15:36:14Z</time>
      </trkpt>
      <trkpt lat="45.05623" lon="5.67121">
        <ele>290.4</ele>
        <time>2021-01-16T15:36:15Z</time>
      </trkpt>
      <trkpt lat="45.05625" lon="5.67125">
        <ele>290.6</ele>
        <time>2021-01-16T15:36:16Z</time>
      </trkpt>
      <trkpt lat="45.05628" lon="5.6713">
        <ele>290.2</ele>
        <time>2021-01-16T15:36:17Z</time>
      </trkpt>
      <trkpt lat="45.05629" lon="5.67134">
        <ele>290</ele>
        <time>2021-01-16T15:36:18Z</time>
      </trkpt>
      <trkpt lat="45.05629" lon="5.67137">
        <ele>289.8</ele>
        <time>2021-01-16T15:36:19Z</time>
      </trkpt>
      <trkpt lat="45.05629" lon="5.6714">
        <ele>289.6</ele>
        <time>2021-01-16T15:36:20Z</time>
      </trkpt>
      <trkpt lat="45.05629" lon="5.67146">
        <ele>289.6</ele>
        <time>2021-01-16T15:36:21Z</time>
      </trkpt>
      <trkpt lat="45.05629" lon="5.67152">
        <ele>289.4</ele>
        <time>2021-01-16T15:36:22Z</time>
      </trkpt>
      <trkpt lat="45.05629" lon="5.67158">
        <ele>289.6</ele>
        <time>2021-01-16T15:36:23Z</time>
      </trkpt>
      <trkpt lat="45.05626" lon="5.67167">
        <ele>289.6</ele>
        <time>2021-01-16T15:36:24Z</time>
      </trkpt>
      <trkpt lat="45.05625" lon="5.67169">
        <ele>289.8</ele>
        <time>2021-01-16T15:36:25Z</time>
      </trkpt>
      <trkpt lat="45.05624" lon="5.67171">
        <ele>290</ele>
        <time>2021-01-16T15:36:26Z</time>
      </trkpt>
      <trkpt lat="45.0562" lon="5.67178">
        <ele>290.2</ele>
        <time>2021-01-16T15:36:27Z</time>
      </trkpt>
      <trkpt lat="45.05619" lon="5.6718">
        <ele>290.4</ele>
        <time>2021-01-16T15:36:28Z</time>
      </trkpt>
      <trkpt lat="45.05618" lon="5.67182">
        <ele>290.6</ele>
        <time>2021-01-16T15:36:29Z</time>
      </trkpt>
      <trkpt lat="45.05615" lon="5.67188">
        <ele>290.6</ele>
        <time>2021-01-16T15:36:30Z</time>
      </trkpt>
      <trkpt lat="45.05615" lon="5.67188">
        <ele>291.2</ele>
        <time>2021-01-16T15:36:31Z</time>
      </trkpt>
      <trkpt lat="45.05615" lon="5.67188">
        <ele>291</ele>
        <time>2021-01-16T15:36:32Z</time>
      </trkpt>
      <trkpt lat="45.05614" lon="5.6719">
        <ele>291.4</ele>
        <time>2021-01-16T15:36:33Z</time>
      </trkpt>
      <trkpt lat="45.05612" lon="5.67193">
        <ele>291.2</ele>
        <time>2021-01-16T15:36:34Z</time>
      </trkpt>
      <trkpt lat="45.05611" lon="5.67195">
        <ele>291.2</ele>
        <time>2021-01-16T15:36:35Z</time>
      </trkpt>
      <trkpt lat="45.05609" lon="5.67198">
        <ele>290.8</ele>
        <time>2021-01-16T15:36:36Z</time>
      </trkpt>
      <trkpt lat="45.05609" lon="5.67202">
        <ele>290.8</ele>
        <time>2021-01-16T15:36:37Z</time>
      </trkpt>
      <trkpt lat="45.05609" lon="5.67202">
        <ele>290.8</ele>
        <time>2021-01-16T15:36:38Z</time>
      </trkpt>
      <trkpt lat="45.05607" lon="5.67203">
        <ele>290.8</ele>
        <time>2021-01-16T15:36:39Z</time>
      </trkpt>
      <trkpt lat="45.05605" lon="5.67204">
        <ele>290.8</ele>
        <time>2021-01-16T15:36:40Z</time>
      </trkpt>
      <trkpt lat="45.05605" lon="5.67204">
        <ele>291</ele>
        <time>2021-01-16T15:36:41Z</time>
      </trkpt>
      <trkpt lat="45.05602" lon="5.67206">
        <ele>290.8</ele>
        <time>2021-01-16T15:36:42Z</time>
      </trkpt>
      <trkpt lat="45.05602" lon="5.67206">
        <ele>291</ele>
        <time>2021-01-16T15:36:43Z</time>
      </trkpt>
      <trkpt lat="45.05598" lon="5.67207">
        <ele>291</ele>
        <time>2021-01-16T15:36:44Z</time>
      </trkpt>
      <trkpt lat="45.05598" lon="5.67207">
        <ele>291.2</ele>
        <time>2021-01-16T15:36:45Z</time>
      </trkpt>
      <trkpt lat="45.05598" lon="5.67207">
        <ele>291.2</ele>
        <time>2021-01-16T15:36:46Z</time>
      </trkpt>
      <trkpt lat="45.05596" lon="5.6721">
        <ele>291.6</ele>
        <time>2021-01-16T15:36:47Z</time>
      </trkpt>
      <trkpt lat="45.05593" lon="5.67212">
        <ele>291.6</ele>
        <time>2021-01-16T15:36:48Z</time>
      </trkpt>
      <trkpt lat="45.0559" lon="5.67215">
        <ele>292.2</ele>
        <time>2021-01-16T15:36:49Z</time>
      </trkpt>
      <trkpt lat="45.05587" lon="5.67218">
        <ele>292</ele>
        <time>2021-01-16T15:36:50Z</time>
      </trkpt>
      <trkpt lat="45.05585" lon="5.6722">
        <ele>292.4</ele>
        <time>2021-01-16T15:36:51Z</time>
      </trkpt>
      <trkpt lat="45.05582" lon="5.67225">
        <ele>292</ele>
        <time>2021-01-16T15:36:52Z</time>
      </trkpt>
      <trkpt lat="45.05579" lon="5.67229">
        <ele>292.4</ele>
        <time>2021-01-16T15:36:53Z</time>
      </trkpt>
      <trkpt lat="45.05577" lon="5.67233">
        <ele>292</ele>
        <time>2021-01-16T15:36:54Z</time>
      </trkpt>
      <trkpt lat="45.05573" lon="5.67242">
        <ele>291.8</ele>
        <time>2021-01-16T15:36:55Z</time>
      </trkpt>
      <trkpt lat="45.05572" lon="5.67244">
        <ele>291.6</ele>
        <time>2021-01-16T15:36:56Z</time>
      </trkpt>
      <trkpt lat="45.05571" lon="5.6725">
        <ele>291.2</ele>
        <time>2021-01-16T15:36:57Z</time>
      </trkpt>
      <trkpt lat="45.0557" lon="5.67252">
        <ele>291.2</ele>
        <time>2021-01-16T15:36:58Z</time>
      </trkpt>
      <trkpt lat="45.05569" lon="5.67255">
        <ele>291.2</ele>
        <time>2021-01-16T15:36:59Z</time>
      </trkpt>
      <trkpt lat="45.05568" lon="5.67257">
        <ele>291.4</ele>
        <time>2021-01-16T15:37:00Z</time>
      </trkpt>
      <trkpt lat="45.05566" lon="5.67264">
        <ele>291.4</ele>
        <time>2021-01-16T15:37:01Z</time>
      </trkpt>
      <trkpt lat="45.05565" lon="5.67269">
        <ele>291.8</ele>
        <time>2021-01-16T15:37:02Z</time>
      </trkpt>
      <trkpt lat="45.05565" lon="5.67272">
        <ele>291.8</ele>
        <time>2021-01-16T15:37:03Z</time>
      </trkpt>
      <trkpt lat="45.05563" lon="5.67276">
        <ele>292.2</ele>
        <time>2021-01-16T15:37:04Z</time>
      </trkpt>
      <trkpt lat="45.05563" lon="5.67277">
        <ele>292</ele>
        <time>2021-01-16T15:37:05Z</time>
      </trkpt>
      <trkpt lat="45.05562" lon="5.67279">
        <ele>292.2</ele>
        <time>2021-01-16T15:37:06Z</time>
      </trkpt>
      <trkpt lat="45.05562" lon="5.67279">
        <ele>292.4</ele>
        <time>2021-01-16T15:37:07Z</time>
      </trkpt>
      <trkpt lat="45.05561" lon="5.67283">
        <ele>292.4</ele>
        <time>2021-01-16T15:37:08Z</time>
      </trkpt>
      <trkpt lat="45.05561" lon="5.67283">
        <ele>292.4</ele>
        <time>2021-01-16T15:37:09Z</time>
      </trkpt>
      <trkpt lat="45.0556" lon="5.67286">
        <ele>292.6</ele>
        <time>2021-01-16T15:37:10Z</time>
      </trkpt>
      <trkpt lat="45.0556" lon="5.67286">
        <ele>292.8</ele>
        <time>2021-01-16T15:37:11Z</time>
      </trkpt>
      <trkpt lat="45.05559" lon="5.67289">
        <ele>292.8</ele>
        <time>2021-01-16T15:37:12Z</time>
      </trkpt>
      <trkpt lat="45.05559" lon="5.67289">
        <ele>293</ele>
        <time>2021-01-16T15:37:13Z</time>
      </trkpt>
      <trkpt lat="45.05559" lon="5.67293">
        <ele>292.8</ele>
        <time>2021-01-16T15:37:14Z</time>
      </trkpt>
      <trkpt lat="45.05559" lon="5.67293">
        <ele>292.8</ele>
        <time>2021-01-16T15:37:15Z</time>
      </trkpt>
      <trkpt lat="45.05557" lon="5.67296">
        <ele>293</ele>
        <time>2021-01-16T15:37:16Z</time>
      </trkpt>
      <trkpt lat="45.05557" lon="5.67296">
        <ele>293.2</ele>
        <time>2021-01-16T15:37:17Z</time>
      </trkpt>
      <trkpt lat="45.05556" lon="5.67299">
        <ele>293.4</ele>
        <time>2021-01-16T15:37:18Z</time>
      </trkpt>
      <trkpt lat="45.05556" lon="5.67299">
        <ele>293.6</ele>
        <time>2021-01-16T15:37:19Z</time>
      </trkpt>
      <trkpt lat="45.05555" lon="5.67302">
        <ele>293.6</ele>
        <time>2021-01-16T15:37:20Z</time>
      </trkpt>
      <trkpt lat="45.05555" lon="5.67302">
        <ele>293.8</ele>
        <time>2021-01-16T15:37:21Z</time>
      </trkpt>
      <trkpt lat="45.05555" lon="5.67305">
        <ele>293.8</ele>
        <time>2021-01-16T15:37:22Z</time>
      </trkpt>
      <trkpt lat="45.05555" lon="5.67305">
        <ele>293.8</ele>
        <time>2021-01-16T15:37:23Z</time>
      </trkpt>
      <trkpt lat="45.05555" lon="5.67309">
        <ele>294</ele>
        <time>2021-01-16T15:37:24Z</time>
      </trkpt>
      <trkpt lat="45.05555" lon="5.67309">
        <ele>293.8</ele>
        <time>2021-01-16T15:37:25Z</time>
      </trkpt>
      <trkpt lat="45.05556" lon="5.67313">
        <ele>293.8</ele>
        <time>2021-01-16T15:37:26Z</time>
      </trkpt>
      <trkpt lat="45.05556" lon="5.67313">
        <ele>294</ele>
        <time>2021-01-16T15:37:27Z</time>
      </trkpt>
      <trkpt lat="45.05556" lon="5.67317">
        <ele>294</ele>
        <time>2021-01-16T15:37:28Z</time>
      </trkpt>
      <trkpt lat="45.05556" lon="5.67317">
        <ele>294</ele>
        <time>2021-01-16T15:37:29Z</time>
      </trkpt>
      <trkpt lat="45.05557" lon="5.67321">
        <ele>294</ele>
        <time>2021-01-16T15:37:30Z</time>
      </trkpt>
      <trkpt lat="45.05557" lon="5.67321">
        <ele>294</ele>
        <time>2021-01-16T15:37:31Z</time>
      </trkpt>
      <trkpt lat="45.05558" lon="5.67324">
        <ele>294</ele>
        <time>2021-01-16T15:37:32Z</time>
      </trkpt>
      <trkpt lat="45.05558" lon="5.67324">
        <ele>294.2</ele>
        <time>2021-01-16T15:37:33Z</time>
      </trkpt>
      <trkpt lat="45.05561" lon="5.67328">
        <ele>294.2</ele>
        <time>2021-01-16T15:37:34Z</time>
      </trkpt>
      <trkpt lat="45.05563" lon="5.6733">
        <ele>294</ele>
        <time>2021-01-16T15:37:35Z</time>
      </trkpt>
      <trkpt lat="45.05565" lon="5.67331">
        <ele>294.2</ele>
        <time>2021-01-16T15:37:36Z</time>
      </trkpt>
      <trkpt lat="45.05566" lon="5.67333">
        <ele>294.2</ele>
        <time>2021-01-16T15:37:37Z</time>
      </trkpt>
      <trkpt lat="45.05568" lon="5.67335">
        <ele>294.2</ele>
        <time>2021-01-16T15:37:38Z</time>
      </trkpt>
      <trkpt lat="45.05568" lon="5.67335">
        <ele>294</ele>
        <time>2021-01-16T15:37:39Z</time>
      </trkpt>
      <trkpt lat="45.05571" lon="5.67338">
        <ele>293.8</ele>
        <time>2021-01-16T15:37:40Z</time>
      </trkpt>
      <trkpt lat="45.05571" lon="5.67338">
        <ele>293.6</ele>
        <time>2021-01-16T15:37:41Z</time>
      </trkpt>
      <trkpt lat="45.05573" lon="5.67341">
        <ele>293.4</ele>
        <time>2021-01-16T15:37:42Z</time>
      </trkpt>
      <trkpt lat="45.05573" lon="5.67341">
        <ele>293.4</ele>
        <time>2021-01-16T15:37:43Z</time>
      </trkpt>
      <trkpt lat="45.05575" lon="5.67345">
        <ele>293.2</ele>
        <time>2021-01-16T15:37:44Z</time>
      </trkpt>
      <trkpt lat="45.05577" lon="5.67347">
        <ele>293.2</ele>
        <time>2021-01-16T15:37:45Z</time>
      </trkpt>
      <trkpt lat="45.05578" lon="5.67349">
        <ele>293.4</ele>
        <time>2021-01-16T15:37:46Z</time>
      </trkpt>
      <trkpt lat="45.0558" lon="5.67351">
        <ele>293</ele>
        <time>2021-01-16T15:37:47Z</time>
      </trkpt>
      <trkpt lat="45.05583" lon="5.67354">
        <ele>293.2</ele>
        <time>2021-01-16T15:37:48Z</time>
      </trkpt>
      <trkpt lat="45.05585" lon="5.67357">
        <ele>292.8</ele>
        <time>2021-01-16T15:37:49Z</time>
      </trkpt>
      <trkpt lat="45.05588" lon="5.67361">
        <ele>293.2</ele>
        <time>2021-01-16T15:37:50Z</time>
      </trkpt>
      <trkpt lat="45.05591" lon="5.67365">
        <ele>293</ele>
        <time>2021-01-16T15:37:51Z</time>
      </trkpt>
      <trkpt lat="45.05594" lon="5.67368">
        <ele>293</ele>
        <time>2021-01-16T15:37:52Z</time>
      </trkpt>
      <trkpt lat="45.05597" lon="5.67371">
        <ele>292.8</ele>
        <time>2021-01-16T15:37:53Z</time>
      </trkpt>
      <trkpt lat="45.056" lon="5.67374">
        <ele>292.8</ele>
        <time>2021-01-16T15:37:54Z</time>
      </trkpt>
      <trkpt lat="45.05602" lon="5.67377">
        <ele>292.6</ele>
        <time>2021-01-16T15:37:55Z</time>
      </trkpt>
      <trkpt lat="45.05604" lon="5.6738">
        <ele>292.2</ele>
        <time>2021-01-16T15:37:56Z</time>
      </trkpt>
      <trkpt lat="45.05607" lon="5.67383">
        <ele>292.2</ele>
        <time>2021-01-16T15:37:57Z</time>
      </trkpt>
      <trkpt lat="45.05609" lon="5.67386">
        <ele>292.6</ele>
        <time>2021-01-16T15:37:58Z</time>
      </trkpt>
      <trkpt lat="45.05612" lon="5.67388">
        <ele>292.8</ele>
        <time>2021-01-16T15:37:59Z</time>
      </trkpt>
      <trkpt lat="45.05614" lon="5.67391">
        <ele>292.8</ele>
        <time>2021-01-16T15:38:00Z</time>
      </trkpt>
      <trkpt lat="45.05617" lon="5.67394">
        <ele>293.2</ele>
        <time>2021-01-16T15:38:01Z</time>
      </trkpt>
      <trkpt lat="45.05619" lon="5.67397">
        <ele>293</ele>
        <time>2021-01-16T15:38:02Z</time>
      </trkpt>
      <trkpt lat="45.05621" lon="5.674">
        <ele>293.6</ele>
        <time>2021-01-16T15:38:03Z</time>
      </trkpt>
      <trkpt lat="45.05623" lon="5.67405">
        <ele>293.2</ele>
        <time>2021-01-16T15:38:04Z</time>
      </trkpt>
      <trkpt lat="45.05625" lon="5.6741">
        <ele>293.4</ele>
        <time>2021-01-16T15:38:05Z</time>
      </trkpt>
      <trkpt lat="45.05626" lon="5.67414">
        <ele>293</ele>
        <time>2021-01-16T15:38:06Z</time>
      </trkpt>
      <trkpt lat="45.05626" lon="5.67419">
        <ele>292.6</ele>
        <time>2021-01-16T15:38:07Z</time>
      </trkpt>
      <trkpt lat="45.05626" lon="5.67423">
        <ele>292.8</ele>
        <time>2021-01-16T15:38:08Z</time>
      </trkpt>
      <trkpt lat="45.05626" lon="5.67428">
        <ele>292.8</ele>
        <time>2021-01-16T15:38:09Z</time>
      </trkpt>
      <trkpt lat="45.05625" lon="5.67432">
        <ele>293.2</ele>
        <time>2021-01-16T15:38:10Z</time>
      </trkpt>
      <trkpt lat="45.05625" lon="5.67436">
        <ele>293.2</ele>
        <time>2021-01-16T15:38:11Z</time>
      </trkpt>
      <trkpt lat="45.05625" lon="5.67438">
        <ele>293.8</ele>
        <time>2021-01-16T15:38:12Z</time>
      </trkpt>
      <trkpt lat="45.05625" lon="5.6744">
        <ele>293.6</ele>
        <time>2021-01-16T15:38:13Z</time>
      </trkpt>
      <trkpt lat="45.05624" lon="5.67442">
        <ele>294.2</ele>
        <time>2021-01-16T15:38:14Z</time>
      </trkpt>
      <trkpt lat="45.05623" lon="5.67448">
        <ele>293.8</ele>
        <time>2021-01-16T15:38:15Z</time>
      </trkpt>
      <trkpt lat="45.05623" lon="5.67454">
        <ele>294</ele>
        <time>2021-01-16T15:38:16Z</time>
      </trkpt>
      <trkpt lat="45.05622" lon="5.6746">
        <ele>293.6</ele>
        <time>2021-01-16T15:38:17Z</time>
      </trkpt>
      <trkpt lat="45.05621" lon="5.67467">
        <ele>293.2</ele>
        <time>2021-01-16T15:38:18Z</time>
      </trkpt>
      <trkpt lat="45.05621" lon="5.67472">
        <ele>293.4</ele>
        <time>2021-01-16T15:38:19Z</time>
      </trkpt>
      <trkpt lat="45.05621" lon="5.67476">
        <ele>293.2</ele>
        <time>2021-01-16T15:38:20Z</time>
      </trkpt>
      <trkpt lat="45.05621" lon="5.67481">
        <ele>293.6</ele>
        <time>2021-01-16T15:38:21Z</time>
      </trkpt>
      <trkpt lat="45.05621" lon="5.67484">
        <ele>293.6</ele>
        <time>2021-01-16T15:38:22Z</time>
      </trkpt>
      <trkpt lat="45.05621" lon="5.67487">
        <ele>294.2</ele>
        <time>2021-01-16T15:38:23Z</time>
      </trkpt>
      <trkpt lat="45.05621" lon="5.6749">
        <ele>294</ele>
        <time>2021-01-16T15:38:24Z</time>
      </trkpt>
      <trkpt lat="45.05621" lon="5.675">
        <ele>294.2</ele>
        <time>2021-01-16T15:38:25Z</time>
      </trkpt>
      <trkpt lat="45.0562" lon="5.67502">
        <ele>294</ele>
        <time>2021-01-16T15:38:26Z</time>
      </trkpt>
      <trkpt lat="45.0562" lon="5.67506">
        <ele>294.4</ele>
        <time>2021-01-16T15:38:27Z</time>
      </trkpt>
      <trkpt lat="45.05619" lon="5.6751">
        <ele>294</ele>
        <time>2021-01-16T15:38:28Z</time>
      </trkpt>
      <trkpt lat="45.05619" lon="5.67514">
        <ele>293.6</ele>
        <time>2021-01-16T15:38:29Z</time>
      </trkpt>
      <trkpt lat="45.0562" lon="5.67519">
        <ele>293.6</ele>
        <time>2021-01-16T15:38:30Z</time>
      </trkpt>
      <trkpt lat="45.05621" lon="5.67523">
        <ele>293.4</ele>
        <time>2021-01-16T15:38:31Z</time>
      </trkpt>
      <trkpt lat="45.05621" lon="5.67528">
        <ele>293.8</ele>
        <time>2021-01-16T15:38:32Z</time>
      </trkpt>
      <trkpt lat="45.05621" lon="5.6753">
        <ele>293.8</ele>
        <time>2021-01-16T15:38:33Z</time>
      </trkpt>
      <trkpt lat="45.05621" lon="5.67532">
        <ele>294.2</ele>
        <time>2021-01-16T15:38:34Z</time>
      </trkpt>
      <trkpt lat="45.05621" lon="5.67534">
        <ele>294</ele>
        <time>2021-01-16T15:38:35Z</time>
      </trkpt>
      <trkpt lat="45.05622" lon="5.6754">
        <ele>294.6</ele>
        <time>2021-01-16T15:38:36Z</time>
      </trkpt>
      <trkpt lat="45.05622" lon="5.67546">
        <ele>294.2</ele>
        <time>2021-01-16T15:38:37Z</time>
      </trkpt>
      <trkpt lat="45.05622" lon="5.67552">
        <ele>294.6</ele>
        <time>2021-01-16T15:38:38Z</time>
      </trkpt>
      <trkpt lat="45.05622" lon="5.67559">
        <ele>294.2</ele>
        <time>2021-01-16T15:38:39Z</time>
      </trkpt>
      <trkpt lat="45.05622" lon="5.67564">
        <ele>294.4</ele>
        <time>2021-01-16T15:38:40Z</time>
      </trkpt>
      <trkpt lat="45.05623" lon="5.67569">
        <ele>293.8</ele>
        <time>2021-01-16T15:38:41Z</time>
      </trkpt>
      <trkpt lat="45.05623" lon="5.67573">
        <ele>294.2</ele>
        <time>2021-01-16T15:38:42Z</time>
      </trkpt>
      <trkpt lat="45.05624" lon="5.67578">
        <ele>294</ele>
        <time>2021-01-16T15:38:43Z</time>
      </trkpt>
      <trkpt lat="45.05625" lon="5.67582">
        <ele>293.8</ele>
        <time>2021-01-16T15:38:44Z</time>
      </trkpt>
      <trkpt lat="45.05626" lon="5.67586">
        <ele>294.2</ele>
        <time>2021-01-16T15:38:45Z</time>
      </trkpt>
      <trkpt lat="45.05627" lon="5.67588">
        <ele>294.2</ele>
        <time>2021-01-16T15:38:46Z</time>
      </trkpt>
      <trkpt lat="45.05627" lon="5.67591">
        <ele>294.4</ele>
        <time>2021-01-16T15:38:47Z</time>
      </trkpt>
      <trkpt lat="45.05628" lon="5.67593">
        <ele>294.6</ele>
        <time>2021-01-16T15:38:48Z</time>
      </trkpt>
      <trkpt lat="45.0563" lon="5.676">
        <ele>294.8</ele>
        <time>2021-01-16T15:38:49Z</time>
      </trkpt>
      <trkpt lat="45.05631" lon="5.67606">
        <ele>294.8</ele>
        <time>2021-01-16T15:38:50Z</time>
      </trkpt>
      <trkpt lat="45.05632" lon="5.67613">
        <ele>295.4</ele>
        <time>2021-01-16T15:38:51Z</time>
      </trkpt>
      <trkpt lat="45.05632" lon="5.67618">
        <ele>295.2</ele>
        <time>2021-01-16T15:38:52Z</time>
      </trkpt>
      <trkpt lat="45.05632" lon="5.67622">
        <ele>295.4</ele>
        <time>2021-01-16T15:38:53Z</time>
      </trkpt>
      <trkpt lat="45.05632" lon="5.67627">
        <ele>295</ele>
        <time>2021-01-16T15:38:54Z</time>
      </trkpt>
      <trkpt lat="45.05632" lon="5.67627">
        <ele>295.2</ele>
        <time>2021-01-16T15:38:55Z</time>
      </trkpt>
      <trkpt lat="45.05632" lon="5.67627">
        <ele>295</ele>
        <time>2021-01-16T15:38:56Z</time>
      </trkpt>
      <trkpt lat="45.05631" lon="5.67631">
        <ele>294.8</ele>
        <time>2021-01-16T15:38:57Z</time>
      </trkpt>
      <trkpt lat="45.05631" lon="5.67635">
        <ele>295</ele>
        <time>2021-01-16T15:38:58Z</time>
      </trkpt>
      <trkpt lat="45.05631" lon="5.6764">
        <ele>294.8</ele>
        <time>2021-01-16T15:38:59Z</time>
      </trkpt>
      <trkpt lat="45.05631" lon="5.67644">
        <ele>295.2</ele>
        <time>2021-01-16T15:39:00Z</time>
      </trkpt>
      <trkpt lat="45.05631" lon="5.6765">
        <ele>295</ele>
        <time>2021-01-16T15:39:01Z</time>
      </trkpt>
      <trkpt lat="45.05631" lon="5.67656">
        <ele>295.4</ele>
        <time>2021-01-16T15:39:02Z</time>
      </trkpt>
      <trkpt lat="45.0563" lon="5.67661">
        <ele>295</ele>
        <time>2021-01-16T15:39:03Z</time>
      </trkpt>
      <trkpt lat="45.0563" lon="5.67667">
        <ele>295.6</ele>
        <time>2021-01-16T15:39:04Z</time>
      </trkpt>
      <trkpt lat="45.05631" lon="5.67674">
        <ele>295.2</ele>
        <time>2021-01-16T15:39:05Z</time>
      </trkpt>
      <trkpt lat="45.05632" lon="5.67678">
        <ele>295.4</ele>
        <time>2021-01-16T15:39:06Z</time>
      </trkpt>
      <trkpt lat="45.05633" lon="5.67682">
        <ele>295.2</ele>
        <time>2021-01-16T15:39:07Z</time>
      </trkpt>
      <trkpt lat="45.05634" lon="5.67686">
        <ele>295.4</ele>
        <time>2021-01-16T15:39:08Z</time>
      </trkpt>
      <trkpt lat="45.05635" lon="5.6769">
        <ele>295</ele>
        <time>2021-01-16T15:39:09Z</time>
      </trkpt>
      <trkpt lat="45.05637" lon="5.67694">
        <ele>295</ele>
        <time>2021-01-16T15:39:10Z</time>
      </trkpt>
      <trkpt lat="45.05638" lon="5.67698">
        <ele>295</ele>
        <time>2021-01-16T15:39:11Z</time>
      </trkpt>
      <trkpt lat="45.05639" lon="5.67702">
        <ele>295</ele>
        <time>2021-01-16T15:39:12Z</time>
      </trkpt>
      <trkpt lat="45.05641" lon="5.67707">
        <ele>295.2</ele>
        <time>2021-01-16T15:39:13Z</time>
      </trkpt>
      <trkpt lat="45.05642" lon="5.67711">
        <ele>295</ele>
        <time>2021-01-16T15:39:14Z</time>
      </trkpt>
      <trkpt lat="45.05642" lon="5.67711">
        <ele>295.6</ele>
        <time>2021-01-16T15:39:15Z</time>
      </trkpt>
      <trkpt lat="45.05642" lon="5.67711">
        <ele>295.2</ele>
        <time>2021-01-16T15:39:16Z</time>
      </trkpt>
      <trkpt lat="45.05644" lon="5.67714">
        <ele>295.8</ele>
        <time>2021-01-16T15:39:17Z</time>
      </trkpt>
      <trkpt lat="45.05645" lon="5.67718">
        <ele>295.2</ele>
        <time>2021-01-16T15:39:18Z</time>
      </trkpt>
      <trkpt lat="45.05646" lon="5.67721">
        <ele>295.6</ele>
        <time>2021-01-16T15:39:19Z</time>
      </trkpt>
      <trkpt lat="45.05647" lon="5.67724">
        <ele>295.2</ele>
        <time>2021-01-16T15:39:20Z</time>
      </trkpt>
      <trkpt lat="45.05649" lon="5.67728">
        <ele>295.4</ele>
        <time>2021-01-16T15:39:21Z</time>
      </trkpt>
      <trkpt lat="45.0565" lon="5.67731">
        <ele>295.2</ele>
        <time>2021-01-16T15:39:22Z</time>
      </trkpt>
      <trkpt lat="45.05651" lon="5.67734">
        <ele>295</ele>
        <time>2021-01-16T15:39:23Z</time>
      </trkpt>
      <trkpt lat="45.05653" lon="5.67737">
        <ele>295</ele>
        <time>2021-01-16T15:39:24Z</time>
      </trkpt>
      <trkpt lat="45.05655" lon="5.67742">
        <ele>294.8</ele>
        <time>2021-01-16T15:39:25Z</time>
      </trkpt>
      <trkpt lat="45.05657" lon="5.67747">
        <ele>295</ele>
        <time>2021-01-16T15:39:26Z</time>
      </trkpt>
      <trkpt lat="45.0566" lon="5.67752">
        <ele>294.8</ele>
        <time>2021-01-16T15:39:27Z</time>
      </trkpt>
      <trkpt lat="45.05662" lon="5.67758">
        <ele>295.2</ele>
        <time>2021-01-16T15:39:28Z</time>
      </trkpt>
      <trkpt lat="45.05666" lon="5.67766">
        <ele>295</ele>
        <time>2021-01-16T15:39:29Z</time>
      </trkpt>
      <trkpt lat="45.05667" lon="5.67768">
        <ele>295.4</ele>
        <time>2021-01-16T15:39:30Z</time>
      </trkpt>
      <trkpt lat="45.05669" lon="5.6777">
        <ele>295.2</ele>
        <time>2021-01-16T15:39:31Z</time>
      </trkpt>
      <trkpt lat="45.05672" lon="5.67776">
        <ele>295.4</ele>
        <time>2021-01-16T15:39:32Z</time>
      </trkpt>
      <trkpt lat="45.05674" lon="5.6778">
        <ele>295.2</ele>
        <time>2021-01-16T15:39:33Z</time>
      </trkpt>
      <trkpt lat="45.05675" lon="5.67783">
        <ele>295.4</ele>
        <time>2021-01-16T15:39:34Z</time>
      </trkpt>
      <trkpt lat="45.05677" lon="5.67787">
        <ele>295</ele>
        <time>2021-01-16T15:39:35Z</time>
      </trkpt>
      <trkpt lat="45.05679" lon="5.67788">
        <ele>295</ele>
        <time>2021-01-16T15:39:36Z</time>
      </trkpt>
      <trkpt lat="45.0568" lon="5.6779">
        <ele>294.8</ele>
        <time>2021-01-16T15:39:37Z</time>
      </trkpt>
      <trkpt lat="45.05681" lon="5.67791">
        <ele>294.6</ele>
        <time>2021-01-16T15:39:38Z</time>
      </trkpt>
      <trkpt lat="45.05685" lon="5.67796">
        <ele>295</ele>
        <time>2021-01-16T15:39:39Z</time>
      </trkpt>
      <trkpt lat="45.05687" lon="5.67798">
        <ele>294.8</ele>
        <time>2021-01-16T15:39:40Z</time>
      </trkpt>
      <trkpt lat="45.05689" lon="5.67801">
        <ele>295.2</ele>
        <time>2021-01-16T15:39:41Z</time>
      </trkpt>
      <trkpt lat="45.05692" lon="5.67805">
        <ele>295</ele>
        <time>2021-01-16T15:39:42Z</time>
      </trkpt>
      <trkpt lat="45.05696" lon="5.67809">
        <ele>295.4</ele>
        <time>2021-01-16T15:39:43Z</time>
      </trkpt>
      <trkpt lat="45.057" lon="5.67813">
        <ele>295.4</ele>
        <time>2021-01-16T15:39:44Z</time>
      </trkpt>
      <trkpt lat="45.05702" lon="5.67816">
        <ele>295.8</ele>
        <time>2021-01-16T15:39:45Z</time>
      </trkpt>
      <trkpt lat="45.05705" lon="5.67819">
        <ele>295.4</ele>
        <time>2021-01-16T15:39:46Z</time>
      </trkpt>
      <trkpt lat="45.05707" lon="5.67822">
        <ele>295.6</ele>
        <time>2021-01-16T15:39:47Z</time>
      </trkpt>
      <trkpt lat="45.05709" lon="5.67825">
        <ele>295.2</ele>
        <time>2021-01-16T15:39:48Z</time>
      </trkpt>
      <trkpt lat="45.05712" lon="5.67828">
        <ele>294.8</ele>
        <time>2021-01-16T15:39:49Z</time>
      </trkpt>
      <trkpt lat="45.05714" lon="5.67831">
        <ele>295</ele>
        <time>2021-01-16T15:39:50Z</time>
      </trkpt>
      <trkpt lat="45.05715" lon="5.67832">
        <ele>294.8</ele>
        <time>2021-01-16T15:39:51Z</time>
      </trkpt>
      <trkpt lat="45.05716" lon="5.67833">
        <ele>295.2</ele>
        <time>2021-01-16T15:39:52Z</time>
      </trkpt>
      <trkpt lat="45.05717" lon="5.67835">
        <ele>295.2</ele>
        <time>2021-01-16T15:39:53Z</time>
      </trkpt>
      <trkpt lat="45.0572" lon="5.67838">
        <ele>295.6</ele>
        <time>2021-01-16T15:39:54Z</time>
      </trkpt>
      <trkpt lat="45.05723" lon="5.67842">
        <ele>295.6</ele>
        <time>2021-01-16T15:39:55Z</time>
      </trkpt>
      <trkpt lat="45.05726" lon="5.67846">
        <ele>295.8</ele>
        <time>2021-01-16T15:39:56Z</time>
      </trkpt>
      <trkpt lat="45.0573" lon="5.6785">
        <ele>295.8</ele>
        <time>2021-01-16T15:39:57Z</time>
      </trkpt>
      <trkpt lat="45.05732" lon="5.67853">
        <ele>296.2</ele>
        <time>2021-01-16T15:39:58Z</time>
      </trkpt>
      <trkpt lat="45.05735" lon="5.67856">
        <ele>295.8</ele>
        <time>2021-01-16T15:39:59Z</time>
      </trkpt>
      <trkpt lat="45.05737" lon="5.67859">
        <ele>295.8</ele>
        <time>2021-01-16T15:40:00Z</time>
      </trkpt>
      <trkpt lat="45.05739" lon="5.67861">
        <ele>295.6</ele>
        <time>2021-01-16T15:40:01Z</time>
      </trkpt>
      <trkpt lat="45.0574" lon="5.67863">
        <ele>295.2</ele>
        <time>2021-01-16T15:40:02Z</time>
      </trkpt>
      <trkpt lat="45.05741" lon="5.67864">
        <ele>295.4</ele>
        <time>2021-01-16T15:40:03Z</time>
      </trkpt>
      <trkpt lat="45.05744" lon="5.6787">
        <ele>295.2</ele>
        <time>2021-01-16T15:40:04Z</time>
      </trkpt>
      <trkpt lat="45.05745" lon="5.67873">
        <ele>295.4</ele>
        <time>2021-01-16T15:40:05Z</time>
      </trkpt>
      <trkpt lat="45.05745" lon="5.67875">
        <ele>295.2</ele>
        <time>2021-01-16T15:40:06Z</time>
      </trkpt>
      <trkpt lat="45.05746" lon="5.67881">
        <ele>295.4</ele>
        <time>2021-01-16T15:40:07Z</time>
      </trkpt>
      <trkpt lat="45.05748" lon="5.67886">
        <ele>295.4</ele>
        <time>2021-01-16T15:40:08Z</time>
      </trkpt>
      <trkpt lat="45.05749" lon="5.67892">
        <ele>296</ele>
        <time>2021-01-16T15:40:09Z</time>
      </trkpt>
      <trkpt lat="45.0575" lon="5.67898">
        <ele>295.6</ele>
        <time>2021-01-16T15:40:10Z</time>
      </trkpt>
      <trkpt lat="45.0575" lon="5.679">
        <ele>296</ele>
        <time>2021-01-16T15:40:11Z</time>
      </trkpt>
      <trkpt lat="45.0575" lon="5.67903">
        <ele>295.4</ele>
        <time>2021-01-16T15:40:12Z</time>
      </trkpt>
      <trkpt lat="45.0575" lon="5.67905">
        <ele>295.6</ele>
        <time>2021-01-16T15:40:13Z</time>
      </trkpt>
      <trkpt lat="45.0575" lon="5.67913">
        <ele>295.2</ele>
        <time>2021-01-16T15:40:14Z</time>
      </trkpt>
      <trkpt lat="45.0575" lon="5.67919">
        <ele>295</ele>
        <time>2021-01-16T15:40:15Z</time>
      </trkpt>
      <trkpt lat="45.05751" lon="5.67926">
        <ele>294.6</ele>
        <time>2021-01-16T15:40:16Z</time>
      </trkpt>
      <trkpt lat="45.05752" lon="5.67931">
        <ele>294.8</ele>
        <time>2021-01-16T15:40:17Z</time>
      </trkpt>
      <trkpt lat="45.05753" lon="5.67935">
        <ele>294.4</ele>
        <time>2021-01-16T15:40:18Z</time>
      </trkpt>
      <trkpt lat="45.05753" lon="5.6794">
        <ele>294.4</ele>
        <time>2021-01-16T15:40:19Z</time>
      </trkpt>
      <trkpt lat="45.05755" lon="5.67943">
        <ele>294.2</ele>
        <time>2021-01-16T15:40:20Z</time>
      </trkpt>
      <trkpt lat="45.05756" lon="5.67947">
        <ele>293.8</ele>
        <time>2021-01-16T15:40:21Z</time>
      </trkpt>
      <trkpt lat="45.05757" lon="5.67951">
        <ele>293.8</ele>
        <time>2021-01-16T15:40:22Z</time>
      </trkpt>
      <trkpt lat="45.05757" lon="5.67951">
        <ele>293.6</ele>
        <time>2021-01-16T15:40:23Z</time>
      </trkpt>
      <trkpt lat="45.05757" lon="5.67951">
        <ele>293.6</ele>
        <time>2021-01-16T15:40:24Z</time>
      </trkpt>
      <trkpt lat="45.05758" lon="5.67955">
        <ele>293.6</ele>
        <time>2021-01-16T15:40:25Z</time>
      </trkpt>
      <trkpt lat="45.05759" lon="5.67958">
        <ele>293.6</ele>
        <time>2021-01-16T15:40:26Z</time>
      </trkpt>
      <trkpt lat="45.05759" lon="5.67962">
        <ele>293.6</ele>
        <time>2021-01-16T15:40:27Z</time>
      </trkpt>
      <trkpt lat="45.0576" lon="5.67966">
        <ele>293.8</ele>
        <time>2021-01-16T15:40:28Z</time>
      </trkpt>
      <trkpt lat="45.05762" lon="5.67969">
        <ele>293.6</ele>
        <time>2021-01-16T15:40:29Z</time>
      </trkpt>
      <trkpt lat="45.05764" lon="5.67972">
        <ele>293.8</ele>
        <time>2021-01-16T15:40:30Z</time>
      </trkpt>
      <trkpt lat="45.05766" lon="5.67975">
        <ele>293.6</ele>
        <time>2021-01-16T15:40:31Z</time>
      </trkpt>
      <trkpt lat="45.05768" lon="5.67978">
        <ele>293.8</ele>
        <time>2021-01-16T15:40:32Z</time>
      </trkpt>
      <trkpt lat="45.05771" lon="5.67979">
        <ele>293.6</ele>
        <time>2021-01-16T15:40:33Z</time>
      </trkpt>
      <trkpt lat="45.05774" lon="5.67979">
        <ele>293.8</ele>
        <time>2021-01-16T15:40:34Z</time>
      </trkpt>
      <trkpt lat="45.05776" lon="5.6798">
        <ele>293.6</ele>
        <time>2021-01-16T15:40:35Z</time>
      </trkpt>
      <trkpt lat="45.05779" lon="5.67981">
        <ele>293.8</ele>
        <time>2021-01-16T15:40:36Z</time>
      </trkpt>
      <trkpt lat="45.05781" lon="5.67982">
        <ele>293.6</ele>
        <time>2021-01-16T15:40:37Z</time>
      </trkpt>
      <trkpt lat="45.05784" lon="5.67984">
        <ele>294</ele>
        <time>2021-01-16T15:40:38Z</time>
      </trkpt>
      <trkpt lat="45.05787" lon="5.67985">
        <ele>293.8</ele>
        <time>2021-01-16T15:40:39Z</time>
      </trkpt>
      <trkpt lat="45.05789" lon="5.67987">
        <ele>294.2</ele>
        <time>2021-01-16T15:40:40Z</time>
      </trkpt>
      <trkpt lat="45.05791" lon="5.67986">
        <ele>294.4</ele>
        <time>2021-01-16T15:40:41Z</time>
      </trkpt>
      <trkpt lat="45.05794" lon="5.67986">
        <ele>294.8</ele>
        <time>2021-01-16T15:40:42Z</time>
      </trkpt>
      <trkpt lat="45.05796" lon="5.67985">
        <ele>294.4</ele>
        <time>2021-01-16T15:40:43Z</time>
      </trkpt>
      <trkpt lat="45.05798" lon="5.67984">
        <ele>294.6</ele>
        <time>2021-01-16T15:40:44Z</time>
      </trkpt>
      <trkpt lat="45.058" lon="5.67984">
        <ele>294.4</ele>
        <time>2021-01-16T15:40:45Z</time>
      </trkpt>
      <trkpt lat="45.05802" lon="5.67983">
        <ele>294.8</ele>
        <time>2021-01-16T15:40:46Z</time>
      </trkpt>
      <trkpt lat="45.05803" lon="5.67983">
        <ele>294.6</ele>
        <time>2021-01-16T15:40:47Z</time>
      </trkpt>
      <trkpt lat="45.05805" lon="5.67982">
        <ele>294.4</ele>
        <time>2021-01-16T15:40:48Z</time>
      </trkpt>
      <trkpt lat="45.05806" lon="5.67982">
        <ele>294.4</ele>
        <time>2021-01-16T15:40:49Z</time>
      </trkpt>
      <trkpt lat="45.05808" lon="5.67981">
        <ele>294.6</ele>
        <time>2021-01-16T15:40:50Z</time>
      </trkpt>
      <trkpt lat="45.05809" lon="5.67981">
        <ele>294.4</ele>
        <time>2021-01-16T15:40:51Z</time>
      </trkpt>
      <trkpt lat="45.05809" lon="5.67981">
        <ele>294.6</ele>
        <time>2021-01-16T15:40:52Z</time>
      </trkpt>
      <trkpt lat="45.05809" lon="5.67981">
        <ele>294.6</ele>
        <time>2021-01-16T15:40:53Z</time>
      </trkpt>
      <trkpt lat="45.05809" lon="5.67981">
        <ele>294.6</ele>
        <time>2021-01-16T15:40:54Z</time>
      </trkpt>
      <trkpt lat="45.05809" lon="5.67981">
        <ele>294.6</ele>
        <time>2021-01-16T15:40:55Z</time>
      </trkpt>
      <trkpt lat="45.05809" lon="5.67981">
        <ele>294.6</ele>
        <time>2021-01-16T15:40:56Z</time>
      </trkpt>
      <trkpt lat="45.05809" lon="5.67981">
        <ele>294.6</ele>
        <time>2021-01-16T15:40:57Z</time>
      </trkpt>
    </trkseg>
  </trk>
</gpx>